<?xml version="1.0" encoding="UTF-8"?>
<gpx version="1.1" creator="https://www.youtrack.es" xsi:schemaLocation="http://www.topografix.com/GPX/1/1 http://www.topografix.com/GPX/1/1/gpx.xsd http://www.garmin.com/xmlschemas/GpxExtensions/v3 http://www.garmin.com/xmlschemas/GpxExtensionsv3.xsd http://www.garmin.com/xmlschemas/TrackPointExtension/v1 http://www.garmin.com/xmlschemas/TrackPointExtensionv1.xsd" xmlns:gpxtpx="http://www.garmin.com/xmlschemas/TrackPointExtension/v1" xmlns:gpxx="http://www.garmin.com/xmlschemas/GpxExtensions/v3" xmlns:xsi="http://www.w3.org/2001/XMLSchema-instance">
  <metadata>
    <link href="https://www.youtrack.es">
      <text>YouTrack.es</text>
    </link>
    <time>2026-05-08T16:34:30Z</time>
  </metadata>
  <trk>
    <src>https://www.youtrack.es</src>
    <link href="https://www.youtrack.es/ruta/36900-alcala-bike-race">
      <text>YouTrack.es</text>
    </link>
    <trkseg>
      <trkpt lat="37.464591" lon="-3.924931">
        <ele>917.028</ele>
        <time>2020-05-20T12:07:22Z</time>
      </trkpt>
      <trkpt lat="37.464490" lon="-3.924687">
        <ele>917.989</ele>
        <time>2020-05-20T12:07:47Z</time>
      </trkpt>
      <trkpt lat="37.464513" lon="-3.924632">
        <ele>917.717</ele>
        <time>2020-05-20T12:07:52Z</time>
      </trkpt>
      <trkpt lat="37.464617" lon="-3.924569">
        <ele>917.608</ele>
        <time>2020-05-20T12:08:05Z</time>
      </trkpt>
      <trkpt lat="37.464739" lon="-3.924328">
        <ele>918.510</ele>
        <time>2020-05-20T12:08:31Z</time>
      </trkpt>
      <trkpt lat="37.464988" lon="-3.923863">
        <ele>920.031</ele>
        <time>2020-05-20T12:09:22Z</time>
      </trkpt>
      <trkpt lat="37.465081" lon="-3.923795">
        <ele>921.058</ele>
        <time>2020-05-20T12:09:34Z</time>
      </trkpt>
      <trkpt lat="37.465137" lon="-3.923781">
        <ele>921.066</ele>
        <time>2020-05-20T12:09:41Z</time>
      </trkpt>
      <trkpt lat="37.465511" lon="-3.923487">
        <ele>925.276</ele>
        <time>2020-05-20T12:10:31Z</time>
      </trkpt>
      <trkpt lat="37.465751" lon="-3.923332">
        <ele>929.391</ele>
        <time>2020-05-20T12:11:02Z</time>
      </trkpt>
      <trkpt lat="37.466159" lon="-3.923154">
        <ele>931.370</ele>
        <time>2020-05-20T12:11:51Z</time>
      </trkpt>
      <trkpt lat="37.466817" lon="-3.922876">
        <ele>938.285</ele>
        <time>2020-05-20T12:13:11Z</time>
      </trkpt>
      <trkpt lat="37.466729" lon="-3.922491">
        <ele>943.124</ele>
        <time>2020-05-20T12:13:47Z</time>
      </trkpt>
      <trkpt lat="37.466697" lon="-3.922116">
        <ele>946.904</ele>
        <time>2020-05-20T12:14:22Z</time>
      </trkpt>
      <trkpt lat="37.466781" lon="-3.921889">
        <ele>948.514</ele>
        <time>2020-05-20T12:14:44Z</time>
      </trkpt>
      <trkpt lat="37.466941" lon="-3.921639">
        <ele>950.208</ele>
        <time>2020-05-20T12:15:13Z</time>
      </trkpt>
      <trkpt lat="37.467136" lon="-3.921437">
        <ele>950.630</ele>
        <time>2020-05-20T12:15:42Z</time>
      </trkpt>
      <trkpt lat="37.468208" lon="-3.920384">
        <ele>957.281</ele>
        <time>2020-05-20T12:18:17Z</time>
      </trkpt>
      <trkpt lat="37.468328" lon="-3.920215">
        <ele>959.558</ele>
        <time>2020-05-20T12:18:38Z</time>
      </trkpt>
      <trkpt lat="37.468530" lon="-3.920103">
        <ele>959.066</ele>
        <time>2020-05-20T12:19:03Z</time>
      </trkpt>
      <trkpt lat="37.468770" lon="-3.920039">
        <ele>958.666</ele>
        <time>2020-05-20T12:19:31Z</time>
      </trkpt>
      <trkpt lat="37.468968" lon="-3.920055">
        <ele>959.571</ele>
        <time>2020-05-20T12:19:53Z</time>
      </trkpt>
      <trkpt lat="37.469252" lon="-3.920193">
        <ele>957.790</ele>
        <time>2020-05-20T12:20:28Z</time>
      </trkpt>
      <trkpt lat="37.469348" lon="-3.920306">
        <ele>957.865</ele>
        <time>2020-05-20T12:20:43Z</time>
      </trkpt>
      <trkpt lat="37.469609" lon="-3.920454">
        <ele>959.064</ele>
        <time>2020-05-20T12:21:16Z</time>
      </trkpt>
      <trkpt lat="37.469858" lon="-3.920469">
        <ele>960.306</ele>
        <time>2020-05-20T12:21:44Z</time>
      </trkpt>
      <trkpt lat="37.470080" lon="-3.920409">
        <ele>962.416</ele>
        <time>2020-05-20T12:22:10Z</time>
      </trkpt>
      <trkpt lat="37.470271" lon="-3.920333">
        <ele>965.008</ele>
        <time>2020-05-20T12:22:33Z</time>
      </trkpt>
      <trkpt lat="37.470372" lon="-3.920212">
        <ele>964.564</ele>
        <time>2020-05-20T12:22:49Z</time>
      </trkpt>
      <trkpt lat="37.470889" lon="-3.919879">
        <ele>967.815</ele>
        <time>2020-05-20T12:23:55Z</time>
      </trkpt>
      <trkpt lat="37.471642" lon="-3.919646">
        <ele>973.032</ele>
        <time>2020-05-20T12:25:24Z</time>
      </trkpt>
      <trkpt lat="37.472422" lon="-3.919144">
        <ele>978.060</ele>
        <time>2020-05-20T12:27:03Z</time>
      </trkpt>
      <trkpt lat="37.473462" lon="-3.918604">
        <ele>985.070</ele>
        <time>2020-05-20T12:29:12Z</time>
      </trkpt>
      <trkpt lat="37.473697" lon="-3.918373">
        <ele>987.085</ele>
        <time>2020-05-20T12:29:46Z</time>
      </trkpt>
      <trkpt lat="37.473914" lon="-3.918230">
        <ele>988.434</ele>
        <time>2020-05-20T12:30:14Z</time>
      </trkpt>
      <trkpt lat="37.474294" lon="-3.918079">
        <ele>991.069</ele>
        <time>2020-05-20T12:30:59Z</time>
      </trkpt>
      <trkpt lat="37.474426" lon="-3.917910">
        <ele>992.527</ele>
        <time>2020-05-20T12:31:21Z</time>
      </trkpt>
      <trkpt lat="37.474619" lon="-3.917819">
        <ele>994.068</ele>
        <time>2020-05-20T12:31:44Z</time>
      </trkpt>
      <trkpt lat="37.475284" lon="-3.917083">
        <ele>999.114</ele>
        <time>2020-05-20T12:33:25Z</time>
      </trkpt>
      <trkpt lat="37.476144" lon="-3.916586">
        <ele>1006.008</ele>
        <time>2020-05-20T12:35:13Z</time>
      </trkpt>
      <trkpt lat="37.476298" lon="-3.916549">
        <ele>1007.010</ele>
        <time>2020-05-20T12:35:31Z</time>
      </trkpt>
      <trkpt lat="37.476529" lon="-3.916664">
        <ele>1009.071</ele>
        <time>2020-05-20T12:35:59Z</time>
      </trkpt>
      <trkpt lat="37.476720" lon="-3.916716">
        <ele>1011.038</ele>
        <time>2020-05-20T12:36:22Z</time>
      </trkpt>
      <trkpt lat="37.476889" lon="-3.916661">
        <ele>1011.256</ele>
        <time>2020-05-20T12:36:42Z</time>
      </trkpt>
      <trkpt lat="37.477258" lon="-3.916604">
        <ele>1013.066</ele>
        <time>2020-05-20T12:37:24Z</time>
      </trkpt>
      <trkpt lat="37.477645" lon="-3.916482">
        <ele>1015.631</ele>
        <time>2020-05-20T12:38:09Z</time>
      </trkpt>
      <trkpt lat="37.477940" lon="-3.916372">
        <ele>1017.470</ele>
        <time>2020-05-20T12:38:44Z</time>
      </trkpt>
      <trkpt lat="37.478219" lon="-3.916259">
        <ele>1019.085</ele>
        <time>2020-05-20T12:39:18Z</time>
      </trkpt>
      <trkpt lat="37.478495" lon="-3.916237">
        <ele>1020.329</ele>
        <time>2020-05-20T12:39:49Z</time>
      </trkpt>
      <trkpt lat="37.478835" lon="-3.916114">
        <ele>1022.000</ele>
        <time>2020-05-20T12:40:30Z</time>
      </trkpt>
      <trkpt lat="37.479285" lon="-3.916010">
        <ele>1023.920</ele>
        <time>2020-05-20T12:41:22Z</time>
      </trkpt>
      <trkpt lat="37.479488" lon="-3.915990">
        <ele>1024.408</ele>
        <time>2020-05-20T12:41:45Z</time>
      </trkpt>
      <trkpt lat="37.479618" lon="-3.915942">
        <ele>1025.060</ele>
        <time>2020-05-20T12:42:01Z</time>
      </trkpt>
      <trkpt lat="37.479788" lon="-3.915890">
        <ele>1026.011</ele>
        <time>2020-05-20T12:42:20Z</time>
      </trkpt>
      <trkpt lat="37.479906" lon="-3.915694">
        <ele>1025.768</ele>
        <time>2020-05-20T12:42:43Z</time>
      </trkpt>
      <trkpt lat="37.479990" lon="-3.915762">
        <ele>1020.936</ele>
        <time>2020-05-20T12:42:55Z</time>
      </trkpt>
      <trkpt lat="37.480073" lon="-3.915840">
        <ele>1014.656</ele>
        <time>2020-05-20T12:43:08Z</time>
      </trkpt>
      <trkpt lat="37.480164" lon="-3.915598">
        <ele>1010.221</ele>
        <time>2020-05-20T12:43:33Z</time>
      </trkpt>
      <trkpt lat="37.480236" lon="-3.915323">
        <ele>1006.770</ele>
        <time>2020-05-20T12:44:00Z</time>
      </trkpt>
      <trkpt lat="37.480188" lon="-3.915180">
        <ele>1008.015</ele>
        <time>2020-05-20T12:44:14Z</time>
      </trkpt>
      <trkpt lat="37.480207" lon="-3.915049">
        <ele>1006.763</ele>
        <time>2020-05-20T12:44:26Z</time>
      </trkpt>
      <trkpt lat="37.480223" lon="-3.914951">
        <ele>1005.144</ele>
        <time>2020-05-20T12:44:35Z</time>
      </trkpt>
      <trkpt lat="37.480325" lon="-3.914864">
        <ele>1002.718</ele>
        <time>2020-05-20T12:44:49Z</time>
      </trkpt>
      <trkpt lat="37.480413" lon="-3.914796">
        <ele>1001.208</ele>
        <time>2020-05-20T12:45:01Z</time>
      </trkpt>
      <trkpt lat="37.480469" lon="-3.914797">
        <ele>999.374</ele>
        <time>2020-05-20T12:45:08Z</time>
      </trkpt>
      <trkpt lat="37.480487" lon="-3.914903">
        <ele>998.635</ele>
        <time>2020-05-20T12:45:17Z</time>
      </trkpt>
      <trkpt lat="37.480529" lon="-3.914982">
        <ele>996.362</ele>
        <time>2020-05-20T12:45:26Z</time>
      </trkpt>
      <trkpt lat="37.480584" lon="-3.915018">
        <ele>994.210</ele>
        <time>2020-05-20T12:45:34Z</time>
      </trkpt>
      <trkpt lat="37.480639" lon="-3.915029">
        <ele>992.350</ele>
        <time>2020-05-20T12:45:40Z</time>
      </trkpt>
      <trkpt lat="37.480677" lon="-3.915000">
        <ele>991.535</ele>
        <time>2020-05-20T12:45:46Z</time>
      </trkpt>
      <trkpt lat="37.480681" lon="-3.914953">
        <ele>991.474</ele>
        <time>2020-05-20T12:45:50Z</time>
      </trkpt>
      <trkpt lat="37.480715" lon="-3.914936">
        <ele>990.499</ele>
        <time>2020-05-20T12:45:54Z</time>
      </trkpt>
      <trkpt lat="37.480729" lon="-3.915034">
        <ele>988.949</ele>
        <time>2020-05-20T12:46:03Z</time>
      </trkpt>
      <trkpt lat="37.480757" lon="-3.915092">
        <ele>987.202</ele>
        <time>2020-05-20T12:46:10Z</time>
      </trkpt>
      <trkpt lat="37.480928" lon="-3.915090">
        <ele>983.122</ele>
        <time>2020-05-20T12:46:30Z</time>
      </trkpt>
      <trkpt lat="37.481004" lon="-3.915106">
        <ele>980.108</ele>
        <time>2020-05-20T12:46:39Z</time>
      </trkpt>
      <trkpt lat="37.481065" lon="-3.915032">
        <ele>979.972</ele>
        <time>2020-05-20T12:46:48Z</time>
      </trkpt>
      <trkpt lat="37.481148" lon="-3.914969">
        <ele>979.193</ele>
        <time>2020-05-20T12:47:00Z</time>
      </trkpt>
      <trkpt lat="37.481250" lon="-3.914894">
        <ele>978.910</ele>
        <time>2020-05-20T12:47:13Z</time>
      </trkpt>
      <trkpt lat="37.481260" lon="-3.914841">
        <ele>979.738</ele>
        <time>2020-05-20T12:47:18Z</time>
      </trkpt>
      <trkpt lat="37.481310" lon="-3.914850">
        <ele>978.618</ele>
        <time>2020-05-20T12:47:24Z</time>
      </trkpt>
      <trkpt lat="37.481344" lon="-3.914884">
        <ele>977.663</ele>
        <time>2020-05-20T12:47:29Z</time>
      </trkpt>
      <trkpt lat="37.481386" lon="-3.914860">
        <ele>977.922</ele>
        <time>2020-05-20T12:47:34Z</time>
      </trkpt>
      <trkpt lat="37.481435" lon="-3.914867">
        <ele>977.057</ele>
        <time>2020-05-20T12:47:40Z</time>
      </trkpt>
      <trkpt lat="37.481451" lon="-3.914912">
        <ele>976.777</ele>
        <time>2020-05-20T12:47:44Z</time>
      </trkpt>
      <trkpt lat="37.481589" lon="-3.914844">
        <ele>975.061</ele>
        <time>2020-05-20T12:48:01Z</time>
      </trkpt>
      <trkpt lat="37.481669" lon="-3.914790">
        <ele>973.127</ele>
        <time>2020-05-20T12:48:12Z</time>
      </trkpt>
      <trkpt lat="37.481726" lon="-3.914822">
        <ele>971.708</ele>
        <time>2020-05-20T12:48:19Z</time>
      </trkpt>
      <trkpt lat="37.481779" lon="-3.914894">
        <ele>969.295</ele>
        <time>2020-05-20T12:48:28Z</time>
      </trkpt>
      <trkpt lat="37.481836" lon="-3.914883">
        <ele>967.446</ele>
        <time>2020-05-20T12:48:35Z</time>
      </trkpt>
      <trkpt lat="37.481900" lon="-3.914769">
        <ele>966.573</ele>
        <time>2020-05-20T12:48:48Z</time>
      </trkpt>
      <trkpt lat="37.481952" lon="-3.914726">
        <ele>964.731</ele>
        <time>2020-05-20T12:48:55Z</time>
      </trkpt>
      <trkpt lat="37.482070" lon="-3.914612">
        <ele>960.141</ele>
        <time>2020-05-20T12:49:13Z</time>
      </trkpt>
      <trkpt lat="37.482083" lon="-3.914501">
        <ele>959.066</ele>
        <time>2020-05-20T12:49:23Z</time>
      </trkpt>
      <trkpt lat="37.482114" lon="-3.914317">
        <ele>957.145</ele>
        <time>2020-05-20T12:49:40Z</time>
      </trkpt>
      <trkpt lat="37.482111" lon="-3.914246">
        <ele>958.070</ele>
        <time>2020-05-20T12:49:46Z</time>
      </trkpt>
      <trkpt lat="37.482233" lon="-3.914191">
        <ele>956.943</ele>
        <time>2020-05-20T12:50:01Z</time>
      </trkpt>
      <trkpt lat="37.482312" lon="-3.914145">
        <ele>957.064</ele>
        <time>2020-05-20T12:50:11Z</time>
      </trkpt>
      <trkpt lat="37.482494" lon="-3.914045">
        <ele>958.010</ele>
        <time>2020-05-20T12:50:34Z</time>
      </trkpt>
      <trkpt lat="37.482658" lon="-3.914042">
        <ele>956.308</ele>
        <time>2020-05-20T12:50:53Z</time>
      </trkpt>
      <trkpt lat="37.482844" lon="-3.913972">
        <ele>951.072</ele>
        <time>2020-05-20T12:51:15Z</time>
      </trkpt>
      <trkpt lat="37.482913" lon="-3.913922">
        <ele>949.633</ele>
        <time>2020-05-20T12:51:24Z</time>
      </trkpt>
      <trkpt lat="37.483010" lon="-3.913899">
        <ele>947.130</ele>
        <time>2020-05-20T12:51:36Z</time>
      </trkpt>
      <trkpt lat="37.483083" lon="-3.913947">
        <ele>945.788</ele>
        <time>2020-05-20T12:51:45Z</time>
      </trkpt>
      <trkpt lat="37.483105" lon="-3.913905">
        <ele>944.748</ele>
        <time>2020-05-20T12:51:50Z</time>
      </trkpt>
      <trkpt lat="37.483169" lon="-3.913688">
        <ele>943.033</ele>
        <time>2020-05-20T12:52:11Z</time>
      </trkpt>
      <trkpt lat="37.483307" lon="-3.913621">
        <ele>940.272</ele>
        <time>2020-05-20T12:52:28Z</time>
      </trkpt>
      <trkpt lat="37.483406" lon="-3.913479">
        <ele>940.827</ele>
        <time>2020-05-20T12:52:45Z</time>
      </trkpt>
      <trkpt lat="37.483497" lon="-3.913440">
        <ele>938.491</ele>
        <time>2020-05-20T12:52:57Z</time>
      </trkpt>
      <trkpt lat="37.483688" lon="-3.913549">
        <ele>934.281</ele>
        <time>2020-05-20T12:53:21Z</time>
      </trkpt>
      <trkpt lat="37.483892" lon="-3.913708">
        <ele>931.819</ele>
        <time>2020-05-20T12:53:48Z</time>
      </trkpt>
      <trkpt lat="37.484028" lon="-3.913412">
        <ele>931.208</ele>
        <time>2020-05-20T12:54:19Z</time>
      </trkpt>
      <trkpt lat="37.484129" lon="-3.913260">
        <ele>931.237</ele>
        <time>2020-05-20T12:54:37Z</time>
      </trkpt>
      <trkpt lat="37.484197" lon="-3.912999">
        <ele>930.438</ele>
        <time>2020-05-20T12:55:02Z</time>
      </trkpt>
      <trkpt lat="37.484204" lon="-3.912767">
        <ele>931.475</ele>
        <time>2020-05-20T12:55:23Z</time>
      </trkpt>
      <trkpt lat="37.484261" lon="-3.912601">
        <ele>930.893</ele>
        <time>2020-05-20T12:55:39Z</time>
      </trkpt>
      <trkpt lat="37.484303" lon="-3.912374">
        <ele>931.163</ele>
        <time>2020-05-20T12:56:00Z</time>
      </trkpt>
      <trkpt lat="37.484287" lon="-3.912124">
        <ele>933.348</ele>
        <time>2020-05-20T12:56:23Z</time>
      </trkpt>
      <trkpt lat="37.483722" lon="-3.911976">
        <ele>941.487</ele>
        <time>2020-05-20T12:57:29Z</time>
      </trkpt>
      <trkpt lat="37.483713" lon="-3.911715">
        <ele>941.622</ele>
        <time>2020-05-20T12:57:53Z</time>
      </trkpt>
      <trkpt lat="37.483712" lon="-3.911530">
        <ele>941.653</ele>
        <time>2020-05-20T12:58:10Z</time>
      </trkpt>
      <trkpt lat="37.483746" lon="-3.911340">
        <ele>942.004</ele>
        <time>2020-05-20T12:58:27Z</time>
      </trkpt>
      <trkpt lat="37.483727" lon="-3.911247">
        <ele>942.014</ele>
        <time>2020-05-20T12:58:36Z</time>
      </trkpt>
      <trkpt lat="37.483670" lon="-3.910868">
        <ele>945.308</ele>
        <time>2020-05-20T12:59:11Z</time>
      </trkpt>
      <trkpt lat="37.483653" lon="-3.910398">
        <ele>948.353</ele>
        <time>2020-05-20T12:59:54Z</time>
      </trkpt>
      <trkpt lat="37.483691" lon="-3.909816">
        <ele>949.014</ele>
        <time>2020-05-20T13:00:46Z</time>
      </trkpt>
      <trkpt lat="37.483655" lon="-3.909420">
        <ele>949.281</ele>
        <time>2020-05-20T13:01:22Z</time>
      </trkpt>
      <trkpt lat="37.483658" lon="-3.909284">
        <ele>948.449</ele>
        <time>2020-05-20T13:01:35Z</time>
      </trkpt>
      <trkpt lat="37.483707" lon="-3.909229">
        <ele>946.799</ele>
        <time>2020-05-20T13:01:42Z</time>
      </trkpt>
      <trkpt lat="37.484013" lon="-3.909181">
        <ele>941.214</ele>
        <time>2020-05-20T13:02:18Z</time>
      </trkpt>
      <trkpt lat="37.484057" lon="-3.909150">
        <ele>940.563</ele>
        <time>2020-05-20T13:02:24Z</time>
      </trkpt>
      <trkpt lat="37.484007" lon="-3.908901">
        <ele>940.478</ele>
        <time>2020-05-20T13:02:47Z</time>
      </trkpt>
      <trkpt lat="37.483986" lon="-3.908531">
        <ele>937.971</ele>
        <time>2020-05-20T13:03:21Z</time>
      </trkpt>
      <trkpt lat="37.483948" lon="-3.908317">
        <ele>937.841</ele>
        <time>2020-05-20T13:03:40Z</time>
      </trkpt>
      <trkpt lat="37.483919" lon="-3.908172">
        <ele>938.915</ele>
        <time>2020-05-20T13:03:54Z</time>
      </trkpt>
      <trkpt lat="37.483918" lon="-3.907789">
        <ele>939.908</ele>
        <time>2020-05-20T13:04:29Z</time>
      </trkpt>
      <trkpt lat="37.483892" lon="-3.907510">
        <ele>941.415</ele>
        <time>2020-05-20T13:04:54Z</time>
      </trkpt>
      <trkpt lat="37.483932" lon="-3.907424">
        <ele>941.316</ele>
        <time>2020-05-20T13:05:03Z</time>
      </trkpt>
      <trkpt lat="37.484680" lon="-3.907083">
        <ele>930.083</ele>
        <time>2020-05-20T13:06:34Z</time>
      </trkpt>
      <trkpt lat="37.484729" lon="-3.906956">
        <ele>930.031</ele>
        <time>2020-05-20T13:06:47Z</time>
      </trkpt>
      <trkpt lat="37.484553" lon="-3.906055">
        <ele>922.741</ele>
        <time>2020-05-20T13:08:11Z</time>
      </trkpt>
      <trkpt lat="37.484203" lon="-3.904510">
        <ele>910.066</ele>
        <time>2020-05-20T13:10:37Z</time>
      </trkpt>
      <trkpt lat="37.484245" lon="-3.903782">
        <ele>910.185</ele>
        <time>2020-05-20T13:11:43Z</time>
      </trkpt>
      <trkpt lat="37.484478" lon="-3.903897">
        <ele>905.090</ele>
        <time>2020-05-20T13:12:12Z</time>
      </trkpt>
      <trkpt lat="37.484663" lon="-3.903960">
        <ele>901.445</ele>
        <time>2020-05-20T13:12:34Z</time>
      </trkpt>
      <trkpt lat="37.485132" lon="-3.903723">
        <ele>891.447</ele>
        <time>2020-05-20T13:13:33Z</time>
      </trkpt>
      <trkpt lat="37.485343" lon="-3.903602">
        <ele>886.711</ele>
        <time>2020-05-20T13:13:59Z</time>
      </trkpt>
      <trkpt lat="37.485410" lon="-3.903642">
        <ele>885.908</ele>
        <time>2020-05-20T13:14:08Z</time>
      </trkpt>
      <trkpt lat="37.485603" lon="-3.903597">
        <ele>883.252</ele>
        <time>2020-05-20T13:14:30Z</time>
      </trkpt>
      <trkpt lat="37.486090" lon="-3.903428">
        <ele>876.033</ele>
        <time>2020-05-20T13:15:28Z</time>
      </trkpt>
      <trkpt lat="37.487126" lon="-3.903152">
        <ele>861.050</ele>
        <time>2020-05-20T13:17:30Z</time>
      </trkpt>
      <trkpt lat="37.487247" lon="-3.903066">
        <ele>859.868</ele>
        <time>2020-05-20T13:17:46Z</time>
      </trkpt>
      <trkpt lat="37.487294" lon="-3.902932">
        <ele>859.098</ele>
        <time>2020-05-20T13:17:59Z</time>
      </trkpt>
      <trkpt lat="37.487277" lon="-3.902727">
        <ele>859.083</ele>
        <time>2020-05-20T13:18:18Z</time>
      </trkpt>
      <trkpt lat="37.487320" lon="-3.902689">
        <ele>859.092</ele>
        <time>2020-05-20T13:18:24Z</time>
      </trkpt>
      <trkpt lat="37.487516" lon="-3.902814">
        <ele>857.017</ele>
        <time>2020-05-20T13:18:49Z</time>
      </trkpt>
      <trkpt lat="37.487712" lon="-3.902861">
        <ele>856.059</ele>
        <time>2020-05-20T13:19:12Z</time>
      </trkpt>
      <trkpt lat="37.487900" lon="-3.902912">
        <ele>855.003</ele>
        <time>2020-05-20T13:19:33Z</time>
      </trkpt>
      <trkpt lat="37.488066" lon="-3.902915">
        <ele>855.923</ele>
        <time>2020-05-20T13:19:52Z</time>
      </trkpt>
      <trkpt lat="37.488418" lon="-3.903200">
        <ele>855.008</ele>
        <time>2020-05-20T13:20:40Z</time>
      </trkpt>
      <trkpt lat="37.488857" lon="-3.903470">
        <ele>855.053</ele>
        <time>2020-05-20T13:21:36Z</time>
      </trkpt>
      <trkpt lat="37.489089" lon="-3.903564">
        <ele>855.964</ele>
        <time>2020-05-20T13:22:03Z</time>
      </trkpt>
      <trkpt lat="37.489451" lon="-3.903967">
        <ele>856.331</ele>
        <time>2020-05-20T13:22:58Z</time>
      </trkpt>
      <trkpt lat="37.489841" lon="-3.904268">
        <ele>855.229</ele>
        <time>2020-05-20T13:23:51Z</time>
      </trkpt>
      <trkpt lat="37.490225" lon="-3.904461">
        <ele>856.069</ele>
        <time>2020-05-20T13:24:38Z</time>
      </trkpt>
      <trkpt lat="37.490513" lon="-3.904600">
        <ele>856.674</ele>
        <time>2020-05-20T13:25:13Z</time>
      </trkpt>
      <trkpt lat="37.490913" lon="-3.904643">
        <ele>858.023</ele>
        <time>2020-05-20T13:25:59Z</time>
      </trkpt>
      <trkpt lat="37.491285" lon="-3.904732">
        <ele>859.078</ele>
        <time>2020-05-20T13:26:42Z</time>
      </trkpt>
      <trkpt lat="37.491659" lon="-3.904681">
        <ele>860.854</ele>
        <time>2020-05-20T13:27:25Z</time>
      </trkpt>
      <trkpt lat="37.492544" lon="-3.904294">
        <ele>864.256</ele>
        <time>2020-05-20T13:29:11Z</time>
      </trkpt>
      <trkpt lat="37.493289" lon="-3.904016">
        <ele>870.011</ele>
        <time>2020-05-20T13:30:40Z</time>
      </trkpt>
      <trkpt lat="37.493864" lon="-3.904395">
        <ele>876.708</ele>
        <time>2020-05-20T13:31:54Z</time>
      </trkpt>
      <trkpt lat="37.493873" lon="-3.904416">
        <ele>877.243</ele>
        <time>2020-05-20T13:31:56Z</time>
      </trkpt>
      <trkpt lat="37.493876" lon="-3.904416">
        <ele>877.334</ele>
        <time>2020-05-20T13:31:57Z</time>
      </trkpt>
      <trkpt lat="37.494031" lon="-3.904538">
        <ele>881.961</ele>
        <time>2020-05-20T13:32:18Z</time>
      </trkpt>
      <trkpt lat="37.494089" lon="-3.904753">
        <ele>886.359</ele>
        <time>2020-05-20T13:32:39Z</time>
      </trkpt>
      <trkpt lat="37.494127" lon="-3.905014">
        <ele>890.469</ele>
        <time>2020-05-20T13:33:03Z</time>
      </trkpt>
      <trkpt lat="37.494206" lon="-3.905963">
        <ele>904.944</ele>
        <time>2020-05-20T13:34:31Z</time>
      </trkpt>
      <trkpt lat="37.494244" lon="-3.906197">
        <ele>908.393</ele>
        <time>2020-05-20T13:34:53Z</time>
      </trkpt>
      <trkpt lat="37.494368" lon="-3.906276">
        <ele>910.638</ele>
        <time>2020-05-20T13:35:09Z</time>
      </trkpt>
      <trkpt lat="37.494775" lon="-3.906355">
        <ele>916.959</ele>
        <time>2020-05-20T13:35:56Z</time>
      </trkpt>
      <trkpt lat="37.495049" lon="-3.906475">
        <ele>920.003</ele>
        <time>2020-05-20T13:36:29Z</time>
      </trkpt>
      <trkpt lat="37.495046" lon="-3.906477">
        <ele>920.023</ele>
        <time>2020-05-20T13:36:30Z</time>
      </trkpt>
      <trkpt lat="37.495046" lon="-3.906477">
        <ele>920.018</ele>
        <time>2020-05-20T13:36:30Z</time>
      </trkpt>
      <trkpt lat="37.495133" lon="-3.906426">
        <ele>920.298</ele>
        <time>2020-05-20T13:36:41Z</time>
      </trkpt>
      <trkpt lat="37.495181" lon="-3.906164">
        <ele>921.017</ele>
        <time>2020-05-20T13:37:05Z</time>
      </trkpt>
      <trkpt lat="37.495266" lon="-3.905967">
        <ele>920.608</ele>
        <time>2020-05-20T13:37:25Z</time>
      </trkpt>
      <trkpt lat="37.495502" lon="-3.905727">
        <ele>921.019</ele>
        <time>2020-05-20T13:38:00Z</time>
      </trkpt>
      <trkpt lat="37.495582" lon="-3.905658">
        <ele>921.090</ele>
        <time>2020-05-20T13:38:11Z</time>
      </trkpt>
      <trkpt lat="37.495615" lon="-3.905590">
        <ele>921.037</ele>
        <time>2020-05-20T13:38:18Z</time>
      </trkpt>
      <trkpt lat="37.495627" lon="-3.905561">
        <ele>921.055</ele>
        <time>2020-05-20T13:38:21Z</time>
      </trkpt>
      <trkpt lat="37.495661" lon="-3.905523">
        <ele>921.036</ele>
        <time>2020-05-20T13:38:26Z</time>
      </trkpt>
      <trkpt lat="37.495697" lon="-3.905485">
        <ele>921.234</ele>
        <time>2020-05-20T13:38:31Z</time>
      </trkpt>
      <trkpt lat="37.495741" lon="-3.905458">
        <ele>922.053</ele>
        <time>2020-05-20T13:38:37Z</time>
      </trkpt>
      <trkpt lat="37.495785" lon="-3.905409">
        <ele>922.076</ele>
        <time>2020-05-20T13:38:44Z</time>
      </trkpt>
      <trkpt lat="37.495826" lon="-3.905391">
        <ele>922.061</ele>
        <time>2020-05-20T13:38:49Z</time>
      </trkpt>
      <trkpt lat="37.495868" lon="-3.905363">
        <ele>922.021</ele>
        <time>2020-05-20T13:38:54Z</time>
      </trkpt>
      <trkpt lat="37.495901" lon="-3.905333">
        <ele>922.013</ele>
        <time>2020-05-20T13:38:59Z</time>
      </trkpt>
      <trkpt lat="37.495933" lon="-3.905293">
        <ele>922.008</ele>
        <time>2020-05-20T13:39:04Z</time>
      </trkpt>
      <trkpt lat="37.495966" lon="-3.905253">
        <ele>922.014</ele>
        <time>2020-05-20T13:39:09Z</time>
      </trkpt>
      <trkpt lat="37.495988" lon="-3.905233">
        <ele>922.045</ele>
        <time>2020-05-20T13:39:12Z</time>
      </trkpt>
      <trkpt lat="37.496021" lon="-3.905203">
        <ele>922.022</ele>
        <time>2020-05-20T13:39:17Z</time>
      </trkpt>
      <trkpt lat="37.496122" lon="-3.904760">
        <ele>923.890</ele>
        <time>2020-05-20T13:39:59Z</time>
      </trkpt>
      <trkpt lat="37.496337" lon="-3.904098">
        <ele>926.061</ele>
        <time>2020-05-20T13:41:03Z</time>
      </trkpt>
      <trkpt lat="37.496504" lon="-3.903553">
        <ele>929.529</ele>
        <time>2020-05-20T13:41:56Z</time>
      </trkpt>
      <trkpt lat="37.496595" lon="-3.902800">
        <ele>930.278</ele>
        <time>2020-05-20T13:43:05Z</time>
      </trkpt>
      <trkpt lat="37.496719" lon="-3.901984">
        <ele>933.721</ele>
        <time>2020-05-20T13:44:20Z</time>
      </trkpt>
      <trkpt lat="37.496907" lon="-3.901450">
        <ele>932.716</ele>
        <time>2020-05-20T13:45:13Z</time>
      </trkpt>
      <trkpt lat="37.497033" lon="-3.901025">
        <ele>935.976</ele>
        <time>2020-05-20T13:45:54Z</time>
      </trkpt>
      <trkpt lat="37.497331" lon="-3.900231">
        <ele>940.113</ele>
        <time>2020-05-20T13:47:13Z</time>
      </trkpt>
      <trkpt lat="37.497341" lon="-3.899112">
        <ele>946.008</ele>
        <time>2020-05-20T13:48:55Z</time>
      </trkpt>
      <trkpt lat="37.497353" lon="-3.898257">
        <ele>953.879</ele>
        <time>2020-05-20T13:50:12Z</time>
      </trkpt>
      <trkpt lat="37.497303" lon="-3.898010">
        <ele>956.740</ele>
        <time>2020-05-20T13:50:36Z</time>
      </trkpt>
      <trkpt lat="37.497334" lon="-3.897830">
        <ele>957.917</ele>
        <time>2020-05-20T13:50:52Z</time>
      </trkpt>
      <trkpt lat="37.497416" lon="-3.897592">
        <ele>961.715</ele>
        <time>2020-05-20T13:51:16Z</time>
      </trkpt>
      <trkpt lat="37.497471" lon="-3.897399">
        <ele>965.346</ele>
        <time>2020-05-20T13:51:35Z</time>
      </trkpt>
      <trkpt lat="37.497435" lon="-3.896925">
        <ele>969.894</ele>
        <time>2020-05-20T13:52:18Z</time>
      </trkpt>
      <trkpt lat="37.497379" lon="-3.896609">
        <ele>971.953</ele>
        <time>2020-05-20T13:52:48Z</time>
      </trkpt>
      <trkpt lat="37.497217" lon="-3.895843">
        <ele>977.196</ele>
        <time>2020-05-20T13:53:59Z</time>
      </trkpt>
      <trkpt lat="37.497066" lon="-3.895415">
        <ele>981.069</ele>
        <time>2020-05-20T13:54:42Z</time>
      </trkpt>
      <trkpt lat="37.497041" lon="-3.895200">
        <ele>984.904</ele>
        <time>2020-05-20T13:55:02Z</time>
      </trkpt>
      <trkpt lat="37.496762" lon="-3.894837">
        <ele>986.124</ele>
        <time>2020-05-20T13:55:48Z</time>
      </trkpt>
      <trkpt lat="37.496515" lon="-3.894593">
        <ele>985.008</ele>
        <time>2020-05-20T13:56:23Z</time>
      </trkpt>
      <trkpt lat="37.496254" lon="-3.894364">
        <ele>987.434</ele>
        <time>2020-05-20T13:57:00Z</time>
      </trkpt>
      <trkpt lat="37.495805" lon="-3.893982">
        <ele>989.175</ele>
        <time>2020-05-20T13:58:01Z</time>
      </trkpt>
      <trkpt lat="37.495536" lon="-3.893816">
        <ele>990.052</ele>
        <time>2020-05-20T13:58:36Z</time>
      </trkpt>
      <trkpt lat="37.495106" lon="-3.893483">
        <ele>997.340</ele>
        <time>2020-05-20T13:59:34Z</time>
      </trkpt>
      <trkpt lat="37.494889" lon="-3.893288">
        <ele>1001.111</ele>
        <time>2020-05-20T14:00:04Z</time>
      </trkpt>
      <trkpt lat="37.494791" lon="-3.893139">
        <ele>1002.989</ele>
        <time>2020-05-20T14:00:22Z</time>
      </trkpt>
      <trkpt lat="37.494648" lon="-3.892941">
        <ele>1007.858</ele>
        <time>2020-05-20T14:00:46Z</time>
      </trkpt>
      <trkpt lat="37.494560" lon="-3.892805">
        <ele>1009.941</ele>
        <time>2020-05-20T14:01:02Z</time>
      </trkpt>
      <trkpt lat="37.494351" lon="-3.892592">
        <ele>1014.721</ele>
        <time>2020-05-20T14:01:33Z</time>
      </trkpt>
      <trkpt lat="37.494260" lon="-3.892503">
        <ele>1015.641</ele>
        <time>2020-05-20T14:01:47Z</time>
      </trkpt>
      <trkpt lat="37.493929" lon="-3.892202">
        <ele>1022.205</ele>
        <time>2020-05-20T14:02:34Z</time>
      </trkpt>
      <trkpt lat="37.493817" lon="-3.892014">
        <ele>1024.608</ele>
        <time>2020-05-20T14:02:55Z</time>
      </trkpt>
      <trkpt lat="37.493732" lon="-3.891527">
        <ele>1030.310</ele>
        <time>2020-05-20T14:03:40Z</time>
      </trkpt>
      <trkpt lat="37.493592" lon="-3.891292">
        <ele>1031.651</ele>
        <time>2020-05-20T14:04:07Z</time>
      </trkpt>
      <trkpt lat="37.493103" lon="-3.890892">
        <ele>1039.838</ele>
        <time>2020-05-20T14:05:14Z</time>
      </trkpt>
      <trkpt lat="37.492783" lon="-3.890468">
        <ele>1045.836</ele>
        <time>2020-05-20T14:06:07Z</time>
      </trkpt>
      <trkpt lat="37.492255" lon="-3.889721">
        <ele>1046.217</ele>
        <time>2020-05-20T14:07:38Z</time>
      </trkpt>
      <trkpt lat="37.491869" lon="-3.889352">
        <ele>1050.825</ele>
        <time>2020-05-20T14:08:33Z</time>
      </trkpt>
      <trkpt lat="37.491620" lon="-3.889011">
        <ele>1052.834</ele>
        <time>2020-05-20T14:09:15Z</time>
      </trkpt>
      <trkpt lat="37.491461" lon="-3.888578">
        <ele>1053.477</ele>
        <time>2020-05-20T14:09:58Z</time>
      </trkpt>
      <trkpt lat="37.491177" lon="-3.888268">
        <ele>1054.111</ele>
        <time>2020-05-20T14:10:41Z</time>
      </trkpt>
      <trkpt lat="37.490972" lon="-3.888032">
        <ele>1054.821</ele>
        <time>2020-05-20T14:11:12Z</time>
      </trkpt>
      <trkpt lat="37.490806" lon="-3.887740">
        <ele>1053.903</ele>
        <time>2020-05-20T14:11:45Z</time>
      </trkpt>
      <trkpt lat="37.490871" lon="-3.887249">
        <ele>1056.008</ele>
        <time>2020-05-20T14:12:30Z</time>
      </trkpt>
      <trkpt lat="37.490875" lon="-3.886799">
        <ele>1053.539</ele>
        <time>2020-05-20T14:13:11Z</time>
      </trkpt>
      <trkpt lat="37.491013" lon="-3.886306">
        <ele>1051.050</ele>
        <time>2020-05-20T14:13:58Z</time>
      </trkpt>
      <trkpt lat="37.491082" lon="-3.885781">
        <ele>1054.337</ele>
        <time>2020-05-20T14:14:46Z</time>
      </trkpt>
      <trkpt lat="37.491144" lon="-3.885154">
        <ele>1056.445</ele>
        <time>2020-05-20T14:15:43Z</time>
      </trkpt>
      <trkpt lat="37.491511" lon="-3.884289">
        <ele>1058.936</ele>
        <time>2020-05-20T14:17:12Z</time>
      </trkpt>
      <trkpt lat="37.491675" lon="-3.883879">
        <ele>1062.874</ele>
        <time>2020-05-20T14:17:54Z</time>
      </trkpt>
      <trkpt lat="37.491928" lon="-3.883186">
        <ele>1064.353</ele>
        <time>2020-05-20T14:19:03Z</time>
      </trkpt>
      <trkpt lat="37.492102" lon="-3.882971">
        <ele>1063.436</ele>
        <time>2020-05-20T14:19:30Z</time>
      </trkpt>
      <trkpt lat="37.492617" lon="-3.882762">
        <ele>1063.711</ele>
        <time>2020-05-20T14:20:32Z</time>
      </trkpt>
      <trkpt lat="37.492565" lon="-3.882252">
        <ele>1063.221</ele>
        <time>2020-05-20T14:21:18Z</time>
      </trkpt>
      <trkpt lat="37.492794" lon="-3.881997">
        <ele>1063.103</ele>
        <time>2020-05-20T14:21:53Z</time>
      </trkpt>
      <trkpt lat="37.493029" lon="-3.881876">
        <ele>1062.808</ele>
        <time>2020-05-20T14:22:22Z</time>
      </trkpt>
      <trkpt lat="37.493119" lon="-3.881720">
        <ele>1065.359</ele>
        <time>2020-05-20T14:22:40Z</time>
      </trkpt>
      <trkpt lat="37.493007" lon="-3.881124">
        <ele>1065.480</ele>
        <time>2020-05-20T14:23:35Z</time>
      </trkpt>
      <trkpt lat="37.492720" lon="-3.881070">
        <ele>1061.127</ele>
        <time>2020-05-20T14:24:08Z</time>
      </trkpt>
      <trkpt lat="37.492640" lon="-3.881025">
        <ele>1060.095</ele>
        <time>2020-05-20T14:24:18Z</time>
      </trkpt>
      <trkpt lat="37.492544" lon="-3.880822">
        <ele>1060.046</ele>
        <time>2020-05-20T14:24:40Z</time>
      </trkpt>
      <trkpt lat="37.492476" lon="-3.880699">
        <ele>1059.024</ele>
        <time>2020-05-20T14:24:53Z</time>
      </trkpt>
      <trkpt lat="37.492367" lon="-3.880551">
        <ele>1059.053</ele>
        <time>2020-05-20T14:25:12Z</time>
      </trkpt>
      <trkpt lat="37.492243" lon="-3.880414">
        <ele>1058.016</ele>
        <time>2020-05-20T14:25:30Z</time>
      </trkpt>
      <trkpt lat="37.492049" lon="-3.880376">
        <ele>1058.397</ele>
        <time>2020-05-20T14:25:53Z</time>
      </trkpt>
      <trkpt lat="37.491743" lon="-3.880469">
        <ele>1058.523</ele>
        <time>2020-05-20T14:26:29Z</time>
      </trkpt>
      <trkpt lat="37.491063" lon="-3.880766">
        <ele>1057.125</ele>
        <time>2020-05-20T14:27:51Z</time>
      </trkpt>
      <trkpt lat="37.490911" lon="-3.880894">
        <ele>1057.808</ele>
        <time>2020-05-20T14:28:11Z</time>
      </trkpt>
      <trkpt lat="37.490678" lon="-3.880898">
        <ele>1059.087</ele>
        <time>2020-05-20T14:28:38Z</time>
      </trkpt>
      <trkpt lat="37.490323" lon="-3.880759">
        <ele>1056.898</ele>
        <time>2020-05-20T14:29:20Z</time>
      </trkpt>
      <trkpt lat="37.489944" lon="-3.880515">
        <ele>1056.025</ele>
        <time>2020-05-20T14:30:09Z</time>
      </trkpt>
      <trkpt lat="37.489754" lon="-3.880410">
        <ele>1054.543</ele>
        <time>2020-05-20T14:30:33Z</time>
      </trkpt>
      <trkpt lat="37.489623" lon="-3.880339">
        <ele>1053.434</ele>
        <time>2020-05-20T14:30:49Z</time>
      </trkpt>
      <trkpt lat="37.489481" lon="-3.880092">
        <ele>1053.052</ele>
        <time>2020-05-20T14:31:16Z</time>
      </trkpt>
      <trkpt lat="37.489337" lon="-3.879939">
        <ele>1053.351</ele>
        <time>2020-05-20T14:31:38Z</time>
      </trkpt>
      <trkpt lat="37.489173" lon="-3.879826">
        <ele>1052.394</ele>
        <time>2020-05-20T14:31:59Z</time>
      </trkpt>
      <trkpt lat="37.488921" lon="-3.879794">
        <ele>1049.077</ele>
        <time>2020-05-20T14:32:28Z</time>
      </trkpt>
      <trkpt lat="37.488731" lon="-3.879821">
        <ele>1048.061</ele>
        <time>2020-05-20T14:32:50Z</time>
      </trkpt>
      <trkpt lat="37.488308" lon="-3.879923">
        <ele>1049.027</ele>
        <time>2020-05-20T14:33:39Z</time>
      </trkpt>
      <trkpt lat="37.487930" lon="-3.879972">
        <ele>1050.508</ele>
        <time>2020-05-20T14:34:22Z</time>
      </trkpt>
      <trkpt lat="37.487612" lon="-3.879954">
        <ele>1052.095</ele>
        <time>2020-05-20T14:34:59Z</time>
      </trkpt>
      <trkpt lat="37.487208" lon="-3.880020">
        <ele>1053.086</ele>
        <time>2020-05-20T14:35:45Z</time>
      </trkpt>
      <trkpt lat="37.486853" lon="-3.880108">
        <ele>1052.283</ele>
        <time>2020-05-20T14:36:26Z</time>
      </trkpt>
      <trkpt lat="37.486667" lon="-3.880277">
        <ele>1052.141</ele>
        <time>2020-05-20T14:36:52Z</time>
      </trkpt>
      <trkpt lat="37.486515" lon="-3.880336">
        <ele>1050.292</ele>
        <time>2020-05-20T14:37:11Z</time>
      </trkpt>
      <trkpt lat="37.486359" lon="-3.880352">
        <ele>1047.830</ele>
        <time>2020-05-20T14:37:29Z</time>
      </trkpt>
      <trkpt lat="37.486119" lon="-3.880443">
        <ele>1043.219</ele>
        <time>2020-05-20T14:37:58Z</time>
      </trkpt>
      <trkpt lat="37.485996" lon="-3.880550">
        <ele>1042.042</ele>
        <time>2020-05-20T14:38:15Z</time>
      </trkpt>
      <trkpt lat="37.485644" lon="-3.880803">
        <ele>1037.494</ele>
        <time>2020-05-20T14:39:01Z</time>
      </trkpt>
      <trkpt lat="37.485243" lon="-3.881018">
        <ele>1031.057</ele>
        <time>2020-05-20T14:39:51Z</time>
      </trkpt>
      <trkpt lat="37.484910" lon="-3.881142">
        <ele>1029.322</ele>
        <time>2020-05-20T14:40:31Z</time>
      </trkpt>
      <trkpt lat="37.484684" lon="-3.881182">
        <ele>1029.308</ele>
        <time>2020-05-20T14:40:57Z</time>
      </trkpt>
      <trkpt lat="37.484444" lon="-3.881131">
        <ele>1030.017</ele>
        <time>2020-05-20T14:41:24Z</time>
      </trkpt>
      <trkpt lat="37.484275" lon="-3.881071">
        <ele>1030.998</ele>
        <time>2020-05-20T14:41:44Z</time>
      </trkpt>
      <trkpt lat="37.484022" lon="-3.881062">
        <ele>1029.655</ele>
        <time>2020-05-20T14:42:13Z</time>
      </trkpt>
      <trkpt lat="37.483834" lon="-3.881057">
        <ele>1027.663</ele>
        <time>2020-05-20T14:42:35Z</time>
      </trkpt>
      <trkpt lat="37.483677" lon="-3.881058">
        <ele>1025.794</ele>
        <time>2020-05-20T14:42:53Z</time>
      </trkpt>
      <trkpt lat="37.483540" lon="-3.881120">
        <ele>1024.372</ele>
        <time>2020-05-20T14:43:09Z</time>
      </trkpt>
      <trkpt lat="37.483359" lon="-3.881237">
        <ele>1021.151</ele>
        <time>2020-05-20T14:43:33Z</time>
      </trkpt>
      <trkpt lat="37.483186" lon="-3.881378">
        <ele>1016.934</ele>
        <time>2020-05-20T14:43:57Z</time>
      </trkpt>
      <trkpt lat="37.482954" lon="-3.881591">
        <ele>1013.921</ele>
        <time>2020-05-20T14:44:29Z</time>
      </trkpt>
      <trkpt lat="37.482725" lon="-3.881637">
        <ele>1010.041</ele>
        <time>2020-05-20T14:44:56Z</time>
      </trkpt>
      <trkpt lat="37.482506" lon="-3.881566">
        <ele>1008.805</ele>
        <time>2020-05-20T14:45:22Z</time>
      </trkpt>
      <trkpt lat="37.482279" lon="-3.881355">
        <ele>1011.008</ele>
        <time>2020-05-20T14:45:54Z</time>
      </trkpt>
      <trkpt lat="37.482007" lon="-3.881156">
        <ele>1010.740</ele>
        <time>2020-05-20T14:46:30Z</time>
      </trkpt>
      <trkpt lat="37.481694" lon="-3.881041">
        <ele>1007.751</ele>
        <time>2020-05-20T14:47:07Z</time>
      </trkpt>
      <trkpt lat="37.481350" lon="-3.881122">
        <ele>1001.568</ele>
        <time>2020-05-20T14:47:48Z</time>
      </trkpt>
      <trkpt lat="37.480796" lon="-3.881312">
        <ele>994.726</ele>
        <time>2020-05-20T14:48:53Z</time>
      </trkpt>
      <trkpt lat="37.480595" lon="-3.881346">
        <ele>993.127</ele>
        <time>2020-05-20T14:49:16Z</time>
      </trkpt>
      <trkpt lat="37.479643" lon="-3.880940">
        <ele>983.065</ele>
        <time>2020-05-20T14:51:11Z</time>
      </trkpt>
      <trkpt lat="37.478957" lon="-3.880737">
        <ele>978.084</ele>
        <time>2020-05-20T14:52:32Z</time>
      </trkpt>
      <trkpt lat="37.478526" lon="-3.880671">
        <ele>976.097</ele>
        <time>2020-05-20T14:53:21Z</time>
      </trkpt>
      <trkpt lat="37.478240" lon="-3.880332">
        <ele>973.256</ele>
        <time>2020-05-20T14:54:06Z</time>
      </trkpt>
      <trkpt lat="37.477952" lon="-3.880065">
        <ele>973.159</ele>
        <time>2020-05-20T14:54:47Z</time>
      </trkpt>
      <trkpt lat="37.477469" lon="-3.879566">
        <ele>974.514</ele>
        <time>2020-05-20T14:55:58Z</time>
      </trkpt>
      <trkpt lat="37.477308" lon="-3.879504">
        <ele>974.608</ele>
        <time>2020-05-20T14:56:17Z</time>
      </trkpt>
      <trkpt lat="37.476660" lon="-3.879403">
        <ele>967.073</ele>
        <time>2020-05-20T14:57:32Z</time>
      </trkpt>
      <trkpt lat="37.476560" lon="-3.879444">
        <ele>966.714</ele>
        <time>2020-05-20T14:57:44Z</time>
      </trkpt>
      <trkpt lat="37.476517" lon="-3.879509">
        <ele>966.821</ele>
        <time>2020-05-20T14:57:52Z</time>
      </trkpt>
      <trkpt lat="37.476401" lon="-3.879813">
        <ele>965.029</ele>
        <time>2020-05-20T14:58:22Z</time>
      </trkpt>
      <trkpt lat="37.476260" lon="-3.879984">
        <ele>963.270</ele>
        <time>2020-05-20T14:58:44Z</time>
      </trkpt>
      <trkpt lat="37.476072" lon="-3.880128">
        <ele>962.018</ele>
        <time>2020-05-20T14:59:10Z</time>
      </trkpt>
      <trkpt lat="37.475830" lon="-3.880476">
        <ele>958.687</ele>
        <time>2020-05-20T14:59:51Z</time>
      </trkpt>
      <trkpt lat="37.475678" lon="-3.880627">
        <ele>957.060</ele>
        <time>2020-05-20T15:00:14Z</time>
      </trkpt>
      <trkpt lat="37.475499" lon="-3.880762">
        <ele>955.684</ele>
        <time>2020-05-20T15:00:37Z</time>
      </trkpt>
      <trkpt lat="37.475293" lon="-3.880810">
        <ele>954.007</ele>
        <time>2020-05-20T15:01:01Z</time>
      </trkpt>
      <trkpt lat="37.474691" lon="-3.880727">
        <ele>947.217</ele>
        <time>2020-05-20T15:02:11Z</time>
      </trkpt>
      <trkpt lat="37.474428" lon="-3.880794">
        <ele>945.608</ele>
        <time>2020-05-20T15:02:41Z</time>
      </trkpt>
      <trkpt lat="37.474231" lon="-3.880966">
        <ele>942.576</ele>
        <time>2020-05-20T15:03:09Z</time>
      </trkpt>
      <trkpt lat="37.474008" lon="-3.881113">
        <ele>940.247</ele>
        <time>2020-05-20T15:03:37Z</time>
      </trkpt>
      <trkpt lat="37.473828" lon="-3.881185">
        <ele>939.674</ele>
        <time>2020-05-20T15:03:59Z</time>
      </trkpt>
      <trkpt lat="37.473561" lon="-3.881050">
        <ele>940.822</ele>
        <time>2020-05-20T15:04:32Z</time>
      </trkpt>
      <trkpt lat="37.473232" lon="-3.880764">
        <ele>941.323</ele>
        <time>2020-05-20T15:05:17Z</time>
      </trkpt>
      <trkpt lat="37.472956" lon="-3.880715">
        <ele>941.061</ele>
        <time>2020-05-20T15:05:49Z</time>
      </trkpt>
      <trkpt lat="37.472799" lon="-3.880761">
        <ele>942.440</ele>
        <time>2020-05-20T15:06:07Z</time>
      </trkpt>
      <trkpt lat="37.472672" lon="-3.880853">
        <ele>944.073</ele>
        <time>2020-05-20T15:06:24Z</time>
      </trkpt>
      <trkpt lat="37.472618" lon="-3.881136">
        <ele>946.333</ele>
        <time>2020-05-20T15:06:51Z</time>
      </trkpt>
      <trkpt lat="37.472629" lon="-3.881606">
        <ele>949.523</ele>
        <time>2020-05-20T15:07:33Z</time>
      </trkpt>
      <trkpt lat="37.472671" lon="-3.881992">
        <ele>951.615</ele>
        <time>2020-05-20T15:08:08Z</time>
      </trkpt>
      <trkpt lat="37.472496" lon="-3.882175">
        <ele>954.008</ele>
        <time>2020-05-20T15:08:35Z</time>
      </trkpt>
      <trkpt lat="37.471266" lon="-3.882509">
        <ele>951.011</ele>
        <time>2020-05-20T15:10:58Z</time>
      </trkpt>
      <trkpt lat="37.470811" lon="-3.882659">
        <ele>950.142</ele>
        <time>2020-05-20T15:11:51Z</time>
      </trkpt>
      <trkpt lat="37.470329" lon="-3.882944">
        <ele>950.079</ele>
        <time>2020-05-20T15:12:52Z</time>
      </trkpt>
      <trkpt lat="37.470024" lon="-3.883209">
        <ele>950.087</ele>
        <time>2020-05-20T15:13:34Z</time>
      </trkpt>
      <trkpt lat="37.469729" lon="-3.883340">
        <ele>948.368</ele>
        <time>2020-05-20T15:14:10Z</time>
      </trkpt>
      <trkpt lat="37.469053" lon="-3.883671">
        <ele>945.156</ele>
        <time>2020-05-20T15:15:33Z</time>
      </trkpt>
      <trkpt lat="37.468562" lon="-3.883961">
        <ele>941.495</ele>
        <time>2020-05-20T15:16:34Z</time>
      </trkpt>
      <trkpt lat="37.468465" lon="-3.884435">
        <ele>941.778</ele>
        <time>2020-05-20T15:17:19Z</time>
      </trkpt>
      <trkpt lat="37.468396" lon="-3.885216">
        <ele>940.522</ele>
        <time>2020-05-20T15:18:30Z</time>
      </trkpt>
      <trkpt lat="37.468382" lon="-3.885404">
        <ele>940.062</ele>
        <time>2020-05-20T15:18:47Z</time>
      </trkpt>
      <trkpt lat="37.468319" lon="-3.885584">
        <ele>940.008</ele>
        <time>2020-05-20T15:19:05Z</time>
      </trkpt>
      <trkpt lat="37.468123" lon="-3.886060">
        <ele>940.308</ele>
        <time>2020-05-20T15:19:53Z</time>
      </trkpt>
      <trkpt lat="37.467890" lon="-3.886512">
        <ele>939.060</ele>
        <time>2020-05-20T15:20:42Z</time>
      </trkpt>
      <trkpt lat="37.467752" lon="-3.886850">
        <ele>938.091</ele>
        <time>2020-05-20T15:21:16Z</time>
      </trkpt>
      <trkpt lat="37.467541" lon="-3.887470">
        <ele>936.098</ele>
        <time>2020-05-20T15:22:17Z</time>
      </trkpt>
      <trkpt lat="37.467449" lon="-3.887830">
        <ele>935.076</ele>
        <time>2020-05-20T15:22:51Z</time>
      </trkpt>
      <trkpt lat="37.467366" lon="-3.888285">
        <ele>935.037</ele>
        <time>2020-05-20T15:23:34Z</time>
      </trkpt>
      <trkpt lat="37.467033" lon="-3.888725">
        <ele>935.085</ele>
        <time>2020-05-20T15:24:29Z</time>
      </trkpt>
      <trkpt lat="37.466837" lon="-3.888609">
        <ele>934.054</ele>
        <time>2020-05-20T15:24:53Z</time>
      </trkpt>
      <trkpt lat="37.466577" lon="-3.888546">
        <ele>933.157</ele>
        <time>2020-05-20T15:25:23Z</time>
      </trkpt>
      <trkpt lat="37.466071" lon="-3.888535">
        <ele>931.083</ele>
        <time>2020-05-20T15:26:21Z</time>
      </trkpt>
      <trkpt lat="37.465407" lon="-3.888391">
        <ele>931.025</ele>
        <time>2020-05-20T15:27:38Z</time>
      </trkpt>
      <trkpt lat="37.464926" lon="-3.887696">
        <ele>929.017</ele>
        <time>2020-05-20T15:29:01Z</time>
      </trkpt>
      <trkpt lat="37.464598" lon="-3.887243">
        <ele>928.008</ele>
        <time>2020-05-20T15:29:57Z</time>
      </trkpt>
      <trkpt lat="37.463994" lon="-3.886744">
        <ele>923.236</ele>
        <time>2020-05-20T15:31:19Z</time>
      </trkpt>
      <trkpt lat="37.463732" lon="-3.886387">
        <ele>922.097</ele>
        <time>2020-05-20T15:32:03Z</time>
      </trkpt>
      <trkpt lat="37.463781" lon="-3.886345">
        <ele>922.014</ele>
        <time>2020-05-20T15:32:10Z</time>
      </trkpt>
      <trkpt lat="37.463679" lon="-3.886468">
        <ele>922.052</ele>
        <time>2020-05-20T15:32:26Z</time>
      </trkpt>
      <trkpt lat="37.463598" lon="-3.886569">
        <ele>922.073</ele>
        <time>2020-05-20T15:32:39Z</time>
      </trkpt>
      <trkpt lat="37.463573" lon="-3.886610">
        <ele>922.021</ele>
        <time>2020-05-20T15:32:43Z</time>
      </trkpt>
      <trkpt lat="37.463528" lon="-3.886669">
        <ele>922.010</ele>
        <time>2020-05-20T15:32:51Z</time>
      </trkpt>
      <trkpt lat="37.463472" lon="-3.886679">
        <ele>922.093</ele>
        <time>2020-05-20T15:32:57Z</time>
      </trkpt>
      <trkpt lat="37.463395" lon="-3.886657">
        <ele>922.098</ele>
        <time>2020-05-20T15:33:06Z</time>
      </trkpt>
      <trkpt lat="37.463366" lon="-3.886620">
        <ele>922.015</ele>
        <time>2020-05-20T15:33:11Z</time>
      </trkpt>
      <trkpt lat="37.463346" lon="-3.886586">
        <ele>922.026</ele>
        <time>2020-05-20T15:33:15Z</time>
      </trkpt>
      <trkpt lat="37.463332" lon="-3.886532">
        <ele>921.908</ele>
        <time>2020-05-20T15:33:20Z</time>
      </trkpt>
      <trkpt lat="37.463322" lon="-3.886486">
        <ele>921.097</ele>
        <time>2020-05-20T15:33:24Z</time>
      </trkpt>
      <trkpt lat="37.463324" lon="-3.886453">
        <ele>921.098</ele>
        <time>2020-05-20T15:33:27Z</time>
      </trkpt>
      <trkpt lat="37.463323" lon="-3.886420">
        <ele>921.015</ele>
        <time>2020-05-20T15:33:30Z</time>
      </trkpt>
      <trkpt lat="37.463311" lon="-3.886342">
        <ele>921.023</ele>
        <time>2020-05-20T15:33:38Z</time>
      </trkpt>
      <trkpt lat="37.463217" lon="-3.886296">
        <ele>920.584</ele>
        <time>2020-05-20T15:33:49Z</time>
      </trkpt>
      <trkpt lat="37.463217" lon="-3.886296">
        <ele>920.587</ele>
        <time>2020-05-20T15:33:49Z</time>
      </trkpt>
      <trkpt lat="37.463025" lon="-3.886378">
        <ele>920.042</ele>
        <time>2020-05-20T15:34:12Z</time>
      </trkpt>
      <trkpt lat="37.462902" lon="-3.886363">
        <ele>919.026</ele>
        <time>2020-05-20T15:34:26Z</time>
      </trkpt>
      <trkpt lat="37.462587" lon="-3.886374">
        <ele>918.008</ele>
        <time>2020-05-20T15:35:02Z</time>
      </trkpt>
      <trkpt lat="37.462272" lon="-3.886378">
        <ele>916.976</ele>
        <time>2020-05-20T15:35:38Z</time>
      </trkpt>
      <trkpt lat="37.462063" lon="-3.886410">
        <ele>916.067</ele>
        <time>2020-05-20T15:36:02Z</time>
      </trkpt>
      <trkpt lat="37.461991" lon="-3.886431">
        <ele>916.044</ele>
        <time>2020-05-20T15:36:10Z</time>
      </trkpt>
      <trkpt lat="37.461550" lon="-3.886550">
        <ele>915.072</ele>
        <time>2020-05-20T15:37:02Z</time>
      </trkpt>
      <trkpt lat="37.461368" lon="-3.886596">
        <ele>915.033</ele>
        <time>2020-05-20T15:37:23Z</time>
      </trkpt>
      <trkpt lat="37.461207" lon="-3.886638">
        <ele>914.012</ele>
        <time>2020-05-20T15:37:42Z</time>
      </trkpt>
      <trkpt lat="37.461148" lon="-3.886620">
        <ele>914.027</ele>
        <time>2020-05-20T15:37:49Z</time>
      </trkpt>
      <trkpt lat="37.461081" lon="-3.886493">
        <ele>914.017</ele>
        <time>2020-05-20T15:38:02Z</time>
      </trkpt>
      <trkpt lat="37.461074" lon="-3.886482">
        <ele>914.018</ele>
        <time>2020-05-20T15:38:04Z</time>
      </trkpt>
      <trkpt lat="37.461006" lon="-3.886360">
        <ele>914.098</ele>
        <time>2020-05-20T15:38:17Z</time>
      </trkpt>
      <trkpt lat="37.460949" lon="-3.886268">
        <ele>914.217</ele>
        <time>2020-05-20T15:38:28Z</time>
      </trkpt>
      <trkpt lat="37.460896" lon="-3.886157">
        <ele>915.008</ele>
        <time>2020-05-20T15:38:39Z</time>
      </trkpt>
      <trkpt lat="37.460881" lon="-3.886069">
        <ele>915.369</ele>
        <time>2020-05-20T15:38:48Z</time>
      </trkpt>
      <trkpt lat="37.460877" lon="-3.885977">
        <ele>916.010</ele>
        <time>2020-05-20T15:38:56Z</time>
      </trkpt>
      <trkpt lat="37.460867" lon="-3.885875">
        <ele>916.667</ele>
        <time>2020-05-20T15:39:05Z</time>
      </trkpt>
      <trkpt lat="37.460847" lon="-3.885554">
        <ele>917.465</ele>
        <time>2020-05-20T15:39:34Z</time>
      </trkpt>
      <trkpt lat="37.460792" lon="-3.885491">
        <ele>917.546</ele>
        <time>2020-05-20T15:39:43Z</time>
      </trkpt>
      <trkpt lat="37.460788" lon="-3.885333">
        <ele>918.045</ele>
        <time>2020-05-20T15:39:57Z</time>
      </trkpt>
      <trkpt lat="37.460781" lon="-3.885198">
        <ele>918.230</ele>
        <time>2020-05-20T15:40:09Z</time>
      </trkpt>
      <trkpt lat="37.460789" lon="-3.885063">
        <ele>919.060</ele>
        <time>2020-05-20T15:40:22Z</time>
      </trkpt>
      <trkpt lat="37.460780" lon="-3.884966">
        <ele>919.058</ele>
        <time>2020-05-20T15:40:30Z</time>
      </trkpt>
      <trkpt lat="37.460767" lon="-3.884856">
        <ele>919.052</ele>
        <time>2020-05-20T15:40:40Z</time>
      </trkpt>
      <trkpt lat="37.460748" lon="-3.884786">
        <ele>919.017</ele>
        <time>2020-05-20T15:40:47Z</time>
      </trkpt>
      <trkpt lat="37.460741" lon="-3.884777">
        <ele>919.008</ele>
        <time>2020-05-20T15:40:48Z</time>
      </trkpt>
      <trkpt lat="37.460684" lon="-3.884709">
        <ele>919.083</ele>
        <time>2020-05-20T15:40:57Z</time>
      </trkpt>
      <trkpt lat="37.460499" lon="-3.884495">
        <ele>918.034</ele>
        <time>2020-05-20T15:41:26Z</time>
      </trkpt>
      <trkpt lat="37.460491" lon="-3.884481">
        <ele>918.091</ele>
        <time>2020-05-20T15:41:27Z</time>
      </trkpt>
      <trkpt lat="37.460343" lon="-3.884298">
        <ele>916.519</ele>
        <time>2020-05-20T15:41:51Z</time>
      </trkpt>
      <trkpt lat="37.460338" lon="-3.884291">
        <ele>916.460</ele>
        <time>2020-05-20T15:41:52Z</time>
      </trkpt>
      <trkpt lat="37.460235" lon="-3.884132">
        <ele>916.059</ele>
        <time>2020-05-20T15:42:11Z</time>
      </trkpt>
      <trkpt lat="37.460108" lon="-3.884009">
        <ele>916.034</ele>
        <time>2020-05-20T15:42:29Z</time>
      </trkpt>
      <trkpt lat="37.459986" lon="-3.883867">
        <ele>915.174</ele>
        <time>2020-05-20T15:42:48Z</time>
      </trkpt>
      <trkpt lat="37.459971" lon="-3.883846">
        <ele>915.084</ele>
        <time>2020-05-20T15:42:50Z</time>
      </trkpt>
      <trkpt lat="37.459874" lon="-3.883742">
        <ele>915.007</ele>
        <time>2020-05-20T15:43:05Z</time>
      </trkpt>
      <trkpt lat="37.459770" lon="-3.883677">
        <ele>914.517</ele>
        <time>2020-05-20T15:43:18Z</time>
      </trkpt>
      <trkpt lat="37.459734" lon="-3.883615">
        <ele>914.708</ele>
        <time>2020-05-20T15:43:25Z</time>
      </trkpt>
      <trkpt lat="37.459632" lon="-3.883457">
        <ele>914.856</ele>
        <time>2020-05-20T15:43:43Z</time>
      </trkpt>
      <trkpt lat="37.459531" lon="-3.883342">
        <ele>914.027</ele>
        <time>2020-05-20T15:43:59Z</time>
      </trkpt>
      <trkpt lat="37.459453" lon="-3.883267">
        <ele>914.384</ele>
        <time>2020-05-20T15:44:10Z</time>
      </trkpt>
      <trkpt lat="37.459443" lon="-3.883256">
        <ele>914.392</ele>
        <time>2020-05-20T15:44:12Z</time>
      </trkpt>
      <trkpt lat="37.459359" lon="-3.883180">
        <ele>915.043</ele>
        <time>2020-05-20T15:44:23Z</time>
      </trkpt>
      <trkpt lat="37.459354" lon="-3.883173">
        <ele>915.012</ele>
        <time>2020-05-20T15:44:24Z</time>
      </trkpt>
      <trkpt lat="37.459271" lon="-3.883078">
        <ele>915.067</ele>
        <time>2020-05-20T15:44:37Z</time>
      </trkpt>
      <trkpt lat="37.459218" lon="-3.883008">
        <ele>916.067</ele>
        <time>2020-05-20T15:44:46Z</time>
      </trkpt>
      <trkpt lat="37.459012" lon="-3.882795">
        <ele>918.224</ele>
        <time>2020-05-20T15:45:16Z</time>
      </trkpt>
      <trkpt lat="37.458850" lon="-3.882636">
        <ele>920.004</ele>
        <time>2020-05-20T15:45:40Z</time>
      </trkpt>
      <trkpt lat="37.458741" lon="-3.882511">
        <ele>921.014</ele>
        <time>2020-05-20T15:45:56Z</time>
      </trkpt>
      <trkpt lat="37.458657" lon="-3.882424">
        <ele>921.008</ele>
        <time>2020-05-20T15:46:09Z</time>
      </trkpt>
      <trkpt lat="37.458654" lon="-3.882420">
        <ele>921.080</ele>
        <time>2020-05-20T15:46:09Z</time>
      </trkpt>
      <trkpt lat="37.458605" lon="-3.882348">
        <ele>921.461</ele>
        <time>2020-05-20T15:46:18Z</time>
      </trkpt>
      <trkpt lat="37.458549" lon="-3.882269">
        <ele>922.038</ele>
        <time>2020-05-20T15:46:28Z</time>
      </trkpt>
      <trkpt lat="37.458545" lon="-3.882266">
        <ele>922.046</ele>
        <time>2020-05-20T15:46:28Z</time>
      </trkpt>
      <trkpt lat="37.458482" lon="-3.882172">
        <ele>922.687</ele>
        <time>2020-05-20T15:46:39Z</time>
      </trkpt>
      <trkpt lat="37.458386" lon="-3.882025">
        <ele>923.316</ele>
        <time>2020-05-20T15:46:56Z</time>
      </trkpt>
      <trkpt lat="37.458280" lon="-3.881876">
        <ele>925.041</ele>
        <time>2020-05-20T15:47:15Z</time>
      </trkpt>
      <trkpt lat="37.458162" lon="-3.881722">
        <ele>926.051</ele>
        <time>2020-05-20T15:47:34Z</time>
      </trkpt>
      <trkpt lat="37.458040" lon="-3.881601">
        <ele>926.496</ele>
        <time>2020-05-20T15:47:52Z</time>
      </trkpt>
      <trkpt lat="37.457907" lon="-3.881490">
        <ele>927.031</ele>
        <time>2020-05-20T15:48:10Z</time>
      </trkpt>
      <trkpt lat="37.457828" lon="-3.881416">
        <ele>925.824</ele>
        <time>2020-05-20T15:48:21Z</time>
      </trkpt>
      <trkpt lat="37.457711" lon="-3.881335">
        <ele>924.208</ele>
        <time>2020-05-20T15:48:36Z</time>
      </trkpt>
      <trkpt lat="37.457670" lon="-3.881275">
        <ele>924.067</ele>
        <time>2020-05-20T15:48:44Z</time>
      </trkpt>
      <trkpt lat="37.457616" lon="-3.881217">
        <ele>923.098</ele>
        <time>2020-05-20T15:48:52Z</time>
      </trkpt>
      <trkpt lat="37.457578" lon="-3.881143">
        <ele>922.475</ele>
        <time>2020-05-20T15:49:00Z</time>
      </trkpt>
      <trkpt lat="37.457492" lon="-3.880995">
        <ele>920.833</ele>
        <time>2020-05-20T15:49:16Z</time>
      </trkpt>
      <trkpt lat="37.457474" lon="-3.880957">
        <ele>920.514</ele>
        <time>2020-05-20T15:49:20Z</time>
      </trkpt>
      <trkpt lat="37.457380" lon="-3.880752">
        <ele>919.783</ele>
        <time>2020-05-20T15:49:42Z</time>
      </trkpt>
      <trkpt lat="37.457310" lon="-3.880559">
        <ele>918.068</ele>
        <time>2020-05-20T15:50:01Z</time>
      </trkpt>
      <trkpt lat="37.457303" lon="-3.880545">
        <ele>918.078</ele>
        <time>2020-05-20T15:50:03Z</time>
      </trkpt>
      <trkpt lat="37.457231" lon="-3.880393">
        <ele>917.249</ele>
        <time>2020-05-20T15:50:19Z</time>
      </trkpt>
      <trkpt lat="37.457175" lon="-3.880280">
        <ele>916.202</ele>
        <time>2020-05-20T15:50:31Z</time>
      </trkpt>
      <trkpt lat="37.457158" lon="-3.880240">
        <ele>915.922</ele>
        <time>2020-05-20T15:50:35Z</time>
      </trkpt>
      <trkpt lat="37.457103" lon="-3.880106">
        <ele>914.908</ele>
        <time>2020-05-20T15:50:48Z</time>
      </trkpt>
      <trkpt lat="37.457006" lon="-3.879884">
        <ele>913.212</ele>
        <time>2020-05-20T15:51:11Z</time>
      </trkpt>
      <trkpt lat="37.456900" lon="-3.879687">
        <ele>912.313</ele>
        <time>2020-05-20T15:51:33Z</time>
      </trkpt>
      <trkpt lat="37.456822" lon="-3.879513">
        <ele>910.070</ele>
        <time>2020-05-20T15:51:51Z</time>
      </trkpt>
      <trkpt lat="37.456711" lon="-3.879293">
        <ele>910.088</ele>
        <time>2020-05-20T15:52:15Z</time>
      </trkpt>
      <trkpt lat="37.456619" lon="-3.879127">
        <ele>907.899</ele>
        <time>2020-05-20T15:52:33Z</time>
      </trkpt>
      <trkpt lat="37.456608" lon="-3.879107">
        <ele>907.958</ele>
        <time>2020-05-20T15:52:35Z</time>
      </trkpt>
      <trkpt lat="37.456550" lon="-3.878993">
        <ele>907.123</ele>
        <time>2020-05-20T15:52:48Z</time>
      </trkpt>
      <trkpt lat="37.456477" lon="-3.878873">
        <ele>905.853</ele>
        <time>2020-05-20T15:53:01Z</time>
      </trkpt>
      <trkpt lat="37.456476" lon="-3.878861">
        <ele>905.836</ele>
        <time>2020-05-20T15:53:02Z</time>
      </trkpt>
      <trkpt lat="37.456464" lon="-3.878839">
        <ele>905.617</ele>
        <time>2020-05-20T15:53:05Z</time>
      </trkpt>
      <trkpt lat="37.456406" lon="-3.878616">
        <ele>904.118</ele>
        <time>2020-05-20T15:53:26Z</time>
      </trkpt>
      <trkpt lat="37.456298" lon="-3.878148">
        <ele>900.008</ele>
        <time>2020-05-20T15:54:10Z</time>
      </trkpt>
      <trkpt lat="37.456179" lon="-3.877824">
        <ele>896.511</ele>
        <time>2020-05-20T15:54:43Z</time>
      </trkpt>
      <trkpt lat="37.456105" lon="-3.877594">
        <ele>895.042</ele>
        <time>2020-05-20T15:55:05Z</time>
      </trkpt>
      <trkpt lat="37.456021" lon="-3.877360">
        <ele>894.019</ele>
        <time>2020-05-20T15:55:29Z</time>
      </trkpt>
      <trkpt lat="37.455941" lon="-3.877158">
        <ele>893.317</ele>
        <time>2020-05-20T15:55:49Z</time>
      </trkpt>
      <trkpt lat="37.455844" lon="-3.876959">
        <ele>892.928</ele>
        <time>2020-05-20T15:56:10Z</time>
      </trkpt>
      <trkpt lat="37.455628" lon="-3.876506">
        <ele>891.047</ele>
        <time>2020-05-20T15:56:58Z</time>
      </trkpt>
      <trkpt lat="37.455517" lon="-3.876208">
        <ele>890.852</ele>
        <time>2020-05-20T15:57:28Z</time>
      </trkpt>
      <trkpt lat="37.455373" lon="-3.875840">
        <ele>890.082</ele>
        <time>2020-05-20T15:58:05Z</time>
      </trkpt>
      <trkpt lat="37.455289" lon="-3.875589">
        <ele>889.077</ele>
        <time>2020-05-20T15:58:29Z</time>
      </trkpt>
      <trkpt lat="37.455280" lon="-3.875558">
        <ele>889.061</ele>
        <time>2020-05-20T15:58:32Z</time>
      </trkpt>
      <trkpt lat="37.455280" lon="-3.875526">
        <ele>889.027</ele>
        <time>2020-05-20T15:58:35Z</time>
      </trkpt>
      <trkpt lat="37.455188" lon="-3.875229">
        <ele>889.008</ele>
        <time>2020-05-20T15:59:04Z</time>
      </trkpt>
      <trkpt lat="37.455093" lon="-3.874952">
        <ele>888.085</ele>
        <time>2020-05-20T15:59:31Z</time>
      </trkpt>
      <trkpt lat="37.455012" lon="-3.874695">
        <ele>887.016</ele>
        <time>2020-05-20T15:59:57Z</time>
      </trkpt>
      <trkpt lat="37.454998" lon="-3.874665">
        <ele>887.033</ele>
        <time>2020-05-20T16:00:00Z</time>
      </trkpt>
      <trkpt lat="37.454907" lon="-3.874429">
        <ele>887.041</ele>
        <time>2020-05-20T16:00:23Z</time>
      </trkpt>
      <trkpt lat="37.454765" lon="-3.874136">
        <ele>887.032</ele>
        <time>2020-05-20T16:00:54Z</time>
      </trkpt>
      <trkpt lat="37.454577" lon="-3.873919">
        <ele>887.071</ele>
        <time>2020-05-20T16:01:23Z</time>
      </trkpt>
      <trkpt lat="37.454204" lon="-3.873569">
        <ele>886.086</ele>
        <time>2020-05-20T16:02:16Z</time>
      </trkpt>
      <trkpt lat="37.453878" lon="-3.873263">
        <ele>886.046</ele>
        <time>2020-05-20T16:03:03Z</time>
      </trkpt>
      <trkpt lat="37.453862" lon="-3.873245">
        <ele>886.036</ele>
        <time>2020-05-20T16:03:05Z</time>
      </trkpt>
      <trkpt lat="37.453721" lon="-3.873088">
        <ele>885.117</ele>
        <time>2020-05-20T16:03:27Z</time>
      </trkpt>
      <trkpt lat="37.453506" lon="-3.872858">
        <ele>885.018</ele>
        <time>2020-05-20T16:03:59Z</time>
      </trkpt>
      <trkpt lat="37.453303" lon="-3.872606">
        <ele>884.008</ele>
        <time>2020-05-20T16:04:31Z</time>
      </trkpt>
      <trkpt lat="37.453240" lon="-3.872527">
        <ele>884.051</ele>
        <time>2020-05-20T16:04:41Z</time>
      </trkpt>
      <trkpt lat="37.452851" lon="-3.872022">
        <ele>884.822</ele>
        <time>2020-05-20T16:05:45Z</time>
      </trkpt>
      <trkpt lat="37.452592" lon="-3.871715">
        <ele>885.089</ele>
        <time>2020-05-20T16:06:25Z</time>
      </trkpt>
      <trkpt lat="37.452574" lon="-3.871695">
        <ele>885.077</ele>
        <time>2020-05-20T16:06:28Z</time>
      </trkpt>
      <trkpt lat="37.452567" lon="-3.871686">
        <ele>885.088</ele>
        <time>2020-05-20T16:06:29Z</time>
      </trkpt>
      <trkpt lat="37.452357" lon="-3.871449">
        <ele>885.037</ele>
        <time>2020-05-20T16:07:01Z</time>
      </trkpt>
      <trkpt lat="37.452108" lon="-3.871187">
        <ele>885.082</ele>
        <time>2020-05-20T16:07:38Z</time>
      </trkpt>
      <trkpt lat="37.451943" lon="-3.870970">
        <ele>885.012</ele>
        <time>2020-05-20T16:08:06Z</time>
      </trkpt>
      <trkpt lat="37.451787" lon="-3.870773">
        <ele>884.656</ele>
        <time>2020-05-20T16:08:31Z</time>
      </trkpt>
      <trkpt lat="37.451630" lon="-3.870496">
        <ele>884.059</ele>
        <time>2020-05-20T16:09:01Z</time>
      </trkpt>
      <trkpt lat="37.451554" lon="-3.870350">
        <ele>883.014</ele>
        <time>2020-05-20T16:09:17Z</time>
      </trkpt>
      <trkpt lat="37.451511" lon="-3.870263">
        <ele>883.008</ele>
        <time>2020-05-20T16:09:27Z</time>
      </trkpt>
      <trkpt lat="37.451488" lon="-3.870197">
        <ele>882.993</ele>
        <time>2020-05-20T16:09:33Z</time>
      </trkpt>
      <trkpt lat="37.451456" lon="-3.870133">
        <ele>882.034</ele>
        <time>2020-05-20T16:09:40Z</time>
      </trkpt>
      <trkpt lat="37.451393" lon="-3.869946">
        <ele>881.071</ele>
        <time>2020-05-20T16:09:58Z</time>
      </trkpt>
      <trkpt lat="37.451338" lon="-3.869733">
        <ele>879.049</ele>
        <time>2020-05-20T16:10:19Z</time>
      </trkpt>
      <trkpt lat="37.451333" lon="-3.869724">
        <ele>879.010</ele>
        <time>2020-05-20T16:10:20Z</time>
      </trkpt>
      <trkpt lat="37.451241" lon="-3.869455">
        <ele>878.039</ele>
        <time>2020-05-20T16:10:46Z</time>
      </trkpt>
      <trkpt lat="37.451134" lon="-3.869236">
        <ele>876.084</ele>
        <time>2020-05-20T16:11:10Z</time>
      </trkpt>
      <trkpt lat="37.451055" lon="-3.869026">
        <ele>873.064</ele>
        <time>2020-05-20T16:11:31Z</time>
      </trkpt>
      <trkpt lat="37.450944" lon="-3.868854">
        <ele>868.592</ele>
        <time>2020-05-20T16:11:51Z</time>
      </trkpt>
      <trkpt lat="37.450868" lon="-3.868716">
        <ele>867.073</ele>
        <time>2020-05-20T16:12:07Z</time>
      </trkpt>
      <trkpt lat="37.450755" lon="-3.868531">
        <ele>863.920</ele>
        <time>2020-05-20T16:12:28Z</time>
      </trkpt>
      <trkpt lat="37.450667" lon="-3.868260">
        <ele>859.908</ele>
        <time>2020-05-20T16:12:55Z</time>
      </trkpt>
      <trkpt lat="37.450659" lon="-3.868191">
        <ele>858.457</ele>
        <time>2020-05-20T16:13:01Z</time>
      </trkpt>
      <trkpt lat="37.450585" lon="-3.867934">
        <ele>856.018</ele>
        <time>2020-05-20T16:13:26Z</time>
      </trkpt>
      <trkpt lat="37.450493" lon="-3.867541">
        <ele>853.035</ele>
        <time>2020-05-20T16:14:03Z</time>
      </trkpt>
      <trkpt lat="37.450402" lon="-3.867214">
        <ele>852.083</ele>
        <time>2020-05-20T16:14:35Z</time>
      </trkpt>
      <trkpt lat="37.450328" lon="-3.866939">
        <ele>850.014</ele>
        <time>2020-05-20T16:15:01Z</time>
      </trkpt>
      <trkpt lat="37.450293" lon="-3.866658">
        <ele>850.083</ele>
        <time>2020-05-20T16:15:27Z</time>
      </trkpt>
      <trkpt lat="37.450243" lon="-3.866368">
        <ele>850.268</ele>
        <time>2020-05-20T16:15:53Z</time>
      </trkpt>
      <trkpt lat="37.450184" lon="-3.866148">
        <ele>851.138</ele>
        <time>2020-05-20T16:16:15Z</time>
      </trkpt>
      <trkpt lat="37.450179" lon="-3.865932">
        <ele>852.053</ele>
        <time>2020-05-20T16:16:34Z</time>
      </trkpt>
      <trkpt lat="37.450238" lon="-3.865652">
        <ele>850.104</ele>
        <time>2020-05-20T16:17:00Z</time>
      </trkpt>
      <trkpt lat="37.450277" lon="-3.865441">
        <ele>849.714</ele>
        <time>2020-05-20T16:17:20Z</time>
      </trkpt>
      <trkpt lat="37.450288" lon="-3.865383">
        <ele>849.908</ele>
        <time>2020-05-20T16:17:25Z</time>
      </trkpt>
      <trkpt lat="37.450324" lon="-3.865160">
        <ele>849.723</ele>
        <time>2020-05-20T16:17:46Z</time>
      </trkpt>
      <trkpt lat="37.450371" lon="-3.864889">
        <ele>846.614</ele>
        <time>2020-05-20T16:18:11Z</time>
      </trkpt>
      <trkpt lat="37.450419" lon="-3.864596">
        <ele>846.091</ele>
        <time>2020-05-20T16:18:38Z</time>
      </trkpt>
      <trkpt lat="37.450453" lon="-3.864289">
        <ele>846.019</ele>
        <time>2020-05-20T16:19:06Z</time>
      </trkpt>
      <trkpt lat="37.450468" lon="-3.864021">
        <ele>846.050</ele>
        <time>2020-05-20T16:19:31Z</time>
      </trkpt>
      <trkpt lat="37.450499" lon="-3.863717">
        <ele>846.089</ele>
        <time>2020-05-20T16:19:58Z</time>
      </trkpt>
      <trkpt lat="37.450536" lon="-3.863495">
        <ele>845.034</ele>
        <time>2020-05-20T16:20:19Z</time>
      </trkpt>
      <trkpt lat="37.450563" lon="-3.863425">
        <ele>845.044</ele>
        <time>2020-05-20T16:20:26Z</time>
      </trkpt>
      <trkpt lat="37.450620" lon="-3.863372">
        <ele>845.026</ele>
        <time>2020-05-20T16:20:34Z</time>
      </trkpt>
      <trkpt lat="37.450702" lon="-3.863325">
        <ele>844.647</ele>
        <time>2020-05-20T16:20:44Z</time>
      </trkpt>
      <trkpt lat="37.450897" lon="-3.863123">
        <ele>845.011</ele>
        <time>2020-05-20T16:21:13Z</time>
      </trkpt>
      <trkpt lat="37.451043" lon="-3.862913">
        <ele>847.008</ele>
        <time>2020-05-20T16:21:38Z</time>
      </trkpt>
      <trkpt lat="37.451058" lon="-3.862738">
        <ele>847.690</ele>
        <time>2020-05-20T16:21:54Z</time>
      </trkpt>
      <trkpt lat="37.450999" lon="-3.862674">
        <ele>847.061</ele>
        <time>2020-05-20T16:22:03Z</time>
      </trkpt>
      <trkpt lat="37.450852" lon="-3.862640">
        <ele>847.048</ele>
        <time>2020-05-20T16:22:20Z</time>
      </trkpt>
      <trkpt lat="37.450702" lon="-3.862525">
        <ele>849.236</ele>
        <time>2020-05-20T16:22:40Z</time>
      </trkpt>
      <trkpt lat="37.450603" lon="-3.862345">
        <ele>851.637</ele>
        <time>2020-05-20T16:23:00Z</time>
      </trkpt>
      <trkpt lat="37.450485" lon="-3.862004">
        <ele>856.726</ele>
        <time>2020-05-20T16:23:34Z</time>
      </trkpt>
      <trkpt lat="37.450414" lon="-3.861839">
        <ele>859.051</ele>
        <time>2020-05-20T16:23:51Z</time>
      </trkpt>
      <trkpt lat="37.450309" lon="-3.861634">
        <ele>862.351</ele>
        <time>2020-05-20T16:24:14Z</time>
      </trkpt>
      <trkpt lat="37.450233" lon="-3.861406">
        <ele>864.096</ele>
        <time>2020-05-20T16:24:36Z</time>
      </trkpt>
      <trkpt lat="37.450195" lon="-3.861197">
        <ele>866.031</ele>
        <time>2020-05-20T16:24:56Z</time>
      </trkpt>
      <trkpt lat="37.450161" lon="-3.861017">
        <ele>867.324</ele>
        <time>2020-05-20T16:25:12Z</time>
      </trkpt>
      <trkpt lat="37.450121" lon="-3.860785">
        <ele>869.008</ele>
        <time>2020-05-20T16:25:34Z</time>
      </trkpt>
      <trkpt lat="37.450083" lon="-3.860560">
        <ele>869.337</ele>
        <time>2020-05-20T16:25:55Z</time>
      </trkpt>
      <trkpt lat="37.450083" lon="-3.860549">
        <ele>869.378</ele>
        <time>2020-05-20T16:25:56Z</time>
      </trkpt>
      <trkpt lat="37.450062" lon="-3.860275">
        <ele>871.025</ele>
        <time>2020-05-20T16:26:21Z</time>
      </trkpt>
      <trkpt lat="37.450032" lon="-3.860082">
        <ele>872.073</ele>
        <time>2020-05-20T16:26:38Z</time>
      </trkpt>
      <trkpt lat="37.450031" lon="-3.860076">
        <ele>872.034</ele>
        <time>2020-05-20T16:26:39Z</time>
      </trkpt>
      <trkpt lat="37.449960" lon="-3.859848">
        <ele>874.023</ele>
        <time>2020-05-20T16:27:01Z</time>
      </trkpt>
      <trkpt lat="37.449923" lon="-3.859680">
        <ele>876.238</ele>
        <time>2020-05-20T16:27:17Z</time>
      </trkpt>
      <trkpt lat="37.449844" lon="-3.859500">
        <ele>878.338</ele>
        <time>2020-05-20T16:27:36Z</time>
      </trkpt>
      <trkpt lat="37.449746" lon="-3.859300">
        <ele>880.719</ele>
        <time>2020-05-20T16:27:57Z</time>
      </trkpt>
      <trkpt lat="37.449719" lon="-3.859235">
        <ele>881.009</ele>
        <time>2020-05-20T16:28:04Z</time>
      </trkpt>
      <trkpt lat="37.449658" lon="-3.859011">
        <ele>883.719</ele>
        <time>2020-05-20T16:28:25Z</time>
      </trkpt>
      <trkpt lat="37.449592" lon="-3.858772">
        <ele>884.608</ele>
        <time>2020-05-20T16:28:48Z</time>
      </trkpt>
      <trkpt lat="37.449519" lon="-3.858529">
        <ele>885.399</ele>
        <time>2020-05-20T16:29:12Z</time>
      </trkpt>
      <trkpt lat="37.449488" lon="-3.858467">
        <ele>884.850</ele>
        <time>2020-05-20T16:29:18Z</time>
      </trkpt>
      <trkpt lat="37.449411" lon="-3.858170">
        <ele>885.487</ele>
        <time>2020-05-20T16:29:47Z</time>
      </trkpt>
      <trkpt lat="37.449312" lon="-3.857884">
        <ele>885.155</ele>
        <time>2020-05-20T16:30:15Z</time>
      </trkpt>
      <trkpt lat="37.449311" lon="-3.857874">
        <ele>885.246</ele>
        <time>2020-05-20T16:30:16Z</time>
      </trkpt>
      <trkpt lat="37.449267" lon="-3.857694">
        <ele>886.065</ele>
        <time>2020-05-20T16:30:33Z</time>
      </trkpt>
      <trkpt lat="37.449180" lon="-3.857449">
        <ele>887.390</ele>
        <time>2020-05-20T16:30:57Z</time>
      </trkpt>
      <trkpt lat="37.449095" lon="-3.857165">
        <ele>889.070</ele>
        <time>2020-05-20T16:31:25Z</time>
      </trkpt>
      <trkpt lat="37.449020" lon="-3.856915">
        <ele>890.341</ele>
        <time>2020-05-20T16:31:49Z</time>
      </trkpt>
      <trkpt lat="37.448961" lon="-3.856736">
        <ele>891.281</ele>
        <time>2020-05-20T16:32:06Z</time>
      </trkpt>
      <trkpt lat="37.448898" lon="-3.856520">
        <ele>893.109</ele>
        <time>2020-05-20T16:32:27Z</time>
      </trkpt>
      <trkpt lat="37.448855" lon="-3.856338">
        <ele>894.908</ele>
        <time>2020-05-20T16:32:45Z</time>
      </trkpt>
      <trkpt lat="37.448814" lon="-3.856158">
        <ele>896.812</ele>
        <time>2020-05-20T16:33:02Z</time>
      </trkpt>
      <trkpt lat="37.448804" lon="-3.856143">
        <ele>896.673</ele>
        <time>2020-05-20T16:33:03Z</time>
      </trkpt>
      <trkpt lat="37.448687" lon="-3.855991">
        <ele>898.040</ele>
        <time>2020-05-20T16:33:23Z</time>
      </trkpt>
      <trkpt lat="37.448542" lon="-3.855844">
        <ele>898.088</ele>
        <time>2020-05-20T16:33:44Z</time>
      </trkpt>
      <trkpt lat="37.448408" lon="-3.855703">
        <ele>898.079</ele>
        <time>2020-05-20T16:34:04Z</time>
      </trkpt>
      <trkpt lat="37.448264" lon="-3.855597">
        <ele>898.848</ele>
        <time>2020-05-20T16:34:23Z</time>
      </trkpt>
      <trkpt lat="37.448187" lon="-3.855524">
        <ele>900.063</ele>
        <time>2020-05-20T16:34:34Z</time>
      </trkpt>
      <trkpt lat="37.448129" lon="-3.855364">
        <ele>901.023</ele>
        <time>2020-05-20T16:34:50Z</time>
      </trkpt>
      <trkpt lat="37.448069" lon="-3.855267">
        <ele>901.557</ele>
        <time>2020-05-20T16:35:01Z</time>
      </trkpt>
      <trkpt lat="37.448033" lon="-3.855159">
        <ele>903.100</ele>
        <time>2020-05-20T16:35:12Z</time>
      </trkpt>
      <trkpt lat="37.448000" lon="-3.855009">
        <ele>904.620</ele>
        <time>2020-05-20T16:35:26Z</time>
      </trkpt>
      <trkpt lat="37.447980" lon="-3.854916">
        <ele>906.008</ele>
        <time>2020-05-20T16:35:35Z</time>
      </trkpt>
      <trkpt lat="37.447984" lon="-3.854725">
        <ele>907.213</ele>
        <time>2020-05-20T16:35:52Z</time>
      </trkpt>
      <trkpt lat="37.447940" lon="-3.854451">
        <ele>911.094</ele>
        <time>2020-05-20T16:36:17Z</time>
      </trkpt>
      <trkpt lat="37.447923" lon="-3.854207">
        <ele>913.171</ele>
        <time>2020-05-20T16:36:40Z</time>
      </trkpt>
      <trkpt lat="37.447870" lon="-3.854034">
        <ele>915.539</ele>
        <time>2020-05-20T16:36:57Z</time>
      </trkpt>
      <trkpt lat="37.447804" lon="-3.853721">
        <ele>919.070</ele>
        <time>2020-05-20T16:37:26Z</time>
      </trkpt>
      <trkpt lat="37.447770" lon="-3.853584">
        <ele>919.289</ele>
        <time>2020-05-20T16:37:39Z</time>
      </trkpt>
      <trkpt lat="37.447754" lon="-3.853492">
        <ele>919.914</ele>
        <time>2020-05-20T16:37:48Z</time>
      </trkpt>
      <trkpt lat="37.447771" lon="-3.853338">
        <ele>920.524</ele>
        <time>2020-05-20T16:38:02Z</time>
      </trkpt>
      <trkpt lat="37.447773" lon="-3.853325">
        <ele>920.674</ele>
        <time>2020-05-20T16:38:03Z</time>
      </trkpt>
      <trkpt lat="37.447773" lon="-3.853312">
        <ele>920.756</ele>
        <time>2020-05-20T16:38:04Z</time>
      </trkpt>
      <trkpt lat="37.447774" lon="-3.853191">
        <ele>921.921</ele>
        <time>2020-05-20T16:38:15Z</time>
      </trkpt>
      <trkpt lat="37.447775" lon="-3.853181">
        <ele>921.908</ele>
        <time>2020-05-20T16:38:16Z</time>
      </trkpt>
      <trkpt lat="37.447780" lon="-3.853133">
        <ele>922.295</ele>
        <time>2020-05-20T16:38:20Z</time>
      </trkpt>
      <trkpt lat="37.447783" lon="-3.853015">
        <ele>923.446</ele>
        <time>2020-05-20T16:38:31Z</time>
      </trkpt>
      <trkpt lat="37.447779" lon="-3.852840">
        <ele>924.113</ele>
        <time>2020-05-20T16:38:47Z</time>
      </trkpt>
      <trkpt lat="37.447761" lon="-3.852685">
        <ele>924.511</ele>
        <time>2020-05-20T16:39:01Z</time>
      </trkpt>
      <trkpt lat="37.447761" lon="-3.852679">
        <ele>924.712</ele>
        <time>2020-05-20T16:39:02Z</time>
      </trkpt>
      <trkpt lat="37.447721" lon="-3.852488">
        <ele>924.421</ele>
        <time>2020-05-20T16:39:20Z</time>
      </trkpt>
      <trkpt lat="37.447712" lon="-3.852300">
        <ele>924.276</ele>
        <time>2020-05-20T16:39:37Z</time>
      </trkpt>
      <trkpt lat="37.447705" lon="-3.852277">
        <ele>924.146</ele>
        <time>2020-05-20T16:39:39Z</time>
      </trkpt>
      <trkpt lat="37.447661" lon="-3.852091">
        <ele>924.674</ele>
        <time>2020-05-20T16:39:56Z</time>
      </trkpt>
      <trkpt lat="37.447660" lon="-3.852078">
        <ele>924.556</ele>
        <time>2020-05-20T16:39:58Z</time>
      </trkpt>
      <trkpt lat="37.447602" lon="-3.851826">
        <ele>925.721</ele>
        <time>2020-05-20T16:40:21Z</time>
      </trkpt>
      <trkpt lat="37.447560" lon="-3.851682">
        <ele>925.508</ele>
        <time>2020-05-20T16:40:35Z</time>
      </trkpt>
      <trkpt lat="37.447558" lon="-3.851675">
        <ele>925.425</ele>
        <time>2020-05-20T16:40:36Z</time>
      </trkpt>
      <trkpt lat="37.447515" lon="-3.851505">
        <ele>924.716</ele>
        <time>2020-05-20T16:40:52Z</time>
      </trkpt>
      <trkpt lat="37.447482" lon="-3.851363">
        <ele>925.193</ele>
        <time>2020-05-20T16:41:05Z</time>
      </trkpt>
      <trkpt lat="37.447457" lon="-3.851145">
        <ele>924.781</ele>
        <time>2020-05-20T16:41:25Z</time>
      </trkpt>
      <trkpt lat="37.447454" lon="-3.850986">
        <ele>923.632</ele>
        <time>2020-05-20T16:41:40Z</time>
      </trkpt>
      <trkpt lat="37.447471" lon="-3.850870">
        <ele>923.381</ele>
        <time>2020-05-20T16:41:50Z</time>
      </trkpt>
      <trkpt lat="37.447474" lon="-3.850850">
        <ele>923.066</ele>
        <time>2020-05-20T16:41:52Z</time>
      </trkpt>
      <trkpt lat="37.447504" lon="-3.850640">
        <ele>922.126</ele>
        <time>2020-05-20T16:42:12Z</time>
      </trkpt>
      <trkpt lat="37.447521" lon="-3.850462">
        <ele>921.231</ele>
        <time>2020-05-20T16:42:28Z</time>
      </trkpt>
      <trkpt lat="37.447531" lon="-3.850323">
        <ele>920.061</ele>
        <time>2020-05-20T16:42:41Z</time>
      </trkpt>
      <trkpt lat="37.447560" lon="-3.850147">
        <ele>922.007</ele>
        <time>2020-05-20T16:42:57Z</time>
      </trkpt>
      <trkpt lat="37.447559" lon="-3.849962">
        <ele>921.408</ele>
        <time>2020-05-20T16:43:14Z</time>
      </trkpt>
      <trkpt lat="37.447531" lon="-3.849791">
        <ele>920.511</ele>
        <time>2020-05-20T16:43:29Z</time>
      </trkpt>
      <trkpt lat="37.447527" lon="-3.849780">
        <ele>920.732</ele>
        <time>2020-05-20T16:43:31Z</time>
      </trkpt>
      <trkpt lat="37.447522" lon="-3.849744">
        <ele>920.889</ele>
        <time>2020-05-20T16:43:34Z</time>
      </trkpt>
      <trkpt lat="37.447507" lon="-3.849592">
        <ele>921.547</ele>
        <time>2020-05-20T16:43:48Z</time>
      </trkpt>
      <trkpt lat="37.447504" lon="-3.849553">
        <ele>921.988</ele>
        <time>2020-05-20T16:43:51Z</time>
      </trkpt>
      <trkpt lat="37.447503" lon="-3.849549">
        <ele>921.917</ele>
        <time>2020-05-20T16:43:52Z</time>
      </trkpt>
      <trkpt lat="37.447503" lon="-3.849540">
        <ele>922.062</ele>
        <time>2020-05-20T16:43:52Z</time>
      </trkpt>
      <trkpt lat="37.447499" lon="-3.849408">
        <ele>921.882</ele>
        <time>2020-05-20T16:44:04Z</time>
      </trkpt>
      <trkpt lat="37.447499" lon="-3.849397">
        <ele>921.834</ele>
        <time>2020-05-20T16:44:05Z</time>
      </trkpt>
      <trkpt lat="37.447499" lon="-3.849389">
        <ele>921.855</ele>
        <time>2020-05-20T16:44:06Z</time>
      </trkpt>
      <trkpt lat="37.447470" lon="-3.849230">
        <ele>920.910</ele>
        <time>2020-05-20T16:44:21Z</time>
      </trkpt>
      <trkpt lat="37.447441" lon="-3.849105">
        <ele>920.808</ele>
        <time>2020-05-20T16:44:33Z</time>
      </trkpt>
      <trkpt lat="37.447403" lon="-3.848971">
        <ele>919.721</ele>
        <time>2020-05-20T16:44:46Z</time>
      </trkpt>
      <trkpt lat="37.447402" lon="-3.848968">
        <ele>919.792</ele>
        <time>2020-05-20T16:44:46Z</time>
      </trkpt>
      <trkpt lat="37.447371" lon="-3.848785">
        <ele>917.369</ele>
        <time>2020-05-20T16:45:03Z</time>
      </trkpt>
      <trkpt lat="37.447353" lon="-3.848633">
        <ele>914.827</ele>
        <time>2020-05-20T16:45:17Z</time>
      </trkpt>
      <trkpt lat="37.447333" lon="-3.848472">
        <ele>913.218</ele>
        <time>2020-05-20T16:45:32Z</time>
      </trkpt>
      <trkpt lat="37.447308" lon="-3.848156">
        <ele>908.397</ele>
        <time>2020-05-20T16:46:01Z</time>
      </trkpt>
      <trkpt lat="37.447247" lon="-3.847852">
        <ele>901.962</ele>
        <time>2020-05-20T16:46:30Z</time>
      </trkpt>
      <trkpt lat="37.447114" lon="-3.847560">
        <ele>898.642</ele>
        <time>2020-05-20T16:47:01Z</time>
      </trkpt>
      <trkpt lat="37.447109" lon="-3.847544">
        <ele>898.599</ele>
        <time>2020-05-20T16:47:02Z</time>
      </trkpt>
      <trkpt lat="37.446936" lon="-3.847341">
        <ele>893.407</ele>
        <time>2020-05-20T16:47:30Z</time>
      </trkpt>
      <trkpt lat="37.446861" lon="-3.847180">
        <ele>892.127</ele>
        <time>2020-05-20T16:47:47Z</time>
      </trkpt>
      <trkpt lat="37.446802" lon="-3.846995">
        <ele>889.108</ele>
        <time>2020-05-20T16:48:05Z</time>
      </trkpt>
      <trkpt lat="37.446746" lon="-3.846819">
        <ele>886.017</ele>
        <time>2020-05-20T16:48:22Z</time>
      </trkpt>
      <trkpt lat="37.446738" lon="-3.846803">
        <ele>885.948</ele>
        <time>2020-05-20T16:48:24Z</time>
      </trkpt>
      <trkpt lat="37.446710" lon="-3.846613">
        <ele>883.475</ele>
        <time>2020-05-20T16:48:42Z</time>
      </trkpt>
      <trkpt lat="37.446715" lon="-3.846443">
        <ele>882.173</ele>
        <time>2020-05-20T16:48:57Z</time>
      </trkpt>
      <trkpt lat="37.446714" lon="-3.846426">
        <ele>881.974</ele>
        <time>2020-05-20T16:48:59Z</time>
      </trkpt>
      <trkpt lat="37.446707" lon="-3.846296">
        <ele>880.393</ele>
        <time>2020-05-20T16:49:11Z</time>
      </trkpt>
      <trkpt lat="37.446707" lon="-3.846292">
        <ele>880.338</ele>
        <time>2020-05-20T16:49:11Z</time>
      </trkpt>
      <trkpt lat="37.446728" lon="-3.846148">
        <ele>879.058</ele>
        <time>2020-05-20T16:49:24Z</time>
      </trkpt>
      <trkpt lat="37.446730" lon="-3.846127">
        <ele>879.099</ele>
        <time>2020-05-20T16:49:26Z</time>
      </trkpt>
      <trkpt lat="37.446722" lon="-3.845988">
        <ele>877.707</ele>
        <time>2020-05-20T16:49:39Z</time>
      </trkpt>
      <trkpt lat="37.446723" lon="-3.845940">
        <ele>877.127</ele>
        <time>2020-05-20T16:49:43Z</time>
      </trkpt>
      <trkpt lat="37.446708" lon="-3.845744">
        <ele>877.008</ele>
        <time>2020-05-20T16:50:01Z</time>
      </trkpt>
      <trkpt lat="37.446635" lon="-3.845317">
        <ele>874.087</ele>
        <time>2020-05-20T16:50:41Z</time>
      </trkpt>
      <trkpt lat="37.446595" lon="-3.845001">
        <ele>872.118</ele>
        <time>2020-05-20T16:51:10Z</time>
      </trkpt>
      <trkpt lat="37.446570" lon="-3.844757">
        <ele>870.165</ele>
        <time>2020-05-20T16:51:32Z</time>
      </trkpt>
      <trkpt lat="37.446565" lon="-3.844669">
        <ele>870.063</ele>
        <time>2020-05-20T16:51:40Z</time>
      </trkpt>
      <trkpt lat="37.446541" lon="-3.844419">
        <ele>868.244</ele>
        <time>2020-05-20T16:52:03Z</time>
      </trkpt>
      <trkpt lat="37.446531" lon="-3.844357">
        <ele>868.023</ele>
        <time>2020-05-20T16:52:09Z</time>
      </trkpt>
      <trkpt lat="37.446528" lon="-3.844302">
        <ele>867.818</ele>
        <time>2020-05-20T16:52:14Z</time>
      </trkpt>
      <trkpt lat="37.446543" lon="-3.844040">
        <ele>865.088</ele>
        <time>2020-05-20T16:52:38Z</time>
      </trkpt>
      <trkpt lat="37.446529" lon="-3.843686">
        <ele>862.035</ele>
        <time>2020-05-20T16:53:10Z</time>
      </trkpt>
      <trkpt lat="37.446555" lon="-3.843196">
        <ele>859.286</ele>
        <time>2020-05-20T16:53:54Z</time>
      </trkpt>
      <trkpt lat="37.446555" lon="-3.843177">
        <ele>859.014</ele>
        <time>2020-05-20T16:53:56Z</time>
      </trkpt>
      <trkpt lat="37.446550" lon="-3.842926">
        <ele>859.008</ele>
        <time>2020-05-20T16:54:19Z</time>
      </trkpt>
      <trkpt lat="37.446538" lon="-3.842897">
        <ele>859.031</ele>
        <time>2020-05-20T16:54:22Z</time>
      </trkpt>
      <trkpt lat="37.446503" lon="-3.842767">
        <ele>859.092</ele>
        <time>2020-05-20T16:54:34Z</time>
      </trkpt>
      <trkpt lat="37.446494" lon="-3.842750">
        <ele>859.039</ele>
        <time>2020-05-20T16:54:36Z</time>
      </trkpt>
      <trkpt lat="37.446398" lon="-3.842450">
        <ele>857.947</ele>
        <time>2020-05-20T16:55:05Z</time>
      </trkpt>
      <trkpt lat="37.446335" lon="-3.842282">
        <ele>856.598</ele>
        <time>2020-05-20T16:55:22Z</time>
      </trkpt>
      <trkpt lat="37.446216" lon="-3.841910">
        <ele>853.677</ele>
        <time>2020-05-20T16:55:58Z</time>
      </trkpt>
      <trkpt lat="37.446110" lon="-3.841545">
        <ele>852.582</ele>
        <time>2020-05-20T16:56:34Z</time>
      </trkpt>
      <trkpt lat="37.446106" lon="-3.841512">
        <ele>852.442</ele>
        <time>2020-05-20T16:56:37Z</time>
      </trkpt>
      <trkpt lat="37.446105" lon="-3.841473">
        <ele>852.373</ele>
        <time>2020-05-20T16:56:40Z</time>
      </trkpt>
      <trkpt lat="37.446091" lon="-3.841303">
        <ele>851.285</ele>
        <time>2020-05-20T16:56:56Z</time>
      </trkpt>
      <trkpt lat="37.446083" lon="-3.841276">
        <ele>850.613</ele>
        <time>2020-05-20T16:56:58Z</time>
      </trkpt>
      <trkpt lat="37.446036" lon="-3.841166">
        <ele>849.308</ele>
        <time>2020-05-20T16:57:10Z</time>
      </trkpt>
      <trkpt lat="37.446035" lon="-3.841144">
        <ele>849.335</ele>
        <time>2020-05-20T16:57:12Z</time>
      </trkpt>
      <trkpt lat="37.446031" lon="-3.840886">
        <ele>847.796</ele>
        <time>2020-05-20T16:57:35Z</time>
      </trkpt>
      <trkpt lat="37.446060" lon="-3.840698">
        <ele>848.713</ele>
        <time>2020-05-20T16:57:52Z</time>
      </trkpt>
      <trkpt lat="37.446046" lon="-3.840601">
        <ele>848.221</ele>
        <time>2020-05-20T16:58:01Z</time>
      </trkpt>
      <trkpt lat="37.446026" lon="-3.840425">
        <ele>846.562</ele>
        <time>2020-05-20T16:58:17Z</time>
      </trkpt>
      <trkpt lat="37.446046" lon="-3.840203">
        <ele>845.611</ele>
        <time>2020-05-20T16:58:38Z</time>
      </trkpt>
      <trkpt lat="37.446023" lon="-3.840071">
        <ele>844.426</ele>
        <time>2020-05-20T16:58:50Z</time>
      </trkpt>
      <trkpt lat="37.445952" lon="-3.839834">
        <ele>840.756</ele>
        <time>2020-05-20T16:59:13Z</time>
      </trkpt>
      <trkpt lat="37.445923" lon="-3.839562">
        <ele>837.675</ele>
        <time>2020-05-20T16:59:38Z</time>
      </trkpt>
      <trkpt lat="37.445832" lon="-3.839471">
        <ele>838.328</ele>
        <time>2020-05-20T16:59:51Z</time>
      </trkpt>
      <trkpt lat="37.445648" lon="-3.839415">
        <ele>839.520</ele>
        <time>2020-05-20T17:00:13Z</time>
      </trkpt>
      <trkpt lat="37.445478" lon="-3.839430">
        <ele>838.208</ele>
        <time>2020-05-20T17:00:33Z</time>
      </trkpt>
      <trkpt lat="37.445316" lon="-3.839408">
        <ele>838.055</ele>
        <time>2020-05-20T17:00:51Z</time>
      </trkpt>
      <trkpt lat="37.445293" lon="-3.839399">
        <ele>838.026</ele>
        <time>2020-05-20T17:00:54Z</time>
      </trkpt>
      <trkpt lat="37.445100" lon="-3.839343">
        <ele>837.813</ele>
        <time>2020-05-20T17:01:16Z</time>
      </trkpt>
      <trkpt lat="37.444877" lon="-3.839319">
        <ele>839.031</ele>
        <time>2020-05-20T17:01:42Z</time>
      </trkpt>
      <trkpt lat="37.444618" lon="-3.839356">
        <ele>839.042</ele>
        <time>2020-05-20T17:02:12Z</time>
      </trkpt>
      <trkpt lat="37.444432" lon="-3.839447">
        <ele>838.021</ele>
        <time>2020-05-20T17:02:34Z</time>
      </trkpt>
      <trkpt lat="37.444267" lon="-3.839560">
        <ele>838.076</ele>
        <time>2020-05-20T17:02:56Z</time>
      </trkpt>
      <trkpt lat="37.444143" lon="-3.839661">
        <ele>838.036</ele>
        <time>2020-05-20T17:03:13Z</time>
      </trkpt>
      <trkpt lat="37.444009" lon="-3.839757">
        <ele>837.411</ele>
        <time>2020-05-20T17:03:30Z</time>
      </trkpt>
      <trkpt lat="37.443850" lon="-3.839778">
        <ele>837.021</ele>
        <time>2020-05-20T17:03:48Z</time>
      </trkpt>
      <trkpt lat="37.443698" lon="-3.839810">
        <ele>836.003</ele>
        <time>2020-05-20T17:04:06Z</time>
      </trkpt>
      <trkpt lat="37.443489" lon="-3.839845">
        <ele>835.008</ele>
        <time>2020-05-20T17:04:30Z</time>
      </trkpt>
      <trkpt lat="37.443238" lon="-3.839867">
        <ele>834.439</ele>
        <time>2020-05-20T17:04:59Z</time>
      </trkpt>
      <trkpt lat="37.443078" lon="-3.839899">
        <ele>834.270</ele>
        <time>2020-05-20T17:05:17Z</time>
      </trkpt>
      <trkpt lat="37.442942" lon="-3.839946">
        <ele>834.287</ele>
        <time>2020-05-20T17:05:33Z</time>
      </trkpt>
      <trkpt lat="37.442887" lon="-3.839984">
        <ele>834.545</ele>
        <time>2020-05-20T17:05:40Z</time>
      </trkpt>
      <trkpt lat="37.442870" lon="-3.840088">
        <ele>834.296</ele>
        <time>2020-05-20T17:05:50Z</time>
      </trkpt>
      <trkpt lat="37.442828" lon="-3.840249">
        <ele>834.055</ele>
        <time>2020-05-20T17:06:05Z</time>
      </trkpt>
      <trkpt lat="37.442791" lon="-3.840326">
        <ele>834.090</ele>
        <time>2020-05-20T17:06:13Z</time>
      </trkpt>
      <trkpt lat="37.442767" lon="-3.840392">
        <ele>834.010</ele>
        <time>2020-05-20T17:06:20Z</time>
      </trkpt>
      <trkpt lat="37.442795" lon="-3.840478">
        <ele>834.091</ele>
        <time>2020-05-20T17:06:28Z</time>
      </trkpt>
      <trkpt lat="37.442883" lon="-3.840659">
        <ele>834.081</ele>
        <time>2020-05-20T17:06:47Z</time>
      </trkpt>
      <trkpt lat="37.442991" lon="-3.840802">
        <ele>834.019</ele>
        <time>2020-05-20T17:07:05Z</time>
      </trkpt>
      <trkpt lat="37.443104" lon="-3.840946">
        <ele>834.008</ele>
        <time>2020-05-20T17:07:24Z</time>
      </trkpt>
      <trkpt lat="37.443137" lon="-3.840994">
        <ele>834.087</ele>
        <time>2020-05-20T17:07:29Z</time>
      </trkpt>
      <trkpt lat="37.443249" lon="-3.841130">
        <ele>834.088</ele>
        <time>2020-05-20T17:07:47Z</time>
      </trkpt>
      <trkpt lat="37.443274" lon="-3.841163">
        <ele>834.055</ele>
        <time>2020-05-20T17:07:51Z</time>
      </trkpt>
      <trkpt lat="37.443389" lon="-3.841293">
        <ele>834.053</ele>
        <time>2020-05-20T17:08:09Z</time>
      </trkpt>
      <trkpt lat="37.443589" lon="-3.841545">
        <ele>835.024</ele>
        <time>2020-05-20T17:08:41Z</time>
      </trkpt>
      <trkpt lat="37.443658" lon="-3.841641">
        <ele>835.083</ele>
        <time>2020-05-20T17:08:53Z</time>
      </trkpt>
      <trkpt lat="37.443683" lon="-3.841674">
        <ele>835.038</ele>
        <time>2020-05-20T17:08:57Z</time>
      </trkpt>
      <trkpt lat="37.443825" lon="-3.841832">
        <ele>836.248</ele>
        <time>2020-05-20T17:09:18Z</time>
      </trkpt>
      <trkpt lat="37.443840" lon="-3.841832">
        <ele>836.458</ele>
        <time>2020-05-20T17:09:20Z</time>
      </trkpt>
      <trkpt lat="37.443937" lon="-3.841925">
        <ele>837.252</ele>
        <time>2020-05-20T17:09:34Z</time>
      </trkpt>
      <trkpt lat="37.444021" lon="-3.842041">
        <ele>838.417</ele>
        <time>2020-05-20T17:09:48Z</time>
      </trkpt>
      <trkpt lat="37.444042" lon="-3.842147">
        <ele>840.108</ele>
        <time>2020-05-20T17:09:58Z</time>
      </trkpt>
      <trkpt lat="37.444067" lon="-3.842290">
        <ele>842.063</ele>
        <time>2020-05-20T17:10:12Z</time>
      </trkpt>
      <trkpt lat="37.443951" lon="-3.842474">
        <ele>841.664</ele>
        <time>2020-05-20T17:10:33Z</time>
      </trkpt>
      <trkpt lat="37.443774" lon="-3.842708">
        <ele>841.171</ele>
        <time>2020-05-20T17:11:02Z</time>
      </trkpt>
      <trkpt lat="37.443328" lon="-3.843292">
        <ele>841.069</ele>
        <time>2020-05-20T17:12:16Z</time>
      </trkpt>
      <trkpt lat="37.443120" lon="-3.843502">
        <ele>840.780</ele>
        <time>2020-05-20T17:12:46Z</time>
      </trkpt>
      <trkpt lat="37.442915" lon="-3.843650">
        <ele>840.099</ele>
        <time>2020-05-20T17:13:13Z</time>
      </trkpt>
      <trkpt lat="37.442650" lon="-3.843886">
        <ele>839.354</ele>
        <time>2020-05-20T17:13:50Z</time>
      </trkpt>
      <trkpt lat="37.442481" lon="-3.844021">
        <ele>838.294</ele>
        <time>2020-05-20T17:14:13Z</time>
      </trkpt>
      <trkpt lat="37.442238" lon="-3.844240">
        <ele>837.014</ele>
        <time>2020-05-20T17:14:47Z</time>
      </trkpt>
      <trkpt lat="37.442076" lon="-3.844403">
        <ele>837.054</ele>
        <time>2020-05-20T17:15:10Z</time>
      </trkpt>
      <trkpt lat="37.441734" lon="-3.844643">
        <ele>835.009</ele>
        <time>2020-05-20T17:15:55Z</time>
      </trkpt>
      <trkpt lat="37.441536" lon="-3.844770">
        <ele>833.808</ele>
        <time>2020-05-20T17:16:20Z</time>
      </trkpt>
      <trkpt lat="37.441187" lon="-3.844936">
        <ele>832.339</ele>
        <time>2020-05-20T17:17:03Z</time>
      </trkpt>
      <trkpt lat="37.440956" lon="-3.845032">
        <ele>832.070</ele>
        <time>2020-05-20T17:17:30Z</time>
      </trkpt>
      <trkpt lat="37.440781" lon="-3.845087">
        <ele>830.147</ele>
        <time>2020-05-20T17:17:51Z</time>
      </trkpt>
      <trkpt lat="37.440669" lon="-3.845144">
        <ele>830.095</ele>
        <time>2020-05-20T17:18:05Z</time>
      </trkpt>
      <trkpt lat="37.440482" lon="-3.845215">
        <ele>828.896</ele>
        <time>2020-05-20T17:18:27Z</time>
      </trkpt>
      <trkpt lat="37.440109" lon="-3.845390">
        <ele>827.185</ele>
        <time>2020-05-20T17:19:12Z</time>
      </trkpt>
      <trkpt lat="37.439784" lon="-3.845488">
        <ele>828.020</ele>
        <time>2020-05-20T17:19:51Z</time>
      </trkpt>
      <trkpt lat="37.439581" lon="-3.845567">
        <ele>828.080</ele>
        <time>2020-05-20T17:20:15Z</time>
      </trkpt>
      <trkpt lat="37.439341" lon="-3.845575">
        <ele>829.076</ele>
        <time>2020-05-20T17:20:42Z</time>
      </trkpt>
      <trkpt lat="37.439201" lon="-3.845547">
        <ele>829.090</ele>
        <time>2020-05-20T17:20:58Z</time>
      </trkpt>
      <trkpt lat="37.439143" lon="-3.845656">
        <ele>828.019</ele>
        <time>2020-05-20T17:21:10Z</time>
      </trkpt>
      <trkpt lat="37.439004" lon="-3.845672">
        <ele>826.508</ele>
        <time>2020-05-20T17:21:26Z</time>
      </trkpt>
      <trkpt lat="37.438826" lon="-3.845674">
        <ele>825.495</ele>
        <time>2020-05-20T17:21:46Z</time>
      </trkpt>
      <trkpt lat="37.438614" lon="-3.845720">
        <ele>825.046</ele>
        <time>2020-05-20T17:22:11Z</time>
      </trkpt>
      <trkpt lat="37.438498" lon="-3.845752">
        <ele>825.053</ele>
        <time>2020-05-20T17:22:24Z</time>
      </trkpt>
      <trkpt lat="37.438326" lon="-3.845811">
        <ele>824.011</ele>
        <time>2020-05-20T17:22:45Z</time>
      </trkpt>
      <trkpt lat="37.438208" lon="-3.845866">
        <ele>824.042</ele>
        <time>2020-05-20T17:22:59Z</time>
      </trkpt>
      <trkpt lat="37.438078" lon="-3.845891">
        <ele>824.051</ele>
        <time>2020-05-20T17:23:14Z</time>
      </trkpt>
      <trkpt lat="37.437922" lon="-3.845858">
        <ele>824.086</ele>
        <time>2020-05-20T17:23:32Z</time>
      </trkpt>
      <trkpt lat="37.437680" lon="-3.845770">
        <ele>823.436</ele>
        <time>2020-05-20T17:24:01Z</time>
      </trkpt>
      <trkpt lat="37.437476" lon="-3.845704">
        <ele>823.914</ele>
        <time>2020-05-20T17:24:25Z</time>
      </trkpt>
      <trkpt lat="37.437350" lon="-3.845694">
        <ele>823.754</ele>
        <time>2020-05-20T17:24:39Z</time>
      </trkpt>
      <trkpt lat="37.437267" lon="-3.845735">
        <ele>824.309</ele>
        <time>2020-05-20T17:24:49Z</time>
      </trkpt>
      <trkpt lat="37.437158" lon="-3.845565">
        <ele>824.008</ele>
        <time>2020-05-20T17:25:09Z</time>
      </trkpt>
      <trkpt lat="37.437030" lon="-3.845326">
        <ele>823.519</ele>
        <time>2020-05-20T17:25:35Z</time>
      </trkpt>
      <trkpt lat="37.436971" lon="-3.845240">
        <ele>823.180</ele>
        <time>2020-05-20T17:25:45Z</time>
      </trkpt>
      <trkpt lat="37.436880" lon="-3.845096">
        <ele>822.187</ele>
        <time>2020-05-20T17:26:02Z</time>
      </trkpt>
      <trkpt lat="37.436809" lon="-3.845022">
        <ele>822.395</ele>
        <time>2020-05-20T17:26:13Z</time>
      </trkpt>
      <trkpt lat="37.436695" lon="-3.844959">
        <ele>822.456</ele>
        <time>2020-05-20T17:26:27Z</time>
      </trkpt>
      <trkpt lat="37.436534" lon="-3.844966">
        <ele>823.565</ele>
        <time>2020-05-20T17:26:45Z</time>
      </trkpt>
      <trkpt lat="37.436296" lon="-3.845049">
        <ele>823.510</ele>
        <time>2020-05-20T17:27:13Z</time>
      </trkpt>
      <trkpt lat="37.436163" lon="-3.845089">
        <ele>823.370</ele>
        <time>2020-05-20T17:27:29Z</time>
      </trkpt>
      <trkpt lat="37.436023" lon="-3.845124">
        <ele>822.738</ele>
        <time>2020-05-20T17:27:45Z</time>
      </trkpt>
      <trkpt lat="37.435910" lon="-3.845174">
        <ele>823.270</ele>
        <time>2020-05-20T17:27:59Z</time>
      </trkpt>
      <trkpt lat="37.435715" lon="-3.845254">
        <ele>823.117</ele>
        <time>2020-05-20T17:28:22Z</time>
      </trkpt>
      <trkpt lat="37.435564" lon="-3.845312">
        <ele>822.208</ele>
        <time>2020-05-20T17:28:40Z</time>
      </trkpt>
      <trkpt lat="37.435441" lon="-3.845362">
        <ele>822.371</ele>
        <time>2020-05-20T17:28:55Z</time>
      </trkpt>
      <trkpt lat="37.435331" lon="-3.845398">
        <ele>823.092</ele>
        <time>2020-05-20T17:29:08Z</time>
      </trkpt>
      <trkpt lat="37.435090" lon="-3.845498">
        <ele>823.029</ele>
        <time>2020-05-20T17:29:37Z</time>
      </trkpt>
      <trkpt lat="37.434795" lon="-3.845624">
        <ele>823.167</ele>
        <time>2020-05-20T17:30:12Z</time>
      </trkpt>
      <trkpt lat="37.434556" lon="-3.845717">
        <ele>824.088</ele>
        <time>2020-05-20T17:30:41Z</time>
      </trkpt>
      <trkpt lat="37.434445" lon="-3.845737">
        <ele>823.027</ele>
        <time>2020-05-20T17:30:54Z</time>
      </trkpt>
      <trkpt lat="37.434325" lon="-3.845709">
        <ele>823.032</ele>
        <time>2020-05-20T17:31:07Z</time>
      </trkpt>
      <trkpt lat="37.434154" lon="-3.845676">
        <ele>823.172</ele>
        <time>2020-05-20T17:31:27Z</time>
      </trkpt>
      <trkpt lat="37.434030" lon="-3.845624">
        <ele>823.126</ele>
        <time>2020-05-20T17:31:42Z</time>
      </trkpt>
      <trkpt lat="37.433900" lon="-3.845589">
        <ele>822.347</ele>
        <time>2020-05-20T17:31:57Z</time>
      </trkpt>
      <trkpt lat="37.433785" lon="-3.845576">
        <ele>822.011</ele>
        <time>2020-05-20T17:32:10Z</time>
      </trkpt>
      <trkpt lat="37.433669" lon="-3.845604">
        <ele>821.608</ele>
        <time>2020-05-20T17:32:24Z</time>
      </trkpt>
      <trkpt lat="37.433542" lon="-3.845686">
        <ele>821.340</ele>
        <time>2020-05-20T17:32:40Z</time>
      </trkpt>
      <trkpt lat="37.433449" lon="-3.845775">
        <ele>820.961</ele>
        <time>2020-05-20T17:32:53Z</time>
      </trkpt>
      <trkpt lat="37.433301" lon="-3.845820">
        <ele>820.488</ele>
        <time>2020-05-20T17:33:11Z</time>
      </trkpt>
      <trkpt lat="37.433144" lon="-3.845846">
        <ele>820.626</ele>
        <time>2020-05-20T17:33:29Z</time>
      </trkpt>
      <trkpt lat="37.433001" lon="-3.845846">
        <ele>820.187</ele>
        <time>2020-05-20T17:33:45Z</time>
      </trkpt>
      <trkpt lat="37.432890" lon="-3.845817">
        <ele>820.496</ele>
        <time>2020-05-20T17:33:58Z</time>
      </trkpt>
      <trkpt lat="37.432802" lon="-3.845754">
        <ele>819.061</ele>
        <time>2020-05-20T17:34:10Z</time>
      </trkpt>
      <trkpt lat="37.432697" lon="-3.845713">
        <ele>820.081</ele>
        <time>2020-05-20T17:34:22Z</time>
      </trkpt>
      <trkpt lat="37.432615" lon="-3.845721">
        <ele>820.077</ele>
        <time>2020-05-20T17:34:31Z</time>
      </trkpt>
      <trkpt lat="37.432550" lon="-3.845743">
        <ele>820.061</ele>
        <time>2020-05-20T17:34:39Z</time>
      </trkpt>
      <trkpt lat="37.432367" lon="-3.845778">
        <ele>819.527</ele>
        <time>2020-05-20T17:35:00Z</time>
      </trkpt>
      <trkpt lat="37.432276" lon="-3.845829">
        <ele>820.308</ele>
        <time>2020-05-20T17:35:12Z</time>
      </trkpt>
      <trkpt lat="37.432215" lon="-3.845848">
        <ele>820.245</ele>
        <time>2020-05-20T17:35:19Z</time>
      </trkpt>
      <trkpt lat="37.432090" lon="-3.845850">
        <ele>819.266</ele>
        <time>2020-05-20T17:35:33Z</time>
      </trkpt>
      <trkpt lat="37.431932" lon="-3.845859">
        <ele>819.363</ele>
        <time>2020-05-20T17:35:51Z</time>
      </trkpt>
      <trkpt lat="37.431793" lon="-3.845885">
        <ele>819.541</ele>
        <time>2020-05-20T17:36:07Z</time>
      </trkpt>
      <trkpt lat="37.431636" lon="-3.845953">
        <ele>818.872</ele>
        <time>2020-05-20T17:36:26Z</time>
      </trkpt>
      <trkpt lat="37.431475" lon="-3.845967">
        <ele>818.051</ele>
        <time>2020-05-20T17:36:44Z</time>
      </trkpt>
      <trkpt lat="37.431348" lon="-3.846039">
        <ele>819.016</ele>
        <time>2020-05-20T17:37:00Z</time>
      </trkpt>
      <trkpt lat="37.431231" lon="-3.846110">
        <ele>819.076</ele>
        <time>2020-05-20T17:37:15Z</time>
      </trkpt>
      <trkpt lat="37.431116" lon="-3.846137">
        <ele>819.018</ele>
        <time>2020-05-20T17:37:28Z</time>
      </trkpt>
      <trkpt lat="37.430988" lon="-3.846150">
        <ele>818.098</ele>
        <time>2020-05-20T17:37:43Z</time>
      </trkpt>
      <trkpt lat="37.430879" lon="-3.846207">
        <ele>819.017</ele>
        <time>2020-05-20T17:37:56Z</time>
      </trkpt>
      <trkpt lat="37.430807" lon="-3.846277">
        <ele>819.008</ele>
        <time>2020-05-20T17:38:07Z</time>
      </trkpt>
      <trkpt lat="37.430682" lon="-3.846343">
        <ele>819.019</ele>
        <time>2020-05-20T17:38:22Z</time>
      </trkpt>
      <trkpt lat="37.430585" lon="-3.846383">
        <ele>819.060</ele>
        <time>2020-05-20T17:38:34Z</time>
      </trkpt>
      <trkpt lat="37.430533" lon="-3.846428">
        <ele>819.297</ele>
        <time>2020-05-20T17:38:41Z</time>
      </trkpt>
      <trkpt lat="37.430472" lon="-3.846463">
        <ele>819.755</ele>
        <time>2020-05-20T17:38:49Z</time>
      </trkpt>
      <trkpt lat="37.430412" lon="-3.846508">
        <ele>819.786</ele>
        <time>2020-05-20T17:38:57Z</time>
      </trkpt>
      <trkpt lat="37.430406" lon="-3.846515">
        <ele>819.845</ele>
        <time>2020-05-20T17:38:58Z</time>
      </trkpt>
      <trkpt lat="37.430283" lon="-3.846663">
        <ele>819.940</ele>
        <time>2020-05-20T17:39:17Z</time>
      </trkpt>
      <trkpt lat="37.430144" lon="-3.846791">
        <ele>819.370</ele>
        <time>2020-05-20T17:39:37Z</time>
      </trkpt>
      <trkpt lat="37.429966" lon="-3.847006">
        <ele>818.125</ele>
        <time>2020-05-20T17:40:05Z</time>
      </trkpt>
      <trkpt lat="37.429809" lon="-3.847174">
        <ele>816.326</ele>
        <time>2020-05-20T17:40:28Z</time>
      </trkpt>
      <trkpt lat="37.429761" lon="-3.847245">
        <ele>816.008</ele>
        <time>2020-05-20T17:40:37Z</time>
      </trkpt>
      <trkpt lat="37.429710" lon="-3.847281">
        <ele>816.008</ele>
        <time>2020-05-20T17:40:43Z</time>
      </trkpt>
      <trkpt lat="37.429582" lon="-3.847233">
        <ele>815.840</ele>
        <time>2020-05-20T17:40:59Z</time>
      </trkpt>
      <trkpt lat="37.429508" lon="-3.847190">
        <ele>815.051</ele>
        <time>2020-05-20T17:41:08Z</time>
      </trkpt>
      <trkpt lat="37.429418" lon="-3.847127">
        <ele>814.488</ele>
        <time>2020-05-20T17:41:20Z</time>
      </trkpt>
      <trkpt lat="37.429274" lon="-3.847138">
        <ele>814.936</ele>
        <time>2020-05-20T17:41:36Z</time>
      </trkpt>
      <trkpt lat="37.429196" lon="-3.847216">
        <ele>816.037</ele>
        <time>2020-05-20T17:41:47Z</time>
      </trkpt>
      <trkpt lat="37.429065" lon="-3.847293">
        <ele>815.256</ele>
        <time>2020-05-20T17:42:04Z</time>
      </trkpt>
      <trkpt lat="37.428956" lon="-3.847416">
        <ele>816.121</ele>
        <time>2020-05-20T17:42:21Z</time>
      </trkpt>
      <trkpt lat="37.428858" lon="-3.847565">
        <ele>816.141</ele>
        <time>2020-05-20T17:42:38Z</time>
      </trkpt>
      <trkpt lat="37.428780" lon="-3.847803">
        <ele>816.433</ele>
        <time>2020-05-20T17:43:01Z</time>
      </trkpt>
      <trkpt lat="37.428707" lon="-3.847965">
        <ele>816.023</ele>
        <time>2020-05-20T17:43:18Z</time>
      </trkpt>
      <trkpt lat="37.428707" lon="-3.847975">
        <ele>816.015</ele>
        <time>2020-05-20T17:43:19Z</time>
      </trkpt>
      <trkpt lat="37.428639" lon="-3.848214">
        <ele>815.808</ele>
        <time>2020-05-20T17:43:42Z</time>
      </trkpt>
      <trkpt lat="37.428639" lon="-3.848219">
        <ele>815.941</ele>
        <time>2020-05-20T17:43:43Z</time>
      </trkpt>
      <trkpt lat="37.428595" lon="-3.848376">
        <ele>815.892</ele>
        <time>2020-05-20T17:43:58Z</time>
      </trkpt>
      <trkpt lat="37.428537" lon="-3.848485">
        <ele>815.749</ele>
        <time>2020-05-20T17:44:10Z</time>
      </trkpt>
      <trkpt lat="37.428481" lon="-3.848638">
        <ele>815.777</ele>
        <time>2020-05-20T17:44:25Z</time>
      </trkpt>
      <trkpt lat="37.428448" lon="-3.848760">
        <ele>816.118</ele>
        <time>2020-05-20T17:44:36Z</time>
      </trkpt>
      <trkpt lat="37.428448" lon="-3.848760">
        <ele>816.197</ele>
        <time>2020-05-20T17:44:36Z</time>
      </trkpt>
      <trkpt lat="37.428283" lon="-3.849723">
        <ele>816.052</ele>
        <time>2020-05-20T17:46:06Z</time>
      </trkpt>
      <trkpt lat="37.428317" lon="-3.850981">
        <ele>814.822</ele>
        <time>2020-05-20T17:47:59Z</time>
      </trkpt>
      <trkpt lat="37.428555" lon="-3.851837">
        <ele>815.088</ele>
        <time>2020-05-20T17:49:21Z</time>
      </trkpt>
      <trkpt lat="37.428577" lon="-3.851875">
        <ele>815.024</ele>
        <time>2020-05-20T17:49:26Z</time>
      </trkpt>
      <trkpt lat="37.428634" lon="-3.852067">
        <ele>815.426</ele>
        <time>2020-05-20T17:49:44Z</time>
      </trkpt>
      <trkpt lat="37.428852" lon="-3.852751">
        <ele>816.908</ele>
        <time>2020-05-20T17:50:51Z</time>
      </trkpt>
      <trkpt lat="37.429087" lon="-3.853756">
        <ele>817.046</ele>
        <time>2020-05-20T17:52:26Z</time>
      </trkpt>
      <trkpt lat="37.429101" lon="-3.854177">
        <ele>816.987</ele>
        <time>2020-05-20T17:53:04Z</time>
      </trkpt>
      <trkpt lat="37.429041" lon="-3.854541">
        <ele>817.014</ele>
        <time>2020-05-20T17:53:37Z</time>
      </trkpt>
      <trkpt lat="37.429100" lon="-3.854902">
        <ele>817.072</ele>
        <time>2020-05-20T17:54:11Z</time>
      </trkpt>
      <trkpt lat="37.429097" lon="-3.854909">
        <ele>817.033</ele>
        <time>2020-05-20T17:54:11Z</time>
      </trkpt>
      <trkpt lat="37.429099" lon="-3.854911">
        <ele>817.042</ele>
        <time>2020-05-20T17:54:12Z</time>
      </trkpt>
      <trkpt lat="37.429107" lon="-3.854958">
        <ele>817.047</ele>
        <time>2020-05-20T17:54:16Z</time>
      </trkpt>
      <trkpt lat="37.429197" lon="-3.855694">
        <ele>819.047</ele>
        <time>2020-05-20T17:55:23Z</time>
      </trkpt>
      <trkpt lat="37.429342" lon="-3.856849">
        <ele>819.026</ele>
        <time>2020-05-20T17:57:09Z</time>
      </trkpt>
      <trkpt lat="37.429398" lon="-3.857546">
        <ele>819.447</ele>
        <time>2020-05-20T17:58:13Z</time>
      </trkpt>
      <trkpt lat="37.429469" lon="-3.858611">
        <ele>820.011</ele>
        <time>2020-05-20T17:59:49Z</time>
      </trkpt>
      <trkpt lat="37.429459" lon="-3.858610">
        <ele>820.008</ele>
        <time>2020-05-20T17:59:50Z</time>
      </trkpt>
      <trkpt lat="37.429460" lon="-3.858664">
        <ele>820.050</ele>
        <time>2020-05-20T17:59:55Z</time>
      </trkpt>
      <trkpt lat="37.429511" lon="-3.859327">
        <ele>820.021</ele>
        <time>2020-05-20T18:00:55Z</time>
      </trkpt>
      <trkpt lat="37.429524" lon="-3.859500">
        <ele>820.048</ele>
        <time>2020-05-20T18:01:11Z</time>
      </trkpt>
      <trkpt lat="37.429527" lon="-3.859508">
        <ele>820.096</ele>
        <time>2020-05-20T18:01:12Z</time>
      </trkpt>
      <trkpt lat="37.429533" lon="-3.859622">
        <ele>820.047</ele>
        <time>2020-05-20T18:01:22Z</time>
      </trkpt>
      <trkpt lat="37.429572" lon="-3.860442">
        <ele>821.496</ele>
        <time>2020-05-20T18:02:37Z</time>
      </trkpt>
      <trkpt lat="37.429517" lon="-3.861345">
        <ele>821.081</ele>
        <time>2020-05-20T18:03:59Z</time>
      </trkpt>
      <trkpt lat="37.429516" lon="-3.861356">
        <ele>821.051</ele>
        <time>2020-05-20T18:04:00Z</time>
      </trkpt>
      <trkpt lat="37.429514" lon="-3.861383">
        <ele>821.091</ele>
        <time>2020-05-20T18:04:02Z</time>
      </trkpt>
      <trkpt lat="37.429510" lon="-3.861420">
        <ele>821.081</ele>
        <time>2020-05-20T18:04:05Z</time>
      </trkpt>
      <trkpt lat="37.429506" lon="-3.861464">
        <ele>821.019</ele>
        <time>2020-05-20T18:04:09Z</time>
      </trkpt>
      <trkpt lat="37.429502" lon="-3.861510">
        <ele>821.008</ele>
        <time>2020-05-20T18:04:14Z</time>
      </trkpt>
      <trkpt lat="37.429449" lon="-3.862408">
        <ele>823.077</ele>
        <time>2020-05-20T18:05:35Z</time>
      </trkpt>
      <trkpt lat="37.429468" lon="-3.863731">
        <ele>825.058</ele>
        <time>2020-05-20T18:07:35Z</time>
      </trkpt>
      <trkpt lat="37.429447" lon="-3.864954">
        <ele>826.035</ele>
        <time>2020-05-20T18:09:25Z</time>
      </trkpt>
      <trkpt lat="37.429616" lon="-3.867084">
        <ele>828.093</ele>
        <time>2020-05-20T18:12:39Z</time>
      </trkpt>
      <trkpt lat="37.429985" lon="-3.868720">
        <ele>829.074</ele>
        <time>2020-05-20T18:15:13Z</time>
      </trkpt>
      <trkpt lat="37.430070" lon="-3.869351">
        <ele>829.053</ele>
        <time>2020-05-20T18:16:11Z</time>
      </trkpt>
      <trkpt lat="37.430074" lon="-3.869393">
        <ele>829.028</ele>
        <time>2020-05-20T18:16:14Z</time>
      </trkpt>
      <trkpt lat="37.430065" lon="-3.869365">
        <ele>829.088</ele>
        <time>2020-05-20T18:16:17Z</time>
      </trkpt>
      <trkpt lat="37.430077" lon="-3.869406">
        <ele>829.097</ele>
        <time>2020-05-20T18:16:21Z</time>
      </trkpt>
      <trkpt lat="37.430153" lon="-3.869944">
        <ele>828.923</ele>
        <time>2020-05-20T18:17:11Z</time>
      </trkpt>
      <trkpt lat="37.430178" lon="-3.870104">
        <ele>828.025</ele>
        <time>2020-05-20T18:17:25Z</time>
      </trkpt>
      <trkpt lat="37.430170" lon="-3.870120">
        <ele>828.008</ele>
        <time>2020-05-20T18:17:27Z</time>
      </trkpt>
      <trkpt lat="37.430181" lon="-3.870175">
        <ele>828.027</ele>
        <time>2020-05-20T18:17:32Z</time>
      </trkpt>
      <trkpt lat="37.430175" lon="-3.870210">
        <ele>828.038</ele>
        <time>2020-05-20T18:17:35Z</time>
      </trkpt>
      <trkpt lat="37.430171" lon="-3.870232">
        <ele>828.075</ele>
        <time>2020-05-20T18:17:37Z</time>
      </trkpt>
      <trkpt lat="37.430177" lon="-3.870323">
        <ele>828.083</ele>
        <time>2020-05-20T18:17:46Z</time>
      </trkpt>
      <trkpt lat="37.430187" lon="-3.870339">
        <ele>828.064</ele>
        <time>2020-05-20T18:17:48Z</time>
      </trkpt>
      <trkpt lat="37.430203" lon="-3.870354">
        <ele>828.033</ele>
        <time>2020-05-20T18:17:50Z</time>
      </trkpt>
      <trkpt lat="37.430223" lon="-3.870361">
        <ele>828.098</ele>
        <time>2020-05-20T18:17:52Z</time>
      </trkpt>
      <trkpt lat="37.430248" lon="-3.870366">
        <ele>828.078</ele>
        <time>2020-05-20T18:17:55Z</time>
      </trkpt>
      <trkpt lat="37.430469" lon="-3.870451">
        <ele>828.052</ele>
        <time>2020-05-20T18:18:21Z</time>
      </trkpt>
      <trkpt lat="37.430512" lon="-3.870487">
        <ele>828.053</ele>
        <time>2020-05-20T18:18:27Z</time>
      </trkpt>
      <trkpt lat="37.430554" lon="-3.870528">
        <ele>828.008</ele>
        <time>2020-05-20T18:18:33Z</time>
      </trkpt>
      <trkpt lat="37.430640" lon="-3.870642">
        <ele>828.108</ele>
        <time>2020-05-20T18:18:47Z</time>
      </trkpt>
      <trkpt lat="37.430777" lon="-3.870865">
        <ele>829.023</ele>
        <time>2020-05-20T18:19:13Z</time>
      </trkpt>
      <trkpt lat="37.430932" lon="-3.871103">
        <ele>829.294</ele>
        <time>2020-05-20T18:19:41Z</time>
      </trkpt>
      <trkpt lat="37.431395" lon="-3.871695">
        <ele>830.031</ele>
        <time>2020-05-20T18:20:56Z</time>
      </trkpt>
      <trkpt lat="37.432023" lon="-3.872209">
        <ele>830.089</ele>
        <time>2020-05-20T18:22:21Z</time>
      </trkpt>
      <trkpt lat="37.432147" lon="-3.872261">
        <ele>829.910</ele>
        <time>2020-05-20T18:22:36Z</time>
      </trkpt>
      <trkpt lat="37.432150" lon="-3.872280">
        <ele>829.939</ele>
        <time>2020-05-20T18:22:38Z</time>
      </trkpt>
      <trkpt lat="37.432164" lon="-3.872285">
        <ele>830.084</ele>
        <time>2020-05-20T18:22:40Z</time>
      </trkpt>
      <trkpt lat="37.432181" lon="-3.872289">
        <ele>830.024</ele>
        <time>2020-05-20T18:22:42Z</time>
      </trkpt>
      <trkpt lat="37.432198" lon="-3.872288">
        <ele>830.073</ele>
        <time>2020-05-20T18:22:43Z</time>
      </trkpt>
      <trkpt lat="37.432226" lon="-3.872311">
        <ele>830.085</ele>
        <time>2020-05-20T18:22:47Z</time>
      </trkpt>
      <trkpt lat="37.432245" lon="-3.872328">
        <ele>829.913</ele>
        <time>2020-05-20T18:22:50Z</time>
      </trkpt>
      <trkpt lat="37.432253" lon="-3.872365">
        <ele>829.108</ele>
        <time>2020-05-20T18:22:54Z</time>
      </trkpt>
      <trkpt lat="37.432259" lon="-3.872392">
        <ele>829.075</ele>
        <time>2020-05-20T18:22:56Z</time>
      </trkpt>
      <trkpt lat="37.432278" lon="-3.872479">
        <ele>829.066</ele>
        <time>2020-05-20T18:23:04Z</time>
      </trkpt>
      <trkpt lat="37.432278" lon="-3.872533">
        <ele>829.093</ele>
        <time>2020-05-20T18:23:09Z</time>
      </trkpt>
      <trkpt lat="37.432282" lon="-3.872590">
        <ele>829.231</ele>
        <time>2020-05-20T18:23:14Z</time>
      </trkpt>
      <trkpt lat="37.432277" lon="-3.872696">
        <ele>830.062</ele>
        <time>2020-05-20T18:23:24Z</time>
      </trkpt>
      <trkpt lat="37.432260" lon="-3.872786">
        <ele>830.061</ele>
        <time>2020-05-20T18:23:32Z</time>
      </trkpt>
      <trkpt lat="37.432216" lon="-3.872918">
        <ele>831.026</ele>
        <time>2020-05-20T18:23:45Z</time>
      </trkpt>
      <trkpt lat="37.432183" lon="-3.872972">
        <ele>830.656</ele>
        <time>2020-05-20T18:23:51Z</time>
      </trkpt>
      <trkpt lat="37.432172" lon="-3.873023">
        <ele>831.089</ele>
        <time>2020-05-20T18:23:56Z</time>
      </trkpt>
      <trkpt lat="37.432164" lon="-3.873089">
        <ele>831.106</ele>
        <time>2020-05-20T18:24:02Z</time>
      </trkpt>
      <trkpt lat="37.432164" lon="-3.873135">
        <ele>832.026</ele>
        <time>2020-05-20T18:24:07Z</time>
      </trkpt>
      <trkpt lat="37.432158" lon="-3.873193">
        <ele>832.008</ele>
        <time>2020-05-20T18:24:12Z</time>
      </trkpt>
      <trkpt lat="37.432155" lon="-3.873241">
        <ele>832.086</ele>
        <time>2020-05-20T18:24:16Z</time>
      </trkpt>
      <trkpt lat="37.432159" lon="-3.873304">
        <ele>832.047</ele>
        <time>2020-05-20T18:24:22Z</time>
      </trkpt>
      <trkpt lat="37.432163" lon="-3.873356">
        <ele>832.114</ele>
        <time>2020-05-20T18:24:27Z</time>
      </trkpt>
      <trkpt lat="37.432165" lon="-3.873399">
        <ele>832.112</ele>
        <time>2020-05-20T18:24:30Z</time>
      </trkpt>
      <trkpt lat="37.432184" lon="-3.873513">
        <ele>833.053</ele>
        <time>2020-05-20T18:24:41Z</time>
      </trkpt>
      <trkpt lat="37.432196" lon="-3.873594">
        <ele>832.792</ele>
        <time>2020-05-20T18:24:49Z</time>
      </trkpt>
      <trkpt lat="37.432203" lon="-3.873651">
        <ele>832.857</ele>
        <time>2020-05-20T18:24:54Z</time>
      </trkpt>
      <trkpt lat="37.432210" lon="-3.873701">
        <ele>832.477</ele>
        <time>2020-05-20T18:24:58Z</time>
      </trkpt>
      <trkpt lat="37.432220" lon="-3.873766">
        <ele>833.116</ele>
        <time>2020-05-20T18:25:04Z</time>
      </trkpt>
      <trkpt lat="37.432226" lon="-3.873808">
        <ele>833.276</ele>
        <time>2020-05-20T18:25:08Z</time>
      </trkpt>
      <trkpt lat="37.432232" lon="-3.873862">
        <ele>834.413</ele>
        <time>2020-05-20T18:25:13Z</time>
      </trkpt>
      <trkpt lat="37.432264" lon="-3.873989">
        <ele>835.008</ele>
        <time>2020-05-20T18:25:25Z</time>
      </trkpt>
      <trkpt lat="37.432291" lon="-3.874136">
        <ele>833.229</ele>
        <time>2020-05-20T18:25:39Z</time>
      </trkpt>
      <trkpt lat="37.432306" lon="-3.874228">
        <ele>832.620</ele>
        <time>2020-05-20T18:25:48Z</time>
      </trkpt>
      <trkpt lat="37.432332" lon="-3.874311">
        <ele>833.127</ele>
        <time>2020-05-20T18:25:56Z</time>
      </trkpt>
      <trkpt lat="37.432377" lon="-3.874416">
        <ele>832.995</ele>
        <time>2020-05-20T18:26:07Z</time>
      </trkpt>
      <trkpt lat="37.432418" lon="-3.874500">
        <ele>832.996</ele>
        <time>2020-05-20T18:26:15Z</time>
      </trkpt>
      <trkpt lat="37.432450" lon="-3.874564">
        <ele>832.555</ele>
        <time>2020-05-20T18:26:22Z</time>
      </trkpt>
      <trkpt lat="37.432478" lon="-3.874638">
        <ele>832.010</ele>
        <time>2020-05-20T18:26:30Z</time>
      </trkpt>
      <trkpt lat="37.432518" lon="-3.874722">
        <ele>832.470</ele>
        <time>2020-05-20T18:26:39Z</time>
      </trkpt>
      <trkpt lat="37.432599" lon="-3.874884">
        <ele>832.018</ele>
        <time>2020-05-20T18:26:56Z</time>
      </trkpt>
      <trkpt lat="37.432704" lon="-3.875127">
        <ele>832.098</ele>
        <time>2020-05-20T18:27:21Z</time>
      </trkpt>
      <trkpt lat="37.432819" lon="-3.875386">
        <ele>831.817</ele>
        <time>2020-05-20T18:27:48Z</time>
      </trkpt>
      <trkpt lat="37.432880" lon="-3.875567">
        <ele>832.008</ele>
        <time>2020-05-20T18:28:06Z</time>
      </trkpt>
      <trkpt lat="37.432946" lon="-3.875730">
        <ele>832.039</ele>
        <time>2020-05-20T18:28:22Z</time>
      </trkpt>
      <trkpt lat="37.433065" lon="-3.876034">
        <ele>832.060</ele>
        <time>2020-05-20T18:28:53Z</time>
      </trkpt>
      <trkpt lat="37.433140" lon="-3.876227">
        <ele>832.547</ele>
        <time>2020-05-20T18:29:12Z</time>
      </trkpt>
      <trkpt lat="37.433242" lon="-3.876507">
        <ele>833.375</ele>
        <time>2020-05-20T18:29:40Z</time>
      </trkpt>
      <trkpt lat="37.433343" lon="-3.876740">
        <ele>834.216</ele>
        <time>2020-05-20T18:30:04Z</time>
      </trkpt>
      <trkpt lat="37.433457" lon="-3.877055">
        <ele>834.295</ele>
        <time>2020-05-20T18:30:35Z</time>
      </trkpt>
      <trkpt lat="37.433571" lon="-3.877358">
        <ele>835.160</ele>
        <time>2020-05-20T18:31:06Z</time>
      </trkpt>
      <trkpt lat="37.433694" lon="-3.877662">
        <ele>835.040</ele>
        <time>2020-05-20T18:31:37Z</time>
      </trkpt>
      <trkpt lat="37.433864" lon="-3.877921">
        <ele>834.064</ele>
        <time>2020-05-20T18:32:07Z</time>
      </trkpt>
      <trkpt lat="37.434118" lon="-3.878082">
        <ele>835.406</ele>
        <time>2020-05-20T18:32:39Z</time>
      </trkpt>
      <trkpt lat="37.434439" lon="-3.878275">
        <ele>836.616</ele>
        <time>2020-05-20T18:33:20Z</time>
      </trkpt>
      <trkpt lat="37.434951" lon="-3.878688">
        <ele>837.608</ele>
        <time>2020-05-20T18:34:29Z</time>
      </trkpt>
      <trkpt lat="37.435102" lon="-3.878880">
        <ele>837.814</ele>
        <time>2020-05-20T18:34:54Z</time>
      </trkpt>
      <trkpt lat="37.435284" lon="-3.879089">
        <ele>838.015</ele>
        <time>2020-05-20T18:35:22Z</time>
      </trkpt>
      <trkpt lat="37.435433" lon="-3.879356">
        <ele>837.222</ele>
        <time>2020-05-20T18:35:51Z</time>
      </trkpt>
      <trkpt lat="37.435581" lon="-3.879477">
        <ele>838.820</ele>
        <time>2020-05-20T18:36:11Z</time>
      </trkpt>
      <trkpt lat="37.435623" lon="-3.879554">
        <ele>838.521</ele>
        <time>2020-05-20T18:36:20Z</time>
      </trkpt>
      <trkpt lat="37.435624" lon="-3.879560">
        <ele>838.640</ele>
        <time>2020-05-20T18:36:20Z</time>
      </trkpt>
      <trkpt lat="37.435326" lon="-3.879685">
        <ele>836.075</ele>
        <time>2020-05-20T18:36:56Z</time>
      </trkpt>
      <trkpt lat="37.435034" lon="-3.879857">
        <ele>835.065</ele>
        <time>2020-05-20T18:37:33Z</time>
      </trkpt>
      <trkpt lat="37.434752" lon="-3.879876">
        <ele>836.425</ele>
        <time>2020-05-20T18:38:05Z</time>
      </trkpt>
      <trkpt lat="37.434306" lon="-3.879905">
        <ele>838.026</ele>
        <time>2020-05-20T18:38:56Z</time>
      </trkpt>
      <trkpt lat="37.434273" lon="-3.879905">
        <ele>838.008</ele>
        <time>2020-05-20T18:39:00Z</time>
      </trkpt>
      <trkpt lat="37.434209" lon="-3.879907">
        <ele>838.008</ele>
        <time>2020-05-20T18:39:07Z</time>
      </trkpt>
      <trkpt lat="37.434152" lon="-3.879878">
        <ele>837.890</ele>
        <time>2020-05-20T18:39:14Z</time>
      </trkpt>
      <trkpt lat="37.434118" lon="-3.879853">
        <ele>837.921</ele>
        <time>2020-05-20T18:39:19Z</time>
      </trkpt>
      <trkpt lat="37.434107" lon="-3.879842">
        <ele>837.638</ele>
        <time>2020-05-20T18:39:20Z</time>
      </trkpt>
      <trkpt lat="37.434110" lon="-3.879859">
        <ele>838.016</ele>
        <time>2020-05-20T18:39:22Z</time>
      </trkpt>
      <trkpt lat="37.434106" lon="-3.879854">
        <ele>837.977</ele>
        <time>2020-05-20T18:39:22Z</time>
      </trkpt>
      <trkpt lat="37.434119" lon="-3.879837">
        <ele>837.556</ele>
        <time>2020-05-20T18:39:25Z</time>
      </trkpt>
      <trkpt lat="37.433600" lon="-3.879341">
        <ele>835.711</ele>
        <time>2020-05-20T18:40:39Z</time>
      </trkpt>
      <trkpt lat="37.433286" lon="-3.879038">
        <ele>836.011</ele>
        <time>2020-05-20T18:41:24Z</time>
      </trkpt>
      <trkpt lat="37.432972" lon="-3.878887">
        <ele>836.547</ele>
        <time>2020-05-20T18:42:02Z</time>
      </trkpt>
      <trkpt lat="37.432599" lon="-3.878715">
        <ele>836.729</ele>
        <time>2020-05-20T18:42:47Z</time>
      </trkpt>
      <trkpt lat="37.432194" lon="-3.878431">
        <ele>838.121</ele>
        <time>2020-05-20T18:43:40Z</time>
      </trkpt>
      <trkpt lat="37.431567" lon="-3.878000">
        <ele>840.008</ele>
        <time>2020-05-20T18:45:02Z</time>
      </trkpt>
      <trkpt lat="37.430867" lon="-3.877765">
        <ele>840.462</ele>
        <time>2020-05-20T18:46:24Z</time>
      </trkpt>
      <trkpt lat="37.430449" lon="-3.877784">
        <ele>842.063</ele>
        <time>2020-05-20T18:47:12Z</time>
      </trkpt>
      <trkpt lat="37.430213" lon="-3.878170">
        <ele>840.530</ele>
        <time>2020-05-20T18:47:56Z</time>
      </trkpt>
      <trkpt lat="37.430139" lon="-3.878284">
        <ele>839.968</ele>
        <time>2020-05-20T18:48:09Z</time>
      </trkpt>
      <trkpt lat="37.430109" lon="-3.878318">
        <ele>839.589</ele>
        <time>2020-05-20T18:48:14Z</time>
      </trkpt>
      <trkpt lat="37.430107" lon="-3.878318">
        <ele>839.548</ele>
        <time>2020-05-20T18:48:14Z</time>
      </trkpt>
      <trkpt lat="37.430123" lon="-3.878304">
        <ele>839.543</ele>
        <time>2020-05-20T18:48:16Z</time>
      </trkpt>
      <trkpt lat="37.430125" lon="-3.878311">
        <ele>839.463</ele>
        <time>2020-05-20T18:48:17Z</time>
      </trkpt>
      <trkpt lat="37.430130" lon="-3.878288">
        <ele>839.855</ele>
        <time>2020-05-20T18:48:19Z</time>
      </trkpt>
      <trkpt lat="37.429781" lon="-3.878575">
        <ele>837.807</ele>
        <time>2020-05-20T18:49:07Z</time>
      </trkpt>
      <trkpt lat="37.429271" lon="-3.878724">
        <ele>834.817</ele>
        <time>2020-05-20T18:50:06Z</time>
      </trkpt>
      <trkpt lat="37.428777" lon="-3.878824">
        <ele>832.008</ele>
        <time>2020-05-20T18:51:03Z</time>
      </trkpt>
      <trkpt lat="37.428182" lon="-3.878932">
        <ele>829.253</ele>
        <time>2020-05-20T18:52:12Z</time>
      </trkpt>
      <trkpt lat="37.427611" lon="-3.879066">
        <ele>825.654</ele>
        <time>2020-05-20T18:53:18Z</time>
      </trkpt>
      <trkpt lat="37.427109" lon="-3.879327">
        <ele>823.471</ele>
        <time>2020-05-20T18:54:20Z</time>
      </trkpt>
      <trkpt lat="37.426918" lon="-3.879684">
        <ele>823.039</ele>
        <time>2020-05-20T18:54:59Z</time>
      </trkpt>
      <trkpt lat="37.426863" lon="-3.879780">
        <ele>822.060</ele>
        <time>2020-05-20T18:55:10Z</time>
      </trkpt>
      <trkpt lat="37.426800" lon="-3.879903">
        <ele>821.949</ele>
        <time>2020-05-20T18:55:23Z</time>
      </trkpt>
      <trkpt lat="37.426759" lon="-3.879971">
        <ele>821.674</ele>
        <time>2020-05-20T18:55:31Z</time>
      </trkpt>
      <trkpt lat="37.426708" lon="-3.880069">
        <ele>821.224</ele>
        <time>2020-05-20T18:55:41Z</time>
      </trkpt>
      <trkpt lat="37.426690" lon="-3.880127">
        <ele>821.034</ele>
        <time>2020-05-20T18:55:47Z</time>
      </trkpt>
      <trkpt lat="37.426657" lon="-3.880150">
        <ele>821.055</ele>
        <time>2020-05-20T18:55:51Z</time>
      </trkpt>
      <trkpt lat="37.426639" lon="-3.880166">
        <ele>821.010</ele>
        <time>2020-05-20T18:55:54Z</time>
      </trkpt>
      <trkpt lat="37.426603" lon="-3.880201">
        <ele>822.208</ele>
        <time>2020-05-20T18:55:59Z</time>
      </trkpt>
      <trkpt lat="37.426563" lon="-3.880217">
        <ele>823.341</ele>
        <time>2020-05-20T18:56:04Z</time>
      </trkpt>
      <trkpt lat="37.426531" lon="-3.880229">
        <ele>823.952</ele>
        <time>2020-05-20T18:56:08Z</time>
      </trkpt>
      <trkpt lat="37.426492" lon="-3.880234">
        <ele>824.099</ele>
        <time>2020-05-20T18:56:12Z</time>
      </trkpt>
      <trkpt lat="37.426457" lon="-3.880219">
        <ele>824.047</ele>
        <time>2020-05-20T18:56:17Z</time>
      </trkpt>
      <trkpt lat="37.426411" lon="-3.880208">
        <ele>824.048</ele>
        <time>2020-05-20T18:56:22Z</time>
      </trkpt>
      <trkpt lat="37.426368" lon="-3.880191">
        <ele>824.097</ele>
        <time>2020-05-20T18:56:27Z</time>
      </trkpt>
      <trkpt lat="37.426317" lon="-3.880164">
        <ele>824.032</ele>
        <time>2020-05-20T18:56:33Z</time>
      </trkpt>
      <trkpt lat="37.426315" lon="-3.880158">
        <ele>824.092</ele>
        <time>2020-05-20T18:56:34Z</time>
      </trkpt>
      <trkpt lat="37.425749" lon="-3.879408">
        <ele>823.075</ele>
        <time>2020-05-20T18:58:07Z</time>
      </trkpt>
      <trkpt lat="37.425661" lon="-3.879299">
        <ele>822.728</ele>
        <time>2020-05-20T18:58:22Z</time>
      </trkpt>
      <trkpt lat="37.425595" lon="-3.879234">
        <ele>822.020</ele>
        <time>2020-05-20T18:58:31Z</time>
      </trkpt>
      <trkpt lat="37.425584" lon="-3.879231">
        <ele>822.008</ele>
        <time>2020-05-20T18:58:32Z</time>
      </trkpt>
      <trkpt lat="37.425546" lon="-3.879192">
        <ele>822.075</ele>
        <time>2020-05-20T18:58:38Z</time>
      </trkpt>
      <trkpt lat="37.425101" lon="-3.878853">
        <ele>822.096</ele>
        <time>2020-05-20T18:59:37Z</time>
      </trkpt>
      <trkpt lat="37.424358" lon="-3.878396">
        <ele>822.053</ele>
        <time>2020-05-20T19:01:11Z</time>
      </trkpt>
      <trkpt lat="37.423373" lon="-3.877701">
        <ele>821.091</ele>
        <time>2020-05-20T19:03:20Z</time>
      </trkpt>
      <trkpt lat="37.422128" lon="-3.876806">
        <ele>819.052</ele>
        <time>2020-05-20T19:06:03Z</time>
      </trkpt>
      <trkpt lat="37.421385" lon="-3.876205">
        <ele>820.041</ele>
        <time>2020-05-20T19:07:44Z</time>
      </trkpt>
      <trkpt lat="37.420352" lon="-3.875373">
        <ele>820.016</ele>
        <time>2020-05-20T19:10:03Z</time>
      </trkpt>
      <trkpt lat="37.419860" lon="-3.874994">
        <ele>818.046</ele>
        <time>2020-05-20T19:11:09Z</time>
      </trkpt>
      <trkpt lat="37.419831" lon="-3.874954">
        <ele>817.461</ele>
        <time>2020-05-20T19:11:14Z</time>
      </trkpt>
      <trkpt lat="37.419811" lon="-3.874911">
        <ele>817.021</ele>
        <time>2020-05-20T19:11:19Z</time>
      </trkpt>
      <trkpt lat="37.419803" lon="-3.874861">
        <ele>817.013</ele>
        <time>2020-05-20T19:11:23Z</time>
      </trkpt>
      <trkpt lat="37.419810" lon="-3.874803">
        <ele>817.008</ele>
        <time>2020-05-20T19:11:29Z</time>
      </trkpt>
      <trkpt lat="37.419822" lon="-3.874743">
        <ele>816.694</ele>
        <time>2020-05-20T19:11:34Z</time>
      </trkpt>
      <trkpt lat="37.419832" lon="-3.874690">
        <ele>816.245</ele>
        <time>2020-05-20T19:11:39Z</time>
      </trkpt>
      <trkpt lat="37.419844" lon="-3.874640">
        <ele>816.182</ele>
        <time>2020-05-20T19:11:44Z</time>
      </trkpt>
      <trkpt lat="37.419858" lon="-3.874596">
        <ele>816.030</ele>
        <time>2020-05-20T19:11:48Z</time>
      </trkpt>
      <trkpt lat="37.419873" lon="-3.874558">
        <ele>815.591</ele>
        <time>2020-05-20T19:11:52Z</time>
      </trkpt>
      <trkpt lat="37.419924" lon="-3.874405">
        <ele>815.140</ele>
        <time>2020-05-20T19:12:07Z</time>
      </trkpt>
      <trkpt lat="37.419946" lon="-3.874342">
        <ele>815.855</ele>
        <time>2020-05-20T19:12:13Z</time>
      </trkpt>
      <trkpt lat="37.419963" lon="-3.874242">
        <ele>816.055</ele>
        <time>2020-05-20T19:12:23Z</time>
      </trkpt>
      <trkpt lat="37.419964" lon="-3.874160">
        <ele>816.567</ele>
        <time>2020-05-20T19:12:30Z</time>
      </trkpt>
      <trkpt lat="37.419969" lon="-3.874159">
        <ele>816.481</ele>
        <time>2020-05-20T19:12:31Z</time>
      </trkpt>
      <trkpt lat="37.419955" lon="-3.874129">
        <ele>816.719</ele>
        <time>2020-05-20T19:12:34Z</time>
      </trkpt>
      <trkpt lat="37.419952" lon="-3.874116">
        <ele>816.708</ele>
        <time>2020-05-20T19:12:35Z</time>
      </trkpt>
      <trkpt lat="37.419941" lon="-3.874066">
        <ele>816.934</ele>
        <time>2020-05-20T19:12:40Z</time>
      </trkpt>
      <trkpt lat="37.419925" lon="-3.873993">
        <ele>817.055</ele>
        <time>2020-05-20T19:12:46Z</time>
      </trkpt>
      <trkpt lat="37.419913" lon="-3.873935">
        <ele>817.012</ele>
        <time>2020-05-20T19:12:52Z</time>
      </trkpt>
      <trkpt lat="37.419831" lon="-3.873736">
        <ele>817.730</ele>
        <time>2020-05-20T19:13:12Z</time>
      </trkpt>
      <trkpt lat="37.419328" lon="-3.872636">
        <ele>820.071</ele>
        <time>2020-05-20T19:15:07Z</time>
      </trkpt>
      <trkpt lat="37.418787" lon="-3.871812">
        <ele>820.050</ele>
        <time>2020-05-20T19:16:44Z</time>
      </trkpt>
      <trkpt lat="37.418531" lon="-3.871476">
        <ele>820.035</ele>
        <time>2020-05-20T19:17:26Z</time>
      </trkpt>
      <trkpt lat="37.418516" lon="-3.871462">
        <ele>820.065</ele>
        <time>2020-05-20T19:17:28Z</time>
      </trkpt>
      <trkpt lat="37.418222" lon="-3.871047">
        <ele>819.013</ele>
        <time>2020-05-20T19:18:18Z</time>
      </trkpt>
      <trkpt lat="37.417647" lon="-3.870307">
        <ele>820.643</ele>
        <time>2020-05-20T19:19:52Z</time>
      </trkpt>
      <trkpt lat="37.417325" lon="-3.869947">
        <ele>822.407</ele>
        <time>2020-05-20T19:20:41Z</time>
      </trkpt>
      <trkpt lat="37.417331" lon="-3.869956">
        <ele>822.308</ele>
        <time>2020-05-20T19:20:42Z</time>
      </trkpt>
      <trkpt lat="37.417322" lon="-3.869946">
        <ele>822.459</ele>
        <time>2020-05-20T19:20:43Z</time>
      </trkpt>
      <trkpt lat="37.417307" lon="-3.869923">
        <ele>822.730</ele>
        <time>2020-05-20T19:20:46Z</time>
      </trkpt>
      <trkpt lat="37.417259" lon="-3.869849">
        <ele>823.087</ele>
        <time>2020-05-20T19:20:55Z</time>
      </trkpt>
      <trkpt lat="37.417083" lon="-3.869640">
        <ele>823.735</ele>
        <time>2020-05-20T19:21:22Z</time>
      </trkpt>
      <trkpt lat="37.417037" lon="-3.869607">
        <ele>824.376</ele>
        <time>2020-05-20T19:21:28Z</time>
      </trkpt>
      <trkpt lat="37.416986" lon="-3.869585">
        <ele>825.185</ele>
        <time>2020-05-20T19:21:35Z</time>
      </trkpt>
      <trkpt lat="37.416930" lon="-3.869573">
        <ele>825.430</ele>
        <time>2020-05-20T19:21:41Z</time>
      </trkpt>
      <trkpt lat="37.416873" lon="-3.869572">
        <ele>826.040</ele>
        <time>2020-05-20T19:21:48Z</time>
      </trkpt>
      <trkpt lat="37.416812" lon="-3.869574">
        <ele>826.977</ele>
        <time>2020-05-20T19:21:55Z</time>
      </trkpt>
      <trkpt lat="37.416577" lon="-3.869557">
        <ele>829.661</ele>
        <time>2020-05-20T19:22:22Z</time>
      </trkpt>
      <trkpt lat="37.416420" lon="-3.869519">
        <ele>830.027</ele>
        <time>2020-05-20T19:22:40Z</time>
      </trkpt>
      <trkpt lat="37.416420" lon="-3.869519">
        <ele>830.008</ele>
        <time>2020-05-20T19:22:40Z</time>
      </trkpt>
      <trkpt lat="37.416364" lon="-3.869511">
        <ele>830.055</ele>
        <time>2020-05-20T19:22:46Z</time>
      </trkpt>
      <trkpt lat="37.416076" lon="-3.869381">
        <ele>827.596</ele>
        <time>2020-05-20T19:23:21Z</time>
      </trkpt>
      <trkpt lat="37.415942" lon="-3.869333">
        <ele>826.123</ele>
        <time>2020-05-20T19:23:37Z</time>
      </trkpt>
      <trkpt lat="37.415764" lon="-3.869222">
        <ele>824.051</ele>
        <time>2020-05-20T19:24:00Z</time>
      </trkpt>
      <trkpt lat="37.415575" lon="-3.869067">
        <ele>825.082</ele>
        <time>2020-05-20T19:24:26Z</time>
      </trkpt>
      <trkpt lat="37.415229" lon="-3.868825">
        <ele>826.081</ele>
        <time>2020-05-20T19:25:11Z</time>
      </trkpt>
      <trkpt lat="37.414774" lon="-3.868529">
        <ele>828.676</ele>
        <time>2020-05-20T19:26:09Z</time>
      </trkpt>
      <trkpt lat="37.414559" lon="-3.868333">
        <ele>830.586</ele>
        <time>2020-05-20T19:26:39Z</time>
      </trkpt>
      <trkpt lat="37.414545" lon="-3.868322">
        <ele>830.748</ele>
        <time>2020-05-20T19:26:41Z</time>
      </trkpt>
      <trkpt lat="37.414356" lon="-3.868157">
        <ele>831.261</ele>
        <time>2020-05-20T19:27:07Z</time>
      </trkpt>
      <trkpt lat="37.414086" lon="-3.867994">
        <ele>834.917</ele>
        <time>2020-05-20T19:27:42Z</time>
      </trkpt>
      <trkpt lat="37.413853" lon="-3.867885">
        <ele>836.008</ele>
        <time>2020-05-20T19:28:10Z</time>
      </trkpt>
      <trkpt lat="37.413603" lon="-3.867764">
        <ele>838.022</ele>
        <time>2020-05-20T19:28:41Z</time>
      </trkpt>
      <trkpt lat="37.413418" lon="-3.867643">
        <ele>839.083</ele>
        <time>2020-05-20T19:29:04Z</time>
      </trkpt>
      <trkpt lat="37.413200" lon="-3.867525">
        <ele>840.240</ele>
        <time>2020-05-20T19:29:31Z</time>
      </trkpt>
      <trkpt lat="37.412893" lon="-3.867419">
        <ele>842.188</ele>
        <time>2020-05-20T19:30:08Z</time>
      </trkpt>
      <trkpt lat="37.412416" lon="-3.867267">
        <ele>845.529</ele>
        <time>2020-05-20T19:31:04Z</time>
      </trkpt>
      <trkpt lat="37.412085" lon="-3.867115">
        <ele>847.078</ele>
        <time>2020-05-20T19:31:44Z</time>
      </trkpt>
      <trkpt lat="37.411774" lon="-3.867008">
        <ele>849.013</ele>
        <time>2020-05-20T19:32:21Z</time>
      </trkpt>
      <trkpt lat="37.411513" lon="-3.866903">
        <ele>850.033</ele>
        <time>2020-05-20T19:32:52Z</time>
      </trkpt>
      <trkpt lat="37.411331" lon="-3.866854">
        <ele>851.078</ele>
        <time>2020-05-20T19:33:13Z</time>
      </trkpt>
      <trkpt lat="37.411188" lon="-3.866815">
        <ele>852.333</ele>
        <time>2020-05-20T19:33:30Z</time>
      </trkpt>
      <trkpt lat="37.411050" lon="-3.866783">
        <ele>853.026</ele>
        <time>2020-05-20T19:33:46Z</time>
      </trkpt>
      <trkpt lat="37.410883" lon="-3.866787">
        <ele>854.008</ele>
        <time>2020-05-20T19:34:05Z</time>
      </trkpt>
      <trkpt lat="37.410775" lon="-3.866795">
        <ele>854.335</ele>
        <time>2020-05-20T19:34:17Z</time>
      </trkpt>
      <trkpt lat="37.410620" lon="-3.866812">
        <ele>854.846</ele>
        <time>2020-05-20T19:34:35Z</time>
      </trkpt>
      <trkpt lat="37.410399" lon="-3.866804">
        <ele>855.763</ele>
        <time>2020-05-20T19:35:00Z</time>
      </trkpt>
      <trkpt lat="37.410237" lon="-3.866825">
        <ele>857.091</ele>
        <time>2020-05-20T19:35:19Z</time>
      </trkpt>
      <trkpt lat="37.409971" lon="-3.866937">
        <ele>859.992</ele>
        <time>2020-05-20T19:35:51Z</time>
      </trkpt>
      <trkpt lat="37.409775" lon="-3.866989">
        <ele>860.761</ele>
        <time>2020-05-20T19:36:14Z</time>
      </trkpt>
      <trkpt lat="37.409600" lon="-3.867079">
        <ele>862.096</ele>
        <time>2020-05-20T19:36:35Z</time>
      </trkpt>
      <trkpt lat="37.409487" lon="-3.867139">
        <ele>863.086</ele>
        <time>2020-05-20T19:36:49Z</time>
      </trkpt>
      <trkpt lat="37.409372" lon="-3.867190">
        <ele>864.679</ele>
        <time>2020-05-20T19:37:03Z</time>
      </trkpt>
      <trkpt lat="37.409301" lon="-3.867229">
        <ele>865.005</ele>
        <time>2020-05-20T19:37:12Z</time>
      </trkpt>
      <trkpt lat="37.409147" lon="-3.867354">
        <ele>866.625</ele>
        <time>2020-05-20T19:37:33Z</time>
      </trkpt>
      <trkpt lat="37.409048" lon="-3.867437">
        <ele>867.008</ele>
        <time>2020-05-20T19:37:47Z</time>
      </trkpt>
      <trkpt lat="37.408947" lon="-3.867518">
        <ele>868.155</ele>
        <time>2020-05-20T19:38:00Z</time>
      </trkpt>
      <trkpt lat="37.408782" lon="-3.867658">
        <ele>870.056</ele>
        <time>2020-05-20T19:38:23Z</time>
      </trkpt>
      <trkpt lat="37.408596" lon="-3.867757">
        <ele>871.023</ele>
        <time>2020-05-20T19:38:46Z</time>
      </trkpt>
      <trkpt lat="37.408469" lon="-3.867815">
        <ele>872.611</ele>
        <time>2020-05-20T19:39:02Z</time>
      </trkpt>
      <trkpt lat="37.408331" lon="-3.867893">
        <ele>873.072</ele>
        <time>2020-05-20T19:39:19Z</time>
      </trkpt>
      <trkpt lat="37.408220" lon="-3.867921">
        <ele>874.031</ele>
        <time>2020-05-20T19:39:32Z</time>
      </trkpt>
      <trkpt lat="37.408093" lon="-3.867960">
        <ele>875.036</ele>
        <time>2020-05-20T19:39:47Z</time>
      </trkpt>
      <trkpt lat="37.407960" lon="-3.867964">
        <ele>876.476</ele>
        <time>2020-05-20T19:40:02Z</time>
      </trkpt>
      <trkpt lat="37.407836" lon="-3.867973">
        <ele>877.097</ele>
        <time>2020-05-20T19:40:16Z</time>
      </trkpt>
      <trkpt lat="37.407744" lon="-3.867996">
        <ele>877.523</ele>
        <time>2020-05-20T19:40:27Z</time>
      </trkpt>
      <trkpt lat="37.407639" lon="-3.868023">
        <ele>878.825</ele>
        <time>2020-05-20T19:40:39Z</time>
      </trkpt>
      <trkpt lat="37.407521" lon="-3.868102">
        <ele>880.408</ele>
        <time>2020-05-20T19:40:54Z</time>
      </trkpt>
      <trkpt lat="37.407295" lon="-3.868210">
        <ele>882.587</ele>
        <time>2020-05-20T19:41:22Z</time>
      </trkpt>
      <trkpt lat="37.407124" lon="-3.868302">
        <ele>884.988</ele>
        <time>2020-05-20T19:41:43Z</time>
      </trkpt>
      <trkpt lat="37.406953" lon="-3.868402">
        <ele>886.565</ele>
        <time>2020-05-20T19:42:05Z</time>
      </trkpt>
      <trkpt lat="37.406820" lon="-3.868492">
        <ele>888.913</ele>
        <time>2020-05-20T19:42:22Z</time>
      </trkpt>
      <trkpt lat="37.406805" lon="-3.868599">
        <ele>889.514</ele>
        <time>2020-05-20T19:42:32Z</time>
      </trkpt>
      <trkpt lat="37.406886" lon="-3.868689">
        <ele>890.423</ele>
        <time>2020-05-20T19:42:44Z</time>
      </trkpt>
      <trkpt lat="37.406954" lon="-3.868752">
        <ele>891.338</ele>
        <time>2020-05-20T19:42:54Z</time>
      </trkpt>
      <trkpt lat="37.406954" lon="-3.868752">
        <ele>891.334</ele>
        <time>2020-05-20T19:42:54Z</time>
      </trkpt>
      <trkpt lat="37.406965" lon="-3.868852">
        <ele>892.355</ele>
        <time>2020-05-20T19:43:03Z</time>
      </trkpt>
      <trkpt lat="37.406971" lon="-3.868988">
        <ele>895.010</ele>
        <time>2020-05-20T19:43:16Z</time>
      </trkpt>
      <trkpt lat="37.406994" lon="-3.869132">
        <ele>896.208</ele>
        <time>2020-05-20T19:43:29Z</time>
      </trkpt>
      <trkpt lat="37.407046" lon="-3.869200">
        <ele>896.611</ele>
        <time>2020-05-20T19:43:38Z</time>
      </trkpt>
      <trkpt lat="37.406965" lon="-3.869283">
        <ele>897.682</ele>
        <time>2020-05-20T19:43:50Z</time>
      </trkpt>
      <trkpt lat="37.406911" lon="-3.869380">
        <ele>898.849</ele>
        <time>2020-05-20T19:44:00Z</time>
      </trkpt>
      <trkpt lat="37.406837" lon="-3.869557">
        <ele>900.017</ele>
        <time>2020-05-20T19:44:18Z</time>
      </trkpt>
      <trkpt lat="37.406809" lon="-3.869617">
        <ele>901.058</ele>
        <time>2020-05-20T19:44:25Z</time>
      </trkpt>
      <trkpt lat="37.407047" lon="-3.869829">
        <ele>897.930</ele>
        <time>2020-05-20T19:44:58Z</time>
      </trkpt>
      <trkpt lat="37.407131" lon="-3.869877">
        <ele>896.412</ele>
        <time>2020-05-20T19:45:09Z</time>
      </trkpt>
      <trkpt lat="37.407187" lon="-3.870023">
        <ele>893.816</ele>
        <time>2020-05-20T19:45:24Z</time>
      </trkpt>
      <trkpt lat="37.407245" lon="-3.870224">
        <ele>892.119</ele>
        <time>2020-05-20T19:45:43Z</time>
      </trkpt>
      <trkpt lat="37.407252" lon="-3.870247">
        <ele>892.409</ele>
        <time>2020-05-20T19:45:45Z</time>
      </trkpt>
      <trkpt lat="37.407405" lon="-3.870659">
        <ele>891.619</ele>
        <time>2020-05-20T19:46:27Z</time>
      </trkpt>
      <trkpt lat="37.407431" lon="-3.870731">
        <ele>892.708</ele>
        <time>2020-05-20T19:46:34Z</time>
      </trkpt>
      <trkpt lat="37.407493" lon="-3.870885">
        <ele>892.069</ele>
        <time>2020-05-20T19:46:49Z</time>
      </trkpt>
      <trkpt lat="37.407544" lon="-3.871039">
        <ele>892.530</ele>
        <time>2020-05-20T19:47:05Z</time>
      </trkpt>
      <trkpt lat="37.407628" lon="-3.871258">
        <ele>892.537</ele>
        <time>2020-05-20T19:47:27Z</time>
      </trkpt>
      <trkpt lat="37.407710" lon="-3.871597">
        <ele>892.965</ele>
        <time>2020-05-20T19:47:59Z</time>
      </trkpt>
      <trkpt lat="37.407746" lon="-3.871811">
        <ele>892.966</ele>
        <time>2020-05-20T19:48:18Z</time>
      </trkpt>
      <trkpt lat="37.407791" lon="-3.872007">
        <ele>893.018</ele>
        <time>2020-05-20T19:48:37Z</time>
      </trkpt>
      <trkpt lat="37.407859" lon="-3.872184">
        <ele>892.960</ele>
        <time>2020-05-20T19:48:55Z</time>
      </trkpt>
      <trkpt lat="37.407897" lon="-3.872410">
        <ele>893.044</ele>
        <time>2020-05-20T19:49:16Z</time>
      </trkpt>
      <trkpt lat="37.407941" lon="-3.872639">
        <ele>893.018</ele>
        <time>2020-05-20T19:49:37Z</time>
      </trkpt>
      <trkpt lat="37.407960" lon="-3.872848">
        <ele>893.398</ele>
        <time>2020-05-20T19:49:56Z</time>
      </trkpt>
      <trkpt lat="37.407975" lon="-3.872939">
        <ele>893.417</ele>
        <time>2020-05-20T19:50:04Z</time>
      </trkpt>
      <trkpt lat="37.407993" lon="-3.873108">
        <ele>893.108</ele>
        <time>2020-05-20T19:50:20Z</time>
      </trkpt>
      <trkpt lat="37.408018" lon="-3.873360">
        <ele>893.079</ele>
        <time>2020-05-20T19:50:43Z</time>
      </trkpt>
      <trkpt lat="37.408032" lon="-3.873587">
        <ele>891.480</ele>
        <time>2020-05-20T19:51:03Z</time>
      </trkpt>
      <trkpt lat="37.408091" lon="-3.873845">
        <ele>889.337</ele>
        <time>2020-05-20T19:51:28Z</time>
      </trkpt>
      <trkpt lat="37.408100" lon="-3.873862">
        <ele>889.275</ele>
        <time>2020-05-20T19:51:30Z</time>
      </trkpt>
      <trkpt lat="37.408145" lon="-3.874044">
        <ele>889.496</ele>
        <time>2020-05-20T19:51:47Z</time>
      </trkpt>
      <trkpt lat="37.408224" lon="-3.874279">
        <ele>888.098</ele>
        <time>2020-05-20T19:52:10Z</time>
      </trkpt>
      <trkpt lat="37.408289" lon="-3.874489">
        <ele>886.610</ele>
        <time>2020-05-20T19:52:30Z</time>
      </trkpt>
      <trkpt lat="37.408292" lon="-3.874672">
        <ele>883.744</ele>
        <time>2020-05-20T19:52:47Z</time>
      </trkpt>
      <trkpt lat="37.408287" lon="-3.874898">
        <ele>881.837</ele>
        <time>2020-05-20T19:53:08Z</time>
      </trkpt>
      <trkpt lat="37.408316" lon="-3.875033">
        <ele>880.749</ele>
        <time>2020-05-20T19:53:20Z</time>
      </trkpt>
      <trkpt lat="37.408398" lon="-3.875166">
        <ele>879.913</ele>
        <time>2020-05-20T19:53:36Z</time>
      </trkpt>
      <trkpt lat="37.408456" lon="-3.875355">
        <ele>878.508</ele>
        <time>2020-05-20T19:53:54Z</time>
      </trkpt>
      <trkpt lat="37.408468" lon="-3.875543">
        <ele>876.991</ele>
        <time>2020-05-20T19:54:11Z</time>
      </trkpt>
      <trkpt lat="37.408432" lon="-3.875655">
        <ele>877.562</ele>
        <time>2020-05-20T19:54:22Z</time>
      </trkpt>
      <trkpt lat="37.408436" lon="-3.875871">
        <ele>877.499</ele>
        <time>2020-05-20T19:54:42Z</time>
      </trkpt>
      <trkpt lat="37.408379" lon="-3.876137">
        <ele>875.947</ele>
        <time>2020-05-20T19:55:07Z</time>
      </trkpt>
      <trkpt lat="37.408303" lon="-3.876371">
        <ele>874.728</ele>
        <time>2020-05-20T19:55:30Z</time>
      </trkpt>
      <trkpt lat="37.408313" lon="-3.876570">
        <ele>874.470</ele>
        <time>2020-05-20T19:55:48Z</time>
      </trkpt>
      <trkpt lat="37.408372" lon="-3.876701">
        <ele>873.712</ele>
        <time>2020-05-20T19:56:01Z</time>
      </trkpt>
      <trkpt lat="37.408442" lon="-3.876854">
        <ele>872.176</ele>
        <time>2020-05-20T19:56:17Z</time>
      </trkpt>
      <trkpt lat="37.408395" lon="-3.876981">
        <ele>871.766</ele>
        <time>2020-05-20T19:56:30Z</time>
      </trkpt>
      <trkpt lat="37.408296" lon="-3.877121">
        <ele>872.729</ele>
        <time>2020-05-20T19:56:47Z</time>
      </trkpt>
      <trkpt lat="37.408268" lon="-3.877324">
        <ele>874.821</ele>
        <time>2020-05-20T19:57:06Z</time>
      </trkpt>
      <trkpt lat="37.408286" lon="-3.877521">
        <ele>879.308</ele>
        <time>2020-05-20T19:57:24Z</time>
      </trkpt>
      <trkpt lat="37.408283" lon="-3.877524">
        <ele>879.344</ele>
        <time>2020-05-20T19:57:25Z</time>
      </trkpt>
      <trkpt lat="37.408258" lon="-3.877676">
        <ele>880.975</ele>
        <time>2020-05-20T19:57:39Z</time>
      </trkpt>
      <trkpt lat="37.408235" lon="-3.877802">
        <ele>881.292</ele>
        <time>2020-05-20T19:57:51Z</time>
      </trkpt>
      <trkpt lat="37.408195" lon="-3.877933">
        <ele>881.580</ele>
        <time>2020-05-20T19:58:03Z</time>
      </trkpt>
      <trkpt lat="37.408176" lon="-3.878100">
        <ele>883.071</ele>
        <time>2020-05-20T19:58:19Z</time>
      </trkpt>
      <trkpt lat="37.408175" lon="-3.878110">
        <ele>883.013</ele>
        <time>2020-05-20T19:58:19Z</time>
      </trkpt>
      <trkpt lat="37.408148" lon="-3.878236">
        <ele>884.065</ele>
        <time>2020-05-20T19:58:31Z</time>
      </trkpt>
      <trkpt lat="37.408215" lon="-3.878351">
        <ele>884.739</ele>
        <time>2020-05-20T19:58:44Z</time>
      </trkpt>
      <trkpt lat="37.408271" lon="-3.878504">
        <ele>885.151</ele>
        <time>2020-05-20T19:59:00Z</time>
      </trkpt>
      <trkpt lat="37.408336" lon="-3.878695">
        <ele>885.201</ele>
        <time>2020-05-20T19:59:18Z</time>
      </trkpt>
      <trkpt lat="37.408372" lon="-3.878835">
        <ele>885.911</ele>
        <time>2020-05-20T19:59:32Z</time>
      </trkpt>
      <trkpt lat="37.408423" lon="-3.878997">
        <ele>887.408</ele>
        <time>2020-05-20T19:59:47Z</time>
      </trkpt>
      <trkpt lat="37.408471" lon="-3.879229">
        <ele>889.663</ele>
        <time>2020-05-20T20:00:09Z</time>
      </trkpt>
      <trkpt lat="37.408451" lon="-3.879509">
        <ele>893.214</ele>
        <time>2020-05-20T20:00:35Z</time>
      </trkpt>
      <trkpt lat="37.408460" lon="-3.879829">
        <ele>896.141</ele>
        <time>2020-05-20T20:01:04Z</time>
      </trkpt>
      <trkpt lat="37.408459" lon="-3.879833">
        <ele>896.299</ele>
        <time>2020-05-20T20:01:04Z</time>
      </trkpt>
      <trkpt lat="37.408474" lon="-3.880011">
        <ele>896.920</ele>
        <time>2020-05-20T20:01:21Z</time>
      </trkpt>
      <trkpt lat="37.408497" lon="-3.880222">
        <ele>899.222</ele>
        <time>2020-05-20T20:01:40Z</time>
      </trkpt>
      <trkpt lat="37.408575" lon="-3.880399">
        <ele>901.024</ele>
        <time>2020-05-20T20:01:59Z</time>
      </trkpt>
      <trkpt lat="37.408656" lon="-3.880551">
        <ele>903.048</ele>
        <time>2020-05-20T20:02:15Z</time>
      </trkpt>
      <trkpt lat="37.408776" lon="-3.880702">
        <ele>905.626</ele>
        <time>2020-05-20T20:02:35Z</time>
      </trkpt>
      <trkpt lat="37.408779" lon="-3.880705">
        <ele>905.747</ele>
        <time>2020-05-20T20:02:35Z</time>
      </trkpt>
      <trkpt lat="37.408822" lon="-3.880861">
        <ele>906.711</ele>
        <time>2020-05-20T20:02:50Z</time>
      </trkpt>
      <trkpt lat="37.408851" lon="-3.881059">
        <ele>905.508</ele>
        <time>2020-05-20T20:03:08Z</time>
      </trkpt>
      <trkpt lat="37.408928" lon="-3.881331">
        <ele>903.810</ele>
        <time>2020-05-20T20:03:35Z</time>
      </trkpt>
      <trkpt lat="37.408967" lon="-3.881500">
        <ele>903.121</ele>
        <time>2020-05-20T20:03:50Z</time>
      </trkpt>
      <trkpt lat="37.408971" lon="-3.881525">
        <ele>902.768</ele>
        <time>2020-05-20T20:03:53Z</time>
      </trkpt>
      <trkpt lat="37.409027" lon="-3.881718">
        <ele>901.166</ele>
        <time>2020-05-20T20:04:11Z</time>
      </trkpt>
      <trkpt lat="37.409109" lon="-3.881975">
        <ele>897.677</ele>
        <time>2020-05-20T20:04:37Z</time>
      </trkpt>
      <trkpt lat="37.409161" lon="-3.882110">
        <ele>895.779</ele>
        <time>2020-05-20T20:04:51Z</time>
      </trkpt>
      <trkpt lat="37.409236" lon="-3.882237">
        <ele>893.381</ele>
        <time>2020-05-20T20:05:05Z</time>
      </trkpt>
      <trkpt lat="37.409345" lon="-3.882341">
        <ele>892.025</ele>
        <time>2020-05-20T20:05:21Z</time>
      </trkpt>
      <trkpt lat="37.409442" lon="-3.882443">
        <ele>891.124</ele>
        <time>2020-05-20T20:05:35Z</time>
      </trkpt>
      <trkpt lat="37.409457" lon="-3.882567">
        <ele>890.904</ele>
        <time>2020-05-20T20:05:46Z</time>
      </trkpt>
      <trkpt lat="37.409409" lon="-3.882723">
        <ele>890.214</ele>
        <time>2020-05-20T20:06:02Z</time>
      </trkpt>
      <trkpt lat="37.409347" lon="-3.882908">
        <ele>889.008</ele>
        <time>2020-05-20T20:06:20Z</time>
      </trkpt>
      <trkpt lat="37.409309" lon="-3.883063">
        <ele>887.350</ele>
        <time>2020-05-20T20:06:35Z</time>
      </trkpt>
      <trkpt lat="37.409254" lon="-3.883352">
        <ele>882.991</ele>
        <time>2020-05-20T20:07:02Z</time>
      </trkpt>
      <trkpt lat="37.409187" lon="-3.883532">
        <ele>879.268</ele>
        <time>2020-05-20T20:07:20Z</time>
      </trkpt>
      <trkpt lat="37.409185" lon="-3.883538">
        <ele>879.216</ele>
        <time>2020-05-20T20:07:21Z</time>
      </trkpt>
      <trkpt lat="37.409144" lon="-3.883710">
        <ele>877.287</ele>
        <time>2020-05-20T20:07:37Z</time>
      </trkpt>
      <trkpt lat="37.409122" lon="-3.883886">
        <ele>876.059</ele>
        <time>2020-05-20T20:07:53Z</time>
      </trkpt>
      <trkpt lat="37.409117" lon="-3.883902">
        <ele>875.981</ele>
        <time>2020-05-20T20:07:55Z</time>
      </trkpt>
      <trkpt lat="37.409087" lon="-3.884162">
        <ele>874.485</ele>
        <time>2020-05-20T20:08:19Z</time>
      </trkpt>
      <trkpt lat="37.409104" lon="-3.884455">
        <ele>872.733</ele>
        <time>2020-05-20T20:08:45Z</time>
      </trkpt>
      <trkpt lat="37.409140" lon="-3.884655">
        <ele>871.323</ele>
        <time>2020-05-20T20:09:04Z</time>
      </trkpt>
      <trkpt lat="37.409144" lon="-3.884664">
        <ele>871.415</ele>
        <time>2020-05-20T20:09:05Z</time>
      </trkpt>
      <trkpt lat="37.409180" lon="-3.884869">
        <ele>871.008</ele>
        <time>2020-05-20T20:09:24Z</time>
      </trkpt>
      <trkpt lat="37.409180" lon="-3.885105">
        <ele>869.061</ele>
        <time>2020-05-20T20:09:45Z</time>
      </trkpt>
      <trkpt lat="37.409190" lon="-3.885306">
        <ele>868.282</ele>
        <time>2020-05-20T20:10:04Z</time>
      </trkpt>
      <trkpt lat="37.409194" lon="-3.885319">
        <ele>868.319</ele>
        <time>2020-05-20T20:10:05Z</time>
      </trkpt>
      <trkpt lat="37.409226" lon="-3.885485">
        <ele>867.857</ele>
        <time>2020-05-20T20:10:20Z</time>
      </trkpt>
      <trkpt lat="37.409353" lon="-3.885683">
        <ele>867.158</ele>
        <time>2020-05-20T20:10:43Z</time>
      </trkpt>
      <trkpt lat="37.409493" lon="-3.885827">
        <ele>868.390</ele>
        <time>2020-05-20T20:11:04Z</time>
      </trkpt>
      <trkpt lat="37.409605" lon="-3.885911">
        <ele>867.472</ele>
        <time>2020-05-20T20:11:19Z</time>
      </trkpt>
      <trkpt lat="37.409650" lon="-3.885982">
        <ele>866.316</ele>
        <time>2020-05-20T20:11:27Z</time>
      </trkpt>
      <trkpt lat="37.409646" lon="-3.886103">
        <ele>865.248</ele>
        <time>2020-05-20T20:11:38Z</time>
      </trkpt>
      <trkpt lat="37.409612" lon="-3.886247">
        <ele>863.061</ele>
        <time>2020-05-20T20:11:52Z</time>
      </trkpt>
      <trkpt lat="37.409563" lon="-3.886437">
        <ele>862.017</ele>
        <time>2020-05-20T20:12:10Z</time>
      </trkpt>
      <trkpt lat="37.409552" lon="-3.886459">
        <ele>862.008</ele>
        <time>2020-05-20T20:12:12Z</time>
      </trkpt>
      <trkpt lat="37.409542" lon="-3.886481">
        <ele>862.082</ele>
        <time>2020-05-20T20:12:15Z</time>
      </trkpt>
      <trkpt lat="37.409461" lon="-3.886647">
        <ele>862.023</ele>
        <time>2020-05-20T20:12:32Z</time>
      </trkpt>
      <trkpt lat="37.409461" lon="-3.886655">
        <ele>862.090</ele>
        <time>2020-05-20T20:12:33Z</time>
      </trkpt>
      <trkpt lat="37.409415" lon="-3.886847">
        <ele>863.698</ele>
        <time>2020-05-20T20:12:51Z</time>
      </trkpt>
      <trkpt lat="37.409513" lon="-3.887079">
        <ele>862.139</ele>
        <time>2020-05-20T20:13:15Z</time>
      </trkpt>
      <trkpt lat="37.409655" lon="-3.887345">
        <ele>860.591</ele>
        <time>2020-05-20T20:13:44Z</time>
      </trkpt>
      <trkpt lat="37.409767" lon="-3.887511">
        <ele>859.423</ele>
        <time>2020-05-20T20:14:04Z</time>
      </trkpt>
      <trkpt lat="37.409878" lon="-3.887588">
        <ele>858.697</ele>
        <time>2020-05-20T20:14:18Z</time>
      </trkpt>
      <trkpt lat="37.410055" lon="-3.887721">
        <ele>856.712</ele>
        <time>2020-05-20T20:14:42Z</time>
      </trkpt>
      <trkpt lat="37.410136" lon="-3.887867">
        <ele>856.532</ele>
        <time>2020-05-20T20:14:58Z</time>
      </trkpt>
      <trkpt lat="37.410239" lon="-3.888125">
        <ele>855.005</ele>
        <time>2020-05-20T20:15:24Z</time>
      </trkpt>
      <trkpt lat="37.410290" lon="-3.888309">
        <ele>854.308</ele>
        <time>2020-05-20T20:15:42Z</time>
      </trkpt>
      <trkpt lat="37.410362" lon="-3.888567">
        <ele>853.019</ele>
        <time>2020-05-20T20:16:06Z</time>
      </trkpt>
      <trkpt lat="37.410390" lon="-3.888744">
        <ele>852.510</ele>
        <time>2020-05-20T20:16:23Z</time>
      </trkpt>
      <trkpt lat="37.410381" lon="-3.888968">
        <ele>852.097</ele>
        <time>2020-05-20T20:16:43Z</time>
      </trkpt>
      <trkpt lat="37.410312" lon="-3.889256">
        <ele>850.945</ele>
        <time>2020-05-20T20:17:10Z</time>
      </trkpt>
      <trkpt lat="37.410288" lon="-3.889484">
        <ele>849.386</ele>
        <time>2020-05-20T20:17:31Z</time>
      </trkpt>
      <trkpt lat="37.410266" lon="-3.889684">
        <ele>848.028</ele>
        <time>2020-05-20T20:17:50Z</time>
      </trkpt>
      <trkpt lat="37.410422" lon="-3.889917">
        <ele>848.070</ele>
        <time>2020-05-20T20:18:17Z</time>
      </trkpt>
      <trkpt lat="37.410508" lon="-3.890080">
        <ele>848.014</ele>
        <time>2020-05-20T20:18:35Z</time>
      </trkpt>
      <trkpt lat="37.410575" lon="-3.890227">
        <ele>847.086</ele>
        <time>2020-05-20T20:18:50Z</time>
      </trkpt>
      <trkpt lat="37.410629" lon="-3.890414">
        <ele>846.060</ele>
        <time>2020-05-20T20:19:08Z</time>
      </trkpt>
      <trkpt lat="37.410715" lon="-3.890570">
        <ele>846.026</ele>
        <time>2020-05-20T20:19:25Z</time>
      </trkpt>
      <trkpt lat="37.410731" lon="-3.890590">
        <ele>846.008</ele>
        <time>2020-05-20T20:19:28Z</time>
      </trkpt>
      <trkpt lat="37.410864" lon="-3.890707">
        <ele>845.036</ele>
        <time>2020-05-20T20:19:46Z</time>
      </trkpt>
      <trkpt lat="37.410869" lon="-3.890714">
        <ele>845.027</ele>
        <time>2020-05-20T20:19:47Z</time>
      </trkpt>
      <trkpt lat="37.410922" lon="-3.890812">
        <ele>845.024</ele>
        <time>2020-05-20T20:19:58Z</time>
      </trkpt>
      <trkpt lat="37.411046" lon="-3.890991">
        <ele>844.272</ele>
        <time>2020-05-20T20:20:20Z</time>
      </trkpt>
      <trkpt lat="37.411167" lon="-3.891197">
        <ele>843.863</ele>
        <time>2020-05-20T20:20:43Z</time>
      </trkpt>
      <trkpt lat="37.411335" lon="-3.891437">
        <ele>843.085</ele>
        <time>2020-05-20T20:21:12Z</time>
      </trkpt>
      <trkpt lat="37.411401" lon="-3.891572">
        <ele>842.627</ele>
        <time>2020-05-20T20:21:26Z</time>
      </trkpt>
      <trkpt lat="37.411561" lon="-3.891729">
        <ele>841.981</ele>
        <time>2020-05-20T20:21:49Z</time>
      </trkpt>
      <trkpt lat="37.411711" lon="-3.891851">
        <ele>841.253</ele>
        <time>2020-05-20T20:22:09Z</time>
      </trkpt>
      <trkpt lat="37.411910" lon="-3.892045">
        <ele>839.404</ele>
        <time>2020-05-20T20:22:38Z</time>
      </trkpt>
      <trkpt lat="37.411982" lon="-3.892267">
        <ele>837.314</ele>
        <time>2020-05-20T20:23:00Z</time>
      </trkpt>
      <trkpt lat="37.412130" lon="-3.892389">
        <ele>838.408</ele>
        <time>2020-05-20T20:23:20Z</time>
      </trkpt>
      <trkpt lat="37.412166" lon="-3.892571">
        <ele>839.043</ele>
        <time>2020-05-20T20:23:37Z</time>
      </trkpt>
      <trkpt lat="37.412172" lon="-3.892811">
        <ele>838.814</ele>
        <time>2020-05-20T20:23:59Z</time>
      </trkpt>
      <trkpt lat="37.412137" lon="-3.893072">
        <ele>838.041</ele>
        <time>2020-05-20T20:24:23Z</time>
      </trkpt>
      <trkpt lat="37.412175" lon="-3.893418">
        <ele>838.049</ele>
        <time>2020-05-20T20:24:54Z</time>
      </trkpt>
      <trkpt lat="37.412204" lon="-3.893715">
        <ele>838.090</ele>
        <time>2020-05-20T20:25:21Z</time>
      </trkpt>
      <trkpt lat="37.412204" lon="-3.893995">
        <ele>838.572</ele>
        <time>2020-05-20T20:25:47Z</time>
      </trkpt>
      <trkpt lat="37.412226" lon="-3.894258">
        <ele>838.014</ele>
        <time>2020-05-20T20:26:11Z</time>
      </trkpt>
      <trkpt lat="37.412287" lon="-3.894473">
        <ele>838.038</ele>
        <time>2020-05-20T20:26:31Z</time>
      </trkpt>
      <trkpt lat="37.412366" lon="-3.894533">
        <ele>838.083</ele>
        <time>2020-05-20T20:26:42Z</time>
      </trkpt>
      <trkpt lat="37.412508" lon="-3.894406">
        <ele>836.925</ele>
        <time>2020-05-20T20:27:02Z</time>
      </trkpt>
      <trkpt lat="37.412832" lon="-3.894419">
        <ele>835.017</ele>
        <time>2020-05-20T20:27:39Z</time>
      </trkpt>
      <trkpt lat="37.412960" lon="-3.894459">
        <ele>834.008</ele>
        <time>2020-05-20T20:27:54Z</time>
      </trkpt>
      <trkpt lat="37.413204" lon="-3.894515">
        <ele>833.056</ele>
        <time>2020-05-20T20:28:22Z</time>
      </trkpt>
      <trkpt lat="37.413121" lon="-3.894636">
        <ele>833.047</ele>
        <time>2020-05-20T20:28:36Z</time>
      </trkpt>
      <trkpt lat="37.412923" lon="-3.894859">
        <ele>834.084</ele>
        <time>2020-05-20T20:29:07Z</time>
      </trkpt>
      <trkpt lat="37.412840" lon="-3.894974">
        <ele>835.092</ele>
        <time>2020-05-20T20:29:21Z</time>
      </trkpt>
      <trkpt lat="37.412886" lon="-3.895123">
        <ele>834.233</ele>
        <time>2020-05-20T20:29:35Z</time>
      </trkpt>
      <trkpt lat="37.412943" lon="-3.895286">
        <ele>834.095</ele>
        <time>2020-05-20T20:29:51Z</time>
      </trkpt>
      <trkpt lat="37.412956" lon="-3.895338">
        <ele>834.147</ele>
        <time>2020-05-20T20:29:56Z</time>
      </trkpt>
      <trkpt lat="37.412982" lon="-3.895500">
        <ele>833.691</ele>
        <time>2020-05-20T20:30:11Z</time>
      </trkpt>
      <trkpt lat="37.412961" lon="-3.895733">
        <ele>833.087</ele>
        <time>2020-05-20T20:30:33Z</time>
      </trkpt>
      <trkpt lat="37.412897" lon="-3.895800">
        <ele>833.042</ele>
        <time>2020-05-20T20:30:42Z</time>
      </trkpt>
      <trkpt lat="37.412810" lon="-3.895861">
        <ele>833.126</ele>
        <time>2020-05-20T20:30:53Z</time>
      </trkpt>
      <trkpt lat="37.412699" lon="-3.895932">
        <ele>832.708</ele>
        <time>2020-05-20T20:31:08Z</time>
      </trkpt>
      <trkpt lat="37.412601" lon="-3.896080">
        <ele>833.936</ele>
        <time>2020-05-20T20:31:25Z</time>
      </trkpt>
      <trkpt lat="37.412513" lon="-3.896231">
        <ele>833.727</ele>
        <time>2020-05-20T20:31:42Z</time>
      </trkpt>
      <trkpt lat="37.412426" lon="-3.896424">
        <ele>835.344</ele>
        <time>2020-05-20T20:32:02Z</time>
      </trkpt>
      <trkpt lat="37.412354" lon="-3.896573">
        <ele>839.052</ele>
        <time>2020-05-20T20:32:18Z</time>
      </trkpt>
      <trkpt lat="37.412261" lon="-3.896779">
        <ele>835.243</ele>
        <time>2020-05-20T20:32:40Z</time>
      </trkpt>
      <trkpt lat="37.412177" lon="-3.896973">
        <ele>835.275</ele>
        <time>2020-05-20T20:33:00Z</time>
      </trkpt>
      <trkpt lat="37.412117" lon="-3.897101">
        <ele>836.587</ele>
        <time>2020-05-20T20:33:14Z</time>
      </trkpt>
      <trkpt lat="37.411936" lon="-3.897410">
        <ele>837.031</ele>
        <time>2020-05-20T20:33:48Z</time>
      </trkpt>
      <trkpt lat="37.411819" lon="-3.897613">
        <ele>837.116</ele>
        <time>2020-05-20T20:34:11Z</time>
      </trkpt>
      <trkpt lat="37.411690" lon="-3.897737">
        <ele>836.376</ele>
        <time>2020-05-20T20:34:30Z</time>
      </trkpt>
      <trkpt lat="37.411516" lon="-3.897897">
        <ele>836.913</ele>
        <time>2020-05-20T20:34:54Z</time>
      </trkpt>
      <trkpt lat="37.411455" lon="-3.898004">
        <ele>837.008</ele>
        <time>2020-05-20T20:35:06Z</time>
      </trkpt>
      <trkpt lat="37.411397" lon="-3.898134">
        <ele>836.619</ele>
        <time>2020-05-20T20:35:20Z</time>
      </trkpt>
      <trkpt lat="37.411296" lon="-3.898405">
        <ele>836.420</ele>
        <time>2020-05-20T20:35:47Z</time>
      </trkpt>
      <trkpt lat="37.411228" lon="-3.898707">
        <ele>836.877</ele>
        <time>2020-05-20T20:36:15Z</time>
      </trkpt>
      <trkpt lat="37.411162" lon="-3.898896">
        <ele>838.675</ele>
        <time>2020-05-20T20:36:34Z</time>
      </trkpt>
      <trkpt lat="37.411111" lon="-3.899041">
        <ele>838.726</ele>
        <time>2020-05-20T20:36:48Z</time>
      </trkpt>
      <trkpt lat="37.411080" lon="-3.899175">
        <ele>839.128</ele>
        <time>2020-05-20T20:37:01Z</time>
      </trkpt>
      <trkpt lat="37.411033" lon="-3.899468">
        <ele>839.250</ele>
        <time>2020-05-20T20:37:28Z</time>
      </trkpt>
      <trkpt lat="37.411014" lon="-3.899546">
        <ele>839.714</ele>
        <time>2020-05-20T20:37:35Z</time>
      </trkpt>
      <trkpt lat="37.410940" lon="-3.899727">
        <ele>838.755</ele>
        <time>2020-05-20T20:37:54Z</time>
      </trkpt>
      <trkpt lat="37.410884" lon="-3.899830">
        <ele>839.707</ele>
        <time>2020-05-20T20:38:05Z</time>
      </trkpt>
      <trkpt lat="37.410848" lon="-3.899902">
        <ele>839.817</ele>
        <time>2020-05-20T20:38:13Z</time>
      </trkpt>
      <trkpt lat="37.410778" lon="-3.900009">
        <ele>839.708</ele>
        <time>2020-05-20T20:38:25Z</time>
      </trkpt>
      <trkpt lat="37.410695" lon="-3.900155">
        <ele>839.023</ele>
        <time>2020-05-20T20:38:41Z</time>
      </trkpt>
      <trkpt lat="37.410682" lon="-3.900335">
        <ele>838.474</ele>
        <time>2020-05-20T20:38:58Z</time>
      </trkpt>
      <trkpt lat="37.410670" lon="-3.900553">
        <ele>839.361</ele>
        <time>2020-05-20T20:39:18Z</time>
      </trkpt>
      <trkpt lat="37.410664" lon="-3.900691">
        <ele>839.619</ele>
        <time>2020-05-20T20:39:30Z</time>
      </trkpt>
      <trkpt lat="37.410557" lon="-3.900904">
        <ele>840.070</ele>
        <time>2020-05-20T20:39:53Z</time>
      </trkpt>
      <trkpt lat="37.410471" lon="-3.901082">
        <ele>838.622</ele>
        <time>2020-05-20T20:40:12Z</time>
      </trkpt>
      <trkpt lat="37.410405" lon="-3.901187">
        <ele>839.044</ele>
        <time>2020-05-20T20:40:24Z</time>
      </trkpt>
      <trkpt lat="37.410355" lon="-3.901438">
        <ele>839.478</ele>
        <time>2020-05-20T20:40:47Z</time>
      </trkpt>
      <trkpt lat="37.410374" lon="-3.901587">
        <ele>839.853</ele>
        <time>2020-05-20T20:41:01Z</time>
      </trkpt>
      <trkpt lat="37.410430" lon="-3.901671">
        <ele>839.004</ele>
        <time>2020-05-20T20:41:11Z</time>
      </trkpt>
      <trkpt lat="37.410430" lon="-3.901683">
        <ele>839.014</ele>
        <time>2020-05-20T20:41:12Z</time>
      </trkpt>
      <trkpt lat="37.410553" lon="-3.901809">
        <ele>838.008</ele>
        <time>2020-05-20T20:41:30Z</time>
      </trkpt>
      <trkpt lat="37.410654" lon="-3.901920">
        <ele>837.823</ele>
        <time>2020-05-20T20:41:45Z</time>
      </trkpt>
      <trkpt lat="37.410762" lon="-3.902037">
        <ele>836.984</ele>
        <time>2020-05-20T20:42:02Z</time>
      </trkpt>
      <trkpt lat="37.410991" lon="-3.902055">
        <ele>835.061</ele>
        <time>2020-05-20T20:42:28Z</time>
      </trkpt>
      <trkpt lat="37.411108" lon="-3.902089">
        <ele>835.019</ele>
        <time>2020-05-20T20:42:42Z</time>
      </trkpt>
      <trkpt lat="37.411226" lon="-3.902128">
        <ele>835.040</ele>
        <time>2020-05-20T20:42:55Z</time>
      </trkpt>
      <trkpt lat="37.411368" lon="-3.902233">
        <ele>835.072</ele>
        <time>2020-05-20T20:43:14Z</time>
      </trkpt>
      <trkpt lat="37.411485" lon="-3.902281">
        <ele>832.114</ele>
        <time>2020-05-20T20:43:28Z</time>
      </trkpt>
      <trkpt lat="37.411578" lon="-3.902364">
        <ele>833.648</ele>
        <time>2020-05-20T20:43:42Z</time>
      </trkpt>
      <trkpt lat="37.411669" lon="-3.902424">
        <ele>834.032</ele>
        <time>2020-05-20T20:43:53Z</time>
      </trkpt>
      <trkpt lat="37.411561" lon="-3.902618">
        <ele>834.092</ele>
        <time>2020-05-20T20:44:15Z</time>
      </trkpt>
      <trkpt lat="37.411524" lon="-3.902764">
        <ele>834.711</ele>
        <time>2020-05-20T20:44:29Z</time>
      </trkpt>
      <trkpt lat="37.411497" lon="-3.903010">
        <ele>835.008</ele>
        <time>2020-05-20T20:44:51Z</time>
      </trkpt>
      <trkpt lat="37.411514" lon="-3.903247">
        <ele>835.031</ele>
        <time>2020-05-20T20:45:13Z</time>
      </trkpt>
      <trkpt lat="37.411540" lon="-3.903433">
        <ele>835.062</ele>
        <time>2020-05-20T20:45:30Z</time>
      </trkpt>
      <trkpt lat="37.411501" lon="-3.903681">
        <ele>836.079</ele>
        <time>2020-05-20T20:45:53Z</time>
      </trkpt>
      <trkpt lat="37.411381" lon="-3.904019">
        <ele>835.177</ele>
        <time>2020-05-20T20:46:26Z</time>
      </trkpt>
      <trkpt lat="37.411243" lon="-3.904242">
        <ele>835.088</ele>
        <time>2020-05-20T20:46:52Z</time>
      </trkpt>
      <trkpt lat="37.411164" lon="-3.904316">
        <ele>835.020</ele>
        <time>2020-05-20T20:47:03Z</time>
      </trkpt>
      <trkpt lat="37.411042" lon="-3.904452">
        <ele>835.292</ele>
        <time>2020-05-20T20:47:21Z</time>
      </trkpt>
      <trkpt lat="37.410871" lon="-3.904645">
        <ele>835.596</ele>
        <time>2020-05-20T20:47:48Z</time>
      </trkpt>
      <trkpt lat="37.410762" lon="-3.904801">
        <ele>836.071</ele>
        <time>2020-05-20T20:48:06Z</time>
      </trkpt>
      <trkpt lat="37.410692" lon="-3.904934">
        <ele>835.941</ele>
        <time>2020-05-20T20:48:21Z</time>
      </trkpt>
      <trkpt lat="37.410672" lon="-3.905053">
        <ele>835.515</ele>
        <time>2020-05-20T20:48:32Z</time>
      </trkpt>
      <trkpt lat="37.410673" lon="-3.905225">
        <ele>835.508</ele>
        <time>2020-05-20T20:48:47Z</time>
      </trkpt>
      <trkpt lat="37.410644" lon="-3.905502">
        <ele>836.015</ele>
        <time>2020-05-20T20:49:13Z</time>
      </trkpt>
      <trkpt lat="37.410557" lon="-3.905871">
        <ele>836.346</ele>
        <time>2020-05-20T20:49:47Z</time>
      </trkpt>
      <trkpt lat="37.410561" lon="-3.905966">
        <ele>837.043</ele>
        <time>2020-05-20T20:49:56Z</time>
      </trkpt>
      <trkpt lat="37.410595" lon="-3.906145">
        <ele>837.051</ele>
        <time>2020-05-20T20:50:13Z</time>
      </trkpt>
      <trkpt lat="37.410628" lon="-3.906346">
        <ele>837.072</ele>
        <time>2020-05-20T20:50:31Z</time>
      </trkpt>
      <trkpt lat="37.410593" lon="-3.906770">
        <ele>837.034</ele>
        <time>2020-05-20T20:51:10Z</time>
      </trkpt>
      <trkpt lat="37.410604" lon="-3.907053">
        <ele>838.096</ele>
        <time>2020-05-20T20:51:35Z</time>
      </trkpt>
      <trkpt lat="37.410611" lon="-3.907447">
        <ele>839.050</ele>
        <time>2020-05-20T20:52:11Z</time>
      </trkpt>
      <trkpt lat="37.410586" lon="-3.907750">
        <ele>840.019</ele>
        <time>2020-05-20T20:52:39Z</time>
      </trkpt>
      <trkpt lat="37.410586" lon="-3.908069">
        <ele>841.009</ele>
        <time>2020-05-20T20:53:08Z</time>
      </trkpt>
      <trkpt lat="37.410623" lon="-3.908315">
        <ele>842.519</ele>
        <time>2020-05-20T20:53:30Z</time>
      </trkpt>
      <trkpt lat="37.410699" lon="-3.908504">
        <ele>845.008</ele>
        <time>2020-05-20T20:53:50Z</time>
      </trkpt>
      <trkpt lat="37.410717" lon="-3.908598">
        <ele>846.759</ele>
        <time>2020-05-20T20:53:59Z</time>
      </trkpt>
      <trkpt lat="37.410674" lon="-3.908786">
        <ele>845.210</ele>
        <time>2020-05-20T20:54:16Z</time>
      </trkpt>
      <trkpt lat="37.410666" lon="-3.908974">
        <ele>844.077</ele>
        <time>2020-05-20T20:54:33Z</time>
      </trkpt>
      <trkpt lat="37.410665" lon="-3.909145">
        <ele>842.725</ele>
        <time>2020-05-20T20:54:49Z</time>
      </trkpt>
      <trkpt lat="37.410568" lon="-3.909446">
        <ele>840.726</ele>
        <time>2020-05-20T20:55:18Z</time>
      </trkpt>
      <trkpt lat="37.410538" lon="-3.909593">
        <ele>840.078</ele>
        <time>2020-05-20T20:55:32Z</time>
      </trkpt>
      <trkpt lat="37.410517" lon="-3.909755">
        <ele>840.020</ele>
        <time>2020-05-20T20:55:47Z</time>
      </trkpt>
      <trkpt lat="37.410505" lon="-3.909924">
        <ele>839.534</ele>
        <time>2020-05-20T20:56:02Z</time>
      </trkpt>
      <trkpt lat="37.410446" lon="-3.910030">
        <ele>839.968</ele>
        <time>2020-05-20T20:56:14Z</time>
      </trkpt>
      <trkpt lat="37.410330" lon="-3.910145">
        <ele>841.242</ele>
        <time>2020-05-20T20:56:31Z</time>
      </trkpt>
      <trkpt lat="37.410193" lon="-3.910180">
        <ele>842.026</ele>
        <time>2020-05-20T20:56:47Z</time>
      </trkpt>
      <trkpt lat="37.410098" lon="-3.910291">
        <ele>843.608</ele>
        <time>2020-05-20T20:57:02Z</time>
      </trkpt>
      <trkpt lat="37.410028" lon="-3.910383">
        <ele>845.654</ele>
        <time>2020-05-20T20:57:13Z</time>
      </trkpt>
      <trkpt lat="37.409999" lon="-3.910586">
        <ele>848.325</ele>
        <time>2020-05-20T20:57:32Z</time>
      </trkpt>
      <trkpt lat="37.409998" lon="-3.910594">
        <ele>848.462</ele>
        <time>2020-05-20T20:57:33Z</time>
      </trkpt>
      <trkpt lat="37.409953" lon="-3.910811">
        <ele>850.460</ele>
        <time>2020-05-20T20:57:53Z</time>
      </trkpt>
      <trkpt lat="37.409981" lon="-3.910853">
        <ele>852.581</ele>
        <time>2020-05-20T20:57:59Z</time>
      </trkpt>
      <trkpt lat="37.410096" lon="-3.910780">
        <ele>853.783</ele>
        <time>2020-05-20T20:58:14Z</time>
      </trkpt>
      <trkpt lat="37.410267" lon="-3.910705">
        <ele>853.895</ele>
        <time>2020-05-20T20:58:34Z</time>
      </trkpt>
      <trkpt lat="37.410283" lon="-3.910707">
        <ele>853.879</ele>
        <time>2020-05-20T20:58:36Z</time>
      </trkpt>
      <trkpt lat="37.410422" lon="-3.910798">
        <ele>854.674</ele>
        <time>2020-05-20T20:58:54Z</time>
      </trkpt>
      <trkpt lat="37.410553" lon="-3.910927">
        <ele>852.356</ele>
        <time>2020-05-20T20:59:13Z</time>
      </trkpt>
      <trkpt lat="37.410623" lon="-3.911069">
        <ele>853.421</ele>
        <time>2020-05-20T20:59:28Z</time>
      </trkpt>
      <trkpt lat="37.410612" lon="-3.911196">
        <ele>854.908</ele>
        <time>2020-05-20T20:59:40Z</time>
      </trkpt>
      <trkpt lat="37.410603" lon="-3.911381">
        <ele>856.835</ele>
        <time>2020-05-20T20:59:57Z</time>
      </trkpt>
      <trkpt lat="37.410580" lon="-3.911540">
        <ele>858.496</ele>
        <time>2020-05-20T21:00:11Z</time>
      </trkpt>
      <trkpt lat="37.410583" lon="-3.911697">
        <ele>860.863</ele>
        <time>2020-05-20T21:00:26Z</time>
      </trkpt>
      <trkpt lat="37.410589" lon="-3.911831">
        <ele>862.791</ele>
        <time>2020-05-20T21:00:38Z</time>
      </trkpt>
      <trkpt lat="37.410581" lon="-3.911961">
        <ele>864.042</ele>
        <time>2020-05-20T21:00:50Z</time>
      </trkpt>
      <trkpt lat="37.410592" lon="-3.912033">
        <ele>867.924</ele>
        <time>2020-05-20T21:00:58Z</time>
      </trkpt>
      <trkpt lat="37.410634" lon="-3.912194">
        <ele>867.896</ele>
        <time>2020-05-20T21:01:13Z</time>
      </trkpt>
      <trkpt lat="37.410646" lon="-3.912394">
        <ele>867.260</ele>
        <time>2020-05-20T21:01:31Z</time>
      </trkpt>
      <trkpt lat="37.410694" lon="-3.912681">
        <ele>870.097</ele>
        <time>2020-05-20T21:01:58Z</time>
      </trkpt>
      <trkpt lat="37.410711" lon="-3.913005">
        <ele>872.823</ele>
        <time>2020-05-20T21:02:27Z</time>
      </trkpt>
      <trkpt lat="37.410737" lon="-3.913151">
        <ele>873.725</ele>
        <time>2020-05-20T21:02:41Z</time>
      </trkpt>
      <trkpt lat="37.410797" lon="-3.913340">
        <ele>875.008</ele>
        <time>2020-05-20T21:02:59Z</time>
      </trkpt>
      <trkpt lat="37.410836" lon="-3.913553">
        <ele>875.457</ele>
        <time>2020-05-20T21:03:19Z</time>
      </trkpt>
      <trkpt lat="37.410881" lon="-3.913692">
        <ele>876.078</ele>
        <time>2020-05-20T21:03:33Z</time>
      </trkpt>
      <trkpt lat="37.410925" lon="-3.913885">
        <ele>876.025</ele>
        <time>2020-05-20T21:03:51Z</time>
      </trkpt>
      <trkpt lat="37.410975" lon="-3.914087">
        <ele>877.023</ele>
        <time>2020-05-20T21:04:10Z</time>
      </trkpt>
      <trkpt lat="37.411008" lon="-3.914248">
        <ele>877.064</ele>
        <time>2020-05-20T21:04:25Z</time>
      </trkpt>
      <trkpt lat="37.411063" lon="-3.914436">
        <ele>877.056</ele>
        <time>2020-05-20T21:04:43Z</time>
      </trkpt>
      <trkpt lat="37.411115" lon="-3.914618">
        <ele>877.668</ele>
        <time>2020-05-20T21:05:01Z</time>
      </trkpt>
      <trkpt lat="37.411146" lon="-3.914762">
        <ele>878.022</ele>
        <time>2020-05-20T21:05:14Z</time>
      </trkpt>
      <trkpt lat="37.411169" lon="-3.914969">
        <ele>877.015</ele>
        <time>2020-05-20T21:05:33Z</time>
      </trkpt>
      <trkpt lat="37.411187" lon="-3.915114">
        <ele>876.365</ele>
        <time>2020-05-20T21:05:46Z</time>
      </trkpt>
      <trkpt lat="37.411228" lon="-3.915270">
        <ele>875.611</ele>
        <time>2020-05-20T21:06:01Z</time>
      </trkpt>
      <trkpt lat="37.411315" lon="-3.915487">
        <ele>876.808</ele>
        <time>2020-05-20T21:06:23Z</time>
      </trkpt>
      <trkpt lat="37.411363" lon="-3.915686">
        <ele>878.489</ele>
        <time>2020-05-20T21:06:42Z</time>
      </trkpt>
      <trkpt lat="37.411449" lon="-3.915909">
        <ele>879.810</ele>
        <time>2020-05-20T21:07:05Z</time>
      </trkpt>
      <trkpt lat="37.411502" lon="-3.916087">
        <ele>880.827</ele>
        <time>2020-05-20T21:07:22Z</time>
      </trkpt>
      <trkpt lat="37.411587" lon="-3.916373">
        <ele>882.635</ele>
        <time>2020-05-20T21:07:50Z</time>
      </trkpt>
      <trkpt lat="37.411670" lon="-3.916637">
        <ele>883.876</ele>
        <time>2020-05-20T21:08:15Z</time>
      </trkpt>
      <trkpt lat="37.411751" lon="-3.916977">
        <ele>886.038</ele>
        <time>2020-05-20T21:08:48Z</time>
      </trkpt>
      <trkpt lat="37.411838" lon="-3.917243">
        <ele>886.930</ele>
        <time>2020-05-20T21:09:14Z</time>
      </trkpt>
      <trkpt lat="37.411913" lon="-3.917513">
        <ele>887.024</ele>
        <time>2020-05-20T21:09:39Z</time>
      </trkpt>
      <trkpt lat="37.411949" lon="-3.917761">
        <ele>888.051</ele>
        <time>2020-05-20T21:10:02Z</time>
      </trkpt>
      <trkpt lat="37.412028" lon="-3.918050">
        <ele>889.001</ele>
        <time>2020-05-20T21:10:30Z</time>
      </trkpt>
      <trkpt lat="37.412031" lon="-3.918077">
        <ele>889.011</ele>
        <time>2020-05-20T21:10:32Z</time>
      </trkpt>
      <trkpt lat="37.412089" lon="-3.918330">
        <ele>889.908</ele>
        <time>2020-05-20T21:10:56Z</time>
      </trkpt>
      <trkpt lat="37.412089" lon="-3.918339">
        <ele>890.053</ele>
        <time>2020-05-20T21:10:57Z</time>
      </trkpt>
      <trkpt lat="37.412137" lon="-3.918580">
        <ele>890.764</ele>
        <time>2020-05-20T21:11:20Z</time>
      </trkpt>
      <trkpt lat="37.412195" lon="-3.918808">
        <ele>890.761</ele>
        <time>2020-05-20T21:11:41Z</time>
      </trkpt>
      <trkpt lat="37.412291" lon="-3.919307">
        <ele>892.989</ele>
        <time>2020-05-20T21:12:28Z</time>
      </trkpt>
      <trkpt lat="37.412396" lon="-3.919718">
        <ele>894.950</ele>
        <time>2020-05-20T21:13:07Z</time>
      </trkpt>
      <trkpt lat="37.412488" lon="-3.920062">
        <ele>897.012</ele>
        <time>2020-05-20T21:13:40Z</time>
      </trkpt>
      <trkpt lat="37.412601" lon="-3.920385">
        <ele>898.444</ele>
        <time>2020-05-20T21:14:12Z</time>
      </trkpt>
      <trkpt lat="37.412665" lon="-3.920573">
        <ele>900.028</ele>
        <time>2020-05-20T21:14:30Z</time>
      </trkpt>
      <trkpt lat="37.412759" lon="-3.920833">
        <ele>902.082</ele>
        <time>2020-05-20T21:14:56Z</time>
      </trkpt>
      <trkpt lat="37.412768" lon="-3.921016">
        <ele>903.043</ele>
        <time>2020-05-20T21:15:13Z</time>
      </trkpt>
      <trkpt lat="37.412767" lon="-3.921026">
        <ele>903.017</ele>
        <time>2020-05-20T21:15:14Z</time>
      </trkpt>
      <trkpt lat="37.412782" lon="-3.921247">
        <ele>905.008</ele>
        <time>2020-05-20T21:15:34Z</time>
      </trkpt>
      <trkpt lat="37.412773" lon="-3.921445">
        <ele>906.066</ele>
        <time>2020-05-20T21:15:52Z</time>
      </trkpt>
      <trkpt lat="37.412714" lon="-3.921613">
        <ele>906.737</ele>
        <time>2020-05-20T21:16:08Z</time>
      </trkpt>
      <trkpt lat="37.412650" lon="-3.921763">
        <ele>907.414</ele>
        <time>2020-05-20T21:16:24Z</time>
      </trkpt>
      <trkpt lat="37.412573" lon="-3.921949">
        <ele>908.012</ele>
        <time>2020-05-20T21:16:43Z</time>
      </trkpt>
      <trkpt lat="37.412452" lon="-3.922133">
        <ele>908.863</ele>
        <time>2020-05-20T21:17:05Z</time>
      </trkpt>
      <trkpt lat="37.412282" lon="-3.922351">
        <ele>910.935</ele>
        <time>2020-05-20T21:17:32Z</time>
      </trkpt>
      <trkpt lat="37.412212" lon="-3.922519">
        <ele>911.197</ele>
        <time>2020-05-20T21:17:49Z</time>
      </trkpt>
      <trkpt lat="37.412151" lon="-3.922681">
        <ele>912.041</ele>
        <time>2020-05-20T21:18:06Z</time>
      </trkpt>
      <trkpt lat="37.412081" lon="-3.922836">
        <ele>913.052</ele>
        <time>2020-05-20T21:18:22Z</time>
      </trkpt>
      <trkpt lat="37.412028" lon="-3.922983">
        <ele>914.053</ele>
        <time>2020-05-20T21:18:36Z</time>
      </trkpt>
      <trkpt lat="37.411923" lon="-3.923106">
        <ele>915.308</ele>
        <time>2020-05-20T21:18:53Z</time>
      </trkpt>
      <trkpt lat="37.411815" lon="-3.923281">
        <ele>917.208</ele>
        <time>2020-05-20T21:19:13Z</time>
      </trkpt>
      <trkpt lat="37.411757" lon="-3.923425">
        <ele>918.083</ele>
        <time>2020-05-20T21:19:28Z</time>
      </trkpt>
      <trkpt lat="37.411656" lon="-3.923623">
        <ele>919.094</ele>
        <time>2020-05-20T21:19:49Z</time>
      </trkpt>
      <trkpt lat="37.411583" lon="-3.923845">
        <ele>920.021</ele>
        <time>2020-05-20T21:20:11Z</time>
      </trkpt>
      <trkpt lat="37.411543" lon="-3.923979">
        <ele>920.099</ele>
        <time>2020-05-20T21:20:24Z</time>
      </trkpt>
      <trkpt lat="37.411458" lon="-3.924193">
        <ele>921.510</ele>
        <time>2020-05-20T21:20:45Z</time>
      </trkpt>
      <trkpt lat="37.411401" lon="-3.924393">
        <ele>922.562</ele>
        <time>2020-05-20T21:21:05Z</time>
      </trkpt>
      <trkpt lat="37.411348" lon="-3.924530">
        <ele>923.594</ele>
        <time>2020-05-20T21:21:18Z</time>
      </trkpt>
      <trkpt lat="37.411293" lon="-3.924731">
        <ele>924.598</ele>
        <time>2020-05-20T21:21:38Z</time>
      </trkpt>
      <trkpt lat="37.411248" lon="-3.924918">
        <ele>925.085</ele>
        <time>2020-05-20T21:21:55Z</time>
      </trkpt>
      <trkpt lat="37.411211" lon="-3.925022">
        <ele>925.189</ele>
        <time>2020-05-20T21:22:06Z</time>
      </trkpt>
      <trkpt lat="37.411209" lon="-3.925037">
        <ele>925.517</ele>
        <time>2020-05-20T21:22:07Z</time>
      </trkpt>
      <trkpt lat="37.411162" lon="-3.925124">
        <ele>926.808</ele>
        <time>2020-05-20T21:22:17Z</time>
      </trkpt>
      <trkpt lat="37.411058" lon="-3.925449">
        <ele>928.046</ele>
        <time>2020-05-20T21:22:48Z</time>
      </trkpt>
      <trkpt lat="37.410995" lon="-3.925674">
        <ele>928.047</ele>
        <time>2020-05-20T21:23:10Z</time>
      </trkpt>
      <trkpt lat="37.410987" lon="-3.925693">
        <ele>928.044</ele>
        <time>2020-05-20T21:23:12Z</time>
      </trkpt>
      <trkpt lat="37.410927" lon="-3.925949">
        <ele>929.032</ele>
        <time>2020-05-20T21:23:36Z</time>
      </trkpt>
      <trkpt lat="37.410880" lon="-3.926182">
        <ele>929.833</ele>
        <time>2020-05-20T21:23:58Z</time>
      </trkpt>
      <trkpt lat="37.410833" lon="-3.926409">
        <ele>931.685</ele>
        <time>2020-05-20T21:24:19Z</time>
      </trkpt>
      <trkpt lat="37.410809" lon="-3.926588">
        <ele>932.087</ele>
        <time>2020-05-20T21:24:36Z</time>
      </trkpt>
      <trkpt lat="37.410751" lon="-3.926874">
        <ele>932.181</ele>
        <time>2020-05-20T21:25:02Z</time>
      </trkpt>
      <trkpt lat="37.410705" lon="-3.927123">
        <ele>932.062</ele>
        <time>2020-05-20T21:25:25Z</time>
      </trkpt>
      <trkpt lat="37.410671" lon="-3.927424">
        <ele>932.583</ele>
        <time>2020-05-20T21:25:53Z</time>
      </trkpt>
      <trkpt lat="37.410631" lon="-3.927695">
        <ele>933.211</ele>
        <time>2020-05-20T21:26:18Z</time>
      </trkpt>
      <trkpt lat="37.410594" lon="-3.927913">
        <ele>932.908</ele>
        <time>2020-05-20T21:26:38Z</time>
      </trkpt>
      <trkpt lat="37.410582" lon="-3.928079">
        <ele>933.044</ele>
        <time>2020-05-20T21:26:53Z</time>
      </trkpt>
      <trkpt lat="37.410560" lon="-3.928325">
        <ele>933.075</ele>
        <time>2020-05-20T21:27:15Z</time>
      </trkpt>
      <trkpt lat="37.410561" lon="-3.928592">
        <ele>933.562</ele>
        <time>2020-05-20T21:27:40Z</time>
      </trkpt>
      <trkpt lat="37.410561" lon="-3.928763">
        <ele>933.560</ele>
        <time>2020-05-20T21:27:55Z</time>
      </trkpt>
      <trkpt lat="37.410545" lon="-3.928971">
        <ele>933.721</ele>
        <time>2020-05-20T21:28:14Z</time>
      </trkpt>
      <trkpt lat="37.410546" lon="-3.929185">
        <ele>932.763</ele>
        <time>2020-05-20T21:28:33Z</time>
      </trkpt>
      <trkpt lat="37.410574" lon="-3.929354">
        <ele>933.095</ele>
        <time>2020-05-20T21:28:49Z</time>
      </trkpt>
      <trkpt lat="37.410592" lon="-3.929391">
        <ele>932.989</ele>
        <time>2020-05-20T21:28:53Z</time>
      </trkpt>
      <trkpt lat="37.410682" lon="-3.929739">
        <ele>931.357</ele>
        <time>2020-05-20T21:29:26Z</time>
      </trkpt>
      <trkpt lat="37.410729" lon="-3.929838">
        <ele>930.500</ele>
        <time>2020-05-20T21:29:37Z</time>
      </trkpt>
      <trkpt lat="37.410826" lon="-3.930052">
        <ele>929.820</ele>
        <time>2020-05-20T21:29:59Z</time>
      </trkpt>
      <trkpt lat="37.410969" lon="-3.930213">
        <ele>927.208</ele>
        <time>2020-05-20T21:30:21Z</time>
      </trkpt>
      <trkpt lat="37.411163" lon="-3.930451">
        <ele>927.053</ele>
        <time>2020-05-20T21:30:52Z</time>
      </trkpt>
      <trkpt lat="37.411321" lon="-3.930702">
        <ele>928.054</ele>
        <time>2020-05-20T21:31:21Z</time>
      </trkpt>
      <trkpt lat="37.411452" lon="-3.930959">
        <ele>928.641</ele>
        <time>2020-05-20T21:31:48Z</time>
      </trkpt>
      <trkpt lat="37.411662" lon="-3.931252">
        <ele>928.839</ele>
        <time>2020-05-20T21:32:24Z</time>
      </trkpt>
      <trkpt lat="37.411751" lon="-3.931402">
        <ele>928.180</ele>
        <time>2020-05-20T21:32:41Z</time>
      </trkpt>
      <trkpt lat="37.411815" lon="-3.931550">
        <ele>926.822</ele>
        <time>2020-05-20T21:32:56Z</time>
      </trkpt>
      <trkpt lat="37.411819" lon="-3.931593">
        <ele>926.954</ele>
        <time>2020-05-20T21:33:00Z</time>
      </trkpt>
      <trkpt lat="37.411828" lon="-3.931699">
        <ele>926.038</ele>
        <time>2020-05-20T21:33:10Z</time>
      </trkpt>
      <trkpt lat="37.411850" lon="-3.931903">
        <ele>925.195</ele>
        <time>2020-05-20T21:33:29Z</time>
      </trkpt>
      <trkpt lat="37.411900" lon="-3.932093">
        <ele>924.049</ele>
        <time>2020-05-20T21:33:47Z</time>
      </trkpt>
      <trkpt lat="37.411985" lon="-3.932276">
        <ele>924.023</ele>
        <time>2020-05-20T21:34:06Z</time>
      </trkpt>
      <trkpt lat="37.412055" lon="-3.932434">
        <ele>924.008</ele>
        <time>2020-05-20T21:34:22Z</time>
      </trkpt>
      <trkpt lat="37.412058" lon="-3.932441">
        <ele>924.017</ele>
        <time>2020-05-20T21:34:23Z</time>
      </trkpt>
      <trkpt lat="37.412162" lon="-3.932770">
        <ele>923.038</ele>
        <time>2020-05-20T21:34:55Z</time>
      </trkpt>
      <trkpt lat="37.412183" lon="-3.932944">
        <ele>922.515</ele>
        <time>2020-05-20T21:35:11Z</time>
      </trkpt>
      <trkpt lat="37.412178" lon="-3.933165">
        <ele>922.243</ele>
        <time>2020-05-20T21:35:31Z</time>
      </trkpt>
      <trkpt lat="37.412160" lon="-3.933431">
        <ele>921.914</ele>
        <time>2020-05-20T21:35:55Z</time>
      </trkpt>
      <trkpt lat="37.412184" lon="-3.933692">
        <ele>922.076</ele>
        <time>2020-05-20T21:36:19Z</time>
      </trkpt>
      <trkpt lat="37.412230" lon="-3.933894">
        <ele>921.238</ele>
        <time>2020-05-20T21:36:38Z</time>
      </trkpt>
      <trkpt lat="37.412283" lon="-3.934099">
        <ele>920.052</ele>
        <time>2020-05-20T21:36:57Z</time>
      </trkpt>
      <trkpt lat="37.412347" lon="-3.934271">
        <ele>919.385</ele>
        <time>2020-05-20T21:37:15Z</time>
      </trkpt>
      <trkpt lat="37.412301" lon="-3.934451">
        <ele>919.589</ele>
        <time>2020-05-20T21:37:32Z</time>
      </trkpt>
      <trkpt lat="37.412293" lon="-3.934663">
        <ele>921.017</ele>
        <time>2020-05-20T21:37:51Z</time>
      </trkpt>
      <trkpt lat="37.412411" lon="-3.934934">
        <ele>918.508</ele>
        <time>2020-05-20T21:38:19Z</time>
      </trkpt>
      <trkpt lat="37.412469" lon="-3.935014">
        <ele>918.036</ele>
        <time>2020-05-20T21:38:29Z</time>
      </trkpt>
      <trkpt lat="37.412567" lon="-3.935122">
        <ele>917.077</ele>
        <time>2020-05-20T21:38:44Z</time>
      </trkpt>
      <trkpt lat="37.412677" lon="-3.935242">
        <ele>915.364</ele>
        <time>2020-05-20T21:39:00Z</time>
      </trkpt>
      <trkpt lat="37.412784" lon="-3.935360">
        <ele>914.022</ele>
        <time>2020-05-20T21:39:17Z</time>
      </trkpt>
      <trkpt lat="37.412845" lon="-3.935465">
        <ele>913.023</ele>
        <time>2020-05-20T21:39:28Z</time>
      </trkpt>
      <trkpt lat="37.412891" lon="-3.935608">
        <ele>913.925</ele>
        <time>2020-05-20T21:39:42Z</time>
      </trkpt>
      <trkpt lat="37.412924" lon="-3.935751">
        <ele>914.537</ele>
        <time>2020-05-20T21:39:56Z</time>
      </trkpt>
      <trkpt lat="37.412930" lon="-3.935798">
        <ele>914.691</ele>
        <time>2020-05-20T21:40:00Z</time>
      </trkpt>
      <trkpt lat="37.412932" lon="-3.935810">
        <ele>914.631</ele>
        <time>2020-05-20T21:40:01Z</time>
      </trkpt>
      <trkpt lat="37.412969" lon="-3.935893">
        <ele>915.361</ele>
        <time>2020-05-20T21:40:10Z</time>
      </trkpt>
      <trkpt lat="37.413012" lon="-3.936093">
        <ele>916.007</ele>
        <time>2020-05-20T21:40:29Z</time>
      </trkpt>
      <trkpt lat="37.413000" lon="-3.936245">
        <ele>915.808</ele>
        <time>2020-05-20T21:40:43Z</time>
      </trkpt>
      <trkpt lat="37.412906" lon="-3.936347">
        <ele>915.091</ele>
        <time>2020-05-20T21:40:57Z</time>
      </trkpt>
      <trkpt lat="37.412884" lon="-3.936458">
        <ele>914.832</ele>
        <time>2020-05-20T21:41:07Z</time>
      </trkpt>
      <trkpt lat="37.412885" lon="-3.936596">
        <ele>914.699</ele>
        <time>2020-05-20T21:41:20Z</time>
      </trkpt>
      <trkpt lat="37.412847" lon="-3.936731">
        <ele>912.597</ele>
        <time>2020-05-20T21:41:33Z</time>
      </trkpt>
      <trkpt lat="37.412785" lon="-3.936826">
        <ele>912.038</ele>
        <time>2020-05-20T21:41:44Z</time>
      </trkpt>
      <trkpt lat="37.412812" lon="-3.937028">
        <ele>910.720</ele>
        <time>2020-05-20T21:42:02Z</time>
      </trkpt>
      <trkpt lat="37.412820" lon="-3.937215">
        <ele>909.062</ele>
        <time>2020-05-20T21:42:19Z</time>
      </trkpt>
      <trkpt lat="37.412835" lon="-3.937412">
        <ele>908.016</ele>
        <time>2020-05-20T21:42:37Z</time>
      </trkpt>
      <trkpt lat="37.412859" lon="-3.937697">
        <ele>908.311</ele>
        <time>2020-05-20T21:43:03Z</time>
      </trkpt>
      <trkpt lat="37.412860" lon="-3.938010">
        <ele>909.021</ele>
        <time>2020-05-20T21:43:32Z</time>
      </trkpt>
      <trkpt lat="37.412856" lon="-3.938225">
        <ele>909.903</ele>
        <time>2020-05-20T21:43:51Z</time>
      </trkpt>
      <trkpt lat="37.412843" lon="-3.938446">
        <ele>910.708</ele>
        <time>2020-05-20T21:44:11Z</time>
      </trkpt>
      <trkpt lat="37.412810" lon="-3.938501">
        <ele>911.039</ele>
        <time>2020-05-20T21:44:17Z</time>
      </trkpt>
      <trkpt lat="37.412687" lon="-3.938552">
        <ele>911.030</ele>
        <time>2020-05-20T21:44:32Z</time>
      </trkpt>
      <trkpt lat="37.412428" lon="-3.938586">
        <ele>911.367</ele>
        <time>2020-05-20T21:45:02Z</time>
      </trkpt>
      <trkpt lat="37.412134" lon="-3.938664">
        <ele>913.655</ele>
        <time>2020-05-20T21:45:36Z</time>
      </trkpt>
      <trkpt lat="37.411820" lon="-3.938828">
        <ele>914.036</ele>
        <time>2020-05-20T21:46:15Z</time>
      </trkpt>
      <trkpt lat="37.411634" lon="-3.938929">
        <ele>914.058</ele>
        <time>2020-05-20T21:46:38Z</time>
      </trkpt>
      <trkpt lat="37.411457" lon="-3.939080">
        <ele>913.910</ele>
        <time>2020-05-20T21:47:02Z</time>
      </trkpt>
      <trkpt lat="37.411211" lon="-3.939256">
        <ele>914.074</ele>
        <time>2020-05-20T21:47:34Z</time>
      </trkpt>
      <trkpt lat="37.410969" lon="-3.939415">
        <ele>913.862</ele>
        <time>2020-05-20T21:48:05Z</time>
      </trkpt>
      <trkpt lat="37.410799" lon="-3.939540">
        <ele>913.783</ele>
        <time>2020-05-20T21:48:28Z</time>
      </trkpt>
      <trkpt lat="37.410537" lon="-3.939723">
        <ele>913.011</ele>
        <time>2020-05-20T21:49:02Z</time>
      </trkpt>
      <trkpt lat="37.410360" lon="-3.939876">
        <ele>913.008</ele>
        <time>2020-05-20T21:49:26Z</time>
      </trkpt>
      <trkpt lat="37.410179" lon="-3.940006">
        <ele>913.094</ele>
        <time>2020-05-20T21:49:50Z</time>
      </trkpt>
      <trkpt lat="37.410044" lon="-3.940146">
        <ele>913.065</ele>
        <time>2020-05-20T21:50:10Z</time>
      </trkpt>
      <trkpt lat="37.409892" lon="-3.940283">
        <ele>912.022</ele>
        <time>2020-05-20T21:50:31Z</time>
      </trkpt>
      <trkpt lat="37.409794" lon="-3.940510">
        <ele>911.540</ele>
        <time>2020-05-20T21:50:55Z</time>
      </trkpt>
      <trkpt lat="37.409675" lon="-3.940733">
        <ele>908.811</ele>
        <time>2020-05-20T21:51:19Z</time>
      </trkpt>
      <trkpt lat="37.409561" lon="-3.940801">
        <ele>908.713</ele>
        <time>2020-05-20T21:51:34Z</time>
      </trkpt>
      <trkpt lat="37.409379" lon="-3.940923">
        <ele>908.615</ele>
        <time>2020-05-20T21:51:57Z</time>
      </trkpt>
      <trkpt lat="37.409201" lon="-3.941097">
        <ele>908.439</ele>
        <time>2020-05-20T21:52:23Z</time>
      </trkpt>
      <trkpt lat="37.409083" lon="-3.941252">
        <ele>907.911</ele>
        <time>2020-05-20T21:52:42Z</time>
      </trkpt>
      <trkpt lat="37.408963" lon="-3.941368">
        <ele>907.221</ele>
        <time>2020-05-20T21:52:59Z</time>
      </trkpt>
      <trkpt lat="37.408805" lon="-3.941464">
        <ele>907.003</ele>
        <time>2020-05-20T21:53:19Z</time>
      </trkpt>
      <trkpt lat="37.408631" lon="-3.941530">
        <ele>908.108</ele>
        <time>2020-05-20T21:53:40Z</time>
      </trkpt>
      <trkpt lat="37.408301" lon="-3.941634">
        <ele>910.469</ele>
        <time>2020-05-20T21:54:19Z</time>
      </trkpt>
      <trkpt lat="37.408054" lon="-3.941703">
        <ele>912.950</ele>
        <time>2020-05-20T21:54:48Z</time>
      </trkpt>
      <trkpt lat="37.407793" lon="-3.941795">
        <ele>913.067</ele>
        <time>2020-05-20T21:55:19Z</time>
      </trkpt>
      <trkpt lat="37.407560" lon="-3.941861">
        <ele>914.025</ele>
        <time>2020-05-20T21:55:46Z</time>
      </trkpt>
      <trkpt lat="37.407290" lon="-3.941945">
        <ele>915.056</ele>
        <time>2020-05-20T21:56:18Z</time>
      </trkpt>
      <trkpt lat="37.407046" lon="-3.942040">
        <ele>915.488</ele>
        <time>2020-05-20T21:56:47Z</time>
      </trkpt>
      <trkpt lat="37.406824" lon="-3.942159">
        <ele>917.090</ele>
        <time>2020-05-20T21:57:14Z</time>
      </trkpt>
      <trkpt lat="37.406701" lon="-3.942235">
        <ele>917.034</ele>
        <time>2020-05-20T21:57:30Z</time>
      </trkpt>
      <trkpt lat="37.406529" lon="-3.942278">
        <ele>917.787</ele>
        <time>2020-05-20T21:57:50Z</time>
      </trkpt>
      <trkpt lat="37.406379" lon="-3.942358">
        <ele>918.042</ele>
        <time>2020-05-20T21:58:08Z</time>
      </trkpt>
      <trkpt lat="37.406203" lon="-3.942441">
        <ele>919.026</ele>
        <time>2020-05-20T21:58:30Z</time>
      </trkpt>
      <trkpt lat="37.406045" lon="-3.942567">
        <ele>919.008</ele>
        <time>2020-05-20T21:58:51Z</time>
      </trkpt>
      <trkpt lat="37.405873" lon="-3.942684">
        <ele>919.046</ele>
        <time>2020-05-20T21:59:13Z</time>
      </trkpt>
      <trkpt lat="37.405741" lon="-3.942795">
        <ele>919.017</ele>
        <time>2020-05-20T21:59:32Z</time>
      </trkpt>
      <trkpt lat="37.405626" lon="-3.942873">
        <ele>918.874</ele>
        <time>2020-05-20T21:59:46Z</time>
      </trkpt>
      <trkpt lat="37.405364" lon="-3.943103">
        <ele>918.072</ele>
        <time>2020-05-20T22:00:23Z</time>
      </trkpt>
      <trkpt lat="37.405181" lon="-3.943245">
        <ele>918.153</ele>
        <time>2020-05-20T22:00:47Z</time>
      </trkpt>
      <trkpt lat="37.404982" lon="-3.943373">
        <ele>917.575</ele>
        <time>2020-05-20T22:01:13Z</time>
      </trkpt>
      <trkpt lat="37.404802" lon="-3.943547">
        <ele>918.397</ele>
        <time>2020-05-20T22:01:39Z</time>
      </trkpt>
      <trkpt lat="37.404670" lon="-3.943657">
        <ele>918.291</ele>
        <time>2020-05-20T22:01:57Z</time>
      </trkpt>
      <trkpt lat="37.404539" lon="-3.943844">
        <ele>919.018</ele>
        <time>2020-05-20T22:02:19Z</time>
      </trkpt>
      <trkpt lat="37.404447" lon="-3.944022">
        <ele>919.098</ele>
        <time>2020-05-20T22:02:38Z</time>
      </trkpt>
      <trkpt lat="37.404383" lon="-3.944213">
        <ele>919.817</ele>
        <time>2020-05-20T22:02:57Z</time>
      </trkpt>
      <trkpt lat="37.404351" lon="-3.944371">
        <ele>918.308</ele>
        <time>2020-05-20T22:03:12Z</time>
      </trkpt>
      <trkpt lat="37.404353" lon="-3.944412">
        <ele>918.369</ele>
        <time>2020-05-20T22:03:16Z</time>
      </trkpt>
      <trkpt lat="37.404338" lon="-3.944628">
        <ele>918.040</ele>
        <time>2020-05-20T22:03:35Z</time>
      </trkpt>
      <trkpt lat="37.404313" lon="-3.944828">
        <ele>918.697</ele>
        <time>2020-05-20T22:03:54Z</time>
      </trkpt>
      <trkpt lat="37.404224" lon="-3.945062">
        <ele>917.025</ele>
        <time>2020-05-20T22:04:17Z</time>
      </trkpt>
      <trkpt lat="37.404182" lon="-3.945276">
        <ele>917.376</ele>
        <time>2020-05-20T22:04:37Z</time>
      </trkpt>
      <trkpt lat="37.404122" lon="-3.945594">
        <ele>915.258</ele>
        <time>2020-05-20T22:05:07Z</time>
      </trkpt>
      <trkpt lat="37.404046" lon="-3.945946">
        <ele>913.680</ele>
        <time>2020-05-20T22:05:40Z</time>
      </trkpt>
      <trkpt lat="37.403999" lon="-3.946149">
        <ele>914.024</ele>
        <time>2020-05-20T22:05:59Z</time>
      </trkpt>
      <trkpt lat="37.403944" lon="-3.946275">
        <ele>914.098</ele>
        <time>2020-05-20T22:06:12Z</time>
      </trkpt>
      <trkpt lat="37.403886" lon="-3.946482">
        <ele>914.015</ele>
        <time>2020-05-20T22:06:32Z</time>
      </trkpt>
      <trkpt lat="37.403846" lon="-3.946647">
        <ele>914.326</ele>
        <time>2020-05-20T22:06:47Z</time>
      </trkpt>
      <trkpt lat="37.403796" lon="-3.946786">
        <ele>914.208</ele>
        <time>2020-05-20T22:07:01Z</time>
      </trkpt>
      <trkpt lat="37.403707" lon="-3.946950">
        <ele>913.277</ele>
        <time>2020-05-20T22:07:19Z</time>
      </trkpt>
      <trkpt lat="37.403597" lon="-3.947094">
        <ele>912.978</ele>
        <time>2020-05-20T22:07:37Z</time>
      </trkpt>
      <trkpt lat="37.403498" lon="-3.947320">
        <ele>911.715</ele>
        <time>2020-05-20T22:08:01Z</time>
      </trkpt>
      <trkpt lat="37.403421" lon="-3.947467">
        <ele>912.033</ele>
        <time>2020-05-20T22:08:17Z</time>
      </trkpt>
      <trkpt lat="37.403331" lon="-3.947610">
        <ele>912.224</ele>
        <time>2020-05-20T22:08:33Z</time>
      </trkpt>
      <trkpt lat="37.403250" lon="-3.947760">
        <ele>910.736</ele>
        <time>2020-05-20T22:08:50Z</time>
      </trkpt>
      <trkpt lat="37.403188" lon="-3.947959">
        <ele>908.988</ele>
        <time>2020-05-20T22:09:09Z</time>
      </trkpt>
      <trkpt lat="37.403185" lon="-3.948102">
        <ele>907.642</ele>
        <time>2020-05-20T22:09:22Z</time>
      </trkpt>
      <trkpt lat="37.403234" lon="-3.948264">
        <ele>907.979</ele>
        <time>2020-05-20T22:09:38Z</time>
      </trkpt>
      <trkpt lat="37.403257" lon="-3.948413">
        <ele>908.705</ele>
        <time>2020-05-20T22:09:52Z</time>
      </trkpt>
      <trkpt lat="37.403270" lon="-3.948568">
        <ele>909.225</ele>
        <time>2020-05-20T22:10:06Z</time>
      </trkpt>
      <trkpt lat="37.403288" lon="-3.948711">
        <ele>908.808</ele>
        <time>2020-05-20T22:10:19Z</time>
      </trkpt>
      <trkpt lat="37.403355" lon="-3.948823">
        <ele>909.855</ele>
        <time>2020-05-20T22:10:31Z</time>
      </trkpt>
      <trkpt lat="37.403498" lon="-3.949025">
        <ele>910.926</ele>
        <time>2020-05-20T22:10:56Z</time>
      </trkpt>
      <trkpt lat="37.403606" lon="-3.949167">
        <ele>912.053</ele>
        <time>2020-05-20T22:11:14Z</time>
      </trkpt>
      <trkpt lat="37.403805" lon="-3.949322">
        <ele>915.321</ele>
        <time>2020-05-20T22:11:41Z</time>
      </trkpt>
      <trkpt lat="37.404068" lon="-3.949499">
        <ele>918.372</ele>
        <time>2020-05-20T22:12:15Z</time>
      </trkpt>
      <trkpt lat="37.404070" lon="-3.949499">
        <ele>918.334</ele>
        <time>2020-05-20T22:12:15Z</time>
      </trkpt>
      <trkpt lat="37.404262" lon="-3.949620">
        <ele>919.466</ele>
        <time>2020-05-20T22:12:39Z</time>
      </trkpt>
      <trkpt lat="37.404276" lon="-3.949624">
        <ele>919.950</ele>
        <time>2020-05-20T22:12:41Z</time>
      </trkpt>
      <trkpt lat="37.404419" lon="-3.949715">
        <ele>920.277</ele>
        <time>2020-05-20T22:12:59Z</time>
      </trkpt>
      <trkpt lat="37.404576" lon="-3.949850">
        <ele>920.361</ele>
        <time>2020-05-20T22:13:21Z</time>
      </trkpt>
      <trkpt lat="37.404723" lon="-3.949953">
        <ele>920.927</ele>
        <time>2020-05-20T22:13:40Z</time>
      </trkpt>
      <trkpt lat="37.404731" lon="-3.949957">
        <ele>921.008</ele>
        <time>2020-05-20T22:13:41Z</time>
      </trkpt>
      <trkpt lat="37.404748" lon="-3.949968">
        <ele>921.215</ele>
        <time>2020-05-20T22:13:43Z</time>
      </trkpt>
      <trkpt lat="37.404774" lon="-3.949986">
        <ele>921.236</ele>
        <time>2020-05-20T22:13:47Z</time>
      </trkpt>
      <trkpt lat="37.404793" lon="-3.950007">
        <ele>921.123</ele>
        <time>2020-05-20T22:13:50Z</time>
      </trkpt>
      <trkpt lat="37.404873" lon="-3.950043">
        <ele>921.771</ele>
        <time>2020-05-20T22:13:59Z</time>
      </trkpt>
      <trkpt lat="37.404952" lon="-3.950095">
        <ele>922.982</ele>
        <time>2020-05-20T22:14:10Z</time>
      </trkpt>
      <trkpt lat="37.405040" lon="-3.950185">
        <ele>922.174</ele>
        <time>2020-05-20T22:14:23Z</time>
      </trkpt>
      <trkpt lat="37.405116" lon="-3.950295">
        <ele>921.966</ele>
        <time>2020-05-20T22:14:36Z</time>
      </trkpt>
      <trkpt lat="37.405205" lon="-3.950408">
        <ele>922.030</ele>
        <time>2020-05-20T22:14:50Z</time>
      </trkpt>
      <trkpt lat="37.405327" lon="-3.950536">
        <ele>921.038</ele>
        <time>2020-05-20T22:15:08Z</time>
      </trkpt>
      <trkpt lat="37.405483" lon="-3.950564">
        <ele>921.870</ele>
        <time>2020-05-20T22:15:26Z</time>
      </trkpt>
      <trkpt lat="37.405494" lon="-3.950565">
        <ele>922.017</ele>
        <time>2020-05-20T22:15:27Z</time>
      </trkpt>
      <trkpt lat="37.405607" lon="-3.950597">
        <ele>923.508</ele>
        <time>2020-05-20T22:15:41Z</time>
      </trkpt>
      <trkpt lat="37.405614" lon="-3.950600">
        <ele>923.521</ele>
        <time>2020-05-20T22:15:42Z</time>
      </trkpt>
      <trkpt lat="37.405728" lon="-3.950718">
        <ele>923.772</ele>
        <time>2020-05-20T22:15:58Z</time>
      </trkpt>
      <trkpt lat="37.405868" lon="-3.950856">
        <ele>923.469</ele>
        <time>2020-05-20T22:16:19Z</time>
      </trkpt>
      <trkpt lat="37.406018" lon="-3.950943">
        <ele>924.927</ele>
        <time>2020-05-20T22:16:38Z</time>
      </trkpt>
      <trkpt lat="37.406077" lon="-3.950983">
        <ele>925.318</ele>
        <time>2020-05-20T22:16:45Z</time>
      </trkpt>
      <trkpt lat="37.406220" lon="-3.951059">
        <ele>925.820</ele>
        <time>2020-05-20T22:17:03Z</time>
      </trkpt>
      <trkpt lat="37.406331" lon="-3.951140">
        <ele>925.492</ele>
        <time>2020-05-20T22:17:17Z</time>
      </trkpt>
      <trkpt lat="37.406343" lon="-3.951143">
        <ele>925.626</ele>
        <time>2020-05-20T22:17:19Z</time>
      </trkpt>
      <trkpt lat="37.406454" lon="-3.951207">
        <ele>926.614</ele>
        <time>2020-05-20T22:17:33Z</time>
      </trkpt>
      <trkpt lat="37.406608" lon="-3.951292">
        <ele>926.954</ele>
        <time>2020-05-20T22:17:52Z</time>
      </trkpt>
      <trkpt lat="37.406749" lon="-3.951364">
        <ele>927.709</ele>
        <time>2020-05-20T22:18:09Z</time>
      </trkpt>
      <trkpt lat="37.406904" lon="-3.951457">
        <ele>929.408</ele>
        <time>2020-05-20T22:18:29Z</time>
      </trkpt>
      <trkpt lat="37.407047" lon="-3.951566">
        <ele>931.629</ele>
        <time>2020-05-20T22:18:48Z</time>
      </trkpt>
      <trkpt lat="37.407208" lon="-3.951719">
        <ele>934.170</ele>
        <time>2020-05-20T22:19:11Z</time>
      </trkpt>
      <trkpt lat="37.407216" lon="-3.951720">
        <ele>934.577</ele>
        <time>2020-05-20T22:19:12Z</time>
      </trkpt>
      <trkpt lat="37.407323" lon="-3.951777">
        <ele>937.845</ele>
        <time>2020-05-20T22:19:26Z</time>
      </trkpt>
      <trkpt lat="37.407424" lon="-3.951893">
        <ele>938.756</ele>
        <time>2020-05-20T22:19:42Z</time>
      </trkpt>
      <trkpt lat="37.407513" lon="-3.951949">
        <ele>940.878</ele>
        <time>2020-05-20T22:19:53Z</time>
      </trkpt>
      <trkpt lat="37.407616" lon="-3.952036">
        <ele>942.230</ele>
        <time>2020-05-20T22:20:07Z</time>
      </trkpt>
      <trkpt lat="37.407682" lon="-3.952086">
        <ele>942.224</ele>
        <time>2020-05-20T22:20:16Z</time>
      </trkpt>
      <trkpt lat="37.407759" lon="-3.952123">
        <ele>944.399</ele>
        <time>2020-05-20T22:20:26Z</time>
      </trkpt>
      <trkpt lat="37.407852" lon="-3.952178">
        <ele>945.607</ele>
        <time>2020-05-20T22:20:37Z</time>
      </trkpt>
      <trkpt lat="37.407926" lon="-3.952226">
        <ele>946.527</ele>
        <time>2020-05-20T22:20:47Z</time>
      </trkpt>
      <trkpt lat="37.408022" lon="-3.952280">
        <ele>948.408</ele>
        <time>2020-05-20T22:20:59Z</time>
      </trkpt>
      <trkpt lat="37.408149" lon="-3.952335">
        <ele>948.277</ele>
        <time>2020-05-20T22:21:14Z</time>
      </trkpt>
      <trkpt lat="37.408302" lon="-3.952359">
        <ele>950.318</ele>
        <time>2020-05-20T22:21:32Z</time>
      </trkpt>
      <trkpt lat="37.408536" lon="-3.952463">
        <ele>951.695</ele>
        <time>2020-05-20T22:22:00Z</time>
      </trkpt>
      <trkpt lat="37.408672" lon="-3.952519">
        <ele>952.673</ele>
        <time>2020-05-20T22:22:17Z</time>
      </trkpt>
      <trkpt lat="37.408865" lon="-3.952625">
        <ele>953.334</ele>
        <time>2020-05-20T22:22:41Z</time>
      </trkpt>
      <trkpt lat="37.409003" lon="-3.952700">
        <ele>954.996</ele>
        <time>2020-05-20T22:22:58Z</time>
      </trkpt>
      <trkpt lat="37.409090" lon="-3.952753">
        <ele>955.778</ele>
        <time>2020-05-20T22:23:09Z</time>
      </trkpt>
      <trkpt lat="37.409216" lon="-3.952828">
        <ele>956.762</ele>
        <time>2020-05-20T22:23:25Z</time>
      </trkpt>
      <trkpt lat="37.409327" lon="-3.952880">
        <ele>958.718</ele>
        <time>2020-05-20T22:23:38Z</time>
      </trkpt>
      <trkpt lat="37.409438" lon="-3.952966">
        <ele>961.098</ele>
        <time>2020-05-20T22:23:53Z</time>
      </trkpt>
      <trkpt lat="37.409525" lon="-3.953032">
        <ele>962.117</ele>
        <time>2020-05-20T22:24:05Z</time>
      </trkpt>
      <trkpt lat="37.409580" lon="-3.953166">
        <ele>961.208</ele>
        <time>2020-05-20T22:24:19Z</time>
      </trkpt>
      <trkpt lat="37.409649" lon="-3.953281">
        <ele>961.199</ele>
        <time>2020-05-20T22:24:32Z</time>
      </trkpt>
      <trkpt lat="37.409711" lon="-3.953377">
        <ele>962.520</ele>
        <time>2020-05-20T22:24:43Z</time>
      </trkpt>
      <trkpt lat="37.409760" lon="-3.953465">
        <ele>963.937</ele>
        <time>2020-05-20T22:24:53Z</time>
      </trkpt>
      <trkpt lat="37.409832" lon="-3.953545">
        <ele>964.645</ele>
        <time>2020-05-20T22:25:04Z</time>
      </trkpt>
      <trkpt lat="37.409897" lon="-3.953562">
        <ele>965.786</ele>
        <time>2020-05-20T22:25:12Z</time>
      </trkpt>
      <trkpt lat="37.410033" lon="-3.953619">
        <ele>966.128</ele>
        <time>2020-05-20T22:25:28Z</time>
      </trkpt>
      <trkpt lat="37.410120" lon="-3.953662">
        <ele>965.730</ele>
        <time>2020-05-20T22:25:38Z</time>
      </trkpt>
      <trkpt lat="37.410194" lon="-3.953709">
        <ele>966.064</ele>
        <time>2020-05-20T22:25:48Z</time>
      </trkpt>
      <trkpt lat="37.410310" lon="-3.953747">
        <ele>968.276</ele>
        <time>2020-05-20T22:26:02Z</time>
      </trkpt>
      <trkpt lat="37.410358" lon="-3.953814">
        <ele>968.990</ele>
        <time>2020-05-20T22:26:10Z</time>
      </trkpt>
      <trkpt lat="37.410360" lon="-3.953814">
        <ele>969.019</ele>
        <time>2020-05-20T22:26:10Z</time>
      </trkpt>
      <trkpt lat="37.410435" lon="-3.953860">
        <ele>970.608</ele>
        <time>2020-05-20T22:26:20Z</time>
      </trkpt>
      <trkpt lat="37.410524" lon="-3.953903">
        <ele>972.565</ele>
        <time>2020-05-20T22:26:31Z</time>
      </trkpt>
      <trkpt lat="37.410661" lon="-3.953912">
        <ele>974.656</ele>
        <time>2020-05-20T22:26:47Z</time>
      </trkpt>
      <trkpt lat="37.410793" lon="-3.953883">
        <ele>977.713</ele>
        <time>2020-05-20T22:27:02Z</time>
      </trkpt>
      <trkpt lat="37.410961" lon="-3.953850">
        <ele>980.641</ele>
        <time>2020-05-20T22:27:22Z</time>
      </trkpt>
      <trkpt lat="37.411061" lon="-3.953840">
        <ele>982.482</ele>
        <time>2020-05-20T22:27:33Z</time>
      </trkpt>
      <trkpt lat="37.411216" lon="-3.953816">
        <ele>986.044</ele>
        <time>2020-05-20T22:27:52Z</time>
      </trkpt>
      <trkpt lat="37.411298" lon="-3.953813">
        <ele>986.486</ele>
        <time>2020-05-20T22:28:01Z</time>
      </trkpt>
      <trkpt lat="37.411308" lon="-3.953897">
        <ele>986.070</ele>
        <time>2020-05-20T22:28:09Z</time>
      </trkpt>
      <trkpt lat="37.411361" lon="-3.953920">
        <ele>986.753</ele>
        <time>2020-05-20T22:28:15Z</time>
      </trkpt>
      <trkpt lat="37.411500" lon="-3.953861">
        <ele>989.904</ele>
        <time>2020-05-20T22:28:32Z</time>
      </trkpt>
      <trkpt lat="37.411610" lon="-3.953813">
        <ele>992.314</ele>
        <time>2020-05-20T22:28:46Z</time>
      </trkpt>
      <trkpt lat="37.411717" lon="-3.953758">
        <ele>994.108</ele>
        <time>2020-05-20T22:28:59Z</time>
      </trkpt>
      <trkpt lat="37.411764" lon="-3.953749">
        <ele>994.923</ele>
        <time>2020-05-20T22:29:04Z</time>
      </trkpt>
      <trkpt lat="37.411799" lon="-3.953670">
        <ele>995.164</ele>
        <time>2020-05-20T22:29:12Z</time>
      </trkpt>
      <trkpt lat="37.411845" lon="-3.953570">
        <ele>995.371</ele>
        <time>2020-05-20T22:29:23Z</time>
      </trkpt>
      <trkpt lat="37.411851" lon="-3.953562">
        <ele>995.499</ele>
        <time>2020-05-20T22:29:24Z</time>
      </trkpt>
      <trkpt lat="37.411934" lon="-3.953530">
        <ele>996.920</ele>
        <time>2020-05-20T22:29:34Z</time>
      </trkpt>
      <trkpt lat="37.412123" lon="-3.953484">
        <ele>999.322</ele>
        <time>2020-05-20T22:29:56Z</time>
      </trkpt>
      <trkpt lat="37.412287" lon="-3.953440">
        <ele>1001.034</ele>
        <time>2020-05-20T22:30:15Z</time>
      </trkpt>
      <trkpt lat="37.412377" lon="-3.953417">
        <ele>1001.868</ele>
        <time>2020-05-20T22:30:26Z</time>
      </trkpt>
      <trkpt lat="37.412510" lon="-3.953366">
        <ele>1004.658</ele>
        <time>2020-05-20T22:30:42Z</time>
      </trkpt>
      <trkpt lat="37.412665" lon="-3.953325">
        <ele>1006.952</ele>
        <time>2020-05-20T22:31:00Z</time>
      </trkpt>
      <trkpt lat="37.412855" lon="-3.953286">
        <ele>1009.317</ele>
        <time>2020-05-20T22:31:22Z</time>
      </trkpt>
      <trkpt lat="37.412923" lon="-3.953277">
        <ele>1010.208</ele>
        <time>2020-05-20T22:31:30Z</time>
      </trkpt>
      <trkpt lat="37.412923" lon="-3.953277">
        <ele>1010.241</ele>
        <time>2020-05-20T22:31:30Z</time>
      </trkpt>
      <trkpt lat="37.412905" lon="-3.953315">
        <ele>1010.281</ele>
        <time>2020-05-20T22:31:34Z</time>
      </trkpt>
      <trkpt lat="37.412812" lon="-3.953314">
        <ele>1008.509</ele>
        <time>2020-05-20T22:31:45Z</time>
      </trkpt>
      <trkpt lat="37.412717" lon="-3.953341">
        <ele>1007.808</ele>
        <time>2020-05-20T22:31:56Z</time>
      </trkpt>
      <trkpt lat="37.412613" lon="-3.953350">
        <ele>1006.012</ele>
        <time>2020-05-20T22:32:08Z</time>
      </trkpt>
      <trkpt lat="37.412546" lon="-3.953372">
        <ele>1004.933</ele>
        <time>2020-05-20T22:32:16Z</time>
      </trkpt>
      <trkpt lat="37.412459" lon="-3.953399">
        <ele>1003.210</ele>
        <time>2020-05-20T22:32:26Z</time>
      </trkpt>
      <trkpt lat="37.412409" lon="-3.953420">
        <ele>1002.458</ele>
        <time>2020-05-20T22:32:32Z</time>
      </trkpt>
      <trkpt lat="37.412338" lon="-3.953451">
        <ele>1001.160</ele>
        <time>2020-05-20T22:32:41Z</time>
      </trkpt>
      <trkpt lat="37.412263" lon="-3.953467">
        <ele>1000.835</ele>
        <time>2020-05-20T22:32:49Z</time>
      </trkpt>
      <trkpt lat="37.412149" lon="-3.953497">
        <ele>999.750</ele>
        <time>2020-05-20T22:33:03Z</time>
      </trkpt>
      <trkpt lat="37.412060" lon="-3.953526">
        <ele>999.064</ele>
        <time>2020-05-20T22:33:13Z</time>
      </trkpt>
      <trkpt lat="37.411981" lon="-3.953543">
        <ele>997.818</ele>
        <time>2020-05-20T22:33:22Z</time>
      </trkpt>
      <trkpt lat="37.411898" lon="-3.953565">
        <ele>996.398</ele>
        <time>2020-05-20T22:33:32Z</time>
      </trkpt>
      <trkpt lat="37.411863" lon="-3.953584">
        <ele>995.717</ele>
        <time>2020-05-20T22:33:37Z</time>
      </trkpt>
      <trkpt lat="37.411834" lon="-3.953634">
        <ele>995.108</ele>
        <time>2020-05-20T22:33:42Z</time>
      </trkpt>
      <trkpt lat="37.411808" lon="-3.953679">
        <ele>995.319</ele>
        <time>2020-05-20T22:33:47Z</time>
      </trkpt>
      <trkpt lat="37.411778" lon="-3.953748">
        <ele>995.130</ele>
        <time>2020-05-20T22:33:54Z</time>
      </trkpt>
      <trkpt lat="37.411733" lon="-3.953777">
        <ele>994.357</ele>
        <time>2020-05-20T22:34:00Z</time>
      </trkpt>
      <trkpt lat="37.411689" lon="-3.953796">
        <ele>994.085</ele>
        <time>2020-05-20T22:34:05Z</time>
      </trkpt>
      <trkpt lat="37.411610" lon="-3.953825">
        <ele>992.357</ele>
        <time>2020-05-20T22:34:15Z</time>
      </trkpt>
      <trkpt lat="37.411529" lon="-3.953861">
        <ele>990.632</ele>
        <time>2020-05-20T22:34:25Z</time>
      </trkpt>
      <trkpt lat="37.411474" lon="-3.953890">
        <ele>989.087</ele>
        <time>2020-05-20T22:34:32Z</time>
      </trkpt>
      <trkpt lat="37.411399" lon="-3.953927">
        <ele>987.861</ele>
        <time>2020-05-20T22:34:41Z</time>
      </trkpt>
      <trkpt lat="37.411362" lon="-3.953940">
        <ele>986.816</ele>
        <time>2020-05-20T22:34:46Z</time>
      </trkpt>
      <trkpt lat="37.411319" lon="-3.953920">
        <ele>986.076</ele>
        <time>2020-05-20T22:34:51Z</time>
      </trkpt>
      <trkpt lat="37.411293" lon="-3.953907">
        <ele>986.013</ele>
        <time>2020-05-20T22:34:54Z</time>
      </trkpt>
      <trkpt lat="37.411284" lon="-3.953843">
        <ele>986.008</ele>
        <time>2020-05-20T22:35:00Z</time>
      </trkpt>
      <trkpt lat="37.411249" lon="-3.953836">
        <ele>986.029</ele>
        <time>2020-05-20T22:35:04Z</time>
      </trkpt>
      <trkpt lat="37.411184" lon="-3.953842">
        <ele>985.230</ele>
        <time>2020-05-20T22:35:12Z</time>
      </trkpt>
      <trkpt lat="37.411095" lon="-3.953858">
        <ele>983.027</ele>
        <time>2020-05-20T22:35:22Z</time>
      </trkpt>
      <trkpt lat="37.411002" lon="-3.953865">
        <ele>981.415</ele>
        <time>2020-05-20T22:35:33Z</time>
      </trkpt>
      <trkpt lat="37.410842" lon="-3.953887">
        <ele>978.557</ele>
        <time>2020-05-20T22:35:51Z</time>
      </trkpt>
      <trkpt lat="37.410732" lon="-3.953912">
        <ele>976.612</ele>
        <time>2020-05-20T22:36:04Z</time>
      </trkpt>
      <trkpt lat="37.410633" lon="-3.953922">
        <ele>973.897</ele>
        <time>2020-05-20T22:36:16Z</time>
      </trkpt>
      <trkpt lat="37.410568" lon="-3.953920">
        <ele>972.821</ele>
        <time>2020-05-20T22:36:23Z</time>
      </trkpt>
      <trkpt lat="37.410481" lon="-3.953898">
        <ele>971.936</ele>
        <time>2020-05-20T22:36:34Z</time>
      </trkpt>
      <trkpt lat="37.410386" lon="-3.953845">
        <ele>969.417</ele>
        <time>2020-05-20T22:36:46Z</time>
      </trkpt>
      <trkpt lat="37.410319" lon="-3.953794">
        <ele>968.218</ele>
        <time>2020-05-20T22:36:55Z</time>
      </trkpt>
      <trkpt lat="37.410286" lon="-3.953753">
        <ele>967.708</ele>
        <time>2020-05-20T22:37:00Z</time>
      </trkpt>
      <trkpt lat="37.410032" lon="-3.953630">
        <ele>965.871</ele>
        <time>2020-05-20T22:37:31Z</time>
      </trkpt>
      <trkpt lat="37.409920" lon="-3.953596">
        <ele>965.672</ele>
        <time>2020-05-20T22:37:44Z</time>
      </trkpt>
      <trkpt lat="37.409830" lon="-3.953565">
        <ele>964.639</ele>
        <time>2020-05-20T22:37:55Z</time>
      </trkpt>
      <trkpt lat="37.409730" lon="-3.953445">
        <ele>962.977</ele>
        <time>2020-05-20T22:38:11Z</time>
      </trkpt>
      <trkpt lat="37.409667" lon="-3.953323">
        <ele>961.359</ele>
        <time>2020-05-20T22:38:24Z</time>
      </trkpt>
      <trkpt lat="37.409613" lon="-3.953231">
        <ele>960.934</ele>
        <time>2020-05-20T22:38:34Z</time>
      </trkpt>
      <trkpt lat="37.409543" lon="-3.953111">
        <ele>960.259</ele>
        <time>2020-05-20T22:38:48Z</time>
      </trkpt>
      <trkpt lat="37.409518" lon="-3.953055">
        <ele>961.433</ele>
        <time>2020-05-20T22:38:54Z</time>
      </trkpt>
      <trkpt lat="37.409421" lon="-3.952974">
        <ele>959.669</ele>
        <time>2020-05-20T22:39:07Z</time>
      </trkpt>
      <trkpt lat="37.409343" lon="-3.952909">
        <ele>958.804</ele>
        <time>2020-05-20T22:39:18Z</time>
      </trkpt>
      <trkpt lat="37.409265" lon="-3.952876">
        <ele>956.924</ele>
        <time>2020-05-20T22:39:27Z</time>
      </trkpt>
      <trkpt lat="37.409153" lon="-3.952800">
        <ele>955.308</ele>
        <time>2020-05-20T22:39:42Z</time>
      </trkpt>
      <trkpt lat="37.409052" lon="-3.952740">
        <ele>955.364</ele>
        <time>2020-05-20T22:39:55Z</time>
      </trkpt>
      <trkpt lat="37.408959" lon="-3.952686">
        <ele>954.145</ele>
        <time>2020-05-20T22:40:06Z</time>
      </trkpt>
      <trkpt lat="37.408813" lon="-3.952618">
        <ele>952.232</ele>
        <time>2020-05-20T22:40:24Z</time>
      </trkpt>
      <trkpt lat="37.408725" lon="-3.952567">
        <ele>952.450</ele>
        <time>2020-05-20T22:40:35Z</time>
      </trkpt>
      <trkpt lat="37.408615" lon="-3.952510">
        <ele>952.012</ele>
        <time>2020-05-20T22:40:49Z</time>
      </trkpt>
      <trkpt lat="37.408479" lon="-3.952452">
        <ele>950.197</ele>
        <time>2020-05-20T22:41:05Z</time>
      </trkpt>
      <trkpt lat="37.408406" lon="-3.952424">
        <ele>949.562</ele>
        <time>2020-05-20T22:41:14Z</time>
      </trkpt>
      <trkpt lat="37.408296" lon="-3.952385">
        <ele>949.676</ele>
        <time>2020-05-20T22:41:27Z</time>
      </trkpt>
      <trkpt lat="37.408212" lon="-3.952362">
        <ele>949.256</ele>
        <time>2020-05-20T22:41:37Z</time>
      </trkpt>
      <trkpt lat="37.408122" lon="-3.952350">
        <ele>947.359</ele>
        <time>2020-05-20T22:41:47Z</time>
      </trkpt>
      <trkpt lat="37.408018" lon="-3.952294">
        <ele>947.914</ele>
        <time>2020-05-20T22:42:00Z</time>
      </trkpt>
      <trkpt lat="37.407939" lon="-3.952249">
        <ele>947.008</ele>
        <time>2020-05-20T22:42:10Z</time>
      </trkpt>
      <trkpt lat="37.407879" lon="-3.952210">
        <ele>945.263</ele>
        <time>2020-05-20T22:42:18Z</time>
      </trkpt>
      <trkpt lat="37.407806" lon="-3.952170">
        <ele>944.394</ele>
        <time>2020-05-20T22:42:27Z</time>
      </trkpt>
      <trkpt lat="37.407732" lon="-3.952118">
        <ele>942.641</ele>
        <time>2020-05-20T22:42:37Z</time>
      </trkpt>
      <trkpt lat="37.407651" lon="-3.952091">
        <ele>941.239</ele>
        <time>2020-05-20T22:42:47Z</time>
      </trkpt>
      <trkpt lat="37.407578" lon="-3.952023">
        <ele>941.651</ele>
        <time>2020-05-20T22:42:57Z</time>
      </trkpt>
      <trkpt lat="37.407522" lon="-3.951971">
        <ele>940.616</ele>
        <time>2020-05-20T22:43:05Z</time>
      </trkpt>
      <trkpt lat="37.407453" lon="-3.951932">
        <ele>938.661</ele>
        <time>2020-05-20T22:43:14Z</time>
      </trkpt>
      <trkpt lat="37.407389" lon="-3.951874">
        <ele>937.995</ele>
        <time>2020-05-20T22:43:23Z</time>
      </trkpt>
      <trkpt lat="37.407341" lon="-3.951814">
        <ele>937.431</ele>
        <time>2020-05-20T22:43:30Z</time>
      </trkpt>
      <trkpt lat="37.407281" lon="-3.951777">
        <ele>936.461</ele>
        <time>2020-05-20T22:43:38Z</time>
      </trkpt>
      <trkpt lat="37.407211" lon="-3.951741">
        <ele>933.707</ele>
        <time>2020-05-20T22:43:47Z</time>
      </trkpt>
      <trkpt lat="37.407206" lon="-3.951739">
        <ele>933.508</ele>
        <time>2020-05-20T22:43:48Z</time>
      </trkpt>
      <trkpt lat="37.407200" lon="-3.951736">
        <ele>933.411</ele>
        <time>2020-05-20T22:43:49Z</time>
      </trkpt>
      <trkpt lat="37.407118" lon="-3.951649">
        <ele>932.472</ele>
        <time>2020-05-20T22:44:01Z</time>
      </trkpt>
      <trkpt lat="37.407108" lon="-3.951636">
        <ele>932.399</ele>
        <time>2020-05-20T22:44:02Z</time>
      </trkpt>
      <trkpt lat="37.407106" lon="-3.951631">
        <ele>932.487</ele>
        <time>2020-05-20T22:44:03Z</time>
      </trkpt>
      <trkpt lat="37.407036" lon="-3.951571">
        <ele>931.199</ele>
        <time>2020-05-20T22:44:13Z</time>
      </trkpt>
      <trkpt lat="37.406952" lon="-3.951507">
        <ele>929.114</ele>
        <time>2020-05-20T22:44:24Z</time>
      </trkpt>
      <trkpt lat="37.406873" lon="-3.951460">
        <ele>928.639</ele>
        <time>2020-05-20T22:44:34Z</time>
      </trkpt>
      <trkpt lat="37.406821" lon="-3.951424">
        <ele>928.773</ele>
        <time>2020-05-20T22:44:41Z</time>
      </trkpt>
      <trkpt lat="37.406812" lon="-3.951421">
        <ele>928.661</ele>
        <time>2020-05-20T22:44:42Z</time>
      </trkpt>
      <trkpt lat="37.406719" lon="-3.951367">
        <ele>926.621</ele>
        <time>2020-05-20T22:44:54Z</time>
      </trkpt>
      <trkpt lat="37.406613" lon="-3.951312">
        <ele>926.513</ele>
        <time>2020-05-20T22:45:07Z</time>
      </trkpt>
      <trkpt lat="37.406522" lon="-3.951261">
        <ele>926.208</ele>
        <time>2020-05-20T22:45:18Z</time>
      </trkpt>
      <trkpt lat="37.406390" lon="-3.951187">
        <ele>926.394</ele>
        <time>2020-05-20T22:45:35Z</time>
      </trkpt>
      <trkpt lat="37.406308" lon="-3.951149">
        <ele>925.085</ele>
        <time>2020-05-20T22:45:45Z</time>
      </trkpt>
      <trkpt lat="37.406219" lon="-3.951083">
        <ele>925.572</ele>
        <time>2020-05-20T22:45:56Z</time>
      </trkpt>
      <trkpt lat="37.406159" lon="-3.951052">
        <ele>924.920</ele>
        <time>2020-05-20T22:46:04Z</time>
      </trkpt>
      <trkpt lat="37.406047" lon="-3.950987">
        <ele>924.722</ele>
        <time>2020-05-20T22:46:18Z</time>
      </trkpt>
      <trkpt lat="37.405964" lon="-3.950932">
        <ele>923.947</ele>
        <time>2020-05-20T22:46:29Z</time>
      </trkpt>
      <trkpt lat="37.405899" lon="-3.950901">
        <ele>923.132</ele>
        <time>2020-05-20T22:46:37Z</time>
      </trkpt>
      <trkpt lat="37.405819" lon="-3.950834">
        <ele>923.766</ele>
        <time>2020-05-20T22:46:47Z</time>
      </trkpt>
      <trkpt lat="37.405769" lon="-3.950779">
        <ele>923.862</ele>
        <time>2020-05-20T22:46:55Z</time>
      </trkpt>
      <trkpt lat="37.405693" lon="-3.950706">
        <ele>923.183</ele>
        <time>2020-05-20T22:47:06Z</time>
      </trkpt>
      <trkpt lat="37.405646" lon="-3.950656">
        <ele>922.611</ele>
        <time>2020-05-20T22:47:13Z</time>
      </trkpt>
      <trkpt lat="37.405587" lon="-3.950626">
        <ele>921.908</ele>
        <time>2020-05-20T22:47:20Z</time>
      </trkpt>
      <trkpt lat="37.405507" lon="-3.950593">
        <ele>921.694</ele>
        <time>2020-05-20T22:47:30Z</time>
      </trkpt>
      <trkpt lat="37.405442" lon="-3.950583">
        <ele>920.455</ele>
        <time>2020-05-20T22:47:37Z</time>
      </trkpt>
      <trkpt lat="37.405356" lon="-3.950561">
        <ele>920.542</ele>
        <time>2020-05-20T22:47:47Z</time>
      </trkpt>
      <trkpt lat="37.405273" lon="-3.950519">
        <ele>920.660</ele>
        <time>2020-05-20T22:47:58Z</time>
      </trkpt>
      <trkpt lat="37.405207" lon="-3.950440">
        <ele>921.482</ele>
        <time>2020-05-20T22:48:08Z</time>
      </trkpt>
      <trkpt lat="37.405149" lon="-3.950373">
        <ele>921.997</ele>
        <time>2020-05-20T22:48:17Z</time>
      </trkpt>
      <trkpt lat="37.405072" lon="-3.950267">
        <ele>921.352</ele>
        <time>2020-05-20T22:48:30Z</time>
      </trkpt>
      <trkpt lat="37.405013" lon="-3.950188">
        <ele>921.086</ele>
        <time>2020-05-20T22:48:40Z</time>
      </trkpt>
      <trkpt lat="37.404955" lon="-3.950124">
        <ele>921.815</ele>
        <time>2020-05-20T22:48:49Z</time>
      </trkpt>
      <trkpt lat="37.404890" lon="-3.950078">
        <ele>921.865</ele>
        <time>2020-05-20T22:48:57Z</time>
      </trkpt>
      <trkpt lat="37.404822" lon="-3.950035">
        <ele>921.011</ele>
        <time>2020-05-20T22:49:06Z</time>
      </trkpt>
      <trkpt lat="37.404741" lon="-3.949993">
        <ele>920.508</ele>
        <time>2020-05-20T22:49:16Z</time>
      </trkpt>
      <trkpt lat="37.404656" lon="-3.949938">
        <ele>920.249</ele>
        <time>2020-05-20T22:49:27Z</time>
      </trkpt>
      <trkpt lat="37.404606" lon="-3.949903">
        <ele>920.250</ele>
        <time>2020-05-20T22:49:33Z</time>
      </trkpt>
      <trkpt lat="37.404540" lon="-3.949847">
        <ele>919.687</ele>
        <time>2020-05-20T22:49:42Z</time>
      </trkpt>
      <trkpt lat="37.404435" lon="-3.949771">
        <ele>919.895</ele>
        <time>2020-05-20T22:49:56Z</time>
      </trkpt>
      <trkpt lat="37.404356" lon="-3.949699">
        <ele>919.977</ele>
        <time>2020-05-20T22:50:07Z</time>
      </trkpt>
      <trkpt lat="37.404258" lon="-3.949632">
        <ele>919.222</ele>
        <time>2020-05-20T22:50:20Z</time>
      </trkpt>
      <trkpt lat="37.404156" lon="-3.949574">
        <ele>917.417</ele>
        <time>2020-05-20T22:50:33Z</time>
      </trkpt>
      <trkpt lat="37.404026" lon="-3.949497">
        <ele>917.361</ele>
        <time>2020-05-20T22:50:49Z</time>
      </trkpt>
      <trkpt lat="37.403929" lon="-3.949433">
        <ele>916.955</ele>
        <time>2020-05-20T22:51:02Z</time>
      </trkpt>
      <trkpt lat="37.403823" lon="-3.949360">
        <ele>915.807</ele>
        <time>2020-05-20T22:51:15Z</time>
      </trkpt>
      <trkpt lat="37.403724" lon="-3.949305">
        <ele>913.717</ele>
        <time>2020-05-20T22:51:28Z</time>
      </trkpt>
      <trkpt lat="37.403634" lon="-3.949213">
        <ele>912.508</ele>
        <time>2020-05-20T22:51:41Z</time>
      </trkpt>
      <trkpt lat="37.403566" lon="-3.949147">
        <ele>911.443</ele>
        <time>2020-05-20T22:51:51Z</time>
      </trkpt>
      <trkpt lat="37.403563" lon="-3.949142">
        <ele>911.564</ele>
        <time>2020-05-20T22:51:52Z</time>
      </trkpt>
      <trkpt lat="37.403499" lon="-3.949063">
        <ele>910.381</ele>
        <time>2020-05-20T22:52:02Z</time>
      </trkpt>
      <trkpt lat="37.403417" lon="-3.948943">
        <ele>909.719</ele>
        <time>2020-05-20T22:52:16Z</time>
      </trkpt>
      <trkpt lat="37.403366" lon="-3.948871">
        <ele>909.811</ele>
        <time>2020-05-20T22:52:25Z</time>
      </trkpt>
      <trkpt lat="37.403300" lon="-3.948763">
        <ele>909.266</ele>
        <time>2020-05-20T22:52:37Z</time>
      </trkpt>
      <trkpt lat="37.403266" lon="-3.948678">
        <ele>908.541</ele>
        <time>2020-05-20T22:52:46Z</time>
      </trkpt>
      <trkpt lat="37.403255" lon="-3.948602">
        <ele>908.635</ele>
        <time>2020-05-20T22:52:53Z</time>
      </trkpt>
      <trkpt lat="37.403236" lon="-3.948490">
        <ele>908.063</ele>
        <time>2020-05-20T22:53:03Z</time>
      </trkpt>
      <trkpt lat="37.403222" lon="-3.948354">
        <ele>907.544</ele>
        <time>2020-05-20T22:53:16Z</time>
      </trkpt>
      <trkpt lat="37.403201" lon="-3.948260">
        <ele>906.918</ele>
        <time>2020-05-20T22:53:25Z</time>
      </trkpt>
      <trkpt lat="37.403176" lon="-3.948213">
        <ele>906.708</ele>
        <time>2020-05-20T22:53:30Z</time>
      </trkpt>
      <trkpt lat="37.403104" lon="-3.948298">
        <ele>906.084</ele>
        <time>2020-05-20T22:53:41Z</time>
      </trkpt>
      <trkpt lat="37.403001" lon="-3.948451">
        <ele>908.935</ele>
        <time>2020-05-20T22:53:59Z</time>
      </trkpt>
      <trkpt lat="37.402941" lon="-3.948600">
        <ele>909.612</ele>
        <time>2020-05-20T22:54:14Z</time>
      </trkpt>
      <trkpt lat="37.402896" lon="-3.948690">
        <ele>910.890</ele>
        <time>2020-05-20T22:54:24Z</time>
      </trkpt>
      <trkpt lat="37.402851" lon="-3.948789">
        <ele>911.472</ele>
        <time>2020-05-20T22:54:35Z</time>
      </trkpt>
      <trkpt lat="37.402807" lon="-3.948897">
        <ele>913.517</ele>
        <time>2020-05-20T22:54:46Z</time>
      </trkpt>
      <trkpt lat="37.402769" lon="-3.948997">
        <ele>915.692</ele>
        <time>2020-05-20T22:54:56Z</time>
      </trkpt>
      <trkpt lat="37.402756" lon="-3.949118">
        <ele>918.416</ele>
        <time>2020-05-20T22:55:07Z</time>
      </trkpt>
      <trkpt lat="37.402758" lon="-3.949237">
        <ele>921.027</ele>
        <time>2020-05-20T22:55:18Z</time>
      </trkpt>
      <trkpt lat="37.402787" lon="-3.949382">
        <ele>921.568</ele>
        <time>2020-05-20T22:55:32Z</time>
      </trkpt>
      <trkpt lat="37.402789" lon="-3.949530">
        <ele>922.814</ele>
        <time>2020-05-20T22:55:45Z</time>
      </trkpt>
      <trkpt lat="37.402783" lon="-3.949678">
        <ele>924.808</ele>
        <time>2020-05-20T22:55:59Z</time>
      </trkpt>
      <trkpt lat="37.402764" lon="-3.949801">
        <ele>928.210</ele>
        <time>2020-05-20T22:56:11Z</time>
      </trkpt>
      <trkpt lat="37.402734" lon="-3.949954">
        <ele>930.421</ele>
        <time>2020-05-20T22:56:25Z</time>
      </trkpt>
      <trkpt lat="37.402694" lon="-3.950053">
        <ele>932.288</ele>
        <time>2020-05-20T22:56:36Z</time>
      </trkpt>
      <trkpt lat="37.402598" lon="-3.950179">
        <ele>934.016</ele>
        <time>2020-05-20T22:56:51Z</time>
      </trkpt>
      <trkpt lat="37.402526" lon="-3.950204">
        <ele>933.088</ele>
        <time>2020-05-20T22:57:00Z</time>
      </trkpt>
      <trkpt lat="37.402454" lon="-3.950253">
        <ele>931.823</ele>
        <time>2020-05-20T22:57:09Z</time>
      </trkpt>
      <trkpt lat="37.402360" lon="-3.950370">
        <ele>930.978</ele>
        <time>2020-05-20T22:57:24Z</time>
      </trkpt>
      <trkpt lat="37.402297" lon="-3.950450">
        <ele>929.122</ele>
        <time>2020-05-20T22:57:35Z</time>
      </trkpt>
      <trkpt lat="37.402205" lon="-3.950548">
        <ele>928.214</ele>
        <time>2020-05-20T22:57:49Z</time>
      </trkpt>
      <trkpt lat="37.402116" lon="-3.950658">
        <ele>927.654</ele>
        <time>2020-05-20T22:58:03Z</time>
      </trkpt>
      <trkpt lat="37.402043" lon="-3.950735">
        <ele>926.309</ele>
        <time>2020-05-20T22:58:14Z</time>
      </trkpt>
      <trkpt lat="37.401961" lon="-3.950798">
        <ele>925.808</ele>
        <time>2020-05-20T22:58:25Z</time>
      </trkpt>
      <trkpt lat="37.401868" lon="-3.950910">
        <ele>926.069</ele>
        <time>2020-05-20T22:58:39Z</time>
      </trkpt>
      <trkpt lat="37.401753" lon="-3.951017">
        <ele>924.140</ele>
        <time>2020-05-20T22:58:56Z</time>
      </trkpt>
      <trkpt lat="37.401661" lon="-3.951130">
        <ele>923.547</ele>
        <time>2020-05-20T22:59:10Z</time>
      </trkpt>
      <trkpt lat="37.401588" lon="-3.951261">
        <ele>923.225</ele>
        <time>2020-05-20T22:59:25Z</time>
      </trkpt>
      <trkpt lat="37.401522" lon="-3.951436">
        <ele>921.737</ele>
        <time>2020-05-20T22:59:42Z</time>
      </trkpt>
      <trkpt lat="37.401458" lon="-3.951565">
        <ele>920.942</ele>
        <time>2020-05-20T22:59:56Z</time>
      </trkpt>
      <trkpt lat="37.401385" lon="-3.951695">
        <ele>920.667</ele>
        <time>2020-05-20T23:00:11Z</time>
      </trkpt>
      <trkpt lat="37.401383" lon="-3.951703">
        <ele>920.651</ele>
        <time>2020-05-20T23:00:11Z</time>
      </trkpt>
      <trkpt lat="37.401294" lon="-3.951817">
        <ele>920.097</ele>
        <time>2020-05-20T23:00:26Z</time>
      </trkpt>
      <trkpt lat="37.401195" lon="-3.951942">
        <ele>919.223</ele>
        <time>2020-05-20T23:00:42Z</time>
      </trkpt>
      <trkpt lat="37.401118" lon="-3.952007">
        <ele>918.925</ele>
        <time>2020-05-20T23:00:52Z</time>
      </trkpt>
      <trkpt lat="37.401057" lon="-3.952093">
        <ele>918.808</ele>
        <time>2020-05-20T23:01:03Z</time>
      </trkpt>
      <trkpt lat="37.400995" lon="-3.952194">
        <ele>918.397</ele>
        <time>2020-05-20T23:01:14Z</time>
      </trkpt>
      <trkpt lat="37.400957" lon="-3.952296">
        <ele>918.798</ele>
        <time>2020-05-20T23:01:25Z</time>
      </trkpt>
      <trkpt lat="37.400886" lon="-3.952525">
        <ele>917.795</ele>
        <time>2020-05-20T23:01:47Z</time>
      </trkpt>
      <trkpt lat="37.400828" lon="-3.952676">
        <ele>916.463</ele>
        <time>2020-05-20T23:02:02Z</time>
      </trkpt>
      <trkpt lat="37.400781" lon="-3.952837">
        <ele>914.865</ele>
        <time>2020-05-20T23:02:18Z</time>
      </trkpt>
      <trkpt lat="37.400727" lon="-3.952996">
        <ele>912.910</ele>
        <time>2020-05-20T23:02:33Z</time>
      </trkpt>
      <trkpt lat="37.400676" lon="-3.953210">
        <ele>912.025</ele>
        <time>2020-05-20T23:02:54Z</time>
      </trkpt>
      <trkpt lat="37.400601" lon="-3.953428">
        <ele>910.739</ele>
        <time>2020-05-20T23:03:15Z</time>
      </trkpt>
      <trkpt lat="37.400509" lon="-3.953546">
        <ele>909.184</ele>
        <time>2020-05-20T23:03:30Z</time>
      </trkpt>
      <trkpt lat="37.400439" lon="-3.953619">
        <ele>908.007</ele>
        <time>2020-05-20T23:03:41Z</time>
      </trkpt>
      <trkpt lat="37.400334" lon="-3.953657">
        <ele>907.917</ele>
        <time>2020-05-20T23:03:53Z</time>
      </trkpt>
      <trkpt lat="37.400174" lon="-3.953695">
        <ele>909.708</ele>
        <time>2020-05-20T23:04:12Z</time>
      </trkpt>
      <trkpt lat="37.400065" lon="-3.953704">
        <ele>910.046</ele>
        <time>2020-05-20T23:04:24Z</time>
      </trkpt>
      <trkpt lat="37.399979" lon="-3.953719">
        <ele>910.347</ele>
        <time>2020-05-20T23:04:34Z</time>
      </trkpt>
      <trkpt lat="37.399887" lon="-3.953769">
        <ele>911.084</ele>
        <time>2020-05-20T23:04:46Z</time>
      </trkpt>
      <trkpt lat="37.399799" lon="-3.953833">
        <ele>911.232</ele>
        <time>2020-05-20T23:04:57Z</time>
      </trkpt>
      <trkpt lat="37.399742" lon="-3.953886">
        <ele>912.094</ele>
        <time>2020-05-20T23:05:05Z</time>
      </trkpt>
      <trkpt lat="37.399679" lon="-3.953973">
        <ele>913.269</ele>
        <time>2020-05-20T23:05:16Z</time>
      </trkpt>
      <trkpt lat="37.399533" lon="-3.954193">
        <ele>912.734</ele>
        <time>2020-05-20T23:05:42Z</time>
      </trkpt>
      <trkpt lat="37.399409" lon="-3.954393">
        <ele>911.638</ele>
        <time>2020-05-20T23:06:05Z</time>
      </trkpt>
      <trkpt lat="37.399274" lon="-3.954587">
        <ele>910.186</ele>
        <time>2020-05-20T23:06:28Z</time>
      </trkpt>
      <trkpt lat="37.399124" lon="-3.954817">
        <ele>909.560</ele>
        <time>2020-05-20T23:06:55Z</time>
      </trkpt>
      <trkpt lat="37.399003" lon="-3.955001">
        <ele>907.326</ele>
        <time>2020-05-20T23:07:17Z</time>
      </trkpt>
      <trkpt lat="37.398905" lon="-3.955128">
        <ele>906.008</ele>
        <time>2020-05-20T23:07:33Z</time>
      </trkpt>
      <trkpt lat="37.398825" lon="-3.955236">
        <ele>904.236</ele>
        <time>2020-05-20T23:07:46Z</time>
      </trkpt>
      <trkpt lat="37.398745" lon="-3.955373">
        <ele>902.777</ele>
        <time>2020-05-20T23:08:02Z</time>
      </trkpt>
      <trkpt lat="37.398645" lon="-3.955504">
        <ele>901.084</ele>
        <time>2020-05-20T23:08:18Z</time>
      </trkpt>
      <trkpt lat="37.398544" lon="-3.955598">
        <ele>900.232</ele>
        <time>2020-05-20T23:08:33Z</time>
      </trkpt>
      <trkpt lat="37.398465" lon="-3.955701">
        <ele>899.874</ele>
        <time>2020-05-20T23:08:46Z</time>
      </trkpt>
      <trkpt lat="37.398396" lon="-3.955756">
        <ele>898.159</ele>
        <time>2020-05-20T23:08:55Z</time>
      </trkpt>
      <trkpt lat="37.398300" lon="-3.955841">
        <ele>897.274</ele>
        <time>2020-05-20T23:09:09Z</time>
      </trkpt>
      <trkpt lat="37.398172" lon="-3.955974">
        <ele>896.818</ele>
        <time>2020-05-20T23:09:28Z</time>
      </trkpt>
      <trkpt lat="37.398076" lon="-3.956091">
        <ele>895.671</ele>
        <time>2020-05-20T23:09:43Z</time>
      </trkpt>
      <trkpt lat="37.398069" lon="-3.956102">
        <ele>895.641</ele>
        <time>2020-05-20T23:09:44Z</time>
      </trkpt>
      <trkpt lat="37.397995" lon="-3.956225">
        <ele>894.815</ele>
        <time>2020-05-20T23:09:58Z</time>
      </trkpt>
      <trkpt lat="37.397913" lon="-3.956388">
        <ele>893.908</ele>
        <time>2020-05-20T23:10:16Z</time>
      </trkpt>
      <trkpt lat="37.397828" lon="-3.956524">
        <ele>892.265</ele>
        <time>2020-05-20T23:10:31Z</time>
      </trkpt>
      <trkpt lat="37.397769" lon="-3.956643">
        <ele>891.516</ele>
        <time>2020-05-20T23:10:44Z</time>
      </trkpt>
      <trkpt lat="37.397694" lon="-3.956779">
        <ele>892.133</ele>
        <time>2020-05-20T23:10:59Z</time>
      </trkpt>
      <trkpt lat="37.397634" lon="-3.956878">
        <ele>890.311</ele>
        <time>2020-05-20T23:11:10Z</time>
      </trkpt>
      <trkpt lat="37.397579" lon="-3.956957">
        <ele>891.063</ele>
        <time>2020-05-20T23:11:20Z</time>
      </trkpt>
      <trkpt lat="37.397498" lon="-3.957040">
        <ele>890.598</ele>
        <time>2020-05-20T23:11:32Z</time>
      </trkpt>
      <trkpt lat="37.397433" lon="-3.957135">
        <ele>890.463</ele>
        <time>2020-05-20T23:11:43Z</time>
      </trkpt>
      <trkpt lat="37.397350" lon="-3.957287">
        <ele>889.397</ele>
        <time>2020-05-20T23:12:00Z</time>
      </trkpt>
      <trkpt lat="37.397262" lon="-3.957414">
        <ele>889.492</ele>
        <time>2020-05-20T23:12:15Z</time>
      </trkpt>
      <trkpt lat="37.397218" lon="-3.957493">
        <ele>888.673</ele>
        <time>2020-05-20T23:12:24Z</time>
      </trkpt>
      <trkpt lat="37.397065" lon="-3.957675">
        <ele>887.920</ele>
        <time>2020-05-20T23:12:48Z</time>
      </trkpt>
      <trkpt lat="37.396972" lon="-3.957794">
        <ele>887.208</ele>
        <time>2020-05-20T23:13:03Z</time>
      </trkpt>
      <trkpt lat="37.396828" lon="-3.957982">
        <ele>886.517</ele>
        <time>2020-05-20T23:13:27Z</time>
      </trkpt>
      <trkpt lat="37.396624" lon="-3.958202">
        <ele>885.718</ele>
        <time>2020-05-20T23:13:57Z</time>
      </trkpt>
      <trkpt lat="37.396447" lon="-3.958376">
        <ele>885.065</ele>
        <time>2020-05-20T23:14:23Z</time>
      </trkpt>
      <trkpt lat="37.396343" lon="-3.958464">
        <ele>885.093</ele>
        <time>2020-05-20T23:14:37Z</time>
      </trkpt>
      <trkpt lat="37.396259" lon="-3.958510">
        <ele>884.815</ele>
        <time>2020-05-20T23:14:48Z</time>
      </trkpt>
      <trkpt lat="37.396131" lon="-3.958540">
        <ele>884.090</ele>
        <time>2020-05-20T23:15:02Z</time>
      </trkpt>
      <trkpt lat="37.396003" lon="-3.958610">
        <ele>884.055</ele>
        <time>2020-05-20T23:15:18Z</time>
      </trkpt>
      <trkpt lat="37.395872" lon="-3.958736">
        <ele>884.039</ele>
        <time>2020-05-20T23:15:37Z</time>
      </trkpt>
      <trkpt lat="37.395775" lon="-3.958827">
        <ele>884.051</ele>
        <time>2020-05-20T23:15:51Z</time>
      </trkpt>
      <trkpt lat="37.395705" lon="-3.958885">
        <ele>883.501</ele>
        <time>2020-05-20T23:16:00Z</time>
      </trkpt>
      <trkpt lat="37.395651" lon="-3.958972">
        <ele>882.511</ele>
        <time>2020-05-20T23:16:10Z</time>
      </trkpt>
      <trkpt lat="37.395588" lon="-3.959157">
        <ele>883.508</ele>
        <time>2020-05-20T23:16:29Z</time>
      </trkpt>
      <trkpt lat="37.395527" lon="-3.959301">
        <ele>883.613</ele>
        <time>2020-05-20T23:16:43Z</time>
      </trkpt>
      <trkpt lat="37.395438" lon="-3.959526">
        <ele>884.024</ele>
        <time>2020-05-20T23:17:06Z</time>
      </trkpt>
      <trkpt lat="37.395316" lon="-3.959721">
        <ele>883.241</ele>
        <time>2020-05-20T23:17:29Z</time>
      </trkpt>
      <trkpt lat="37.395304" lon="-3.959736">
        <ele>883.379</ele>
        <time>2020-05-20T23:17:31Z</time>
      </trkpt>
      <trkpt lat="37.395185" lon="-3.959962">
        <ele>883.551</ele>
        <time>2020-05-20T23:17:55Z</time>
      </trkpt>
      <trkpt lat="37.395046" lon="-3.960185">
        <ele>883.616</ele>
        <time>2020-05-20T23:18:21Z</time>
      </trkpt>
      <trkpt lat="37.394924" lon="-3.960414">
        <ele>884.041</ele>
        <time>2020-05-20T23:18:46Z</time>
      </trkpt>
      <trkpt lat="37.394818" lon="-3.960611">
        <ele>884.045</ele>
        <time>2020-05-20T23:19:07Z</time>
      </trkpt>
      <trkpt lat="37.394738" lon="-3.960772">
        <ele>884.092</ele>
        <time>2020-05-20T23:19:24Z</time>
      </trkpt>
      <trkpt lat="37.394659" lon="-3.960944">
        <ele>884.273</ele>
        <time>2020-05-20T23:19:42Z</time>
      </trkpt>
      <trkpt lat="37.394569" lon="-3.961168">
        <ele>884.620</ele>
        <time>2020-05-20T23:20:05Z</time>
      </trkpt>
      <trkpt lat="37.394496" lon="-3.961348">
        <ele>884.708</ele>
        <time>2020-05-20T23:20:23Z</time>
      </trkpt>
      <trkpt lat="37.394485" lon="-3.961366">
        <ele>884.967</ele>
        <time>2020-05-20T23:20:25Z</time>
      </trkpt>
      <trkpt lat="37.394399" lon="-3.961618">
        <ele>884.628</ele>
        <time>2020-05-20T23:20:50Z</time>
      </trkpt>
      <trkpt lat="37.394302" lon="-3.961817">
        <ele>885.665</ele>
        <time>2020-05-20T23:21:11Z</time>
      </trkpt>
      <trkpt lat="37.394230" lon="-3.961980">
        <ele>885.643</ele>
        <time>2020-05-20T23:21:28Z</time>
      </trkpt>
      <trkpt lat="37.394226" lon="-3.961982">
        <ele>885.585</ele>
        <time>2020-05-20T23:21:29Z</time>
      </trkpt>
      <trkpt lat="37.394140" lon="-3.962138">
        <ele>885.080</ele>
        <time>2020-05-20T23:21:46Z</time>
      </trkpt>
      <trkpt lat="37.394048" lon="-3.962289">
        <ele>885.065</ele>
        <time>2020-05-20T23:22:03Z</time>
      </trkpt>
      <trkpt lat="37.393991" lon="-3.962413">
        <ele>886.039</ele>
        <time>2020-05-20T23:22:16Z</time>
      </trkpt>
      <trkpt lat="37.393942" lon="-3.962500">
        <ele>886.568</ele>
        <time>2020-05-20T23:22:26Z</time>
      </trkpt>
      <trkpt lat="37.393868" lon="-3.962624">
        <ele>887.042</ele>
        <time>2020-05-20T23:22:40Z</time>
      </trkpt>
      <trkpt lat="37.393757" lon="-3.962821">
        <ele>887.026</ele>
        <time>2020-05-20T23:23:02Z</time>
      </trkpt>
      <trkpt lat="37.393600" lon="-3.963082">
        <ele>887.908</ele>
        <time>2020-05-20T23:23:31Z</time>
      </trkpt>
      <trkpt lat="37.393414" lon="-3.963360">
        <ele>888.174</ele>
        <time>2020-05-20T23:24:04Z</time>
      </trkpt>
      <trkpt lat="37.393238" lon="-3.963625">
        <ele>888.985</ele>
        <time>2020-05-20T23:24:36Z</time>
      </trkpt>
      <trkpt lat="37.393116" lon="-3.963789">
        <ele>889.032</ele>
        <time>2020-05-20T23:24:56Z</time>
      </trkpt>
      <trkpt lat="37.392981" lon="-3.963951">
        <ele>889.080</ele>
        <time>2020-05-20T23:25:17Z</time>
      </trkpt>
      <trkpt lat="37.392864" lon="-3.964107">
        <ele>889.692</ele>
        <time>2020-05-20T23:25:37Z</time>
      </trkpt>
      <trkpt lat="37.392750" lon="-3.964286">
        <ele>890.297</ele>
        <time>2020-05-20T23:25:57Z</time>
      </trkpt>
      <trkpt lat="37.392606" lon="-3.964484">
        <ele>891.062</ele>
        <time>2020-05-20T23:26:22Z</time>
      </trkpt>
      <trkpt lat="37.392512" lon="-3.964625">
        <ele>892.116</ele>
        <time>2020-05-20T23:26:38Z</time>
      </trkpt>
      <trkpt lat="37.392412" lon="-3.964723">
        <ele>891.161</ele>
        <time>2020-05-20T23:26:53Z</time>
      </trkpt>
      <trkpt lat="37.392325" lon="-3.964811">
        <ele>890.921</ele>
        <time>2020-05-20T23:27:05Z</time>
      </trkpt>
      <trkpt lat="37.392198" lon="-3.964927">
        <ele>889.213</ele>
        <time>2020-05-20T23:27:23Z</time>
      </trkpt>
      <trkpt lat="37.392084" lon="-3.964991">
        <ele>889.608</ele>
        <time>2020-05-20T23:27:38Z</time>
      </trkpt>
      <trkpt lat="37.392077" lon="-3.964992">
        <ele>889.534</ele>
        <time>2020-05-20T23:27:38Z</time>
      </trkpt>
      <trkpt lat="37.392000" lon="-3.965038">
        <ele>890.295</ele>
        <time>2020-05-20T23:27:48Z</time>
      </trkpt>
      <trkpt lat="37.391920" lon="-3.965015">
        <ele>888.222</ele>
        <time>2020-05-20T23:27:58Z</time>
      </trkpt>
      <trkpt lat="37.391850" lon="-3.964981">
        <ele>886.930</ele>
        <time>2020-05-20T23:28:06Z</time>
      </trkpt>
      <trkpt lat="37.391732" lon="-3.965029">
        <ele>887.092</ele>
        <time>2020-05-20T23:28:21Z</time>
      </trkpt>
      <trkpt lat="37.391573" lon="-3.965166">
        <ele>887.447</ele>
        <time>2020-05-20T23:28:42Z</time>
      </trkpt>
      <trkpt lat="37.391453" lon="-3.965282">
        <ele>887.712</ele>
        <time>2020-05-20T23:29:00Z</time>
      </trkpt>
      <trkpt lat="37.391335" lon="-3.965409">
        <ele>887.536</ele>
        <time>2020-05-20T23:29:17Z</time>
      </trkpt>
      <trkpt lat="37.391225" lon="-3.965588">
        <ele>887.359</ele>
        <time>2020-05-20T23:29:38Z</time>
      </trkpt>
      <trkpt lat="37.391118" lon="-3.965795">
        <ele>887.303</ele>
        <time>2020-05-20T23:30:00Z</time>
      </trkpt>
      <trkpt lat="37.391024" lon="-3.965960">
        <ele>888.523</ele>
        <time>2020-05-20T23:30:19Z</time>
      </trkpt>
      <trkpt lat="37.390967" lon="-3.966090">
        <ele>888.308</ele>
        <time>2020-05-20T23:30:32Z</time>
      </trkpt>
      <trkpt lat="37.390934" lon="-3.966223">
        <ele>889.053</ele>
        <time>2020-05-20T23:30:45Z</time>
      </trkpt>
      <trkpt lat="37.390867" lon="-3.966379">
        <ele>889.984</ele>
        <time>2020-05-20T23:31:01Z</time>
      </trkpt>
      <trkpt lat="37.390764" lon="-3.966606">
        <ele>890.061</ele>
        <time>2020-05-20T23:31:24Z</time>
      </trkpt>
      <trkpt lat="37.390700" lon="-3.966731">
        <ele>889.689</ele>
        <time>2020-05-20T23:31:38Z</time>
      </trkpt>
      <trkpt lat="37.390650" lon="-3.966922">
        <ele>890.011</ele>
        <time>2020-05-20T23:31:56Z</time>
      </trkpt>
      <trkpt lat="37.390650" lon="-3.966928">
        <ele>890.076</ele>
        <time>2020-05-20T23:31:57Z</time>
      </trkpt>
      <trkpt lat="37.390594" lon="-3.967054">
        <ele>890.931</ele>
        <time>2020-05-20T23:32:10Z</time>
      </trkpt>
      <trkpt lat="37.390547" lon="-3.967148">
        <ele>890.235</ele>
        <time>2020-05-20T23:32:20Z</time>
      </trkpt>
      <trkpt lat="37.390444" lon="-3.967309">
        <ele>890.089</ele>
        <time>2020-05-20T23:32:38Z</time>
      </trkpt>
      <trkpt lat="37.390349" lon="-3.967426">
        <ele>890.006</ele>
        <time>2020-05-20T23:32:54Z</time>
      </trkpt>
      <trkpt lat="37.390259" lon="-3.967582">
        <ele>889.726</ele>
        <time>2020-05-20T23:33:11Z</time>
      </trkpt>
      <trkpt lat="37.390189" lon="-3.967760">
        <ele>889.808</ele>
        <time>2020-05-20T23:33:29Z</time>
      </trkpt>
      <trkpt lat="37.390161" lon="-3.967936">
        <ele>890.066</ele>
        <time>2020-05-20T23:33:45Z</time>
      </trkpt>
      <trkpt lat="37.390159" lon="-3.968108">
        <ele>890.087</ele>
        <time>2020-05-20T23:34:01Z</time>
      </trkpt>
      <trkpt lat="37.390161" lon="-3.968310">
        <ele>890.054</ele>
        <time>2020-05-20T23:34:19Z</time>
      </trkpt>
      <trkpt lat="37.390123" lon="-3.968455">
        <ele>890.662</ele>
        <time>2020-05-20T23:34:33Z</time>
      </trkpt>
      <trkpt lat="37.390028" lon="-3.968603">
        <ele>891.024</ele>
        <time>2020-05-20T23:34:50Z</time>
      </trkpt>
      <trkpt lat="37.389937" lon="-3.968717">
        <ele>890.019</ele>
        <time>2020-05-20T23:35:05Z</time>
      </trkpt>
      <trkpt lat="37.389882" lon="-3.968887">
        <ele>891.034</ele>
        <time>2020-05-20T23:35:21Z</time>
      </trkpt>
      <trkpt lat="37.389882" lon="-3.968889">
        <ele>891.088</ele>
        <time>2020-05-20T23:35:22Z</time>
      </trkpt>
      <trkpt lat="37.389804" lon="-3.969050">
        <ele>892.078</ele>
        <time>2020-05-20T23:35:39Z</time>
      </trkpt>
      <trkpt lat="37.389756" lon="-3.969190">
        <ele>891.133</ele>
        <time>2020-05-20T23:35:53Z</time>
      </trkpt>
      <trkpt lat="37.389743" lon="-3.969369">
        <ele>891.026</ele>
        <time>2020-05-20T23:36:09Z</time>
      </trkpt>
      <trkpt lat="37.389749" lon="-3.969416">
        <ele>891.208</ele>
        <time>2020-05-20T23:36:13Z</time>
      </trkpt>
      <trkpt lat="37.389775" lon="-3.969627">
        <ele>892.515</ele>
        <time>2020-05-20T23:36:32Z</time>
      </trkpt>
      <trkpt lat="37.389752" lon="-3.969704">
        <ele>892.126</ele>
        <time>2020-05-20T23:36:40Z</time>
      </trkpt>
      <trkpt lat="37.389632" lon="-3.969711">
        <ele>892.043</ele>
        <time>2020-05-20T23:36:54Z</time>
      </trkpt>
      <trkpt lat="37.389491" lon="-3.969748">
        <ele>892.751</ele>
        <time>2020-05-20T23:37:10Z</time>
      </trkpt>
      <trkpt lat="37.389369" lon="-3.969801">
        <ele>893.783</ele>
        <time>2020-05-20T23:37:25Z</time>
      </trkpt>
      <trkpt lat="37.389286" lon="-3.969839">
        <ele>894.848</ele>
        <time>2020-05-20T23:37:35Z</time>
      </trkpt>
      <trkpt lat="37.389179" lon="-3.969904">
        <ele>897.123</ele>
        <time>2020-05-20T23:37:49Z</time>
      </trkpt>
      <trkpt lat="37.389172" lon="-3.969903">
        <ele>897.297</ele>
        <time>2020-05-20T23:37:49Z</time>
      </trkpt>
      <trkpt lat="37.389049" lon="-3.969977">
        <ele>899.678</ele>
        <time>2020-05-20T23:38:05Z</time>
      </trkpt>
      <trkpt lat="37.388962" lon="-3.970041">
        <ele>900.933</ele>
        <time>2020-05-20T23:38:17Z</time>
      </trkpt>
      <trkpt lat="37.388847" lon="-3.970126">
        <ele>904.026</ele>
        <time>2020-05-20T23:38:32Z</time>
      </trkpt>
      <trkpt lat="37.388667" lon="-3.970247">
        <ele>907.808</ele>
        <time>2020-05-20T23:38:56Z</time>
      </trkpt>
      <trkpt lat="37.388513" lon="-3.970327">
        <ele>912.895</ele>
        <time>2020-05-20T23:39:15Z</time>
      </trkpt>
      <trkpt lat="37.388423" lon="-3.970346">
        <ele>914.596</ele>
        <time>2020-05-20T23:39:26Z</time>
      </trkpt>
      <trkpt lat="37.388270" lon="-3.970333">
        <ele>916.083</ele>
        <time>2020-05-20T23:39:44Z</time>
      </trkpt>
      <trkpt lat="37.388123" lon="-3.970327">
        <ele>917.041</ele>
        <time>2020-05-20T23:40:00Z</time>
      </trkpt>
      <trkpt lat="37.387964" lon="-3.970320">
        <ele>918.013</ele>
        <time>2020-05-20T23:40:18Z</time>
      </trkpt>
      <trkpt lat="37.387866" lon="-3.970333">
        <ele>918.028</ele>
        <time>2020-05-20T23:40:30Z</time>
      </trkpt>
      <trkpt lat="37.387861" lon="-3.970331">
        <ele>918.063</ele>
        <time>2020-05-20T23:40:30Z</time>
      </trkpt>
      <trkpt lat="37.387748" lon="-3.970345">
        <ele>919.527</ele>
        <time>2020-05-20T23:40:43Z</time>
      </trkpt>
      <trkpt lat="37.387736" lon="-3.970345">
        <ele>919.758</ele>
        <time>2020-05-20T23:40:45Z</time>
      </trkpt>
      <trkpt lat="37.387647" lon="-3.970367">
        <ele>920.052</ele>
        <time>2020-05-20T23:40:55Z</time>
      </trkpt>
      <trkpt lat="37.387551" lon="-3.970416">
        <ele>920.017</ele>
        <time>2020-05-20T23:41:07Z</time>
      </trkpt>
      <trkpt lat="37.387467" lon="-3.970465">
        <ele>921.008</ele>
        <time>2020-05-20T23:41:17Z</time>
      </trkpt>
      <trkpt lat="37.387349" lon="-3.970525">
        <ele>921.023</ele>
        <time>2020-05-20T23:41:32Z</time>
      </trkpt>
      <trkpt lat="37.387230" lon="-3.970569">
        <ele>921.064</ele>
        <time>2020-05-20T23:41:46Z</time>
      </trkpt>
      <trkpt lat="37.387119" lon="-3.970631">
        <ele>922.061</ele>
        <time>2020-05-20T23:42:00Z</time>
      </trkpt>
      <trkpt lat="37.386944" lon="-3.970716">
        <ele>922.169</ele>
        <time>2020-05-20T23:42:21Z</time>
      </trkpt>
      <trkpt lat="37.386822" lon="-3.970777">
        <ele>923.091</ele>
        <time>2020-05-20T23:42:36Z</time>
      </trkpt>
      <trkpt lat="37.386737" lon="-3.970808">
        <ele>924.036</ele>
        <time>2020-05-20T23:42:46Z</time>
      </trkpt>
      <trkpt lat="37.386727" lon="-3.970916">
        <ele>924.861</ele>
        <time>2020-05-20T23:42:56Z</time>
      </trkpt>
      <trkpt lat="37.386727" lon="-3.970918">
        <ele>924.865</ele>
        <time>2020-05-20T23:42:56Z</time>
      </trkpt>
      <trkpt lat="37.386795" lon="-3.971030">
        <ele>925.095</ele>
        <time>2020-05-20T23:43:09Z</time>
      </trkpt>
      <trkpt lat="37.386875" lon="-3.971156">
        <ele>924.949</ele>
        <time>2020-05-20T23:43:24Z</time>
      </trkpt>
      <trkpt lat="37.386978" lon="-3.971313">
        <ele>924.223</ele>
        <time>2020-05-20T23:43:42Z</time>
      </trkpt>
      <trkpt lat="37.387072" lon="-3.971468">
        <ele>923.108</ele>
        <time>2020-05-20T23:44:00Z</time>
      </trkpt>
      <trkpt lat="37.387131" lon="-3.971546">
        <ele>922.027</ele>
        <time>2020-05-20T23:44:10Z</time>
      </trkpt>
      <trkpt lat="37.387215" lon="-3.971750">
        <ele>921.018</ele>
        <time>2020-05-20T23:44:31Z</time>
      </trkpt>
      <trkpt lat="37.387259" lon="-3.971857">
        <ele>921.075</ele>
        <time>2020-05-20T23:44:41Z</time>
      </trkpt>
      <trkpt lat="37.387296" lon="-3.972023">
        <ele>920.133</ele>
        <time>2020-05-20T23:44:57Z</time>
      </trkpt>
      <trkpt lat="37.387339" lon="-3.972081">
        <ele>918.895</ele>
        <time>2020-05-20T23:45:04Z</time>
      </trkpt>
      <trkpt lat="37.387369" lon="-3.972143">
        <ele>919.040</ele>
        <time>2020-05-20T23:45:11Z</time>
      </trkpt>
      <trkpt lat="37.387419" lon="-3.972234">
        <ele>919.595</ele>
        <time>2020-05-20T23:45:21Z</time>
      </trkpt>
      <trkpt lat="37.387584" lon="-3.972331">
        <ele>920.499</ele>
        <time>2020-05-20T23:45:42Z</time>
      </trkpt>
      <trkpt lat="37.387694" lon="-3.972369">
        <ele>920.239</ele>
        <time>2020-05-20T23:45:55Z</time>
      </trkpt>
      <trkpt lat="37.387800" lon="-3.972422">
        <ele>920.101</ele>
        <time>2020-05-20T23:46:08Z</time>
      </trkpt>
      <trkpt lat="37.387876" lon="-3.972483">
        <ele>919.521</ele>
        <time>2020-05-20T23:46:18Z</time>
      </trkpt>
      <trkpt lat="37.387947" lon="-3.972553">
        <ele>920.008</ele>
        <time>2020-05-20T23:46:28Z</time>
      </trkpt>
      <trkpt lat="37.387952" lon="-3.972560">
        <ele>920.011</ele>
        <time>2020-05-20T23:46:29Z</time>
      </trkpt>
      <trkpt lat="37.388026" lon="-3.972668">
        <ele>918.272</ele>
        <time>2020-05-20T23:46:42Z</time>
      </trkpt>
      <trkpt lat="37.388069" lon="-3.972788">
        <ele>916.829</ele>
        <time>2020-05-20T23:46:54Z</time>
      </trkpt>
      <trkpt lat="37.388114" lon="-3.972975">
        <ele>915.077</ele>
        <time>2020-05-20T23:47:12Z</time>
      </trkpt>
      <trkpt lat="37.388147" lon="-3.973156">
        <ele>912.479</ele>
        <time>2020-05-20T23:47:29Z</time>
      </trkpt>
      <trkpt lat="37.388176" lon="-3.973427">
        <ele>910.954</ele>
        <time>2020-05-20T23:47:54Z</time>
      </trkpt>
      <trkpt lat="37.388207" lon="-3.973652">
        <ele>909.439</ele>
        <time>2020-05-20T23:48:14Z</time>
      </trkpt>
      <trkpt lat="37.388236" lon="-3.973685">
        <ele>908.973</ele>
        <time>2020-05-20T23:48:19Z</time>
      </trkpt>
      <trkpt lat="37.388258" lon="-3.973874">
        <ele>909.554</ele>
        <time>2020-05-20T23:48:36Z</time>
      </trkpt>
      <trkpt lat="37.388297" lon="-3.974035">
        <ele>907.656</ele>
        <time>2020-05-20T23:48:52Z</time>
      </trkpt>
      <trkpt lat="37.388306" lon="-3.974145">
        <ele>906.811</ele>
        <time>2020-05-20T23:49:02Z</time>
      </trkpt>
      <trkpt lat="37.388306" lon="-3.974151">
        <ele>906.708</ele>
        <time>2020-05-20T23:49:02Z</time>
      </trkpt>
      <trkpt lat="37.388279" lon="-3.974353">
        <ele>906.153</ele>
        <time>2020-05-20T23:49:21Z</time>
      </trkpt>
      <trkpt lat="37.388324" lon="-3.974437">
        <ele>903.774</ele>
        <time>2020-05-20T23:49:30Z</time>
      </trkpt>
      <trkpt lat="37.388398" lon="-3.974544">
        <ele>902.141</ele>
        <time>2020-05-20T23:49:43Z</time>
      </trkpt>
      <trkpt lat="37.388485" lon="-3.974643">
        <ele>900.449</ele>
        <time>2020-05-20T23:49:57Z</time>
      </trkpt>
      <trkpt lat="37.388519" lon="-3.974753">
        <ele>899.691</ele>
        <time>2020-05-20T23:50:07Z</time>
      </trkpt>
      <trkpt lat="37.388536" lon="-3.974871">
        <ele>899.566</ele>
        <time>2020-05-20T23:50:18Z</time>
      </trkpt>
      <trkpt lat="37.388543" lon="-3.974886">
        <ele>899.441</ele>
        <time>2020-05-20T23:50:20Z</time>
      </trkpt>
      <trkpt lat="37.388548" lon="-3.974902">
        <ele>899.345</ele>
        <time>2020-05-20T23:50:21Z</time>
      </trkpt>
      <trkpt lat="37.388594" lon="-3.975015">
        <ele>900.494</ele>
        <time>2020-05-20T23:50:33Z</time>
      </trkpt>
      <trkpt lat="37.388676" lon="-3.975112">
        <ele>901.057</ele>
        <time>2020-05-20T23:50:46Z</time>
      </trkpt>
      <trkpt lat="37.388755" lon="-3.975102">
        <ele>902.322</ele>
        <time>2020-05-20T23:50:55Z</time>
      </trkpt>
      <trkpt lat="37.388809" lon="-3.975195">
        <ele>903.708</ele>
        <time>2020-05-20T23:51:05Z</time>
      </trkpt>
      <trkpt lat="37.388763" lon="-3.975297">
        <ele>904.357</ele>
        <time>2020-05-20T23:51:16Z</time>
      </trkpt>
      <trkpt lat="37.388743" lon="-3.975396">
        <ele>904.978</ele>
        <time>2020-05-20T23:51:25Z</time>
      </trkpt>
      <trkpt lat="37.388748" lon="-3.975469">
        <ele>906.215</ele>
        <time>2020-05-20T23:51:32Z</time>
      </trkpt>
      <trkpt lat="37.388748" lon="-3.975541">
        <ele>907.273</ele>
        <time>2020-05-20T23:51:39Z</time>
      </trkpt>
      <trkpt lat="37.388744" lon="-3.975611">
        <ele>907.295</ele>
        <time>2020-05-20T23:51:45Z</time>
      </trkpt>
      <trkpt lat="37.388769" lon="-3.975664">
        <ele>908.080</ele>
        <time>2020-05-20T23:51:51Z</time>
      </trkpt>
      <trkpt lat="37.388816" lon="-3.975700">
        <ele>909.095</ele>
        <time>2020-05-20T23:51:57Z</time>
      </trkpt>
      <trkpt lat="37.388886" lon="-3.975726">
        <ele>909.789</ele>
        <time>2020-05-20T23:52:05Z</time>
      </trkpt>
      <trkpt lat="37.388962" lon="-3.975731">
        <ele>911.098</ele>
        <time>2020-05-20T23:52:14Z</time>
      </trkpt>
      <trkpt lat="37.389027" lon="-3.975709">
        <ele>911.215</ele>
        <time>2020-05-20T23:52:22Z</time>
      </trkpt>
      <trkpt lat="37.389026" lon="-3.976081">
        <ele>911.326</ele>
        <time>2020-05-20T23:52:55Z</time>
      </trkpt>
      <trkpt lat="37.389020" lon="-3.976435">
        <ele>911.108</ele>
        <time>2020-05-20T23:53:27Z</time>
      </trkpt>
      <trkpt lat="37.388943" lon="-3.976733">
        <ele>911.727</ele>
        <time>2020-05-20T23:53:56Z</time>
      </trkpt>
      <trkpt lat="37.388782" lon="-3.977177">
        <ele>911.248</ele>
        <time>2020-05-20T23:54:40Z</time>
      </trkpt>
      <trkpt lat="37.388622" lon="-3.977727">
        <ele>913.065</ele>
        <time>2020-05-20T23:55:33Z</time>
      </trkpt>
      <trkpt lat="37.388503" lon="-3.978168">
        <ele>914.013</ele>
        <time>2020-05-20T23:56:15Z</time>
      </trkpt>
      <trkpt lat="37.388415" lon="-3.978434">
        <ele>915.015</ele>
        <time>2020-05-20T23:56:41Z</time>
      </trkpt>
      <trkpt lat="37.388340" lon="-3.978891">
        <ele>916.050</ele>
        <time>2020-05-20T23:57:23Z</time>
      </trkpt>
      <trkpt lat="37.388324" lon="-3.979333">
        <ele>916.755</ele>
        <time>2020-05-20T23:58:03Z</time>
      </trkpt>
      <trkpt lat="37.388289" lon="-3.979819">
        <ele>917.949</ele>
        <time>2020-05-20T23:58:48Z</time>
      </trkpt>
      <trkpt lat="37.388245" lon="-3.980320">
        <ele>918.047</ele>
        <time>2020-05-20T23:59:33Z</time>
      </trkpt>
      <trkpt lat="37.388246" lon="-3.980822">
        <ele>918.029</ele>
        <time>2020-05-21T00:00:19Z</time>
      </trkpt>
      <trkpt lat="37.388246" lon="-3.980852">
        <ele>918.021</ele>
        <time>2020-05-21T00:00:21Z</time>
      </trkpt>
      <trkpt lat="37.388233" lon="-3.981303">
        <ele>918.108</ele>
        <time>2020-05-21T00:01:02Z</time>
      </trkpt>
      <trkpt lat="37.388206" lon="-3.981694">
        <ele>917.622</ele>
        <time>2020-05-21T00:01:38Z</time>
      </trkpt>
      <trkpt lat="37.388207" lon="-3.981967">
        <ele>918.073</ele>
        <time>2020-05-21T00:02:02Z</time>
      </trkpt>
      <trkpt lat="37.388291" lon="-3.982412">
        <ele>917.230</ele>
        <time>2020-05-21T00:02:44Z</time>
      </trkpt>
      <trkpt lat="37.388447" lon="-3.982974">
        <ele>918.098</ele>
        <time>2020-05-21T00:03:38Z</time>
      </trkpt>
      <trkpt lat="37.388581" lon="-3.983372">
        <ele>918.020</ele>
        <time>2020-05-21T00:04:17Z</time>
      </trkpt>
      <trkpt lat="37.388641" lon="-3.983555">
        <ele>917.335</ele>
        <time>2020-05-21T00:04:35Z</time>
      </trkpt>
      <trkpt lat="37.388749" lon="-3.983675">
        <ele>917.060</ele>
        <time>2020-05-21T00:04:51Z</time>
      </trkpt>
      <trkpt lat="37.388754" lon="-3.983690">
        <ele>917.034</ele>
        <time>2020-05-21T00:04:53Z</time>
      </trkpt>
      <trkpt lat="37.388939" lon="-3.983906">
        <ele>916.857</ele>
        <time>2020-05-21T00:05:21Z</time>
      </trkpt>
      <trkpt lat="37.389070" lon="-3.984081">
        <ele>916.900</ele>
        <time>2020-05-21T00:05:43Z</time>
      </trkpt>
      <trkpt lat="37.389281" lon="-3.984321">
        <ele>918.720</ele>
        <time>2020-05-21T00:06:16Z</time>
      </trkpt>
      <trkpt lat="37.389509" lon="-3.984542">
        <ele>919.808</ele>
        <time>2020-05-21T00:06:48Z</time>
      </trkpt>
      <trkpt lat="37.389537" lon="-3.984556">
        <ele>919.843</ele>
        <time>2020-05-21T00:06:52Z</time>
      </trkpt>
      <trkpt lat="37.389867" lon="-3.984790">
        <ele>920.044</ele>
        <time>2020-05-21T00:07:35Z</time>
      </trkpt>
      <trkpt lat="37.390130" lon="-3.985051">
        <ele>919.841</ele>
        <time>2020-05-21T00:08:13Z</time>
      </trkpt>
      <trkpt lat="37.390346" lon="-3.985168">
        <ele>919.079</ele>
        <time>2020-05-21T00:08:40Z</time>
      </trkpt>
      <trkpt lat="37.390954" lon="-3.985420">
        <ele>920.071</ele>
        <time>2020-05-21T00:09:53Z</time>
      </trkpt>
      <trkpt lat="37.391022" lon="-3.985422">
        <ele>920.046</ele>
        <time>2020-05-21T00:10:01Z</time>
      </trkpt>
      <trkpt lat="37.391141" lon="-3.985462">
        <ele>920.071</ele>
        <time>2020-05-21T00:10:15Z</time>
      </trkpt>
      <trkpt lat="37.391411" lon="-3.985565">
        <ele>920.015</ele>
        <time>2020-05-21T00:10:47Z</time>
      </trkpt>
      <trkpt lat="37.391671" lon="-3.985811">
        <ele>920.076</ele>
        <time>2020-05-21T00:11:24Z</time>
      </trkpt>
      <trkpt lat="37.391923" lon="-3.986160">
        <ele>920.090</ele>
        <time>2020-05-21T00:12:06Z</time>
      </trkpt>
      <trkpt lat="37.392214" lon="-3.986513">
        <ele>920.019</ele>
        <time>2020-05-21T00:12:52Z</time>
      </trkpt>
      <trkpt lat="37.392426" lon="-3.986793">
        <ele>920.008</ele>
        <time>2020-05-21T00:13:27Z</time>
      </trkpt>
      <trkpt lat="37.392627" lon="-3.987053">
        <ele>921.195</ele>
        <time>2020-05-21T00:14:00Z</time>
      </trkpt>
      <trkpt lat="37.392779" lon="-3.987436">
        <ele>922.256</ele>
        <time>2020-05-21T00:14:39Z</time>
      </trkpt>
      <trkpt lat="37.392946" lon="-3.987789">
        <ele>923.073</ele>
        <time>2020-05-21T00:15:16Z</time>
      </trkpt>
      <trkpt lat="37.393153" lon="-3.988083">
        <ele>923.491</ele>
        <time>2020-05-21T00:15:52Z</time>
      </trkpt>
      <trkpt lat="37.393482" lon="-3.988526">
        <ele>922.073</ele>
        <time>2020-05-21T00:16:47Z</time>
      </trkpt>
      <trkpt lat="37.393863" lon="-3.989053">
        <ele>922.038</ele>
        <time>2020-05-21T00:17:51Z</time>
      </trkpt>
      <trkpt lat="37.394247" lon="-3.989662">
        <ele>922.083</ele>
        <time>2020-05-21T00:19:01Z</time>
      </trkpt>
      <trkpt lat="37.394461" lon="-3.990007">
        <ele>923.067</ele>
        <time>2020-05-21T00:19:41Z</time>
      </trkpt>
      <trkpt lat="37.394709" lon="-3.990471">
        <ele>923.018</ele>
        <time>2020-05-21T00:20:32Z</time>
      </trkpt>
      <trkpt lat="37.394713" lon="-3.990474">
        <ele>923.098</ele>
        <time>2020-05-21T00:20:32Z</time>
      </trkpt>
      <trkpt lat="37.395023" lon="-3.990987">
        <ele>923.317</ele>
        <time>2020-05-21T00:21:31Z</time>
      </trkpt>
      <trkpt lat="37.395224" lon="-3.991359">
        <ele>924.008</ele>
        <time>2020-05-21T00:22:11Z</time>
      </trkpt>
      <trkpt lat="37.395443" lon="-3.991797">
        <ele>925.019</ele>
        <time>2020-05-21T00:22:58Z</time>
      </trkpt>
      <trkpt lat="37.395557" lon="-3.992070">
        <ele>926.010</ele>
        <time>2020-05-21T00:23:26Z</time>
      </trkpt>
      <trkpt lat="37.395707" lon="-3.992268">
        <ele>927.027</ele>
        <time>2020-05-21T00:23:51Z</time>
      </trkpt>
      <trkpt lat="37.396001" lon="-3.992505">
        <ele>928.045</ele>
        <time>2020-05-21T00:24:31Z</time>
      </trkpt>
      <trkpt lat="37.396367" lon="-3.992829">
        <ele>930.037</ele>
        <time>2020-05-21T00:25:22Z</time>
      </trkpt>
      <trkpt lat="37.396683" lon="-3.993248">
        <ele>930.042</ele>
        <time>2020-05-21T00:26:14Z</time>
      </trkpt>
      <trkpt lat="37.397061" lon="-3.993767">
        <ele>931.087</ele>
        <time>2020-05-21T00:27:17Z</time>
      </trkpt>
      <trkpt lat="37.397077" lon="-3.993781">
        <ele>931.081</ele>
        <time>2020-05-21T00:27:20Z</time>
      </trkpt>
      <trkpt lat="37.397242" lon="-3.993949">
        <ele>932.064</ele>
        <time>2020-05-21T00:27:44Z</time>
      </trkpt>
      <trkpt lat="37.397498" lon="-3.994193">
        <ele>933.606</ele>
        <time>2020-05-21T00:28:21Z</time>
      </trkpt>
      <trkpt lat="37.397762" lon="-3.994525">
        <ele>936.316</ele>
        <time>2020-05-21T00:29:03Z</time>
      </trkpt>
      <trkpt lat="37.397978" lon="-3.994872">
        <ele>939.108</ele>
        <time>2020-05-21T00:29:43Z</time>
      </trkpt>
      <trkpt lat="37.398355" lon="-3.995448">
        <ele>943.034</ele>
        <time>2020-05-21T00:30:51Z</time>
      </trkpt>
      <trkpt lat="37.398612" lon="-3.995807">
        <ele>946.735</ele>
        <time>2020-05-21T00:31:35Z</time>
      </trkpt>
      <trkpt lat="37.398621" lon="-3.995815">
        <ele>947.132</ele>
        <time>2020-05-21T00:31:36Z</time>
      </trkpt>
      <trkpt lat="37.398853" lon="-3.996041">
        <ele>949.050</ele>
        <time>2020-05-21T00:32:09Z</time>
      </trkpt>
      <trkpt lat="37.399134" lon="-3.996317">
        <ele>950.812</ele>
        <time>2020-05-21T00:32:50Z</time>
      </trkpt>
      <trkpt lat="37.399322" lon="-3.996645">
        <ele>952.097</ele>
        <time>2020-05-21T00:33:27Z</time>
      </trkpt>
      <trkpt lat="37.399608" lon="-3.997119">
        <ele>952.932</ele>
        <time>2020-05-21T00:34:20Z</time>
      </trkpt>
      <trkpt lat="37.399887" lon="-3.997485">
        <ele>952.976</ele>
        <time>2020-05-21T00:35:06Z</time>
      </trkpt>
      <trkpt lat="37.400292" lon="-3.997928">
        <ele>954.519</ele>
        <time>2020-05-21T00:36:07Z</time>
      </trkpt>
      <trkpt lat="37.400664" lon="-3.998201">
        <ele>956.209</ele>
        <time>2020-05-21T00:36:57Z</time>
      </trkpt>
      <trkpt lat="37.400997" lon="-3.998458">
        <ele>958.019</ele>
        <time>2020-05-21T00:37:41Z</time>
      </trkpt>
      <trkpt lat="37.401258" lon="-3.998767">
        <ele>961.008</ele>
        <time>2020-05-21T00:38:22Z</time>
      </trkpt>
      <trkpt lat="37.401531" lon="-3.999160">
        <ele>964.259</ele>
        <time>2020-05-21T00:39:09Z</time>
      </trkpt>
      <trkpt lat="37.401789" lon="-3.999598">
        <ele>966.540</ele>
        <time>2020-05-21T00:39:59Z</time>
      </trkpt>
      <trkpt lat="37.401868" lon="-3.999836">
        <ele>967.747</ele>
        <time>2020-05-21T00:40:22Z</time>
      </trkpt>
      <trkpt lat="37.401944" lon="-4.000056">
        <ele>968.545</ele>
        <time>2020-05-21T00:40:44Z</time>
      </trkpt>
      <trkpt lat="37.402007" lon="-4.000285">
        <ele>969.077</ele>
        <time>2020-05-21T00:41:06Z</time>
      </trkpt>
      <trkpt lat="37.402093" lon="-4.000562">
        <ele>970.732</ele>
        <time>2020-05-21T00:41:33Z</time>
      </trkpt>
      <trkpt lat="37.402254" lon="-4.000794">
        <ele>971.817</ele>
        <time>2020-05-21T00:42:01Z</time>
      </trkpt>
      <trkpt lat="37.402476" lon="-4.001090">
        <ele>973.051</ele>
        <time>2020-05-21T00:42:37Z</time>
      </trkpt>
      <trkpt lat="37.402662" lon="-4.001311">
        <ele>974.224</ele>
        <time>2020-05-21T00:43:07Z</time>
      </trkpt>
      <trkpt lat="37.402671" lon="-4.001318">
        <ele>974.204</ele>
        <time>2020-05-21T00:43:08Z</time>
      </trkpt>
      <trkpt lat="37.402914" lon="-4.001621">
        <ele>977.014</ele>
        <time>2020-05-21T00:43:47Z</time>
      </trkpt>
      <trkpt lat="37.403167" lon="-4.001927">
        <ele>979.908</ele>
        <time>2020-05-21T00:44:27Z</time>
      </trkpt>
      <trkpt lat="37.403428" lon="-4.002221">
        <ele>981.910</ele>
        <time>2020-05-21T00:45:07Z</time>
      </trkpt>
      <trkpt lat="37.403649" lon="-4.002455">
        <ele>983.571</ele>
        <time>2020-05-21T00:45:40Z</time>
      </trkpt>
      <trkpt lat="37.404015" lon="-4.002850">
        <ele>987.068</ele>
        <time>2020-05-21T00:46:35Z</time>
      </trkpt>
      <trkpt lat="37.404279" lon="-4.003115">
        <ele>989.046</ele>
        <time>2020-05-21T00:47:13Z</time>
      </trkpt>
      <trkpt lat="37.404593" lon="-4.003432">
        <ele>991.698</ele>
        <time>2020-05-21T00:47:59Z</time>
      </trkpt>
      <trkpt lat="37.404815" lon="-4.003689">
        <ele>993.053</ele>
        <time>2020-05-21T00:48:34Z</time>
      </trkpt>
      <trkpt lat="37.405024" lon="-4.003860">
        <ele>994.278</ele>
        <time>2020-05-21T00:49:02Z</time>
      </trkpt>
      <trkpt lat="37.405212" lon="-4.004084">
        <ele>996.052</ele>
        <time>2020-05-21T00:49:32Z</time>
      </trkpt>
      <trkpt lat="37.405330" lon="-4.004155">
        <ele>996.754</ele>
        <time>2020-05-21T00:49:46Z</time>
      </trkpt>
      <trkpt lat="37.405398" lon="-4.004053">
        <ele>998.056</ele>
        <time>2020-05-21T00:49:59Z</time>
      </trkpt>
      <trkpt lat="37.405604" lon="-4.004045">
        <ele>999.111</ele>
        <time>2020-05-21T00:50:22Z</time>
      </trkpt>
      <trkpt lat="37.405850" lon="-4.003948">
        <ele>1000.208</ele>
        <time>2020-05-21T00:50:51Z</time>
      </trkpt>
      <trkpt lat="37.406113" lon="-4.003828">
        <ele>1003.073</ele>
        <time>2020-05-21T00:51:23Z</time>
      </trkpt>
      <trkpt lat="37.406238" lon="-4.003756">
        <ele>1004.814</ele>
        <time>2020-05-21T00:51:39Z</time>
      </trkpt>
      <trkpt lat="37.406403" lon="-4.003715">
        <ele>1006.331</ele>
        <time>2020-05-21T00:51:58Z</time>
      </trkpt>
      <trkpt lat="37.406728" lon="-4.003571">
        <ele>1010.369</ele>
        <time>2020-05-21T00:52:38Z</time>
      </trkpt>
      <trkpt lat="37.407035" lon="-4.003458">
        <ele>1014.061</ele>
        <time>2020-05-21T00:53:15Z</time>
      </trkpt>
      <trkpt lat="37.407409" lon="-4.003397">
        <ele>1018.866</ele>
        <time>2020-05-21T00:53:58Z</time>
      </trkpt>
      <trkpt lat="37.407564" lon="-4.003411">
        <ele>1020.621</ele>
        <time>2020-05-21T00:54:16Z</time>
      </trkpt>
      <trkpt lat="37.407807" lon="-4.003448">
        <ele>1023.695</ele>
        <time>2020-05-21T00:54:44Z</time>
      </trkpt>
      <trkpt lat="37.408173" lon="-4.003473">
        <ele>1027.973</ele>
        <time>2020-05-21T00:55:26Z</time>
      </trkpt>
      <trkpt lat="37.408627" lon="-4.003522">
        <ele>1031.085</ele>
        <time>2020-05-21T00:56:18Z</time>
      </trkpt>
      <trkpt lat="37.409087" lon="-4.003596">
        <ele>1035.013</ele>
        <time>2020-05-21T00:57:11Z</time>
      </trkpt>
      <trkpt lat="37.409232" lon="-4.003621">
        <ele>1035.008</ele>
        <time>2020-05-21T00:57:27Z</time>
      </trkpt>
      <trkpt lat="37.409508" lon="-4.003593">
        <ele>1038.135</ele>
        <time>2020-05-21T00:57:59Z</time>
      </trkpt>
      <trkpt lat="37.409775" lon="-4.003489">
        <ele>1041.346</ele>
        <time>2020-05-21T00:58:31Z</time>
      </trkpt>
      <trkpt lat="37.410023" lon="-4.003302">
        <ele>1045.053</ele>
        <time>2020-05-21T00:59:04Z</time>
      </trkpt>
      <trkpt lat="37.410185" lon="-4.003181">
        <ele>1047.131</ele>
        <time>2020-05-21T00:59:26Z</time>
      </trkpt>
      <trkpt lat="37.410437" lon="-4.003058">
        <ele>1051.383</ele>
        <time>2020-05-21T00:59:57Z</time>
      </trkpt>
      <trkpt lat="37.410730" lon="-4.003023">
        <ele>1054.568</ele>
        <time>2020-05-21T01:00:30Z</time>
      </trkpt>
      <trkpt lat="37.410914" lon="-4.003074">
        <ele>1056.863</ele>
        <time>2020-05-21T01:00:52Z</time>
      </trkpt>
      <trkpt lat="37.411070" lon="-4.003085">
        <ele>1058.657</ele>
        <time>2020-05-21T01:01:10Z</time>
      </trkpt>
      <trkpt lat="37.411313" lon="-4.003010">
        <ele>1061.925</ele>
        <time>2020-05-21T01:01:39Z</time>
      </trkpt>
      <trkpt lat="37.411561" lon="-4.002894">
        <ele>1066.226</ele>
        <time>2020-05-21T01:02:09Z</time>
      </trkpt>
      <trkpt lat="37.411756" lon="-4.002775">
        <ele>1068.808</ele>
        <time>2020-05-21T01:02:34Z</time>
      </trkpt>
      <trkpt lat="37.411924" lon="-4.002623">
        <ele>1071.708</ele>
        <time>2020-05-21T01:02:58Z</time>
      </trkpt>
      <trkpt lat="37.411940" lon="-4.002610">
        <ele>1072.040</ele>
        <time>2020-05-21T01:03:00Z</time>
      </trkpt>
      <trkpt lat="37.412243" lon="-4.002318">
        <ele>1078.231</ele>
        <time>2020-05-21T01:03:44Z</time>
      </trkpt>
      <trkpt lat="37.412605" lon="-4.002077">
        <ele>1083.668</ele>
        <time>2020-05-21T01:04:31Z</time>
      </trkpt>
      <trkpt lat="37.412905" lon="-4.002010">
        <ele>1089.286</ele>
        <time>2020-05-21T01:05:06Z</time>
      </trkpt>
      <trkpt lat="37.413202" lon="-4.002022">
        <ele>1095.078</ele>
        <time>2020-05-21T01:05:40Z</time>
      </trkpt>
      <trkpt lat="37.413462" lon="-4.001997">
        <ele>1099.043</ele>
        <time>2020-05-21T01:06:10Z</time>
      </trkpt>
      <trkpt lat="37.413640" lon="-4.002010">
        <ele>1102.268</ele>
        <time>2020-05-21T01:06:31Z</time>
      </trkpt>
      <trkpt lat="37.413802" lon="-4.001990">
        <ele>1105.142</ele>
        <time>2020-05-21T01:06:49Z</time>
      </trkpt>
      <trkpt lat="37.413980" lon="-4.001989">
        <ele>1108.919</ele>
        <time>2020-05-21T01:07:10Z</time>
      </trkpt>
      <trkpt lat="37.413987" lon="-4.001988">
        <ele>1109.109</ele>
        <time>2020-05-21T01:07:11Z</time>
      </trkpt>
      <trkpt lat="37.414134" lon="-4.001940">
        <ele>1112.019</ele>
        <time>2020-05-21T01:07:28Z</time>
      </trkpt>
      <trkpt lat="37.414253" lon="-4.001897">
        <ele>1114.008</ele>
        <time>2020-05-21T01:07:43Z</time>
      </trkpt>
      <trkpt lat="37.414391" lon="-4.001689">
        <ele>1116.569</ele>
        <time>2020-05-21T01:08:01Z</time>
      </trkpt>
      <trkpt lat="37.414603" lon="-4.001397">
        <ele>1120.370</ele>
        <time>2020-05-21T01:08:05Z</time>
      </trkpt>
      <trkpt lat="37.414822" lon="-4.000986">
        <ele>1124.247</ele>
        <time>2020-05-21T01:08:09Z</time>
      </trkpt>
      <trkpt lat="37.414822" lon="-4.000986">
        <ele>1124.224</ele>
        <time>2020-05-21T01:06:20Z</time>
      </trkpt>
      <trkpt lat="37.414853" lon="-4.000868">
        <ele>1125.404</ele>
        <time>2020-05-21T01:06:31Z</time>
      </trkpt>
      <trkpt lat="37.414757" lon="-4.001238">
        <ele>1122.714</ele>
        <time>2020-05-21T01:07:07Z</time>
      </trkpt>
      <trkpt lat="37.414570" lon="-4.001518">
        <ele>1119.008</ele>
        <time>2020-05-21T01:07:40Z</time>
      </trkpt>
      <trkpt lat="37.414413" lon="-4.001694">
        <ele>1116.970</ele>
        <time>2020-05-21T01:08:04Z</time>
      </trkpt>
      <trkpt lat="37.414521" lon="-4.001766">
        <ele>1118.951</ele>
        <time>2020-05-21T01:08:18Z</time>
      </trkpt>
      <trkpt lat="37.414619" lon="-4.001857">
        <ele>1121.258</ele>
        <time>2020-05-21T01:08:32Z</time>
      </trkpt>
      <trkpt lat="37.414683" lon="-4.001952">
        <ele>1122.716</ele>
        <time>2020-05-21T01:08:43Z</time>
      </trkpt>
      <trkpt lat="37.414758" lon="-4.002002">
        <ele>1124.188</ele>
        <time>2020-05-21T01:08:53Z</time>
      </trkpt>
      <trkpt lat="37.414803" lon="-4.002086">
        <ele>1124.925</ele>
        <time>2020-05-21T01:09:02Z</time>
      </trkpt>
      <trkpt lat="37.414822" lon="-4.002184">
        <ele>1125.273</ele>
        <time>2020-05-21T01:09:12Z</time>
      </trkpt>
      <trkpt lat="37.414845" lon="-4.002287">
        <ele>1125.698</ele>
        <time>2020-05-21T01:09:21Z</time>
      </trkpt>
      <trkpt lat="37.414883" lon="-4.002416">
        <ele>1126.879</ele>
        <time>2020-05-21T01:09:34Z</time>
      </trkpt>
      <trkpt lat="37.414897" lon="-4.002560">
        <ele>1128.505</ele>
        <time>2020-05-21T01:09:47Z</time>
      </trkpt>
      <trkpt lat="37.414911" lon="-4.002659">
        <ele>1129.125</ele>
        <time>2020-05-21T01:09:56Z</time>
      </trkpt>
      <trkpt lat="37.414911" lon="-4.002660">
        <ele>1129.108</ele>
        <time>2020-05-21T01:09:56Z</time>
      </trkpt>
      <trkpt lat="37.414921" lon="-4.002754">
        <ele>1130.015</ele>
        <time>2020-05-21T01:10:05Z</time>
      </trkpt>
      <trkpt lat="37.414921" lon="-4.002755">
        <ele>1130.096</ele>
        <time>2020-05-21T01:10:05Z</time>
      </trkpt>
      <trkpt lat="37.414961" lon="-4.002875">
        <ele>1130.773</ele>
        <time>2020-05-21T01:10:17Z</time>
      </trkpt>
      <trkpt lat="37.415015" lon="-4.002979">
        <ele>1130.631</ele>
        <time>2020-05-21T01:10:28Z</time>
      </trkpt>
      <trkpt lat="37.415063" lon="-4.003068">
        <ele>1131.513</ele>
        <time>2020-05-21T01:10:38Z</time>
      </trkpt>
      <trkpt lat="37.415123" lon="-4.003188">
        <ele>1134.010</ele>
        <time>2020-05-21T01:10:51Z</time>
      </trkpt>
      <trkpt lat="37.415158" lon="-4.003270">
        <ele>1135.388</ele>
        <time>2020-05-21T01:10:59Z</time>
      </trkpt>
      <trkpt lat="37.415196" lon="-4.003395">
        <ele>1135.883</ele>
        <time>2020-05-21T01:11:11Z</time>
      </trkpt>
      <trkpt lat="37.415222" lon="-4.003521">
        <ele>1135.537</ele>
        <time>2020-05-21T01:11:23Z</time>
      </trkpt>
      <trkpt lat="37.415266" lon="-4.003628">
        <ele>1135.449</ele>
        <time>2020-05-21T01:11:34Z</time>
      </trkpt>
      <trkpt lat="37.415341" lon="-4.003790">
        <ele>1136.013</ele>
        <time>2020-05-21T01:11:51Z</time>
      </trkpt>
      <trkpt lat="37.415396" lon="-4.003898">
        <ele>1137.408</ele>
        <time>2020-05-21T01:12:03Z</time>
      </trkpt>
      <trkpt lat="37.415475" lon="-4.004092">
        <ele>1136.971</ele>
        <time>2020-05-21T01:12:23Z</time>
      </trkpt>
      <trkpt lat="37.415476" lon="-4.004102">
        <ele>1136.832</ele>
        <time>2020-05-21T01:12:23Z</time>
      </trkpt>
      <trkpt lat="37.415527" lon="-4.004263">
        <ele>1136.719</ele>
        <time>2020-05-21T01:12:39Z</time>
      </trkpt>
      <trkpt lat="37.415557" lon="-4.004407">
        <ele>1137.097</ele>
        <time>2020-05-21T01:12:53Z</time>
      </trkpt>
      <trkpt lat="37.415557" lon="-4.004414">
        <ele>1137.029</ele>
        <time>2020-05-21T01:12:53Z</time>
      </trkpt>
      <trkpt lat="37.415575" lon="-4.004584">
        <ele>1136.386</ele>
        <time>2020-05-21T01:13:09Z</time>
      </trkpt>
      <trkpt lat="37.415625" lon="-4.004767">
        <ele>1135.544</ele>
        <time>2020-05-21T01:13:26Z</time>
      </trkpt>
      <trkpt lat="37.415627" lon="-4.004771">
        <ele>1135.519</ele>
        <time>2020-05-21T01:13:27Z</time>
      </trkpt>
      <trkpt lat="37.415687" lon="-4.004901">
        <ele>1134.393</ele>
        <time>2020-05-21T01:13:40Z</time>
      </trkpt>
      <trkpt lat="37.415784" lon="-4.005053">
        <ele>1135.365</ele>
        <time>2020-05-21T01:13:58Z</time>
      </trkpt>
      <trkpt lat="37.415842" lon="-4.005176">
        <ele>1135.621</ele>
        <time>2020-05-21T01:14:11Z</time>
      </trkpt>
      <trkpt lat="37.415871" lon="-4.005284">
        <ele>1136.808</ele>
        <time>2020-05-21T01:14:21Z</time>
      </trkpt>
      <trkpt lat="37.415900" lon="-4.005412">
        <ele>1136.787</ele>
        <time>2020-05-21T01:14:33Z</time>
      </trkpt>
      <trkpt lat="37.415928" lon="-4.005567">
        <ele>1136.228</ele>
        <time>2020-05-21T01:14:48Z</time>
      </trkpt>
      <trkpt lat="37.415955" lon="-4.005713">
        <ele>1134.885</ele>
        <time>2020-05-21T01:15:01Z</time>
      </trkpt>
      <trkpt lat="37.415988" lon="-4.005868">
        <ele>1132.673</ele>
        <time>2020-05-21T01:15:16Z</time>
      </trkpt>
      <trkpt lat="37.416019" lon="-4.006031">
        <ele>1131.985</ele>
        <time>2020-05-21T01:15:31Z</time>
      </trkpt>
      <trkpt lat="37.416049" lon="-4.006217">
        <ele>1127.952</ele>
        <time>2020-05-21T01:15:49Z</time>
      </trkpt>
      <trkpt lat="37.416078" lon="-4.006316">
        <ele>1130.670</ele>
        <time>2020-05-21T01:15:59Z</time>
      </trkpt>
      <trkpt lat="37.416108" lon="-4.006412">
        <ele>1130.825</ele>
        <time>2020-05-21T01:16:08Z</time>
      </trkpt>
      <trkpt lat="37.416155" lon="-4.006541">
        <ele>1131.047</ele>
        <time>2020-05-21T01:16:21Z</time>
      </trkpt>
      <trkpt lat="37.416190" lon="-4.006649">
        <ele>1129.029</ele>
        <time>2020-05-21T01:16:32Z</time>
      </trkpt>
      <trkpt lat="37.416220" lon="-4.006756">
        <ele>1127.021</ele>
        <time>2020-05-21T01:16:42Z</time>
      </trkpt>
      <trkpt lat="37.416283" lon="-4.006860">
        <ele>1124.208</ele>
        <time>2020-05-21T01:16:54Z</time>
      </trkpt>
      <trkpt lat="37.416284" lon="-4.006866">
        <ele>1124.152</ele>
        <time>2020-05-21T01:16:55Z</time>
      </trkpt>
      <trkpt lat="37.416313" lon="-4.006979">
        <ele>1123.013</ele>
        <time>2020-05-21T01:17:06Z</time>
      </trkpt>
      <trkpt lat="37.416341" lon="-4.007144">
        <ele>1121.930</ele>
        <time>2020-05-21T01:17:21Z</time>
      </trkpt>
      <trkpt lat="37.416359" lon="-4.007310">
        <ele>1120.388</ele>
        <time>2020-05-21T01:17:36Z</time>
      </trkpt>
      <trkpt lat="37.416393" lon="-4.007436">
        <ele>1120.250</ele>
        <time>2020-05-21T01:17:48Z</time>
      </trkpt>
      <trkpt lat="37.416453" lon="-4.007631">
        <ele>1119.177</ele>
        <time>2020-05-21T01:18:07Z</time>
      </trkpt>
      <trkpt lat="37.416506" lon="-4.007749">
        <ele>1117.445</ele>
        <time>2020-05-21T01:18:20Z</time>
      </trkpt>
      <trkpt lat="37.416559" lon="-4.007956">
        <ele>1113.190</ele>
        <time>2020-05-21T01:18:40Z</time>
      </trkpt>
      <trkpt lat="37.416567" lon="-4.008116">
        <ele>1109.828</ele>
        <time>2020-05-21T01:18:55Z</time>
      </trkpt>
      <trkpt lat="37.416577" lon="-4.008251">
        <ele>1106.489</ele>
        <time>2020-05-21T01:19:07Z</time>
      </trkpt>
      <trkpt lat="37.416649" lon="-4.008367">
        <ele>1106.317</ele>
        <time>2020-05-21T01:19:21Z</time>
      </trkpt>
      <trkpt lat="37.416722" lon="-4.008519">
        <ele>1104.808</ele>
        <time>2020-05-21T01:19:37Z</time>
      </trkpt>
      <trkpt lat="37.416773" lon="-4.008701">
        <ele>1100.710</ele>
        <time>2020-05-21T01:19:55Z</time>
      </trkpt>
      <trkpt lat="37.416802" lon="-4.008758">
        <ele>1100.211</ele>
        <time>2020-05-21T01:20:01Z</time>
      </trkpt>
      <trkpt lat="37.416849" lon="-4.008870">
        <ele>1096.538</ele>
        <time>2020-05-21T01:20:13Z</time>
      </trkpt>
      <trkpt lat="37.416908" lon="-4.008958">
        <ele>1096.376</ele>
        <time>2020-05-21T01:20:23Z</time>
      </trkpt>
      <trkpt lat="37.416966" lon="-4.009026">
        <ele>1094.468</ele>
        <time>2020-05-21T01:20:33Z</time>
      </trkpt>
      <trkpt lat="37.417045" lon="-4.009102">
        <ele>1090.425</ele>
        <time>2020-05-21T01:20:45Z</time>
      </trkpt>
      <trkpt lat="37.417083" lon="-4.009205">
        <ele>1087.773</ele>
        <time>2020-05-21T01:20:55Z</time>
      </trkpt>
      <trkpt lat="37.417115" lon="-4.009330">
        <ele>1085.058</ele>
        <time>2020-05-21T01:21:08Z</time>
      </trkpt>
      <trkpt lat="37.417147" lon="-4.009445">
        <ele>1084.218</ele>
        <time>2020-05-21T01:21:19Z</time>
      </trkpt>
      <trkpt lat="37.417181" lon="-4.009590">
        <ele>1082.198</ele>
        <time>2020-05-21T01:21:32Z</time>
      </trkpt>
      <trkpt lat="37.417221" lon="-4.009730">
        <ele>1079.117</ele>
        <time>2020-05-21T01:21:46Z</time>
      </trkpt>
      <trkpt lat="37.417277" lon="-4.009859">
        <ele>1075.608</ele>
        <time>2020-05-21T01:22:00Z</time>
      </trkpt>
      <trkpt lat="37.417291" lon="-4.010020">
        <ele>1072.399</ele>
        <time>2020-05-21T01:22:15Z</time>
      </trkpt>
      <trkpt lat="37.417266" lon="-4.010136">
        <ele>1068.610</ele>
        <time>2020-05-21T01:22:27Z</time>
      </trkpt>
      <trkpt lat="37.417260" lon="-4.010308">
        <ele>1064.917</ele>
        <time>2020-05-21T01:22:43Z</time>
      </trkpt>
      <trkpt lat="37.417242" lon="-4.010450">
        <ele>1063.015</ele>
        <time>2020-05-21T01:22:56Z</time>
      </trkpt>
      <trkpt lat="37.417203" lon="-4.010601">
        <ele>1060.397</ele>
        <time>2020-05-21T01:23:10Z</time>
      </trkpt>
      <trkpt lat="37.417171" lon="-4.010813">
        <ele>1057.234</ele>
        <time>2020-05-21T01:23:30Z</time>
      </trkpt>
      <trkpt lat="37.417151" lon="-4.011079">
        <ele>1054.052</ele>
        <time>2020-05-21T01:23:55Z</time>
      </trkpt>
      <trkpt lat="37.417168" lon="-4.011258">
        <ele>1051.177</ele>
        <time>2020-05-21T01:24:11Z</time>
      </trkpt>
      <trkpt lat="37.417147" lon="-4.011393">
        <ele>1049.255</ele>
        <time>2020-05-21T01:24:24Z</time>
      </trkpt>
      <trkpt lat="37.417160" lon="-4.011584">
        <ele>1046.707</ele>
        <time>2020-05-21T01:24:41Z</time>
      </trkpt>
      <trkpt lat="37.417152" lon="-4.011682">
        <ele>1044.517</ele>
        <time>2020-05-21T01:24:50Z</time>
      </trkpt>
      <trkpt lat="37.417181" lon="-4.011799">
        <ele>1043.308</ele>
        <time>2020-05-21T01:25:02Z</time>
      </trkpt>
      <trkpt lat="37.417205" lon="-4.011933">
        <ele>1040.863</ele>
        <time>2020-05-21T01:25:14Z</time>
      </trkpt>
      <trkpt lat="37.417243" lon="-4.012085">
        <ele>1038.944</ele>
        <time>2020-05-21T01:25:29Z</time>
      </trkpt>
      <trkpt lat="37.417262" lon="-4.012199">
        <ele>1037.031</ele>
        <time>2020-05-21T01:25:40Z</time>
      </trkpt>
      <trkpt lat="37.417263" lon="-4.012206">
        <ele>1037.089</ele>
        <time>2020-05-21T01:25:40Z</time>
      </trkpt>
      <trkpt lat="37.417300" lon="-4.012330">
        <ele>1034.741</ele>
        <time>2020-05-21T01:25:52Z</time>
      </trkpt>
      <trkpt lat="37.417342" lon="-4.012480">
        <ele>1033.118</ele>
        <time>2020-05-21T01:26:07Z</time>
      </trkpt>
      <trkpt lat="37.417350" lon="-4.012628">
        <ele>1031.966</ele>
        <time>2020-05-21T01:26:20Z</time>
      </trkpt>
      <trkpt lat="37.417333" lon="-4.012738">
        <ele>1029.331</ele>
        <time>2020-05-21T01:26:31Z</time>
      </trkpt>
      <trkpt lat="37.417345" lon="-4.012849">
        <ele>1028.041</ele>
        <time>2020-05-21T01:26:41Z</time>
      </trkpt>
      <trkpt lat="37.417345" lon="-4.012851">
        <ele>1027.981</ele>
        <time>2020-05-21T01:26:41Z</time>
      </trkpt>
      <trkpt lat="37.417464" lon="-4.012970">
        <ele>1026.309</ele>
        <time>2020-05-21T01:26:59Z</time>
      </trkpt>
      <trkpt lat="37.417525" lon="-4.013094">
        <ele>1024.708</ele>
        <time>2020-05-21T01:27:12Z</time>
      </trkpt>
      <trkpt lat="37.417531" lon="-4.013259">
        <ele>1022.362</ele>
        <time>2020-05-21T01:27:27Z</time>
      </trkpt>
      <trkpt lat="37.417481" lon="-4.013349">
        <ele>1020.993</ele>
        <time>2020-05-21T01:27:37Z</time>
      </trkpt>
      <trkpt lat="37.417472" lon="-4.013479">
        <ele>1019.010</ele>
        <time>2020-05-21T01:27:49Z</time>
      </trkpt>
      <trkpt lat="37.417469" lon="-4.013556">
        <ele>1018.478</ele>
        <time>2020-05-21T01:27:56Z</time>
      </trkpt>
      <trkpt lat="37.417475" lon="-4.013599">
        <ele>1018.180</ele>
        <time>2020-05-21T01:28:00Z</time>
      </trkpt>
      <trkpt lat="37.417521" lon="-4.013584">
        <ele>1018.827</ele>
        <time>2020-05-21T01:28:06Z</time>
      </trkpt>
      <trkpt lat="37.417581" lon="-4.013623">
        <ele>1018.855</ele>
        <time>2020-05-21T01:28:13Z</time>
      </trkpt>
      <trkpt lat="37.417646" lon="-4.013633">
        <ele>1019.250</ele>
        <time>2020-05-21T01:28:21Z</time>
      </trkpt>
      <trkpt lat="37.417737" lon="-4.013626">
        <ele>1019.735</ele>
        <time>2020-05-21T01:28:31Z</time>
      </trkpt>
      <trkpt lat="37.417819" lon="-4.013598">
        <ele>1020.486</ele>
        <time>2020-05-21T01:28:41Z</time>
      </trkpt>
      <trkpt lat="37.417895" lon="-4.013569">
        <ele>1021.014</ele>
        <time>2020-05-21T01:28:50Z</time>
      </trkpt>
      <trkpt lat="37.417999" lon="-4.013582">
        <ele>1021.408</ele>
        <time>2020-05-21T01:29:02Z</time>
      </trkpt>
      <trkpt lat="37.418068" lon="-4.013636">
        <ele>1020.571</ele>
        <time>2020-05-21T01:29:11Z</time>
      </trkpt>
      <trkpt lat="37.418155" lon="-4.013694">
        <ele>1021.052</ele>
        <time>2020-05-21T01:29:22Z</time>
      </trkpt>
      <trkpt lat="37.418232" lon="-4.013763">
        <ele>1019.919</ele>
        <time>2020-05-21T01:29:33Z</time>
      </trkpt>
      <trkpt lat="37.418286" lon="-4.013804">
        <ele>1020.587</ele>
        <time>2020-05-21T01:29:40Z</time>
      </trkpt>
      <trkpt lat="37.418367" lon="-4.013846">
        <ele>1020.059</ele>
        <time>2020-05-21T01:29:50Z</time>
      </trkpt>
      <trkpt lat="37.418471" lon="-4.013843">
        <ele>1020.956</ele>
        <time>2020-05-21T01:30:02Z</time>
      </trkpt>
      <trkpt lat="37.418569" lon="-4.013849">
        <ele>1022.584</ele>
        <time>2020-05-21T01:30:13Z</time>
      </trkpt>
      <trkpt lat="37.418672" lon="-4.013853">
        <ele>1023.359</ele>
        <time>2020-05-21T01:30:25Z</time>
      </trkpt>
      <trkpt lat="37.418766" lon="-4.013836">
        <ele>1025.316</ele>
        <time>2020-05-21T01:30:36Z</time>
      </trkpt>
      <trkpt lat="37.418851" lon="-4.013874">
        <ele>1026.276</ele>
        <time>2020-05-21T01:30:47Z</time>
      </trkpt>
      <trkpt lat="37.418921" lon="-4.013920">
        <ele>1027.013</ele>
        <time>2020-05-21T01:30:56Z</time>
      </trkpt>
      <trkpt lat="37.419027" lon="-4.013931">
        <ele>1029.708</ele>
        <time>2020-05-21T01:31:08Z</time>
      </trkpt>
      <trkpt lat="37.419149" lon="-4.013916">
        <ele>1031.089</ele>
        <time>2020-05-21T01:31:22Z</time>
      </trkpt>
      <trkpt lat="37.419221" lon="-4.013938">
        <ele>1031.840</ele>
        <time>2020-05-21T01:31:31Z</time>
      </trkpt>
      <trkpt lat="37.419303" lon="-4.013982">
        <ele>1031.657</ele>
        <time>2020-05-21T01:31:41Z</time>
      </trkpt>
      <trkpt lat="37.419394" lon="-4.013955">
        <ele>1032.485</ele>
        <time>2020-05-21T01:31:51Z</time>
      </trkpt>
      <trkpt lat="37.419512" lon="-4.013959">
        <ele>1033.317</ele>
        <time>2020-05-21T01:32:05Z</time>
      </trkpt>
      <trkpt lat="37.419572" lon="-4.014042">
        <ele>1033.194</ele>
        <time>2020-05-21T01:32:15Z</time>
      </trkpt>
      <trkpt lat="37.419620" lon="-4.014173">
        <ele>1031.072</ele>
        <time>2020-05-21T01:32:28Z</time>
      </trkpt>
      <trkpt lat="37.419676" lon="-4.014267">
        <ele>1028.977</ele>
        <time>2020-05-21T01:32:39Z</time>
      </trkpt>
      <trkpt lat="37.419722" lon="-4.014318">
        <ele>1028.035</ele>
        <time>2020-05-21T01:32:46Z</time>
      </trkpt>
      <trkpt lat="37.419792" lon="-4.014296">
        <ele>1029.886</ele>
        <time>2020-05-21T01:32:54Z</time>
      </trkpt>
      <trkpt lat="37.419918" lon="-4.014276">
        <ele>1031.514</ele>
        <time>2020-05-21T01:33:09Z</time>
      </trkpt>
      <trkpt lat="37.420024" lon="-4.014262">
        <ele>1033.008</ele>
        <time>2020-05-21T01:33:21Z</time>
      </trkpt>
      <trkpt lat="37.420176" lon="-4.014262">
        <ele>1033.371</ele>
        <time>2020-05-21T01:33:39Z</time>
      </trkpt>
      <trkpt lat="37.420289" lon="-4.014227">
        <ele>1036.552</ele>
        <time>2020-05-21T01:33:52Z</time>
      </trkpt>
      <trkpt lat="37.420396" lon="-4.014216">
        <ele>1039.169</ele>
        <time>2020-05-21T01:34:05Z</time>
      </trkpt>
      <trkpt lat="37.420511" lon="-4.014230">
        <ele>1040.287</ele>
        <time>2020-05-21T01:34:18Z</time>
      </trkpt>
      <trkpt lat="37.420568" lon="-4.014286">
        <ele>1038.439</ele>
        <time>2020-05-21T01:34:26Z</time>
      </trkpt>
      <trkpt lat="37.420686" lon="-4.014289">
        <ele>1040.486</ele>
        <time>2020-05-21T01:34:40Z</time>
      </trkpt>
      <trkpt lat="37.420757" lon="-4.014283">
        <ele>1042.324</ele>
        <time>2020-05-21T01:34:48Z</time>
      </trkpt>
      <trkpt lat="37.420780" lon="-4.014201">
        <ele>1044.089</ele>
        <time>2020-05-21T01:34:56Z</time>
      </trkpt>
      <trkpt lat="37.420777" lon="-4.014097">
        <ele>1045.071</ele>
        <time>2020-05-21T01:35:06Z</time>
      </trkpt>
      <trkpt lat="37.420776" lon="-4.014008">
        <ele>1045.141</ele>
        <time>2020-05-21T01:35:14Z</time>
      </trkpt>
      <trkpt lat="37.420782" lon="-4.013935">
        <ele>1045.015</ele>
        <time>2020-05-21T01:35:21Z</time>
      </trkpt>
      <trkpt lat="37.420758" lon="-4.013760">
        <ele>1045.408</ele>
        <time>2020-05-21T01:35:37Z</time>
      </trkpt>
      <trkpt lat="37.420797" lon="-4.013644">
        <ele>1044.755</ele>
        <time>2020-05-21T01:35:48Z</time>
      </trkpt>
      <trkpt lat="37.420861" lon="-4.013538">
        <ele>1044.496</ele>
        <time>2020-05-21T01:36:00Z</time>
      </trkpt>
      <trkpt lat="37.420924" lon="-4.013443">
        <ele>1043.993</ele>
        <time>2020-05-21T01:36:11Z</time>
      </trkpt>
      <trkpt lat="37.421019" lon="-4.013371">
        <ele>1042.651</ele>
        <time>2020-05-21T01:36:24Z</time>
      </trkpt>
      <trkpt lat="37.421079" lon="-4.013288">
        <ele>1041.753</ele>
        <time>2020-05-21T01:36:34Z</time>
      </trkpt>
      <trkpt lat="37.421094" lon="-4.013186">
        <ele>1042.030</ele>
        <time>2020-05-21T01:36:44Z</time>
      </trkpt>
      <trkpt lat="37.421088" lon="-4.013095">
        <ele>1041.848</ele>
        <time>2020-05-21T01:36:52Z</time>
      </trkpt>
      <trkpt lat="37.421069" lon="-4.012950">
        <ele>1041.293</ele>
        <time>2020-05-21T01:37:05Z</time>
      </trkpt>
      <trkpt lat="37.421067" lon="-4.012839">
        <ele>1040.979</ele>
        <time>2020-05-21T01:37:15Z</time>
      </trkpt>
      <trkpt lat="37.421080" lon="-4.012702">
        <ele>1040.705</ele>
        <time>2020-05-21T01:37:28Z</time>
      </trkpt>
      <trkpt lat="37.421110" lon="-4.012600">
        <ele>1040.225</ele>
        <time>2020-05-21T01:37:38Z</time>
      </trkpt>
      <trkpt lat="37.421150" lon="-4.012479">
        <ele>1039.408</ele>
        <time>2020-05-21T01:37:49Z</time>
      </trkpt>
      <trkpt lat="37.421183" lon="-4.012349">
        <ele>1038.935</ele>
        <time>2020-05-21T01:38:02Z</time>
      </trkpt>
      <trkpt lat="37.421193" lon="-4.012218">
        <ele>1037.766</ele>
        <time>2020-05-21T01:38:14Z</time>
      </trkpt>
      <trkpt lat="37.421177" lon="-4.012078">
        <ele>1037.053</ele>
        <time>2020-05-21T01:38:27Z</time>
      </trkpt>
      <trkpt lat="37.421112" lon="-4.011907">
        <ele>1037.361</ele>
        <time>2020-05-21T01:38:44Z</time>
      </trkpt>
      <trkpt lat="37.421082" lon="-4.011768">
        <ele>1036.763</ele>
        <time>2020-05-21T01:38:57Z</time>
      </trkpt>
      <trkpt lat="37.421032" lon="-4.011569">
        <ele>1035.950</ele>
        <time>2020-05-21T01:39:16Z</time>
      </trkpt>
      <trkpt lat="37.420990" lon="-4.011401">
        <ele>1035.638</ele>
        <time>2020-05-21T01:39:32Z</time>
      </trkpt>
      <trkpt lat="37.420941" lon="-4.011189">
        <ele>1035.433</ele>
        <time>2020-05-21T01:39:52Z</time>
      </trkpt>
      <trkpt lat="37.420898" lon="-4.011038">
        <ele>1033.853</ele>
        <time>2020-05-21T01:40:06Z</time>
      </trkpt>
      <trkpt lat="37.420857" lon="-4.010913">
        <ele>1031.804</ele>
        <time>2020-05-21T01:40:19Z</time>
      </trkpt>
      <trkpt lat="37.420818" lon="-4.010772">
        <ele>1031.314</ele>
        <time>2020-05-21T01:40:32Z</time>
      </trkpt>
      <trkpt lat="37.420763" lon="-4.010592">
        <ele>1031.008</ele>
        <time>2020-05-21T01:40:50Z</time>
      </trkpt>
      <trkpt lat="37.420717" lon="-4.010446">
        <ele>1031.343</ele>
        <time>2020-05-21T01:41:04Z</time>
      </trkpt>
      <trkpt lat="37.420669" lon="-4.010283">
        <ele>1031.184</ele>
        <time>2020-05-21T01:41:19Z</time>
      </trkpt>
      <trkpt lat="37.420612" lon="-4.010106">
        <ele>1031.061</ele>
        <time>2020-05-21T01:41:37Z</time>
      </trkpt>
      <trkpt lat="37.420549" lon="-4.009950">
        <ele>1032.099</ele>
        <time>2020-05-21T01:41:53Z</time>
      </trkpt>
      <trkpt lat="37.420517" lon="-4.009841">
        <ele>1031.731</ele>
        <time>2020-05-21T01:42:03Z</time>
      </trkpt>
      <trkpt lat="37.420511" lon="-4.009743">
        <ele>1031.628</ele>
        <time>2020-05-21T01:42:12Z</time>
      </trkpt>
      <trkpt lat="37.420540" lon="-4.009684">
        <ele>1031.166</ele>
        <time>2020-05-21T01:42:18Z</time>
      </trkpt>
      <trkpt lat="37.420581" lon="-4.009653">
        <ele>1032.221</ele>
        <time>2020-05-21T01:42:24Z</time>
      </trkpt>
      <trkpt lat="37.420682" lon="-4.009684">
        <ele>1032.486</ele>
        <time>2020-05-21T01:42:36Z</time>
      </trkpt>
      <trkpt lat="37.420829" lon="-4.009651">
        <ele>1035.060</ele>
        <time>2020-05-21T01:42:53Z</time>
      </trkpt>
      <trkpt lat="37.420886" lon="-4.009600">
        <ele>1036.026</ele>
        <time>2020-05-21T01:43:01Z</time>
      </trkpt>
      <trkpt lat="37.420904" lon="-4.009523">
        <ele>1035.808</ele>
        <time>2020-05-21T01:43:08Z</time>
      </trkpt>
      <trkpt lat="37.420869" lon="-4.009416">
        <ele>1036.456</ele>
        <time>2020-05-21T01:43:19Z</time>
      </trkpt>
      <trkpt lat="37.420779" lon="-4.009251">
        <ele>1038.067</ele>
        <time>2020-05-21T01:43:37Z</time>
      </trkpt>
      <trkpt lat="37.420668" lon="-4.009123">
        <ele>1040.044</ele>
        <time>2020-05-21T01:43:54Z</time>
      </trkpt>
      <trkpt lat="37.420530" lon="-4.009005">
        <ele>1041.022</ele>
        <time>2020-05-21T01:44:13Z</time>
      </trkpt>
      <trkpt lat="37.420429" lon="-4.008789">
        <ele>1042.054</ele>
        <time>2020-05-21T01:44:36Z</time>
      </trkpt>
      <trkpt lat="37.420385" lon="-4.008637">
        <ele>1043.051</ele>
        <time>2020-05-21T01:44:50Z</time>
      </trkpt>
      <trkpt lat="37.420341" lon="-4.008491">
        <ele>1044.079</ele>
        <time>2020-05-21T01:45:05Z</time>
      </trkpt>
      <trkpt lat="37.420294" lon="-4.008338">
        <ele>1045.614</ele>
        <time>2020-05-21T01:45:20Z</time>
      </trkpt>
      <trkpt lat="37.420261" lon="-4.008189">
        <ele>1046.253</ele>
        <time>2020-05-21T01:45:34Z</time>
      </trkpt>
      <trkpt lat="37.420248" lon="-4.008093">
        <ele>1046.504</ele>
        <time>2020-05-21T01:45:42Z</time>
      </trkpt>
      <trkpt lat="37.420257" lon="-4.008051">
        <ele>1046.314</ele>
        <time>2020-05-21T01:45:46Z</time>
      </trkpt>
      <trkpt lat="37.420297" lon="-4.008034">
        <ele>1045.608</ele>
        <time>2020-05-21T01:45:51Z</time>
      </trkpt>
      <trkpt lat="37.420344" lon="-4.008107">
        <ele>1045.773</ele>
        <time>2020-05-21T01:46:00Z</time>
      </trkpt>
      <trkpt lat="37.420417" lon="-4.008268">
        <ele>1044.594</ele>
        <time>2020-05-21T01:46:16Z</time>
      </trkpt>
      <trkpt lat="37.420510" lon="-4.008402">
        <ele>1042.471</ele>
        <time>2020-05-21T01:46:33Z</time>
      </trkpt>
      <trkpt lat="37.420579" lon="-4.008550">
        <ele>1040.569</ele>
        <time>2020-05-21T01:46:48Z</time>
      </trkpt>
      <trkpt lat="37.420685" lon="-4.008693">
        <ele>1038.491</ele>
        <time>2020-05-21T01:47:06Z</time>
      </trkpt>
      <trkpt lat="37.420777" lon="-4.008824">
        <ele>1036.028</ele>
        <time>2020-05-21T01:47:22Z</time>
      </trkpt>
      <trkpt lat="37.420831" lon="-4.008923">
        <ele>1035.116</ele>
        <time>2020-05-21T01:47:33Z</time>
      </trkpt>
      <trkpt lat="37.420939" lon="-4.009016">
        <ele>1033.341</ele>
        <time>2020-05-21T01:47:48Z</time>
      </trkpt>
      <trkpt lat="37.421006" lon="-4.009171">
        <ele>1031.562</ele>
        <time>2020-05-21T01:48:04Z</time>
      </trkpt>
      <trkpt lat="37.421110" lon="-4.009270">
        <ele>1029.283</ele>
        <time>2020-05-21T01:48:19Z</time>
      </trkpt>
      <trkpt lat="37.421209" lon="-4.009424">
        <ele>1027.411</ele>
        <time>2020-05-21T01:48:37Z</time>
      </trkpt>
      <trkpt lat="37.421342" lon="-4.009574">
        <ele>1025.008</ele>
        <time>2020-05-21T01:48:58Z</time>
      </trkpt>
      <trkpt lat="37.421501" lon="-4.009747">
        <ele>1022.214</ele>
        <time>2020-05-21T01:49:22Z</time>
      </trkpt>
      <trkpt lat="37.421641" lon="-4.009895">
        <ele>1020.335</ele>
        <time>2020-05-21T01:49:43Z</time>
      </trkpt>
      <trkpt lat="37.421758" lon="-4.010028">
        <ele>1017.832</ele>
        <time>2020-05-21T01:50:01Z</time>
      </trkpt>
      <trkpt lat="37.421943" lon="-4.010165">
        <ele>1015.440</ele>
        <time>2020-05-21T01:50:25Z</time>
      </trkpt>
      <trkpt lat="37.422248" lon="-4.010442">
        <ele>1010.972</ele>
        <time>2020-05-21T01:51:08Z</time>
      </trkpt>
      <trkpt lat="37.422402" lon="-4.010531">
        <ele>1008.729</ele>
        <time>2020-05-21T01:51:28Z</time>
      </trkpt>
      <trkpt lat="37.422606" lon="-4.010663">
        <ele>1005.237</ele>
        <time>2020-05-21T01:51:54Z</time>
      </trkpt>
      <trkpt lat="37.422872" lon="-4.010853">
        <ele>1001.762</ele>
        <time>2020-05-21T01:52:29Z</time>
      </trkpt>
      <trkpt lat="37.423069" lon="-4.010975">
        <ele>1000.352</ele>
        <time>2020-05-21T01:52:54Z</time>
      </trkpt>
      <trkpt lat="37.423236" lon="-4.011144">
        <ele>1001.053</ele>
        <time>2020-05-21T01:53:19Z</time>
      </trkpt>
      <trkpt lat="37.423356" lon="-4.011280">
        <ele>999.708</ele>
        <time>2020-05-21T01:53:37Z</time>
      </trkpt>
      <trkpt lat="37.423496" lon="-4.011459">
        <ele>997.808</ele>
        <time>2020-05-21T01:54:00Z</time>
      </trkpt>
      <trkpt lat="37.423640" lon="-4.011656">
        <ele>994.593</ele>
        <time>2020-05-21T01:54:24Z</time>
      </trkpt>
      <trkpt lat="37.423766" lon="-4.011783">
        <ele>993.014</ele>
        <time>2020-05-21T01:54:43Z</time>
      </trkpt>
      <trkpt lat="37.423895" lon="-4.011789">
        <ele>991.751</ele>
        <time>2020-05-21T01:54:58Z</time>
      </trkpt>
      <trkpt lat="37.424047" lon="-4.011784">
        <ele>989.689</ele>
        <time>2020-05-21T01:55:15Z</time>
      </trkpt>
      <trkpt lat="37.424180" lon="-4.011769">
        <ele>986.881</ele>
        <time>2020-05-21T01:55:31Z</time>
      </trkpt>
      <trkpt lat="37.424332" lon="-4.011701">
        <ele>983.378</ele>
        <time>2020-05-21T01:55:49Z</time>
      </trkpt>
      <trkpt lat="37.424469" lon="-4.011712">
        <ele>980.696</ele>
        <time>2020-05-21T01:56:05Z</time>
      </trkpt>
      <trkpt lat="37.424597" lon="-4.011710">
        <ele>979.281</ele>
        <time>2020-05-21T01:56:20Z</time>
      </trkpt>
      <trkpt lat="37.424717" lon="-4.011822">
        <ele>975.887</ele>
        <time>2020-05-21T01:56:37Z</time>
      </trkpt>
      <trkpt lat="37.424889" lon="-4.011921">
        <ele>973.542</ele>
        <time>2020-05-21T01:56:59Z</time>
      </trkpt>
      <trkpt lat="37.425045" lon="-4.012039">
        <ele>970.226</ele>
        <time>2020-05-21T01:57:20Z</time>
      </trkpt>
      <trkpt lat="37.425145" lon="-4.012161">
        <ele>968.008</ele>
        <time>2020-05-21T01:57:36Z</time>
      </trkpt>
      <trkpt lat="37.425277" lon="-4.012320">
        <ele>967.676</ele>
        <time>2020-05-21T01:57:57Z</time>
      </trkpt>
      <trkpt lat="37.425394" lon="-4.012478">
        <ele>966.297</ele>
        <time>2020-05-21T01:58:16Z</time>
      </trkpt>
      <trkpt lat="37.425478" lon="-4.012646">
        <ele>965.974</ele>
        <time>2020-05-21T01:58:34Z</time>
      </trkpt>
      <trkpt lat="37.425572" lon="-4.012837">
        <ele>964.192</ele>
        <time>2020-05-21T01:58:55Z</time>
      </trkpt>
      <trkpt lat="37.425683" lon="-4.013072">
        <ele>963.064</ele>
        <time>2020-05-21T01:59:19Z</time>
      </trkpt>
      <trkpt lat="37.425768" lon="-4.013236">
        <ele>960.991</ele>
        <time>2020-05-21T01:59:37Z</time>
      </trkpt>
      <trkpt lat="37.425866" lon="-4.013434">
        <ele>959.349</ele>
        <time>2020-05-21T01:59:58Z</time>
      </trkpt>
      <trkpt lat="37.425941" lon="-4.013626">
        <ele>958.254</ele>
        <time>2020-05-21T02:00:18Z</time>
      </trkpt>
      <trkpt lat="37.426006" lon="-4.013871">
        <ele>954.132</ele>
        <time>2020-05-21T02:00:41Z</time>
      </trkpt>
      <trkpt lat="37.426039" lon="-4.014055">
        <ele>956.492</ele>
        <time>2020-05-21T02:00:59Z</time>
      </trkpt>
      <trkpt lat="37.426065" lon="-4.014180">
        <ele>957.011</ele>
        <time>2020-05-21T02:01:10Z</time>
      </trkpt>
      <trkpt lat="37.426124" lon="-4.014345">
        <ele>958.008</ele>
        <time>2020-05-21T02:01:27Z</time>
      </trkpt>
      <trkpt lat="37.426177" lon="-4.014440">
        <ele>958.121</ele>
        <time>2020-05-21T02:01:37Z</time>
      </trkpt>
      <trkpt lat="37.426281" lon="-4.014531">
        <ele>959.392</ele>
        <time>2020-05-21T02:01:52Z</time>
      </trkpt>
      <trkpt lat="37.426500" lon="-4.014642">
        <ele>959.799</ele>
        <time>2020-05-21T02:02:19Z</time>
      </trkpt>
      <trkpt lat="37.426688" lon="-4.014823">
        <ele>962.157</ele>
        <time>2020-05-21T02:02:46Z</time>
      </trkpt>
      <trkpt lat="37.426908" lon="-4.014908">
        <ele>962.429</ele>
        <time>2020-05-21T02:03:12Z</time>
      </trkpt>
      <trkpt lat="37.427036" lon="-4.015019">
        <ele>961.986</ele>
        <time>2020-05-21T02:03:30Z</time>
      </trkpt>
      <trkpt lat="37.427274" lon="-4.015087">
        <ele>958.444</ele>
        <time>2020-05-21T02:03:58Z</time>
      </trkpt>
      <trkpt lat="37.427553" lon="-4.015186">
        <ele>953.669</ele>
        <time>2020-05-21T02:04:31Z</time>
      </trkpt>
      <trkpt lat="37.427772" lon="-4.015293">
        <ele>948.762</ele>
        <time>2020-05-21T02:04:58Z</time>
      </trkpt>
      <trkpt lat="37.427976" lon="-4.015399">
        <ele>943.883</ele>
        <time>2020-05-21T02:05:24Z</time>
      </trkpt>
      <trkpt lat="37.428120" lon="-4.015558">
        <ele>941.111</ele>
        <time>2020-05-21T02:05:46Z</time>
      </trkpt>
      <trkpt lat="37.428302" lon="-4.015749">
        <ele>938.508</ele>
        <time>2020-05-21T02:06:13Z</time>
      </trkpt>
      <trkpt lat="37.428493" lon="-4.016021">
        <ele>934.044</ele>
        <time>2020-05-21T02:06:46Z</time>
      </trkpt>
      <trkpt lat="37.428657" lon="-4.016237">
        <ele>929.445</ele>
        <time>2020-05-21T02:07:14Z</time>
      </trkpt>
      <trkpt lat="37.428768" lon="-4.016390">
        <ele>928.242</ele>
        <time>2020-05-21T02:07:32Z</time>
      </trkpt>
      <trkpt lat="37.428872" lon="-4.016529">
        <ele>925.720</ele>
        <time>2020-05-21T02:07:50Z</time>
      </trkpt>
      <trkpt lat="37.428962" lon="-4.016650">
        <ele>923.992</ele>
        <time>2020-05-21T02:08:05Z</time>
      </trkpt>
      <trkpt lat="37.429096" lon="-4.016739">
        <ele>921.439</ele>
        <time>2020-05-21T02:08:22Z</time>
      </trkpt>
      <trkpt lat="37.429211" lon="-4.016817">
        <ele>919.377</ele>
        <time>2020-05-21T02:08:37Z</time>
      </trkpt>
      <trkpt lat="37.429358" lon="-4.016911">
        <ele>917.642</ele>
        <time>2020-05-21T02:08:56Z</time>
      </trkpt>
      <trkpt lat="37.429587" lon="-4.016966">
        <ele>914.673</ele>
        <time>2020-05-21T02:09:23Z</time>
      </trkpt>
      <trkpt lat="37.429737" lon="-4.016916">
        <ele>913.085</ele>
        <time>2020-05-21T02:09:41Z</time>
      </trkpt>
      <trkpt lat="37.429853" lon="-4.016807">
        <ele>911.913</ele>
        <time>2020-05-21T02:09:57Z</time>
      </trkpt>
      <trkpt lat="37.429992" lon="-4.016617">
        <ele>911.208</ele>
        <time>2020-05-21T02:10:21Z</time>
      </trkpt>
      <trkpt lat="37.430122" lon="-4.016515">
        <ele>908.325</ele>
        <time>2020-05-21T02:10:38Z</time>
      </trkpt>
      <trkpt lat="37.430271" lon="-4.016533">
        <ele>906.596</ele>
        <time>2020-05-21T02:10:55Z</time>
      </trkpt>
      <trkpt lat="37.430361" lon="-4.016568">
        <ele>904.983</ele>
        <time>2020-05-21T02:11:06Z</time>
      </trkpt>
      <trkpt lat="37.430420" lon="-4.016629">
        <ele>903.771</ele>
        <time>2020-05-21T02:11:15Z</time>
      </trkpt>
      <trkpt lat="37.430420" lon="-4.016722">
        <ele>902.873</ele>
        <time>2020-05-21T02:11:24Z</time>
      </trkpt>
      <trkpt lat="37.430415" lon="-4.016843">
        <ele>902.310</ele>
        <time>2020-05-21T02:11:35Z</time>
      </trkpt>
      <trkpt lat="37.430411" lon="-4.016938">
        <ele>901.338</ele>
        <time>2020-05-21T02:11:43Z</time>
      </trkpt>
      <trkpt lat="37.430411" lon="-4.017104">
        <ele>898.683</ele>
        <time>2020-05-21T02:11:58Z</time>
      </trkpt>
      <trkpt lat="37.430411" lon="-4.017238">
        <ele>897.745</ele>
        <time>2020-05-21T02:12:11Z</time>
      </trkpt>
      <trkpt lat="37.430400" lon="-4.017338">
        <ele>896.447</ele>
        <time>2020-05-21T02:12:20Z</time>
      </trkpt>
      <trkpt lat="37.430459" lon="-4.017534">
        <ele>893.211</ele>
        <time>2020-05-21T02:12:39Z</time>
      </trkpt>
      <trkpt lat="37.430478" lon="-4.017636">
        <ele>892.808</ele>
        <time>2020-05-21T02:12:49Z</time>
      </trkpt>
      <trkpt lat="37.430555" lon="-4.017749">
        <ele>890.952</ele>
        <time>2020-05-21T02:13:02Z</time>
      </trkpt>
      <trkpt lat="37.430605" lon="-4.017786">
        <ele>889.883</ele>
        <time>2020-05-21T02:13:09Z</time>
      </trkpt>
      <trkpt lat="37.430646" lon="-4.017612">
        <ele>888.850</ele>
        <time>2020-05-21T02:13:25Z</time>
      </trkpt>
      <trkpt lat="37.430701" lon="-4.017552">
        <ele>888.038</ele>
        <time>2020-05-21T02:13:34Z</time>
      </trkpt>
      <trkpt lat="37.430747" lon="-4.017387">
        <ele>888.070</ele>
        <time>2020-05-21T02:13:49Z</time>
      </trkpt>
      <trkpt lat="37.430772" lon="-4.017363">
        <ele>887.617</ele>
        <time>2020-05-21T02:13:53Z</time>
      </trkpt>
      <trkpt lat="37.430867" lon="-4.017198">
        <ele>887.155</ele>
        <time>2020-05-21T02:14:11Z</time>
      </trkpt>
      <trkpt lat="37.430885" lon="-4.017183">
        <ele>887.440</ele>
        <time>2020-05-21T02:14:14Z</time>
      </trkpt>
      <trkpt lat="37.431054" lon="-4.017131">
        <ele>888.131</ele>
        <time>2020-05-21T02:14:34Z</time>
      </trkpt>
      <trkpt lat="37.431089" lon="-4.017143">
        <ele>887.861</ele>
        <time>2020-05-21T02:14:38Z</time>
      </trkpt>
      <trkpt lat="37.431096" lon="-4.017147">
        <ele>887.807</ele>
        <time>2020-05-21T02:14:39Z</time>
      </trkpt>
      <trkpt lat="37.431302" lon="-4.017306">
        <ele>887.208</ele>
        <time>2020-05-21T02:15:06Z</time>
      </trkpt>
      <trkpt lat="37.431492" lon="-4.017398">
        <ele>886.351</ele>
        <time>2020-05-21T02:15:30Z</time>
      </trkpt>
      <trkpt lat="37.431886" lon="-4.017313">
        <ele>888.052</ele>
        <time>2020-05-21T02:16:15Z</time>
      </trkpt>
      <trkpt lat="37.431966" lon="-4.017263">
        <ele>889.139</ele>
        <time>2020-05-21T02:16:25Z</time>
      </trkpt>
      <trkpt lat="37.432512" lon="-4.017082">
        <ele>886.837</ele>
        <time>2020-05-21T02:17:30Z</time>
      </trkpt>
      <trkpt lat="37.432828" lon="-4.016881">
        <ele>886.639</ele>
        <time>2020-05-21T02:18:10Z</time>
      </trkpt>
      <trkpt lat="37.432869" lon="-4.016857">
        <ele>886.426</ele>
        <time>2020-05-21T02:18:15Z</time>
      </trkpt>
      <trkpt lat="37.432995" lon="-4.016632">
        <ele>886.284</ele>
        <time>2020-05-21T02:18:40Z</time>
      </trkpt>
      <trkpt lat="37.433145" lon="-4.016516">
        <ele>887.599</ele>
        <time>2020-05-21T02:19:00Z</time>
      </trkpt>
      <trkpt lat="37.433201" lon="-4.016505">
        <ele>887.019</ele>
        <time>2020-05-21T02:19:07Z</time>
      </trkpt>
      <trkpt lat="37.433708" lon="-4.016343">
        <ele>886.709</ele>
        <time>2020-05-21T02:20:06Z</time>
      </trkpt>
      <trkpt lat="37.434093" lon="-4.016056">
        <ele>886.519</ele>
        <time>2020-05-21T02:20:57Z</time>
      </trkpt>
      <trkpt lat="37.434107" lon="-4.016040">
        <ele>886.608</ele>
        <time>2020-05-21T02:20:59Z</time>
      </trkpt>
      <trkpt lat="37.434328" lon="-4.015790">
        <ele>886.939</ele>
        <time>2020-05-21T02:21:33Z</time>
      </trkpt>
      <trkpt lat="37.434877" lon="-4.015431">
        <ele>883.750</ele>
        <time>2020-05-21T02:22:44Z</time>
      </trkpt>
      <trkpt lat="37.435483" lon="-4.015013">
        <ele>877.957</ele>
        <time>2020-05-21T02:24:03Z</time>
      </trkpt>
      <trkpt lat="37.435681" lon="-4.014720">
        <ele>876.465</ele>
        <time>2020-05-21T02:24:37Z</time>
      </trkpt>
      <trkpt lat="37.436259" lon="-4.014324">
        <ele>872.247</ele>
        <time>2020-05-21T02:25:52Z</time>
      </trkpt>
      <trkpt lat="37.436378" lon="-4.014178">
        <ele>872.044</ele>
        <time>2020-05-21T02:26:11Z</time>
      </trkpt>
      <trkpt lat="37.436516" lon="-4.014018">
        <ele>869.672</ele>
        <time>2020-05-21T02:26:33Z</time>
      </trkpt>
      <trkpt lat="37.436659" lon="-4.013797">
        <ele>868.137</ele>
        <time>2020-05-21T02:26:59Z</time>
      </trkpt>
      <trkpt lat="37.436751" lon="-4.013576">
        <ele>867.445</ele>
        <time>2020-05-21T02:27:21Z</time>
      </trkpt>
      <trkpt lat="37.436917" lon="-4.013313">
        <ele>867.047</ele>
        <time>2020-05-21T02:27:52Z</time>
      </trkpt>
      <trkpt lat="37.436935" lon="-4.013281">
        <ele>867.011</ele>
        <time>2020-05-21T02:27:55Z</time>
      </trkpt>
      <trkpt lat="37.437107" lon="-4.013056">
        <ele>865.108</ele>
        <time>2020-05-21T02:28:23Z</time>
      </trkpt>
      <trkpt lat="37.437264" lon="-4.012845">
        <ele>863.342</ele>
        <time>2020-05-21T02:28:50Z</time>
      </trkpt>
      <trkpt lat="37.437352" lon="-4.012724">
        <ele>861.853</ele>
        <time>2020-05-21T02:29:05Z</time>
      </trkpt>
      <trkpt lat="37.437481" lon="-4.012527">
        <ele>859.990</ele>
        <time>2020-05-21T02:29:28Z</time>
      </trkpt>
      <trkpt lat="37.437580" lon="-4.012409">
        <ele>858.468</ele>
        <time>2020-05-21T02:29:43Z</time>
      </trkpt>
      <trkpt lat="37.437580" lon="-4.012409">
        <ele>858.081</ele>
        <time>2021-11-26T14:37:19Z</time>
      </trkpt>
      <trkpt lat="37.437625" lon="-4.012658">
        <ele>854.061</ele>
        <time>2021-11-26T14:37:59Z</time>
      </trkpt>
      <trkpt lat="37.437635" lon="-4.012929">
        <ele>852.017</ele>
        <time>2021-11-26T14:38:39Z</time>
      </trkpt>
      <trkpt lat="37.437577" lon="-4.013329">
        <ele>852.008</ele>
        <time>2021-11-26T14:39:19Z</time>
      </trkpt>
      <trkpt lat="37.437585" lon="-4.013563">
        <ele>850.016</ele>
        <time>2021-11-26T14:39:59Z</time>
      </trkpt>
      <trkpt lat="37.437580" lon="-4.013652">
        <ele>849.047</ele>
        <time>2021-11-26T14:40:39Z</time>
      </trkpt>
      <trkpt lat="37.437545" lon="-4.013801">
        <ele>849.074</ele>
        <time>2021-11-26T14:41:19Z</time>
      </trkpt>
      <trkpt lat="37.437506" lon="-4.013963">
        <ele>848.082</ele>
        <time>2021-11-26T14:41:59Z</time>
      </trkpt>
      <trkpt lat="37.437485" lon="-4.014114">
        <ele>847.055</ele>
        <time>2021-11-26T14:42:39Z</time>
      </trkpt>
      <trkpt lat="37.437443" lon="-4.014293">
        <ele>848.062</ele>
        <time>2021-11-26T14:43:19Z</time>
      </trkpt>
      <trkpt lat="37.437415" lon="-4.014481">
        <ele>848.048</ele>
        <time>2021-11-26T14:43:59Z</time>
      </trkpt>
      <trkpt lat="37.437414" lon="-4.014669">
        <ele>847.033</ele>
        <time>2021-11-26T14:44:39Z</time>
      </trkpt>
      <trkpt lat="37.437400" lon="-4.014831">
        <ele>846.093</ele>
        <time>2021-11-26T14:45:19Z</time>
      </trkpt>
      <trkpt lat="37.437375" lon="-4.014978">
        <ele>846.065</ele>
        <time>2021-11-26T14:45:59Z</time>
      </trkpt>
      <trkpt lat="37.437353" lon="-4.015153">
        <ele>845.021</ele>
        <time>2021-11-26T14:46:39Z</time>
      </trkpt>
      <trkpt lat="37.437301" lon="-4.015355">
        <ele>845.008</ele>
        <time>2021-11-26T14:47:19Z</time>
      </trkpt>
      <trkpt lat="37.437292" lon="-4.015483">
        <ele>844.097</ele>
        <time>2021-11-26T14:47:59Z</time>
      </trkpt>
      <trkpt lat="37.437272" lon="-4.015592">
        <ele>844.028</ele>
        <time>2021-11-26T14:48:39Z</time>
      </trkpt>
      <trkpt lat="37.437261" lon="-4.015747">
        <ele>843.015</ele>
        <time>2021-11-26T14:49:19Z</time>
      </trkpt>
      <trkpt lat="37.437250" lon="-4.015918">
        <ele>843.093</ele>
        <time>2021-11-26T14:49:59Z</time>
      </trkpt>
      <trkpt lat="37.437239" lon="-4.016134">
        <ele>842.026</ele>
        <time>2021-11-26T14:50:39Z</time>
      </trkpt>
      <trkpt lat="37.437212" lon="-4.016285">
        <ele>842.083</ele>
        <time>2021-11-26T14:51:19Z</time>
      </trkpt>
      <trkpt lat="37.437179" lon="-4.016429">
        <ele>841.099</ele>
        <time>2021-11-26T14:51:59Z</time>
      </trkpt>
      <trkpt lat="37.437124" lon="-4.016603">
        <ele>841.084</ele>
        <time>2021-11-26T14:52:39Z</time>
      </trkpt>
      <trkpt lat="37.437040" lon="-4.016792">
        <ele>840.025</ele>
        <time>2021-11-26T14:53:19Z</time>
      </trkpt>
      <trkpt lat="37.436982" lon="-4.016920">
        <ele>840.026</ele>
        <time>2021-11-26T14:53:59Z</time>
      </trkpt>
      <trkpt lat="37.436903" lon="-4.017097">
        <ele>840.008</ele>
        <time>2021-11-26T14:54:39Z</time>
      </trkpt>
      <trkpt lat="37.436851" lon="-4.017260">
        <ele>839.008</ele>
        <time>2021-11-26T14:55:19Z</time>
      </trkpt>
      <trkpt lat="37.436791" lon="-4.017397">
        <ele>839.040</ele>
        <time>2021-11-26T14:55:59Z</time>
      </trkpt>
      <trkpt lat="37.436726" lon="-4.017555">
        <ele>838.091</ele>
        <time>2021-11-26T14:56:39Z</time>
      </trkpt>
      <trkpt lat="37.436664" lon="-4.017718">
        <ele>838.098</ele>
        <time>2021-11-26T14:57:19Z</time>
      </trkpt>
      <trkpt lat="37.436612" lon="-4.017905">
        <ele>837.066</ele>
        <time>2021-11-26T14:57:59Z</time>
      </trkpt>
      <trkpt lat="37.436566" lon="-4.018019">
        <ele>836.039</ele>
        <time>2021-11-26T14:58:39Z</time>
      </trkpt>
      <trkpt lat="37.436510" lon="-4.018186">
        <ele>835.096</ele>
        <time>2021-11-26T14:59:19Z</time>
      </trkpt>
      <trkpt lat="37.436527" lon="-4.018307">
        <ele>834.092</ele>
        <time>2021-11-26T14:59:59Z</time>
      </trkpt>
      <trkpt lat="37.436521" lon="-4.018425">
        <ele>833.037</ele>
        <time>2021-11-26T15:00:39Z</time>
      </trkpt>
      <trkpt lat="37.436522" lon="-4.018544">
        <ele>832.013</ele>
        <time>2021-11-26T15:01:19Z</time>
      </trkpt>
      <trkpt lat="37.436527" lon="-4.018709">
        <ele>830.043</ele>
        <time>2021-11-26T15:01:59Z</time>
      </trkpt>
      <trkpt lat="37.436522" lon="-4.018856">
        <ele>828.007</ele>
        <time>2021-11-26T15:02:39Z</time>
      </trkpt>
      <trkpt lat="37.436508" lon="-4.019044">
        <ele>826.008</ele>
        <time>2021-11-26T15:03:19Z</time>
      </trkpt>
      <trkpt lat="37.436479" lon="-4.019149">
        <ele>826.049</ele>
        <time>2021-11-26T15:03:59Z</time>
      </trkpt>
      <trkpt lat="37.436459" lon="-4.019239">
        <ele>824.080</ele>
        <time>2021-11-26T15:04:39Z</time>
      </trkpt>
      <trkpt lat="37.436430" lon="-4.019320">
        <ele>823.017</ele>
        <time>2021-11-26T15:05:19Z</time>
      </trkpt>
      <trkpt lat="37.436360" lon="-4.019386">
        <ele>824.065</ele>
        <time>2021-11-26T15:05:59Z</time>
      </trkpt>
      <trkpt lat="37.436263" lon="-4.019470">
        <ele>823.068</ele>
        <time>2021-11-26T15:06:39Z</time>
      </trkpt>
      <trkpt lat="37.436149" lon="-4.019540">
        <ele>823.045</ele>
        <time>2021-11-26T15:07:19Z</time>
      </trkpt>
      <trkpt lat="37.436044" lon="-4.019615">
        <ele>824.081</ele>
        <time>2021-11-26T15:07:59Z</time>
      </trkpt>
      <trkpt lat="37.435983" lon="-4.019668">
        <ele>824.046</ele>
        <time>2021-11-26T15:08:39Z</time>
      </trkpt>
      <trkpt lat="37.435926" lon="-4.019763">
        <ele>823.025</ele>
        <time>2021-11-26T15:09:19Z</time>
      </trkpt>
      <trkpt lat="37.435870" lon="-4.019833">
        <ele>824.026</ele>
        <time>2021-11-26T15:09:59Z</time>
      </trkpt>
      <trkpt lat="37.435762" lon="-4.019912">
        <ele>824.008</ele>
        <time>2021-11-26T15:10:39Z</time>
      </trkpt>
      <trkpt lat="37.435645" lon="-4.020008">
        <ele>824.008</ele>
        <time>2021-11-26T15:11:19Z</time>
      </trkpt>
      <trkpt lat="37.435529" lon="-4.020083">
        <ele>825.060</ele>
        <time>2021-11-26T15:11:59Z</time>
      </trkpt>
      <trkpt lat="37.435452" lon="-4.020109">
        <ele>826.061</ele>
        <time>2021-11-26T15:12:39Z</time>
      </trkpt>
      <trkpt lat="37.435367" lon="-4.020097">
        <ele>827.018</ele>
        <time>2021-11-26T15:13:19Z</time>
      </trkpt>
      <trkpt lat="37.435233" lon="-4.020116">
        <ele>827.096</ele>
        <time>2021-11-26T15:13:59Z</time>
      </trkpt>
      <trkpt lat="37.435059" lon="-4.020116">
        <ele>827.089</ele>
        <time>2021-11-26T15:14:39Z</time>
      </trkpt>
      <trkpt lat="37.434965" lon="-4.020091">
        <ele>827.036</ele>
        <time>2021-11-26T15:15:19Z</time>
      </trkpt>
      <trkpt lat="37.434842" lon="-4.020093">
        <ele>827.012</ele>
        <time>2021-11-26T15:15:59Z</time>
      </trkpt>
      <trkpt lat="37.434709" lon="-4.020081">
        <ele>830.047</ele>
        <time>2021-11-26T15:16:39Z</time>
      </trkpt>
      <trkpt lat="37.434621" lon="-4.020122">
        <ele>833.053</ele>
        <time>2021-11-26T15:17:19Z</time>
      </trkpt>
      <trkpt lat="37.434526" lon="-4.020175">
        <ele>835.004</ele>
        <time>2021-11-26T15:17:59Z</time>
      </trkpt>
      <trkpt lat="37.434442" lon="-4.020262">
        <ele>838.014</ele>
        <time>2021-11-26T15:18:39Z</time>
      </trkpt>
      <trkpt lat="37.434360" lon="-4.020353">
        <ele>839.008</ele>
        <time>2021-11-26T15:19:19Z</time>
      </trkpt>
      <trkpt lat="37.434291" lon="-4.020441">
        <ele>840.053</ele>
        <time>2021-11-26T15:19:59Z</time>
      </trkpt>
      <trkpt lat="37.434166" lon="-4.020561">
        <ele>842.014</ele>
        <time>2021-11-26T15:20:39Z</time>
      </trkpt>
      <trkpt lat="37.434084" lon="-4.020654">
        <ele>843.071</ele>
        <time>2021-11-26T15:21:19Z</time>
      </trkpt>
      <trkpt lat="37.433972" lon="-4.020777">
        <ele>846.089</ele>
        <time>2021-11-26T15:21:59Z</time>
      </trkpt>
      <trkpt lat="37.433844" lon="-4.020924">
        <ele>848.052</ele>
        <time>2021-11-26T15:22:39Z</time>
      </trkpt>
      <trkpt lat="37.433768" lon="-4.021014">
        <ele>849.089</ele>
        <time>2021-11-26T15:23:19Z</time>
      </trkpt>
      <trkpt lat="37.433697" lon="-4.021078">
        <ele>851.095</ele>
        <time>2021-11-26T15:23:59Z</time>
      </trkpt>
      <trkpt lat="37.433616" lon="-4.021183">
        <ele>852.050</ele>
        <time>2021-11-26T15:24:39Z</time>
      </trkpt>
      <trkpt lat="37.433535" lon="-4.021278">
        <ele>853.038</ele>
        <time>2021-11-26T15:25:19Z</time>
      </trkpt>
      <trkpt lat="37.433455" lon="-4.021379">
        <ele>855.070</ele>
        <time>2021-11-26T15:25:59Z</time>
      </trkpt>
      <trkpt lat="37.433403" lon="-4.021468">
        <ele>855.017</ele>
        <time>2021-11-26T15:26:39Z</time>
      </trkpt>
      <trkpt lat="37.433377" lon="-4.021577">
        <ele>855.008</ele>
        <time>2021-11-26T15:27:19Z</time>
      </trkpt>
      <trkpt lat="37.433335" lon="-4.021736">
        <ele>855.081</ele>
        <time>2021-11-26T15:27:59Z</time>
      </trkpt>
      <trkpt lat="37.433270" lon="-4.022029">
        <ele>857.082</ele>
        <time>2021-11-26T15:28:39Z</time>
      </trkpt>
      <trkpt lat="37.433221" lon="-4.022220">
        <ele>859.069</ele>
        <time>2021-11-26T15:29:19Z</time>
      </trkpt>
      <trkpt lat="37.433175" lon="-4.022408">
        <ele>858.037</ele>
        <time>2021-11-26T15:29:59Z</time>
      </trkpt>
      <trkpt lat="37.433131" lon="-4.022559">
        <ele>859.010</ele>
        <time>2021-11-26T15:30:39Z</time>
      </trkpt>
      <trkpt lat="37.433084" lon="-4.022728">
        <ele>859.077</ele>
        <time>2021-11-26T15:31:19Z</time>
      </trkpt>
      <trkpt lat="37.433044" lon="-4.022905">
        <ele>860.013</ele>
        <time>2021-11-26T15:31:59Z</time>
      </trkpt>
      <trkpt lat="37.432979" lon="-4.023173">
        <ele>862.058</ele>
        <time>2021-11-26T15:32:39Z</time>
      </trkpt>
      <trkpt lat="37.432923" lon="-4.023389">
        <ele>863.041</ele>
        <time>2021-11-26T15:33:19Z</time>
      </trkpt>
      <trkpt lat="37.432866" lon="-4.023625">
        <ele>862.081</ele>
        <time>2021-11-26T15:33:59Z</time>
      </trkpt>
      <trkpt lat="37.432812" lon="-4.023831">
        <ele>860.009</ele>
        <time>2021-11-26T15:34:39Z</time>
      </trkpt>
      <trkpt lat="37.432735" lon="-4.024094">
        <ele>858.008</ele>
        <time>2021-11-26T15:35:19Z</time>
      </trkpt>
      <trkpt lat="37.432692" lon="-4.024233">
        <ele>856.032</ele>
        <time>2021-11-26T15:35:59Z</time>
      </trkpt>
      <trkpt lat="37.432655" lon="-4.024354">
        <ele>855.013</ele>
        <time>2021-11-26T15:36:39Z</time>
      </trkpt>
      <trkpt lat="37.432613" lon="-4.024499">
        <ele>853.040</ele>
        <time>2021-11-26T15:37:19Z</time>
      </trkpt>
      <trkpt lat="37.432575" lon="-4.024610">
        <ele>852.038</ele>
        <time>2021-11-26T15:37:59Z</time>
      </trkpt>
      <trkpt lat="37.432495" lon="-4.024752">
        <ele>850.021</ele>
        <time>2021-11-26T15:38:39Z</time>
      </trkpt>
      <trkpt lat="37.432398" lon="-4.024833">
        <ele>848.028</ele>
        <time>2021-11-26T15:39:19Z</time>
      </trkpt>
      <trkpt lat="37.432435" lon="-4.024942">
        <ele>847.054</ele>
        <time>2021-11-26T15:39:59Z</time>
      </trkpt>
      <trkpt lat="37.432512" lon="-4.025070">
        <ele>847.049</ele>
        <time>2021-11-26T15:40:39Z</time>
      </trkpt>
      <trkpt lat="37.432572" lon="-4.025142">
        <ele>847.031</ele>
        <time>2021-11-26T15:41:19Z</time>
      </trkpt>
      <trkpt lat="37.432609" lon="-4.025243">
        <ele>847.061</ele>
        <time>2021-11-26T15:41:59Z</time>
      </trkpt>
      <trkpt lat="37.432657" lon="-4.025342">
        <ele>846.007</ele>
        <time>2021-11-26T15:42:39Z</time>
      </trkpt>
      <trkpt lat="37.432712" lon="-4.025435">
        <ele>845.008</ele>
        <time>2021-11-26T15:43:19Z</time>
      </trkpt>
      <trkpt lat="37.432786" lon="-4.025550">
        <ele>845.031</ele>
        <time>2021-11-26T15:43:59Z</time>
      </trkpt>
      <trkpt lat="37.432843" lon="-4.025645">
        <ele>845.042</ele>
        <time>2021-11-26T15:44:39Z</time>
      </trkpt>
      <trkpt lat="37.432894" lon="-4.025738">
        <ele>845.049</ele>
        <time>2021-11-26T15:45:19Z</time>
      </trkpt>
      <trkpt lat="37.432954" lon="-4.025882">
        <ele>843.087</ele>
        <time>2021-11-26T15:45:59Z</time>
      </trkpt>
      <trkpt lat="37.433016" lon="-4.026006">
        <ele>842.030</ele>
        <time>2021-11-26T15:46:39Z</time>
      </trkpt>
      <trkpt lat="37.433058" lon="-4.026080">
        <ele>841.057</ele>
        <time>2021-11-26T15:47:19Z</time>
      </trkpt>
      <trkpt lat="37.433156" lon="-4.026152">
        <ele>842.083</ele>
        <time>2021-11-26T15:47:59Z</time>
      </trkpt>
      <trkpt lat="37.433216" lon="-4.026206">
        <ele>841.068</ele>
        <time>2021-11-26T15:48:39Z</time>
      </trkpt>
      <trkpt lat="37.433327" lon="-4.026298">
        <ele>839.071</ele>
        <time>2021-11-26T15:49:19Z</time>
      </trkpt>
      <trkpt lat="37.433465" lon="-4.026362">
        <ele>839.041</ele>
        <time>2021-11-26T15:49:59Z</time>
      </trkpt>
      <trkpt lat="37.433579" lon="-4.026412">
        <ele>838.015</ele>
        <time>2021-11-26T15:50:39Z</time>
      </trkpt>
      <trkpt lat="37.433714" lon="-4.026486">
        <ele>837.008</ele>
        <time>2021-11-26T15:51:19Z</time>
      </trkpt>
      <trkpt lat="37.433808" lon="-4.026564">
        <ele>837.085</ele>
        <time>2021-11-26T15:51:59Z</time>
      </trkpt>
      <trkpt lat="37.433875" lon="-4.026647">
        <ele>836.066</ele>
        <time>2021-11-26T15:52:39Z</time>
      </trkpt>
      <trkpt lat="37.433993" lon="-4.026754">
        <ele>834.073</ele>
        <time>2021-11-26T15:53:19Z</time>
      </trkpt>
      <trkpt lat="37.434094" lon="-4.026853">
        <ele>832.031</ele>
        <time>2021-11-26T15:53:59Z</time>
      </trkpt>
      <trkpt lat="37.434165" lon="-4.026950">
        <ele>830.084</ele>
        <time>2021-11-26T15:54:39Z</time>
      </trkpt>
      <trkpt lat="37.434293" lon="-4.027024">
        <ele>830.061</ele>
        <time>2021-11-26T15:55:19Z</time>
      </trkpt>
      <trkpt lat="37.434425" lon="-4.027119">
        <ele>828.097</ele>
        <time>2021-11-26T15:55:59Z</time>
      </trkpt>
      <trkpt lat="37.434573" lon="-4.027265">
        <ele>826.012</ele>
        <time>2021-11-26T15:56:39Z</time>
      </trkpt>
      <trkpt lat="37.434746" lon="-4.027340">
        <ele>825.073</ele>
        <time>2021-11-26T15:57:19Z</time>
      </trkpt>
      <trkpt lat="37.434886" lon="-4.027459">
        <ele>825.085</ele>
        <time>2021-11-26T15:57:59Z</time>
      </trkpt>
      <trkpt lat="37.435054" lon="-4.027580">
        <ele>823.013</ele>
        <time>2021-11-26T15:58:39Z</time>
      </trkpt>
      <trkpt lat="37.435315" lon="-4.027733">
        <ele>823.008</ele>
        <time>2021-11-26T15:59:19Z</time>
      </trkpt>
      <trkpt lat="37.435469" lon="-4.027770">
        <ele>823.045</ele>
        <time>2021-11-26T15:59:59Z</time>
      </trkpt>
      <trkpt lat="37.435620" lon="-4.027865">
        <ele>822.056</ele>
        <time>2021-11-26T16:00:39Z</time>
      </trkpt>
      <trkpt lat="37.435805" lon="-4.027923">
        <ele>820.053</ele>
        <time>2021-11-26T16:01:19Z</time>
      </trkpt>
      <trkpt lat="37.435979" lon="-4.027971">
        <ele>819.091</ele>
        <time>2021-11-26T16:01:59Z</time>
      </trkpt>
      <trkpt lat="37.436139" lon="-4.028047">
        <ele>817.094</ele>
        <time>2021-11-26T16:02:39Z</time>
      </trkpt>
      <trkpt lat="37.436342" lon="-4.028172">
        <ele>814.021</ele>
        <time>2021-11-26T16:03:19Z</time>
      </trkpt>
      <trkpt lat="37.436537" lon="-4.028172">
        <ele>812.027</ele>
        <time>2021-11-26T16:03:59Z</time>
      </trkpt>
      <trkpt lat="37.436682" lon="-4.028183">
        <ele>810.012</ele>
        <time>2021-11-26T16:04:39Z</time>
      </trkpt>
      <trkpt lat="37.436893" lon="-4.028256">
        <ele>808.087</ele>
        <time>2021-11-26T16:05:19Z</time>
      </trkpt>
      <trkpt lat="37.437152" lon="-4.028435">
        <ele>804.042</ele>
        <time>2021-11-26T16:05:59Z</time>
      </trkpt>
      <trkpt lat="37.437343" lon="-4.028490">
        <ele>802.026</ele>
        <time>2021-11-26T16:06:39Z</time>
      </trkpt>
      <trkpt lat="37.437503" lon="-4.028559">
        <ele>799.008</ele>
        <time>2021-11-26T16:07:19Z</time>
      </trkpt>
      <trkpt lat="37.437703" lon="-4.028617">
        <ele>798.086</ele>
        <time>2021-11-26T16:07:59Z</time>
      </trkpt>
      <trkpt lat="37.437883" lon="-4.028712">
        <ele>795.027</ele>
        <time>2021-11-26T16:08:39Z</time>
      </trkpt>
      <trkpt lat="37.438077" lon="-4.028848">
        <ele>794.094</ele>
        <time>2021-11-26T16:09:19Z</time>
      </trkpt>
      <trkpt lat="37.438263" lon="-4.028957">
        <ele>793.092</ele>
        <time>2021-11-26T16:09:59Z</time>
      </trkpt>
      <trkpt lat="37.438431" lon="-4.029027">
        <ele>792.095</ele>
        <time>2021-11-26T16:10:39Z</time>
      </trkpt>
      <trkpt lat="37.438620" lon="-4.029063">
        <ele>791.082</ele>
        <time>2021-11-26T16:11:19Z</time>
      </trkpt>
      <trkpt lat="37.438953" lon="-4.029144">
        <ele>788.028</ele>
        <time>2021-11-26T16:11:59Z</time>
      </trkpt>
      <trkpt lat="37.439200" lon="-4.029184">
        <ele>784.063</ele>
        <time>2021-11-26T16:12:39Z</time>
      </trkpt>
      <trkpt lat="37.439412" lon="-4.029198">
        <ele>782.068</ele>
        <time>2021-11-26T16:13:19Z</time>
      </trkpt>
      <trkpt lat="37.439638" lon="-4.029206">
        <ele>779.042</ele>
        <time>2021-11-26T16:13:59Z</time>
      </trkpt>
      <trkpt lat="37.439797" lon="-4.029239">
        <ele>776.026</ele>
        <time>2021-11-26T16:14:39Z</time>
      </trkpt>
      <trkpt lat="37.439919" lon="-4.029253">
        <ele>774.008</ele>
        <time>2021-11-26T16:15:19Z</time>
      </trkpt>
      <trkpt lat="37.440024" lon="-4.029209">
        <ele>773.084</ele>
        <time>2021-11-26T16:15:59Z</time>
      </trkpt>
      <trkpt lat="37.440180" lon="-4.029165">
        <ele>770.065</ele>
        <time>2021-11-26T16:16:39Z</time>
      </trkpt>
      <trkpt lat="37.440409" lon="-4.029056">
        <ele>767.012</ele>
        <time>2021-11-26T16:17:19Z</time>
      </trkpt>
      <trkpt lat="37.440604" lon="-4.029027">
        <ele>764.050</ele>
        <time>2021-11-26T16:17:59Z</time>
      </trkpt>
      <trkpt lat="37.440790" lon="-4.029001">
        <ele>761.063</ele>
        <time>2021-11-26T16:18:39Z</time>
      </trkpt>
      <trkpt lat="37.440984" lon="-4.029016">
        <ele>758.020</ele>
        <time>2021-11-26T16:19:19Z</time>
      </trkpt>
      <trkpt lat="37.441170" lon="-4.029005">
        <ele>756.066</ele>
        <time>2021-11-26T16:19:59Z</time>
      </trkpt>
      <trkpt lat="37.441373" lon="-4.028961">
        <ele>754.051</ele>
        <time>2021-11-26T16:20:39Z</time>
      </trkpt>
      <trkpt lat="37.441565" lon="-4.028880">
        <ele>752.094</ele>
        <time>2021-11-26T16:21:19Z</time>
      </trkpt>
      <trkpt lat="37.441688" lon="-4.028740">
        <ele>752.057</ele>
        <time>2021-11-26T16:21:59Z</time>
      </trkpt>
      <trkpt lat="37.441897" lon="-4.028574">
        <ele>751.022</ele>
        <time>2021-11-26T16:22:39Z</time>
      </trkpt>
      <trkpt lat="37.441965" lon="-4.028430">
        <ele>751.008</ele>
        <time>2021-11-26T16:23:19Z</time>
      </trkpt>
      <trkpt lat="37.442071" lon="-4.028177">
        <ele>750.067</ele>
        <time>2021-11-26T16:23:59Z</time>
      </trkpt>
      <trkpt lat="37.442084" lon="-4.028483">
        <ele>749.038</ele>
        <time>2021-11-26T16:24:39Z</time>
      </trkpt>
      <trkpt lat="37.442113" lon="-4.028722">
        <ele>748.015</ele>
        <time>2021-11-26T16:25:19Z</time>
      </trkpt>
      <trkpt lat="37.442163" lon="-4.028982">
        <ele>749.033</ele>
        <time>2021-11-26T16:25:59Z</time>
      </trkpt>
      <trkpt lat="37.442121" lon="-4.029200">
        <ele>750.026</ele>
        <time>2021-11-26T16:26:39Z</time>
      </trkpt>
      <trkpt lat="37.442088" lon="-4.029334">
        <ele>750.053</ele>
        <time>2021-11-26T16:27:19Z</time>
      </trkpt>
      <trkpt lat="37.441987" lon="-4.029570">
        <ele>751.059</ele>
        <time>2021-11-26T16:27:59Z</time>
      </trkpt>
      <trkpt lat="37.441836" lon="-4.029805">
        <ele>752.014</ele>
        <time>2021-11-26T16:28:39Z</time>
      </trkpt>
      <trkpt lat="37.441735" lon="-4.030023">
        <ele>752.054</ele>
        <time>2021-11-26T16:29:19Z</time>
      </trkpt>
      <trkpt lat="37.441618" lon="-4.030291">
        <ele>753.056</ele>
        <time>2021-11-26T16:29:59Z</time>
      </trkpt>
      <trkpt lat="37.441567" lon="-4.030493">
        <ele>753.011</ele>
        <time>2021-11-26T16:30:39Z</time>
      </trkpt>
      <trkpt lat="37.441559" lon="-4.030636">
        <ele>754.008</ele>
        <time>2021-11-26T16:31:19Z</time>
      </trkpt>
      <trkpt lat="37.441584" lon="-4.030795">
        <ele>754.033</ele>
        <time>2021-11-26T16:31:59Z</time>
      </trkpt>
      <trkpt lat="37.441626" lon="-4.031030">
        <ele>754.024</ele>
        <time>2021-11-26T16:32:39Z</time>
      </trkpt>
      <trkpt lat="37.441676" lon="-4.031232">
        <ele>753.061</ele>
        <time>2021-11-26T16:33:19Z</time>
      </trkpt>
      <trkpt lat="37.441760" lon="-4.031509">
        <ele>754.059</ele>
        <time>2021-11-26T16:33:59Z</time>
      </trkpt>
      <trkpt lat="37.441836" lon="-4.031526">
        <ele>753.052</ele>
        <time>2021-11-26T16:34:39Z</time>
      </trkpt>
      <trkpt lat="37.441911" lon="-4.031551">
        <ele>754.089</ele>
        <time>2021-11-26T16:35:19Z</time>
      </trkpt>
      <trkpt lat="37.441979" lon="-4.031593">
        <ele>754.035</ele>
        <time>2021-11-26T16:35:59Z</time>
      </trkpt>
      <trkpt lat="37.442071" lon="-4.031601">
        <ele>753.050</ele>
        <time>2021-11-26T16:36:39Z</time>
      </trkpt>
      <trkpt lat="37.442197" lon="-4.031609">
        <ele>752.085</ele>
        <time>2021-11-26T16:37:19Z</time>
      </trkpt>
      <trkpt lat="37.442256" lon="-4.031643">
        <ele>751.089</ele>
        <time>2021-11-26T16:37:59Z</time>
      </trkpt>
      <trkpt lat="37.442306" lon="-4.031702">
        <ele>749.017</ele>
        <time>2021-11-26T16:38:39Z</time>
      </trkpt>
      <trkpt lat="37.442390" lon="-4.031811">
        <ele>749.008</ele>
        <time>2021-11-26T16:39:19Z</time>
      </trkpt>
      <trkpt lat="37.442449" lon="-4.031903">
        <ele>747.056</ele>
        <time>2021-11-26T16:39:59Z</time>
      </trkpt>
      <trkpt lat="37.442583" lon="-4.031987">
        <ele>741.057</ele>
        <time>2021-11-26T16:40:39Z</time>
      </trkpt>
      <trkpt lat="37.442709" lon="-4.032029">
        <ele>732.074</ele>
        <time>2021-11-26T16:41:19Z</time>
      </trkpt>
      <trkpt lat="37.442776" lon="-4.032012">
        <ele>727.082</ele>
        <time>2021-11-26T16:41:59Z</time>
      </trkpt>
      <trkpt lat="37.442818" lon="-4.031979">
        <ele>722.085</ele>
        <time>2021-11-26T16:42:39Z</time>
      </trkpt>
      <trkpt lat="37.442910" lon="-4.031677">
        <ele>720.042</ele>
        <time>2021-11-26T16:43:19Z</time>
      </trkpt>
      <trkpt lat="37.443112" lon="-4.031232">
        <ele>716.088</ele>
        <time>2021-11-26T16:43:59Z</time>
      </trkpt>
      <trkpt lat="37.443229" lon="-4.031005">
        <ele>716.033</ele>
        <time>2021-11-26T16:44:39Z</time>
      </trkpt>
      <trkpt lat="37.443355" lon="-4.030829">
        <ele>714.017</ele>
        <time>2021-11-26T16:45:19Z</time>
      </trkpt>
      <trkpt lat="37.443485" lon="-4.030829">
        <ele>712.087</ele>
        <time>2021-11-26T16:45:59Z</time>
      </trkpt>
      <trkpt lat="37.443625" lon="-4.030879">
        <ele>711.015</ele>
        <time>2021-11-26T16:46:39Z</time>
      </trkpt>
      <trkpt lat="37.443739" lon="-4.030948">
        <ele>711.008</ele>
        <time>2021-11-26T16:47:19Z</time>
      </trkpt>
      <trkpt lat="37.443828" lon="-4.031053">
        <ele>706.049</ele>
        <time>2021-11-26T16:47:59Z</time>
      </trkpt>
      <trkpt lat="37.443960" lon="-4.031149">
        <ele>705.040</ele>
        <time>2021-11-26T16:48:39Z</time>
      </trkpt>
      <trkpt lat="37.444099" lon="-4.031288">
        <ele>700.047</ele>
        <time>2021-11-26T16:49:19Z</time>
      </trkpt>
      <trkpt lat="37.444239" lon="-4.031403">
        <ele>698.025</ele>
        <time>2021-11-26T16:49:59Z</time>
      </trkpt>
      <trkpt lat="37.444393" lon="-4.031522">
        <ele>693.078</ele>
        <time>2021-11-26T16:50:39Z</time>
      </trkpt>
      <trkpt lat="37.444490" lon="-4.031621">
        <ele>689.015</ele>
        <time>2021-11-26T16:51:19Z</time>
      </trkpt>
      <trkpt lat="37.444645" lon="-4.031751">
        <ele>683.011</ele>
        <time>2021-11-26T16:51:59Z</time>
      </trkpt>
      <trkpt lat="37.444805" lon="-4.031879">
        <ele>681.086</ele>
        <time>2021-11-26T16:52:39Z</time>
      </trkpt>
      <trkpt lat="37.444933" lon="-4.031989">
        <ele>678.094</ele>
        <time>2021-11-26T16:53:19Z</time>
      </trkpt>
      <trkpt lat="37.445064" lon="-4.032115">
        <ele>675.057</ele>
        <time>2021-11-26T16:53:59Z</time>
      </trkpt>
      <trkpt lat="37.445169" lon="-4.032196">
        <ele>673.022</ele>
        <time>2021-11-26T16:54:39Z</time>
      </trkpt>
      <trkpt lat="37.445265" lon="-4.032287">
        <ele>672.008</ele>
        <time>2021-11-26T16:55:19Z</time>
      </trkpt>
      <trkpt lat="37.445356" lon="-4.032408">
        <ele>668.017</ele>
        <time>2021-11-26T16:55:59Z</time>
      </trkpt>
      <trkpt lat="37.445446" lon="-4.032500">
        <ele>666.078</ele>
        <time>2021-11-26T16:56:39Z</time>
      </trkpt>
      <trkpt lat="37.445504" lon="-4.032546">
        <ele>665.045</ele>
        <time>2021-11-26T16:57:19Z</time>
      </trkpt>
      <trkpt lat="37.445640" lon="-4.032583">
        <ele>661.043</ele>
        <time>2021-11-26T16:57:59Z</time>
      </trkpt>
      <trkpt lat="37.445830" lon="-4.032624">
        <ele>656.046</ele>
        <time>2021-11-26T16:58:39Z</time>
      </trkpt>
      <trkpt lat="37.446059" lon="-4.032677">
        <ele>652.083</ele>
        <time>2021-11-26T16:59:19Z</time>
      </trkpt>
      <trkpt lat="37.446186" lon="-4.032709">
        <ele>649.099</ele>
        <time>2021-11-26T16:59:59Z</time>
      </trkpt>
      <trkpt lat="37.446368" lon="-4.032788">
        <ele>645.074</ele>
        <time>2021-11-26T17:00:39Z</time>
      </trkpt>
      <trkpt lat="37.446529" lon="-4.032851">
        <ele>641.011</ele>
        <time>2021-11-26T17:01:19Z</time>
      </trkpt>
      <trkpt lat="37.446660" lon="-4.032936">
        <ele>638.021</ele>
        <time>2021-11-26T17:01:59Z</time>
      </trkpt>
      <trkpt lat="37.446780" lon="-4.033042">
        <ele>635.003</ele>
        <time>2021-11-26T17:02:39Z</time>
      </trkpt>
      <trkpt lat="37.446952" lon="-4.033185">
        <ele>633.008</ele>
        <time>2021-11-26T17:03:19Z</time>
      </trkpt>
      <trkpt lat="37.447109" lon="-4.033355">
        <ele>630.029</ele>
        <time>2021-11-26T17:03:59Z</time>
      </trkpt>
      <trkpt lat="37.447259" lon="-4.033562">
        <ele>628.090</ele>
        <time>2021-11-26T17:04:39Z</time>
      </trkpt>
      <trkpt lat="37.447383" lon="-4.033712">
        <ele>625.057</ele>
        <time>2021-11-26T17:05:19Z</time>
      </trkpt>
      <trkpt lat="37.447464" lon="-4.033825">
        <ele>625.035</ele>
        <time>2021-11-26T17:05:59Z</time>
      </trkpt>
      <trkpt lat="37.447586" lon="-4.033940">
        <ele>624.058</ele>
        <time>2021-11-26T17:06:39Z</time>
      </trkpt>
      <trkpt lat="37.447687" lon="-4.034005">
        <ele>625.075</ele>
        <time>2021-11-26T17:07:19Z</time>
      </trkpt>
      <trkpt lat="37.447766" lon="-4.034047">
        <ele>624.011</ele>
        <time>2021-11-26T17:07:59Z</time>
      </trkpt>
      <trkpt lat="37.447851" lon="-4.034072">
        <ele>625.046</ele>
        <time>2021-11-26T17:08:39Z</time>
      </trkpt>
      <trkpt lat="37.447925" lon="-4.034112">
        <ele>624.081</ele>
        <time>2021-11-26T17:09:19Z</time>
      </trkpt>
      <trkpt lat="37.447897" lon="-4.034333">
        <ele>622.061</ele>
        <time>2021-11-26T17:09:59Z</time>
      </trkpt>
      <trkpt lat="37.447919" lon="-4.034465">
        <ele>623.017</ele>
        <time>2021-11-26T17:10:39Z</time>
      </trkpt>
      <trkpt lat="37.448005" lon="-4.034580">
        <ele>622.008</ele>
        <time>2021-11-26T17:11:19Z</time>
      </trkpt>
      <trkpt lat="37.448162" lon="-4.034685">
        <ele>621.076</ele>
        <time>2021-11-26T17:11:59Z</time>
      </trkpt>
      <trkpt lat="37.448358" lon="-4.034789">
        <ele>620.037</ele>
        <time>2021-11-26T17:12:39Z</time>
      </trkpt>
      <trkpt lat="37.448606" lon="-4.034890">
        <ele>618.034</ele>
        <time>2021-11-26T17:13:19Z</time>
      </trkpt>
      <trkpt lat="37.448849" lon="-4.035008">
        <ele>618.092</ele>
        <time>2021-11-26T17:13:59Z</time>
      </trkpt>
      <trkpt lat="37.449080" lon="-4.035129">
        <ele>617.025</ele>
        <time>2021-11-26T17:14:39Z</time>
      </trkpt>
      <trkpt lat="37.449396" lon="-4.035307">
        <ele>615.022</ele>
        <time>2021-11-26T17:15:19Z</time>
      </trkpt>
      <trkpt lat="37.449610" lon="-4.035424">
        <ele>615.018</ele>
        <time>2021-11-26T17:15:59Z</time>
      </trkpt>
      <trkpt lat="37.449796" lon="-4.035522">
        <ele>616.093</ele>
        <time>2021-11-26T17:16:39Z</time>
      </trkpt>
      <trkpt lat="37.449945" lon="-4.035589">
        <ele>617.072</ele>
        <time>2021-11-26T17:17:19Z</time>
      </trkpt>
      <trkpt lat="37.450065" lon="-4.035700">
        <ele>617.013</ele>
        <time>2021-11-26T17:17:59Z</time>
      </trkpt>
      <trkpt lat="37.450145" lon="-4.035817">
        <ele>617.014</ele>
        <time>2021-11-26T17:18:39Z</time>
      </trkpt>
      <trkpt lat="37.450240" lon="-4.036030">
        <ele>617.008</ele>
        <time>2021-11-26T17:19:19Z</time>
      </trkpt>
      <trkpt lat="37.450331" lon="-4.036170">
        <ele>617.055</ele>
        <time>2021-11-26T17:19:59Z</time>
      </trkpt>
      <trkpt lat="37.450435" lon="-4.036257">
        <ele>617.046</ele>
        <time>2021-11-26T17:20:39Z</time>
      </trkpt>
      <trkpt lat="37.450537" lon="-4.036283">
        <ele>615.063</ele>
        <time>2021-11-26T17:21:19Z</time>
      </trkpt>
      <trkpt lat="37.450578" lon="-4.036133">
        <ele>615.051</ele>
        <time>2021-11-26T17:21:59Z</time>
      </trkpt>
      <trkpt lat="37.450703" lon="-4.035872">
        <ele>614.014</ele>
        <time>2021-11-26T17:22:39Z</time>
      </trkpt>
      <trkpt lat="37.450794" lon="-4.035666">
        <ele>613.081</ele>
        <time>2021-11-26T17:23:19Z</time>
      </trkpt>
      <trkpt lat="37.450880" lon="-4.035441">
        <ele>616.067</ele>
        <time>2021-11-26T17:23:59Z</time>
      </trkpt>
      <trkpt lat="37.450913" lon="-4.035256">
        <ele>618.082</ele>
        <time>2021-11-26T17:24:39Z</time>
      </trkpt>
      <trkpt lat="37.450951" lon="-4.035068">
        <ele>619.028</ele>
        <time>2021-11-26T17:25:19Z</time>
      </trkpt>
      <trkpt lat="37.450935" lon="-4.034904">
        <ele>621.089</ele>
        <time>2021-11-26T17:25:59Z</time>
      </trkpt>
      <trkpt lat="37.450860" lon="-4.034586">
        <ele>622.017</ele>
        <time>2021-11-26T17:26:39Z</time>
      </trkpt>
      <trkpt lat="37.450817" lon="-4.034212">
        <ele>625.008</ele>
        <time>2021-11-26T17:27:19Z</time>
      </trkpt>
      <trkpt lat="37.450817" lon="-4.033938">
        <ele>626.010</ele>
        <time>2021-11-26T17:27:59Z</time>
      </trkpt>
      <trkpt lat="37.450817" lon="-4.033647">
        <ele>626.011</ele>
        <time>2021-11-26T17:28:39Z</time>
      </trkpt>
      <trkpt lat="37.450832" lon="-4.033359">
        <ele>628.098</ele>
        <time>2021-11-26T17:29:19Z</time>
      </trkpt>
      <trkpt lat="37.450822" lon="-4.033149">
        <ele>631.066</ele>
        <time>2021-11-26T17:29:59Z</time>
      </trkpt>
      <trkpt lat="37.450785" lon="-4.032837">
        <ele>633.069</ele>
        <time>2021-11-26T17:30:39Z</time>
      </trkpt>
      <trkpt lat="37.450759" lon="-4.032551">
        <ele>636.086</ele>
        <time>2021-11-26T17:31:19Z</time>
      </trkpt>
      <trkpt lat="37.450728" lon="-4.032312">
        <ele>637.052</ele>
        <time>2021-11-26T17:31:59Z</time>
      </trkpt>
      <trkpt lat="37.450725" lon="-4.032128">
        <ele>636.017</ele>
        <time>2021-11-26T17:32:39Z</time>
      </trkpt>
      <trkpt lat="37.450819" lon="-4.031897">
        <ele>637.094</ele>
        <time>2021-11-26T17:33:19Z</time>
      </trkpt>
      <trkpt lat="37.450918" lon="-4.031672">
        <ele>639.057</ele>
        <time>2021-11-26T17:33:59Z</time>
      </trkpt>
      <trkpt lat="37.450891" lon="-4.031251">
        <ele>640.022</ele>
        <time>2021-11-26T17:34:39Z</time>
      </trkpt>
      <trkpt lat="37.450940" lon="-4.030976">
        <ele>642.008</ele>
        <time>2021-11-26T17:35:19Z</time>
      </trkpt>
      <trkpt lat="37.451091" lon="-4.030663">
        <ele>645.077</ele>
        <time>2021-11-26T17:35:59Z</time>
      </trkpt>
      <trkpt lat="37.451211" lon="-4.030455">
        <ele>646.048</ele>
        <time>2021-11-26T17:36:39Z</time>
      </trkpt>
      <trkpt lat="37.451316" lon="-4.030265">
        <ele>648.095</ele>
        <time>2021-11-26T17:37:19Z</time>
      </trkpt>
      <trkpt lat="37.451410" lon="-4.030019">
        <ele>648.023</ele>
        <time>2021-11-26T17:37:59Z</time>
      </trkpt>
      <trkpt lat="37.451474" lon="-4.029740">
        <ele>647.026</ele>
        <time>2021-11-26T17:38:39Z</time>
      </trkpt>
      <trkpt lat="37.451542" lon="-4.029612">
        <ele>650.073</ele>
        <time>2021-11-26T17:39:19Z</time>
      </trkpt>
      <trkpt lat="37.451692" lon="-4.029493">
        <ele>650.039</ele>
        <time>2021-11-26T17:39:59Z</time>
      </trkpt>
      <trkpt lat="37.451839" lon="-4.029299">
        <ele>653.094</ele>
        <time>2021-11-26T17:40:39Z</time>
      </trkpt>
      <trkpt lat="37.451940" lon="-4.029185">
        <ele>654.093</ele>
        <time>2021-11-26T17:41:19Z</time>
      </trkpt>
      <trkpt lat="37.452080" lon="-4.029086">
        <ele>656.065</ele>
        <time>2021-11-26T17:41:59Z</time>
      </trkpt>
      <trkpt lat="37.452204" lon="-4.028934">
        <ele>657.021</ele>
        <time>2021-11-26T17:42:39Z</time>
      </trkpt>
      <trkpt lat="37.452204" lon="-4.028769">
        <ele>657.008</ele>
        <time>2021-11-26T17:43:19Z</time>
      </trkpt>
      <trkpt lat="37.452196" lon="-4.028570">
        <ele>658.067</ele>
        <time>2021-11-26T17:43:59Z</time>
      </trkpt>
      <trkpt lat="37.452166" lon="-4.028394">
        <ele>659.018</ele>
        <time>2021-11-26T17:44:39Z</time>
      </trkpt>
      <trkpt lat="37.452132" lon="-4.028238">
        <ele>660.065</ele>
        <time>2021-11-26T17:45:19Z</time>
      </trkpt>
      <trkpt lat="37.452083" lon="-4.028044">
        <ele>661.013</ele>
        <time>2021-11-26T17:45:59Z</time>
      </trkpt>
      <trkpt lat="37.452065" lon="-4.027812">
        <ele>663.056</ele>
        <time>2021-11-26T17:46:39Z</time>
      </trkpt>
      <trkpt lat="37.452121" lon="-4.027504">
        <ele>666.013</ele>
        <time>2021-11-26T17:47:19Z</time>
      </trkpt>
      <trkpt lat="37.452189" lon="-4.027272">
        <ele>668.069</ele>
        <time>2021-11-26T17:47:59Z</time>
      </trkpt>
      <trkpt lat="37.452245" lon="-4.027002">
        <ele>670.034</ele>
        <time>2021-11-26T17:48:39Z</time>
      </trkpt>
      <trkpt lat="37.452324" lon="-4.026742">
        <ele>671.038</ele>
        <time>2021-11-26T17:49:19Z</time>
      </trkpt>
      <trkpt lat="37.452368" lon="-4.026590">
        <ele>671.070</ele>
        <time>2021-11-26T17:49:59Z</time>
      </trkpt>
      <trkpt lat="37.452425" lon="-4.026547">
        <ele>671.017</ele>
        <time>2021-11-26T17:50:39Z</time>
      </trkpt>
      <trkpt lat="37.452554" lon="-4.026482">
        <ele>668.008</ele>
        <time>2021-11-26T17:51:19Z</time>
      </trkpt>
      <trkpt lat="37.452674" lon="-4.026397">
        <ele>664.061</ele>
        <time>2021-11-26T17:51:59Z</time>
      </trkpt>
      <trkpt lat="37.452740" lon="-4.026321">
        <ele>661.092</ele>
        <time>2021-11-26T17:52:39Z</time>
      </trkpt>
      <trkpt lat="37.452814" lon="-4.026211">
        <ele>659.039</ele>
        <time>2021-11-26T17:53:19Z</time>
      </trkpt>
      <trkpt lat="37.452852" lon="-4.026104">
        <ele>658.027</ele>
        <time>2021-11-26T17:53:59Z</time>
      </trkpt>
      <trkpt lat="37.452891" lon="-4.026004">
        <ele>656.040</ele>
        <time>2021-11-26T17:54:39Z</time>
      </trkpt>
      <trkpt lat="37.452927" lon="-4.025873">
        <ele>654.057</ele>
        <time>2021-11-26T17:55:19Z</time>
      </trkpt>
      <trkpt lat="37.452932" lon="-4.025786">
        <ele>653.093</ele>
        <time>2021-11-26T17:55:59Z</time>
      </trkpt>
      <trkpt lat="37.452931" lon="-4.025688">
        <ele>651.078</ele>
        <time>2021-11-26T17:56:39Z</time>
      </trkpt>
      <trkpt lat="37.452924" lon="-4.025622">
        <ele>650.048</ele>
        <time>2021-11-26T17:57:19Z</time>
      </trkpt>
      <trkpt lat="37.452924" lon="-4.025509">
        <ele>649.061</ele>
        <time>2021-11-26T17:57:59Z</time>
      </trkpt>
      <trkpt lat="37.452931" lon="-4.025416">
        <ele>649.017</ele>
        <time>2021-11-26T17:58:39Z</time>
      </trkpt>
      <trkpt lat="37.452939" lon="-4.025283">
        <ele>650.008</ele>
        <time>2021-11-26T17:59:19Z</time>
      </trkpt>
      <trkpt lat="37.452960" lon="-4.025160">
        <ele>647.032</ele>
        <time>2021-11-26T17:59:59Z</time>
      </trkpt>
      <trkpt lat="37.452989" lon="-4.025041">
        <ele>644.043</ele>
        <time>2021-11-26T18:00:39Z</time>
      </trkpt>
      <trkpt lat="37.453034" lon="-4.024920">
        <ele>642.070</ele>
        <time>2021-11-26T18:01:19Z</time>
      </trkpt>
      <trkpt lat="37.453085" lon="-4.024832">
        <ele>641.058</ele>
        <time>2021-11-26T18:01:59Z</time>
      </trkpt>
      <trkpt lat="37.453149" lon="-4.024747">
        <ele>641.051</ele>
        <time>2021-11-26T18:02:39Z</time>
      </trkpt>
      <trkpt lat="37.453237" lon="-4.024671">
        <ele>638.058</ele>
        <time>2021-11-26T18:03:19Z</time>
      </trkpt>
      <trkpt lat="37.453295" lon="-4.024617">
        <ele>636.064</ele>
        <time>2021-11-26T18:03:59Z</time>
      </trkpt>
      <trkpt lat="37.453343" lon="-4.024526">
        <ele>635.099</ele>
        <time>2021-11-26T18:04:39Z</time>
      </trkpt>
      <trkpt lat="37.453399" lon="-4.024424">
        <ele>634.022</ele>
        <time>2021-11-26T18:05:19Z</time>
      </trkpt>
      <trkpt lat="37.453446" lon="-4.024327">
        <ele>632.062</ele>
        <time>2021-11-26T18:05:59Z</time>
      </trkpt>
      <trkpt lat="37.453474" lon="-4.024258">
        <ele>632.008</ele>
        <time>2021-11-26T18:06:39Z</time>
      </trkpt>
      <trkpt lat="37.453484" lon="-4.024220">
        <ele>633.008</ele>
        <time>2021-11-26T18:07:19Z</time>
      </trkpt>
      <trkpt lat="37.453524" lon="-4.024274">
        <ele>632.050</ele>
        <time>2021-11-26T18:07:59Z</time>
      </trkpt>
      <trkpt lat="37.453606" lon="-4.024300">
        <ele>634.081</ele>
        <time>2021-11-26T18:08:39Z</time>
      </trkpt>
      <trkpt lat="37.453654" lon="-4.024332">
        <ele>636.048</ele>
        <time>2021-11-26T18:09:19Z</time>
      </trkpt>
      <trkpt lat="37.453716" lon="-4.024365">
        <ele>638.026</ele>
        <time>2021-11-26T18:09:59Z</time>
      </trkpt>
      <trkpt lat="37.453784" lon="-4.024401">
        <ele>640.089</ele>
        <time>2021-11-26T18:10:39Z</time>
      </trkpt>
      <trkpt lat="37.453905" lon="-4.024495">
        <ele>642.036</ele>
        <time>2021-11-26T18:11:19Z</time>
      </trkpt>
      <trkpt lat="37.453937" lon="-4.024565">
        <ele>643.022</ele>
        <time>2021-11-26T18:11:59Z</time>
      </trkpt>
      <trkpt lat="37.453999" lon="-4.024705">
        <ele>644.027</ele>
        <time>2021-11-26T18:12:39Z</time>
      </trkpt>
      <trkpt lat="37.454027" lon="-4.024793">
        <ele>646.029</ele>
        <time>2021-11-26T18:13:19Z</time>
      </trkpt>
      <trkpt lat="37.454141" lon="-4.025015">
        <ele>648.000</ele>
        <time>2021-11-26T18:13:59Z</time>
      </trkpt>
      <trkpt lat="37.454224" lon="-4.025202">
        <ele>651.020</ele>
        <time>2021-11-26T18:14:39Z</time>
      </trkpt>
      <trkpt lat="37.454265" lon="-4.025372">
        <ele>654.008</ele>
        <time>2021-11-26T18:15:19Z</time>
      </trkpt>
      <trkpt lat="37.454352" lon="-4.025562">
        <ele>657.050</ele>
        <time>2021-11-26T18:15:59Z</time>
      </trkpt>
      <trkpt lat="37.454452" lon="-4.025709">
        <ele>660.031</ele>
        <time>2021-11-26T18:16:39Z</time>
      </trkpt>
      <trkpt lat="37.454529" lon="-4.025829">
        <ele>661.038</ele>
        <time>2021-11-26T18:17:19Z</time>
      </trkpt>
      <trkpt lat="37.454683" lon="-4.025951">
        <ele>662.016</ele>
        <time>2021-11-26T18:17:59Z</time>
      </trkpt>
      <trkpt lat="37.454857" lon="-4.026038">
        <ele>663.089</ele>
        <time>2021-11-26T18:18:39Z</time>
      </trkpt>
      <trkpt lat="37.455070" lon="-4.026193">
        <ele>664.086</ele>
        <time>2021-11-26T18:19:19Z</time>
      </trkpt>
      <trkpt lat="37.455205" lon="-4.026300">
        <ele>666.012</ele>
        <time>2021-11-26T18:19:59Z</time>
      </trkpt>
      <trkpt lat="37.455313" lon="-4.026412">
        <ele>667.067</ele>
        <time>2021-11-26T18:20:39Z</time>
      </trkpt>
      <trkpt lat="37.455438" lon="-4.026565">
        <ele>668.011</ele>
        <time>2021-11-26T18:21:19Z</time>
      </trkpt>
      <trkpt lat="37.455523" lon="-4.026738">
        <ele>668.021</ele>
        <time>2021-11-26T18:21:59Z</time>
      </trkpt>
      <trkpt lat="37.455626" lon="-4.026885">
        <ele>669.003</ele>
        <time>2021-11-26T18:22:39Z</time>
      </trkpt>
      <trkpt lat="37.455697" lon="-4.026937">
        <ele>672.008</ele>
        <time>2021-11-26T18:23:19Z</time>
      </trkpt>
      <trkpt lat="37.455759" lon="-4.026825">
        <ele>674.039</ele>
        <time>2021-11-26T18:23:59Z</time>
      </trkpt>
      <trkpt lat="37.455750" lon="-4.026600">
        <ele>675.060</ele>
        <time>2021-11-26T18:24:39Z</time>
      </trkpt>
      <trkpt lat="37.455724" lon="-4.026242">
        <ele>677.017</ele>
        <time>2021-11-26T18:25:19Z</time>
      </trkpt>
      <trkpt lat="37.455724" lon="-4.026052">
        <ele>678.015</ele>
        <time>2021-11-26T18:25:59Z</time>
      </trkpt>
      <trkpt lat="37.455734" lon="-4.025871">
        <ele>679.078</ele>
        <time>2021-11-26T18:26:39Z</time>
      </trkpt>
      <trkpt lat="37.455759" lon="-4.025715">
        <ele>680.065</ele>
        <time>2021-11-26T18:27:19Z</time>
      </trkpt>
      <trkpt lat="37.455839" lon="-4.025542">
        <ele>681.041</ele>
        <time>2021-11-26T18:27:59Z</time>
      </trkpt>
      <trkpt lat="37.455901" lon="-4.025476">
        <ele>681.016</ele>
        <time>2021-11-26T18:28:39Z</time>
      </trkpt>
      <trkpt lat="37.456010" lon="-4.025386">
        <ele>681.023</ele>
        <time>2021-11-26T18:29:19Z</time>
      </trkpt>
      <trkpt lat="37.456125" lon="-4.025294">
        <ele>682.083</ele>
        <time>2021-11-26T18:29:59Z</time>
      </trkpt>
      <trkpt lat="37.456216" lon="-4.025208">
        <ele>681.011</ele>
        <time>2021-11-26T18:30:39Z</time>
      </trkpt>
      <trkpt lat="37.456354" lon="-4.025089">
        <ele>682.008</ele>
        <time>2021-11-26T18:31:19Z</time>
      </trkpt>
      <trkpt lat="37.456431" lon="-4.025012">
        <ele>682.050</ele>
        <time>2021-11-26T18:31:59Z</time>
      </trkpt>
      <trkpt lat="37.456516" lon="-4.024948">
        <ele>683.041</ele>
        <time>2021-11-26T18:32:39Z</time>
      </trkpt>
      <trkpt lat="37.456624" lon="-4.024853">
        <ele>684.028</ele>
        <time>2021-11-26T18:33:19Z</time>
      </trkpt>
      <trkpt lat="37.456691" lon="-4.024774">
        <ele>685.096</ele>
        <time>2021-11-26T18:33:59Z</time>
      </trkpt>
      <trkpt lat="37.456776" lon="-4.024693">
        <ele>686.079</ele>
        <time>2021-11-26T18:34:39Z</time>
      </trkpt>
      <trkpt lat="37.456849" lon="-4.024605">
        <ele>686.086</ele>
        <time>2021-11-26T18:35:19Z</time>
      </trkpt>
      <trkpt lat="37.456946" lon="-4.024526">
        <ele>685.052</ele>
        <time>2021-11-26T18:35:59Z</time>
      </trkpt>
      <trkpt lat="37.456992" lon="-4.024470">
        <ele>685.027</ele>
        <time>2021-11-26T18:36:39Z</time>
      </trkpt>
      <trkpt lat="37.457075" lon="-4.024350">
        <ele>685.067</ele>
        <time>2021-11-26T18:37:19Z</time>
      </trkpt>
      <trkpt lat="37.457130" lon="-4.024272">
        <ele>684.081</ele>
        <time>2021-11-26T18:37:59Z</time>
      </trkpt>
      <trkpt lat="37.457204" lon="-4.024185">
        <ele>684.019</ele>
        <time>2021-11-26T18:38:39Z</time>
      </trkpt>
      <trkpt lat="37.457280" lon="-4.024090">
        <ele>684.008</ele>
        <time>2021-11-26T18:39:19Z</time>
      </trkpt>
      <trkpt lat="37.457361" lon="-4.023998">
        <ele>684.084</ele>
        <time>2021-11-26T18:39:59Z</time>
      </trkpt>
      <trkpt lat="37.457428" lon="-4.023929">
        <ele>684.035</ele>
        <time>2021-11-26T18:40:39Z</time>
      </trkpt>
      <trkpt lat="37.457495" lon="-4.023869">
        <ele>684.092</ele>
        <time>2021-11-26T18:41:19Z</time>
      </trkpt>
      <trkpt lat="37.457565" lon="-4.023823">
        <ele>685.040</ele>
        <time>2021-11-26T18:41:59Z</time>
      </trkpt>
      <trkpt lat="37.457644" lon="-4.023792">
        <ele>685.013</ele>
        <time>2021-11-26T18:42:39Z</time>
      </trkpt>
      <trkpt lat="37.457725" lon="-4.023778">
        <ele>685.070</ele>
        <time>2021-11-26T18:43:19Z</time>
      </trkpt>
      <trkpt lat="37.457839" lon="-4.023745">
        <ele>686.096</ele>
        <time>2021-11-26T18:43:59Z</time>
      </trkpt>
      <trkpt lat="37.457944" lon="-4.023716">
        <ele>687.091</ele>
        <time>2021-11-26T18:44:39Z</time>
      </trkpt>
      <trkpt lat="37.458027" lon="-4.023638">
        <ele>688.088</ele>
        <time>2021-11-26T18:45:19Z</time>
      </trkpt>
      <trkpt lat="37.458100" lon="-4.023516">
        <ele>689.024</ele>
        <time>2021-11-26T18:45:59Z</time>
      </trkpt>
      <trkpt lat="37.458185" lon="-4.023393">
        <ele>689.026</ele>
        <time>2021-11-26T18:46:39Z</time>
      </trkpt>
      <trkpt lat="37.458302" lon="-4.023246">
        <ele>690.008</ele>
        <time>2021-11-26T18:47:19Z</time>
      </trkpt>
      <trkpt lat="37.458390" lon="-4.023130">
        <ele>692.086</ele>
        <time>2021-11-26T18:47:59Z</time>
      </trkpt>
      <trkpt lat="37.458475" lon="-4.022994">
        <ele>693.077</ele>
        <time>2021-11-26T18:48:39Z</time>
      </trkpt>
      <trkpt lat="37.458556" lon="-4.022872">
        <ele>694.064</ele>
        <time>2021-11-26T18:49:19Z</time>
      </trkpt>
      <trkpt lat="37.458655" lon="-4.022720">
        <ele>696.012</ele>
        <time>2021-11-26T18:49:59Z</time>
      </trkpt>
      <trkpt lat="37.458720" lon="-4.022584">
        <ele>698.075</ele>
        <time>2021-11-26T18:50:39Z</time>
      </trkpt>
      <trkpt lat="37.458778" lon="-4.022423">
        <ele>700.072</ele>
        <time>2021-11-26T18:51:19Z</time>
      </trkpt>
      <trkpt lat="37.458842" lon="-4.022301">
        <ele>701.038</ele>
        <time>2021-11-26T18:51:59Z</time>
      </trkpt>
      <trkpt lat="37.458885" lon="-4.022193">
        <ele>702.083</ele>
        <time>2021-11-26T18:52:39Z</time>
      </trkpt>
      <trkpt lat="37.458935" lon="-4.022050">
        <ele>705.077</ele>
        <time>2021-11-26T18:53:19Z</time>
      </trkpt>
      <trkpt lat="37.458971" lon="-4.021912">
        <ele>707.061</ele>
        <time>2021-11-26T18:53:59Z</time>
      </trkpt>
      <trkpt lat="37.459005" lon="-4.021824">
        <ele>709.027</ele>
        <time>2021-11-26T18:54:39Z</time>
      </trkpt>
      <trkpt lat="37.459071" lon="-4.021670">
        <ele>708.008</ele>
        <time>2021-11-26T18:55:19Z</time>
      </trkpt>
      <trkpt lat="37.459143" lon="-4.021526">
        <ele>706.045</ele>
        <time>2021-11-26T18:55:59Z</time>
      </trkpt>
      <trkpt lat="37.459229" lon="-4.021372">
        <ele>706.056</ele>
        <time>2021-11-26T18:56:39Z</time>
      </trkpt>
      <trkpt lat="37.459278" lon="-4.021259">
        <ele>706.013</ele>
        <time>2021-11-26T18:57:19Z</time>
      </trkpt>
      <trkpt lat="37.459319" lon="-4.021139">
        <ele>706.091</ele>
        <time>2021-11-26T18:57:59Z</time>
      </trkpt>
      <trkpt lat="37.459359" lon="-4.020985">
        <ele>708.094</ele>
        <time>2021-11-26T18:58:39Z</time>
      </trkpt>
      <trkpt lat="37.459378" lon="-4.020838">
        <ele>707.011</ele>
        <time>2021-11-26T18:59:19Z</time>
      </trkpt>
      <trkpt lat="37.459398" lon="-4.020698">
        <ele>705.027</ele>
        <time>2021-11-26T18:59:59Z</time>
      </trkpt>
      <trkpt lat="37.459438" lon="-4.020582">
        <ele>705.092</ele>
        <time>2021-11-26T19:00:39Z</time>
      </trkpt>
      <trkpt lat="37.459508" lon="-4.020483">
        <ele>707.097</ele>
        <time>2021-11-26T19:01:19Z</time>
      </trkpt>
      <trkpt lat="37.459554" lon="-4.020329">
        <ele>707.023</ele>
        <time>2021-11-26T19:01:59Z</time>
      </trkpt>
      <trkpt lat="37.459599" lon="-4.020218">
        <ele>709.025</ele>
        <time>2021-11-26T19:02:39Z</time>
      </trkpt>
      <trkpt lat="37.459646" lon="-4.020091">
        <ele>710.008</ele>
        <time>2021-11-26T19:03:19Z</time>
      </trkpt>
      <trkpt lat="37.459696" lon="-4.019990">
        <ele>711.057</ele>
        <time>2021-11-26T19:03:59Z</time>
      </trkpt>
      <trkpt lat="37.459747" lon="-4.019831">
        <ele>710.058</ele>
        <time>2021-11-26T19:04:39Z</time>
      </trkpt>
      <trkpt lat="37.459797" lon="-4.019750">
        <ele>711.055</ele>
        <time>2021-11-26T19:05:19Z</time>
      </trkpt>
      <trkpt lat="37.459881" lon="-4.019822">
        <ele>718.043</ele>
        <time>2021-11-26T19:05:59Z</time>
      </trkpt>
      <trkpt lat="37.459998" lon="-4.019956">
        <ele>713.036</ele>
        <time>2021-11-26T19:06:39Z</time>
      </trkpt>
      <trkpt lat="37.460079" lon="-4.020053">
        <ele>712.033</ele>
        <time>2021-11-26T19:07:19Z</time>
      </trkpt>
      <trkpt lat="37.460106" lon="-4.020173">
        <ele>710.049</ele>
        <time>2021-11-26T19:07:59Z</time>
      </trkpt>
      <trkpt lat="37.460075" lon="-4.020340">
        <ele>709.014</ele>
        <time>2021-11-26T19:08:39Z</time>
      </trkpt>
      <trkpt lat="37.460018" lon="-4.020517">
        <ele>708.033</ele>
        <time>2021-11-26T19:09:19Z</time>
      </trkpt>
      <trkpt lat="37.459951" lon="-4.020675">
        <ele>708.023</ele>
        <time>2021-11-26T19:09:59Z</time>
      </trkpt>
      <trkpt lat="37.459885" lon="-4.020799">
        <ele>708.015</ele>
        <time>2021-11-26T19:10:39Z</time>
      </trkpt>
      <trkpt lat="37.459845" lon="-4.020908">
        <ele>708.008</ele>
        <time>2021-11-26T19:11:19Z</time>
      </trkpt>
      <trkpt lat="37.459806" lon="-4.021060">
        <ele>708.051</ele>
        <time>2021-11-26T19:11:59Z</time>
      </trkpt>
      <trkpt lat="37.459797" lon="-4.021204">
        <ele>709.032</ele>
        <time>2021-11-26T19:12:39Z</time>
      </trkpt>
      <trkpt lat="37.459784" lon="-4.021342">
        <ele>709.099</ele>
        <time>2021-11-26T19:13:19Z</time>
      </trkpt>
      <trkpt lat="37.459813" lon="-4.021548">
        <ele>710.037</ele>
        <time>2021-11-26T19:13:59Z</time>
      </trkpt>
      <trkpt lat="37.459847" lon="-4.021697">
        <ele>711.070</ele>
        <time>2021-11-26T19:14:39Z</time>
      </trkpt>
      <trkpt lat="37.459887" lon="-4.021996">
        <ele>710.047</ele>
        <time>2021-11-26T19:15:19Z</time>
      </trkpt>
      <trkpt lat="37.459923" lon="-4.022177">
        <ele>708.083</ele>
        <time>2021-11-26T19:15:59Z</time>
      </trkpt>
      <trkpt lat="37.459973" lon="-4.022421">
        <ele>707.048</ele>
        <time>2021-11-26T19:16:39Z</time>
      </trkpt>
      <trkpt lat="37.460012" lon="-4.022677">
        <ele>706.067</ele>
        <time>2021-11-26T19:17:19Z</time>
      </trkpt>
      <trkpt lat="37.460055" lon="-4.022854">
        <ele>706.081</ele>
        <time>2021-11-26T19:17:59Z</time>
      </trkpt>
      <trkpt lat="37.460029" lon="-4.022977">
        <ele>706.019</ele>
        <time>2021-11-26T19:18:39Z</time>
      </trkpt>
      <trkpt lat="37.459982" lon="-4.023059">
        <ele>706.008</ele>
        <time>2021-11-26T19:19:19Z</time>
      </trkpt>
      <trkpt lat="37.459912" lon="-4.023136">
        <ele>706.064</ele>
        <time>2021-11-26T19:19:59Z</time>
      </trkpt>
      <trkpt lat="37.459754" lon="-4.023276">
        <ele>707.085</ele>
        <time>2021-11-26T19:20:39Z</time>
      </trkpt>
      <trkpt lat="37.459669" lon="-4.023375">
        <ele>708.092</ele>
        <time>2021-11-26T19:21:19Z</time>
      </trkpt>
      <trkpt lat="37.459602" lon="-4.023462">
        <ele>709.070</ele>
        <time>2021-11-26T19:21:59Z</time>
      </trkpt>
      <trkpt lat="37.459537" lon="-4.023537">
        <ele>710.083</ele>
        <time>2021-11-26T19:22:39Z</time>
      </trkpt>
      <trkpt lat="37.459451" lon="-4.023668">
        <ele>712.090</ele>
        <time>2021-11-26T19:23:19Z</time>
      </trkpt>
      <trkpt lat="37.459399" lon="-4.023820">
        <ele>713.096</ele>
        <time>2021-11-26T19:23:59Z</time>
      </trkpt>
      <trkpt lat="37.459351" lon="-4.023940">
        <ele>714.031</ele>
        <time>2021-11-26T19:24:39Z</time>
      </trkpt>
      <trkpt lat="37.459291" lon="-4.024053">
        <ele>715.079</ele>
        <time>2021-11-26T19:25:19Z</time>
      </trkpt>
      <trkpt lat="37.459240" lon="-4.024208">
        <ele>716.005</ele>
        <time>2021-11-26T19:25:59Z</time>
      </trkpt>
      <trkpt lat="37.459202" lon="-4.024398">
        <ele>716.025</ele>
        <time>2021-11-26T19:26:39Z</time>
      </trkpt>
      <trkpt lat="37.459184" lon="-4.024560">
        <ele>716.008</ele>
        <time>2021-11-26T19:27:19Z</time>
      </trkpt>
      <trkpt lat="37.459133" lon="-4.024706">
        <ele>716.075</ele>
        <time>2021-11-26T19:27:59Z</time>
      </trkpt>
      <trkpt lat="37.459087" lon="-4.024793">
        <ele>716.086</ele>
        <time>2021-11-26T19:28:39Z</time>
      </trkpt>
      <trkpt lat="37.459066" lon="-4.024852">
        <ele>717.083</ele>
        <time>2021-11-26T19:29:19Z</time>
      </trkpt>
      <trkpt lat="37.459063" lon="-4.025038">
        <ele>717.051</ele>
        <time>2021-11-26T19:29:59Z</time>
      </trkpt>
      <trkpt lat="37.458991" lon="-4.025207">
        <ele>717.034</ele>
        <time>2021-11-26T19:30:39Z</time>
      </trkpt>
      <trkpt lat="37.458940" lon="-4.025275">
        <ele>717.031</ele>
        <time>2021-11-26T19:31:19Z</time>
      </trkpt>
      <trkpt lat="37.458919" lon="-4.025356">
        <ele>717.057</ele>
        <time>2021-11-26T19:31:59Z</time>
      </trkpt>
      <trkpt lat="37.458926" lon="-4.025433">
        <ele>717.082</ele>
        <time>2021-11-26T19:32:39Z</time>
      </trkpt>
      <trkpt lat="37.458926" lon="-4.025493">
        <ele>717.034</ele>
        <time>2021-11-26T19:33:19Z</time>
      </trkpt>
      <trkpt lat="37.458904" lon="-4.025565">
        <ele>717.055</ele>
        <time>2021-11-26T19:33:59Z</time>
      </trkpt>
      <trkpt lat="37.458858" lon="-4.025635">
        <ele>717.010</ele>
        <time>2021-11-26T19:34:39Z</time>
      </trkpt>
      <trkpt lat="37.458803" lon="-4.025700">
        <ele>718.008</ele>
        <time>2021-11-26T19:35:19Z</time>
      </trkpt>
      <trkpt lat="37.458772" lon="-4.025791">
        <ele>718.011</ele>
        <time>2021-11-26T19:35:59Z</time>
      </trkpt>
      <trkpt lat="37.458773" lon="-4.025851">
        <ele>717.052</ele>
        <time>2021-11-26T19:36:39Z</time>
      </trkpt>
      <trkpt lat="37.458783" lon="-4.025981">
        <ele>717.069</ele>
        <time>2021-11-26T19:37:19Z</time>
      </trkpt>
      <trkpt lat="37.458777" lon="-4.026150">
        <ele>716.087</ele>
        <time>2021-11-26T19:37:59Z</time>
      </trkpt>
      <trkpt lat="37.458776" lon="-4.026267">
        <ele>715.030</ele>
        <time>2021-11-26T19:38:39Z</time>
      </trkpt>
      <trkpt lat="37.458772" lon="-4.026362">
        <ele>715.077</ele>
        <time>2021-11-26T19:39:19Z</time>
      </trkpt>
      <trkpt lat="37.458774" lon="-4.026425">
        <ele>714.023</ele>
        <time>2021-11-26T19:39:59Z</time>
      </trkpt>
      <trkpt lat="37.458775" lon="-4.026529">
        <ele>714.028</ele>
        <time>2021-11-26T19:40:39Z</time>
      </trkpt>
      <trkpt lat="37.458787" lon="-4.026620">
        <ele>713.041</ele>
        <time>2021-11-26T19:41:19Z</time>
      </trkpt>
      <trkpt lat="37.458807" lon="-4.026712">
        <ele>712.081</ele>
        <time>2021-11-26T19:41:59Z</time>
      </trkpt>
      <trkpt lat="37.458819" lon="-4.026778">
        <ele>712.009</ele>
        <time>2021-11-26T19:42:39Z</time>
      </trkpt>
      <trkpt lat="37.458817" lon="-4.026846">
        <ele>711.008</ele>
        <time>2021-11-26T19:43:19Z</time>
      </trkpt>
      <trkpt lat="37.458810" lon="-4.026944">
        <ele>710.052</ele>
        <time>2021-11-26T19:43:59Z</time>
      </trkpt>
      <trkpt lat="37.458785" lon="-4.027118">
        <ele>708.083</ele>
        <time>2021-11-26T19:44:39Z</time>
      </trkpt>
      <trkpt lat="37.458783" lon="-4.027238">
        <ele>708.010</ele>
        <time>2021-11-26T19:45:19Z</time>
      </trkpt>
      <trkpt lat="37.458792" lon="-4.027326">
        <ele>707.028</ele>
        <time>2021-11-26T19:45:59Z</time>
      </trkpt>
      <trkpt lat="37.458781" lon="-4.027407">
        <ele>706.071</ele>
        <time>2021-11-26T19:46:39Z</time>
      </trkpt>
      <trkpt lat="37.458793" lon="-4.027488">
        <ele>705.098</ele>
        <time>2021-11-26T19:47:19Z</time>
      </trkpt>
      <trkpt lat="37.458783" lon="-4.027581">
        <ele>704.024</ele>
        <time>2021-11-26T19:47:59Z</time>
      </trkpt>
      <trkpt lat="37.458774" lon="-4.027678">
        <ele>703.099</ele>
        <time>2021-11-26T19:48:39Z</time>
      </trkpt>
      <trkpt lat="37.458777" lon="-4.027767">
        <ele>702.053</ele>
        <time>2021-11-26T19:49:19Z</time>
      </trkpt>
      <trkpt lat="37.458766" lon="-4.027843">
        <ele>702.004</ele>
        <time>2021-11-26T19:49:59Z</time>
      </trkpt>
      <trkpt lat="37.458757" lon="-4.027945">
        <ele>701.014</ele>
        <time>2021-11-26T19:50:39Z</time>
      </trkpt>
      <trkpt lat="37.458754" lon="-4.028035">
        <ele>700.008</ele>
        <time>2021-11-26T19:51:19Z</time>
      </trkpt>
      <trkpt lat="37.458746" lon="-4.028132">
        <ele>699.083</ele>
        <time>2021-11-26T19:51:59Z</time>
      </trkpt>
      <trkpt lat="37.458760" lon="-4.028236">
        <ele>698.084</ele>
        <time>2021-11-26T19:52:39Z</time>
      </trkpt>
      <trkpt lat="37.458746" lon="-4.028315">
        <ele>698.041</ele>
        <time>2021-11-26T19:53:19Z</time>
      </trkpt>
      <trkpt lat="37.458741" lon="-4.028393">
        <ele>697.049</ele>
        <time>2021-11-26T19:53:59Z</time>
      </trkpt>
      <trkpt lat="37.458716" lon="-4.028526">
        <ele>696.092</ele>
        <time>2021-11-26T19:54:39Z</time>
      </trkpt>
      <trkpt lat="37.458702" lon="-4.028610">
        <ele>695.089</ele>
        <time>2021-11-26T19:55:19Z</time>
      </trkpt>
      <trkpt lat="37.458675" lon="-4.028694">
        <ele>694.045</ele>
        <time>2021-11-26T19:55:59Z</time>
      </trkpt>
      <trkpt lat="37.458679" lon="-4.028775">
        <ele>694.050</ele>
        <time>2021-11-26T19:56:39Z</time>
      </trkpt>
      <trkpt lat="37.458728" lon="-4.028818">
        <ele>694.042</ele>
        <time>2021-11-26T19:57:19Z</time>
      </trkpt>
      <trkpt lat="37.458831" lon="-4.028830">
        <ele>694.022</ele>
        <time>2021-11-26T19:57:59Z</time>
      </trkpt>
      <trkpt lat="37.458924" lon="-4.028868">
        <ele>694.014</ele>
        <time>2021-11-26T19:58:39Z</time>
      </trkpt>
      <trkpt lat="37.459032" lon="-4.028901">
        <ele>694.008</ele>
        <time>2021-11-26T19:59:19Z</time>
      </trkpt>
      <trkpt lat="37.459111" lon="-4.028917">
        <ele>694.062</ele>
        <time>2021-11-26T19:59:59Z</time>
      </trkpt>
      <trkpt lat="37.459205" lon="-4.028933">
        <ele>694.023</ele>
        <time>2021-11-26T20:00:39Z</time>
      </trkpt>
      <trkpt lat="37.459260" lon="-4.028961">
        <ele>694.090</ele>
        <time>2021-11-26T20:01:19Z</time>
      </trkpt>
      <trkpt lat="37.459289" lon="-4.028999">
        <ele>694.098</ele>
        <time>2021-11-26T20:01:59Z</time>
      </trkpt>
      <trkpt lat="37.459292" lon="-4.029072">
        <ele>694.071</ele>
        <time>2021-11-26T20:02:39Z</time>
      </trkpt>
      <trkpt lat="37.459271" lon="-4.029129">
        <ele>694.068</ele>
        <time>2021-11-26T20:03:19Z</time>
      </trkpt>
      <trkpt lat="37.459192" lon="-4.029277">
        <ele>693.024</ele>
        <time>2021-11-26T20:03:59Z</time>
      </trkpt>
      <trkpt lat="37.459154" lon="-4.029408">
        <ele>692.019</ele>
        <time>2021-11-26T20:04:39Z</time>
      </trkpt>
      <trkpt lat="37.459116" lon="-4.029501">
        <ele>691.048</ele>
        <time>2021-11-26T20:05:19Z</time>
      </trkpt>
      <trkpt lat="37.459083" lon="-4.029587">
        <ele>691.061</ele>
        <time>2021-11-26T20:05:59Z</time>
      </trkpt>
      <trkpt lat="37.459048" lon="-4.029683">
        <ele>690.017</ele>
        <time>2021-11-26T20:06:39Z</time>
      </trkpt>
      <trkpt lat="37.459020" lon="-4.029775">
        <ele>690.008</ele>
        <time>2021-11-26T20:07:19Z</time>
      </trkpt>
      <trkpt lat="37.458971" lon="-4.029929">
        <ele>689.042</ele>
        <time>2021-11-26T20:07:59Z</time>
      </trkpt>
      <trkpt lat="37.458939" lon="-4.030042">
        <ele>688.023</ele>
        <time>2021-11-26T20:08:39Z</time>
      </trkpt>
      <trkpt lat="37.458901" lon="-4.030195">
        <ele>687.090</ele>
        <time>2021-11-26T20:09:19Z</time>
      </trkpt>
      <trkpt lat="37.458858" lon="-4.030325">
        <ele>686.068</ele>
        <time>2021-11-26T20:09:59Z</time>
      </trkpt>
      <trkpt lat="37.458833" lon="-4.030429">
        <ele>686.061</ele>
        <time>2021-11-26T20:10:39Z</time>
      </trkpt>
      <trkpt lat="37.458811" lon="-4.030520">
        <ele>685.078</ele>
        <time>2021-11-26T20:11:19Z</time>
      </trkpt>
      <trkpt lat="37.458796" lon="-4.030597">
        <ele>685.064</ele>
        <time>2021-11-26T20:11:59Z</time>
      </trkpt>
      <trkpt lat="37.458786" lon="-4.030669">
        <ele>685.089</ele>
        <time>2021-11-26T20:12:39Z</time>
      </trkpt>
      <trkpt lat="37.458780" lon="-4.030769">
        <ele>685.059</ele>
        <time>2021-11-26T20:13:19Z</time>
      </trkpt>
      <trkpt lat="37.458766" lon="-4.030896">
        <ele>684.003</ele>
        <time>2021-11-26T20:13:59Z</time>
      </trkpt>
      <trkpt lat="37.458761" lon="-4.031010">
        <ele>684.023</ele>
        <time>2021-11-26T20:14:39Z</time>
      </trkpt>
      <trkpt lat="37.458757" lon="-4.031112">
        <ele>684.008</ele>
        <time>2021-11-26T20:15:19Z</time>
      </trkpt>
      <trkpt lat="37.458756" lon="-4.031236">
        <ele>683.023</ele>
        <time>2021-11-26T20:15:59Z</time>
      </trkpt>
      <trkpt lat="37.458739" lon="-4.031367">
        <ele>684.054</ele>
        <time>2021-11-26T20:16:39Z</time>
      </trkpt>
      <trkpt lat="37.458710" lon="-4.031529">
        <ele>683.031</ele>
        <time>2021-11-26T20:17:19Z</time>
      </trkpt>
      <trkpt lat="37.458700" lon="-4.031639">
        <ele>682.079</ele>
        <time>2021-11-26T20:17:59Z</time>
      </trkpt>
      <trkpt lat="37.458687" lon="-4.031747">
        <ele>682.012</ele>
        <time>2021-11-26T20:18:39Z</time>
      </trkpt>
      <trkpt lat="37.458684" lon="-4.031851">
        <ele>682.089</ele>
        <time>2021-11-26T20:19:19Z</time>
      </trkpt>
      <trkpt lat="37.458684" lon="-4.031956">
        <ele>682.025</ele>
        <time>2021-11-26T20:19:59Z</time>
      </trkpt>
      <trkpt lat="37.458680" lon="-4.032081">
        <ele>682.050</ele>
        <time>2021-11-26T20:20:39Z</time>
      </trkpt>
      <trkpt lat="37.458682" lon="-4.032157">
        <ele>682.079</ele>
        <time>2021-11-26T20:21:19Z</time>
      </trkpt>
      <trkpt lat="37.458682" lon="-4.032300">
        <ele>681.005</ele>
        <time>2021-11-26T20:21:59Z</time>
      </trkpt>
      <trkpt lat="37.458685" lon="-4.032408">
        <ele>681.025</ele>
        <time>2021-11-26T20:22:39Z</time>
      </trkpt>
      <trkpt lat="37.458688" lon="-4.032528">
        <ele>680.008</ele>
        <time>2021-11-26T20:23:19Z</time>
      </trkpt>
      <trkpt lat="37.458694" lon="-4.032656">
        <ele>680.035</ele>
        <time>2021-11-26T20:23:59Z</time>
      </trkpt>
      <trkpt lat="37.458698" lon="-4.032755">
        <ele>680.056</ele>
        <time>2021-11-26T20:24:39Z</time>
      </trkpt>
      <trkpt lat="37.458699" lon="-4.032853">
        <ele>681.033</ele>
        <time>2021-11-26T20:25:19Z</time>
      </trkpt>
      <trkpt lat="37.458719" lon="-4.032903">
        <ele>681.051</ele>
        <time>2021-11-26T20:25:59Z</time>
      </trkpt>
      <trkpt lat="37.458771" lon="-4.033019">
        <ele>681.094</ele>
        <time>2021-11-26T20:26:39Z</time>
      </trkpt>
      <trkpt lat="37.458813" lon="-4.033103">
        <ele>680.021</ele>
        <time>2021-11-26T20:27:19Z</time>
      </trkpt>
      <trkpt lat="37.458857" lon="-4.033205">
        <ele>680.037</ele>
        <time>2021-11-26T20:27:59Z</time>
      </trkpt>
      <trkpt lat="37.458913" lon="-4.033304">
        <ele>678.012</ele>
        <time>2021-11-26T20:28:39Z</time>
      </trkpt>
      <trkpt lat="37.458941" lon="-4.033369">
        <ele>678.079</ele>
        <time>2021-11-26T20:29:19Z</time>
      </trkpt>
      <trkpt lat="37.458974" lon="-4.033499">
        <ele>678.005</ele>
        <time>2021-11-26T20:29:59Z</time>
      </trkpt>
      <trkpt lat="37.459015" lon="-4.033640">
        <ele>678.025</ele>
        <time>2021-11-26T20:30:39Z</time>
      </trkpt>
      <trkpt lat="37.459071" lon="-4.033835">
        <ele>678.008</ele>
        <time>2021-11-26T20:31:19Z</time>
      </trkpt>
      <trkpt lat="37.459101" lon="-4.033916">
        <ele>678.045</ele>
        <time>2021-11-26T20:31:59Z</time>
      </trkpt>
      <trkpt lat="37.459148" lon="-4.034033">
        <ele>678.096</ele>
        <time>2021-11-26T20:32:39Z</time>
      </trkpt>
      <trkpt lat="37.459206" lon="-4.034122">
        <ele>679.073</ele>
        <time>2021-11-26T20:33:19Z</time>
      </trkpt>
      <trkpt lat="37.459281" lon="-4.034219">
        <ele>679.011</ele>
        <time>2021-11-26T20:33:59Z</time>
      </trkpt>
      <trkpt lat="37.459372" lon="-4.034303">
        <ele>680.084</ele>
        <time>2021-11-26T20:34:39Z</time>
      </trkpt>
      <trkpt lat="37.459476" lon="-4.034405">
        <ele>681.021</ele>
        <time>2021-11-26T20:35:19Z</time>
      </trkpt>
      <trkpt lat="37.459562" lon="-4.034495">
        <ele>681.037</ele>
        <time>2021-11-26T20:35:59Z</time>
      </trkpt>
      <trkpt lat="37.459658" lon="-4.034589">
        <ele>684.012</ele>
        <time>2021-11-26T20:36:39Z</time>
      </trkpt>
      <trkpt lat="37.459750" lon="-4.034670">
        <ele>684.079</ele>
        <time>2021-11-26T20:37:19Z</time>
      </trkpt>
      <trkpt lat="37.459805" lon="-4.034724">
        <ele>685.005</ele>
        <time>2021-11-26T20:37:59Z</time>
      </trkpt>
      <trkpt lat="37.459881" lon="-4.034807">
        <ele>685.025</ele>
        <time>2021-11-26T20:38:39Z</time>
      </trkpt>
      <trkpt lat="37.459954" lon="-4.034894">
        <ele>685.008</ele>
        <time>2021-11-26T20:39:19Z</time>
      </trkpt>
      <trkpt lat="37.459994" lon="-4.034947">
        <ele>685.015</ele>
        <time>2021-11-26T20:39:59Z</time>
      </trkpt>
      <trkpt lat="37.460035" lon="-4.034992">
        <ele>685.026</ele>
        <time>2021-11-26T20:40:39Z</time>
      </trkpt>
      <trkpt lat="37.460128" lon="-4.035082">
        <ele>684.033</ele>
        <time>2021-11-26T20:41:19Z</time>
      </trkpt>
      <trkpt lat="37.460186" lon="-4.035163">
        <ele>683.031</ele>
        <time>2021-11-26T20:41:59Z</time>
      </trkpt>
      <trkpt lat="37.460242" lon="-4.035255">
        <ele>683.014</ele>
        <time>2021-11-26T20:42:39Z</time>
      </trkpt>
      <trkpt lat="37.460334" lon="-4.035373">
        <ele>682.041</ele>
        <time>2021-11-26T20:43:19Z</time>
      </trkpt>
      <trkpt lat="37.460393" lon="-4.035438">
        <ele>682.067</ele>
        <time>2021-11-26T20:43:59Z</time>
      </trkpt>
      <trkpt lat="37.460489" lon="-4.035571">
        <ele>680.052</ele>
        <time>2021-11-26T20:44:39Z</time>
      </trkpt>
      <trkpt lat="37.460534" lon="-4.035686">
        <ele>680.049</ele>
        <time>2021-11-26T20:45:19Z</time>
      </trkpt>
      <trkpt lat="37.460572" lon="-4.035764">
        <ele>678.002</ele>
        <time>2021-11-26T20:45:59Z</time>
      </trkpt>
      <trkpt lat="37.460629" lon="-4.035864">
        <ele>678.022</ele>
        <time>2021-11-26T20:46:39Z</time>
      </trkpt>
      <trkpt lat="37.460661" lon="-4.035961">
        <ele>678.008</ele>
        <time>2021-11-26T20:47:19Z</time>
      </trkpt>
      <trkpt lat="37.460702" lon="-4.036060">
        <ele>679.042</ele>
        <time>2021-11-26T20:47:59Z</time>
      </trkpt>
      <trkpt lat="37.460726" lon="-4.036125">
        <ele>681.053</ele>
        <time>2021-11-26T20:48:39Z</time>
      </trkpt>
      <trkpt lat="37.460772" lon="-4.036193">
        <ele>681.030</ele>
        <time>2021-11-26T20:49:19Z</time>
      </trkpt>
      <trkpt lat="37.460848" lon="-4.036254">
        <ele>681.048</ele>
        <time>2021-11-26T20:49:59Z</time>
      </trkpt>
      <trkpt lat="37.460916" lon="-4.036364">
        <ele>683.091</ele>
        <time>2021-11-26T20:50:39Z</time>
      </trkpt>
      <trkpt lat="37.461022" lon="-4.036468">
        <ele>682.068</ele>
        <time>2021-11-26T20:51:19Z</time>
      </trkpt>
      <trkpt lat="37.461085" lon="-4.036548">
        <ele>682.074</ele>
        <time>2021-11-26T20:51:59Z</time>
      </trkpt>
      <trkpt lat="37.461175" lon="-4.036636">
        <ele>683.069</ele>
        <time>2021-11-26T20:52:39Z</time>
      </trkpt>
      <trkpt lat="37.461251" lon="-4.036715">
        <ele>683.052</ele>
        <time>2021-11-26T20:53:19Z</time>
      </trkpt>
      <trkpt lat="37.461335" lon="-4.036792">
        <ele>684.053</ele>
        <time>2021-11-26T20:53:59Z</time>
      </trkpt>
      <trkpt lat="37.461401" lon="-4.036847">
        <ele>683.008</ele>
        <time>2021-11-26T20:54:39Z</time>
      </trkpt>
      <trkpt lat="37.461483" lon="-4.036893">
        <ele>682.008</ele>
        <time>2021-11-26T20:55:19Z</time>
      </trkpt>
      <trkpt lat="37.461588" lon="-4.036936">
        <ele>681.013</ele>
        <time>2021-11-26T20:55:59Z</time>
      </trkpt>
      <trkpt lat="37.461678" lon="-4.036999">
        <ele>680.084</ele>
        <time>2021-11-26T20:56:39Z</time>
      </trkpt>
      <trkpt lat="37.461753" lon="-4.037060">
        <ele>679.031</ele>
        <time>2021-11-26T20:57:19Z</time>
      </trkpt>
      <trkpt lat="37.461833" lon="-4.037123">
        <ele>676.059</ele>
        <time>2021-11-26T20:57:59Z</time>
      </trkpt>
      <trkpt lat="37.461898" lon="-4.037155">
        <ele>675.042</ele>
        <time>2021-11-26T20:58:39Z</time>
      </trkpt>
      <trkpt lat="37.462039" lon="-4.037206">
        <ele>674.059</ele>
        <time>2021-11-26T20:59:19Z</time>
      </trkpt>
      <trkpt lat="37.462187" lon="-4.037295">
        <ele>673.055</ele>
        <time>2021-11-26T20:59:59Z</time>
      </trkpt>
      <trkpt lat="37.462304" lon="-4.037356">
        <ele>674.060</ele>
        <time>2021-11-26T21:00:39Z</time>
      </trkpt>
      <trkpt lat="37.462371" lon="-4.037395">
        <ele>676.037</ele>
        <time>2021-11-26T21:01:19Z</time>
      </trkpt>
      <trkpt lat="37.462420" lon="-4.037425">
        <ele>677.049</ele>
        <time>2021-11-26T21:01:59Z</time>
      </trkpt>
      <trkpt lat="37.462485" lon="-4.037483">
        <ele>678.013</ele>
        <time>2021-11-26T21:02:39Z</time>
      </trkpt>
      <trkpt lat="37.462521" lon="-4.037594">
        <ele>680.008</ele>
        <time>2021-11-26T21:03:19Z</time>
      </trkpt>
      <trkpt lat="37.462556" lon="-4.037745">
        <ele>682.031</ele>
        <time>2021-11-26T21:03:59Z</time>
      </trkpt>
      <trkpt lat="37.462589" lon="-4.037809">
        <ele>682.052</ele>
        <time>2021-11-26T21:04:39Z</time>
      </trkpt>
      <trkpt lat="37.462645" lon="-4.037878">
        <ele>682.049</ele>
        <time>2021-11-26T21:05:19Z</time>
      </trkpt>
      <trkpt lat="37.462696" lon="-4.037929">
        <ele>683.047</ele>
        <time>2021-11-26T21:05:59Z</time>
      </trkpt>
      <trkpt lat="37.462782" lon="-4.037984">
        <ele>683.090</ele>
        <time>2021-11-26T21:06:39Z</time>
      </trkpt>
      <trkpt lat="37.462827" lon="-4.038043">
        <ele>684.077</ele>
        <time>2021-11-26T21:07:19Z</time>
      </trkpt>
      <trkpt lat="37.462871" lon="-4.038106">
        <ele>684.043</ele>
        <time>2021-11-26T21:07:59Z</time>
      </trkpt>
      <trkpt lat="37.462906" lon="-4.038188">
        <ele>684.018</ele>
        <time>2021-11-26T21:08:39Z</time>
      </trkpt>
      <trkpt lat="37.462904" lon="-4.038314">
        <ele>685.062</ele>
        <time>2021-11-26T21:09:19Z</time>
      </trkpt>
      <trkpt lat="37.462906" lon="-4.038385">
        <ele>685.083</ele>
        <time>2021-11-26T21:09:59Z</time>
      </trkpt>
      <trkpt lat="37.462893" lon="-4.038542">
        <ele>686.011</ele>
        <time>2021-11-26T21:10:39Z</time>
      </trkpt>
      <trkpt lat="37.462920" lon="-4.038710">
        <ele>685.008</ele>
        <time>2021-11-26T21:11:19Z</time>
      </trkpt>
      <trkpt lat="37.462976" lon="-4.038870">
        <ele>684.034</ele>
        <time>2021-11-26T21:11:59Z</time>
      </trkpt>
      <trkpt lat="37.462992" lon="-4.038930">
        <ele>683.075</ele>
        <time>2021-11-26T21:12:39Z</time>
      </trkpt>
      <trkpt lat="37.463062" lon="-4.039153">
        <ele>681.042</ele>
        <time>2021-11-26T21:13:19Z</time>
      </trkpt>
      <trkpt lat="37.463145" lon="-4.039343">
        <ele>680.010</ele>
        <time>2021-11-26T21:13:59Z</time>
      </trkpt>
      <trkpt lat="37.463204" lon="-4.039516">
        <ele>678.093</ele>
        <time>2021-11-26T21:14:39Z</time>
      </trkpt>
      <trkpt lat="37.463270" lon="-4.039693">
        <ele>676.060</ele>
        <time>2021-11-26T21:15:19Z</time>
      </trkpt>
      <trkpt lat="37.463319" lon="-4.039799">
        <ele>675.036</ele>
        <time>2021-11-26T21:15:59Z</time>
      </trkpt>
      <trkpt lat="37.463330" lon="-4.039875">
        <ele>674.081</ele>
        <time>2021-11-26T21:16:39Z</time>
      </trkpt>
      <trkpt lat="37.463350" lon="-4.039949">
        <ele>673.014</ele>
        <time>2021-11-26T21:17:19Z</time>
      </trkpt>
      <trkpt lat="37.463361" lon="-4.040047">
        <ele>672.054</ele>
        <time>2021-11-26T21:17:59Z</time>
      </trkpt>
      <trkpt lat="37.463384" lon="-4.040143">
        <ele>670.009</ele>
        <time>2021-11-26T21:18:39Z</time>
      </trkpt>
      <trkpt lat="37.463432" lon="-4.040268">
        <ele>668.008</ele>
        <time>2021-11-26T21:19:19Z</time>
      </trkpt>
      <trkpt lat="37.463498" lon="-4.040436">
        <ele>666.039</ele>
        <time>2021-11-26T21:19:59Z</time>
      </trkpt>
      <trkpt lat="37.463550" lon="-4.040542">
        <ele>665.030</ele>
        <time>2021-11-26T21:20:39Z</time>
      </trkpt>
      <trkpt lat="37.463576" lon="-4.040650">
        <ele>663.057</ele>
        <time>2021-11-26T21:21:19Z</time>
      </trkpt>
      <trkpt lat="37.463610" lon="-4.040768">
        <ele>662.095</ele>
        <time>2021-11-26T21:21:59Z</time>
      </trkpt>
      <trkpt lat="37.463656" lon="-4.040909">
        <ele>660.028</ele>
        <time>2021-11-26T21:22:39Z</time>
      </trkpt>
      <trkpt lat="37.463703" lon="-4.041099">
        <ele>657.075</ele>
        <time>2021-11-26T21:23:19Z</time>
      </trkpt>
      <trkpt lat="37.463735" lon="-4.041293">
        <ele>655.061</ele>
        <time>2021-11-26T21:23:59Z</time>
      </trkpt>
      <trkpt lat="37.463776" lon="-4.041462">
        <ele>654.056</ele>
        <time>2021-11-26T21:24:39Z</time>
      </trkpt>
      <trkpt lat="37.463817" lon="-4.041583">
        <ele>652.065</ele>
        <time>2021-11-26T21:25:19Z</time>
      </trkpt>
      <trkpt lat="37.463841" lon="-4.041669">
        <ele>652.068</ele>
        <time>2021-11-26T21:25:59Z</time>
      </trkpt>
      <trkpt lat="37.463909" lon="-4.041767">
        <ele>652.014</ele>
        <time>2021-11-26T21:26:39Z</time>
      </trkpt>
      <trkpt lat="37.463955" lon="-4.041844">
        <ele>651.008</ele>
        <time>2021-11-26T21:27:19Z</time>
      </trkpt>
      <trkpt lat="37.464012" lon="-4.041873">
        <ele>650.024</ele>
        <time>2021-11-26T21:27:59Z</time>
      </trkpt>
      <trkpt lat="37.464060" lon="-4.041916">
        <ele>649.095</ele>
        <time>2021-11-26T21:28:39Z</time>
      </trkpt>
      <trkpt lat="37.464114" lon="-4.041938">
        <ele>649.092</ele>
        <time>2021-11-26T21:29:19Z</time>
      </trkpt>
      <trkpt lat="37.464141" lon="-4.042012">
        <ele>649.040</ele>
        <time>2021-11-26T21:29:59Z</time>
      </trkpt>
      <trkpt lat="37.464197" lon="-4.042170">
        <ele>648.033</ele>
        <time>2021-11-26T21:30:39Z</time>
      </trkpt>
      <trkpt lat="37.464225" lon="-4.042310">
        <ele>648.050</ele>
        <time>2021-11-26T21:31:19Z</time>
      </trkpt>
      <trkpt lat="37.464241" lon="-4.042386">
        <ele>648.056</ele>
        <time>2021-11-26T21:31:59Z</time>
      </trkpt>
      <trkpt lat="37.464247" lon="-4.042464">
        <ele>647.021</ele>
        <time>2021-11-26T21:32:39Z</time>
      </trkpt>
      <trkpt lat="37.464262" lon="-4.042584">
        <ele>644.071</ele>
        <time>2021-11-26T21:33:19Z</time>
      </trkpt>
      <trkpt lat="37.464300" lon="-4.042666">
        <ele>643.041</ele>
        <time>2021-11-26T21:33:59Z</time>
      </trkpt>
      <trkpt lat="37.464363" lon="-4.042828">
        <ele>640.015</ele>
        <time>2021-11-26T21:34:39Z</time>
      </trkpt>
      <trkpt lat="37.464412" lon="-4.042939">
        <ele>639.008</ele>
        <time>2021-11-26T21:35:19Z</time>
      </trkpt>
      <trkpt lat="37.464442" lon="-4.043018">
        <ele>636.025</ele>
        <time>2021-11-26T21:35:59Z</time>
      </trkpt>
      <trkpt lat="37.464468" lon="-4.043082">
        <ele>634.066</ele>
        <time>2021-11-26T21:36:39Z</time>
      </trkpt>
      <trkpt lat="37.464533" lon="-4.043146">
        <ele>633.013</ele>
        <time>2021-11-26T21:37:19Z</time>
      </trkpt>
      <trkpt lat="37.464572" lon="-4.043191">
        <ele>632.071</ele>
        <time>2021-11-26T21:37:59Z</time>
      </trkpt>
      <trkpt lat="37.464614" lon="-4.043270">
        <ele>630.024</ele>
        <time>2021-11-26T21:38:39Z</time>
      </trkpt>
      <trkpt lat="37.464673" lon="-4.043342">
        <ele>630.011</ele>
        <time>2021-11-26T21:39:19Z</time>
      </trkpt>
      <trkpt lat="37.464722" lon="-4.043407">
        <ele>628.027</ele>
        <time>2021-11-26T21:39:59Z</time>
      </trkpt>
      <trkpt lat="37.464763" lon="-4.043502">
        <ele>625.012</ele>
        <time>2021-11-26T21:40:39Z</time>
      </trkpt>
      <trkpt lat="37.464796" lon="-4.043613">
        <ele>624.085</ele>
        <time>2021-11-26T21:41:19Z</time>
      </trkpt>
      <trkpt lat="37.464813" lon="-4.043711">
        <ele>621.089</ele>
        <time>2021-11-26T21:41:59Z</time>
      </trkpt>
      <trkpt lat="37.464849" lon="-4.043790">
        <ele>621.017</ele>
        <time>2021-11-26T21:42:39Z</time>
      </trkpt>
      <trkpt lat="37.464878" lon="-4.043840">
        <ele>620.008</ele>
        <time>2021-11-26T21:43:19Z</time>
      </trkpt>
      <trkpt lat="37.464933" lon="-4.043903">
        <ele>618.066</ele>
        <time>2021-11-26T21:43:59Z</time>
      </trkpt>
      <trkpt lat="37.464993" lon="-4.043957">
        <ele>617.017</ele>
        <time>2021-11-26T21:44:39Z</time>
      </trkpt>
      <trkpt lat="37.465049" lon="-4.044021">
        <ele>615.014</ele>
        <time>2021-11-26T21:45:19Z</time>
      </trkpt>
      <trkpt lat="37.465117" lon="-4.044125">
        <ele>613.052</ele>
        <time>2021-11-26T21:45:59Z</time>
      </trkpt>
      <trkpt lat="37.465165" lon="-4.044231">
        <ele>611.055</ele>
        <time>2021-11-26T21:46:39Z</time>
      </trkpt>
      <trkpt lat="37.465231" lon="-4.044344">
        <ele>609.042</ele>
        <time>2021-11-26T21:47:19Z</time>
      </trkpt>
      <trkpt lat="37.465294" lon="-4.044437">
        <ele>606.068</ele>
        <time>2021-11-26T21:47:59Z</time>
      </trkpt>
      <trkpt lat="37.465396" lon="-4.044637">
        <ele>603.033</ele>
        <time>2021-11-26T21:48:39Z</time>
      </trkpt>
      <trkpt lat="37.465457" lon="-4.044723">
        <ele>602.015</ele>
        <time>2021-11-26T21:49:19Z</time>
      </trkpt>
      <trkpt lat="37.465514" lon="-4.044836">
        <ele>599.065</ele>
        <time>2021-11-26T21:49:59Z</time>
      </trkpt>
      <trkpt lat="37.465593" lon="-4.044959">
        <ele>598.011</ele>
        <time>2021-11-26T21:50:39Z</time>
      </trkpt>
      <trkpt lat="37.465608" lon="-4.045049">
        <ele>596.008</ele>
        <time>2021-11-26T21:51:19Z</time>
      </trkpt>
      <trkpt lat="37.465604" lon="-4.045172">
        <ele>594.019</ele>
        <time>2021-11-26T21:51:59Z</time>
      </trkpt>
      <trkpt lat="37.465560" lon="-4.045354">
        <ele>591.010</ele>
        <time>2021-11-26T21:52:39Z</time>
      </trkpt>
      <trkpt lat="37.465525" lon="-4.045471">
        <ele>588.037</ele>
        <time>2021-11-26T21:53:19Z</time>
      </trkpt>
      <trkpt lat="37.465446" lon="-4.045612">
        <ele>585.095</ele>
        <time>2021-11-26T21:53:59Z</time>
      </trkpt>
      <trkpt lat="37.465373" lon="-4.045744">
        <ele>582.088</ele>
        <time>2021-11-26T21:54:39Z</time>
      </trkpt>
      <trkpt lat="37.465329" lon="-4.045848">
        <ele>581.045</ele>
        <time>2021-11-26T21:55:19Z</time>
      </trkpt>
      <trkpt lat="37.465301" lon="-4.045912">
        <ele>580.061</ele>
        <time>2021-11-26T21:55:59Z</time>
      </trkpt>
      <trkpt lat="37.465497" lon="-4.046040">
        <ele>580.026</ele>
        <time>2021-11-26T21:56:39Z</time>
      </trkpt>
      <trkpt lat="37.465619" lon="-4.046122">
        <ele>579.033</ele>
        <time>2021-11-26T21:57:19Z</time>
      </trkpt>
      <trkpt lat="37.466011" lon="-4.046313">
        <ele>579.023</ele>
        <time>2021-11-26T21:57:59Z</time>
      </trkpt>
      <trkpt lat="37.466251" lon="-4.046449">
        <ele>578.015</ele>
        <time>2021-11-26T21:58:39Z</time>
      </trkpt>
      <trkpt lat="37.466506" lon="-4.046585">
        <ele>577.008</ele>
        <time>2021-11-26T21:59:19Z</time>
      </trkpt>
      <trkpt lat="37.466678" lon="-4.046676">
        <ele>576.071</ele>
        <time>2021-11-26T21:59:59Z</time>
      </trkpt>
      <trkpt lat="37.467005" lon="-4.046849">
        <ele>575.062</ele>
        <time>2021-11-26T22:00:39Z</time>
      </trkpt>
      <trkpt lat="37.467300" lon="-4.046993">
        <ele>575.059</ele>
        <time>2021-11-26T22:01:19Z</time>
      </trkpt>
      <trkpt lat="37.467555" lon="-4.047127">
        <ele>574.047</ele>
        <time>2021-11-26T22:01:59Z</time>
      </trkpt>
      <trkpt lat="37.467854" lon="-4.047292">
        <ele>574.030</ele>
        <time>2021-11-26T22:02:39Z</time>
      </trkpt>
      <trkpt lat="37.468078" lon="-4.047415">
        <ele>573.087</ele>
        <time>2021-11-26T22:03:19Z</time>
      </trkpt>
      <trkpt lat="37.468276" lon="-4.047476">
        <ele>574.033</ele>
        <time>2021-11-26T22:03:59Z</time>
      </trkpt>
      <trkpt lat="37.468409" lon="-4.047532">
        <ele>574.068</ele>
        <time>2021-11-26T22:04:39Z</time>
      </trkpt>
      <trkpt lat="37.468632" lon="-4.047517">
        <ele>574.098</ele>
        <time>2021-11-26T22:05:19Z</time>
      </trkpt>
      <trkpt lat="37.468788" lon="-4.047483">
        <ele>575.015</ele>
        <time>2021-11-26T22:05:59Z</time>
      </trkpt>
      <trkpt lat="37.468984" lon="-4.047426">
        <ele>574.026</ele>
        <time>2021-11-26T22:06:39Z</time>
      </trkpt>
      <trkpt lat="37.469094" lon="-4.047344">
        <ele>574.008</ele>
        <time>2021-11-26T22:07:19Z</time>
      </trkpt>
      <trkpt lat="37.469177" lon="-4.047242">
        <ele>573.067</ele>
        <time>2021-11-26T22:07:59Z</time>
      </trkpt>
      <trkpt lat="37.469254" lon="-4.047094">
        <ele>573.038</ele>
        <time>2021-11-26T22:08:39Z</time>
      </trkpt>
      <trkpt lat="37.469375" lon="-4.046892">
        <ele>572.045</ele>
        <time>2021-11-26T22:09:19Z</time>
      </trkpt>
      <trkpt lat="37.469447" lon="-4.046811">
        <ele>570.033</ele>
        <time>2021-11-26T22:09:59Z</time>
      </trkpt>
      <trkpt lat="37.469573" lon="-4.046732">
        <ele>570.016</ele>
        <time>2021-11-26T22:10:39Z</time>
      </trkpt>
      <trkpt lat="37.469733" lon="-4.046617">
        <ele>573.033</ele>
        <time>2021-11-26T22:11:19Z</time>
      </trkpt>
      <trkpt lat="37.469881" lon="-4.046525">
        <ele>574.059</ele>
        <time>2021-11-26T22:11:59Z</time>
      </trkpt>
      <trkpt lat="37.469979" lon="-4.046461">
        <ele>575.094</ele>
        <time>2021-11-26T22:12:39Z</time>
      </trkpt>
      <trkpt lat="37.470063" lon="-4.046406">
        <ele>575.071</ele>
        <time>2021-11-26T22:13:19Z</time>
      </trkpt>
      <trkpt lat="37.470043" lon="-4.046321">
        <ele>576.041</ele>
        <time>2021-11-26T22:13:59Z</time>
      </trkpt>
      <trkpt lat="37.469978" lon="-4.046253">
        <ele>578.015</ele>
        <time>2021-11-26T22:14:39Z</time>
      </trkpt>
      <trkpt lat="37.469887" lon="-4.046167">
        <ele>580.008</ele>
        <time>2021-11-26T22:15:19Z</time>
      </trkpt>
      <trkpt lat="37.469820" lon="-4.046023">
        <ele>583.065</ele>
        <time>2021-11-26T22:15:59Z</time>
      </trkpt>
      <trkpt lat="37.469765" lon="-4.045928">
        <ele>584.056</ele>
        <time>2021-11-26T22:16:39Z</time>
      </trkpt>
      <trkpt lat="37.469696" lon="-4.045811">
        <ele>586.063</ele>
        <time>2021-11-26T22:17:19Z</time>
      </trkpt>
      <trkpt lat="37.469635" lon="-4.045698">
        <ele>586.021</ele>
        <time>2021-11-26T22:17:59Z</time>
      </trkpt>
      <trkpt lat="37.469597" lon="-4.045587">
        <ele>588.024</ele>
        <time>2021-11-26T22:18:39Z</time>
      </trkpt>
      <trkpt lat="37.469566" lon="-4.045488">
        <ele>589.081</ele>
        <time>2021-11-26T22:19:19Z</time>
      </trkpt>
      <trkpt lat="37.469531" lon="-4.045400">
        <ele>590.067</ele>
        <time>2021-11-26T22:19:59Z</time>
      </trkpt>
      <trkpt lat="37.469491" lon="-4.045216">
        <ele>593.062</ele>
        <time>2021-11-26T22:20:39Z</time>
      </trkpt>
      <trkpt lat="37.469427" lon="-4.045072">
        <ele>595.031</ele>
        <time>2021-11-26T22:21:19Z</time>
      </trkpt>
      <trkpt lat="37.469384" lon="-4.044958">
        <ele>595.061</ele>
        <time>2021-11-26T22:21:59Z</time>
      </trkpt>
      <trkpt lat="37.469355" lon="-4.044877">
        <ele>597.007</ele>
        <time>2021-11-26T22:22:39Z</time>
      </trkpt>
      <trkpt lat="37.469330" lon="-4.044740">
        <ele>600.008</ele>
        <time>2021-11-26T22:23:19Z</time>
      </trkpt>
      <trkpt lat="37.469313" lon="-4.044633">
        <ele>601.071</ele>
        <time>2021-11-26T22:23:59Z</time>
      </trkpt>
      <trkpt lat="37.469307" lon="-4.044512">
        <ele>601.062</ele>
        <time>2021-11-26T22:24:39Z</time>
      </trkpt>
      <trkpt lat="37.469308" lon="-4.044363">
        <ele>602.069</ele>
        <time>2021-11-26T22:25:19Z</time>
      </trkpt>
      <trkpt lat="37.469279" lon="-4.044254">
        <ele>603.047</ele>
        <time>2021-11-26T22:25:59Z</time>
      </trkpt>
      <trkpt lat="37.469243" lon="-4.044149">
        <ele>603.080</ele>
        <time>2021-11-26T22:26:39Z</time>
      </trkpt>
      <trkpt lat="37.469187" lon="-4.044048">
        <ele>603.057</ele>
        <time>2021-11-26T22:27:19Z</time>
      </trkpt>
      <trkpt lat="37.469155" lon="-4.043963">
        <ele>604.013</ele>
        <time>2021-11-26T22:27:59Z</time>
      </trkpt>
      <trkpt lat="37.469132" lon="-4.043849">
        <ele>604.058</ele>
        <time>2021-11-26T22:28:39Z</time>
      </trkpt>
      <trkpt lat="37.469114" lon="-4.043742">
        <ele>605.036</ele>
        <time>2021-11-26T22:29:19Z</time>
      </trkpt>
      <trkpt lat="37.469113" lon="-4.043628">
        <ele>605.017</ele>
        <time>2021-11-26T22:29:59Z</time>
      </trkpt>
      <trkpt lat="37.469093" lon="-4.043495">
        <ele>605.018</ele>
        <time>2021-11-26T22:30:39Z</time>
      </trkpt>
      <trkpt lat="37.469083" lon="-4.043355">
        <ele>604.008</ele>
        <time>2021-11-26T22:31:19Z</time>
      </trkpt>
      <trkpt lat="37.469053" lon="-4.043240">
        <ele>604.011</ele>
        <time>2021-11-26T22:31:59Z</time>
      </trkpt>
      <trkpt lat="37.469039" lon="-4.043125">
        <ele>605.052</ele>
        <time>2021-11-26T22:32:39Z</time>
      </trkpt>
      <trkpt lat="37.469029" lon="-4.042990">
        <ele>605.029</ele>
        <time>2021-11-26T22:33:19Z</time>
      </trkpt>
      <trkpt lat="37.469021" lon="-4.042908">
        <ele>606.067</ele>
        <time>2021-11-26T22:33:59Z</time>
      </trkpt>
      <trkpt lat="37.469053" lon="-4.042721">
        <ele>606.020</ele>
        <time>2021-11-26T22:34:39Z</time>
      </trkpt>
      <trkpt lat="37.469075" lon="-4.042566">
        <ele>607.087</ele>
        <time>2021-11-26T22:35:19Z</time>
      </trkpt>
      <trkpt lat="37.469087" lon="-4.042431">
        <ele>609.073</ele>
        <time>2021-11-26T22:35:59Z</time>
      </trkpt>
      <trkpt lat="37.469085" lon="-4.042283">
        <ele>611.038</ele>
        <time>2021-11-26T22:36:39Z</time>
      </trkpt>
      <trkpt lat="37.469117" lon="-4.042118">
        <ele>612.044</ele>
        <time>2021-11-26T22:37:19Z</time>
      </trkpt>
      <trkpt lat="37.469161" lon="-4.041935">
        <ele>614.005</ele>
        <time>2021-11-26T22:37:59Z</time>
      </trkpt>
      <trkpt lat="37.469203" lon="-4.041756">
        <ele>614.015</ele>
        <time>2021-11-26T22:38:39Z</time>
      </trkpt>
      <trkpt lat="37.469226" lon="-4.041582">
        <ele>616.008</ele>
        <time>2021-11-26T22:39:19Z</time>
      </trkpt>
      <trkpt lat="37.469238" lon="-4.041377">
        <ele>618.092</ele>
        <time>2021-11-26T22:39:59Z</time>
      </trkpt>
      <trkpt lat="37.469238" lon="-4.041191">
        <ele>619.073</ele>
        <time>2021-11-26T22:40:39Z</time>
      </trkpt>
      <trkpt lat="37.469249" lon="-4.041012">
        <ele>620.070</ele>
        <time>2021-11-26T22:41:19Z</time>
      </trkpt>
      <trkpt lat="37.469264" lon="-4.040906">
        <ele>621.028</ele>
        <time>2021-11-26T22:41:59Z</time>
      </trkpt>
      <trkpt lat="37.469295" lon="-4.040726">
        <ele>624.011</ele>
        <time>2021-11-26T22:42:39Z</time>
      </trkpt>
      <trkpt lat="37.469347" lon="-4.040598">
        <ele>625.058</ele>
        <time>2021-11-26T22:43:19Z</time>
      </trkpt>
      <trkpt lat="37.469418" lon="-4.040439">
        <ele>627.074</ele>
        <time>2021-11-26T22:43:59Z</time>
      </trkpt>
      <trkpt lat="37.469517" lon="-4.040277">
        <ele>630.099</ele>
        <time>2021-11-26T22:44:39Z</time>
      </trkpt>
      <trkpt lat="37.469606" lon="-4.040073">
        <ele>633.034</ele>
        <time>2021-11-26T22:45:19Z</time>
      </trkpt>
      <trkpt lat="37.469611" lon="-4.039924">
        <ele>634.055</ele>
        <time>2021-11-26T22:45:59Z</time>
      </trkpt>
      <trkpt lat="37.469598" lon="-4.039774">
        <ele>636.010</ele>
        <time>2021-11-26T22:46:39Z</time>
      </trkpt>
      <trkpt lat="37.469592" lon="-4.039644">
        <ele>639.008</ele>
        <time>2021-11-26T22:47:19Z</time>
      </trkpt>
      <trkpt lat="37.469606" lon="-4.039534">
        <ele>640.021</ele>
        <time>2021-11-26T22:47:59Z</time>
      </trkpt>
      <trkpt lat="37.469644" lon="-4.039410">
        <ele>642.022</ele>
        <time>2021-11-26T22:48:39Z</time>
      </trkpt>
      <trkpt lat="37.469719" lon="-4.039247">
        <ele>644.099</ele>
        <time>2021-11-26T22:49:19Z</time>
      </trkpt>
      <trkpt lat="37.469830" lon="-4.039100">
        <ele>646.017</ele>
        <time>2021-11-26T22:49:59Z</time>
      </trkpt>
      <trkpt lat="37.469881" lon="-4.038978">
        <ele>647.070</ele>
        <time>2021-11-26T22:50:39Z</time>
      </trkpt>
      <trkpt lat="37.469987" lon="-4.038862">
        <ele>648.087</ele>
        <time>2021-11-26T22:51:19Z</time>
      </trkpt>
      <trkpt lat="37.470063" lon="-4.038694">
        <ele>649.013</ele>
        <time>2021-11-26T22:51:59Z</time>
      </trkpt>
      <trkpt lat="37.470113" lon="-4.038510">
        <ele>650.098</ele>
        <time>2021-11-26T22:52:39Z</time>
      </trkpt>
      <trkpt lat="37.470147" lon="-4.038356">
        <ele>653.052</ele>
        <time>2021-11-26T22:53:19Z</time>
      </trkpt>
      <trkpt lat="37.470172" lon="-4.038223">
        <ele>655.053</ele>
        <time>2021-11-26T22:53:59Z</time>
      </trkpt>
      <trkpt lat="37.470212" lon="-4.038047">
        <ele>657.008</ele>
        <time>2021-11-26T22:54:39Z</time>
      </trkpt>
      <trkpt lat="37.470241" lon="-4.037925">
        <ele>658.008</ele>
        <time>2021-11-26T22:55:19Z</time>
      </trkpt>
      <trkpt lat="37.470338" lon="-4.037736">
        <ele>660.013</ele>
        <time>2021-11-26T22:55:59Z</time>
      </trkpt>
      <trkpt lat="37.470468" lon="-4.037575">
        <ele>662.034</ele>
        <time>2021-11-26T22:56:39Z</time>
      </trkpt>
      <trkpt lat="37.470530" lon="-4.037396">
        <ele>663.041</ele>
        <time>2021-11-26T22:57:19Z</time>
      </trkpt>
      <trkpt lat="37.470626" lon="-4.037126">
        <ele>664.039</ele>
        <time>2021-11-26T22:57:59Z</time>
      </trkpt>
      <trkpt lat="37.470696" lon="-4.036928">
        <ele>664.032</ele>
        <time>2021-11-26T22:58:39Z</time>
      </trkpt>
      <trkpt lat="37.470778" lon="-4.036728">
        <ele>665.099</ele>
        <time>2021-11-26T22:59:19Z</time>
      </trkpt>
      <trkpt lat="37.470847" lon="-4.036549">
        <ele>666.035</ele>
        <time>2021-11-26T22:59:59Z</time>
      </trkpt>
      <trkpt lat="37.471008" lon="-4.036353">
        <ele>667.050</ele>
        <time>2021-11-26T23:00:39Z</time>
      </trkpt>
      <trkpt lat="37.471123" lon="-4.036158">
        <ele>668.033</ele>
        <time>2021-11-26T23:01:19Z</time>
      </trkpt>
      <trkpt lat="37.471214" lon="-4.036114">
        <ele>668.023</ele>
        <time>2021-11-26T23:01:59Z</time>
      </trkpt>
      <trkpt lat="37.471340" lon="-4.036027">
        <ele>670.015</ele>
        <time>2021-11-26T23:02:39Z</time>
      </trkpt>
      <trkpt lat="37.471536" lon="-4.035938">
        <ele>672.008</ele>
        <time>2021-11-26T23:03:19Z</time>
      </trkpt>
      <trkpt lat="37.471725" lon="-4.035849">
        <ele>675.071</ele>
        <time>2021-11-26T23:03:59Z</time>
      </trkpt>
      <trkpt lat="37.471884" lon="-4.035798">
        <ele>677.062</ele>
        <time>2021-11-26T23:04:39Z</time>
      </trkpt>
      <trkpt lat="37.472052" lon="-4.035721">
        <ele>680.049</ele>
        <time>2021-11-26T23:05:19Z</time>
      </trkpt>
      <trkpt lat="37.472162" lon="-4.035662">
        <ele>681.067</ele>
        <time>2021-11-26T23:05:59Z</time>
      </trkpt>
      <trkpt lat="37.472301" lon="-4.035541">
        <ele>682.070</ele>
        <time>2021-11-26T23:06:39Z</time>
      </trkpt>
      <trkpt lat="37.472392" lon="-4.035353">
        <ele>682.077</ele>
        <time>2021-11-26T23:07:19Z</time>
      </trkpt>
      <trkpt lat="37.472423" lon="-4.035213">
        <ele>682.063</ele>
        <time>2021-11-26T23:07:59Z</time>
      </trkpt>
      <trkpt lat="37.472424" lon="-4.035116">
        <ele>682.068</ele>
        <time>2021-11-26T23:08:39Z</time>
      </trkpt>
      <trkpt lat="37.472617" lon="-4.035125">
        <ele>681.091</ele>
        <time>2021-11-26T23:09:19Z</time>
      </trkpt>
      <trkpt lat="37.472807" lon="-4.035046">
        <ele>680.081</ele>
        <time>2021-11-26T23:09:59Z</time>
      </trkpt>
      <trkpt lat="37.472969" lon="-4.034990">
        <ele>680.019</ele>
        <time>2021-11-26T23:10:39Z</time>
      </trkpt>
      <trkpt lat="37.473120" lon="-4.034924">
        <ele>680.008</ele>
        <time>2021-11-26T23:11:19Z</time>
      </trkpt>
      <trkpt lat="37.473296" lon="-4.034866">
        <ele>680.027</ele>
        <time>2021-11-26T23:11:59Z</time>
      </trkpt>
      <trkpt lat="37.473491" lon="-4.034778">
        <ele>680.078</ele>
        <time>2021-11-26T23:12:39Z</time>
      </trkpt>
      <trkpt lat="37.473696" lon="-4.034730">
        <ele>681.055</ele>
        <time>2021-11-26T23:13:19Z</time>
      </trkpt>
      <trkpt lat="37.473901" lon="-4.034648">
        <ele>682.033</ele>
        <time>2021-11-26T23:13:59Z</time>
      </trkpt>
      <trkpt lat="37.474098" lon="-4.034548">
        <ele>683.036</ele>
        <time>2021-11-26T23:14:39Z</time>
      </trkpt>
      <trkpt lat="37.474192" lon="-4.034508">
        <ele>683.023</ele>
        <time>2021-11-26T23:15:19Z</time>
      </trkpt>
      <trkpt lat="37.474445" lon="-4.034492">
        <ele>685.029</ele>
        <time>2021-11-26T23:15:59Z</time>
      </trkpt>
      <trkpt lat="37.474606" lon="-4.034493">
        <ele>686.084</ele>
        <time>2021-11-26T23:16:39Z</time>
      </trkpt>
      <trkpt lat="37.474731" lon="-4.034519">
        <ele>687.078</ele>
        <time>2021-11-26T23:17:19Z</time>
      </trkpt>
      <trkpt lat="37.474944" lon="-4.034464">
        <ele>690.033</ele>
        <time>2021-11-26T23:17:59Z</time>
      </trkpt>
      <trkpt lat="37.475109" lon="-4.034445">
        <ele>692.026</ele>
        <time>2021-11-26T23:18:39Z</time>
      </trkpt>
      <trkpt lat="37.475280" lon="-4.034415">
        <ele>693.008</ele>
        <time>2021-11-26T23:19:19Z</time>
      </trkpt>
      <trkpt lat="37.475421" lon="-4.034383">
        <ele>694.045</ele>
        <time>2021-11-26T23:19:59Z</time>
      </trkpt>
      <trkpt lat="37.475490" lon="-4.034408">
        <ele>694.096</ele>
        <time>2021-11-26T23:20:39Z</time>
      </trkpt>
      <trkpt lat="37.475556" lon="-4.034418">
        <ele>694.553</ele>
        <time>2021-11-26T23:21:19Z</time>
      </trkpt>
      <trkpt lat="37.475556" lon="-4.034418">
        <ele>694.562</ele>
        <time>2021-11-26T14:43:59Z</time>
      </trkpt>
      <trkpt lat="37.475619" lon="-4.034428">
        <ele>695.083</ele>
        <time>2021-11-26T14:44:39Z</time>
      </trkpt>
      <trkpt lat="37.475720" lon="-4.034446">
        <ele>695.011</ele>
        <time>2021-11-26T14:45:19Z</time>
      </trkpt>
      <trkpt lat="37.475879" lon="-4.034442">
        <ele>697.008</ele>
        <time>2021-11-26T14:45:59Z</time>
      </trkpt>
      <trkpt lat="37.475981" lon="-4.034417">
        <ele>697.094</ele>
        <time>2021-11-26T14:46:39Z</time>
      </trkpt>
      <trkpt lat="37.476170" lon="-4.034398">
        <ele>699.035</ele>
        <time>2021-11-26T14:47:19Z</time>
      </trkpt>
      <trkpt lat="37.476316" lon="-4.034367">
        <ele>699.062</ele>
        <time>2021-11-26T14:47:59Z</time>
      </trkpt>
      <trkpt lat="37.476514" lon="-4.034328">
        <ele>700.050</ele>
        <time>2021-11-26T14:48:39Z</time>
      </trkpt>
      <trkpt lat="37.476602" lon="-4.034316">
        <ele>700.033</ele>
        <time>2021-11-26T14:49:19Z</time>
      </trkpt>
      <trkpt lat="37.476748" lon="-4.034195">
        <ele>703.013</ele>
        <time>2021-11-26T14:49:59Z</time>
      </trkpt>
      <trkpt lat="37.476867" lon="-4.034071">
        <ele>704.081</ele>
        <time>2021-11-26T14:50:39Z</time>
      </trkpt>
      <trkpt lat="37.476944" lon="-4.034022">
        <ele>705.091</ele>
        <time>2021-11-26T14:51:19Z</time>
      </trkpt>
      <trkpt lat="37.476909" lon="-4.033912">
        <ele>708.067</ele>
        <time>2021-11-26T14:51:59Z</time>
      </trkpt>
      <trkpt lat="37.476840" lon="-4.033905">
        <ele>708.081</ele>
        <time>2021-11-26T14:52:39Z</time>
      </trkpt>
      <trkpt lat="37.476853" lon="-4.033815">
        <ele>711.019</ele>
        <time>2021-11-26T14:53:19Z</time>
      </trkpt>
      <trkpt lat="37.476857" lon="-4.033720">
        <ele>713.008</ele>
        <time>2021-11-26T14:53:59Z</time>
      </trkpt>
      <trkpt lat="37.476902" lon="-4.033669">
        <ele>714.044</ele>
        <time>2021-11-26T14:54:39Z</time>
      </trkpt>
      <trkpt lat="37.476977" lon="-4.033613">
        <ele>715.035</ele>
        <time>2021-11-26T14:55:19Z</time>
      </trkpt>
      <trkpt lat="37.477058" lon="-4.033552">
        <ele>715.022</ele>
        <time>2021-11-26T14:55:59Z</time>
      </trkpt>
      <trkpt lat="37.477120" lon="-4.033495">
        <ele>713.070</ele>
        <time>2021-11-26T14:56:39Z</time>
      </trkpt>
      <trkpt lat="37.477158" lon="-4.033374">
        <ele>717.073</ele>
        <time>2021-11-26T14:57:19Z</time>
      </trkpt>
      <trkpt lat="37.477187" lon="-4.033282">
        <ele>718.033</ele>
        <time>2021-11-26T14:57:59Z</time>
      </trkpt>
      <trkpt lat="37.477217" lon="-4.033199">
        <ele>720.091</ele>
        <time>2021-11-26T14:58:39Z</time>
      </trkpt>
      <trkpt lat="37.477235" lon="-4.033109">
        <ele>723.071</ele>
        <time>2021-11-26T14:59:19Z</time>
      </trkpt>
      <trkpt lat="37.477206" lon="-4.033008">
        <ele>725.037</ele>
        <time>2021-11-26T14:59:59Z</time>
      </trkpt>
      <trkpt lat="37.477279" lon="-4.032969">
        <ele>726.049</ele>
        <time>2021-11-26T15:00:39Z</time>
      </trkpt>
      <trkpt lat="37.477363" lon="-4.032952">
        <ele>726.013</ele>
        <time>2021-11-26T15:01:19Z</time>
      </trkpt>
      <trkpt lat="37.477413" lon="-4.032934">
        <ele>725.008</ele>
        <time>2021-11-26T15:01:59Z</time>
      </trkpt>
      <trkpt lat="37.477483" lon="-4.032837">
        <ele>725.051</ele>
        <time>2021-11-26T15:02:39Z</time>
      </trkpt>
      <trkpt lat="37.477550" lon="-4.032777">
        <ele>725.092</ele>
        <time>2021-11-26T15:03:19Z</time>
      </trkpt>
      <trkpt lat="37.477676" lon="-4.032730">
        <ele>723.069</ele>
        <time>2021-11-26T15:03:59Z</time>
      </trkpt>
      <trkpt lat="37.477736" lon="-4.032681">
        <ele>723.027</ele>
        <time>2021-11-26T15:04:39Z</time>
      </trkpt>
      <trkpt lat="37.477824" lon="-4.032600">
        <ele>722.030</ele>
        <time>2021-11-26T15:05:19Z</time>
      </trkpt>
      <trkpt lat="37.477899" lon="-4.032579">
        <ele>721.060</ele>
        <time>2021-11-26T15:05:59Z</time>
      </trkpt>
      <trkpt lat="37.477997" lon="-4.032541">
        <ele>721.098</ele>
        <time>2021-11-26T15:06:39Z</time>
      </trkpt>
      <trkpt lat="37.478099" lon="-4.032520">
        <ele>720.098</ele>
        <time>2021-11-26T15:07:19Z</time>
      </trkpt>
      <trkpt lat="37.478164" lon="-4.032506">
        <ele>720.089</ele>
        <time>2021-11-26T15:07:59Z</time>
      </trkpt>
      <trkpt lat="37.478227" lon="-4.032505">
        <ele>719.006</ele>
        <time>2021-11-26T15:08:39Z</time>
      </trkpt>
      <trkpt lat="37.478294" lon="-4.032547">
        <ele>718.026</ele>
        <time>2021-11-26T15:09:19Z</time>
      </trkpt>
      <trkpt lat="37.478399" lon="-4.032496">
        <ele>719.008</ele>
        <time>2021-11-26T15:09:59Z</time>
      </trkpt>
      <trkpt lat="37.478469" lon="-4.032455">
        <ele>720.076</ele>
        <time>2021-11-26T15:10:39Z</time>
      </trkpt>
      <trkpt lat="37.478535" lon="-4.032384">
        <ele>720.087</ele>
        <time>2021-11-26T15:11:19Z</time>
      </trkpt>
      <trkpt lat="37.478636" lon="-4.032270">
        <ele>720.084</ele>
        <time>2021-11-26T15:11:59Z</time>
      </trkpt>
      <trkpt lat="37.478698" lon="-4.032175">
        <ele>719.082</ele>
        <time>2021-11-26T15:12:39Z</time>
      </trkpt>
      <trkpt lat="37.478741" lon="-4.032069">
        <ele>720.085</ele>
        <time>2021-11-26T15:13:19Z</time>
      </trkpt>
      <trkpt lat="37.478762" lon="-4.031963">
        <ele>719.025</ele>
        <time>2021-11-26T15:13:59Z</time>
      </trkpt>
      <trkpt lat="37.478771" lon="-4.031817">
        <ele>720.063</ele>
        <time>2021-11-26T15:14:39Z</time>
      </trkpt>
      <trkpt lat="37.478802" lon="-4.031665">
        <ele>718.043</ele>
        <time>2021-11-26T15:15:19Z</time>
      </trkpt>
      <trkpt lat="37.478833" lon="-4.031605">
        <ele>719.077</ele>
        <time>2021-11-26T15:15:59Z</time>
      </trkpt>
      <trkpt lat="37.478867" lon="-4.031549">
        <ele>718.061</ele>
        <time>2021-11-26T15:16:39Z</time>
      </trkpt>
      <trkpt lat="37.478896" lon="-4.031501">
        <ele>718.027</ele>
        <time>2021-11-26T15:17:19Z</time>
      </trkpt>
      <trkpt lat="37.478866" lon="-4.031314">
        <ele>718.008</ele>
        <time>2021-11-26T15:17:59Z</time>
      </trkpt>
      <trkpt lat="37.478853" lon="-4.031138">
        <ele>718.035</ele>
        <time>2021-11-26T15:18:39Z</time>
      </trkpt>
      <trkpt lat="37.478766" lon="-4.030914">
        <ele>721.036</ele>
        <time>2021-11-26T15:19:19Z</time>
      </trkpt>
      <trkpt lat="37.478651" lon="-4.030727">
        <ele>724.013</ele>
        <time>2021-11-26T15:19:59Z</time>
      </trkpt>
      <trkpt lat="37.478581" lon="-4.030615">
        <ele>725.041</ele>
        <time>2021-11-26T15:20:39Z</time>
      </trkpt>
      <trkpt lat="37.478478" lon="-4.030425">
        <ele>726.014</ele>
        <time>2021-11-26T15:21:19Z</time>
      </trkpt>
      <trkpt lat="37.478362" lon="-4.030358">
        <ele>727.014</ele>
        <time>2021-11-26T15:21:59Z</time>
      </trkpt>
      <trkpt lat="37.478287" lon="-4.030313">
        <ele>728.052</ele>
        <time>2021-11-26T15:22:39Z</time>
      </trkpt>
      <trkpt lat="37.478190" lon="-4.030269">
        <ele>729.062</ele>
        <time>2021-11-26T15:23:19Z</time>
      </trkpt>
      <trkpt lat="37.478080" lon="-4.030241">
        <ele>729.077</ele>
        <time>2021-11-26T15:23:59Z</time>
      </trkpt>
      <trkpt lat="37.477999" lon="-4.030190">
        <ele>729.061</ele>
        <time>2021-11-26T15:24:39Z</time>
      </trkpt>
      <trkpt lat="37.477912" lon="-4.030142">
        <ele>729.027</ele>
        <time>2021-11-26T15:25:19Z</time>
      </trkpt>
      <trkpt lat="37.477849" lon="-4.030102">
        <ele>729.008</ele>
        <time>2021-11-26T15:25:59Z</time>
      </trkpt>
      <trkpt lat="37.477787" lon="-4.030043">
        <ele>730.015</ele>
        <time>2021-11-26T15:26:39Z</time>
      </trkpt>
      <trkpt lat="37.477727" lon="-4.029944">
        <ele>731.016</ele>
        <time>2021-11-26T15:27:19Z</time>
      </trkpt>
      <trkpt lat="37.477684" lon="-4.029858">
        <ele>733.013</ele>
        <time>2021-11-26T15:27:59Z</time>
      </trkpt>
      <trkpt lat="37.477704" lon="-4.029733">
        <ele>734.041</ele>
        <time>2021-11-26T15:28:39Z</time>
      </trkpt>
      <trkpt lat="37.477768" lon="-4.029659">
        <ele>735.074</ele>
        <time>2021-11-26T15:29:19Z</time>
      </trkpt>
      <trkpt lat="37.477852" lon="-4.029620">
        <ele>737.034</ele>
        <time>2021-11-26T15:29:59Z</time>
      </trkpt>
      <trkpt lat="37.477971" lon="-4.029603">
        <ele>736.042</ele>
        <time>2021-11-26T15:30:39Z</time>
      </trkpt>
      <trkpt lat="37.478059" lon="-4.029516">
        <ele>737.012</ele>
        <time>2021-11-26T15:31:19Z</time>
      </trkpt>
      <trkpt lat="37.478138" lon="-4.029425">
        <ele>738.034</ele>
        <time>2021-11-26T15:31:59Z</time>
      </trkpt>
      <trkpt lat="37.478194" lon="-4.029356">
        <ele>738.055</ele>
        <time>2021-11-26T15:32:39Z</time>
      </trkpt>
      <trkpt lat="37.478251" lon="-4.029185">
        <ele>738.010</ele>
        <time>2021-11-26T15:33:19Z</time>
      </trkpt>
      <trkpt lat="37.478225" lon="-4.029032">
        <ele>741.008</ele>
        <time>2021-11-26T15:33:59Z</time>
      </trkpt>
      <trkpt lat="37.478237" lon="-4.028876">
        <ele>741.031</ele>
        <time>2021-11-26T15:34:39Z</time>
      </trkpt>
      <trkpt lat="37.478171" lon="-4.028751">
        <ele>742.062</ele>
        <time>2021-11-26T15:35:19Z</time>
      </trkpt>
      <trkpt lat="37.478083" lon="-4.028606">
        <ele>743.069</ele>
        <time>2021-11-26T15:35:59Z</time>
      </trkpt>
      <trkpt lat="37.477978" lon="-4.028459">
        <ele>745.097</ele>
        <time>2021-11-26T15:36:39Z</time>
      </trkpt>
      <trkpt lat="37.477890" lon="-4.028335">
        <ele>745.050</ele>
        <time>2021-11-26T15:37:19Z</time>
      </trkpt>
      <trkpt lat="37.477792" lon="-4.028112">
        <ele>747.090</ele>
        <time>2021-11-26T15:37:59Z</time>
      </trkpt>
      <trkpt lat="37.477735" lon="-4.027964">
        <ele>748.068</ele>
        <time>2021-11-26T15:38:39Z</time>
      </trkpt>
      <trkpt lat="37.477714" lon="-4.027761">
        <ele>748.068</ele>
        <time>2021-11-26T15:39:19Z</time>
      </trkpt>
      <trkpt lat="37.477638" lon="-4.027591">
        <ele>749.083</ele>
        <time>2021-11-26T15:39:59Z</time>
      </trkpt>
      <trkpt lat="37.477551" lon="-4.027400">
        <ele>751.025</ele>
        <time>2021-11-26T15:40:39Z</time>
      </trkpt>
      <trkpt lat="37.477472" lon="-4.027277">
        <ele>751.017</ele>
        <time>2021-11-26T15:41:19Z</time>
      </trkpt>
      <trkpt lat="37.477415" lon="-4.027139">
        <ele>752.008</ele>
        <time>2021-11-26T15:41:59Z</time>
      </trkpt>
      <trkpt lat="37.477383" lon="-4.027049">
        <ele>753.076</ele>
        <time>2021-11-26T15:42:39Z</time>
      </trkpt>
      <trkpt lat="37.477414" lon="-4.026965">
        <ele>752.027</ele>
        <time>2021-11-26T15:43:19Z</time>
      </trkpt>
      <trkpt lat="37.477453" lon="-4.026952">
        <ele>751.024</ele>
        <time>2021-11-26T15:43:59Z</time>
      </trkpt>
      <trkpt lat="37.477475" lon="-4.026901">
        <ele>751.012</ele>
        <time>2021-11-26T15:44:39Z</time>
      </trkpt>
      <trkpt lat="37.477488" lon="-4.026867">
        <ele>751.065</ele>
        <time>2021-11-26T15:45:19Z</time>
      </trkpt>
      <trkpt lat="37.477498" lon="-4.026832">
        <ele>750.055</ele>
        <time>2021-11-26T15:45:59Z</time>
      </trkpt>
      <trkpt lat="37.477499" lon="-4.026829">
        <ele>750.083</ele>
        <time>2021-11-26T15:46:39Z</time>
      </trkpt>
      <trkpt lat="37.477513" lon="-4.026785">
        <ele>750.063</ele>
        <time>2021-11-26T15:47:19Z</time>
      </trkpt>
      <trkpt lat="37.477543" lon="-4.026756">
        <ele>750.012</ele>
        <time>2021-11-26T15:47:59Z</time>
      </trkpt>
      <trkpt lat="37.477568" lon="-4.026702">
        <ele>749.032</ele>
        <time>2021-11-26T15:48:39Z</time>
      </trkpt>
      <trkpt lat="37.477590" lon="-4.026654">
        <ele>749.005</ele>
        <time>2021-11-26T15:49:19Z</time>
      </trkpt>
      <trkpt lat="37.477628" lon="-4.026595">
        <ele>748.008</ele>
        <time>2021-11-26T15:49:59Z</time>
      </trkpt>
      <trkpt lat="37.477633" lon="-4.026588">
        <ele>748.069</ele>
        <time>2021-11-26T15:50:39Z</time>
      </trkpt>
      <trkpt lat="37.477668" lon="-4.026538">
        <ele>747.070</ele>
        <time>2021-11-26T15:51:19Z</time>
      </trkpt>
      <trkpt lat="37.477669" lon="-4.026534">
        <ele>747.037</ele>
        <time>2021-11-26T15:51:59Z</time>
      </trkpt>
      <trkpt lat="37.477702" lon="-4.026456">
        <ele>746.025</ele>
        <time>2021-11-26T15:52:39Z</time>
      </trkpt>
      <trkpt lat="37.477713" lon="-4.026377">
        <ele>745.038</ele>
        <time>2021-11-26T15:53:19Z</time>
      </trkpt>
      <trkpt lat="37.477710" lon="-4.026331">
        <ele>745.048</ele>
        <time>2021-11-26T15:53:59Z</time>
      </trkpt>
      <trkpt lat="37.477692" lon="-4.026297">
        <ele>744.096</ele>
        <time>2021-11-26T15:54:39Z</time>
      </trkpt>
      <trkpt lat="37.477655" lon="-4.026210">
        <ele>744.076</ele>
        <time>2021-11-26T15:55:19Z</time>
      </trkpt>
      <trkpt lat="37.477614" lon="-4.026119">
        <ele>744.073</ele>
        <time>2021-11-26T15:55:59Z</time>
      </trkpt>
      <trkpt lat="37.477566" lon="-4.026035">
        <ele>744.085</ele>
        <time>2021-11-26T15:56:39Z</time>
      </trkpt>
      <trkpt lat="37.477506" lon="-4.025920">
        <ele>745.013</ele>
        <time>2021-11-26T15:57:19Z</time>
      </trkpt>
      <trkpt lat="37.477505" lon="-4.025915">
        <ele>745.008</ele>
        <time>2021-11-26T15:57:59Z</time>
      </trkpt>
      <trkpt lat="37.477471" lon="-4.025818">
        <ele>745.065</ele>
        <time>2021-11-26T15:58:39Z</time>
      </trkpt>
      <trkpt lat="37.477428" lon="-4.025767">
        <ele>746.056</ele>
        <time>2021-11-26T15:59:19Z</time>
      </trkpt>
      <trkpt lat="37.477421" lon="-4.025760">
        <ele>746.073</ele>
        <time>2021-11-26T15:59:59Z</time>
      </trkpt>
      <trkpt lat="37.477386" lon="-4.025633">
        <ele>745.051</ele>
        <time>2021-11-26T16:00:39Z</time>
      </trkpt>
      <trkpt lat="37.477350" lon="-4.025514">
        <ele>746.034</ele>
        <time>2021-11-26T16:01:19Z</time>
      </trkpt>
      <trkpt lat="37.477317" lon="-4.025439">
        <ele>746.064</ele>
        <time>2021-11-26T16:01:59Z</time>
      </trkpt>
      <trkpt lat="37.477303" lon="-4.025356">
        <ele>746.022</ele>
        <time>2021-11-26T16:02:39Z</time>
      </trkpt>
      <trkpt lat="37.477275" lon="-4.025267">
        <ele>747.062</ele>
        <time>2021-11-26T16:03:19Z</time>
      </trkpt>
      <trkpt lat="37.477275" lon="-4.025169">
        <ele>747.084</ele>
        <time>2021-11-26T16:03:59Z</time>
      </trkpt>
      <trkpt lat="37.477280" lon="-4.025075">
        <ele>747.007</ele>
        <time>2021-11-26T16:04:39Z</time>
      </trkpt>
      <trkpt lat="37.477300" lon="-4.024955">
        <ele>748.017</ele>
        <time>2021-11-26T16:05:19Z</time>
      </trkpt>
      <trkpt lat="37.477304" lon="-4.024949">
        <ele>748.008</ele>
        <time>2021-11-26T16:05:59Z</time>
      </trkpt>
      <trkpt lat="37.477321" lon="-4.024848">
        <ele>748.016</ele>
        <time>2021-11-26T16:06:39Z</time>
      </trkpt>
      <trkpt lat="37.477352" lon="-4.024728">
        <ele>747.097</ele>
        <time>2021-11-26T16:07:19Z</time>
      </trkpt>
      <trkpt lat="37.477365" lon="-4.024617">
        <ele>747.044</ele>
        <time>2021-11-26T16:07:59Z</time>
      </trkpt>
      <trkpt lat="37.477361" lon="-4.024608">
        <ele>747.062</ele>
        <time>2021-11-26T16:08:39Z</time>
      </trkpt>
      <trkpt lat="37.477348" lon="-4.024481">
        <ele>747.065</ele>
        <time>2021-11-26T16:09:19Z</time>
      </trkpt>
      <trkpt lat="37.477335" lon="-4.024334">
        <ele>745.015</ele>
        <time>2021-11-26T16:09:59Z</time>
      </trkpt>
      <trkpt lat="37.477326" lon="-4.024323">
        <ele>746.033</ele>
        <time>2021-11-26T16:10:39Z</time>
      </trkpt>
      <trkpt lat="37.477302" lon="-4.024165">
        <ele>746.063</ele>
        <time>2021-11-26T16:11:19Z</time>
      </trkpt>
      <trkpt lat="37.477292" lon="-4.024003">
        <ele>745.025</ele>
        <time>2021-11-26T16:11:59Z</time>
      </trkpt>
      <trkpt lat="37.477284" lon="-4.023847">
        <ele>744.026</ele>
        <time>2021-11-26T16:12:39Z</time>
      </trkpt>
      <trkpt lat="37.477288" lon="-4.023684">
        <ele>743.008</ele>
        <time>2021-11-26T16:13:19Z</time>
      </trkpt>
      <trkpt lat="37.477302" lon="-4.023509">
        <ele>743.008</ele>
        <time>2021-11-26T16:13:59Z</time>
      </trkpt>
      <trkpt lat="37.477352" lon="-4.023358">
        <ele>743.090</ele>
        <time>2021-11-26T16:14:39Z</time>
      </trkpt>
      <trkpt lat="37.477381" lon="-4.023242">
        <ele>743.081</ele>
        <time>2021-11-26T16:15:19Z</time>
      </trkpt>
      <trkpt lat="37.477425" lon="-4.023104">
        <ele>743.088</ele>
        <time>2021-11-26T16:15:59Z</time>
      </trkpt>
      <trkpt lat="37.477535" lon="-4.022907">
        <ele>743.056</ele>
        <time>2021-11-26T16:16:39Z</time>
      </trkpt>
      <trkpt lat="37.477533" lon="-4.022878">
        <ele>743.069</ele>
        <time>2021-11-26T16:17:19Z</time>
      </trkpt>
      <trkpt lat="37.477601" lon="-4.022704">
        <ele>742.029</ele>
        <time>2021-11-26T16:17:59Z</time>
      </trkpt>
      <trkpt lat="37.477606" lon="-4.022693">
        <ele>742.037</ele>
        <time>2021-11-26T16:18:39Z</time>
      </trkpt>
      <trkpt lat="37.477703" lon="-4.022546">
        <ele>741.097</ele>
        <time>2021-11-26T16:19:19Z</time>
      </trkpt>
      <trkpt lat="37.477853" lon="-4.022453">
        <ele>745.012</ele>
        <time>2021-11-26T16:19:59Z</time>
      </trkpt>
      <trkpt lat="37.478080" lon="-4.022372">
        <ele>747.032</ele>
        <time>2021-11-26T16:20:39Z</time>
      </trkpt>
      <trkpt lat="37.478161" lon="-4.022366">
        <ele>748.005</ele>
        <time>2021-11-26T16:21:19Z</time>
      </trkpt>
      <trkpt lat="37.478303" lon="-4.022272">
        <ele>749.008</ele>
        <time>2021-11-26T16:21:59Z</time>
      </trkpt>
      <trkpt lat="37.478321" lon="-4.022260">
        <ele>749.099</ele>
        <time>2021-11-26T16:22:39Z</time>
      </trkpt>
      <trkpt lat="37.478478" lon="-4.022094">
        <ele>749.010</ele>
        <time>2021-11-26T16:23:19Z</time>
      </trkpt>
      <trkpt lat="37.478507" lon="-4.022068">
        <ele>749.077</ele>
        <time>2021-11-26T16:23:59Z</time>
      </trkpt>
      <trkpt lat="37.478669" lon="-4.021899">
        <ele>750.015</ele>
        <time>2021-11-26T16:24:39Z</time>
      </trkpt>
      <trkpt lat="37.478683" lon="-4.021885">
        <ele>750.088</ele>
        <time>2021-11-26T16:25:19Z</time>
      </trkpt>
      <trkpt lat="37.478907" lon="-4.021717">
        <ele>752.018</ele>
        <time>2021-11-26T16:25:59Z</time>
      </trkpt>
      <trkpt lat="37.479124" lon="-4.021533">
        <ele>754.026</ele>
        <time>2021-11-26T16:26:39Z</time>
      </trkpt>
      <trkpt lat="37.479224" lon="-4.021336">
        <ele>755.076</ele>
        <time>2021-11-26T16:27:19Z</time>
      </trkpt>
      <trkpt lat="37.479226" lon="-4.021254">
        <ele>755.036</ele>
        <time>2021-11-26T16:27:59Z</time>
      </trkpt>
      <trkpt lat="37.479255" lon="-4.021180">
        <ele>754.017</ele>
        <time>2021-11-26T16:28:39Z</time>
      </trkpt>
      <trkpt lat="37.479255" lon="-4.021023">
        <ele>755.018</ele>
        <time>2021-11-26T16:29:19Z</time>
      </trkpt>
      <trkpt lat="37.479272" lon="-4.021009">
        <ele>754.008</ele>
        <time>2021-11-26T16:29:59Z</time>
      </trkpt>
      <trkpt lat="37.479294" lon="-4.020947">
        <ele>755.051</ele>
        <time>2021-11-26T16:30:39Z</time>
      </trkpt>
      <trkpt lat="37.479385" lon="-4.020709">
        <ele>755.052</ele>
        <time>2021-11-26T16:31:19Z</time>
      </trkpt>
      <trkpt lat="37.479487" lon="-4.020564">
        <ele>755.069</ele>
        <time>2021-11-26T16:31:59Z</time>
      </trkpt>
      <trkpt lat="37.479559" lon="-4.020443">
        <ele>755.067</ele>
        <time>2021-11-26T16:32:39Z</time>
      </trkpt>
      <trkpt lat="37.479649" lon="-4.020348">
        <ele>755.060</ele>
        <time>2021-11-26T16:33:19Z</time>
      </trkpt>
      <trkpt lat="37.479673" lon="-4.020299">
        <ele>756.060</ele>
        <time>2021-11-26T16:33:59Z</time>
      </trkpt>
      <trkpt lat="37.479700" lon="-4.020267">
        <ele>756.088</ele>
        <time>2021-11-26T16:34:39Z</time>
      </trkpt>
      <trkpt lat="37.479793" lon="-4.020124">
        <ele>756.018</ele>
        <time>2021-11-26T16:35:19Z</time>
      </trkpt>
      <trkpt lat="37.479934" lon="-4.019953">
        <ele>757.047</ele>
        <time>2021-11-26T16:35:59Z</time>
      </trkpt>
      <trkpt lat="37.479933" lon="-4.019948">
        <ele>757.029</ele>
        <time>2021-11-26T16:36:39Z</time>
      </trkpt>
      <trkpt lat="37.480069" lon="-4.019772">
        <ele>758.021</ele>
        <time>2021-11-26T16:37:19Z</time>
      </trkpt>
      <trkpt lat="37.480161" lon="-4.019650">
        <ele>760.008</ele>
        <time>2021-11-26T16:37:59Z</time>
      </trkpt>
      <trkpt lat="37.480284" lon="-4.019422">
        <ele>760.042</ele>
        <time>2021-11-26T16:38:39Z</time>
      </trkpt>
      <trkpt lat="37.480359" lon="-4.019236">
        <ele>761.023</ele>
        <time>2021-11-26T16:39:19Z</time>
      </trkpt>
      <trkpt lat="37.480357" lon="-4.019037">
        <ele>763.060</ele>
        <time>2021-11-26T16:39:59Z</time>
      </trkpt>
      <trkpt lat="37.480403" lon="-4.018779">
        <ele>764.038</ele>
        <time>2021-11-26T16:40:39Z</time>
      </trkpt>
      <trkpt lat="37.480450" lon="-4.018680">
        <ele>764.011</ele>
        <time>2021-11-26T16:41:19Z</time>
      </trkpt>
      <trkpt lat="37.480520" lon="-4.018515">
        <ele>764.051</ele>
        <time>2021-11-26T16:41:59Z</time>
      </trkpt>
      <trkpt lat="37.480557" lon="-4.018448">
        <ele>764.019</ele>
        <time>2021-11-26T16:42:39Z</time>
      </trkpt>
      <trkpt lat="37.480697" lon="-4.018302">
        <ele>765.059</ele>
        <time>2021-11-26T16:43:19Z</time>
      </trkpt>
      <trkpt lat="37.480807" lon="-4.018182">
        <ele>765.023</ele>
        <time>2021-11-26T16:43:59Z</time>
      </trkpt>
      <trkpt lat="37.480967" lon="-4.018092">
        <ele>767.083</ele>
        <time>2021-11-26T16:44:39Z</time>
      </trkpt>
      <trkpt lat="37.481149" lon="-4.018096">
        <ele>768.011</ele>
        <time>2021-11-26T16:45:19Z</time>
      </trkpt>
      <trkpt lat="37.481190" lon="-4.018096">
        <ele>769.008</ele>
        <time>2021-11-26T16:45:59Z</time>
      </trkpt>
      <trkpt lat="37.481396" lon="-4.018105">
        <ele>771.060</ele>
        <time>2021-11-26T16:46:39Z</time>
      </trkpt>
      <trkpt lat="37.481415" lon="-4.018106">
        <ele>771.081</ele>
        <time>2021-11-26T16:47:19Z</time>
      </trkpt>
      <trkpt lat="37.481611" lon="-4.018081">
        <ele>772.058</ele>
        <time>2021-11-26T16:47:59Z</time>
      </trkpt>
      <trkpt lat="37.481780" lon="-4.017961">
        <ele>771.016</ele>
        <time>2021-11-26T16:48:39Z</time>
      </trkpt>
      <trkpt lat="37.481843" lon="-4.017875">
        <ele>772.059</ele>
        <time>2021-11-26T16:49:19Z</time>
      </trkpt>
      <trkpt lat="37.481983" lon="-4.017769">
        <ele>772.099</ele>
        <time>2021-11-26T16:49:59Z</time>
      </trkpt>
      <trkpt lat="37.482094" lon="-4.017619">
        <ele>773.017</ele>
        <time>2021-11-26T16:50:39Z</time>
      </trkpt>
      <trkpt lat="37.482221" lon="-4.017459">
        <ele>773.077</ele>
        <time>2021-11-26T16:51:19Z</time>
      </trkpt>
      <trkpt lat="37.482245" lon="-4.017285">
        <ele>772.016</ele>
        <time>2021-11-26T16:51:59Z</time>
      </trkpt>
      <trkpt lat="37.482279" lon="-4.017179">
        <ele>771.076</ele>
        <time>2021-11-26T16:52:39Z</time>
      </trkpt>
      <trkpt lat="37.482282" lon="-4.017041">
        <ele>770.013</ele>
        <time>2021-11-26T16:53:19Z</time>
      </trkpt>
      <trkpt lat="37.482299" lon="-4.016890">
        <ele>768.008</ele>
        <time>2021-11-26T16:53:59Z</time>
      </trkpt>
      <trkpt lat="37.482318" lon="-4.016736">
        <ele>767.089</ele>
        <time>2021-11-26T16:54:39Z</time>
      </trkpt>
      <trkpt lat="37.482336" lon="-4.016570">
        <ele>768.050</ele>
        <time>2021-11-26T16:55:19Z</time>
      </trkpt>
      <trkpt lat="37.482356" lon="-4.016350">
        <ele>768.097</ele>
        <time>2021-11-26T16:55:59Z</time>
      </trkpt>
      <trkpt lat="37.482401" lon="-4.016142">
        <ele>767.015</ele>
        <time>2021-11-26T16:56:39Z</time>
      </trkpt>
      <trkpt lat="37.482417" lon="-4.015939">
        <ele>766.098</ele>
        <time>2021-11-26T16:57:19Z</time>
      </trkpt>
      <trkpt lat="37.482426" lon="-4.015797">
        <ele>766.018</ele>
        <time>2021-11-26T16:57:59Z</time>
      </trkpt>
      <trkpt lat="37.482424" lon="-4.015741">
        <ele>766.026</ele>
        <time>2021-11-26T16:58:39Z</time>
      </trkpt>
      <trkpt lat="37.482449" lon="-4.015621">
        <ele>765.026</ele>
        <time>2021-11-26T16:59:19Z</time>
      </trkpt>
      <trkpt lat="37.482450" lon="-4.015466">
        <ele>765.093</ele>
        <time>2021-11-26T16:59:59Z</time>
      </trkpt>
      <trkpt lat="37.482450" lon="-4.015460">
        <ele>765.065</ele>
        <time>2021-11-26T17:00:39Z</time>
      </trkpt>
      <trkpt lat="37.482478" lon="-4.015344">
        <ele>763.021</ele>
        <time>2021-11-26T17:01:19Z</time>
      </trkpt>
      <trkpt lat="37.482497" lon="-4.015238">
        <ele>763.008</ele>
        <time>2021-11-26T17:01:59Z</time>
      </trkpt>
      <trkpt lat="37.482503" lon="-4.015088">
        <ele>763.097</ele>
        <time>2021-11-26T17:02:39Z</time>
      </trkpt>
      <trkpt lat="37.482537" lon="-4.014976">
        <ele>763.078</ele>
        <time>2021-11-26T17:03:19Z</time>
      </trkpt>
      <trkpt lat="37.482568" lon="-4.014865">
        <ele>761.085</ele>
        <time>2021-11-26T17:03:59Z</time>
      </trkpt>
      <trkpt lat="37.482577" lon="-4.014851">
        <ele>761.063</ele>
        <time>2021-11-26T17:04:39Z</time>
      </trkpt>
      <trkpt lat="37.482584" lon="-4.014839">
        <ele>761.026</ele>
        <time>2021-11-26T17:05:19Z</time>
      </trkpt>
      <trkpt lat="37.482610" lon="-4.014775">
        <ele>761.066</ele>
        <time>2021-11-26T17:05:59Z</time>
      </trkpt>
      <trkpt lat="37.482618" lon="-4.014764">
        <ele>761.044</ele>
        <time>2021-11-26T17:06:39Z</time>
      </trkpt>
      <trkpt lat="37.482690" lon="-4.014643">
        <ele>763.054</ele>
        <time>2021-11-26T17:07:19Z</time>
      </trkpt>
      <trkpt lat="37.482843" lon="-4.014418">
        <ele>765.061</ele>
        <time>2021-11-26T17:07:59Z</time>
      </trkpt>
      <trkpt lat="37.482954" lon="-4.014288">
        <ele>767.021</ele>
        <time>2021-11-26T17:08:39Z</time>
      </trkpt>
      <trkpt lat="37.483023" lon="-4.014216">
        <ele>768.013</ele>
        <time>2021-11-26T17:09:19Z</time>
      </trkpt>
      <trkpt lat="37.483135" lon="-4.014173">
        <ele>769.008</ele>
        <time>2021-11-26T17:09:59Z</time>
      </trkpt>
      <trkpt lat="37.483214" lon="-4.014189">
        <ele>769.064</ele>
        <time>2021-11-26T17:10:39Z</time>
      </trkpt>
      <trkpt lat="37.483341" lon="-4.014168">
        <ele>771.035</ele>
        <time>2021-11-26T17:11:19Z</time>
      </trkpt>
      <trkpt lat="37.483485" lon="-4.014139">
        <ele>773.082</ele>
        <time>2021-11-26T17:11:59Z</time>
      </trkpt>
      <trkpt lat="37.483575" lon="-4.014128">
        <ele>774.030</ele>
        <time>2021-11-26T17:12:39Z</time>
      </trkpt>
      <trkpt lat="37.483812" lon="-4.014034">
        <ele>777.013</ele>
        <time>2021-11-26T17:13:19Z</time>
      </trkpt>
      <trkpt lat="37.483992" lon="-4.013949">
        <ele>780.053</ele>
        <time>2021-11-26T17:13:59Z</time>
      </trkpt>
      <trkpt lat="37.484136" lon="-4.013861">
        <ele>783.051</ele>
        <time>2021-11-26T17:14:39Z</time>
      </trkpt>
      <trkpt lat="37.484296" lon="-4.013779">
        <ele>786.041</ele>
        <time>2021-11-26T17:15:19Z</time>
      </trkpt>
      <trkpt lat="37.484404" lon="-4.013727">
        <ele>789.096</ele>
        <time>2021-11-26T17:15:59Z</time>
      </trkpt>
      <trkpt lat="37.484535" lon="-4.013645">
        <ele>792.031</ele>
        <time>2021-11-26T17:16:39Z</time>
      </trkpt>
      <trkpt lat="37.484648" lon="-4.013575">
        <ele>794.024</ele>
        <time>2021-11-26T17:17:19Z</time>
      </trkpt>
      <trkpt lat="37.484807" lon="-4.013480">
        <ele>796.008</ele>
        <time>2021-11-26T17:17:59Z</time>
      </trkpt>
      <trkpt lat="37.484812" lon="-4.013475">
        <ele>796.077</ele>
        <time>2021-11-26T17:18:39Z</time>
      </trkpt>
      <trkpt lat="37.484824" lon="-4.013465">
        <ele>797.088</ele>
        <time>2021-11-26T17:19:19Z</time>
      </trkpt>
      <trkpt lat="37.484932" lon="-4.013391">
        <ele>796.085</ele>
        <time>2021-11-26T17:19:59Z</time>
      </trkpt>
      <trkpt lat="37.484950" lon="-4.013377">
        <ele>796.033</ele>
        <time>2021-11-26T17:20:39Z</time>
      </trkpt>
      <trkpt lat="37.485026" lon="-4.013300">
        <ele>796.076</ele>
        <time>2021-11-26T17:21:19Z</time>
      </trkpt>
      <trkpt lat="37.485034" lon="-4.013291">
        <ele>796.016</ele>
        <time>2021-11-26T17:21:59Z</time>
      </trkpt>
      <trkpt lat="37.485070" lon="-4.013202">
        <ele>795.054</ele>
        <time>2021-11-26T17:22:39Z</time>
      </trkpt>
      <trkpt lat="37.485132" lon="-4.013144">
        <ele>793.064</ele>
        <time>2021-11-26T17:23:19Z</time>
      </trkpt>
      <trkpt lat="37.485183" lon="-4.013085">
        <ele>791.023</ele>
        <time>2021-11-26T17:23:59Z</time>
      </trkpt>
      <trkpt lat="37.485198" lon="-4.013033">
        <ele>790.083</ele>
        <time>2021-11-26T17:24:39Z</time>
      </trkpt>
      <trkpt lat="37.485196" lon="-4.012980">
        <ele>791.011</ele>
        <time>2021-11-26T17:25:19Z</time>
      </trkpt>
      <trkpt lat="37.485202" lon="-4.012978">
        <ele>790.008</ele>
        <time>2021-11-26T17:25:59Z</time>
      </trkpt>
      <trkpt lat="37.485217" lon="-4.012939">
        <ele>789.020</ele>
        <time>2021-11-26T17:26:39Z</time>
      </trkpt>
      <trkpt lat="37.485219" lon="-4.012937">
        <ele>789.061</ele>
        <time>2021-11-26T17:27:19Z</time>
      </trkpt>
      <trkpt lat="37.485241" lon="-4.012886">
        <ele>789.028</ele>
        <time>2021-11-26T17:27:59Z</time>
      </trkpt>
      <trkpt lat="37.485244" lon="-4.012884">
        <ele>789.066</ele>
        <time>2021-11-26T17:28:39Z</time>
      </trkpt>
      <trkpt lat="37.485275" lon="-4.012837">
        <ele>788.099</ele>
        <time>2021-11-26T17:29:19Z</time>
      </trkpt>
      <trkpt lat="37.485284" lon="-4.012831">
        <ele>788.059</ele>
        <time>2021-11-26T17:29:59Z</time>
      </trkpt>
      <trkpt lat="37.485310" lon="-4.012768">
        <ele>786.057</ele>
        <time>2021-11-26T17:30:39Z</time>
      </trkpt>
      <trkpt lat="37.485310" lon="-4.012766">
        <ele>786.037</ele>
        <time>2021-11-26T17:31:19Z</time>
      </trkpt>
      <trkpt lat="37.485320" lon="-4.012705">
        <ele>786.032</ele>
        <time>2021-11-26T17:31:59Z</time>
      </trkpt>
      <trkpt lat="37.485332" lon="-4.012653">
        <ele>785.092</ele>
        <time>2021-11-26T17:32:39Z</time>
      </trkpt>
      <trkpt lat="37.485331" lon="-4.012601">
        <ele>785.011</ele>
        <time>2021-11-26T17:33:19Z</time>
      </trkpt>
      <trkpt lat="37.485327" lon="-4.012553">
        <ele>785.008</ele>
        <time>2021-11-26T17:33:59Z</time>
      </trkpt>
      <trkpt lat="37.485326" lon="-4.012550">
        <ele>785.041</ele>
        <time>2021-11-26T17:34:39Z</time>
      </trkpt>
      <trkpt lat="37.485326" lon="-4.012500">
        <ele>786.062</ele>
        <time>2021-11-26T17:35:19Z</time>
      </trkpt>
      <trkpt lat="37.485344" lon="-4.012443">
        <ele>787.089</ele>
        <time>2021-11-26T17:35:59Z</time>
      </trkpt>
      <trkpt lat="37.485372" lon="-4.012380">
        <ele>787.057</ele>
        <time>2021-11-26T17:36:39Z</time>
      </trkpt>
      <trkpt lat="37.485394" lon="-4.012333">
        <ele>786.060</ele>
        <time>2021-11-26T17:37:19Z</time>
      </trkpt>
      <trkpt lat="37.485403" lon="-4.012295">
        <ele>786.040</ele>
        <time>2021-11-26T17:37:59Z</time>
      </trkpt>
      <trkpt lat="37.485416" lon="-4.012241">
        <ele>786.048</ele>
        <time>2021-11-26T17:38:39Z</time>
      </trkpt>
      <trkpt lat="37.485463" lon="-4.012187">
        <ele>784.048</ele>
        <time>2021-11-26T17:39:19Z</time>
      </trkpt>
      <trkpt lat="37.485472" lon="-4.012178">
        <ele>783.085</ele>
        <time>2021-11-26T17:39:59Z</time>
      </trkpt>
      <trkpt lat="37.485500" lon="-4.012102">
        <ele>783.089</ele>
        <time>2021-11-26T17:40:39Z</time>
      </trkpt>
      <trkpt lat="37.485506" lon="-4.012094">
        <ele>783.017</ele>
        <time>2021-11-26T17:41:19Z</time>
      </trkpt>
      <trkpt lat="37.485511" lon="-4.012088">
        <ele>782.008</ele>
        <time>2021-11-26T17:41:59Z</time>
      </trkpt>
      <trkpt lat="37.485513" lon="-4.012083">
        <ele>782.086</ele>
        <time>2021-11-26T17:42:39Z</time>
      </trkpt>
      <trkpt lat="37.485543" lon="-4.012004">
        <ele>782.017</ele>
        <time>2021-11-26T17:43:19Z</time>
      </trkpt>
      <trkpt lat="37.485550" lon="-4.011931">
        <ele>781.084</ele>
        <time>2021-11-26T17:43:59Z</time>
      </trkpt>
      <trkpt lat="37.485597" lon="-4.011861">
        <ele>780.012</ele>
        <time>2021-11-26T17:44:39Z</time>
      </trkpt>
      <trkpt lat="37.485596" lon="-4.011832">
        <ele>780.025</ele>
        <time>2021-11-26T17:45:19Z</time>
      </trkpt>
      <trkpt lat="37.485594" lon="-4.011784">
        <ele>780.085</ele>
        <time>2021-11-26T17:45:59Z</time>
      </trkpt>
      <trkpt lat="37.485597" lon="-4.011777">
        <ele>780.063</ele>
        <time>2021-11-26T17:46:39Z</time>
      </trkpt>
      <trkpt lat="37.485585" lon="-4.011749">
        <ele>781.063</ele>
        <time>2021-11-26T17:47:19Z</time>
      </trkpt>
      <trkpt lat="37.485585" lon="-4.011705">
        <ele>781.065</ele>
        <time>2021-11-26T17:47:59Z</time>
      </trkpt>
      <trkpt lat="37.485585" lon="-4.011697">
        <ele>781.068</ele>
        <time>2021-11-26T17:48:39Z</time>
      </trkpt>
      <trkpt lat="37.485617" lon="-4.011638">
        <ele>779.014</ele>
        <time>2021-11-26T17:49:19Z</time>
      </trkpt>
      <trkpt lat="37.485617" lon="-4.011634">
        <ele>780.008</ele>
        <time>2021-11-26T17:49:59Z</time>
      </trkpt>
      <trkpt lat="37.485614" lon="-4.011598">
        <ele>780.024</ele>
        <time>2021-11-26T17:50:39Z</time>
      </trkpt>
      <trkpt lat="37.485584" lon="-4.011584">
        <ele>781.035</ele>
        <time>2021-11-26T17:51:19Z</time>
      </trkpt>
      <trkpt lat="37.485582" lon="-4.011581">
        <ele>781.072</ele>
        <time>2021-11-26T17:51:59Z</time>
      </trkpt>
      <trkpt lat="37.485582" lon="-4.011576">
        <ele>781.060</ele>
        <time>2021-11-26T17:52:39Z</time>
      </trkpt>
      <trkpt lat="37.485585" lon="-4.011539">
        <ele>782.013</ele>
        <time>2021-11-26T17:53:19Z</time>
      </trkpt>
      <trkpt lat="37.485615" lon="-4.011515">
        <ele>781.073</ele>
        <time>2021-11-26T17:53:59Z</time>
      </trkpt>
      <trkpt lat="37.485641" lon="-4.011464">
        <ele>779.091</ele>
        <time>2021-11-26T17:54:39Z</time>
      </trkpt>
      <trkpt lat="37.485654" lon="-4.011414">
        <ele>779.031</ele>
        <time>2021-11-26T17:55:19Z</time>
      </trkpt>
      <trkpt lat="37.485655" lon="-4.011380">
        <ele>779.096</ele>
        <time>2021-11-26T17:55:59Z</time>
      </trkpt>
      <trkpt lat="37.485660" lon="-4.011369">
        <ele>779.031</ele>
        <time>2021-11-26T17:56:39Z</time>
      </trkpt>
      <trkpt lat="37.485676" lon="-4.011312">
        <ele>778.024</ele>
        <time>2021-11-26T17:57:19Z</time>
      </trkpt>
      <trkpt lat="37.485677" lon="-4.011308">
        <ele>778.008</ele>
        <time>2021-11-26T17:57:59Z</time>
      </trkpt>
      <trkpt lat="37.485691" lon="-4.011259">
        <ele>778.067</ele>
        <time>2021-11-26T17:58:39Z</time>
      </trkpt>
      <trkpt lat="37.485702" lon="-4.011197">
        <ele>778.028</ele>
        <time>2021-11-26T17:59:19Z</time>
      </trkpt>
      <trkpt lat="37.485707" lon="-4.011154">
        <ele>778.015</ele>
        <time>2021-11-26T17:59:59Z</time>
      </trkpt>
      <trkpt lat="37.485723" lon="-4.011092">
        <ele>777.083</ele>
        <time>2021-11-26T18:00:39Z</time>
      </trkpt>
      <trkpt lat="37.485750" lon="-4.011039">
        <ele>776.036</ele>
        <time>2021-11-26T18:01:19Z</time>
      </trkpt>
      <trkpt lat="37.485762" lon="-4.010971">
        <ele>776.056</ele>
        <time>2021-11-26T18:01:59Z</time>
      </trkpt>
      <trkpt lat="37.485792" lon="-4.010896">
        <ele>776.094</ele>
        <time>2021-11-26T18:02:39Z</time>
      </trkpt>
      <trkpt lat="37.485816" lon="-4.010833">
        <ele>776.014</ele>
        <time>2021-11-26T18:03:19Z</time>
      </trkpt>
      <trkpt lat="37.485846" lon="-4.010756">
        <ele>777.059</ele>
        <time>2021-11-26T18:03:59Z</time>
      </trkpt>
      <trkpt lat="37.485865" lon="-4.010699">
        <ele>777.003</ele>
        <time>2021-11-26T18:04:39Z</time>
      </trkpt>
      <trkpt lat="37.485874" lon="-4.010641">
        <ele>777.023</ele>
        <time>2021-11-26T18:05:19Z</time>
      </trkpt>
      <trkpt lat="37.485890" lon="-4.010604">
        <ele>776.008</ele>
        <time>2021-11-26T18:05:59Z</time>
      </trkpt>
      <trkpt lat="37.485889" lon="-4.010534">
        <ele>777.023</ele>
        <time>2021-11-26T18:06:39Z</time>
      </trkpt>
      <trkpt lat="37.485901" lon="-4.010467">
        <ele>777.044</ele>
        <time>2021-11-26T18:07:19Z</time>
      </trkpt>
      <trkpt lat="37.485905" lon="-4.010375">
        <ele>778.081</ele>
        <time>2021-11-26T18:07:59Z</time>
      </trkpt>
      <trkpt lat="37.485905" lon="-4.010365">
        <ele>778.079</ele>
        <time>2021-11-26T18:08:39Z</time>
      </trkpt>
      <trkpt lat="37.485905" lon="-4.010263">
        <ele>779.092</ele>
        <time>2021-11-26T18:09:19Z</time>
      </trkpt>
      <trkpt lat="37.485910" lon="-4.010177">
        <ele>778.032</ele>
        <time>2021-11-26T18:09:59Z</time>
      </trkpt>
      <trkpt lat="37.485888" lon="-4.010100">
        <ele>779.090</ele>
        <time>2021-11-26T18:10:39Z</time>
      </trkpt>
      <trkpt lat="37.485874" lon="-4.010038">
        <ele>778.050</ele>
        <time>2021-11-26T18:11:19Z</time>
      </trkpt>
      <trkpt lat="37.485870" lon="-4.010035">
        <ele>778.037</ele>
        <time>2021-11-26T18:11:59Z</time>
      </trkpt>
      <trkpt lat="37.485825" lon="-4.009976">
        <ele>779.049</ele>
        <time>2021-11-26T18:12:39Z</time>
      </trkpt>
      <trkpt lat="37.485805" lon="-4.009932">
        <ele>778.013</ele>
        <time>2021-11-26T18:13:19Z</time>
      </trkpt>
      <trkpt lat="37.485751" lon="-4.009865">
        <ele>777.008</ele>
        <time>2021-11-26T18:13:59Z</time>
      </trkpt>
      <trkpt lat="37.485749" lon="-4.009860">
        <ele>777.031</ele>
        <time>2021-11-26T18:14:39Z</time>
      </trkpt>
      <trkpt lat="37.485721" lon="-4.009809">
        <ele>775.062</ele>
        <time>2021-11-26T18:15:19Z</time>
      </trkpt>
      <trkpt lat="37.485678" lon="-4.009766">
        <ele>775.019</ele>
        <time>2021-11-26T18:15:59Z</time>
      </trkpt>
      <trkpt lat="37.485677" lon="-4.009764">
        <ele>775.037</ele>
        <time>2021-11-26T18:16:39Z</time>
      </trkpt>
      <trkpt lat="37.485640" lon="-4.009726">
        <ele>777.040</ele>
        <time>2021-11-26T18:17:19Z</time>
      </trkpt>
      <trkpt lat="37.485638" lon="-4.009723">
        <ele>777.080</ele>
        <time>2021-11-26T18:17:59Z</time>
      </trkpt>
      <trkpt lat="37.485614" lon="-4.009679">
        <ele>776.048</ele>
        <time>2021-11-26T18:18:39Z</time>
      </trkpt>
      <trkpt lat="37.485581" lon="-4.009644">
        <ele>777.058</ele>
        <time>2021-11-26T18:19:19Z</time>
      </trkpt>
      <trkpt lat="37.485581" lon="-4.009642">
        <ele>777.062</ele>
        <time>2021-11-26T18:19:59Z</time>
      </trkpt>
      <trkpt lat="37.485581" lon="-4.009638">
        <ele>776.083</ele>
        <time>2021-11-26T18:20:39Z</time>
      </trkpt>
      <trkpt lat="37.485559" lon="-4.009590">
        <ele>775.011</ele>
        <time>2021-11-26T18:21:19Z</time>
      </trkpt>
      <trkpt lat="37.485544" lon="-4.009582">
        <ele>776.008</ele>
        <time>2021-11-26T18:21:59Z</time>
      </trkpt>
      <trkpt lat="37.485521" lon="-4.009539">
        <ele>776.094</ele>
        <time>2021-11-26T18:22:39Z</time>
      </trkpt>
      <trkpt lat="37.485500" lon="-4.009502">
        <ele>776.035</ele>
        <time>2021-11-26T18:23:19Z</time>
      </trkpt>
      <trkpt lat="37.485481" lon="-4.009472">
        <ele>775.052</ele>
        <time>2021-11-26T18:23:59Z</time>
      </trkpt>
      <trkpt lat="37.485479" lon="-4.009471">
        <ele>775.010</ele>
        <time>2021-11-26T18:24:39Z</time>
      </trkpt>
      <trkpt lat="37.485447" lon="-4.009427">
        <ele>774.063</ele>
        <time>2021-11-26T18:25:19Z</time>
      </trkpt>
      <trkpt lat="37.485447" lon="-4.009426">
        <ele>774.063</ele>
        <time>2021-11-26T18:25:59Z</time>
      </trkpt>
      <trkpt lat="37.485445" lon="-4.009424">
        <ele>774.091</ele>
        <time>2021-11-26T18:26:39Z</time>
      </trkpt>
      <trkpt lat="37.485425" lon="-4.009387">
        <ele>774.071</ele>
        <time>2021-11-26T18:27:19Z</time>
      </trkpt>
      <trkpt lat="37.485401" lon="-4.009354">
        <ele>776.019</ele>
        <time>2021-11-26T18:27:59Z</time>
      </trkpt>
      <trkpt lat="37.485372" lon="-4.009310">
        <ele>777.009</ele>
        <time>2021-11-26T18:28:39Z</time>
      </trkpt>
      <trkpt lat="37.485364" lon="-4.009292">
        <ele>776.019</ele>
        <time>2021-11-26T18:29:19Z</time>
      </trkpt>
      <trkpt lat="37.485358" lon="-4.009264">
        <ele>776.008</ele>
        <time>2021-11-26T18:29:59Z</time>
      </trkpt>
      <trkpt lat="37.485358" lon="-4.009263">
        <ele>776.019</ele>
        <time>2021-11-26T18:30:39Z</time>
      </trkpt>
      <trkpt lat="37.485360" lon="-4.009233">
        <ele>776.060</ele>
        <time>2021-11-26T18:31:19Z</time>
      </trkpt>
      <trkpt lat="37.485379" lon="-4.009199">
        <ele>777.047</ele>
        <time>2021-11-26T18:31:59Z</time>
      </trkpt>
      <trkpt lat="37.485407" lon="-4.009173">
        <ele>779.045</ele>
        <time>2021-11-26T18:32:39Z</time>
      </trkpt>
      <trkpt lat="37.485409" lon="-4.009172">
        <ele>780.038</ele>
        <time>2021-11-26T18:33:19Z</time>
      </trkpt>
      <trkpt lat="37.485436" lon="-4.009169">
        <ele>781.038</ele>
        <time>2021-11-26T18:33:59Z</time>
      </trkpt>
      <trkpt lat="37.485471" lon="-4.009176">
        <ele>781.016</ele>
        <time>2021-11-26T18:34:39Z</time>
      </trkpt>
      <trkpt lat="37.485502" lon="-4.009192">
        <ele>782.086</ele>
        <time>2021-11-26T18:35:19Z</time>
      </trkpt>
      <trkpt lat="37.485505" lon="-4.009192">
        <ele>782.016</ele>
        <time>2021-11-26T18:35:59Z</time>
      </trkpt>
      <trkpt lat="37.485580" lon="-4.009253">
        <ele>781.076</ele>
        <time>2021-11-26T18:36:39Z</time>
      </trkpt>
      <trkpt lat="37.485643" lon="-4.009307">
        <ele>781.013</ele>
        <time>2021-11-26T18:37:19Z</time>
      </trkpt>
      <trkpt lat="37.485645" lon="-4.009308">
        <ele>781.008</ele>
        <time>2021-11-26T18:37:59Z</time>
      </trkpt>
      <trkpt lat="37.485722" lon="-4.009375">
        <ele>782.089</ele>
        <time>2021-11-26T18:38:39Z</time>
      </trkpt>
      <trkpt lat="37.485804" lon="-4.009435">
        <ele>781.050</ele>
        <time>2021-11-26T18:39:19Z</time>
      </trkpt>
      <trkpt lat="37.485929" lon="-4.009463">
        <ele>781.087</ele>
        <time>2021-11-26T18:39:59Z</time>
      </trkpt>
      <trkpt lat="37.486032" lon="-4.009474">
        <ele>781.055</ele>
        <time>2021-11-26T18:40:39Z</time>
      </trkpt>
      <trkpt lat="37.486044" lon="-4.009474">
        <ele>781.018</ele>
        <time>2021-11-26T18:41:19Z</time>
      </trkpt>
      <trkpt lat="37.486233" lon="-4.009481">
        <ele>784.018</ele>
        <time>2021-11-26T18:41:59Z</time>
      </trkpt>
      <trkpt lat="37.486343" lon="-4.009472">
        <ele>783.076</ele>
        <time>2021-11-26T18:42:39Z</time>
      </trkpt>
      <trkpt lat="37.486451" lon="-4.009446">
        <ele>783.046</ele>
        <time>2021-11-26T18:43:19Z</time>
      </trkpt>
      <trkpt lat="37.486458" lon="-4.009438">
        <ele>783.085</ele>
        <time>2021-11-26T18:43:59Z</time>
      </trkpt>
      <trkpt lat="37.486492" lon="-4.009393">
        <ele>784.089</ele>
        <time>2021-11-26T18:44:39Z</time>
      </trkpt>
      <trkpt lat="37.486457" lon="-4.009337">
        <ele>785.017</ele>
        <time>2021-11-26T18:45:19Z</time>
      </trkpt>
      <trkpt lat="37.486391" lon="-4.009280">
        <ele>787.008</ele>
        <time>2021-11-26T18:45:59Z</time>
      </trkpt>
      <trkpt lat="37.486279" lon="-4.009246">
        <ele>788.096</ele>
        <time>2021-11-26T18:46:39Z</time>
      </trkpt>
      <trkpt lat="37.486212" lon="-4.009206">
        <ele>789.037</ele>
        <time>2021-11-26T18:47:19Z</time>
      </trkpt>
      <trkpt lat="37.486175" lon="-4.009149">
        <ele>791.034</ele>
        <time>2021-11-26T18:47:59Z</time>
      </trkpt>
      <trkpt lat="37.486172" lon="-4.009146">
        <ele>791.082</ele>
        <time>2021-11-26T18:48:39Z</time>
      </trkpt>
      <trkpt lat="37.486121" lon="-4.009090">
        <ele>790.025</ele>
        <time>2021-11-26T18:49:19Z</time>
      </trkpt>
      <trkpt lat="37.486080" lon="-4.009048">
        <ele>791.025</ele>
        <time>2021-11-26T18:49:59Z</time>
      </trkpt>
      <trkpt lat="37.486058" lon="-4.009010">
        <ele>793.013</ele>
        <time>2021-11-26T18:50:39Z</time>
      </trkpt>
      <trkpt lat="37.486056" lon="-4.009007">
        <ele>793.083</ele>
        <time>2021-11-26T18:51:19Z</time>
      </trkpt>
      <trkpt lat="37.486044" lon="-4.008954">
        <ele>794.041</ele>
        <time>2021-11-26T18:51:59Z</time>
      </trkpt>
      <trkpt lat="37.486064" lon="-4.008914">
        <ele>796.081</ele>
        <time>2021-11-26T18:52:39Z</time>
      </trkpt>
      <trkpt lat="37.486107" lon="-4.008873">
        <ele>796.009</ele>
        <time>2021-11-26T18:53:19Z</time>
      </trkpt>
      <trkpt lat="37.486158" lon="-4.008849">
        <ele>797.008</ele>
        <time>2021-11-26T18:53:59Z</time>
      </trkpt>
      <trkpt lat="37.486248" lon="-4.008842">
        <ele>797.062</ele>
        <time>2021-11-26T18:54:39Z</time>
      </trkpt>
      <trkpt lat="37.486319" lon="-4.008848">
        <ele>797.043</ele>
        <time>2021-11-26T18:55:19Z</time>
      </trkpt>
      <trkpt lat="37.486322" lon="-4.008848">
        <ele>797.080</ele>
        <time>2021-11-26T18:55:59Z</time>
      </trkpt>
      <trkpt lat="37.486327" lon="-4.008848">
        <ele>797.078</ele>
        <time>2021-11-26T18:56:39Z</time>
      </trkpt>
      <trkpt lat="37.486407" lon="-4.008835">
        <ele>796.021</ele>
        <time>2021-11-26T18:57:19Z</time>
      </trkpt>
      <trkpt lat="37.486482" lon="-4.008795">
        <ele>798.061</ele>
        <time>2021-11-26T18:57:59Z</time>
      </trkpt>
      <trkpt lat="37.486486" lon="-4.008792">
        <ele>798.069</ele>
        <time>2021-11-26T18:58:39Z</time>
      </trkpt>
      <trkpt lat="37.486538" lon="-4.008744">
        <ele>799.049</ele>
        <time>2021-11-26T18:59:19Z</time>
      </trkpt>
      <trkpt lat="37.486577" lon="-4.008733">
        <ele>799.084</ele>
        <time>2021-11-26T18:59:59Z</time>
      </trkpt>
      <trkpt lat="37.486612" lon="-4.008699">
        <ele>799.007</ele>
        <time>2021-11-26T19:00:39Z</time>
      </trkpt>
      <trkpt lat="37.486614" lon="-4.008699">
        <ele>799.017</ele>
        <time>2021-11-26T19:01:19Z</time>
      </trkpt>
      <trkpt lat="37.486615" lon="-4.008694">
        <ele>800.008</ele>
        <time>2021-11-26T19:01:59Z</time>
      </trkpt>
      <trkpt lat="37.486645" lon="-4.008651">
        <ele>799.036</ele>
        <time>2021-11-26T19:02:39Z</time>
      </trkpt>
      <trkpt lat="37.486648" lon="-4.008647">
        <ele>799.097</ele>
        <time>2021-11-26T19:03:19Z</time>
      </trkpt>
      <trkpt lat="37.486668" lon="-4.008598">
        <ele>800.084</ele>
        <time>2021-11-26T19:03:59Z</time>
      </trkpt>
      <trkpt lat="37.486673" lon="-4.008594">
        <ele>800.042</ele>
        <time>2021-11-26T19:04:39Z</time>
      </trkpt>
      <trkpt lat="37.486715" lon="-4.008547">
        <ele>801.015</ele>
        <time>2021-11-26T19:05:19Z</time>
      </trkpt>
      <trkpt lat="37.486715" lon="-4.008546">
        <ele>801.025</ele>
        <time>2021-11-26T19:05:59Z</time>
      </trkpt>
      <trkpt lat="37.486758" lon="-4.008482">
        <ele>801.063</ele>
        <time>2021-11-26T19:06:39Z</time>
      </trkpt>
      <trkpt lat="37.486762" lon="-4.008479">
        <ele>801.063</ele>
        <time>2021-11-26T19:07:19Z</time>
      </trkpt>
      <trkpt lat="37.486769" lon="-4.008474">
        <ele>801.086</ele>
        <time>2021-11-26T19:07:59Z</time>
      </trkpt>
      <trkpt lat="37.486806" lon="-4.008413">
        <ele>803.060</ele>
        <time>2021-11-26T19:08:39Z</time>
      </trkpt>
      <trkpt lat="37.486804" lon="-4.008411">
        <ele>803.026</ele>
        <time>2021-11-26T19:09:19Z</time>
      </trkpt>
      <trkpt lat="37.486836" lon="-4.008385">
        <ele>803.008</ele>
        <time>2021-11-26T19:09:59Z</time>
      </trkpt>
      <trkpt lat="37.486870" lon="-4.008339">
        <ele>802.096</ele>
        <time>2021-11-26T19:10:39Z</time>
      </trkpt>
      <trkpt lat="37.486929" lon="-4.008284">
        <ele>801.067</ele>
        <time>2021-11-26T19:11:19Z</time>
      </trkpt>
      <trkpt lat="37.487012" lon="-4.008228">
        <ele>801.034</ele>
        <time>2021-11-26T19:11:59Z</time>
      </trkpt>
      <trkpt lat="37.487057" lon="-4.008179">
        <ele>803.052</ele>
        <time>2021-11-26T19:12:39Z</time>
      </trkpt>
      <trkpt lat="37.487139" lon="-4.008124">
        <ele>804.015</ele>
        <time>2021-11-26T19:13:19Z</time>
      </trkpt>
      <trkpt lat="37.487213" lon="-4.008059">
        <ele>805.065</ele>
        <time>2021-11-26T19:13:59Z</time>
      </trkpt>
      <trkpt lat="37.487304" lon="-4.007981">
        <ele>805.063</ele>
        <time>2021-11-26T19:14:39Z</time>
      </trkpt>
      <trkpt lat="37.487437" lon="-4.007880">
        <ele>807.093</ele>
        <time>2021-11-26T19:15:19Z</time>
      </trkpt>
      <trkpt lat="37.487532" lon="-4.007770">
        <ele>808.078</ele>
        <time>2021-11-26T19:15:59Z</time>
      </trkpt>
      <trkpt lat="37.487593" lon="-4.007680">
        <ele>809.033</ele>
        <time>2021-11-26T19:16:39Z</time>
      </trkpt>
      <trkpt lat="37.487619" lon="-4.007592">
        <ele>811.026</ele>
        <time>2021-11-26T19:17:19Z</time>
      </trkpt>
      <trkpt lat="37.487647" lon="-4.007512">
        <ele>812.008</ele>
        <time>2021-11-26T19:17:59Z</time>
      </trkpt>
      <trkpt lat="37.487657" lon="-4.007428">
        <ele>814.065</ele>
        <time>2021-11-26T19:18:39Z</time>
      </trkpt>
      <trkpt lat="37.487679" lon="-4.007375">
        <ele>814.056</ele>
        <time>2021-11-26T19:19:19Z</time>
      </trkpt>
      <trkpt lat="37.487676" lon="-4.007298">
        <ele>815.093</ele>
        <time>2021-11-26T19:19:59Z</time>
      </trkpt>
      <trkpt lat="37.487679" lon="-4.007233">
        <ele>815.011</ele>
        <time>2021-11-26T19:20:39Z</time>
      </trkpt>
      <trkpt lat="37.487680" lon="-4.007227">
        <ele>815.084</ele>
        <time>2021-11-26T19:21:19Z</time>
      </trkpt>
      <trkpt lat="37.487685" lon="-4.007141">
        <ele>816.044</ele>
        <time>2021-11-26T19:21:59Z</time>
      </trkpt>
      <trkpt lat="37.487704" lon="-4.007038">
        <ele>816.062</ele>
        <time>2021-11-26T19:22:39Z</time>
      </trkpt>
      <trkpt lat="37.487711" lon="-4.006936">
        <ele>816.012</ele>
        <time>2021-11-26T19:23:19Z</time>
      </trkpt>
      <trkpt lat="37.487704" lon="-4.006860">
        <ele>814.015</ele>
        <time>2021-11-26T19:23:59Z</time>
      </trkpt>
      <trkpt lat="37.487690" lon="-4.006783">
        <ele>812.065</ele>
        <time>2021-11-26T19:24:39Z</time>
      </trkpt>
      <trkpt lat="37.487644" lon="-4.006703">
        <ele>813.011</ele>
        <time>2021-11-26T19:25:19Z</time>
      </trkpt>
      <trkpt lat="37.487612" lon="-4.006615">
        <ele>814.008</ele>
        <time>2021-11-26T19:25:59Z</time>
      </trkpt>
      <trkpt lat="37.487612" lon="-4.006609">
        <ele>814.039</ele>
        <time>2021-11-26T19:26:39Z</time>
      </trkpt>
      <trkpt lat="37.487603" lon="-4.006568">
        <ele>815.090</ele>
        <time>2021-11-26T19:27:19Z</time>
      </trkpt>
      <trkpt lat="37.487595" lon="-4.006561">
        <ele>815.087</ele>
        <time>2021-11-26T19:27:59Z</time>
      </trkpt>
      <trkpt lat="37.487596" lon="-4.006560">
        <ele>815.015</ele>
        <time>2021-11-26T19:28:39Z</time>
      </trkpt>
      <trkpt lat="37.487590" lon="-4.006509">
        <ele>815.088</ele>
        <time>2021-11-26T19:29:19Z</time>
      </trkpt>
      <trkpt lat="37.487591" lon="-4.006506">
        <ele>815.078</ele>
        <time>2021-11-26T19:29:59Z</time>
      </trkpt>
      <trkpt lat="37.487591" lon="-4.006504">
        <ele>815.036</ele>
        <time>2021-11-26T19:30:39Z</time>
      </trkpt>
      <trkpt lat="37.487598" lon="-4.006449">
        <ele>815.046</ele>
        <time>2021-11-26T19:31:19Z</time>
      </trkpt>
      <trkpt lat="37.487579" lon="-4.006387">
        <ele>815.055</ele>
        <time>2021-11-26T19:31:59Z</time>
      </trkpt>
      <trkpt lat="37.487573" lon="-4.006330">
        <ele>816.007</ele>
        <time>2021-11-26T19:32:39Z</time>
      </trkpt>
      <trkpt lat="37.487573" lon="-4.006329">
        <ele>816.017</ele>
        <time>2021-11-26T19:33:19Z</time>
      </trkpt>
      <trkpt lat="37.487577" lon="-4.006267">
        <ele>815.008</ele>
        <time>2021-11-26T19:33:59Z</time>
      </trkpt>
      <trkpt lat="37.487578" lon="-4.006221">
        <ele>815.043</ele>
        <time>2021-11-26T19:34:39Z</time>
      </trkpt>
      <trkpt lat="37.487580" lon="-4.006168">
        <ele>815.054</ele>
        <time>2021-11-26T19:35:19Z</time>
      </trkpt>
      <trkpt lat="37.487594" lon="-4.006091">
        <ele>815.051</ele>
        <time>2021-11-26T19:35:59Z</time>
      </trkpt>
      <trkpt lat="37.487584" lon="-4.006015">
        <ele>815.069</ele>
        <time>2021-11-26T19:36:39Z</time>
      </trkpt>
      <trkpt lat="37.487600" lon="-4.005946">
        <ele>815.092</ele>
        <time>2021-11-26T19:37:19Z</time>
      </trkpt>
      <trkpt lat="37.487604" lon="-4.005945">
        <ele>815.092</ele>
        <time>2021-11-26T19:37:59Z</time>
      </trkpt>
      <trkpt lat="37.487618" lon="-4.005884">
        <ele>815.030</ele>
        <time>2021-11-26T19:38:39Z</time>
      </trkpt>
      <trkpt lat="37.487621" lon="-4.005878">
        <ele>815.080</ele>
        <time>2021-11-26T19:39:19Z</time>
      </trkpt>
      <trkpt lat="37.487620" lon="-4.005809">
        <ele>815.051</ele>
        <time>2021-11-26T19:39:59Z</time>
      </trkpt>
      <trkpt lat="37.487622" lon="-4.005802">
        <ele>815.001</ele>
        <time>2021-11-26T19:40:39Z</time>
      </trkpt>
      <trkpt lat="37.487633" lon="-4.005731">
        <ele>815.011</ele>
        <time>2021-11-26T19:41:19Z</time>
      </trkpt>
      <trkpt lat="37.487631" lon="-4.005725">
        <ele>815.008</ele>
        <time>2021-11-26T19:41:59Z</time>
      </trkpt>
      <trkpt lat="37.487675" lon="-4.005644">
        <ele>815.053</ele>
        <time>2021-11-26T19:42:39Z</time>
      </trkpt>
      <trkpt lat="37.487677" lon="-4.005641">
        <ele>815.014</ele>
        <time>2021-11-26T19:43:19Z</time>
      </trkpt>
      <trkpt lat="37.487684" lon="-4.005567">
        <ele>815.071</ele>
        <time>2021-11-26T19:43:59Z</time>
      </trkpt>
      <trkpt lat="37.487684" lon="-4.005464">
        <ele>816.029</ele>
        <time>2021-11-26T19:44:39Z</time>
      </trkpt>
      <trkpt lat="37.487693" lon="-4.005401">
        <ele>815.082</ele>
        <time>2021-11-26T19:45:19Z</time>
      </trkpt>
      <trkpt lat="37.487690" lon="-4.005318">
        <ele>816.092</ele>
        <time>2021-11-26T19:45:59Z</time>
      </trkpt>
      <trkpt lat="37.487664" lon="-4.005255">
        <ele>816.070</ele>
        <time>2021-11-26T19:46:39Z</time>
      </trkpt>
      <trkpt lat="37.487640" lon="-4.005186">
        <ele>815.060</ele>
        <time>2021-11-26T19:47:19Z</time>
      </trkpt>
      <trkpt lat="37.487628" lon="-4.005177">
        <ele>816.032</ele>
        <time>2021-11-26T19:47:59Z</time>
      </trkpt>
      <trkpt lat="37.487616" lon="-4.005121">
        <ele>815.092</ele>
        <time>2021-11-26T19:48:39Z</time>
      </trkpt>
      <trkpt lat="37.487578" lon="-4.005067">
        <ele>816.011</ele>
        <time>2021-11-26T19:49:19Z</time>
      </trkpt>
      <trkpt lat="37.487558" lon="-4.005022">
        <ele>815.008</ele>
        <time>2021-11-26T19:49:59Z</time>
      </trkpt>
      <trkpt lat="37.487559" lon="-4.005020">
        <ele>815.081</ele>
        <time>2021-11-26T19:50:39Z</time>
      </trkpt>
      <trkpt lat="37.487543" lon="-4.004978">
        <ele>815.072</ele>
        <time>2021-11-26T19:51:19Z</time>
      </trkpt>
      <trkpt lat="37.487490" lon="-4.004916">
        <ele>816.029</ele>
        <time>2021-11-26T19:51:59Z</time>
      </trkpt>
      <trkpt lat="37.487445" lon="-4.004850">
        <ele>815.067</ele>
        <time>2021-11-26T19:52:39Z</time>
      </trkpt>
      <trkpt lat="37.487426" lon="-4.004809">
        <ele>815.040</ele>
        <time>2021-11-26T19:53:19Z</time>
      </trkpt>
      <trkpt lat="37.487427" lon="-4.004805">
        <ele>815.030</ele>
        <time>2021-11-26T19:53:59Z</time>
      </trkpt>
      <trkpt lat="37.487406" lon="-4.004774">
        <ele>815.078</ele>
        <time>2021-11-26T19:54:39Z</time>
      </trkpt>
      <trkpt lat="37.487409" lon="-4.004770">
        <ele>814.038</ele>
        <time>2021-11-26T19:55:19Z</time>
      </trkpt>
      <trkpt lat="37.487402" lon="-4.004730">
        <ele>815.025</ele>
        <time>2021-11-26T19:55:59Z</time>
      </trkpt>
      <trkpt lat="37.487399" lon="-4.004729">
        <ele>815.026</ele>
        <time>2021-11-26T19:56:39Z</time>
      </trkpt>
      <trkpt lat="37.487389" lon="-4.004699">
        <ele>816.008</ele>
        <time>2021-11-26T19:57:19Z</time>
      </trkpt>
      <trkpt lat="37.487395" lon="-4.004667">
        <ele>817.008</ele>
        <time>2021-11-26T19:57:59Z</time>
      </trkpt>
      <trkpt lat="37.487401" lon="-4.004642">
        <ele>817.080</ele>
        <time>2021-11-26T19:58:39Z</time>
      </trkpt>
      <trkpt lat="37.487400" lon="-4.004641">
        <ele>817.051</ele>
        <time>2021-11-26T19:59:19Z</time>
      </trkpt>
      <trkpt lat="37.487420" lon="-4.004619">
        <ele>818.088</ele>
        <time>2021-11-26T19:59:59Z</time>
      </trkpt>
      <trkpt lat="37.487475" lon="-4.004607">
        <ele>818.026</ele>
        <time>2021-11-26T20:00:39Z</time>
      </trkpt>
      <trkpt lat="37.487479" lon="-4.004607">
        <ele>818.019</ele>
        <time>2021-11-26T20:01:19Z</time>
      </trkpt>
      <trkpt lat="37.487553" lon="-4.004609">
        <ele>817.079</ele>
        <time>2021-11-26T20:01:59Z</time>
      </trkpt>
      <trkpt lat="37.487556" lon="-4.004609">
        <ele>817.037</ele>
        <time>2021-11-26T20:02:39Z</time>
      </trkpt>
      <trkpt lat="37.487625" lon="-4.004615">
        <ele>817.047</ele>
        <time>2021-11-26T20:03:19Z</time>
      </trkpt>
      <trkpt lat="37.487720" lon="-4.004606">
        <ele>817.073</ele>
        <time>2021-11-26T20:03:59Z</time>
      </trkpt>
      <trkpt lat="37.487810" lon="-4.004597">
        <ele>817.085</ele>
        <time>2021-11-26T20:04:39Z</time>
      </trkpt>
      <trkpt lat="37.487819" lon="-4.004595">
        <ele>817.013</ele>
        <time>2021-11-26T20:05:19Z</time>
      </trkpt>
      <trkpt lat="37.487951" lon="-4.004551">
        <ele>817.008</ele>
        <time>2021-11-26T20:05:59Z</time>
      </trkpt>
      <trkpt lat="37.488164" lon="-4.004487">
        <ele>818.025</ele>
        <time>2021-11-26T20:06:39Z</time>
      </trkpt>
      <trkpt lat="37.488318" lon="-4.004413">
        <ele>818.076</ele>
        <time>2021-11-26T20:07:19Z</time>
      </trkpt>
      <trkpt lat="37.488556" lon="-4.004214">
        <ele>819.023</ele>
        <time>2021-11-26T20:07:59Z</time>
      </trkpt>
      <trkpt lat="37.488618" lon="-4.004144">
        <ele>819.061</ele>
        <time>2021-11-26T20:08:39Z</time>
      </trkpt>
      <trkpt lat="37.488684" lon="-4.004052">
        <ele>820.034</ele>
        <time>2021-11-26T20:09:19Z</time>
      </trkpt>
      <trkpt lat="37.488810" lon="-4.003888">
        <ele>823.034</ele>
        <time>2021-11-26T20:09:59Z</time>
      </trkpt>
      <trkpt lat="37.488860" lon="-4.003766">
        <ele>824.032</ele>
        <time>2021-11-26T20:10:39Z</time>
      </trkpt>
      <trkpt lat="37.488929" lon="-4.003637">
        <ele>826.042</ele>
        <time>2021-11-26T20:11:19Z</time>
      </trkpt>
      <trkpt lat="37.488974" lon="-4.003475">
        <ele>829.062</ele>
        <time>2021-11-26T20:11:59Z</time>
      </trkpt>
      <trkpt lat="37.489015" lon="-4.003332">
        <ele>831.083</ele>
        <time>2021-11-26T20:12:39Z</time>
      </trkpt>
      <trkpt lat="37.489063" lon="-4.003207">
        <ele>833.011</ele>
        <time>2021-11-26T20:13:19Z</time>
      </trkpt>
      <trkpt lat="37.489093" lon="-4.003095">
        <ele>833.008</ele>
        <time>2021-11-26T20:13:59Z</time>
      </trkpt>
      <trkpt lat="37.489117" lon="-4.002961">
        <ele>832.084</ele>
        <time>2021-11-26T20:14:39Z</time>
      </trkpt>
      <trkpt lat="37.489127" lon="-4.002778">
        <ele>831.095</ele>
        <time>2021-11-26T20:15:19Z</time>
      </trkpt>
      <trkpt lat="37.489139" lon="-4.002580">
        <ele>831.062</ele>
        <time>2021-11-26T20:15:59Z</time>
      </trkpt>
      <trkpt lat="37.489170" lon="-4.002409">
        <ele>832.040</ele>
        <time>2021-11-26T20:16:39Z</time>
      </trkpt>
      <trkpt lat="37.489249" lon="-4.002238">
        <ele>831.093</ele>
        <time>2021-11-26T20:17:19Z</time>
      </trkpt>
      <trkpt lat="37.489252" lon="-4.002094">
        <ele>832.073</ele>
        <time>2021-11-26T20:17:59Z</time>
      </trkpt>
      <trkpt lat="37.489275" lon="-4.001960">
        <ele>830.041</ele>
        <time>2021-11-26T20:18:39Z</time>
      </trkpt>
      <trkpt lat="37.489264" lon="-4.001781">
        <ele>831.091</ele>
        <time>2021-11-26T20:19:19Z</time>
      </trkpt>
      <trkpt lat="37.489262" lon="-4.001670">
        <ele>831.094</ele>
        <time>2021-11-26T20:19:59Z</time>
      </trkpt>
      <trkpt lat="37.489288" lon="-4.001556">
        <ele>829.057</ele>
        <time>2021-11-26T20:20:39Z</time>
      </trkpt>
      <trkpt lat="37.489338" lon="-4.001438">
        <ele>826.022</ele>
        <time>2021-11-26T20:21:19Z</time>
      </trkpt>
      <trkpt lat="37.489370" lon="-4.001341">
        <ele>826.008</ele>
        <time>2021-11-26T20:21:59Z</time>
      </trkpt>
      <trkpt lat="37.489399" lon="-4.001244">
        <ele>826.087</ele>
        <time>2021-11-26T20:22:39Z</time>
      </trkpt>
      <trkpt lat="37.489402" lon="-4.001235">
        <ele>826.068</ele>
        <time>2021-11-26T20:23:19Z</time>
      </trkpt>
      <trkpt lat="37.489438" lon="-4.001114">
        <ele>827.045</ele>
        <time>2021-11-26T20:23:59Z</time>
      </trkpt>
      <trkpt lat="37.489443" lon="-4.001101">
        <ele>828.083</ele>
        <time>2021-11-26T20:24:39Z</time>
      </trkpt>
      <trkpt lat="37.489481" lon="-4.000978">
        <ele>828.096</ele>
        <time>2021-11-26T20:25:19Z</time>
      </trkpt>
      <trkpt lat="37.489484" lon="-4.000972">
        <ele>828.036</ele>
        <time>2021-11-26T20:25:59Z</time>
      </trkpt>
      <trkpt lat="37.489518" lon="-4.000853">
        <ele>830.024</ele>
        <time>2021-11-26T20:26:39Z</time>
      </trkpt>
      <trkpt lat="37.489542" lon="-4.000793">
        <ele>830.084</ele>
        <time>2021-11-26T20:27:19Z</time>
      </trkpt>
      <trkpt lat="37.489680" lon="-4.000673">
        <ele>831.087</ele>
        <time>2021-11-26T20:27:59Z</time>
      </trkpt>
      <trkpt lat="37.489781" lon="-4.000571">
        <ele>831.042</ele>
        <time>2021-11-26T20:28:39Z</time>
      </trkpt>
      <trkpt lat="37.489822" lon="-4.000442">
        <ele>834.026</ele>
        <time>2021-11-26T20:29:19Z</time>
      </trkpt>
      <trkpt lat="37.489846" lon="-4.000336">
        <ele>834.008</ele>
        <time>2021-11-26T20:29:59Z</time>
      </trkpt>
      <trkpt lat="37.489853" lon="-4.000322">
        <ele>834.036</ele>
        <time>2021-11-26T20:30:39Z</time>
      </trkpt>
      <trkpt lat="37.489890" lon="-4.000205">
        <ele>835.097</ele>
        <time>2021-11-26T20:31:19Z</time>
      </trkpt>
      <trkpt lat="37.489926" lon="-4.000122">
        <ele>836.034</ele>
        <time>2021-11-26T20:31:59Z</time>
      </trkpt>
      <trkpt lat="37.489984" lon="-4.000013">
        <ele>837.022</ele>
        <time>2021-11-26T20:32:39Z</time>
      </trkpt>
      <trkpt lat="37.490020" lon="-3.999890">
        <ele>838.025</ele>
        <time>2021-11-26T20:33:19Z</time>
      </trkpt>
      <trkpt lat="37.490067" lon="-3.999765">
        <ele>840.095</ele>
        <time>2021-11-26T20:33:59Z</time>
      </trkpt>
      <trkpt lat="37.490070" lon="-3.999754">
        <ele>839.023</ele>
        <time>2021-11-26T20:34:39Z</time>
      </trkpt>
      <trkpt lat="37.490104" lon="-3.999637">
        <ele>839.023</ele>
        <time>2021-11-26T20:35:19Z</time>
      </trkpt>
      <trkpt lat="37.490110" lon="-3.999620">
        <ele>839.083</ele>
        <time>2021-11-26T20:35:59Z</time>
      </trkpt>
      <trkpt lat="37.490137" lon="-3.999527">
        <ele>839.025</ele>
        <time>2021-11-26T20:36:39Z</time>
      </trkpt>
      <trkpt lat="37.490155" lon="-3.999507">
        <ele>838.017</ele>
        <time>2021-11-26T20:37:19Z</time>
      </trkpt>
      <trkpt lat="37.490197" lon="-3.999389">
        <ele>838.008</ele>
        <time>2021-11-26T20:37:59Z</time>
      </trkpt>
      <trkpt lat="37.490234" lon="-3.999278">
        <ele>838.096</ele>
        <time>2021-11-26T20:38:39Z</time>
      </trkpt>
      <trkpt lat="37.490279" lon="-3.999187">
        <ele>838.047</ele>
        <time>2021-11-26T20:39:19Z</time>
      </trkpt>
      <trkpt lat="37.490357" lon="-3.999079">
        <ele>837.024</ele>
        <time>2021-11-26T20:39:59Z</time>
      </trkpt>
      <trkpt lat="37.490422" lon="-3.999005">
        <ele>838.062</ele>
        <time>2021-11-26T20:40:39Z</time>
      </trkpt>
      <trkpt lat="37.490608" lon="-3.998950">
        <ele>838.045</ele>
        <time>2021-11-26T20:41:19Z</time>
      </trkpt>
      <trkpt lat="37.490715" lon="-3.998864">
        <ele>838.035</ele>
        <time>2021-11-26T20:41:59Z</time>
      </trkpt>
      <trkpt lat="37.490820" lon="-3.998749">
        <ele>837.093</ele>
        <time>2021-11-26T20:42:39Z</time>
      </trkpt>
      <trkpt lat="37.490874" lon="-3.998780">
        <ele>836.033</ele>
        <time>2021-11-26T20:43:19Z</time>
      </trkpt>
      <trkpt lat="37.490902" lon="-3.998871">
        <ele>834.051</ele>
        <time>2021-11-26T20:43:59Z</time>
      </trkpt>
      <trkpt lat="37.490906" lon="-3.998886">
        <ele>834.001</ele>
        <time>2021-11-26T20:44:39Z</time>
      </trkpt>
      <trkpt lat="37.490971" lon="-3.999026">
        <ele>832.011</ele>
        <time>2021-11-26T20:45:19Z</time>
      </trkpt>
      <trkpt lat="37.490969" lon="-3.999059">
        <ele>832.008</ele>
        <time>2021-11-26T20:45:59Z</time>
      </trkpt>
      <trkpt lat="37.491037" lon="-3.999211">
        <ele>828.033</ele>
        <time>2021-11-26T20:46:39Z</time>
      </trkpt>
      <trkpt lat="37.491080" lon="-3.999342">
        <ele>825.014</ele>
        <time>2021-11-26T20:47:19Z</time>
      </trkpt>
      <trkpt lat="37.491080" lon="-3.999347">
        <ele>825.081</ele>
        <time>2021-11-26T20:47:59Z</time>
      </trkpt>
      <trkpt lat="37.491151" lon="-3.999471">
        <ele>822.079</ele>
        <time>2021-11-26T20:48:39Z</time>
      </trkpt>
      <trkpt lat="37.491152" lon="-3.999474">
        <ele>822.032</ele>
        <time>2021-11-26T20:49:19Z</time>
      </trkpt>
      <trkpt lat="37.491200" lon="-3.999597">
        <ele>820.082</ele>
        <time>2021-11-26T20:49:59Z</time>
      </trkpt>
      <trkpt lat="37.491201" lon="-3.999600">
        <ele>820.050</ele>
        <time>2021-11-26T20:50:39Z</time>
      </trkpt>
      <trkpt lat="37.491314" lon="-3.999743">
        <ele>816.030</ele>
        <time>2021-11-26T20:51:19Z</time>
      </trkpt>
      <trkpt lat="37.491409" lon="-3.999865">
        <ele>812.099</ele>
        <time>2021-11-26T20:51:59Z</time>
      </trkpt>
      <trkpt lat="37.491417" lon="-3.999875">
        <ele>812.007</ele>
        <time>2021-11-26T20:52:39Z</time>
      </trkpt>
      <trkpt lat="37.491475" lon="-4.000001">
        <ele>810.027</ele>
        <time>2021-11-26T20:53:19Z</time>
      </trkpt>
      <trkpt lat="37.491485" lon="-4.000012">
        <ele>810.008</ele>
        <time>2021-11-26T20:53:59Z</time>
      </trkpt>
      <trkpt lat="37.491532" lon="-4.000195">
        <ele>808.037</ele>
        <time>2021-11-26T20:54:39Z</time>
      </trkpt>
      <trkpt lat="37.491566" lon="-4.000408">
        <ele>805.048</ele>
        <time>2021-11-26T20:55:19Z</time>
      </trkpt>
      <trkpt lat="37.491570" lon="-4.000578">
        <ele>804.095</ele>
        <time>2021-11-26T20:55:59Z</time>
      </trkpt>
      <trkpt lat="37.491570" lon="-4.000581">
        <ele>804.093</ele>
        <time>2021-11-26T20:56:39Z</time>
      </trkpt>
      <trkpt lat="37.491571" lon="-4.000599">
        <ele>803.036</ele>
        <time>2021-11-26T20:57:19Z</time>
      </trkpt>
      <trkpt lat="37.491611" lon="-4.000817">
        <ele>801.036</ele>
        <time>2021-11-26T20:57:59Z</time>
      </trkpt>
      <trkpt lat="37.491614" lon="-4.000831">
        <ele>801.084</ele>
        <time>2021-11-26T20:58:39Z</time>
      </trkpt>
      <trkpt lat="37.491632" lon="-4.001003">
        <ele>799.084</ele>
        <time>2021-11-26T20:59:19Z</time>
      </trkpt>
      <trkpt lat="37.491647" lon="-4.001091">
        <ele>798.091</ele>
        <time>2021-11-26T20:59:59Z</time>
      </trkpt>
      <trkpt lat="37.491672" lon="-4.001188">
        <ele>796.081</ele>
        <time>2021-11-26T21:00:39Z</time>
      </trkpt>
      <trkpt lat="37.491672" lon="-4.001209">
        <ele>796.019</ele>
        <time>2021-11-26T21:01:19Z</time>
      </trkpt>
      <trkpt lat="37.491698" lon="-4.001362">
        <ele>795.008</ele>
        <time>2021-11-26T21:01:59Z</time>
      </trkpt>
      <trkpt lat="37.491685" lon="-4.001445">
        <ele>795.017</ele>
        <time>2021-11-26T21:02:39Z</time>
      </trkpt>
      <trkpt lat="37.491719" lon="-4.001611">
        <ele>793.058</ele>
        <time>2021-11-26T21:03:19Z</time>
      </trkpt>
      <trkpt lat="37.491719" lon="-4.001615">
        <ele>793.045</ele>
        <time>2021-11-26T21:03:59Z</time>
      </trkpt>
      <trkpt lat="37.491739" lon="-4.001770">
        <ele>791.023</ele>
        <time>2021-11-26T21:04:39Z</time>
      </trkpt>
      <trkpt lat="37.491752" lon="-4.001867">
        <ele>789.056</ele>
        <time>2021-11-26T21:05:19Z</time>
      </trkpt>
      <trkpt lat="37.491753" lon="-4.002016">
        <ele>787.036</ele>
        <time>2021-11-26T21:05:59Z</time>
      </trkpt>
      <trkpt lat="37.491753" lon="-4.002200">
        <ele>786.024</ele>
        <time>2021-11-26T21:06:39Z</time>
      </trkpt>
      <trkpt lat="37.491757" lon="-4.002409">
        <ele>785.014</ele>
        <time>2021-11-26T21:07:19Z</time>
      </trkpt>
      <trkpt lat="37.491759" lon="-4.002512">
        <ele>784.075</ele>
        <time>2021-11-26T21:07:59Z</time>
      </trkpt>
      <trkpt lat="37.491722" lon="-4.002670">
        <ele>783.028</ele>
        <time>2021-11-26T21:08:39Z</time>
      </trkpt>
      <trkpt lat="37.491720" lon="-4.002788">
        <ele>782.020</ele>
        <time>2021-11-26T21:09:19Z</time>
      </trkpt>
      <trkpt lat="37.491715" lon="-4.002903">
        <ele>780.008</ele>
        <time>2021-11-26T21:09:59Z</time>
      </trkpt>
      <trkpt lat="37.491728" lon="-4.003016">
        <ele>779.075</ele>
        <time>2021-11-26T21:10:39Z</time>
      </trkpt>
      <trkpt lat="37.491735" lon="-4.003155">
        <ele>778.046</ele>
        <time>2021-11-26T21:11:19Z</time>
      </trkpt>
      <trkpt lat="37.491754" lon="-4.003281">
        <ele>776.033</ele>
        <time>2021-11-26T21:11:59Z</time>
      </trkpt>
      <trkpt lat="37.491780" lon="-4.003408">
        <ele>773.031</ele>
        <time>2021-11-26T21:12:39Z</time>
      </trkpt>
      <trkpt lat="37.491784" lon="-4.003560">
        <ele>771.064</ele>
        <time>2021-11-26T21:13:19Z</time>
      </trkpt>
      <trkpt lat="37.491705" lon="-4.003842">
        <ele>768.044</ele>
        <time>2021-11-26T21:13:59Z</time>
      </trkpt>
      <trkpt lat="37.491668" lon="-4.003987">
        <ele>767.072</ele>
        <time>2021-11-26T21:14:39Z</time>
      </trkpt>
      <trkpt lat="37.491638" lon="-4.004152">
        <ele>766.042</ele>
        <time>2021-11-26T21:15:19Z</time>
      </trkpt>
      <trkpt lat="37.491615" lon="-4.004283">
        <ele>764.034</ele>
        <time>2021-11-26T21:15:59Z</time>
      </trkpt>
      <trkpt lat="37.491599" lon="-4.004424">
        <ele>763.055</ele>
        <time>2021-11-26T21:16:39Z</time>
      </trkpt>
      <trkpt lat="37.491543" lon="-4.004542">
        <ele>763.010</ele>
        <time>2021-11-26T21:17:19Z</time>
      </trkpt>
      <trkpt lat="37.491515" lon="-4.004669">
        <ele>763.008</ele>
        <time>2021-11-26T21:17:59Z</time>
      </trkpt>
      <trkpt lat="37.491466" lon="-4.004757">
        <ele>762.091</ele>
        <time>2021-11-26T21:18:39Z</time>
      </trkpt>
      <trkpt lat="37.491476" lon="-4.004883">
        <ele>761.022</ele>
        <time>2021-11-26T21:19:19Z</time>
      </trkpt>
      <trkpt lat="37.491500" lon="-4.005023">
        <ele>759.019</ele>
        <time>2021-11-26T21:19:59Z</time>
      </trkpt>
      <trkpt lat="37.491531" lon="-4.005150">
        <ele>756.017</ele>
        <time>2021-11-26T21:20:39Z</time>
      </trkpt>
      <trkpt lat="37.491541" lon="-4.005254">
        <ele>755.020</ele>
        <time>2021-11-26T21:21:19Z</time>
      </trkpt>
      <trkpt lat="37.491565" lon="-4.005356">
        <ele>753.050</ele>
        <time>2021-11-26T21:21:59Z</time>
      </trkpt>
      <trkpt lat="37.491578" lon="-4.005478">
        <ele>751.048</ele>
        <time>2021-11-26T21:22:39Z</time>
      </trkpt>
      <trkpt lat="37.491585" lon="-4.005586">
        <ele>750.068</ele>
        <time>2021-11-26T21:23:19Z</time>
      </trkpt>
      <trkpt lat="37.491563" lon="-4.005702">
        <ele>749.054</ele>
        <time>2021-11-26T21:23:59Z</time>
      </trkpt>
      <trkpt lat="37.491523" lon="-4.005858">
        <ele>749.056</ele>
        <time>2021-11-26T21:24:39Z</time>
      </trkpt>
      <trkpt lat="37.491546" lon="-4.006010">
        <ele>747.011</ele>
        <time>2021-11-26T21:25:19Z</time>
      </trkpt>
      <trkpt lat="37.491589" lon="-4.006158">
        <ele>748.008</ele>
        <time>2021-11-26T21:25:59Z</time>
      </trkpt>
      <trkpt lat="37.491630" lon="-4.006288">
        <ele>749.073</ele>
        <time>2021-11-26T21:26:39Z</time>
      </trkpt>
      <trkpt lat="37.491664" lon="-4.006418">
        <ele>748.024</ele>
        <time>2021-11-26T21:27:19Z</time>
      </trkpt>
      <trkpt lat="37.491692" lon="-4.006566">
        <ele>748.091</ele>
        <time>2021-11-26T21:27:59Z</time>
      </trkpt>
      <trkpt lat="37.491707" lon="-4.006627">
        <ele>747.059</ele>
        <time>2021-11-26T21:28:39Z</time>
      </trkpt>
      <trkpt lat="37.491770" lon="-4.006681">
        <ele>748.052</ele>
        <time>2021-11-26T21:29:19Z</time>
      </trkpt>
      <trkpt lat="37.491798" lon="-4.006806">
        <ele>748.042</ele>
        <time>2021-11-26T21:29:59Z</time>
      </trkpt>
      <trkpt lat="37.491826" lon="-4.006932">
        <ele>746.040</ele>
        <time>2021-11-26T21:30:39Z</time>
      </trkpt>
      <trkpt lat="37.491874" lon="-4.007058">
        <ele>746.060</ele>
        <time>2021-11-26T21:31:19Z</time>
      </trkpt>
      <trkpt lat="37.491910" lon="-4.007206">
        <ele>746.079</ele>
        <time>2021-11-26T21:31:59Z</time>
      </trkpt>
      <trkpt lat="37.491911" lon="-4.007221">
        <ele>745.005</ele>
        <time>2021-11-26T21:32:39Z</time>
      </trkpt>
      <trkpt lat="37.491933" lon="-4.007322">
        <ele>743.025</ele>
        <time>2021-11-26T21:33:19Z</time>
      </trkpt>
      <trkpt lat="37.491950" lon="-4.007410">
        <ele>742.008</ele>
        <time>2021-11-26T21:33:59Z</time>
      </trkpt>
      <trkpt lat="37.491911" lon="-4.007489">
        <ele>740.065</ele>
        <time>2021-11-26T21:34:39Z</time>
      </trkpt>
      <trkpt lat="37.491870" lon="-4.007569">
        <ele>740.076</ele>
        <time>2021-11-26T21:35:19Z</time>
      </trkpt>
      <trkpt lat="37.491829" lon="-4.007631">
        <ele>740.013</ele>
        <time>2021-11-26T21:35:59Z</time>
      </trkpt>
      <trkpt lat="37.491798" lon="-4.007720">
        <ele>740.031</ele>
        <time>2021-11-26T21:36:39Z</time>
      </trkpt>
      <trkpt lat="37.491763" lon="-4.007778">
        <ele>739.064</ele>
        <time>2021-11-26T21:37:19Z</time>
      </trkpt>
      <trkpt lat="37.491709" lon="-4.007850">
        <ele>738.014</ele>
        <time>2021-11-26T21:37:59Z</time>
      </trkpt>
      <trkpt lat="37.491709" lon="-4.007885">
        <ele>738.012</ele>
        <time>2021-11-26T21:38:39Z</time>
      </trkpt>
      <trkpt lat="37.491722" lon="-4.007937">
        <ele>738.092</ele>
        <time>2021-11-26T21:39:19Z</time>
      </trkpt>
      <trkpt lat="37.491781" lon="-4.008014">
        <ele>741.074</ele>
        <time>2021-11-26T21:39:59Z</time>
      </trkpt>
      <trkpt lat="37.491881" lon="-4.008073">
        <ele>743.056</ele>
        <time>2021-11-26T21:40:39Z</time>
      </trkpt>
      <trkpt lat="37.491978" lon="-4.008134">
        <ele>746.021</ele>
        <time>2021-11-26T21:41:19Z</time>
      </trkpt>
      <trkpt lat="37.492038" lon="-4.008180">
        <ele>748.008</ele>
        <time>2021-11-26T21:41:59Z</time>
      </trkpt>
      <trkpt lat="37.492088" lon="-4.008241">
        <ele>750.085</ele>
        <time>2021-11-26T21:42:39Z</time>
      </trkpt>
      <trkpt lat="37.492082" lon="-4.008323">
        <ele>750.036</ele>
        <time>2021-11-26T21:43:19Z</time>
      </trkpt>
      <trkpt lat="37.492081" lon="-4.008334">
        <ele>750.093</ele>
        <time>2021-11-26T21:43:59Z</time>
      </trkpt>
      <trkpt lat="37.492074" lon="-4.008435">
        <ele>749.061</ele>
        <time>2021-11-26T21:44:39Z</time>
      </trkpt>
      <trkpt lat="37.492087" lon="-4.008517">
        <ele>750.014</ele>
        <time>2021-11-26T21:45:19Z</time>
      </trkpt>
      <trkpt lat="37.492138" lon="-4.008618">
        <ele>752.024</ele>
        <time>2021-11-26T21:45:59Z</time>
      </trkpt>
      <trkpt lat="37.492145" lon="-4.008687">
        <ele>752.092</ele>
        <time>2021-11-26T21:46:39Z</time>
      </trkpt>
      <trkpt lat="37.492150" lon="-4.008818">
        <ele>751.082</ele>
        <time>2021-11-26T21:47:19Z</time>
      </trkpt>
      <trkpt lat="37.492178" lon="-4.008959">
        <ele>751.047</ele>
        <time>2021-11-26T21:47:59Z</time>
      </trkpt>
      <trkpt lat="37.492201" lon="-4.009088">
        <ele>751.029</ele>
        <time>2021-11-26T21:48:39Z</time>
      </trkpt>
      <trkpt lat="37.492231" lon="-4.009165">
        <ele>752.021</ele>
        <time>2021-11-26T21:49:19Z</time>
      </trkpt>
      <trkpt lat="37.492295" lon="-4.009290">
        <ele>755.008</ele>
        <time>2021-11-26T21:49:59Z</time>
      </trkpt>
      <trkpt lat="37.492338" lon="-4.009411">
        <ele>756.062</ele>
        <time>2021-11-26T21:50:39Z</time>
      </trkpt>
      <trkpt lat="37.492401" lon="-4.009579">
        <ele>757.093</ele>
        <time>2021-11-26T21:51:19Z</time>
      </trkpt>
      <trkpt lat="37.492449" lon="-4.009759">
        <ele>759.080</ele>
        <time>2021-11-26T21:51:59Z</time>
      </trkpt>
      <trkpt lat="37.492496" lon="-4.009903">
        <ele>759.088</ele>
        <time>2021-11-26T21:52:39Z</time>
      </trkpt>
      <trkpt lat="37.492544" lon="-4.010038">
        <ele>759.041</ele>
        <time>2021-11-26T21:53:19Z</time>
      </trkpt>
      <trkpt lat="37.492586" lon="-4.010149">
        <ele>760.011</ele>
        <time>2021-11-26T21:53:59Z</time>
      </trkpt>
      <trkpt lat="37.492654" lon="-4.010253">
        <ele>762.049</ele>
        <time>2021-11-26T21:54:39Z</time>
      </trkpt>
      <trkpt lat="37.492727" lon="-4.010345">
        <ele>761.059</ele>
        <time>2021-11-26T21:55:19Z</time>
      </trkpt>
      <trkpt lat="37.492858" lon="-4.010392">
        <ele>760.068</ele>
        <time>2021-11-26T21:55:59Z</time>
      </trkpt>
      <trkpt lat="37.493148" lon="-4.010328">
        <ele>761.042</ele>
        <time>2021-11-26T21:56:39Z</time>
      </trkpt>
      <trkpt lat="37.493288" lon="-4.010329">
        <ele>763.026</ele>
        <time>2021-11-26T21:57:19Z</time>
      </trkpt>
      <trkpt lat="37.493330" lon="-4.010388">
        <ele>762.008</ele>
        <time>2021-11-26T21:57:59Z</time>
      </trkpt>
      <trkpt lat="37.493384" lon="-4.010463">
        <ele>763.084</ele>
        <time>2021-11-26T21:58:39Z</time>
      </trkpt>
      <trkpt lat="37.493468" lon="-4.010525">
        <ele>762.045</ele>
        <time>2021-11-26T21:59:19Z</time>
      </trkpt>
      <trkpt lat="37.493593" lon="-4.010602">
        <ele>764.092</ele>
        <time>2021-11-26T21:59:59Z</time>
      </trkpt>
      <trkpt lat="37.493618" lon="-4.010738">
        <ele>767.010</ele>
        <time>2021-11-26T22:00:39Z</time>
      </trkpt>
      <trkpt lat="37.493604" lon="-4.010885">
        <ele>770.053</ele>
        <time>2021-11-26T22:01:19Z</time>
      </trkpt>
      <trkpt lat="37.493521" lon="-4.010975">
        <ele>769.053</ele>
        <time>2021-11-26T22:01:59Z</time>
      </trkpt>
      <trkpt lat="37.493428" lon="-4.011068">
        <ele>768.091</ele>
        <time>2021-11-26T22:02:39Z</time>
      </trkpt>
      <trkpt lat="37.493348" lon="-4.011203">
        <ele>770.071</ele>
        <time>2021-11-26T22:03:19Z</time>
      </trkpt>
      <trkpt lat="37.493346" lon="-4.011223">
        <ele>770.092</ele>
        <time>2021-11-26T22:03:59Z</time>
      </trkpt>
      <trkpt lat="37.493328" lon="-4.011344">
        <ele>771.073</ele>
        <time>2021-11-26T22:04:39Z</time>
      </trkpt>
      <trkpt lat="37.493340" lon="-4.011475">
        <ele>770.020</ele>
        <time>2021-11-26T22:05:19Z</time>
      </trkpt>
      <trkpt lat="37.493356" lon="-4.011624">
        <ele>770.008</ele>
        <time>2021-11-26T22:05:59Z</time>
      </trkpt>
      <trkpt lat="37.493348" lon="-4.011738">
        <ele>769.027</ele>
        <time>2021-11-26T22:06:39Z</time>
      </trkpt>
      <trkpt lat="37.493351" lon="-4.011746">
        <ele>769.058</ele>
        <time>2021-11-26T22:07:19Z</time>
      </trkpt>
      <trkpt lat="37.493351" lon="-4.011756">
        <ele>769.095</ele>
        <time>2021-11-26T22:07:59Z</time>
      </trkpt>
      <trkpt lat="37.493352" lon="-4.011880">
        <ele>768.083</ele>
        <time>2021-11-26T22:08:39Z</time>
      </trkpt>
      <trkpt lat="37.493360" lon="-4.011983">
        <ele>768.046</ele>
        <time>2021-11-26T22:09:19Z</time>
      </trkpt>
      <trkpt lat="37.493363" lon="-4.011994">
        <ele>768.046</ele>
        <time>2021-11-26T22:09:59Z</time>
      </trkpt>
      <trkpt lat="37.493365" lon="-4.012002">
        <ele>768.054</ele>
        <time>2021-11-26T22:10:39Z</time>
      </trkpt>
      <trkpt lat="37.493407" lon="-4.012132">
        <ele>768.084</ele>
        <time>2021-11-26T22:11:19Z</time>
      </trkpt>
      <trkpt lat="37.493392" lon="-4.012253">
        <ele>767.039</ele>
        <time>2021-11-26T22:11:59Z</time>
      </trkpt>
      <trkpt lat="37.493392" lon="-4.012258">
        <ele>767.001</ele>
        <time>2021-11-26T22:12:39Z</time>
      </trkpt>
      <trkpt lat="37.493388" lon="-4.012394">
        <ele>767.021</ele>
        <time>2021-11-26T22:13:19Z</time>
      </trkpt>
      <trkpt lat="37.493386" lon="-4.012532">
        <ele>766.008</ele>
        <time>2021-11-26T22:13:59Z</time>
      </trkpt>
      <trkpt lat="37.493386" lon="-4.012667">
        <ele>766.041</ele>
        <time>2021-11-26T22:14:39Z</time>
      </trkpt>
      <trkpt lat="37.493386" lon="-4.012857">
        <ele>767.072</ele>
        <time>2021-11-26T22:15:19Z</time>
      </trkpt>
      <trkpt lat="37.493396" lon="-4.013009">
        <ele>767.029</ele>
        <time>2021-11-26T22:15:59Z</time>
      </trkpt>
      <trkpt lat="37.493412" lon="-4.013169">
        <ele>767.087</ele>
        <time>2021-11-26T22:16:39Z</time>
      </trkpt>
      <trkpt lat="37.493457" lon="-4.013343">
        <ele>767.030</ele>
        <time>2021-11-26T22:17:19Z</time>
      </trkpt>
      <trkpt lat="37.493516" lon="-4.013485">
        <ele>768.010</ele>
        <time>2021-11-26T22:17:59Z</time>
      </trkpt>
      <trkpt lat="37.493585" lon="-4.013649">
        <ele>769.028</ele>
        <time>2021-11-26T22:18:39Z</time>
      </trkpt>
      <trkpt lat="37.493636" lon="-4.013808">
        <ele>770.028</ele>
        <time>2021-11-26T22:19:19Z</time>
      </trkpt>
      <trkpt lat="37.493669" lon="-4.013959">
        <ele>771.042</ele>
        <time>2021-11-26T22:19:59Z</time>
      </trkpt>
      <trkpt lat="37.493663" lon="-4.014105">
        <ele>771.022</ele>
        <time>2021-11-26T22:20:39Z</time>
      </trkpt>
      <trkpt lat="37.493665" lon="-4.014117">
        <ele>772.014</ele>
        <time>2021-11-26T22:21:19Z</time>
      </trkpt>
      <trkpt lat="37.493648" lon="-4.014248">
        <ele>772.008</ele>
        <time>2021-11-26T22:21:59Z</time>
      </trkpt>
      <trkpt lat="37.493645" lon="-4.014259">
        <ele>772.052</ele>
        <time>2021-11-26T22:22:39Z</time>
      </trkpt>
      <trkpt lat="37.493624" lon="-4.014381">
        <ele>773.043</ele>
        <time>2021-11-26T22:23:19Z</time>
      </trkpt>
      <trkpt lat="37.493622" lon="-4.014390">
        <ele>773.020</ele>
        <time>2021-11-26T22:23:59Z</time>
      </trkpt>
      <trkpt lat="37.493621" lon="-4.014565">
        <ele>775.038</ele>
        <time>2021-11-26T22:24:39Z</time>
      </trkpt>
      <trkpt lat="37.493659" lon="-4.014779">
        <ele>775.091</ele>
        <time>2021-11-26T22:25:19Z</time>
      </trkpt>
      <trkpt lat="37.493724" lon="-4.014910">
        <ele>775.081</ele>
        <time>2021-11-26T22:25:59Z</time>
      </trkpt>
      <trkpt lat="37.493877" lon="-4.015090">
        <ele>774.069</ele>
        <time>2021-11-26T22:26:39Z</time>
      </trkpt>
      <trkpt lat="37.494040" lon="-4.015236">
        <ele>771.089</ele>
        <time>2021-11-26T22:27:19Z</time>
      </trkpt>
      <trkpt lat="37.494322" lon="-4.015389">
        <ele>767.091</ele>
        <time>2021-11-26T22:27:59Z</time>
      </trkpt>
      <trkpt lat="37.494476" lon="-4.015533">
        <ele>764.081</ele>
        <time>2021-11-26T22:28:39Z</time>
      </trkpt>
      <trkpt lat="37.494593" lon="-4.015710">
        <ele>760.019</ele>
        <time>2021-11-26T22:29:19Z</time>
      </trkpt>
      <trkpt lat="37.494628" lon="-4.015855">
        <ele>759.008</ele>
        <time>2021-11-26T22:29:59Z</time>
      </trkpt>
      <trkpt lat="37.494554" lon="-4.015972">
        <ele>760.067</ele>
        <time>2021-11-26T22:30:39Z</time>
      </trkpt>
      <trkpt lat="37.494469" lon="-4.016005">
        <ele>760.088</ele>
        <time>2021-11-26T22:31:19Z</time>
      </trkpt>
      <trkpt lat="37.494449" lon="-4.016024">
        <ele>760.085</ele>
        <time>2021-11-26T22:31:59Z</time>
      </trkpt>
      <trkpt lat="37.494360" lon="-4.016096">
        <ele>763.053</ele>
        <time>2021-11-26T22:32:39Z</time>
      </trkpt>
      <trkpt lat="37.494333" lon="-4.016153">
        <ele>764.016</ele>
        <time>2021-11-26T22:33:19Z</time>
      </trkpt>
      <trkpt lat="37.494305" lon="-4.016258">
        <ele>766.096</ele>
        <time>2021-11-26T22:33:59Z</time>
      </trkpt>
      <trkpt lat="37.494294" lon="-4.016350">
        <ele>767.084</ele>
        <time>2021-11-26T22:34:39Z</time>
      </trkpt>
      <trkpt lat="37.494293" lon="-4.016362">
        <ele>767.084</ele>
        <time>2021-11-26T22:35:19Z</time>
      </trkpt>
      <trkpt lat="37.494308" lon="-4.016533">
        <ele>769.045</ele>
        <time>2021-11-26T22:35:59Z</time>
      </trkpt>
      <trkpt lat="37.494302" lon="-4.016662">
        <ele>770.047</ele>
        <time>2021-11-26T22:36:39Z</time>
      </trkpt>
      <trkpt lat="37.494204" lon="-4.016845">
        <ele>769.011</ele>
        <time>2021-11-26T22:37:19Z</time>
      </trkpt>
      <trkpt lat="37.494106" lon="-4.017010">
        <ele>770.008</ele>
        <time>2021-11-26T22:37:59Z</time>
      </trkpt>
      <trkpt lat="37.493989" lon="-4.017214">
        <ele>769.042</ele>
        <time>2021-11-26T22:38:39Z</time>
      </trkpt>
      <trkpt lat="37.493902" lon="-4.017378">
        <ele>771.023</ele>
        <time>2021-11-26T22:39:19Z</time>
      </trkpt>
      <trkpt lat="37.493836" lon="-4.017524">
        <ele>771.060</ele>
        <time>2021-11-26T22:39:59Z</time>
      </trkpt>
      <trkpt lat="37.493822" lon="-4.017658">
        <ele>772.068</ele>
        <time>2021-11-26T22:40:39Z</time>
      </trkpt>
      <trkpt lat="37.493822" lon="-4.017674">
        <ele>772.041</ele>
        <time>2021-11-26T22:41:19Z</time>
      </trkpt>
      <trkpt lat="37.493838" lon="-4.017864">
        <ele>772.031</ele>
        <time>2021-11-26T22:41:59Z</time>
      </trkpt>
      <trkpt lat="37.493871" lon="-4.018045">
        <ele>770.069</ele>
        <time>2021-11-26T22:42:39Z</time>
      </trkpt>
      <trkpt lat="37.493930" lon="-4.018276">
        <ele>770.039</ele>
        <time>2021-11-26T22:43:19Z</time>
      </trkpt>
      <trkpt lat="37.493997" lon="-4.018497">
        <ele>769.096</ele>
        <time>2021-11-26T22:43:59Z</time>
      </trkpt>
      <trkpt lat="37.494006" lon="-4.018714">
        <ele>769.031</ele>
        <time>2021-11-26T22:44:39Z</time>
      </trkpt>
      <trkpt lat="37.494006" lon="-4.018740">
        <ele>769.024</ele>
        <time>2021-11-26T22:45:19Z</time>
      </trkpt>
      <trkpt lat="37.494003" lon="-4.018946">
        <ele>768.008</ele>
        <time>2021-11-26T22:45:59Z</time>
      </trkpt>
      <trkpt lat="37.494018" lon="-4.019166">
        <ele>767.097</ele>
        <time>2021-11-26T22:46:39Z</time>
      </trkpt>
      <trkpt lat="37.494050" lon="-4.019409">
        <ele>766.038</ele>
        <time>2021-11-26T22:47:19Z</time>
      </trkpt>
      <trkpt lat="37.494052" lon="-4.019424">
        <ele>766.085</ele>
        <time>2021-11-26T22:47:59Z</time>
      </trkpt>
      <trkpt lat="37.494108" lon="-4.019572">
        <ele>764.023</ele>
        <time>2021-11-26T22:48:39Z</time>
      </trkpt>
      <trkpt lat="37.494119" lon="-4.019586">
        <ele>764.016</ele>
        <time>2021-11-26T22:49:19Z</time>
      </trkpt>
      <trkpt lat="37.494315" lon="-4.019666">
        <ele>761.096</ele>
        <time>2021-11-26T22:49:59Z</time>
      </trkpt>
      <trkpt lat="37.494437" lon="-4.019560">
        <ele>761.064</ele>
        <time>2021-11-26T22:50:39Z</time>
      </trkpt>
      <trkpt lat="37.494452" lon="-4.019558">
        <ele>761.094</ele>
        <time>2021-11-26T22:51:19Z</time>
      </trkpt>
      <trkpt lat="37.494623" lon="-4.019480">
        <ele>760.061</ele>
        <time>2021-11-26T22:51:59Z</time>
      </trkpt>
      <trkpt lat="37.494648" lon="-4.019482">
        <ele>760.021</ele>
        <time>2021-11-26T22:52:39Z</time>
      </trkpt>
      <trkpt lat="37.494847" lon="-4.019539">
        <ele>758.013</ele>
        <time>2021-11-26T22:53:19Z</time>
      </trkpt>
      <trkpt lat="37.495057" lon="-4.019774">
        <ele>756.008</ele>
        <time>2021-11-26T22:53:59Z</time>
      </trkpt>
      <trkpt lat="37.495294" lon="-4.020071">
        <ele>755.034</ele>
        <time>2021-11-26T22:54:39Z</time>
      </trkpt>
      <trkpt lat="37.495524" lon="-4.020310">
        <ele>754.085</ele>
        <time>2021-11-26T22:55:19Z</time>
      </trkpt>
      <trkpt lat="37.495908" lon="-4.020613">
        <ele>751.072</ele>
        <time>2021-11-26T22:55:59Z</time>
      </trkpt>
      <trkpt lat="37.496069" lon="-4.020713">
        <ele>750.090</ele>
        <time>2021-11-26T22:56:39Z</time>
      </trkpt>
      <trkpt lat="37.496177" lon="-4.020812">
        <ele>750.093</ele>
        <time>2021-11-26T22:57:19Z</time>
      </trkpt>
      <trkpt lat="37.496229" lon="-4.020986">
        <ele>750.013</ele>
        <time>2021-11-26T22:57:59Z</time>
      </trkpt>
      <trkpt lat="37.496196" lon="-4.021220">
        <ele>749.041</ele>
        <time>2021-11-26T22:58:39Z</time>
      </trkpt>
      <trkpt lat="37.496152" lon="-4.021488">
        <ele>747.021</ele>
        <time>2021-11-26T22:59:19Z</time>
      </trkpt>
      <trkpt lat="37.496152" lon="-4.021501">
        <ele>747.054</ele>
        <time>2021-11-26T22:59:59Z</time>
      </trkpt>
      <trkpt lat="37.496071" lon="-4.021834">
        <ele>745.056</ele>
        <time>2021-11-26T23:00:39Z</time>
      </trkpt>
      <trkpt lat="37.496070" lon="-4.021847">
        <ele>745.011</ele>
        <time>2021-11-26T23:01:19Z</time>
      </trkpt>
      <trkpt lat="37.496011" lon="-4.022293">
        <ele>744.008</ele>
        <time>2021-11-26T23:01:59Z</time>
      </trkpt>
      <trkpt lat="37.495963" lon="-4.022588">
        <ele>743.023</ele>
        <time>2021-11-26T23:02:39Z</time>
      </trkpt>
      <trkpt lat="37.495938" lon="-4.022805">
        <ele>743.024</ele>
        <time>2021-11-26T23:03:19Z</time>
      </trkpt>
      <trkpt lat="37.495935" lon="-4.022848">
        <ele>743.071</ele>
        <time>2021-11-26T23:03:59Z</time>
      </trkpt>
      <trkpt lat="37.495935" lon="-4.022854">
        <ele>743.089</ele>
        <time>2021-11-26T23:04:39Z</time>
      </trkpt>
      <trkpt lat="37.495942" lon="-4.023065">
        <ele>743.062</ele>
        <time>2021-11-26T23:05:19Z</time>
      </trkpt>
      <trkpt lat="37.495976" lon="-4.023301">
        <ele>742.022</ele>
        <time>2021-11-26T23:05:59Z</time>
      </trkpt>
      <trkpt lat="37.495963" lon="-4.023434">
        <ele>740.050</ele>
        <time>2021-11-26T23:06:39Z</time>
      </trkpt>
      <trkpt lat="37.495869" lon="-4.023636">
        <ele>741.080</ele>
        <time>2021-11-26T23:07:19Z</time>
      </trkpt>
      <trkpt lat="37.495722" lon="-4.023835">
        <ele>739.031</ele>
        <time>2021-11-26T23:07:59Z</time>
      </trkpt>
      <trkpt lat="37.495606" lon="-4.024032">
        <ele>739.061</ele>
        <time>2021-11-26T23:08:39Z</time>
      </trkpt>
      <trkpt lat="37.495451" lon="-4.024222">
        <ele>738.007</ele>
        <time>2021-11-26T23:09:19Z</time>
      </trkpt>
      <trkpt lat="37.495308" lon="-4.024416">
        <ele>737.008</ele>
        <time>2021-11-26T23:09:59Z</time>
      </trkpt>
      <trkpt lat="37.495166" lon="-4.024591">
        <ele>736.091</ele>
        <time>2021-11-26T23:10:39Z</time>
      </trkpt>
      <trkpt lat="37.495019" lon="-4.024828">
        <ele>735.022</ele>
        <time>2021-11-26T23:11:19Z</time>
      </trkpt>
      <trkpt lat="37.494891" lon="-4.025076">
        <ele>734.099</ele>
        <time>2021-11-26T23:11:59Z</time>
      </trkpt>
      <trkpt lat="37.494805" lon="-4.025283">
        <ele>734.017</ele>
        <time>2021-11-26T23:12:39Z</time>
      </trkpt>
      <trkpt lat="37.494803" lon="-4.025561">
        <ele>734.090</ele>
        <time>2021-11-26T23:13:19Z</time>
      </trkpt>
      <trkpt lat="37.494839" lon="-4.025831">
        <ele>735.080</ele>
        <time>2021-11-26T23:13:59Z</time>
      </trkpt>
      <trkpt lat="37.494838" lon="-4.025866">
        <ele>734.038</ele>
        <time>2021-11-26T23:14:39Z</time>
      </trkpt>
      <trkpt lat="37.494901" lon="-4.026133">
        <ele>732.098</ele>
        <time>2021-11-26T23:15:19Z</time>
      </trkpt>
      <trkpt lat="37.494913" lon="-4.026161">
        <ele>732.074</ele>
        <time>2021-11-26T23:15:59Z</time>
      </trkpt>
      <trkpt lat="37.495112" lon="-4.026501">
        <ele>723.056</ele>
        <time>2021-11-26T23:16:39Z</time>
      </trkpt>
      <trkpt lat="37.495120" lon="-4.026723">
        <ele>730.021</ele>
        <time>2021-11-26T23:17:19Z</time>
      </trkpt>
      <trkpt lat="37.495083" lon="-4.026905">
        <ele>732.008</ele>
        <time>2021-11-26T23:17:59Z</time>
      </trkpt>
      <trkpt lat="37.495045" lon="-4.026863">
        <ele>731.085</ele>
        <time>2021-11-26T23:18:39Z</time>
      </trkpt>
      <trkpt lat="37.494961" lon="-4.026806">
        <ele>730.026</ele>
        <time>2021-11-26T23:19:19Z</time>
      </trkpt>
      <trkpt lat="37.494916" lon="-4.026826">
        <ele>731.033</ele>
        <time>2021-11-26T23:19:59Z</time>
      </trkpt>
      <trkpt lat="37.494794" lon="-4.026821">
        <ele>731.041</ele>
        <time>2021-11-26T23:20:39Z</time>
      </trkpt>
      <trkpt lat="37.494636" lon="-4.026809">
        <ele>731.024</ele>
        <time>2021-11-26T23:21:19Z</time>
      </trkpt>
      <trkpt lat="37.494465" lon="-4.026795">
        <ele>729.024</ele>
        <time>2021-11-26T23:21:59Z</time>
      </trkpt>
      <trkpt lat="37.494313" lon="-4.026803">
        <ele>728.012</ele>
        <time>2021-11-26T23:22:39Z</time>
      </trkpt>
      <trkpt lat="37.494189" lon="-4.026818">
        <ele>727.032</ele>
        <time>2021-11-26T23:23:19Z</time>
      </trkpt>
      <trkpt lat="37.494033" lon="-4.026846">
        <ele>727.073</ele>
        <time>2021-11-26T23:23:59Z</time>
      </trkpt>
      <trkpt lat="37.493898" lon="-4.026869">
        <ele>726.085</ele>
        <time>2021-11-26T23:24:39Z</time>
      </trkpt>
      <trkpt lat="37.493749" lon="-4.026889">
        <ele>725.013</ele>
        <time>2021-11-26T23:25:19Z</time>
      </trkpt>
      <trkpt lat="37.493632" lon="-4.026835">
        <ele>724.008</ele>
        <time>2021-11-26T23:25:59Z</time>
      </trkpt>
      <trkpt lat="37.493489" lon="-4.026795">
        <ele>723.015</ele>
        <time>2021-11-26T23:26:39Z</time>
      </trkpt>
      <trkpt lat="37.493282" lon="-4.026815">
        <ele>722.076</ele>
        <time>2021-11-26T23:27:19Z</time>
      </trkpt>
      <trkpt lat="37.493121" lon="-4.026855">
        <ele>721.023</ele>
        <time>2021-11-26T23:27:59Z</time>
      </trkpt>
      <trkpt lat="37.492975" lon="-4.026880">
        <ele>720.051</ele>
        <time>2021-11-26T23:28:39Z</time>
      </trkpt>
      <trkpt lat="37.492885" lon="-4.026884">
        <ele>719.084</ele>
        <time>2021-11-26T23:29:19Z</time>
      </trkpt>
      <trkpt lat="37.492832" lon="-4.026875">
        <ele>718.024</ele>
        <time>2021-11-26T23:29:59Z</time>
      </trkpt>
      <trkpt lat="37.492756" lon="-4.026869">
        <ele>718.082</ele>
        <time>2021-11-26T23:30:39Z</time>
      </trkpt>
      <trkpt lat="37.492698" lon="-4.026867">
        <ele>717.052</ele>
        <time>2021-11-26T23:31:19Z</time>
      </trkpt>
      <trkpt lat="37.492636" lon="-4.026861">
        <ele>717.052</ele>
        <time>2021-11-26T23:31:59Z</time>
      </trkpt>
      <trkpt lat="37.492574" lon="-4.026859">
        <ele>717.053</ele>
        <time>2021-11-26T23:32:39Z</time>
      </trkpt>
      <trkpt lat="37.492496" lon="-4.026850">
        <ele>716.008</ele>
        <time>2021-11-26T23:33:19Z</time>
      </trkpt>
      <trkpt lat="37.492461" lon="-4.026850">
        <ele>715.008</ele>
        <time>2021-11-26T23:33:59Z</time>
      </trkpt>
      <trkpt lat="37.492380" lon="-4.026847">
        <ele>716.093</ele>
        <time>2021-11-26T23:34:39Z</time>
      </trkpt>
      <trkpt lat="37.492321" lon="-4.026844">
        <ele>716.054</ele>
        <time>2021-11-26T23:35:19Z</time>
      </trkpt>
      <trkpt lat="37.492272" lon="-4.026841">
        <ele>716.071</ele>
        <time>2021-11-26T23:35:59Z</time>
      </trkpt>
      <trkpt lat="37.492204" lon="-4.026837">
        <ele>715.079</ele>
        <time>2021-11-26T23:36:39Z</time>
      </trkpt>
      <trkpt lat="37.492143" lon="-4.026860">
        <ele>714.082</ele>
        <time>2021-11-26T23:37:19Z</time>
      </trkpt>
      <trkpt lat="37.492085" lon="-4.026972">
        <ele>715.062</ele>
        <time>2021-11-26T23:37:59Z</time>
      </trkpt>
      <trkpt lat="37.492039" lon="-4.027082">
        <ele>714.040</ele>
        <time>2021-11-26T23:38:39Z</time>
      </trkpt>
      <trkpt lat="37.492003" lon="-4.027172">
        <ele>713.020</ele>
        <time>2021-11-26T23:39:19Z</time>
      </trkpt>
      <trkpt lat="37.491975" lon="-4.027253">
        <ele>713.046</ele>
        <time>2021-11-26T23:39:59Z</time>
      </trkpt>
      <trkpt lat="37.491951" lon="-4.027335">
        <ele>713.088</ele>
        <time>2021-11-26T23:40:39Z</time>
      </trkpt>
      <trkpt lat="37.491889" lon="-4.027491">
        <ele>712.016</ele>
        <time>2021-11-26T23:41:19Z</time>
      </trkpt>
      <trkpt lat="37.491836" lon="-4.027547">
        <ele>711.008</ele>
        <time>2021-11-26T23:41:59Z</time>
      </trkpt>
      <trkpt lat="37.491781" lon="-4.027568">
        <ele>711.022</ele>
        <time>2021-11-26T23:42:39Z</time>
      </trkpt>
      <trkpt lat="37.491719" lon="-4.027569">
        <ele>710.093</ele>
        <time>2021-11-26T23:43:19Z</time>
      </trkpt>
      <trkpt lat="37.491652" lon="-4.027562">
        <ele>710.020</ele>
        <time>2021-11-26T23:43:59Z</time>
      </trkpt>
      <trkpt lat="37.491560" lon="-4.027560">
        <ele>711.068</ele>
        <time>2021-11-26T23:44:39Z</time>
      </trkpt>
      <trkpt lat="37.491496" lon="-4.027568">
        <ele>710.091</ele>
        <time>2021-11-26T23:45:19Z</time>
      </trkpt>
      <trkpt lat="37.491437" lon="-4.027588">
        <ele>710.081</ele>
        <time>2021-11-26T23:45:59Z</time>
      </trkpt>
      <trkpt lat="37.491364" lon="-4.027622">
        <ele>710.049</ele>
        <time>2021-11-26T23:46:39Z</time>
      </trkpt>
      <trkpt lat="37.491299" lon="-4.027672">
        <ele>710.029</ele>
        <time>2021-11-26T23:47:19Z</time>
      </trkpt>
      <trkpt lat="37.491221" lon="-4.027724">
        <ele>709.064</ele>
        <time>2021-11-26T23:47:59Z</time>
      </trkpt>
      <trkpt lat="37.491181" lon="-4.027770">
        <ele>709.006</ele>
        <time>2021-11-26T23:48:39Z</time>
      </trkpt>
      <trkpt lat="37.491134" lon="-4.027821">
        <ele>710.016</ele>
        <time>2021-11-26T23:49:19Z</time>
      </trkpt>
      <trkpt lat="37.491076" lon="-4.027906">
        <ele>710.008</ele>
        <time>2021-11-26T23:49:59Z</time>
      </trkpt>
      <trkpt lat="37.491026" lon="-4.027989">
        <ele>710.024</ele>
        <time>2021-11-26T23:50:39Z</time>
      </trkpt>
      <trkpt lat="37.490947" lon="-4.028170">
        <ele>709.095</ele>
        <time>2021-11-26T23:51:19Z</time>
      </trkpt>
      <trkpt lat="37.490919" lon="-4.028227">
        <ele>709.092</ele>
        <time>2021-11-26T23:51:59Z</time>
      </trkpt>
      <trkpt lat="37.490889" lon="-4.028312">
        <ele>709.050</ele>
        <time>2021-11-26T23:52:39Z</time>
      </trkpt>
      <trkpt lat="37.490869" lon="-4.028383">
        <ele>709.083</ele>
        <time>2021-11-26T23:53:19Z</time>
      </trkpt>
      <trkpt lat="37.490850" lon="-4.028509">
        <ele>711.083</ele>
        <time>2021-11-26T23:53:59Z</time>
      </trkpt>
      <trkpt lat="37.490775" lon="-4.028693">
        <ele>710.031</ele>
        <time>2021-11-26T23:54:39Z</time>
      </trkpt>
      <trkpt lat="37.490728" lon="-4.028797">
        <ele>711.071</ele>
        <time>2021-11-26T23:55:19Z</time>
      </trkpt>
      <trkpt lat="37.490692" lon="-4.028865">
        <ele>711.056</ele>
        <time>2021-11-26T23:55:59Z</time>
      </trkpt>
      <trkpt lat="37.490647" lon="-4.028974">
        <ele>711.059</ele>
        <time>2021-11-26T23:56:39Z</time>
      </trkpt>
      <trkpt lat="37.490599" lon="-4.029046">
        <ele>710.014</ele>
        <time>2021-11-26T23:57:19Z</time>
      </trkpt>
      <trkpt lat="37.490544" lon="-4.029153">
        <ele>711.008</ele>
        <time>2021-11-26T23:57:59Z</time>
      </trkpt>
      <trkpt lat="37.490512" lon="-4.029247">
        <ele>711.053</ele>
        <time>2021-11-26T23:58:39Z</time>
      </trkpt>
      <trkpt lat="37.490464" lon="-4.029380">
        <ele>711.074</ele>
        <time>2021-11-26T23:59:19Z</time>
      </trkpt>
      <trkpt lat="37.490434" lon="-4.029461">
        <ele>711.081</ele>
        <time>2021-11-26T23:59:59Z</time>
      </trkpt>
      <trkpt lat="37.490390" lon="-4.029567">
        <ele>711.099</ele>
        <time>2021-11-27T00:00:39Z</time>
      </trkpt>
      <trkpt lat="37.490366" lon="-4.029649">
        <ele>711.082</ele>
        <time>2021-11-27T00:01:19Z</time>
      </trkpt>
      <trkpt lat="37.490335" lon="-4.029721">
        <ele>710.062</ele>
        <time>2021-11-27T00:01:59Z</time>
      </trkpt>
      <trkpt lat="37.490276" lon="-4.029820">
        <ele>710.070</ele>
        <time>2021-11-27T00:02:39Z</time>
      </trkpt>
      <trkpt lat="37.490239" lon="-4.029888">
        <ele>710.060</ele>
        <time>2021-11-27T00:03:19Z</time>
      </trkpt>
      <trkpt lat="37.490199" lon="-4.029951">
        <ele>709.095</ele>
        <time>2021-11-27T00:03:59Z</time>
      </trkpt>
      <trkpt lat="37.490166" lon="-4.029993">
        <ele>708.049</ele>
        <time>2021-11-27T00:04:39Z</time>
      </trkpt>
      <trkpt lat="37.490104" lon="-4.030077">
        <ele>708.023</ele>
        <time>2021-11-27T00:05:19Z</time>
      </trkpt>
      <trkpt lat="37.490077" lon="-4.030106">
        <ele>708.008</ele>
        <time>2021-11-27T00:05:59Z</time>
      </trkpt>
      <trkpt lat="37.490043" lon="-4.030152">
        <ele>708.067</ele>
        <time>2021-11-27T00:06:39Z</time>
      </trkpt>
      <trkpt lat="37.490010" lon="-4.030201">
        <ele>707.028</ele>
        <time>2021-11-27T00:07:19Z</time>
      </trkpt>
      <trkpt lat="37.489985" lon="-4.030242">
        <ele>707.095</ele>
        <time>2021-11-27T00:07:59Z</time>
      </trkpt>
      <trkpt lat="37.489933" lon="-4.030289">
        <ele>707.043</ele>
        <time>2021-11-27T00:08:39Z</time>
      </trkpt>
      <trkpt lat="37.489897" lon="-4.030324">
        <ele>707.096</ele>
        <time>2021-11-27T00:09:19Z</time>
      </trkpt>
      <trkpt lat="37.489862" lon="-4.030352">
        <ele>707.046</ele>
        <time>2021-11-27T00:09:59Z</time>
      </trkpt>
      <trkpt lat="37.489820" lon="-4.030413">
        <ele>707.094</ele>
        <time>2021-11-27T00:10:39Z</time>
      </trkpt>
      <trkpt lat="37.489794" lon="-4.030476">
        <ele>707.034</ele>
        <time>2021-11-27T00:11:19Z</time>
      </trkpt>
      <trkpt lat="37.489730" lon="-4.030590">
        <ele>706.064</ele>
        <time>2021-11-27T00:11:59Z</time>
      </trkpt>
      <trkpt lat="37.489710" lon="-4.030637">
        <ele>706.006</ele>
        <time>2021-11-27T00:12:39Z</time>
      </trkpt>
      <trkpt lat="37.489673" lon="-4.030693">
        <ele>706.016</ele>
        <time>2021-11-27T00:13:19Z</time>
      </trkpt>
      <trkpt lat="37.489636" lon="-4.030755">
        <ele>706.008</ele>
        <time>2021-11-27T00:13:59Z</time>
      </trkpt>
      <trkpt lat="37.489590" lon="-4.030823">
        <ele>705.064</ele>
        <time>2021-11-27T00:14:39Z</time>
      </trkpt>
      <trkpt lat="37.489547" lon="-4.030864">
        <ele>705.095</ele>
        <time>2021-11-27T00:15:19Z</time>
      </trkpt>
      <trkpt lat="37.489507" lon="-4.030894">
        <ele>705.072</ele>
        <time>2021-11-27T00:15:59Z</time>
      </trkpt>
      <trkpt lat="37.489452" lon="-4.030915">
        <ele>706.020</ele>
        <time>2021-11-27T00:16:39Z</time>
      </trkpt>
      <trkpt lat="37.489420" lon="-4.030947">
        <ele>705.053</ele>
        <time>2021-11-27T00:17:19Z</time>
      </trkpt>
      <trkpt lat="37.489374" lon="-4.031007">
        <ele>705.073</ele>
        <time>2021-11-27T00:17:59Z</time>
      </trkpt>
      <trkpt lat="37.489315" lon="-4.031082">
        <ele>705.041</ele>
        <time>2021-11-27T00:18:39Z</time>
      </trkpt>
      <trkpt lat="37.489271" lon="-4.031142">
        <ele>705.011</ele>
        <time>2021-11-27T00:19:19Z</time>
      </trkpt>
      <trkpt lat="37.489229" lon="-4.031189">
        <ele>705.094</ele>
        <time>2021-11-27T00:19:59Z</time>
      </trkpt>
      <trkpt lat="37.489156" lon="-4.031260">
        <ele>705.057</ele>
        <time>2021-11-27T00:20:39Z</time>
      </trkpt>
      <trkpt lat="37.489108" lon="-4.031309">
        <ele>705.022</ele>
        <time>2021-11-27T00:21:19Z</time>
      </trkpt>
      <trkpt lat="37.489049" lon="-4.031358">
        <ele>705.008</ele>
        <time>2021-11-27T00:21:59Z</time>
      </trkpt>
      <trkpt lat="37.489007" lon="-4.031390">
        <ele>706.047</ele>
        <time>2021-11-27T00:22:39Z</time>
      </trkpt>
      <trkpt lat="37.488966" lon="-4.031468">
        <ele>706.088</ele>
        <time>2021-11-27T00:23:19Z</time>
      </trkpt>
      <trkpt lat="37.488915" lon="-4.031539">
        <ele>705.045</ele>
        <time>2021-11-27T00:23:59Z</time>
      </trkpt>
      <trkpt lat="37.488885" lon="-4.031617">
        <ele>705.023</ele>
        <time>2021-11-27T00:24:39Z</time>
      </trkpt>
      <trkpt lat="37.488843" lon="-4.031679">
        <ele>705.016</ele>
        <time>2021-11-27T00:25:19Z</time>
      </trkpt>
      <trkpt lat="37.488789" lon="-4.031777">
        <ele>705.086</ele>
        <time>2021-11-27T00:25:59Z</time>
      </trkpt>
      <trkpt lat="37.488730" lon="-4.031841">
        <ele>705.044</ele>
        <time>2021-11-27T00:26:39Z</time>
      </trkpt>
      <trkpt lat="37.488684" lon="-4.031871">
        <ele>705.074</ele>
        <time>2021-11-27T00:27:19Z</time>
      </trkpt>
      <trkpt lat="37.488642" lon="-4.031908">
        <ele>704.053</ele>
        <time>2021-11-27T00:27:59Z</time>
      </trkpt>
      <trkpt lat="37.488622" lon="-4.031992">
        <ele>704.004</ele>
        <time>2021-11-27T00:28:39Z</time>
      </trkpt>
      <trkpt lat="37.488593" lon="-4.032073">
        <ele>703.014</ele>
        <time>2021-11-27T00:29:19Z</time>
      </trkpt>
      <trkpt lat="37.488528" lon="-4.032132">
        <ele>703.008</ele>
        <time>2021-11-27T00:29:59Z</time>
      </trkpt>
      <trkpt lat="37.488472" lon="-4.032199">
        <ele>703.073</ele>
        <time>2021-11-27T00:30:39Z</time>
      </trkpt>
      <trkpt lat="37.488394" lon="-4.032278">
        <ele>704.054</ele>
        <time>2021-11-27T00:31:19Z</time>
      </trkpt>
      <trkpt lat="37.488328" lon="-4.032386">
        <ele>702.011</ele>
        <time>2021-11-27T00:31:59Z</time>
      </trkpt>
      <trkpt lat="37.488281" lon="-4.032474">
        <ele>700.079</ele>
        <time>2021-11-27T00:32:39Z</time>
      </trkpt>
      <trkpt lat="37.488247" lon="-4.032548">
        <ele>698.032</ele>
        <time>2021-11-27T00:33:19Z</time>
      </trkpt>
      <trkpt lat="37.488208" lon="-4.032627">
        <ele>695.052</ele>
        <time>2021-11-27T00:33:59Z</time>
      </trkpt>
      <trkpt lat="37.488174" lon="-4.032683">
        <ele>694.020</ele>
        <time>2021-11-27T00:34:39Z</time>
      </trkpt>
      <trkpt lat="37.488169" lon="-4.032745">
        <ele>691.050</ele>
        <time>2021-11-27T00:35:19Z</time>
      </trkpt>
      <trkpt lat="37.488260" lon="-4.032802">
        <ele>689.033</ele>
        <time>2021-11-27T00:35:59Z</time>
      </trkpt>
      <trkpt lat="37.488359" lon="-4.032853">
        <ele>688.023</ele>
        <time>2021-11-27T00:36:39Z</time>
      </trkpt>
      <trkpt lat="37.488443" lon="-4.032943">
        <ele>688.015</ele>
        <time>2021-11-27T00:37:19Z</time>
      </trkpt>
      <trkpt lat="37.488512" lon="-4.033006">
        <ele>690.008</ele>
        <time>2021-11-27T00:37:59Z</time>
      </trkpt>
      <trkpt lat="37.488538" lon="-4.033128">
        <ele>691.071</ele>
        <time>2021-11-27T00:38:39Z</time>
      </trkpt>
      <trkpt lat="37.488593" lon="-4.033253">
        <ele>694.062</ele>
        <time>2021-11-27T00:39:19Z</time>
      </trkpt>
      <trkpt lat="37.488688" lon="-4.033426">
        <ele>696.079</ele>
        <time>2021-11-27T00:39:59Z</time>
      </trkpt>
      <trkpt lat="37.488721" lon="-4.033528">
        <ele>697.027</ele>
        <time>2021-11-27T00:40:39Z</time>
      </trkpt>
      <trkpt lat="37.488894" lon="-4.033759">
        <ele>699.080</ele>
        <time>2021-11-27T00:41:19Z</time>
      </trkpt>
      <trkpt lat="37.489057" lon="-4.033905">
        <ele>700.010</ele>
        <time>2021-11-27T00:41:59Z</time>
      </trkpt>
      <trkpt lat="37.489199" lon="-4.034036">
        <ele>701.058</ele>
        <time>2021-11-27T00:42:39Z</time>
      </trkpt>
      <trkpt lat="37.489296" lon="-4.034194">
        <ele>701.088</ele>
        <time>2021-11-27T00:43:19Z</time>
      </trkpt>
      <trkpt lat="37.489464" lon="-4.034262">
        <ele>701.031</ele>
        <time>2021-11-27T00:43:59Z</time>
      </trkpt>
      <trkpt lat="37.489593" lon="-4.034355">
        <ele>702.061</ele>
        <time>2021-11-27T00:44:39Z</time>
      </trkpt>
      <trkpt lat="37.489748" lon="-4.034479">
        <ele>704.007</ele>
        <time>2021-11-27T00:45:19Z</time>
      </trkpt>
      <trkpt lat="37.489853" lon="-4.034627">
        <ele>705.008</ele>
        <time>2021-11-27T00:45:59Z</time>
      </trkpt>
      <trkpt lat="37.489903" lon="-4.034813">
        <ele>705.061</ele>
        <time>2021-11-27T00:46:39Z</time>
      </trkpt>
      <trkpt lat="37.489922" lon="-4.034949">
        <ele>705.022</ele>
        <time>2021-11-27T00:47:19Z</time>
      </trkpt>
      <trkpt lat="37.489959" lon="-4.035079">
        <ele>705.099</ele>
        <time>2021-11-27T00:47:59Z</time>
      </trkpt>
      <trkpt lat="37.489959" lon="-4.035166">
        <ele>704.097</ele>
        <time>2021-11-27T00:48:39Z</time>
      </trkpt>
      <trkpt lat="37.489948" lon="-4.035258">
        <ele>704.090</ele>
        <time>2021-11-27T00:49:19Z</time>
      </trkpt>
      <trkpt lat="37.490017" lon="-4.035351">
        <ele>704.020</ele>
        <time>2021-11-27T00:49:59Z</time>
      </trkpt>
      <trkpt lat="37.490146" lon="-4.035439">
        <ele>703.048</ele>
        <time>2021-11-27T00:50:39Z</time>
      </trkpt>
      <trkpt lat="37.490268" lon="-4.035523">
        <ele>702.038</ele>
        <time>2021-11-27T00:51:19Z</time>
      </trkpt>
      <trkpt lat="37.490360" lon="-4.035599">
        <ele>702.099</ele>
        <time>2021-11-27T00:51:59Z</time>
      </trkpt>
      <trkpt lat="37.490559" lon="-4.035714">
        <ele>703.007</ele>
        <time>2021-11-27T00:52:39Z</time>
      </trkpt>
      <trkpt lat="37.490624" lon="-4.035784">
        <ele>704.027</ele>
        <time>2021-11-27T00:53:19Z</time>
      </trkpt>
      <trkpt lat="37.490718" lon="-4.035816">
        <ele>704.008</ele>
        <time>2021-11-27T00:53:59Z</time>
      </trkpt>
      <trkpt lat="37.490761" lon="-4.035853">
        <ele>704.067</ele>
        <time>2021-11-27T00:54:39Z</time>
      </trkpt>
      <trkpt lat="37.490759" lon="-4.035950">
        <ele>704.058</ele>
        <time>2021-11-27T00:55:19Z</time>
      </trkpt>
      <trkpt lat="37.490787" lon="-4.035986">
        <ele>704.095</ele>
        <time>2021-11-27T00:55:59Z</time>
      </trkpt>
      <trkpt lat="37.490826" lon="-4.036071">
        <ele>704.053</ele>
        <time>2021-11-27T00:56:39Z</time>
      </trkpt>
      <trkpt lat="37.490867" lon="-4.036182">
        <ele>704.066</ele>
        <time>2021-11-27T00:57:19Z</time>
      </trkpt>
      <trkpt lat="37.490901" lon="-4.036254">
        <ele>704.096</ele>
        <time>2021-11-27T00:57:59Z</time>
      </trkpt>
      <trkpt lat="37.490936" lon="-4.036330">
        <ele>704.054</ele>
        <time>2021-11-27T00:58:39Z</time>
      </trkpt>
      <trkpt lat="37.491013" lon="-4.036448">
        <ele>704.024</ele>
        <time>2021-11-27T00:59:19Z</time>
      </trkpt>
      <trkpt lat="37.491088" lon="-4.036599">
        <ele>704.029</ele>
        <time>2021-11-27T00:59:59Z</time>
      </trkpt>
      <trkpt lat="37.491169" lon="-4.036714">
        <ele>704.000</ele>
        <time>2021-11-27T01:00:39Z</time>
      </trkpt>
      <trkpt lat="37.491349" lon="-4.036874">
        <ele>703.020</ele>
        <time>2021-11-27T01:01:19Z</time>
      </trkpt>
      <trkpt lat="37.491406" lon="-4.037003">
        <ele>703.008</ele>
        <time>2021-11-27T01:01:59Z</time>
      </trkpt>
      <trkpt lat="37.491466" lon="-4.037090">
        <ele>703.040</ele>
        <time>2021-11-27T01:02:39Z</time>
      </trkpt>
      <trkpt lat="37.491534" lon="-4.037192">
        <ele>703.081</ele>
        <time>2021-11-27T01:03:19Z</time>
      </trkpt>
      <trkpt lat="37.491611" lon="-4.037288">
        <ele>704.018</ele>
        <time>2021-11-27T01:03:59Z</time>
      </trkpt>
      <trkpt lat="37.491707" lon="-4.037416">
        <ele>705.016</ele>
        <time>2021-11-27T01:04:39Z</time>
      </trkpt>
      <trkpt lat="37.491773" lon="-4.037504">
        <ele>705.099</ele>
        <time>2021-11-27T01:05:19Z</time>
      </trkpt>
      <trkpt lat="37.491835" lon="-4.037580">
        <ele>705.049</ele>
        <time>2021-11-27T01:05:59Z</time>
      </trkpt>
      <trkpt lat="37.491973" lon="-4.037722">
        <ele>704.067</ele>
        <time>2021-11-27T01:06:39Z</time>
      </trkpt>
      <trkpt lat="37.492030" lon="-4.037801">
        <ele>704.097</ele>
        <time>2021-11-27T01:07:19Z</time>
      </trkpt>
      <trkpt lat="37.492104" lon="-4.037901">
        <ele>704.093</ele>
        <time>2021-11-27T01:07:59Z</time>
      </trkpt>
      <trkpt lat="37.492150" lon="-4.037983">
        <ele>703.065</ele>
        <time>2021-11-27T01:08:39Z</time>
      </trkpt>
      <trkpt lat="37.492206" lon="-4.038057">
        <ele>703.021</ele>
        <time>2021-11-27T01:09:19Z</time>
      </trkpt>
      <trkpt lat="37.492254" lon="-4.038129">
        <ele>703.008</ele>
        <time>2021-11-27T01:09:59Z</time>
      </trkpt>
      <trkpt lat="37.492319" lon="-4.038211">
        <ele>702.077</ele>
        <time>2021-11-27T01:10:39Z</time>
      </trkpt>
      <trkpt lat="37.492409" lon="-4.038318">
        <ele>702.048</ele>
        <time>2021-11-27T01:11:19Z</time>
      </trkpt>
      <trkpt lat="37.492459" lon="-4.038517">
        <ele>701.035</ele>
        <time>2021-11-27T01:11:59Z</time>
      </trkpt>
      <trkpt lat="37.492484" lon="-4.038572">
        <ele>701.063</ele>
        <time>2021-11-27T01:12:39Z</time>
      </trkpt>
      <trkpt lat="37.492550" lon="-4.038625">
        <ele>701.096</ele>
        <time>2021-11-27T01:13:19Z</time>
      </trkpt>
      <trkpt lat="37.492612" lon="-4.038649">
        <ele>702.056</ele>
        <time>2021-11-27T01:13:59Z</time>
      </trkpt>
      <trkpt lat="37.492708" lon="-4.038666">
        <ele>701.014</ele>
        <time>2021-11-27T01:14:39Z</time>
      </trkpt>
      <trkpt lat="37.492782" lon="-4.038663">
        <ele>700.064</ele>
        <time>2021-11-27T01:15:19Z</time>
      </trkpt>
      <trkpt lat="37.492868" lon="-4.038654">
        <ele>700.033</ele>
        <time>2021-11-27T01:15:59Z</time>
      </trkpt>
      <trkpt lat="37.492924" lon="-4.038693">
        <ele>702.023</ele>
        <time>2021-11-27T01:16:39Z</time>
      </trkpt>
      <trkpt lat="37.492945" lon="-4.038791">
        <ele>702.015</ele>
        <time>2021-11-27T01:17:19Z</time>
      </trkpt>
      <trkpt lat="37.492983" lon="-4.038863">
        <ele>703.008</ele>
        <time>2021-11-27T01:17:59Z</time>
      </trkpt>
      <trkpt lat="37.493033" lon="-4.038908">
        <ele>703.011</ele>
        <time>2021-11-27T01:18:39Z</time>
      </trkpt>
      <trkpt lat="37.493108" lon="-4.039028">
        <ele>703.042</ele>
        <time>2021-11-27T01:19:19Z</time>
      </trkpt>
      <trkpt lat="37.493158" lon="-4.039111">
        <ele>703.089</ele>
        <time>2021-11-27T01:19:59Z</time>
      </trkpt>
      <trkpt lat="37.493199" lon="-4.039186">
        <ele>703.037</ele>
        <time>2021-11-27T01:20:39Z</time>
      </trkpt>
      <trkpt lat="37.493246" lon="-4.039282">
        <ele>703.030</ele>
        <time>2021-11-27T01:21:19Z</time>
      </trkpt>
      <trkpt lat="37.493294" lon="-4.039346">
        <ele>702.010</ele>
        <time>2021-11-27T01:21:59Z</time>
      </trkpt>
      <trkpt lat="37.493346" lon="-4.039428">
        <ele>702.028</ele>
        <time>2021-11-27T01:22:39Z</time>
      </trkpt>
      <trkpt lat="37.493413" lon="-4.039543">
        <ele>702.098</ele>
        <time>2021-11-27T01:23:19Z</time>
      </trkpt>
      <trkpt lat="37.493460" lon="-4.039612">
        <ele>702.035</ele>
        <time>2021-11-27T01:23:59Z</time>
      </trkpt>
      <trkpt lat="37.493501" lon="-4.039669">
        <ele>702.086</ele>
        <time>2021-11-27T01:24:39Z</time>
      </trkpt>
      <trkpt lat="37.493539" lon="-4.039734">
        <ele>702.014</ele>
        <time>2021-11-27T01:25:19Z</time>
      </trkpt>
      <trkpt lat="37.493580" lon="-4.039818">
        <ele>702.008</ele>
        <time>2021-11-27T01:25:59Z</time>
      </trkpt>
      <trkpt lat="37.493618" lon="-4.039897">
        <ele>702.031</ele>
        <time>2021-11-27T01:26:39Z</time>
      </trkpt>
      <trkpt lat="37.493659" lon="-4.040008">
        <ele>701.012</ele>
        <time>2021-11-27T01:27:19Z</time>
      </trkpt>
      <trkpt lat="37.493707" lon="-4.040096">
        <ele>701.039</ele>
        <time>2021-11-27T01:27:59Z</time>
      </trkpt>
      <trkpt lat="37.493783" lon="-4.040184">
        <ele>701.067</ele>
        <time>2021-11-27T01:28:39Z</time>
      </trkpt>
      <trkpt lat="37.493885" lon="-4.040287">
        <ele>701.040</ele>
        <time>2021-11-27T01:29:19Z</time>
      </trkpt>
      <trkpt lat="37.493939" lon="-4.040371">
        <ele>701.030</ele>
        <time>2021-11-27T01:29:59Z</time>
      </trkpt>
      <trkpt lat="37.494276" lon="-4.040872">
        <ele>700.088</ele>
        <time>2021-11-27T01:30:39Z</time>
      </trkpt>
      <trkpt lat="37.494748" lon="-4.041498">
        <ele>699.028</ele>
        <time>2021-11-27T01:31:19Z</time>
      </trkpt>
      <trkpt lat="37.494985" lon="-4.041720">
        <ele>693.055</ele>
        <time>2021-11-27T01:31:59Z</time>
      </trkpt>
      <trkpt lat="37.495263" lon="-4.042137">
        <ele>688.007</ele>
        <time>2021-11-27T01:32:39Z</time>
      </trkpt>
      <trkpt lat="37.495680" lon="-4.042735">
        <ele>685.017</ele>
        <time>2021-11-27T01:33:19Z</time>
      </trkpt>
      <trkpt lat="37.495819" lon="-4.043041">
        <ele>682.008</ele>
        <time>2021-11-27T01:33:59Z</time>
      </trkpt>
      <trkpt lat="37.495985" lon="-4.043346">
        <ele>680.033</ele>
        <time>2021-11-27T01:34:39Z</time>
      </trkpt>
      <trkpt lat="37.496263" lon="-4.043833">
        <ele>680.024</ele>
        <time>2021-11-27T01:35:19Z</time>
      </trkpt>
      <trkpt lat="37.496528" lon="-4.044181">
        <ele>679.071</ele>
        <time>2021-11-27T01:35:59Z</time>
      </trkpt>
      <trkpt lat="37.496875" lon="-4.044820">
        <ele>677.099</ele>
        <time>2021-11-27T01:36:39Z</time>
      </trkpt>
      <trkpt lat="37.497403" lon="-4.045640">
        <ele>676.072</ele>
        <time>2021-11-27T01:37:19Z</time>
      </trkpt>
      <trkpt lat="37.497848" lon="-4.046280">
        <ele>674.062</ele>
        <time>2021-11-27T01:37:59Z</time>
      </trkpt>
      <trkpt lat="37.498182" lon="-4.046836">
        <ele>674.020</ele>
        <time>2021-11-27T01:38:39Z</time>
      </trkpt>
      <trkpt lat="37.498474" lon="-4.047294">
        <ele>674.030</ele>
        <time>2021-11-27T01:39:19Z</time>
      </trkpt>
      <trkpt lat="37.498710" lon="-4.047711">
        <ele>676.099</ele>
        <time>2021-11-27T01:39:59Z</time>
      </trkpt>
      <trkpt lat="37.498985" lon="-4.048107">
        <ele>687.007</ele>
        <time>2021-11-27T01:40:39Z</time>
      </trkpt>
      <trkpt lat="37.499073" lon="-4.048167">
        <ele>687.027</ele>
        <time>2021-11-27T01:41:19Z</time>
      </trkpt>
      <trkpt lat="37.499154" lon="-4.048400">
        <ele>687.008</ele>
        <time>2021-11-27T01:41:59Z</time>
      </trkpt>
      <trkpt lat="37.499282" lon="-4.048549">
        <ele>687.077</ele>
        <time>2021-11-27T01:42:39Z</time>
      </trkpt>
      <trkpt lat="37.499464" lon="-4.048892">
        <ele>687.078</ele>
        <time>2021-11-27T01:43:19Z</time>
      </trkpt>
      <trkpt lat="37.499578" lon="-4.049108">
        <ele>687.045</ele>
        <time>2021-11-27T01:43:59Z</time>
      </trkpt>
      <trkpt lat="37.499739" lon="-4.049429">
        <ele>687.083</ele>
        <time>2021-11-27T01:44:39Z</time>
      </trkpt>
      <trkpt lat="37.499902" lon="-4.049793">
        <ele>687.096</ele>
        <time>2021-11-27T01:45:19Z</time>
      </trkpt>
      <trkpt lat="37.500187" lon="-4.050258">
        <ele>687.046</ele>
        <time>2021-11-27T01:45:59Z</time>
      </trkpt>
      <trkpt lat="37.500553" lon="-4.050952">
        <ele>687.084</ele>
        <time>2021-11-27T01:46:39Z</time>
      </trkpt>
      <trkpt lat="37.500881" lon="-4.051474">
        <ele>687.074</ele>
        <time>2021-11-27T01:47:19Z</time>
      </trkpt>
      <trkpt lat="37.501258" lon="-4.052126">
        <ele>687.066</ele>
        <time>2021-11-27T01:47:59Z</time>
      </trkpt>
      <trkpt lat="37.501437" lon="-4.052460">
        <ele>687.029</ele>
        <time>2021-11-27T01:48:39Z</time>
      </trkpt>
      <trkpt lat="37.501597" lon="-4.052732">
        <ele>688.021</ele>
        <time>2021-11-27T01:49:19Z</time>
      </trkpt>
      <trkpt lat="37.501668" lon="-4.052831">
        <ele>688.008</ele>
        <time>2021-11-27T01:49:59Z</time>
      </trkpt>
      <trkpt lat="37.502004" lon="-4.053322">
        <ele>689.054</ele>
        <time>2021-11-27T01:50:39Z</time>
      </trkpt>
      <trkpt lat="37.502319" lon="-4.053849">
        <ele>690.075</ele>
        <time>2021-11-27T01:51:19Z</time>
      </trkpt>
      <trkpt lat="37.502552" lon="-4.054234">
        <ele>691.032</ele>
        <time>2021-11-27T01:51:59Z</time>
      </trkpt>
      <trkpt lat="37.502806" lon="-4.054632">
        <ele>691.090</ele>
        <time>2021-11-27T01:52:39Z</time>
      </trkpt>
      <trkpt lat="37.503051" lon="-4.055003">
        <ele>691.063</ele>
        <time>2021-11-27T01:53:19Z</time>
      </trkpt>
      <trkpt lat="37.503240" lon="-4.055249">
        <ele>691.083</ele>
        <time>2021-11-27T01:53:59Z</time>
      </trkpt>
      <trkpt lat="37.503325" lon="-4.055387">
        <ele>691.071</ele>
        <time>2021-11-27T01:54:39Z</time>
      </trkpt>
      <trkpt lat="37.503476" lon="-4.055612">
        <ele>691.071</ele>
        <time>2021-11-27T01:55:19Z</time>
      </trkpt>
      <trkpt lat="37.503580" lon="-4.055814">
        <ele>691.097</ele>
        <time>2021-11-27T01:55:59Z</time>
      </trkpt>
      <trkpt lat="37.503664" lon="-4.056000">
        <ele>691.023</ele>
        <time>2021-11-27T01:56:39Z</time>
      </trkpt>
      <trkpt lat="37.503736" lon="-4.056228">
        <ele>691.025</ele>
        <time>2021-11-27T01:57:19Z</time>
      </trkpt>
      <trkpt lat="37.503775" lon="-4.056413">
        <ele>691.008</ele>
        <time>2021-11-27T01:57:59Z</time>
      </trkpt>
      <trkpt lat="37.503845" lon="-4.056582">
        <ele>691.057</ele>
        <time>2021-11-27T01:58:39Z</time>
      </trkpt>
      <trkpt lat="37.503992" lon="-4.056826">
        <ele>691.018</ele>
        <time>2021-11-27T01:59:19Z</time>
      </trkpt>
      <trkpt lat="37.504073" lon="-4.056912">
        <ele>691.075</ele>
        <time>2021-11-27T01:59:59Z</time>
      </trkpt>
      <trkpt lat="37.504150" lon="-4.057086">
        <ele>692.013</ele>
        <time>2021-11-27T02:00:39Z</time>
      </trkpt>
      <trkpt lat="37.505508" lon="-4.056607">
        <ele>697.076</ele>
        <time>2020-05-21T09:19:33Z</time>
      </trkpt>
      <trkpt lat="37.505580" lon="-4.056547">
        <ele>698.090</ele>
        <time>2020-05-21T09:19:43Z</time>
      </trkpt>
      <trkpt lat="37.505584" lon="-4.056452">
        <ele>699.019</ele>
        <time>2020-05-21T09:19:52Z</time>
      </trkpt>
      <trkpt lat="37.505575" lon="-4.056405">
        <ele>699.008</ele>
        <time>2020-05-21T09:19:56Z</time>
      </trkpt>
      <trkpt lat="37.505547" lon="-4.056260">
        <ele>700.085</ele>
        <time>2020-05-21T09:20:09Z</time>
      </trkpt>
      <trkpt lat="37.505554" lon="-4.056131">
        <ele>701.036</ele>
        <time>2020-05-21T09:20:21Z</time>
      </trkpt>
      <trkpt lat="37.505555" lon="-4.055986">
        <ele>701.083</ele>
        <time>2020-05-21T09:20:34Z</time>
      </trkpt>
      <trkpt lat="37.505560" lon="-4.055978">
        <ele>701.061</ele>
        <time>2020-05-21T09:20:35Z</time>
      </trkpt>
      <trkpt lat="37.505607" lon="-4.055944">
        <ele>701.544</ele>
        <time>2020-05-21T09:20:41Z</time>
      </trkpt>
      <trkpt lat="37.505728" lon="-4.055980">
        <ele>701.055</ele>
        <time>2020-05-21T09:20:56Z</time>
      </trkpt>
      <trkpt lat="37.505728" lon="-4.055983">
        <ele>701.056</ele>
        <time>2020-05-21T09:20:56Z</time>
      </trkpt>
      <trkpt lat="37.505828" lon="-4.056028">
        <ele>699.725</ele>
        <time>2020-05-21T09:21:08Z</time>
      </trkpt>
      <trkpt lat="37.505826" lon="-4.056015">
        <ele>699.921</ele>
        <time>2020-05-21T09:21:09Z</time>
      </trkpt>
      <trkpt lat="37.505818" lon="-4.055959">
        <ele>700.141</ele>
        <time>2020-05-21T09:21:14Z</time>
      </trkpt>
      <trkpt lat="37.505816" lon="-4.055899">
        <ele>700.105</ele>
        <time>2020-05-21T09:21:20Z</time>
      </trkpt>
      <trkpt lat="37.505815" lon="-4.055829">
        <ele>700.308</ele>
        <time>2020-05-21T09:21:26Z</time>
      </trkpt>
      <trkpt lat="37.505813" lon="-4.055743">
        <ele>701.250</ele>
        <time>2020-05-21T09:21:34Z</time>
      </trkpt>
      <trkpt lat="37.505814" lon="-4.055644">
        <ele>702.051</ele>
        <time>2020-05-21T09:21:43Z</time>
      </trkpt>
      <trkpt lat="37.505812" lon="-4.055547">
        <ele>702.228</ele>
        <time>2020-05-21T09:21:52Z</time>
      </trkpt>
      <trkpt lat="37.505809" lon="-4.055453">
        <ele>703.286</ele>
        <time>2020-05-21T09:22:00Z</time>
      </trkpt>
      <trkpt lat="37.505810" lon="-4.055362">
        <ele>704.099</ele>
        <time>2020-05-21T09:22:08Z</time>
      </trkpt>
      <trkpt lat="37.505813" lon="-4.055273">
        <ele>704.220</ele>
        <time>2020-05-21T09:22:17Z</time>
      </trkpt>
      <trkpt lat="37.505817" lon="-4.055187">
        <ele>705.151</ele>
        <time>2020-05-21T09:22:24Z</time>
      </trkpt>
      <trkpt lat="37.505822" lon="-4.055113">
        <ele>705.170</ele>
        <time>2020-05-21T09:22:31Z</time>
      </trkpt>
      <trkpt lat="37.505828" lon="-4.055046">
        <ele>706.589</ele>
        <time>2020-05-21T09:22:37Z</time>
      </trkpt>
      <trkpt lat="37.505837" lon="-4.054980">
        <ele>707.306</ele>
        <time>2020-05-21T09:22:43Z</time>
      </trkpt>
      <trkpt lat="37.505849" lon="-4.054921">
        <ele>708.526</ele>
        <time>2020-05-21T09:22:49Z</time>
      </trkpt>
      <trkpt lat="37.505859" lon="-4.054870">
        <ele>709.108</ele>
        <time>2020-05-21T09:22:54Z</time>
      </trkpt>
      <trkpt lat="37.505876" lon="-4.054820">
        <ele>710.556</ele>
        <time>2020-05-21T09:22:59Z</time>
      </trkpt>
      <trkpt lat="37.505897" lon="-4.054771">
        <ele>711.797</ele>
        <time>2020-05-21T09:23:04Z</time>
      </trkpt>
      <trkpt lat="37.505917" lon="-4.054726">
        <ele>712.494</ele>
        <time>2020-05-21T09:23:09Z</time>
      </trkpt>
      <trkpt lat="37.505934" lon="-4.054679">
        <ele>713.062</ele>
        <time>2020-05-21T09:23:14Z</time>
      </trkpt>
      <trkpt lat="37.505945" lon="-4.054628">
        <ele>713.895</ele>
        <time>2020-05-21T09:23:18Z</time>
      </trkpt>
      <trkpt lat="37.505959" lon="-4.054577">
        <ele>714.426</ele>
        <time>2020-05-21T09:23:23Z</time>
      </trkpt>
      <trkpt lat="37.505978" lon="-4.054533">
        <ele>715.767</ele>
        <time>2020-05-21T09:23:28Z</time>
      </trkpt>
      <trkpt lat="37.505999" lon="-4.054499">
        <ele>716.836</ele>
        <time>2020-05-21T09:23:32Z</time>
      </trkpt>
      <trkpt lat="37.506023" lon="-4.054471">
        <ele>717.659</ele>
        <time>2020-05-21T09:23:36Z</time>
      </trkpt>
      <trkpt lat="37.506053" lon="-4.054442">
        <ele>718.003</ele>
        <time>2020-05-21T09:23:40Z</time>
      </trkpt>
      <trkpt lat="37.506086" lon="-4.054411">
        <ele>718.623</ele>
        <time>2020-05-21T09:23:45Z</time>
      </trkpt>
      <trkpt lat="37.506121" lon="-4.054379">
        <ele>719.708</ele>
        <time>2020-05-21T09:23:50Z</time>
      </trkpt>
      <trkpt lat="37.506156" lon="-4.054346">
        <ele>721.093</ele>
        <time>2020-05-21T09:23:55Z</time>
      </trkpt>
      <trkpt lat="37.506184" lon="-4.054322">
        <ele>721.634</ele>
        <time>2020-05-21T09:23:59Z</time>
      </trkpt>
      <trkpt lat="37.506213" lon="-4.054300">
        <ele>722.071</ele>
        <time>2020-05-21T09:24:03Z</time>
      </trkpt>
      <trkpt lat="37.506248" lon="-4.054276">
        <ele>722.659</ele>
        <time>2020-05-21T09:24:08Z</time>
      </trkpt>
      <trkpt lat="37.506283" lon="-4.054255">
        <ele>723.452</ele>
        <time>2020-05-21T09:24:12Z</time>
      </trkpt>
      <trkpt lat="37.506321" lon="-4.054241">
        <ele>724.313</ele>
        <time>2020-05-21T09:24:17Z</time>
      </trkpt>
      <trkpt lat="37.506364" lon="-4.054234">
        <ele>724.944</ele>
        <time>2020-05-21T09:24:22Z</time>
      </trkpt>
      <trkpt lat="37.506408" lon="-4.054227">
        <ele>725.813</ele>
        <time>2020-05-21T09:24:27Z</time>
      </trkpt>
      <trkpt lat="37.506454" lon="-4.054223">
        <ele>726.685</ele>
        <time>2020-05-21T09:24:32Z</time>
      </trkpt>
      <trkpt lat="37.506502" lon="-4.054224">
        <ele>726.689</ele>
        <time>2020-05-21T09:24:38Z</time>
      </trkpt>
      <trkpt lat="37.506554" lon="-4.054230">
        <ele>727.317</ele>
        <time>2020-05-21T09:24:44Z</time>
      </trkpt>
      <trkpt lat="37.506603" lon="-4.054233">
        <ele>727.208</ele>
        <time>2020-05-21T09:24:49Z</time>
      </trkpt>
      <trkpt lat="37.506650" lon="-4.054231">
        <ele>728.036</ele>
        <time>2020-05-21T09:24:55Z</time>
      </trkpt>
      <trkpt lat="37.506692" lon="-4.054225">
        <ele>728.597</ele>
        <time>2020-05-21T09:24:59Z</time>
      </trkpt>
      <trkpt lat="37.506729" lon="-4.054222">
        <ele>729.094</ele>
        <time>2020-05-21T09:25:04Z</time>
      </trkpt>
      <trkpt lat="37.506763" lon="-4.054224">
        <ele>730.762</ele>
        <time>2020-05-21T09:25:08Z</time>
      </trkpt>
      <trkpt lat="37.506801" lon="-4.054225">
        <ele>732.365</ele>
        <time>2020-05-21T09:25:13Z</time>
      </trkpt>
      <trkpt lat="37.506844" lon="-4.054224">
        <ele>733.966</ele>
        <time>2020-05-21T09:25:18Z</time>
      </trkpt>
      <trkpt lat="37.506888" lon="-4.054226">
        <ele>735.397</ele>
        <time>2020-05-21T09:25:23Z</time>
      </trkpt>
      <trkpt lat="37.506933" lon="-4.054239">
        <ele>736.086</ele>
        <time>2020-05-21T09:25:28Z</time>
      </trkpt>
      <trkpt lat="37.506972" lon="-4.054265">
        <ele>736.451</ele>
        <time>2020-05-21T09:25:33Z</time>
      </trkpt>
      <trkpt lat="37.507006" lon="-4.054299">
        <ele>737.101</ele>
        <time>2020-05-21T09:25:38Z</time>
      </trkpt>
      <trkpt lat="37.507034" lon="-4.054336">
        <ele>738.211</ele>
        <time>2020-05-21T09:25:43Z</time>
      </trkpt>
      <trkpt lat="37.507057" lon="-4.054376">
        <ele>739.108</ele>
        <time>2020-05-21T09:25:48Z</time>
      </trkpt>
      <trkpt lat="37.507080" lon="-4.054423">
        <ele>739.563</ele>
        <time>2020-05-21T09:25:53Z</time>
      </trkpt>
      <trkpt lat="37.507109" lon="-4.054468">
        <ele>739.844</ele>
        <time>2020-05-21T09:25:58Z</time>
      </trkpt>
      <trkpt lat="37.507149" lon="-4.054510">
        <ele>740.841</ele>
        <time>2020-05-21T09:26:04Z</time>
      </trkpt>
      <trkpt lat="37.507194" lon="-4.054548">
        <ele>741.349</ele>
        <time>2020-05-21T09:26:10Z</time>
      </trkpt>
      <trkpt lat="37.507242" lon="-4.054585">
        <ele>742.412</ele>
        <time>2020-05-21T09:26:17Z</time>
      </trkpt>
      <trkpt lat="37.507292" lon="-4.054618">
        <ele>743.243</ele>
        <time>2020-05-21T09:26:23Z</time>
      </trkpt>
      <trkpt lat="37.507342" lon="-4.054653">
        <ele>743.324</ele>
        <time>2020-05-21T09:26:30Z</time>
      </trkpt>
      <trkpt lat="37.507389" lon="-4.054683">
        <ele>743.863</ele>
        <time>2020-05-21T09:26:36Z</time>
      </trkpt>
      <trkpt lat="37.507438" lon="-4.054711">
        <ele>744.718</ele>
        <time>2020-05-21T09:26:42Z</time>
      </trkpt>
      <trkpt lat="37.507490" lon="-4.054732">
        <ele>745.198</ele>
        <time>2020-05-21T09:26:48Z</time>
      </trkpt>
      <trkpt lat="37.507539" lon="-4.054740">
        <ele>745.217</ele>
        <time>2020-05-21T09:26:54Z</time>
      </trkpt>
      <trkpt lat="37.507585" lon="-4.054734">
        <ele>744.808</ele>
        <time>2020-05-21T09:26:59Z</time>
      </trkpt>
      <trkpt lat="37.507630" lon="-4.054716">
        <ele>744.999</ele>
        <time>2020-05-21T09:27:04Z</time>
      </trkpt>
      <trkpt lat="37.507673" lon="-4.054689">
        <ele>745.040</ele>
        <time>2020-05-21T09:27:10Z</time>
      </trkpt>
      <trkpt lat="37.507714" lon="-4.054663">
        <ele>745.047</ele>
        <time>2020-05-21T09:27:15Z</time>
      </trkpt>
      <trkpt lat="37.507755" lon="-4.054646">
        <ele>745.795</ele>
        <time>2020-05-21T09:27:20Z</time>
      </trkpt>
      <trkpt lat="37.507803" lon="-4.054643">
        <ele>746.688</ele>
        <time>2020-05-21T09:27:25Z</time>
      </trkpt>
      <trkpt lat="37.507856" lon="-4.054646">
        <ele>746.979</ele>
        <time>2020-05-21T09:27:31Z</time>
      </trkpt>
      <trkpt lat="37.507914" lon="-4.054657">
        <ele>747.260</ele>
        <time>2020-05-21T09:27:38Z</time>
      </trkpt>
      <trkpt lat="37.507971" lon="-4.054663">
        <ele>747.149</ele>
        <time>2020-05-21T09:27:45Z</time>
      </trkpt>
      <trkpt lat="37.508029" lon="-4.054655">
        <ele>747.551</ele>
        <time>2020-05-21T09:27:51Z</time>
      </trkpt>
      <trkpt lat="37.508085" lon="-4.054635">
        <ele>748.201</ele>
        <time>2020-05-21T09:27:58Z</time>
      </trkpt>
      <trkpt lat="37.508133" lon="-4.054611">
        <ele>748.411</ele>
        <time>2020-05-21T09:28:04Z</time>
      </trkpt>
      <trkpt lat="37.508171" lon="-4.054583">
        <ele>749.108</ele>
        <time>2020-05-21T09:28:09Z</time>
      </trkpt>
      <trkpt lat="37.508196" lon="-4.054547">
        <ele>749.343</ele>
        <time>2020-05-21T09:28:13Z</time>
      </trkpt>
      <trkpt lat="37.508219" lon="-4.054498">
        <ele>749.984</ele>
        <time>2020-05-21T09:28:18Z</time>
      </trkpt>
      <trkpt lat="37.508235" lon="-4.054434">
        <ele>749.581</ele>
        <time>2020-05-21T09:28:25Z</time>
      </trkpt>
      <trkpt lat="37.508246" lon="-4.054365">
        <ele>749.639</ele>
        <time>2020-05-21T09:28:31Z</time>
      </trkpt>
      <trkpt lat="37.508254" lon="-4.054287">
        <ele>749.882</ele>
        <time>2020-05-21T09:28:38Z</time>
      </trkpt>
      <trkpt lat="37.508259" lon="-4.054204">
        <ele>750.533</ele>
        <time>2020-05-21T09:28:46Z</time>
      </trkpt>
      <trkpt lat="37.508262" lon="-4.054128">
        <ele>750.474</ele>
        <time>2020-05-21T09:28:52Z</time>
      </trkpt>
      <trkpt lat="37.508260" lon="-4.054066">
        <ele>750.723</ele>
        <time>2020-05-21T09:28:58Z</time>
      </trkpt>
      <trkpt lat="37.508256" lon="-4.054007">
        <ele>751.485</ele>
        <time>2020-05-21T09:29:03Z</time>
      </trkpt>
      <trkpt lat="37.508259" lon="-4.053946">
        <ele>752.789</ele>
        <time>2020-05-21T09:29:09Z</time>
      </trkpt>
      <trkpt lat="37.508274" lon="-4.053888">
        <ele>753.917</ele>
        <time>2020-05-21T09:29:15Z</time>
      </trkpt>
      <trkpt lat="37.508294" lon="-4.053833">
        <ele>755.108</ele>
        <time>2020-05-21T09:29:20Z</time>
      </trkpt>
      <trkpt lat="37.508316" lon="-4.053786">
        <ele>755.436</ele>
        <time>2020-05-21T09:29:25Z</time>
      </trkpt>
      <trkpt lat="37.508344" lon="-4.053743">
        <ele>756.547</ele>
        <time>2020-05-21T09:29:31Z</time>
      </trkpt>
      <trkpt lat="37.508371" lon="-4.053709">
        <ele>756.944</ele>
        <time>2020-05-21T09:29:35Z</time>
      </trkpt>
      <trkpt lat="37.508392" lon="-4.053681">
        <ele>757.272</ele>
        <time>2020-05-21T09:29:38Z</time>
      </trkpt>
      <trkpt lat="37.508413" lon="-4.053655">
        <ele>757.495</ele>
        <time>2020-05-21T09:29:42Z</time>
      </trkpt>
      <trkpt lat="37.508436" lon="-4.053627">
        <ele>757.616</ele>
        <time>2020-05-21T09:29:45Z</time>
      </trkpt>
      <trkpt lat="37.508458" lon="-4.053592">
        <ele>757.277</ele>
        <time>2020-05-21T09:29:49Z</time>
      </trkpt>
      <trkpt lat="37.508474" lon="-4.053552">
        <ele>757.426</ele>
        <time>2020-05-21T09:29:53Z</time>
      </trkpt>
      <trkpt lat="37.508478" lon="-4.053507">
        <ele>757.467</ele>
        <time>2020-05-21T09:29:58Z</time>
      </trkpt>
      <trkpt lat="37.508480" lon="-4.053454">
        <ele>756.581</ele>
        <time>2020-05-21T09:30:02Z</time>
      </trkpt>
      <trkpt lat="37.508480" lon="-4.053396">
        <ele>756.319</ele>
        <time>2020-05-21T09:30:08Z</time>
      </trkpt>
      <trkpt lat="37.508482" lon="-4.053332">
        <ele>755.308</ele>
        <time>2020-05-21T09:30:14Z</time>
      </trkpt>
      <trkpt lat="37.508487" lon="-4.053262">
        <ele>754.834</ele>
        <time>2020-05-21T09:30:20Z</time>
      </trkpt>
      <trkpt lat="37.508496" lon="-4.053188">
        <ele>755.165</ele>
        <time>2020-05-21T09:30:27Z</time>
      </trkpt>
      <trkpt lat="37.508510" lon="-4.053115">
        <ele>754.242</ele>
        <time>2020-05-21T09:30:34Z</time>
      </trkpt>
      <trkpt lat="37.508526" lon="-4.053039">
        <ele>753.060</ele>
        <time>2020-05-21T09:30:41Z</time>
      </trkpt>
      <trkpt lat="37.508542" lon="-4.052963">
        <ele>753.483</ele>
        <time>2020-05-21T09:30:48Z</time>
      </trkpt>
      <trkpt lat="37.508563" lon="-4.052881">
        <ele>753.244</ele>
        <time>2020-05-21T09:30:56Z</time>
      </trkpt>
      <trkpt lat="37.508584" lon="-4.052801">
        <ele>754.215</ele>
        <time>2020-05-21T09:31:03Z</time>
      </trkpt>
      <trkpt lat="37.508599" lon="-4.052718">
        <ele>754.694</ele>
        <time>2020-05-21T09:31:11Z</time>
      </trkpt>
      <trkpt lat="37.508608" lon="-4.052630">
        <ele>755.681</ele>
        <time>2020-05-21T09:31:19Z</time>
      </trkpt>
      <trkpt lat="37.508616" lon="-4.052538">
        <ele>755.861</ele>
        <time>2020-05-21T09:31:27Z</time>
      </trkpt>
      <trkpt lat="37.508628" lon="-4.052439">
        <ele>755.517</ele>
        <time>2020-05-21T09:31:37Z</time>
      </trkpt>
      <trkpt lat="37.508635" lon="-4.052332">
        <ele>755.208</ele>
        <time>2020-05-21T09:31:46Z</time>
      </trkpt>
      <trkpt lat="37.508645" lon="-4.052219">
        <ele>755.076</ele>
        <time>2020-05-21T09:31:57Z</time>
      </trkpt>
      <trkpt lat="37.508663" lon="-4.052101">
        <ele>756.147</ele>
        <time>2020-05-21T09:32:07Z</time>
      </trkpt>
      <trkpt lat="37.508663" lon="-4.052101">
        <ele>756.184</ele>
        <time>2020-05-21T09:32:07Z</time>
      </trkpt>
      <trkpt lat="37.508712" lon="-4.051856">
        <ele>759.072</ele>
        <time>2020-05-21T09:32:30Z</time>
      </trkpt>
      <trkpt lat="37.508745" lon="-4.051742">
        <ele>760.355</ele>
        <time>2020-05-21T09:32:41Z</time>
      </trkpt>
      <trkpt lat="37.508773" lon="-4.051639">
        <ele>759.986</ele>
        <time>2020-05-21T09:32:51Z</time>
      </trkpt>
      <trkpt lat="37.508790" lon="-4.051548">
        <ele>760.727</ele>
        <time>2020-05-21T09:33:00Z</time>
      </trkpt>
      <trkpt lat="37.508802" lon="-4.051466">
        <ele>762.276</ele>
        <time>2020-05-21T09:33:08Z</time>
      </trkpt>
      <trkpt lat="37.508809" lon="-4.051391">
        <ele>763.164</ele>
        <time>2020-05-21T09:33:14Z</time>
      </trkpt>
      <trkpt lat="37.508815" lon="-4.051316">
        <ele>764.806</ele>
        <time>2020-05-21T09:33:21Z</time>
      </trkpt>
      <trkpt lat="37.508818" lon="-4.051248">
        <ele>765.416</ele>
        <time>2020-05-21T09:33:28Z</time>
      </trkpt>
      <trkpt lat="37.508825" lon="-4.051181">
        <ele>767.008</ele>
        <time>2020-05-21T09:33:34Z</time>
      </trkpt>
      <trkpt lat="37.508835" lon="-4.051115">
        <ele>768.214</ele>
        <time>2020-05-21T09:33:40Z</time>
      </trkpt>
      <trkpt lat="37.508845" lon="-4.051056">
        <ele>769.035</ele>
        <time>2020-05-21T09:33:46Z</time>
      </trkpt>
      <trkpt lat="37.508858" lon="-4.050989">
        <ele>768.852</ele>
        <time>2020-05-21T09:33:52Z</time>
      </trkpt>
      <trkpt lat="37.508872" lon="-4.050914">
        <ele>769.980</ele>
        <time>2020-05-21T09:33:59Z</time>
      </trkpt>
      <trkpt lat="37.508885" lon="-4.050830">
        <ele>771.273</ele>
        <time>2020-05-21T09:34:07Z</time>
      </trkpt>
      <trkpt lat="37.508895" lon="-4.050741">
        <ele>772.914</ele>
        <time>2020-05-21T09:34:15Z</time>
      </trkpt>
      <trkpt lat="37.508905" lon="-4.050644">
        <ele>775.015</ele>
        <time>2020-05-21T09:34:24Z</time>
      </trkpt>
      <trkpt lat="37.508916" lon="-4.050548">
        <ele>776.464</ele>
        <time>2020-05-21T09:34:33Z</time>
      </trkpt>
      <trkpt lat="37.508927" lon="-4.050454">
        <ele>776.775</ele>
        <time>2020-05-21T09:34:42Z</time>
      </trkpt>
      <trkpt lat="37.508942" lon="-4.050360">
        <ele>777.028</ele>
        <time>2020-05-21T09:34:50Z</time>
      </trkpt>
      <trkpt lat="37.508956" lon="-4.050269">
        <ele>778.820</ele>
        <time>2020-05-21T09:34:59Z</time>
      </trkpt>
      <trkpt lat="37.508972" lon="-4.050182">
        <ele>780.208</ele>
        <time>2020-05-21T09:35:07Z</time>
      </trkpt>
      <trkpt lat="37.508989" lon="-4.050104">
        <ele>780.865</ele>
        <time>2020-05-21T09:35:14Z</time>
      </trkpt>
      <trkpt lat="37.509007" lon="-4.050024">
        <ele>782.836</ele>
        <time>2020-05-21T09:35:22Z</time>
      </trkpt>
      <trkpt lat="37.509027" lon="-4.049936">
        <ele>783.243</ele>
        <time>2020-05-21T09:35:30Z</time>
      </trkpt>
      <trkpt lat="37.509051" lon="-4.049836">
        <ele>785.111</ele>
        <time>2020-05-21T09:35:40Z</time>
      </trkpt>
      <trkpt lat="37.509074" lon="-4.049739">
        <ele>786.584</ele>
        <time>2020-05-21T09:35:49Z</time>
      </trkpt>
      <trkpt lat="37.509097" lon="-4.049651">
        <ele>787.015</ele>
        <time>2020-05-21T09:35:58Z</time>
      </trkpt>
      <trkpt lat="37.509119" lon="-4.049574">
        <ele>788.866</ele>
        <time>2020-05-21T09:36:05Z</time>
      </trkpt>
      <trkpt lat="37.509138" lon="-4.049505">
        <ele>790.235</ele>
        <time>2020-05-21T09:36:12Z</time>
      </trkpt>
      <trkpt lat="37.509159" lon="-4.049437">
        <ele>790.468</ele>
        <time>2020-05-21T09:36:19Z</time>
      </trkpt>
      <trkpt lat="37.509183" lon="-4.049374">
        <ele>791.042</ele>
        <time>2020-05-21T09:36:25Z</time>
      </trkpt>
      <trkpt lat="37.509204" lon="-4.049317">
        <ele>790.826</ele>
        <time>2020-05-21T09:36:31Z</time>
      </trkpt>
      <trkpt lat="37.509221" lon="-4.049264">
        <ele>790.808</ele>
        <time>2020-05-21T09:36:36Z</time>
      </trkpt>
      <trkpt lat="37.509237" lon="-4.049208">
        <ele>791.454</ele>
        <time>2020-05-21T09:36:41Z</time>
      </trkpt>
      <trkpt lat="37.509255" lon="-4.049148">
        <ele>791.535</ele>
        <time>2020-05-21T09:36:47Z</time>
      </trkpt>
      <trkpt lat="37.509274" lon="-4.049081">
        <ele>791.462</ele>
        <time>2020-05-21T09:36:54Z</time>
      </trkpt>
      <trkpt lat="37.509288" lon="-4.049014">
        <ele>793.280</ele>
        <time>2020-05-21T09:37:00Z</time>
      </trkpt>
      <trkpt lat="37.509300" lon="-4.048949">
        <ele>794.273</ele>
        <time>2020-05-21T09:37:06Z</time>
      </trkpt>
      <trkpt lat="37.509306" lon="-4.048885">
        <ele>795.354</ele>
        <time>2020-05-21T09:37:12Z</time>
      </trkpt>
      <trkpt lat="37.509308" lon="-4.048821">
        <ele>795.855</ele>
        <time>2020-05-21T09:37:18Z</time>
      </trkpt>
      <trkpt lat="37.509311" lon="-4.048759">
        <ele>797.064</ele>
        <time>2020-05-21T09:37:24Z</time>
      </trkpt>
      <trkpt lat="37.509314" lon="-4.048695">
        <ele>798.374</ele>
        <time>2020-05-21T09:37:30Z</time>
      </trkpt>
      <trkpt lat="37.509324" lon="-4.048620">
        <ele>798.756</ele>
        <time>2020-05-21T09:37:37Z</time>
      </trkpt>
      <trkpt lat="37.509337" lon="-4.048540">
        <ele>799.621</ele>
        <time>2020-05-21T09:37:44Z</time>
      </trkpt>
      <trkpt lat="37.509341" lon="-4.048469">
        <ele>800.408</ele>
        <time>2020-05-21T09:37:50Z</time>
      </trkpt>
      <trkpt lat="37.509343" lon="-4.048389">
        <ele>801.185</ele>
        <time>2020-05-21T09:37:58Z</time>
      </trkpt>
      <trkpt lat="37.509359" lon="-4.048289">
        <ele>802.746</ele>
        <time>2020-05-21T09:38:07Z</time>
      </trkpt>
      <trkpt lat="37.509382" lon="-4.048175">
        <ele>803.523</ele>
        <time>2020-05-21T09:38:18Z</time>
      </trkpt>
      <trkpt lat="37.509405" lon="-4.048062">
        <ele>805.121</ele>
        <time>2020-05-21T09:38:28Z</time>
      </trkpt>
      <trkpt lat="37.509433" lon="-4.047950">
        <ele>805.454</ele>
        <time>2020-05-21T09:38:39Z</time>
      </trkpt>
      <trkpt lat="37.509464" lon="-4.047837">
        <ele>805.565</ele>
        <time>2020-05-21T09:38:50Z</time>
      </trkpt>
      <trkpt lat="37.509501" lon="-4.047710">
        <ele>804.516</ele>
        <time>2020-05-21T09:39:02Z</time>
      </trkpt>
      <trkpt lat="37.509530" lon="-4.047595">
        <ele>806.235</ele>
        <time>2020-05-21T09:39:13Z</time>
      </trkpt>
      <trkpt lat="37.509559" lon="-4.047478">
        <ele>807.469</ele>
        <time>2020-05-21T09:39:24Z</time>
      </trkpt>
      <trkpt lat="37.509581" lon="-4.047365">
        <ele>809.404</ele>
        <time>2020-05-21T09:39:35Z</time>
      </trkpt>
      <trkpt lat="37.509595" lon="-4.047263">
        <ele>810.124</ele>
        <time>2020-05-21T09:39:44Z</time>
      </trkpt>
      <trkpt lat="37.509609" lon="-4.047162">
        <ele>811.308</ele>
        <time>2020-05-21T09:39:54Z</time>
      </trkpt>
      <trkpt lat="37.509623" lon="-4.047071">
        <ele>811.974</ele>
        <time>2020-05-21T09:40:02Z</time>
      </trkpt>
      <trkpt lat="37.509643" lon="-4.046983">
        <ele>812.895</ele>
        <time>2020-05-21T09:40:10Z</time>
      </trkpt>
      <trkpt lat="37.509676" lon="-4.046871">
        <ele>812.982</ele>
        <time>2020-05-21T09:40:21Z</time>
      </trkpt>
      <trkpt lat="37.509704" lon="-4.046771">
        <ele>814.170</ele>
        <time>2020-05-21T09:40:31Z</time>
      </trkpt>
      <trkpt lat="37.509737" lon="-4.046669">
        <ele>812.783</ele>
        <time>2020-05-21T09:40:41Z</time>
      </trkpt>
      <trkpt lat="37.509767" lon="-4.046571">
        <ele>812.364</ele>
        <time>2020-05-21T09:40:50Z</time>
      </trkpt>
      <trkpt lat="37.509797" lon="-4.046467">
        <ele>812.895</ele>
        <time>2020-05-21T09:41:00Z</time>
      </trkpt>
      <trkpt lat="37.509829" lon="-4.046358">
        <ele>813.934</ele>
        <time>2020-05-21T09:41:11Z</time>
      </trkpt>
      <trkpt lat="37.509864" lon="-4.046241">
        <ele>814.549</ele>
        <time>2020-05-21T09:41:22Z</time>
      </trkpt>
      <trkpt lat="37.509899" lon="-4.046120">
        <ele>815.702</ele>
        <time>2020-05-21T09:41:34Z</time>
      </trkpt>
      <trkpt lat="37.509924" lon="-4.046014">
        <ele>816.222</ele>
        <time>2020-05-21T09:41:44Z</time>
      </trkpt>
      <trkpt lat="37.509946" lon="-4.045912">
        <ele>817.908</ele>
        <time>2020-05-21T09:41:54Z</time>
      </trkpt>
      <trkpt lat="37.509970" lon="-4.045808">
        <ele>817.162</ele>
        <time>2020-05-21T09:42:04Z</time>
      </trkpt>
      <trkpt lat="37.509994" lon="-4.045698">
        <ele>817.643</ele>
        <time>2020-05-21T09:42:14Z</time>
      </trkpt>
      <trkpt lat="37.510014" lon="-4.045589">
        <ele>818.350</ele>
        <time>2020-05-21T09:42:24Z</time>
      </trkpt>
      <trkpt lat="37.510027" lon="-4.045480">
        <ele>820.758</ele>
        <time>2020-05-21T09:42:34Z</time>
      </trkpt>
      <trkpt lat="37.510039" lon="-4.045374">
        <ele>822.191</ele>
        <time>2020-05-21T09:42:44Z</time>
      </trkpt>
      <trkpt lat="37.510052" lon="-4.045269">
        <ele>824.142</ele>
        <time>2020-05-21T09:42:54Z</time>
      </trkpt>
      <trkpt lat="37.510057" lon="-4.045173">
        <ele>825.093</ele>
        <time>2020-05-21T09:43:03Z</time>
      </trkpt>
      <trkpt lat="37.510065" lon="-4.045067">
        <ele>826.132</ele>
        <time>2020-05-21T09:43:12Z</time>
      </trkpt>
      <trkpt lat="37.510080" lon="-4.044958">
        <ele>827.088</ele>
        <time>2020-05-21T09:43:22Z</time>
      </trkpt>
      <trkpt lat="37.510095" lon="-4.044854">
        <ele>828.824</ele>
        <time>2020-05-21T09:43:32Z</time>
      </trkpt>
      <trkpt lat="37.510108" lon="-4.044751">
        <ele>829.826</ele>
        <time>2020-05-21T09:43:41Z</time>
      </trkpt>
      <trkpt lat="37.510119" lon="-4.044656">
        <ele>830.608</ele>
        <time>2020-05-21T09:43:50Z</time>
      </trkpt>
      <trkpt lat="37.510122" lon="-4.044589">
        <ele>831.716</ele>
        <time>2020-05-21T09:43:56Z</time>
      </trkpt>
      <trkpt lat="37.510120" lon="-4.044528">
        <ele>832.477</ele>
        <time>2020-05-21T09:44:02Z</time>
      </trkpt>
      <trkpt lat="37.510114" lon="-4.044477">
        <ele>832.654</ele>
        <time>2020-05-21T09:44:07Z</time>
      </trkpt>
      <trkpt lat="37.510112" lon="-4.044409">
        <ele>833.152</ele>
        <time>2020-05-21T09:44:13Z</time>
      </trkpt>
      <trkpt lat="37.510099" lon="-4.044359">
        <ele>834.185</ele>
        <time>2020-05-21T09:44:18Z</time>
      </trkpt>
      <trkpt lat="37.510086" lon="-4.044319">
        <ele>834.676</ele>
        <time>2020-05-21T09:44:22Z</time>
      </trkpt>
      <trkpt lat="37.510080" lon="-4.044263">
        <ele>835.457</ele>
        <time>2020-05-21T09:44:27Z</time>
      </trkpt>
      <trkpt lat="37.510078" lon="-4.044209">
        <ele>836.336</ele>
        <time>2020-05-21T09:44:32Z</time>
      </trkpt>
      <trkpt lat="37.510075" lon="-4.044165">
        <ele>836.951</ele>
        <time>2020-05-21T09:44:36Z</time>
      </trkpt>
      <trkpt lat="37.510076" lon="-4.044120">
        <ele>836.901</ele>
        <time>2020-05-21T09:44:40Z</time>
      </trkpt>
      <trkpt lat="37.510067" lon="-4.044092">
        <ele>837.411</ele>
        <time>2020-05-21T09:44:43Z</time>
      </trkpt>
      <trkpt lat="37.510064" lon="-4.043972">
        <ele>839.808</ele>
        <time>2020-05-21T09:44:54Z</time>
      </trkpt>
      <trkpt lat="37.510064" lon="-4.043972">
        <ele>839.863</ele>
        <time>2020-05-21T09:44:54Z</time>
      </trkpt>
      <trkpt lat="37.510062" lon="-4.043956">
        <ele>840.444</ele>
        <time>2020-05-21T09:44:55Z</time>
      </trkpt>
      <trkpt lat="37.510064" lon="-4.043939">
        <ele>841.031</ele>
        <time>2020-05-21T09:44:57Z</time>
      </trkpt>
      <trkpt lat="37.510068" lon="-4.043922">
        <ele>841.259</ele>
        <time>2020-05-21T09:44:59Z</time>
      </trkpt>
      <trkpt lat="37.510080" lon="-4.043900">
        <ele>840.862</ele>
        <time>2020-05-21T09:45:01Z</time>
      </trkpt>
      <trkpt lat="37.510092" lon="-4.043875">
        <ele>840.693</ele>
        <time>2020-05-21T09:45:04Z</time>
      </trkpt>
      <trkpt lat="37.510103" lon="-4.043846">
        <ele>840.884</ele>
        <time>2020-05-21T09:45:07Z</time>
      </trkpt>
      <trkpt lat="37.510108" lon="-4.043815">
        <ele>840.863</ele>
        <time>2020-05-21T09:45:09Z</time>
      </trkpt>
      <trkpt lat="37.510109" lon="-4.043788">
        <ele>840.866</ele>
        <time>2020-05-21T09:45:12Z</time>
      </trkpt>
      <trkpt lat="37.510108" lon="-4.043764">
        <ele>840.829</ele>
        <time>2020-05-21T09:45:14Z</time>
      </trkpt>
      <trkpt lat="37.510110" lon="-4.043743">
        <ele>840.821</ele>
        <time>2020-05-21T09:45:16Z</time>
      </trkpt>
      <trkpt lat="37.510113" lon="-4.043722">
        <ele>841.108</ele>
        <time>2020-05-21T09:45:18Z</time>
      </trkpt>
      <trkpt lat="37.510115" lon="-4.043705">
        <ele>841.374</ele>
        <time>2020-05-21T09:45:19Z</time>
      </trkpt>
      <trkpt lat="37.510119" lon="-4.043680">
        <ele>841.145</ele>
        <time>2020-05-21T09:45:22Z</time>
      </trkpt>
      <trkpt lat="37.510128" lon="-4.043648">
        <ele>840.732</ele>
        <time>2020-05-21T09:45:25Z</time>
      </trkpt>
      <trkpt lat="37.510132" lon="-4.043613">
        <ele>840.990</ele>
        <time>2020-05-21T09:45:28Z</time>
      </trkpt>
      <trkpt lat="37.510134" lon="-4.043568">
        <ele>841.333</ele>
        <time>2020-05-21T09:45:32Z</time>
      </trkpt>
      <trkpt lat="37.510135" lon="-4.043517">
        <ele>842.334</ele>
        <time>2020-05-21T09:45:37Z</time>
      </trkpt>
      <trkpt lat="37.510141" lon="-4.043455">
        <ele>842.675</ele>
        <time>2020-05-21T09:45:43Z</time>
      </trkpt>
      <trkpt lat="37.510151" lon="-4.043387">
        <ele>842.494</ele>
        <time>2020-05-21T09:45:49Z</time>
      </trkpt>
      <trkpt lat="37.510168" lon="-4.043308">
        <ele>843.124</ele>
        <time>2020-05-21T09:45:56Z</time>
      </trkpt>
      <trkpt lat="37.510187" lon="-4.043217">
        <ele>842.504</ele>
        <time>2020-05-21T09:46:05Z</time>
      </trkpt>
      <trkpt lat="37.510199" lon="-4.043114">
        <ele>843.214</ele>
        <time>2020-05-21T09:46:14Z</time>
      </trkpt>
      <trkpt lat="37.510202" lon="-4.043001">
        <ele>843.208</ele>
        <time>2020-05-21T09:46:24Z</time>
      </trkpt>
      <trkpt lat="37.510207" lon="-4.042887">
        <ele>843.760</ele>
        <time>2020-05-21T09:46:35Z</time>
      </trkpt>
      <trkpt lat="37.510218" lon="-4.042774">
        <ele>844.411</ele>
        <time>2020-05-21T09:46:45Z</time>
      </trkpt>
      <trkpt lat="37.510229" lon="-4.042661">
        <ele>845.578</ele>
        <time>2020-05-21T09:46:55Z</time>
      </trkpt>
      <trkpt lat="37.510240" lon="-4.042553">
        <ele>845.196</ele>
        <time>2020-05-21T09:47:05Z</time>
      </trkpt>
      <trkpt lat="37.510251" lon="-4.042442">
        <ele>845.789</ele>
        <time>2020-05-21T09:47:15Z</time>
      </trkpt>
      <trkpt lat="37.510261" lon="-4.042329">
        <ele>845.820</ele>
        <time>2020-05-21T09:47:26Z</time>
      </trkpt>
      <trkpt lat="37.510277" lon="-4.042223">
        <ele>847.681</ele>
        <time>2020-05-21T09:47:36Z</time>
      </trkpt>
      <trkpt lat="37.510301" lon="-4.042123">
        <ele>848.050</ele>
        <time>2020-05-21T09:47:45Z</time>
      </trkpt>
      <trkpt lat="37.510325" lon="-4.042029">
        <ele>849.258</ele>
        <time>2020-05-21T09:47:54Z</time>
      </trkpt>
      <trkpt lat="37.510350" lon="-4.041938">
        <ele>849.752</ele>
        <time>2020-05-21T09:48:03Z</time>
      </trkpt>
      <trkpt lat="37.510376" lon="-4.041851">
        <ele>850.317</ele>
        <time>2020-05-21T09:48:11Z</time>
      </trkpt>
      <trkpt lat="37.510401" lon="-4.041762">
        <ele>851.408</ele>
        <time>2020-05-21T09:48:20Z</time>
      </trkpt>
      <trkpt lat="37.510423" lon="-4.041674">
        <ele>851.673</ele>
        <time>2020-05-21T09:48:28Z</time>
      </trkpt>
      <trkpt lat="37.510431" lon="-4.041579">
        <ele>852.454</ele>
        <time>2020-05-21T09:48:37Z</time>
      </trkpt>
      <trkpt lat="37.510433" lon="-4.041471">
        <ele>853.391</ele>
        <time>2020-05-21T09:48:47Z</time>
      </trkpt>
      <trkpt lat="37.510436" lon="-4.041362">
        <ele>854.269</ele>
        <time>2020-05-21T09:48:56Z</time>
      </trkpt>
      <trkpt lat="37.510439" lon="-4.041254">
        <ele>855.342</ele>
        <time>2020-05-21T09:49:06Z</time>
      </trkpt>
      <trkpt lat="37.510435" lon="-4.041149">
        <ele>857.733</ele>
        <time>2020-05-21T09:49:16Z</time>
      </trkpt>
      <trkpt lat="37.510441" lon="-4.041057">
        <ele>858.024</ele>
        <time>2020-05-21T09:49:24Z</time>
      </trkpt>
      <trkpt lat="37.510449" lon="-4.040971">
        <ele>859.193</ele>
        <time>2020-05-21T09:49:32Z</time>
      </trkpt>
      <trkpt lat="37.510445" lon="-4.040886">
        <ele>860.718</ele>
        <time>2020-05-21T09:49:40Z</time>
      </trkpt>
      <trkpt lat="37.510442" lon="-4.040796">
        <ele>861.998</ele>
        <time>2020-05-21T09:49:48Z</time>
      </trkpt>
      <trkpt lat="37.510446" lon="-4.040708">
        <ele>862.117</ele>
        <time>2020-05-21T09:49:56Z</time>
      </trkpt>
      <trkpt lat="37.510463" lon="-4.040620">
        <ele>861.808</ele>
        <time>2020-05-21T09:50:05Z</time>
      </trkpt>
      <trkpt lat="37.510483" lon="-4.040535">
        <ele>862.079</ele>
        <time>2020-05-21T09:50:13Z</time>
      </trkpt>
      <trkpt lat="37.510496" lon="-4.040454">
        <ele>863.030</ele>
        <time>2020-05-21T09:50:20Z</time>
      </trkpt>
      <trkpt lat="37.510501" lon="-4.040376">
        <ele>862.957</ele>
        <time>2020-05-21T09:50:27Z</time>
      </trkpt>
      <trkpt lat="37.510501" lon="-4.040296">
        <ele>864.455</ele>
        <time>2020-05-21T09:50:35Z</time>
      </trkpt>
      <trkpt lat="37.510499" lon="-4.040212">
        <ele>865.968</ele>
        <time>2020-05-21T09:50:42Z</time>
      </trkpt>
      <trkpt lat="37.510494" lon="-4.040132">
        <ele>866.239</ele>
        <time>2020-05-21T09:50:50Z</time>
      </trkpt>
      <trkpt lat="37.510484" lon="-4.040055">
        <ele>867.650</ele>
        <time>2020-05-21T09:50:57Z</time>
      </trkpt>
      <trkpt lat="37.510471" lon="-4.039971">
        <ele>868.759</ele>
        <time>2020-05-21T09:51:05Z</time>
      </trkpt>
      <trkpt lat="37.510469" lon="-4.039882">
        <ele>869.815</ele>
        <time>2020-05-21T09:51:13Z</time>
      </trkpt>
      <trkpt lat="37.510475" lon="-4.039785">
        <ele>870.265</ele>
        <time>2020-05-21T09:51:22Z</time>
      </trkpt>
      <trkpt lat="37.510477" lon="-4.039684">
        <ele>871.111</ele>
        <time>2020-05-21T09:51:31Z</time>
      </trkpt>
      <trkpt lat="37.510482" lon="-4.039575">
        <ele>872.008</ele>
        <time>2020-05-21T09:51:41Z</time>
      </trkpt>
      <trkpt lat="37.510493" lon="-4.039462">
        <ele>873.369</ele>
        <time>2020-05-21T09:51:51Z</time>
      </trkpt>
      <trkpt lat="37.510506" lon="-4.039353">
        <ele>873.870</ele>
        <time>2020-05-21T09:52:01Z</time>
      </trkpt>
      <trkpt lat="37.510513" lon="-4.039250">
        <ele>875.237</ele>
        <time>2020-05-21T09:52:10Z</time>
      </trkpt>
      <trkpt lat="37.510506" lon="-4.039152">
        <ele>876.815</ele>
        <time>2020-05-21T09:52:19Z</time>
      </trkpt>
      <trkpt lat="37.510496" lon="-4.039056">
        <ele>878.148</ele>
        <time>2020-05-21T09:52:28Z</time>
      </trkpt>
      <trkpt lat="37.510490" lon="-4.038959">
        <ele>879.559</ele>
        <time>2020-05-21T09:52:37Z</time>
      </trkpt>
      <trkpt lat="37.510481" lon="-4.038859">
        <ele>880.520</ele>
        <time>2020-05-21T09:52:46Z</time>
      </trkpt>
      <trkpt lat="37.510469" lon="-4.038755">
        <ele>882.079</ele>
        <time>2020-05-21T09:52:56Z</time>
      </trkpt>
      <trkpt lat="37.510454" lon="-4.038649">
        <ele>883.048</ele>
        <time>2020-05-21T09:53:06Z</time>
      </trkpt>
      <trkpt lat="37.510436" lon="-4.038543">
        <ele>884.561</ele>
        <time>2020-05-21T09:53:16Z</time>
      </trkpt>
      <trkpt lat="37.510418" lon="-4.038440">
        <ele>885.817</ele>
        <time>2020-05-21T09:53:25Z</time>
      </trkpt>
      <trkpt lat="37.510404" lon="-4.038333">
        <ele>886.908</ele>
        <time>2020-05-21T09:53:35Z</time>
      </trkpt>
      <trkpt lat="37.510395" lon="-4.038217">
        <ele>887.612</ele>
        <time>2020-05-21T09:53:46Z</time>
      </trkpt>
      <trkpt lat="37.510393" lon="-4.038093">
        <ele>888.683</ele>
        <time>2020-05-21T09:53:57Z</time>
      </trkpt>
      <trkpt lat="37.510400" lon="-4.037963">
        <ele>888.460</ele>
        <time>2020-05-21T09:54:09Z</time>
      </trkpt>
      <trkpt lat="37.510419" lon="-4.037834">
        <ele>888.968</ele>
        <time>2020-05-21T09:54:21Z</time>
      </trkpt>
      <trkpt lat="37.510445" lon="-4.037707">
        <ele>890.741</ele>
        <time>2020-05-21T09:54:33Z</time>
      </trkpt>
      <trkpt lat="37.510470" lon="-4.037585">
        <ele>891.482</ele>
        <time>2020-05-21T09:54:44Z</time>
      </trkpt>
      <trkpt lat="37.510488" lon="-4.037472">
        <ele>893.443</ele>
        <time>2020-05-21T09:54:55Z</time>
      </trkpt>
      <trkpt lat="37.510501" lon="-4.037373">
        <ele>894.332</ele>
        <time>2020-05-21T09:55:04Z</time>
      </trkpt>
      <trkpt lat="37.510515" lon="-4.037289">
        <ele>896.952</ele>
        <time>2020-05-21T09:55:12Z</time>
      </trkpt>
      <trkpt lat="37.510535" lon="-4.037212">
        <ele>898.953</ele>
        <time>2020-05-21T09:55:19Z</time>
      </trkpt>
      <trkpt lat="37.510566" lon="-4.037145">
        <ele>899.808</ele>
        <time>2020-05-21T09:55:27Z</time>
      </trkpt>
      <trkpt lat="37.510600" lon="-4.037087">
        <ele>901.708</ele>
        <time>2020-05-21T09:55:33Z</time>
      </trkpt>
      <trkpt lat="37.510613" lon="-4.037043">
        <ele>903.383</ele>
        <time>2020-05-21T09:55:38Z</time>
      </trkpt>
      <trkpt lat="37.510610" lon="-4.037001">
        <ele>904.694</ele>
        <time>2020-05-21T09:55:42Z</time>
      </trkpt>
      <trkpt lat="37.510598" lon="-4.036960">
        <ele>905.071</ele>
        <time>2020-05-21T09:55:46Z</time>
      </trkpt>
      <trkpt lat="37.510588" lon="-4.036915">
        <ele>905.859</ele>
        <time>2020-05-21T09:55:50Z</time>
      </trkpt>
      <trkpt lat="37.510570" lon="-4.036880">
        <ele>906.742</ele>
        <time>2020-05-21T09:55:54Z</time>
      </trkpt>
      <trkpt lat="37.510552" lon="-4.036844">
        <ele>908.083</ele>
        <time>2020-05-21T09:55:58Z</time>
      </trkpt>
      <trkpt lat="37.510535" lon="-4.036805">
        <ele>908.644</ele>
        <time>2020-05-21T09:56:02Z</time>
      </trkpt>
      <trkpt lat="37.510519" lon="-4.036764">
        <ele>908.413</ele>
        <time>2020-05-21T09:56:06Z</time>
      </trkpt>
      <trkpt lat="37.510502" lon="-4.036725">
        <ele>909.494</ele>
        <time>2020-05-21T09:56:11Z</time>
      </trkpt>
      <trkpt lat="37.510481" lon="-4.036694">
        <ele>910.157</ele>
        <time>2020-05-21T09:56:14Z</time>
      </trkpt>
      <trkpt lat="37.510463" lon="-4.036668">
        <ele>910.422</ele>
        <time>2020-05-21T09:56:17Z</time>
      </trkpt>
      <trkpt lat="37.510453" lon="-4.036647">
        <ele>910.308</ele>
        <time>2020-05-21T09:56:20Z</time>
      </trkpt>
      <trkpt lat="37.510452" lon="-4.036644">
        <ele>910.327</ele>
        <time>2020-05-21T09:56:20Z</time>
      </trkpt>
      <trkpt lat="37.510447" lon="-4.036637">
        <ele>910.268</ele>
        <time>2020-05-21T09:56:21Z</time>
      </trkpt>
      <trkpt lat="37.510437" lon="-4.036627">
        <ele>910.095</ele>
        <time>2020-05-21T09:56:22Z</time>
      </trkpt>
      <trkpt lat="37.510424" lon="-4.036619">
        <ele>910.073</ele>
        <time>2020-05-21T09:56:24Z</time>
      </trkpt>
      <trkpt lat="37.510415" lon="-4.036609">
        <ele>910.046</ele>
        <time>2020-05-21T09:56:25Z</time>
      </trkpt>
      <trkpt lat="37.510408" lon="-4.036596">
        <ele>910.087</ele>
        <time>2020-05-21T09:56:27Z</time>
      </trkpt>
      <trkpt lat="37.510401" lon="-4.036583">
        <ele>910.038</ele>
        <time>2020-05-21T09:56:28Z</time>
      </trkpt>
      <trkpt lat="37.510395" lon="-4.036571">
        <ele>910.077</ele>
        <time>2020-05-21T09:56:29Z</time>
      </trkpt>
      <trkpt lat="37.510389" lon="-4.036556">
        <ele>910.018</ele>
        <time>2020-05-21T09:56:31Z</time>
      </trkpt>
      <trkpt lat="37.510383" lon="-4.036542">
        <ele>910.098</ele>
        <time>2020-05-21T09:56:32Z</time>
      </trkpt>
      <trkpt lat="37.510377" lon="-4.036529">
        <ele>909.917</ele>
        <time>2020-05-21T09:56:34Z</time>
      </trkpt>
      <trkpt lat="37.510371" lon="-4.036514">
        <ele>909.808</ele>
        <time>2020-05-21T09:56:35Z</time>
      </trkpt>
      <trkpt lat="37.510364" lon="-4.036500">
        <ele>909.639</ele>
        <time>2020-05-21T09:56:37Z</time>
      </trkpt>
      <trkpt lat="37.510357" lon="-4.036486">
        <ele>909.560</ele>
        <time>2020-05-21T09:56:38Z</time>
      </trkpt>
      <trkpt lat="37.510351" lon="-4.036471">
        <ele>909.497</ele>
        <time>2020-05-21T09:56:40Z</time>
      </trkpt>
      <trkpt lat="37.510345" lon="-4.036457">
        <ele>909.385</ele>
        <time>2020-05-21T09:56:41Z</time>
      </trkpt>
      <trkpt lat="37.510340" lon="-4.036441">
        <ele>909.288</ele>
        <time>2020-05-21T09:56:43Z</time>
      </trkpt>
      <trkpt lat="37.510336" lon="-4.036426">
        <ele>909.559</ele>
        <time>2020-05-21T09:56:44Z</time>
      </trkpt>
      <trkpt lat="37.510328" lon="-4.036412">
        <ele>909.660</ele>
        <time>2020-05-21T09:56:46Z</time>
      </trkpt>
      <trkpt lat="37.510323" lon="-4.036396">
        <ele>909.899</ele>
        <time>2020-05-21T09:56:47Z</time>
      </trkpt>
      <trkpt lat="37.510320" lon="-4.036377">
        <ele>909.746</ele>
        <time>2020-05-21T09:56:49Z</time>
      </trkpt>
      <trkpt lat="37.510316" lon="-4.036360">
        <ele>909.688</ele>
        <time>2020-05-21T09:56:51Z</time>
      </trkpt>
      <trkpt lat="37.510311" lon="-4.036347">
        <ele>909.416</ele>
        <time>2020-05-21T09:56:52Z</time>
      </trkpt>
      <trkpt lat="37.510303" lon="-4.036335">
        <ele>909.108</ele>
        <time>2020-05-21T09:56:53Z</time>
      </trkpt>
      <trkpt lat="37.510295" lon="-4.036327">
        <ele>908.872</ele>
        <time>2020-05-21T09:56:55Z</time>
      </trkpt>
      <trkpt lat="37.510284" lon="-4.036316">
        <ele>908.463</ele>
        <time>2020-05-21T09:56:56Z</time>
      </trkpt>
      <trkpt lat="37.510274" lon="-4.036308">
        <ele>908.130</ele>
        <time>2020-05-21T09:56:58Z</time>
      </trkpt>
      <trkpt lat="37.510263" lon="-4.036298">
        <ele>907.998</ele>
        <time>2020-05-21T09:56:59Z</time>
      </trkpt>
      <trkpt lat="37.510252" lon="-4.036289">
        <ele>907.791</ele>
        <time>2020-05-21T09:57:01Z</time>
      </trkpt>
      <trkpt lat="37.510242" lon="-4.036280">
        <ele>907.582</ele>
        <time>2020-05-21T09:57:02Z</time>
      </trkpt>
      <trkpt lat="37.510233" lon="-4.036268">
        <ele>907.333</ele>
        <time>2020-05-21T09:57:04Z</time>
      </trkpt>
      <trkpt lat="37.510224" lon="-4.036260">
        <ele>907.252</ele>
        <time>2020-05-21T09:57:05Z</time>
      </trkpt>
      <trkpt lat="37.510212" lon="-4.036252">
        <ele>906.955</ele>
        <time>2020-05-21T09:57:07Z</time>
      </trkpt>
      <trkpt lat="37.510202" lon="-4.036246">
        <ele>906.507</ele>
        <time>2020-05-21T09:57:08Z</time>
      </trkpt>
      <trkpt lat="37.510191" lon="-4.036237">
        <ele>905.917</ele>
        <time>2020-05-21T09:57:09Z</time>
      </trkpt>
      <trkpt lat="37.510181" lon="-4.036227">
        <ele>905.308</ele>
        <time>2020-05-21T09:57:11Z</time>
      </trkpt>
      <trkpt lat="37.510174" lon="-4.036212">
        <ele>904.863</ele>
        <time>2020-05-21T09:57:13Z</time>
      </trkpt>
      <trkpt lat="37.510165" lon="-4.036201">
        <ele>904.314</ele>
        <time>2020-05-21T09:57:14Z</time>
      </trkpt>
      <trkpt lat="37.510154" lon="-4.036193">
        <ele>903.971</ele>
        <time>2020-05-21T09:57:16Z</time>
      </trkpt>
      <trkpt lat="37.510144" lon="-4.036186">
        <ele>903.729</ele>
        <time>2020-05-21T09:57:17Z</time>
      </trkpt>
      <trkpt lat="37.510132" lon="-4.036177">
        <ele>903.552</ele>
        <time>2020-05-21T09:57:19Z</time>
      </trkpt>
      <trkpt lat="37.510119" lon="-4.036170">
        <ele>903.333</ele>
        <time>2020-05-21T09:57:20Z</time>
      </trkpt>
      <trkpt lat="37.510108" lon="-4.036161">
        <ele>902.944</ele>
        <time>2020-05-21T09:57:22Z</time>
      </trkpt>
      <trkpt lat="37.510099" lon="-4.036148">
        <ele>902.553</ele>
        <time>2020-05-21T09:57:23Z</time>
      </trkpt>
      <trkpt lat="37.510091" lon="-4.036136">
        <ele>902.062</ele>
        <time>2020-05-21T09:57:25Z</time>
      </trkpt>
      <trkpt lat="37.510084" lon="-4.036125">
        <ele>901.783</ele>
        <time>2020-05-21T09:57:26Z</time>
      </trkpt>
      <trkpt lat="37.510072" lon="-4.036112">
        <ele>901.511</ele>
        <time>2020-05-21T09:57:28Z</time>
      </trkpt>
      <trkpt lat="37.510062" lon="-4.036102">
        <ele>901.308</ele>
        <time>2020-05-21T09:57:29Z</time>
      </trkpt>
      <trkpt lat="37.510055" lon="-4.036088">
        <ele>901.284</ele>
        <time>2020-05-21T09:57:31Z</time>
      </trkpt>
      <trkpt lat="37.510050" lon="-4.036074">
        <ele>901.125</ele>
        <time>2020-05-21T09:57:32Z</time>
      </trkpt>
      <trkpt lat="37.510046" lon="-4.036060">
        <ele>901.032</ele>
        <time>2020-05-21T09:57:34Z</time>
      </trkpt>
      <trkpt lat="37.510042" lon="-4.036042">
        <ele>900.920</ele>
        <time>2020-05-21T09:57:35Z</time>
      </trkpt>
      <trkpt lat="37.510041" lon="-4.036027">
        <ele>900.763</ele>
        <time>2020-05-21T09:57:37Z</time>
      </trkpt>
      <trkpt lat="37.510039" lon="-4.036011">
        <ele>900.464</ele>
        <time>2020-05-21T09:57:38Z</time>
      </trkpt>
      <trkpt lat="37.510038" lon="-4.035995">
        <ele>900.095</ele>
        <time>2020-05-21T09:57:40Z</time>
      </trkpt>
      <trkpt lat="37.510032" lon="-4.035977">
        <ele>899.724</ele>
        <time>2020-05-21T09:57:42Z</time>
      </trkpt>
      <trkpt lat="37.510030" lon="-4.035959">
        <ele>899.528</ele>
        <time>2020-05-21T09:57:43Z</time>
      </trkpt>
      <trkpt lat="37.510024" lon="-4.035946">
        <ele>899.289</ele>
        <time>2020-05-21T09:57:45Z</time>
      </trkpt>
      <trkpt lat="37.510020" lon="-4.035932">
        <ele>899.117</ele>
        <time>2020-05-21T09:57:46Z</time>
      </trkpt>
      <trkpt lat="37.510011" lon="-4.035916">
        <ele>898.708</ele>
        <time>2020-05-21T09:57:48Z</time>
      </trkpt>
      <trkpt lat="37.510003" lon="-4.035904">
        <ele>898.540</ele>
        <time>2020-05-21T09:57:49Z</time>
      </trkpt>
      <trkpt lat="37.509996" lon="-4.035887">
        <ele>898.251</ele>
        <time>2020-05-21T09:57:51Z</time>
      </trkpt>
      <trkpt lat="37.509988" lon="-4.035875">
        <ele>897.948</ele>
        <time>2020-05-21T09:57:52Z</time>
      </trkpt>
      <trkpt lat="37.509980" lon="-4.035860">
        <ele>897.516</ele>
        <time>2020-05-21T09:57:54Z</time>
      </trkpt>
      <trkpt lat="37.509975" lon="-4.035845">
        <ele>897.159</ele>
        <time>2020-05-21T09:57:56Z</time>
      </trkpt>
      <trkpt lat="37.509973" lon="-4.035831">
        <ele>896.840</ele>
        <time>2020-05-21T09:57:57Z</time>
      </trkpt>
      <trkpt lat="37.509969" lon="-4.035814">
        <ele>896.361</ele>
        <time>2020-05-21T09:57:59Z</time>
      </trkpt>
      <trkpt lat="37.509966" lon="-4.035800">
        <ele>896.180</ele>
        <time>2020-05-21T09:58:00Z</time>
      </trkpt>
      <trkpt lat="37.509959" lon="-4.035787">
        <ele>895.624</ele>
        <time>2020-05-21T09:58:01Z</time>
      </trkpt>
      <trkpt lat="37.509953" lon="-4.035775">
        <ele>895.204</ele>
        <time>2020-05-21T09:58:03Z</time>
      </trkpt>
      <trkpt lat="37.509947" lon="-4.035759">
        <ele>894.714</ele>
        <time>2020-05-21T09:58:04Z</time>
      </trkpt>
      <trkpt lat="37.509939" lon="-4.035747">
        <ele>894.308</ele>
        <time>2020-05-21T09:58:06Z</time>
      </trkpt>
      <trkpt lat="37.509932" lon="-4.035736">
        <ele>894.090</ele>
        <time>2020-05-21T09:58:07Z</time>
      </trkpt>
      <trkpt lat="37.509926" lon="-4.035722">
        <ele>893.961</ele>
        <time>2020-05-21T09:58:09Z</time>
      </trkpt>
      <trkpt lat="37.509922" lon="-4.035705">
        <ele>893.878</ele>
        <time>2020-05-21T09:58:10Z</time>
      </trkpt>
      <trkpt lat="37.509919" lon="-4.035690">
        <ele>893.746</ele>
        <time>2020-05-21T09:58:12Z</time>
      </trkpt>
      <trkpt lat="37.509917" lon="-4.035673">
        <ele>893.739</ele>
        <time>2020-05-21T09:58:13Z</time>
      </trkpt>
      <trkpt lat="37.509915" lon="-4.035655">
        <ele>893.370</ele>
        <time>2020-05-21T09:58:15Z</time>
      </trkpt>
      <trkpt lat="37.509909" lon="-4.035640">
        <ele>892.811</ele>
        <time>2020-05-21T09:58:17Z</time>
      </trkpt>
      <trkpt lat="37.509904" lon="-4.035623">
        <ele>892.590</ele>
        <time>2020-05-21T09:58:18Z</time>
      </trkpt>
      <trkpt lat="37.509902" lon="-4.035607">
        <ele>892.441</ele>
        <time>2020-05-21T09:58:20Z</time>
      </trkpt>
      <trkpt lat="37.509899" lon="-4.035589">
        <ele>892.481</ele>
        <time>2020-05-21T09:58:21Z</time>
      </trkpt>
      <trkpt lat="37.509892" lon="-4.035573">
        <ele>892.009</ele>
        <time>2020-05-21T09:58:23Z</time>
      </trkpt>
      <trkpt lat="37.509884" lon="-4.035559">
        <ele>891.608</ele>
        <time>2020-05-21T09:58:25Z</time>
      </trkpt>
      <trkpt lat="37.509877" lon="-4.035547">
        <ele>891.222</ele>
        <time>2020-05-21T09:58:26Z</time>
      </trkpt>
      <trkpt lat="37.509872" lon="-4.035532">
        <ele>890.863</ele>
        <time>2020-05-21T09:58:28Z</time>
      </trkpt>
      <trkpt lat="37.509865" lon="-4.035516">
        <ele>890.310</ele>
        <time>2020-05-21T09:58:29Z</time>
      </trkpt>
      <trkpt lat="37.509855" lon="-4.035501">
        <ele>889.818</ele>
        <time>2020-05-21T09:58:31Z</time>
      </trkpt>
      <trkpt lat="37.509851" lon="-4.035487">
        <ele>889.581</ele>
        <time>2020-05-21T09:58:33Z</time>
      </trkpt>
      <trkpt lat="37.509847" lon="-4.035471">
        <ele>889.592</ele>
        <time>2020-05-21T09:58:34Z</time>
      </trkpt>
      <trkpt lat="37.509840" lon="-4.035453">
        <ele>889.313</ele>
        <time>2020-05-21T09:58:36Z</time>
      </trkpt>
      <trkpt lat="37.509834" lon="-4.035437">
        <ele>889.232</ele>
        <time>2020-05-21T09:58:37Z</time>
      </trkpt>
      <trkpt lat="37.509829" lon="-4.035418">
        <ele>889.127</ele>
        <time>2020-05-21T09:58:39Z</time>
      </trkpt>
      <trkpt lat="37.509822" lon="-4.035402">
        <ele>889.068</ele>
        <time>2020-05-21T09:58:41Z</time>
      </trkpt>
      <trkpt lat="37.509820" lon="-4.035383">
        <ele>888.614</ele>
        <time>2020-05-21T09:58:43Z</time>
      </trkpt>
      <trkpt lat="37.509818" lon="-4.035365">
        <ele>888.208</ele>
        <time>2020-05-21T09:58:44Z</time>
      </trkpt>
      <trkpt lat="37.509815" lon="-4.035346">
        <ele>888.050</ele>
        <time>2020-05-21T09:58:46Z</time>
      </trkpt>
      <trkpt lat="37.509811" lon="-4.035328">
        <ele>887.951</ele>
        <time>2020-05-21T09:58:48Z</time>
      </trkpt>
      <trkpt lat="37.509807" lon="-4.035309">
        <ele>887.898</ele>
        <time>2020-05-21T09:58:50Z</time>
      </trkpt>
      <trkpt lat="37.509801" lon="-4.035289">
        <ele>887.626</ele>
        <time>2020-05-21T09:58:52Z</time>
      </trkpt>
      <trkpt lat="37.509798" lon="-4.035270">
        <ele>887.629</ele>
        <time>2020-05-21T09:58:53Z</time>
      </trkpt>
      <trkpt lat="37.509795" lon="-4.035250">
        <ele>887.520</ele>
        <time>2020-05-21T09:58:55Z</time>
      </trkpt>
      <trkpt lat="37.509793" lon="-4.035230">
        <ele>887.511</ele>
        <time>2020-05-21T09:58:57Z</time>
      </trkpt>
      <trkpt lat="37.509790" lon="-4.035210">
        <ele>887.570</ele>
        <time>2020-05-21T09:58:59Z</time>
      </trkpt>
      <trkpt lat="37.509787" lon="-4.035191">
        <ele>887.451</ele>
        <time>2020-05-21T09:59:01Z</time>
      </trkpt>
      <trkpt lat="37.509784" lon="-4.035169">
        <ele>887.301</ele>
        <time>2020-05-21T09:59:03Z</time>
      </trkpt>
      <trkpt lat="37.509783" lon="-4.035147">
        <ele>887.311</ele>
        <time>2020-05-21T09:59:05Z</time>
      </trkpt>
      <trkpt lat="37.509782" lon="-4.035125">
        <ele>887.208</ele>
        <time>2020-05-21T09:59:07Z</time>
      </trkpt>
      <trkpt lat="37.509781" lon="-4.035102">
        <ele>886.643</ele>
        <time>2020-05-21T09:59:09Z</time>
      </trkpt>
      <trkpt lat="37.509779" lon="-4.035082">
        <ele>886.274</ele>
        <time>2020-05-21T09:59:11Z</time>
      </trkpt>
      <trkpt lat="37.509777" lon="-4.035061">
        <ele>885.841</ele>
        <time>2020-05-21T09:59:13Z</time>
      </trkpt>
      <trkpt lat="37.509775" lon="-4.035038">
        <ele>885.459</ele>
        <time>2020-05-21T09:59:15Z</time>
      </trkpt>
      <trkpt lat="37.509772" lon="-4.035018">
        <ele>885.362</ele>
        <time>2020-05-21T09:59:17Z</time>
      </trkpt>
      <trkpt lat="37.509769" lon="-4.034996">
        <ele>885.213</ele>
        <time>2020-05-21T09:59:19Z</time>
      </trkpt>
      <trkpt lat="37.509767" lon="-4.034973">
        <ele>885.154</ele>
        <time>2020-05-21T09:59:21Z</time>
      </trkpt>
      <trkpt lat="37.509766" lon="-4.034949">
        <ele>885.053</ele>
        <time>2020-05-21T09:59:23Z</time>
      </trkpt>
      <trkpt lat="37.509766" lon="-4.034925">
        <ele>884.559</ele>
        <time>2020-05-21T09:59:25Z</time>
      </trkpt>
      <trkpt lat="37.509765" lon="-4.034903">
        <ele>884.003</ele>
        <time>2020-05-21T09:59:27Z</time>
      </trkpt>
      <trkpt lat="37.509762" lon="-4.034882">
        <ele>883.923</ele>
        <time>2020-05-21T09:59:29Z</time>
      </trkpt>
      <trkpt lat="37.509760" lon="-4.034859">
        <ele>883.808</ele>
        <time>2020-05-21T09:59:31Z</time>
      </trkpt>
      <trkpt lat="37.509758" lon="-4.034834">
        <ele>883.873</ele>
        <time>2020-05-21T09:59:33Z</time>
      </trkpt>
      <trkpt lat="37.509754" lon="-4.034809">
        <ele>883.634</ele>
        <time>2020-05-21T09:59:36Z</time>
      </trkpt>
      <trkpt lat="37.509749" lon="-4.034785">
        <ele>883.371</ele>
        <time>2020-05-21T09:59:38Z</time>
      </trkpt>
      <trkpt lat="37.509745" lon="-4.034764">
        <ele>882.929</ele>
        <time>2020-05-21T09:59:40Z</time>
      </trkpt>
      <trkpt lat="37.509738" lon="-4.034745">
        <ele>882.372</ele>
        <time>2020-05-21T09:59:42Z</time>
      </trkpt>
      <trkpt lat="37.509729" lon="-4.034723">
        <ele>881.753</ele>
        <time>2020-05-21T09:59:44Z</time>
      </trkpt>
      <trkpt lat="37.509719" lon="-4.034704">
        <ele>881.464</ele>
        <time>2020-05-21T09:59:46Z</time>
      </trkpt>
      <trkpt lat="37.509711" lon="-4.034682">
        <ele>881.193</ele>
        <time>2020-05-21T09:59:49Z</time>
      </trkpt>
      <trkpt lat="37.509706" lon="-4.034659">
        <ele>881.011</ele>
        <time>2020-05-21T09:59:51Z</time>
      </trkpt>
      <trkpt lat="37.509697" lon="-4.034636">
        <ele>880.821</ele>
        <time>2020-05-21T09:59:53Z</time>
      </trkpt>
      <trkpt lat="37.509687" lon="-4.034614">
        <ele>880.603</ele>
        <time>2020-05-21T09:59:55Z</time>
      </trkpt>
      <trkpt lat="37.509677" lon="-4.034592">
        <ele>880.408</ele>
        <time>2020-05-21T09:59:58Z</time>
      </trkpt>
      <trkpt lat="37.509670" lon="-4.034572">
        <ele>880.379</ele>
        <time>2020-05-21T10:00:00Z</time>
      </trkpt>
      <trkpt lat="37.509662" lon="-4.034551">
        <ele>880.230</ele>
        <time>2020-05-21T10:00:02Z</time>
      </trkpt>
      <trkpt lat="37.509653" lon="-4.034533">
        <ele>879.747</ele>
        <time>2020-05-21T10:00:04Z</time>
      </trkpt>
      <trkpt lat="37.509641" lon="-4.034516">
        <ele>879.325</ele>
        <time>2020-05-21T10:00:06Z</time>
      </trkpt>
      <trkpt lat="37.509629" lon="-4.034495">
        <ele>879.168</ele>
        <time>2020-05-21T10:00:08Z</time>
      </trkpt>
      <trkpt lat="37.509618" lon="-4.034476">
        <ele>879.289</ele>
        <time>2020-05-21T10:00:10Z</time>
      </trkpt>
      <trkpt lat="37.509607" lon="-4.034457">
        <ele>879.290</ele>
        <time>2020-05-21T10:00:12Z</time>
      </trkpt>
      <trkpt lat="37.509596" lon="-4.034434">
        <ele>879.099</ele>
        <time>2020-05-21T10:00:15Z</time>
      </trkpt>
      <trkpt lat="37.509585" lon="-4.034413">
        <ele>878.879</ele>
        <time>2020-05-21T10:00:17Z</time>
      </trkpt>
      <trkpt lat="37.509571" lon="-4.034395">
        <ele>878.605</ele>
        <time>2020-05-21T10:00:19Z</time>
      </trkpt>
      <trkpt lat="37.509555" lon="-4.034376">
        <ele>878.325</ele>
        <time>2020-05-21T10:00:22Z</time>
      </trkpt>
      <trkpt lat="37.509540" lon="-4.034356">
        <ele>878.008</ele>
        <time>2020-05-21T10:00:24Z</time>
      </trkpt>
      <trkpt lat="37.509527" lon="-4.034333">
        <ele>878.015</ele>
        <time>2020-05-21T10:00:27Z</time>
      </trkpt>
      <trkpt lat="37.509511" lon="-4.034311">
        <ele>877.936</ele>
        <time>2020-05-21T10:00:30Z</time>
      </trkpt>
      <trkpt lat="37.509498" lon="-4.034288">
        <ele>877.553</ele>
        <time>2020-05-21T10:00:32Z</time>
      </trkpt>
      <trkpt lat="37.509482" lon="-4.034267">
        <ele>877.071</ele>
        <time>2020-05-21T10:00:35Z</time>
      </trkpt>
      <trkpt lat="37.509464" lon="-4.034247">
        <ele>876.864</ele>
        <time>2020-05-21T10:00:38Z</time>
      </trkpt>
      <trkpt lat="37.509447" lon="-4.034228">
        <ele>876.435</ele>
        <time>2020-05-21T10:00:40Z</time>
      </trkpt>
      <trkpt lat="37.509430" lon="-4.034207">
        <ele>876.186</ele>
        <time>2020-05-21T10:00:43Z</time>
      </trkpt>
      <trkpt lat="37.509414" lon="-4.034183">
        <ele>875.845</ele>
        <time>2020-05-21T10:00:46Z</time>
      </trkpt>
      <trkpt lat="37.509399" lon="-4.034157">
        <ele>875.578</ele>
        <time>2020-05-21T10:00:49Z</time>
      </trkpt>
      <trkpt lat="37.509384" lon="-4.034133">
        <ele>875.233</ele>
        <time>2020-05-21T10:00:52Z</time>
      </trkpt>
      <trkpt lat="37.509366" lon="-4.034107">
        <ele>874.926</ele>
        <time>2020-05-21T10:00:55Z</time>
      </trkpt>
      <trkpt lat="37.509353" lon="-4.034080">
        <ele>874.508</ele>
        <time>2020-05-21T10:00:58Z</time>
      </trkpt>
      <trkpt lat="37.509337" lon="-4.034052">
        <ele>874.075</ele>
        <time>2020-05-21T10:01:01Z</time>
      </trkpt>
      <trkpt lat="37.509317" lon="-4.034019">
        <ele>873.486</ele>
        <time>2020-05-21T10:01:05Z</time>
      </trkpt>
      <trkpt lat="37.509291" lon="-4.033978">
        <ele>872.693</ele>
        <time>2020-05-21T10:01:09Z</time>
      </trkpt>
      <trkpt lat="37.509255" lon="-4.033936">
        <ele>871.961</ele>
        <time>2020-05-21T10:01:15Z</time>
      </trkpt>
      <trkpt lat="37.509206" lon="-4.033901">
        <ele>870.484</ele>
        <time>2020-05-21T10:01:22Z</time>
      </trkpt>
      <trkpt lat="37.509149" lon="-4.033877">
        <ele>870.875</ele>
        <time>2020-05-21T10:01:28Z</time>
      </trkpt>
      <trkpt lat="37.509085" lon="-4.033861">
        <ele>870.456</ele>
        <time>2020-05-21T10:01:36Z</time>
      </trkpt>
      <trkpt lat="37.509019" lon="-4.033845">
        <ele>871.155</ele>
        <time>2020-05-21T10:01:44Z</time>
      </trkpt>
      <trkpt lat="37.508951" lon="-4.033822">
        <ele>871.621</ele>
        <time>2020-05-21T10:01:52Z</time>
      </trkpt>
      <trkpt lat="37.508888" lon="-4.033798">
        <ele>872.141</ele>
        <time>2020-05-21T10:01:59Z</time>
      </trkpt>
      <trkpt lat="37.508831" lon="-4.033767">
        <ele>872.405</ele>
        <time>2020-05-21T10:02:06Z</time>
      </trkpt>
      <trkpt lat="37.508780" lon="-4.033734">
        <ele>872.008</ele>
        <time>2020-05-21T10:02:13Z</time>
      </trkpt>
      <trkpt lat="37.508735" lon="-4.033701">
        <ele>873.440</ele>
        <time>2020-05-21T10:02:19Z</time>
      </trkpt>
      <trkpt lat="37.508693" lon="-4.033670">
        <ele>874.881</ele>
        <time>2020-05-21T10:02:25Z</time>
      </trkpt>
      <trkpt lat="37.508655" lon="-4.033644">
        <ele>875.328</ele>
        <time>2020-05-21T10:02:29Z</time>
      </trkpt>
      <trkpt lat="37.508622" lon="-4.033619">
        <ele>876.196</ele>
        <time>2020-05-21T10:02:34Z</time>
      </trkpt>
      <trkpt lat="37.508591" lon="-4.033597">
        <ele>877.029</ele>
        <time>2020-05-21T10:02:38Z</time>
      </trkpt>
      <trkpt lat="37.508560" lon="-4.033576">
        <ele>877.560</ele>
        <time>2020-05-21T10:02:42Z</time>
      </trkpt>
      <trkpt lat="37.508530" lon="-4.033555">
        <ele>878.091</ele>
        <time>2020-05-21T10:02:46Z</time>
      </trkpt>
      <trkpt lat="37.508502" lon="-4.033536">
        <ele>877.690</ele>
        <time>2020-05-21T10:02:50Z</time>
      </trkpt>
      <trkpt lat="37.508474" lon="-4.033517">
        <ele>877.192</ele>
        <time>2020-05-21T10:02:53Z</time>
      </trkpt>
      <trkpt lat="37.508447" lon="-4.033498">
        <ele>877.473</ele>
        <time>2020-05-21T10:02:57Z</time>
      </trkpt>
      <trkpt lat="37.508422" lon="-4.033480">
        <ele>877.720</ele>
        <time>2020-05-21T10:03:00Z</time>
      </trkpt>
      <trkpt lat="37.508399" lon="-4.033463">
        <ele>877.808</ele>
        <time>2020-05-21T10:03:03Z</time>
      </trkpt>
      <trkpt lat="37.508377" lon="-4.033447">
        <ele>877.767</ele>
        <time>2020-05-21T10:03:06Z</time>
      </trkpt>
      <trkpt lat="37.508356" lon="-4.033431">
        <ele>877.748</ele>
        <time>2020-05-21T10:03:09Z</time>
      </trkpt>
      <trkpt lat="37.508337" lon="-4.033413">
        <ele>877.745</ele>
        <time>2020-05-21T10:03:12Z</time>
      </trkpt>
      <trkpt lat="37.508315" lon="-4.033396">
        <ele>877.653</ele>
        <time>2020-05-21T10:03:15Z</time>
      </trkpt>
      <trkpt lat="37.508296" lon="-4.033380">
        <ele>877.816</ele>
        <time>2020-05-21T10:03:17Z</time>
      </trkpt>
      <trkpt lat="37.508280" lon="-4.033363">
        <ele>877.627</ele>
        <time>2020-05-21T10:03:20Z</time>
      </trkpt>
      <trkpt lat="37.508264" lon="-4.033348">
        <ele>877.468</ele>
        <time>2020-05-21T10:03:22Z</time>
      </trkpt>
      <trkpt lat="37.508249" lon="-4.033334">
        <ele>877.147</ele>
        <time>2020-05-21T10:03:24Z</time>
      </trkpt>
      <trkpt lat="37.508234" lon="-4.033318">
        <ele>876.821</ele>
        <time>2020-05-21T10:03:26Z</time>
      </trkpt>
      <trkpt lat="37.508219" lon="-4.033303">
        <ele>876.641</ele>
        <time>2020-05-21T10:03:28Z</time>
      </trkpt>
      <trkpt lat="37.508204" lon="-4.033291">
        <ele>876.305</ele>
        <time>2020-05-21T10:03:31Z</time>
      </trkpt>
      <trkpt lat="37.508190" lon="-4.033278">
        <ele>876.008</ele>
        <time>2020-05-21T10:03:33Z</time>
      </trkpt>
      <trkpt lat="37.508176" lon="-4.033263">
        <ele>876.020</ele>
        <time>2020-05-21T10:03:35Z</time>
      </trkpt>
      <trkpt lat="37.508162" lon="-4.033251">
        <ele>876.071</ele>
        <time>2020-05-21T10:03:37Z</time>
      </trkpt>
      <trkpt lat="37.508150" lon="-4.033237">
        <ele>876.048</ele>
        <time>2020-05-21T10:03:38Z</time>
      </trkpt>
      <trkpt lat="37.508142" lon="-4.033221">
        <ele>876.036</ele>
        <time>2020-05-21T10:03:40Z</time>
      </trkpt>
      <trkpt lat="37.508138" lon="-4.033200">
        <ele>876.019</ele>
        <time>2020-05-21T10:03:42Z</time>
      </trkpt>
      <trkpt lat="37.508133" lon="-4.033180">
        <ele>875.770</ele>
        <time>2020-05-21T10:03:44Z</time>
      </trkpt>
      <trkpt lat="37.508130" lon="-4.033161">
        <ele>875.391</ele>
        <time>2020-05-21T10:03:46Z</time>
      </trkpt>
      <trkpt lat="37.508130" lon="-4.033140">
        <ele>875.060</ele>
        <time>2020-05-21T10:03:48Z</time>
      </trkpt>
      <trkpt lat="37.508128" lon="-4.033119">
        <ele>875.098</ele>
        <time>2020-05-21T10:03:50Z</time>
      </trkpt>
      <trkpt lat="37.508129" lon="-4.033098">
        <ele>875.015</ele>
        <time>2020-05-21T10:03:51Z</time>
      </trkpt>
      <trkpt lat="37.508133" lon="-4.033078">
        <ele>875.026</ele>
        <time>2020-05-21T10:03:53Z</time>
      </trkpt>
      <trkpt lat="37.508138" lon="-4.033058">
        <ele>875.008</ele>
        <time>2020-05-21T10:03:55Z</time>
      </trkpt>
      <trkpt lat="37.508140" lon="-4.033039">
        <ele>874.717</ele>
        <time>2020-05-21T10:03:57Z</time>
      </trkpt>
      <trkpt lat="37.508142" lon="-4.033018">
        <ele>874.378</ele>
        <time>2020-05-21T10:03:59Z</time>
      </trkpt>
      <trkpt lat="37.508143" lon="-4.032997">
        <ele>873.545</ele>
        <time>2020-05-21T10:04:01Z</time>
      </trkpt>
      <trkpt lat="37.508146" lon="-4.032975">
        <ele>872.653</ele>
        <time>2020-05-21T10:04:03Z</time>
      </trkpt>
      <trkpt lat="37.508150" lon="-4.032954">
        <ele>872.186</ele>
        <time>2020-05-21T10:04:05Z</time>
      </trkpt>
      <trkpt lat="37.508153" lon="-4.032932">
        <ele>871.617</ele>
        <time>2020-05-21T10:04:07Z</time>
      </trkpt>
      <trkpt lat="37.508156" lon="-4.032911">
        <ele>871.238</ele>
        <time>2020-05-21T10:04:09Z</time>
      </trkpt>
      <trkpt lat="37.508158" lon="-4.032890">
        <ele>870.847</ele>
        <time>2020-05-21T10:04:11Z</time>
      </trkpt>
      <trkpt lat="37.508161" lon="-4.032869">
        <ele>870.517</ele>
        <time>2020-05-21T10:04:13Z</time>
      </trkpt>
      <trkpt lat="37.508167" lon="-4.032849">
        <ele>870.687</ele>
        <time>2020-05-21T10:04:15Z</time>
      </trkpt>
      <trkpt lat="37.508173" lon="-4.032829">
        <ele>870.715</ele>
        <time>2020-05-21T10:04:17Z</time>
      </trkpt>
      <trkpt lat="37.508176" lon="-4.032806">
        <ele>870.208</ele>
        <time>2020-05-21T10:04:19Z</time>
      </trkpt>
      <trkpt lat="37.508182" lon="-4.032784">
        <ele>869.999</ele>
        <time>2020-05-21T10:04:21Z</time>
      </trkpt>
      <trkpt lat="37.508191" lon="-4.032761">
        <ele>869.510</ele>
        <time>2020-05-21T10:04:24Z</time>
      </trkpt>
      <trkpt lat="37.508203" lon="-4.032740">
        <ele>869.367</ele>
        <time>2020-05-21T10:04:26Z</time>
      </trkpt>
      <trkpt lat="37.508212" lon="-4.032719">
        <ele>869.235</ele>
        <time>2020-05-21T10:04:28Z</time>
      </trkpt>
      <trkpt lat="37.508218" lon="-4.032692">
        <ele>869.168</ele>
        <time>2020-05-21T10:04:31Z</time>
      </trkpt>
      <trkpt lat="37.508224" lon="-4.032667">
        <ele>869.339</ele>
        <time>2020-05-21T10:04:33Z</time>
      </trkpt>
      <trkpt lat="37.508232" lon="-4.032642">
        <ele>869.420</ele>
        <time>2020-05-21T10:04:36Z</time>
      </trkpt>
      <trkpt lat="37.508240" lon="-4.032618">
        <ele>869.129</ele>
        <time>2020-05-21T10:04:38Z</time>
      </trkpt>
      <trkpt lat="37.508246" lon="-4.032594">
        <ele>868.725</ele>
        <time>2020-05-21T10:04:40Z</time>
      </trkpt>
      <trkpt lat="37.508249" lon="-4.032567">
        <ele>868.126</ele>
        <time>2020-05-21T10:04:43Z</time>
      </trkpt>
      <trkpt lat="37.508252" lon="-4.032542">
        <ele>867.608</ele>
        <time>2020-05-21T10:04:45Z</time>
      </trkpt>
      <trkpt lat="37.508253" lon="-4.032518">
        <ele>867.208</ele>
        <time>2020-05-21T10:04:47Z</time>
      </trkpt>
      <trkpt lat="37.508252" lon="-4.032498">
        <ele>867.190</ele>
        <time>2020-05-21T10:04:49Z</time>
      </trkpt>
      <trkpt lat="37.508244" lon="-4.032478">
        <ele>867.061</ele>
        <time>2020-05-21T10:04:51Z</time>
      </trkpt>
      <trkpt lat="37.508228" lon="-4.032464">
        <ele>866.488</ele>
        <time>2020-05-21T10:04:53Z</time>
      </trkpt>
      <trkpt lat="37.508208" lon="-4.032461">
        <ele>865.766</ele>
        <time>2020-05-21T10:04:56Z</time>
      </trkpt>
      <trkpt lat="37.508221" lon="-4.032432">
        <ele>866.249</ele>
        <time>2020-05-21T10:04:59Z</time>
      </trkpt>
      <trkpt lat="37.508250" lon="-4.032391">
        <ele>867.110</ele>
        <time>2020-05-21T10:05:04Z</time>
      </trkpt>
      <trkpt lat="37.508244" lon="-4.032395">
        <ele>867.061</ele>
        <time>2020-05-21T10:05:05Z</time>
      </trkpt>
      <trkpt lat="37.508248" lon="-4.032385">
        <ele>867.130</ele>
        <time>2020-05-21T10:05:06Z</time>
      </trkpt>
      <trkpt lat="37.508257" lon="-4.032367">
        <ele>867.243</ele>
        <time>2020-05-21T10:05:08Z</time>
      </trkpt>
      <trkpt lat="37.508271" lon="-4.032337">
        <ele>867.564</ele>
        <time>2020-05-21T10:05:11Z</time>
      </trkpt>
      <trkpt lat="37.508295" lon="-4.032297">
        <ele>867.910</ele>
        <time>2020-05-21T10:05:15Z</time>
      </trkpt>
      <trkpt lat="37.508332" lon="-4.032260">
        <ele>867.708</ele>
        <time>2020-05-21T10:05:21Z</time>
      </trkpt>
      <trkpt lat="37.508379" lon="-4.032233">
        <ele>868.092</ele>
        <time>2020-05-21T10:05:27Z</time>
      </trkpt>
      <trkpt lat="37.508435" lon="-4.032215">
        <ele>868.413</ele>
        <time>2020-05-21T10:05:33Z</time>
      </trkpt>
      <trkpt lat="37.508499" lon="-4.032201">
        <ele>869.580</ele>
        <time>2020-05-21T10:05:41Z</time>
      </trkpt>
      <trkpt lat="37.508566" lon="-4.032189">
        <ele>870.598</ele>
        <time>2020-05-21T10:05:49Z</time>
      </trkpt>
      <trkpt lat="37.508635" lon="-4.032181">
        <ele>871.511</ele>
        <time>2020-05-21T10:05:57Z</time>
      </trkpt>
      <trkpt lat="37.508700" lon="-4.032178">
        <ele>872.222</ele>
        <time>2020-05-21T10:06:04Z</time>
      </trkpt>
      <trkpt lat="37.508764" lon="-4.032176">
        <ele>873.713</ele>
        <time>2020-05-21T10:06:11Z</time>
      </trkpt>
      <trkpt lat="37.508830" lon="-4.032174">
        <ele>874.742</ele>
        <time>2020-05-21T10:06:19Z</time>
      </trkpt>
      <trkpt lat="37.508899" lon="-4.032174">
        <ele>875.376</ele>
        <time>2020-05-21T10:06:27Z</time>
      </trkpt>
      <trkpt lat="37.508967" lon="-4.032174">
        <ele>876.790</ele>
        <time>2020-05-21T10:06:35Z</time>
      </trkpt>
      <trkpt lat="37.509035" lon="-4.032177">
        <ele>877.519</ele>
        <time>2020-05-21T10:06:43Z</time>
      </trkpt>
      <trkpt lat="37.509102" lon="-4.032182">
        <ele>878.108</ele>
        <time>2020-05-21T10:06:50Z</time>
      </trkpt>
      <trkpt lat="37.509171" lon="-4.032187">
        <ele>878.885</ele>
        <time>2020-05-21T10:06:58Z</time>
      </trkpt>
      <trkpt lat="37.509239" lon="-4.032195">
        <ele>879.746</ele>
        <time>2020-05-21T10:07:06Z</time>
      </trkpt>
      <trkpt lat="37.509298" lon="-4.032205">
        <ele>880.733</ele>
        <time>2020-05-21T10:07:13Z</time>
      </trkpt>
      <trkpt lat="37.509353" lon="-4.032222">
        <ele>881.741</ele>
        <time>2020-05-21T10:07:19Z</time>
      </trkpt>
      <trkpt lat="37.509406" lon="-4.032235">
        <ele>882.034</ele>
        <time>2020-05-21T10:07:25Z</time>
      </trkpt>
      <trkpt lat="37.509453" lon="-4.032244">
        <ele>882.555</ele>
        <time>2020-05-21T10:07:31Z</time>
      </trkpt>
      <trkpt lat="37.509495" lon="-4.032253">
        <ele>883.426</ele>
        <time>2020-05-21T10:07:36Z</time>
      </trkpt>
      <trkpt lat="37.509535" lon="-4.032261">
        <ele>884.395</ele>
        <time>2020-05-21T10:07:41Z</time>
      </trkpt>
      <trkpt lat="37.509577" lon="-4.032267">
        <ele>884.864</ele>
        <time>2020-05-21T10:07:45Z</time>
      </trkpt>
      <trkpt lat="37.509622" lon="-4.032273">
        <ele>885.406</ele>
        <time>2020-05-21T10:07:51Z</time>
      </trkpt>
      <trkpt lat="37.509663" lon="-4.032276">
        <ele>885.916</ele>
        <time>2020-05-21T10:07:55Z</time>
      </trkpt>
      <trkpt lat="37.509696" lon="-4.032281">
        <ele>886.608</ele>
        <time>2020-05-21T10:07:59Z</time>
      </trkpt>
      <trkpt lat="37.509730" lon="-4.032270">
        <ele>887.384</ele>
        <time>2020-05-21T10:08:03Z</time>
      </trkpt>
      <trkpt lat="37.509729" lon="-4.032266">
        <ele>887.255</ele>
        <time>2020-05-21T10:08:04Z</time>
      </trkpt>
      <trkpt lat="37.509733" lon="-4.032258">
        <ele>887.212</ele>
        <time>2020-05-21T10:08:04Z</time>
      </trkpt>
      <trkpt lat="37.509748" lon="-4.032250">
        <ele>887.540</ele>
        <time>2020-05-21T10:08:06Z</time>
      </trkpt>
      <trkpt lat="37.509776" lon="-4.032248">
        <ele>888.313</ele>
        <time>2020-05-21T10:08:10Z</time>
      </trkpt>
      <trkpt lat="37.509810" lon="-4.032248">
        <ele>888.914</ele>
        <time>2020-05-21T10:08:14Z</time>
      </trkpt>
      <trkpt lat="37.509847" lon="-4.032246">
        <ele>889.585</ele>
        <time>2020-05-21T10:08:18Z</time>
      </trkpt>
      <trkpt lat="37.509886" lon="-4.032249">
        <ele>890.164</ele>
        <time>2020-05-21T10:08:22Z</time>
      </trkpt>
      <trkpt lat="37.509924" lon="-4.032253">
        <ele>890.299</ele>
        <time>2020-05-21T10:08:27Z</time>
      </trkpt>
      <trkpt lat="37.509959" lon="-4.032255">
        <ele>891.107</ele>
        <time>2020-05-21T10:08:31Z</time>
      </trkpt>
      <trkpt lat="37.509992" lon="-4.032258">
        <ele>892.327</ele>
        <time>2020-05-21T10:08:35Z</time>
      </trkpt>
      <trkpt lat="37.510027" lon="-4.032261">
        <ele>893.008</ele>
        <time>2020-05-21T10:08:39Z</time>
      </trkpt>
      <trkpt lat="37.510063" lon="-4.032265">
        <ele>893.467</ele>
        <time>2020-05-21T10:08:43Z</time>
      </trkpt>
      <trkpt lat="37.510097" lon="-4.032273">
        <ele>893.658</ele>
        <time>2020-05-21T10:08:47Z</time>
      </trkpt>
      <trkpt lat="37.510129" lon="-4.032280">
        <ele>894.155</ele>
        <time>2020-05-21T10:08:51Z</time>
      </trkpt>
      <trkpt lat="37.510157" lon="-4.032287">
        <ele>894.823</ele>
        <time>2020-05-21T10:08:54Z</time>
      </trkpt>
      <trkpt lat="37.510183" lon="-4.032289">
        <ele>895.036</ele>
        <time>2020-05-21T10:08:57Z</time>
      </trkpt>
      <trkpt lat="37.510206" lon="-4.032292">
        <ele>895.077</ele>
        <time>2020-05-21T10:09:00Z</time>
      </trkpt>
      <trkpt lat="37.510227" lon="-4.032299">
        <ele>895.028</ele>
        <time>2020-05-21T10:09:02Z</time>
      </trkpt>
      <trkpt lat="37.510246" lon="-4.032307">
        <ele>895.017</ele>
        <time>2020-05-21T10:09:04Z</time>
      </trkpt>
      <trkpt lat="37.510262" lon="-4.032312">
        <ele>895.167</ele>
        <time>2020-05-21T10:09:06Z</time>
      </trkpt>
      <trkpt lat="37.510274" lon="-4.032322">
        <ele>895.481</ele>
        <time>2020-05-21T10:09:08Z</time>
      </trkpt>
      <trkpt lat="37.510283" lon="-4.032330">
        <ele>895.819</ele>
        <time>2020-05-21T10:09:09Z</time>
      </trkpt>
      <trkpt lat="37.510299" lon="-4.032334">
        <ele>895.908</ele>
        <time>2020-05-21T10:09:11Z</time>
      </trkpt>
      <trkpt lat="37.510313" lon="-4.032335">
        <ele>896.054</ele>
        <time>2020-05-21T10:09:13Z</time>
      </trkpt>
      <trkpt lat="37.510330" lon="-4.032341">
        <ele>896.395</ele>
        <time>2020-05-21T10:09:15Z</time>
      </trkpt>
      <trkpt lat="37.510346" lon="-4.032354">
        <ele>896.832</ele>
        <time>2020-05-21T10:09:17Z</time>
      </trkpt>
      <trkpt lat="37.510359" lon="-4.032363">
        <ele>897.280</ele>
        <time>2020-05-21T10:09:19Z</time>
      </trkpt>
      <trkpt lat="37.510376" lon="-4.032377">
        <ele>897.983</ele>
        <time>2020-05-21T10:09:21Z</time>
      </trkpt>
      <trkpt lat="37.510393" lon="-4.032383">
        <ele>898.184</ele>
        <time>2020-05-21T10:09:23Z</time>
      </trkpt>
      <trkpt lat="37.510406" lon="-4.032385">
        <ele>898.295</ele>
        <time>2020-05-21T10:09:25Z</time>
      </trkpt>
      <trkpt lat="37.510422" lon="-4.032392">
        <ele>898.524</ele>
        <time>2020-05-21T10:09:27Z</time>
      </trkpt>
      <trkpt lat="37.510441" lon="-4.032398">
        <ele>898.852</ele>
        <time>2020-05-21T10:09:29Z</time>
      </trkpt>
      <trkpt lat="37.510458" lon="-4.032392">
        <ele>899.153</ele>
        <time>2020-05-21T10:09:31Z</time>
      </trkpt>
      <trkpt lat="37.510476" lon="-4.032391">
        <ele>899.708</ele>
        <time>2020-05-21T10:09:33Z</time>
      </trkpt>
      <trkpt lat="37.510494" lon="-4.032407">
        <ele>901.108</ele>
        <time>2020-05-21T10:09:36Z</time>
      </trkpt>
      <trkpt lat="37.510513" lon="-4.032438">
        <ele>902.363</ele>
        <time>2020-05-21T10:09:40Z</time>
      </trkpt>
      <trkpt lat="37.510526" lon="-4.032465">
        <ele>902.544</ele>
        <time>2020-05-21T10:09:42Z</time>
      </trkpt>
      <trkpt lat="37.510532" lon="-4.032485">
        <ele>903.181</ele>
        <time>2020-05-21T10:09:44Z</time>
      </trkpt>
      <trkpt lat="37.510541" lon="-4.032501">
        <ele>904.049</ele>
        <time>2020-05-21T10:09:46Z</time>
      </trkpt>
      <trkpt lat="37.510551" lon="-4.032516">
        <ele>904.962</ele>
        <time>2020-05-21T10:09:48Z</time>
      </trkpt>
      <trkpt lat="37.510557" lon="-4.032528">
        <ele>905.313</ele>
        <time>2020-05-21T10:09:50Z</time>
      </trkpt>
      <trkpt lat="37.510557" lon="-4.032528">
        <ele>905.324</ele>
        <time>2020-05-21T10:09:50Z</time>
      </trkpt>
      <trkpt lat="37.510558" lon="-4.032528">
        <ele>905.413</ele>
        <time>2020-05-21T10:09:50Z</time>
      </trkpt>
      <trkpt lat="37.510557" lon="-4.032539">
        <ele>905.645</ele>
        <time>2020-05-21T10:09:51Z</time>
      </trkpt>
      <trkpt lat="37.510556" lon="-4.032538">
        <ele>905.547</ele>
        <time>2020-05-21T10:09:51Z</time>
      </trkpt>
      <trkpt lat="37.510558" lon="-4.032531">
        <ele>905.411</ele>
        <time>2020-05-21T10:09:52Z</time>
      </trkpt>
      <trkpt lat="37.510567" lon="-4.032540">
        <ele>905.808</ele>
        <time>2020-05-21T10:09:53Z</time>
      </trkpt>
      <trkpt lat="37.510576" lon="-4.032551">
        <ele>906.242</ele>
        <time>2020-05-21T10:09:55Z</time>
      </trkpt>
      <trkpt lat="37.510586" lon="-4.032562">
        <ele>906.613</ele>
        <time>2020-05-21T10:09:56Z</time>
      </trkpt>
      <trkpt lat="37.510596" lon="-4.032569">
        <ele>906.940</ele>
        <time>2020-05-21T10:09:58Z</time>
      </trkpt>
      <trkpt lat="37.510603" lon="-4.032579">
        <ele>907.388</ele>
        <time>2020-05-21T10:09:59Z</time>
      </trkpt>
      <trkpt lat="37.510608" lon="-4.032592">
        <ele>907.791</ele>
        <time>2020-05-21T10:10:00Z</time>
      </trkpt>
      <trkpt lat="37.510610" lon="-4.032600">
        <ele>907.932</ele>
        <time>2020-05-21T10:10:01Z</time>
      </trkpt>
      <trkpt lat="37.510615" lon="-4.032609">
        <ele>908.253</ele>
        <time>2020-05-21T10:10:02Z</time>
      </trkpt>
      <trkpt lat="37.510622" lon="-4.032624">
        <ele>908.672</ele>
        <time>2020-05-21T10:10:04Z</time>
      </trkpt>
      <trkpt lat="37.510628" lon="-4.032637">
        <ele>909.039</ele>
        <time>2020-05-21T10:10:05Z</time>
      </trkpt>
      <trkpt lat="37.510637" lon="-4.032643">
        <ele>909.301</ele>
        <time>2020-05-21T10:10:06Z</time>
      </trkpt>
      <trkpt lat="37.510645" lon="-4.032652">
        <ele>909.621</ele>
        <time>2020-05-21T10:10:08Z</time>
      </trkpt>
      <trkpt lat="37.510657" lon="-4.032665">
        <ele>909.808</ele>
        <time>2020-05-21T10:10:09Z</time>
      </trkpt>
      <trkpt lat="37.510666" lon="-4.032676">
        <ele>910.021</ele>
        <time>2020-05-21T10:10:11Z</time>
      </trkpt>
      <trkpt lat="37.510673" lon="-4.032683">
        <ele>910.382</ele>
        <time>2020-05-21T10:10:12Z</time>
      </trkpt>
      <trkpt lat="37.510681" lon="-4.032696">
        <ele>910.559</ele>
        <time>2020-05-21T10:10:13Z</time>
      </trkpt>
      <trkpt lat="37.510690" lon="-4.032705">
        <ele>911.067</ele>
        <time>2020-05-21T10:10:15Z</time>
      </trkpt>
      <trkpt lat="37.510699" lon="-4.032713">
        <ele>911.480</ele>
        <time>2020-05-21T10:10:16Z</time>
      </trkpt>
      <trkpt lat="37.510708" lon="-4.032720">
        <ele>911.921</ele>
        <time>2020-05-21T10:10:17Z</time>
      </trkpt>
      <trkpt lat="37.510713" lon="-4.032723">
        <ele>912.252</ele>
        <time>2020-05-21T10:10:18Z</time>
      </trkpt>
      <trkpt lat="37.510722" lon="-4.032730">
        <ele>912.831</ele>
        <time>2020-05-21T10:10:19Z</time>
      </trkpt>
      <trkpt lat="37.510731" lon="-4.032730">
        <ele>913.053</ele>
        <time>2020-05-21T10:10:20Z</time>
      </trkpt>
      <trkpt lat="37.510744" lon="-4.032729">
        <ele>913.204</ele>
        <time>2020-05-21T10:10:22Z</time>
      </trkpt>
      <trkpt lat="37.510755" lon="-4.032723">
        <ele>913.414</ele>
        <time>2020-05-21T10:10:23Z</time>
      </trkpt>
      <trkpt lat="37.510764" lon="-4.032718">
        <ele>913.608</ele>
        <time>2020-05-21T10:10:24Z</time>
      </trkpt>
      <trkpt lat="37.510774" lon="-4.032722">
        <ele>913.923</ele>
        <time>2020-05-21T10:10:26Z</time>
      </trkpt>
      <trkpt lat="37.510784" lon="-4.032725">
        <ele>914.214</ele>
        <time>2020-05-21T10:10:27Z</time>
      </trkpt>
      <trkpt lat="37.510792" lon="-4.032725">
        <ele>914.461</ele>
        <time>2020-05-21T10:10:28Z</time>
      </trkpt>
      <trkpt lat="37.510801" lon="-4.032726">
        <ele>914.779</ele>
        <time>2020-05-21T10:10:29Z</time>
      </trkpt>
      <trkpt lat="37.510809" lon="-4.032729">
        <ele>914.922</ele>
        <time>2020-05-21T10:10:30Z</time>
      </trkpt>
      <trkpt lat="37.510820" lon="-4.032728">
        <ele>915.313</ele>
        <time>2020-05-21T10:10:31Z</time>
      </trkpt>
      <trkpt lat="37.510831" lon="-4.032727">
        <ele>915.654</ele>
        <time>2020-05-21T10:10:32Z</time>
      </trkpt>
      <trkpt lat="37.510840" lon="-4.032724">
        <ele>915.893</ele>
        <time>2020-05-21T10:10:34Z</time>
      </trkpt>
      <trkpt lat="37.510852" lon="-4.032723">
        <ele>916.094</ele>
        <time>2020-05-21T10:10:35Z</time>
      </trkpt>
      <trkpt lat="37.510866" lon="-4.032722">
        <ele>916.457</ele>
        <time>2020-05-21T10:10:37Z</time>
      </trkpt>
      <trkpt lat="37.510878" lon="-4.032716">
        <ele>916.622</ele>
        <time>2020-05-21T10:10:38Z</time>
      </trkpt>
      <trkpt lat="37.510890" lon="-4.032715">
        <ele>917.008</ele>
        <time>2020-05-21T10:10:39Z</time>
      </trkpt>
      <trkpt lat="37.510905" lon="-4.032713">
        <ele>917.737</ele>
        <time>2020-05-21T10:10:41Z</time>
      </trkpt>
      <trkpt lat="37.510915" lon="-4.032709">
        <ele>918.358</ele>
        <time>2020-05-21T10:10:43Z</time>
      </trkpt>
      <trkpt lat="37.510925" lon="-4.032704">
        <ele>918.835</ele>
        <time>2020-05-21T10:10:44Z</time>
      </trkpt>
      <trkpt lat="37.510936" lon="-4.032701">
        <ele>919.463</ele>
        <time>2020-05-21T10:10:45Z</time>
      </trkpt>
      <trkpt lat="37.510944" lon="-4.032697">
        <ele>919.876</ele>
        <time>2020-05-21T10:10:47Z</time>
      </trkpt>
      <trkpt lat="37.510951" lon="-4.032689">
        <ele>920.137</ele>
        <time>2020-05-21T10:10:48Z</time>
      </trkpt>
      <trkpt lat="37.510959" lon="-4.032683">
        <ele>920.448</ele>
        <time>2020-05-21T10:10:49Z</time>
      </trkpt>
      <trkpt lat="37.510968" lon="-4.032677">
        <ele>920.747</ele>
        <time>2020-05-21T10:10:50Z</time>
      </trkpt>
      <trkpt lat="37.510978" lon="-4.032670">
        <ele>921.131</ele>
        <time>2020-05-21T10:10:51Z</time>
      </trkpt>
      <trkpt lat="37.510988" lon="-4.032668">
        <ele>921.461</ele>
        <time>2020-05-21T10:10:52Z</time>
      </trkpt>
      <trkpt lat="37.510998" lon="-4.032667">
        <ele>921.807</ele>
        <time>2020-05-21T10:10:54Z</time>
      </trkpt>
      <trkpt lat="37.511004" lon="-4.032669">
        <ele>922.008</ele>
        <time>2020-05-21T10:10:54Z</time>
      </trkpt>
      <trkpt lat="37.511010" lon="-4.032674">
        <ele>922.231</ele>
        <time>2020-05-21T10:10:55Z</time>
      </trkpt>
      <trkpt lat="37.511019" lon="-4.032682">
        <ele>922.562</ele>
        <time>2020-05-21T10:10:57Z</time>
      </trkpt>
      <trkpt lat="37.511027" lon="-4.032690">
        <ele>922.849</ele>
        <time>2020-05-21T10:10:58Z</time>
      </trkpt>
      <trkpt lat="37.511036" lon="-4.032696">
        <ele>923.297</ele>
        <time>2020-05-21T10:10:59Z</time>
      </trkpt>
      <trkpt lat="37.511048" lon="-4.032696">
        <ele>923.610</ele>
        <time>2020-05-21T10:11:00Z</time>
      </trkpt>
      <trkpt lat="37.511059" lon="-4.032695">
        <ele>924.011</ele>
        <time>2020-05-21T10:11:02Z</time>
      </trkpt>
      <trkpt lat="37.511068" lon="-4.032698">
        <ele>924.172</ele>
        <time>2020-05-21T10:11:03Z</time>
      </trkpt>
      <trkpt lat="37.511075" lon="-4.032703">
        <ele>924.351</ele>
        <time>2020-05-21T10:11:04Z</time>
      </trkpt>
      <trkpt lat="37.511084" lon="-4.032703">
        <ele>924.426</ele>
        <time>2020-05-21T10:11:05Z</time>
      </trkpt>
      <trkpt lat="37.511092" lon="-4.032704">
        <ele>924.647</ele>
        <time>2020-05-21T10:11:06Z</time>
      </trkpt>
      <trkpt lat="37.511103" lon="-4.032705">
        <ele>924.811</ele>
        <time>2020-05-21T10:11:07Z</time>
      </trkpt>
      <trkpt lat="37.511113" lon="-4.032708">
        <ele>924.908</ele>
        <time>2020-05-21T10:11:08Z</time>
      </trkpt>
      <trkpt lat="37.511124" lon="-4.032714">
        <ele>925.350</ele>
        <time>2020-05-21T10:11:10Z</time>
      </trkpt>
      <trkpt lat="37.511132" lon="-4.032719">
        <ele>925.661</ele>
        <time>2020-05-21T10:11:11Z</time>
      </trkpt>
      <trkpt lat="37.511143" lon="-4.032729">
        <ele>926.048</ele>
        <time>2020-05-21T10:11:12Z</time>
      </trkpt>
      <trkpt lat="37.511150" lon="-4.032740">
        <ele>926.286</ele>
        <time>2020-05-21T10:11:14Z</time>
      </trkpt>
      <trkpt lat="37.511155" lon="-4.032755">
        <ele>926.459</ele>
        <time>2020-05-21T10:11:15Z</time>
      </trkpt>
      <trkpt lat="37.511157" lon="-4.032772">
        <ele>926.420</ele>
        <time>2020-05-21T10:11:17Z</time>
      </trkpt>
      <trkpt lat="37.511158" lon="-4.032786">
        <ele>926.551</ele>
        <time>2020-05-21T10:11:18Z</time>
      </trkpt>
      <trkpt lat="37.511191" lon="-4.032798">
        <ele>928.320</ele>
        <time>2020-05-21T10:11:22Z</time>
      </trkpt>
      <trkpt lat="37.511201" lon="-4.032784">
        <ele>929.035</ele>
        <time>2020-05-21T10:11:24Z</time>
      </trkpt>
      <trkpt lat="37.511209" lon="-4.032767">
        <ele>929.386</ele>
        <time>2020-05-21T10:11:26Z</time>
      </trkpt>
      <trkpt lat="37.511217" lon="-4.032747">
        <ele>929.514</ele>
        <time>2020-05-21T10:11:28Z</time>
      </trkpt>
      <trkpt lat="37.511227" lon="-4.032727">
        <ele>929.908</ele>
        <time>2020-05-21T10:11:30Z</time>
      </trkpt>
      <trkpt lat="37.511237" lon="-4.032707">
        <ele>930.251</ele>
        <time>2020-05-21T10:11:32Z</time>
      </trkpt>
      <trkpt lat="37.511246" lon="-4.032685">
        <ele>930.352</ele>
        <time>2020-05-21T10:11:34Z</time>
      </trkpt>
      <trkpt lat="37.511255" lon="-4.032658">
        <ele>930.559</ele>
        <time>2020-05-21T10:11:37Z</time>
      </trkpt>
      <trkpt lat="37.511262" lon="-4.032635">
        <ele>930.677</ele>
        <time>2020-05-21T10:11:39Z</time>
      </trkpt>
      <trkpt lat="37.511271" lon="-4.032621">
        <ele>930.720</ele>
        <time>2020-05-21T10:11:41Z</time>
      </trkpt>
      <trkpt lat="37.511283" lon="-4.032609">
        <ele>931.051</ele>
        <time>2020-05-21T10:11:43Z</time>
      </trkpt>
      <trkpt lat="37.511297" lon="-4.032601">
        <ele>931.242</ele>
        <time>2020-05-21T10:11:44Z</time>
      </trkpt>
      <trkpt lat="37.511312" lon="-4.032602">
        <ele>931.471</ele>
        <time>2020-05-21T10:11:46Z</time>
      </trkpt>
      <trkpt lat="37.511331" lon="-4.032605">
        <ele>931.826</ele>
        <time>2020-05-21T10:11:48Z</time>
      </trkpt>
      <trkpt lat="37.511355" lon="-4.032603">
        <ele>932.047</ele>
        <time>2020-05-21T10:11:51Z</time>
      </trkpt>
      <trkpt lat="37.511379" lon="-4.032601">
        <ele>932.011</ele>
        <time>2020-05-21T10:11:54Z</time>
      </trkpt>
      <trkpt lat="37.511403" lon="-4.032605">
        <ele>932.108</ele>
        <time>2020-05-21T10:11:57Z</time>
      </trkpt>
      <trkpt lat="37.511419" lon="-4.032622">
        <ele>932.440</ele>
        <time>2020-05-21T10:11:59Z</time>
      </trkpt>
      <trkpt lat="37.511416" lon="-4.032646">
        <ele>932.371</ele>
        <time>2020-05-21T10:12:01Z</time>
      </trkpt>
      <trkpt lat="37.511408" lon="-4.032674">
        <ele>932.228</ele>
        <time>2020-05-21T10:12:04Z</time>
      </trkpt>
      <trkpt lat="37.511411" lon="-4.032702">
        <ele>932.416</ele>
        <time>2020-05-21T10:12:07Z</time>
      </trkpt>
      <trkpt lat="37.511419" lon="-4.032731">
        <ele>933.159</ele>
        <time>2020-05-21T10:12:09Z</time>
      </trkpt>
      <trkpt lat="37.511432" lon="-4.032752">
        <ele>933.810</ele>
        <time>2020-05-21T10:12:12Z</time>
      </trkpt>
      <trkpt lat="37.511446" lon="-4.032769">
        <ele>934.431</ele>
        <time>2020-05-21T10:12:14Z</time>
      </trkpt>
      <trkpt lat="37.511460" lon="-4.032784">
        <ele>935.130</ele>
        <time>2020-05-21T10:12:16Z</time>
      </trkpt>
      <trkpt lat="37.511476" lon="-4.032802">
        <ele>935.531</ele>
        <time>2020-05-21T10:12:19Z</time>
      </trkpt>
      <trkpt lat="37.511493" lon="-4.032819">
        <ele>936.261</ele>
        <time>2020-05-21T10:12:21Z</time>
      </trkpt>
      <trkpt lat="37.511511" lon="-4.032838">
        <ele>937.007</ele>
        <time>2020-05-21T10:12:24Z</time>
      </trkpt>
      <trkpt lat="37.511533" lon="-4.032850">
        <ele>937.408</ele>
        <time>2020-05-21T10:12:27Z</time>
      </trkpt>
      <trkpt lat="37.511552" lon="-4.032857">
        <ele>937.741</ele>
        <time>2020-05-21T10:12:29Z</time>
      </trkpt>
      <trkpt lat="37.511568" lon="-4.032861">
        <ele>938.032</ele>
        <time>2020-05-21T10:12:31Z</time>
      </trkpt>
      <trkpt lat="37.511590" lon="-4.032861">
        <ele>938.089</ele>
        <time>2020-05-21T10:12:34Z</time>
      </trkpt>
      <trkpt lat="37.511590" lon="-4.032861">
        <ele>938.087</ele>
        <time>2020-05-21T10:12:34Z</time>
      </trkpt>
      <trkpt lat="37.511593" lon="-4.032857">
        <ele>938.040</ele>
        <time>2020-05-21T10:12:34Z</time>
      </trkpt>
      <trkpt lat="37.511603" lon="-4.032843">
        <ele>938.081</ele>
        <time>2020-05-21T10:12:36Z</time>
      </trkpt>
      <trkpt lat="37.511620" lon="-4.032827">
        <ele>937.972</ele>
        <time>2020-05-21T10:12:38Z</time>
      </trkpt>
      <trkpt lat="37.511636" lon="-4.032811">
        <ele>937.831</ele>
        <time>2020-05-21T10:12:41Z</time>
      </trkpt>
      <trkpt lat="37.511651" lon="-4.032802">
        <ele>937.848</ele>
        <time>2020-05-21T10:12:43Z</time>
      </trkpt>
      <trkpt lat="37.511675" lon="-4.032777">
        <ele>937.561</ele>
        <time>2020-05-21T10:12:46Z</time>
      </trkpt>
      <trkpt lat="37.511709" lon="-4.032749">
        <ele>936.917</ele>
        <time>2020-05-21T10:12:51Z</time>
      </trkpt>
      <trkpt lat="37.511759" lon="-4.032725">
        <ele>936.708</ele>
        <time>2020-05-21T10:12:57Z</time>
      </trkpt>
      <trkpt lat="37.511812" lon="-4.032707">
        <ele>936.872</ele>
        <time>2020-05-21T10:13:03Z</time>
      </trkpt>
      <trkpt lat="37.511868" lon="-4.032692">
        <ele>937.353</ele>
        <time>2020-05-21T10:13:10Z</time>
      </trkpt>
      <trkpt lat="37.511920" lon="-4.032680">
        <ele>938.560</ele>
        <time>2020-05-21T10:13:16Z</time>
      </trkpt>
      <trkpt lat="37.511964" lon="-4.032676">
        <ele>940.198</ele>
        <time>2020-05-21T10:13:21Z</time>
      </trkpt>
      <trkpt lat="37.512004" lon="-4.032679">
        <ele>940.841</ele>
        <time>2020-05-21T10:13:26Z</time>
      </trkpt>
      <trkpt lat="37.512044" lon="-4.032682">
        <ele>941.532</ele>
        <time>2020-05-21T10:13:30Z</time>
      </trkpt>
      <trkpt lat="37.512078" lon="-4.032686">
        <ele>942.183</ele>
        <time>2020-05-21T10:13:34Z</time>
      </trkpt>
      <trkpt lat="37.512112" lon="-4.032688">
        <ele>942.712</ele>
        <time>2020-05-21T10:13:38Z</time>
      </trkpt>
      <trkpt lat="37.512142" lon="-4.032688">
        <ele>943.472</ele>
        <time>2020-05-21T10:13:42Z</time>
      </trkpt>
      <trkpt lat="37.512170" lon="-4.032687">
        <ele>944.413</ele>
        <time>2020-05-21T10:13:45Z</time>
      </trkpt>
      <trkpt lat="37.512191" lon="-4.032680">
        <ele>945.014</ele>
        <time>2020-05-21T10:13:48Z</time>
      </trkpt>
      <trkpt lat="37.512213" lon="-4.032671">
        <ele>945.008</ele>
        <time>2020-05-21T10:13:50Z</time>
      </trkpt>
      <trkpt lat="37.512232" lon="-4.032661">
        <ele>945.065</ele>
        <time>2020-05-21T10:13:53Z</time>
      </trkpt>
      <trkpt lat="37.512250" lon="-4.032646">
        <ele>944.976</ele>
        <time>2020-05-21T10:13:55Z</time>
      </trkpt>
      <trkpt lat="37.512271" lon="-4.032627">
        <ele>944.443</ele>
        <time>2020-05-21T10:13:58Z</time>
      </trkpt>
      <trkpt lat="37.512299" lon="-4.032609">
        <ele>944.141</ele>
        <time>2020-05-21T10:14:02Z</time>
      </trkpt>
      <trkpt lat="37.512332" lon="-4.032590">
        <ele>943.944</ele>
        <time>2020-05-21T10:14:06Z</time>
      </trkpt>
      <trkpt lat="37.512362" lon="-4.032576">
        <ele>943.835</ele>
        <time>2020-05-21T10:14:09Z</time>
      </trkpt>
      <trkpt lat="37.512387" lon="-4.032570">
        <ele>944.026</ele>
        <time>2020-05-21T10:14:12Z</time>
      </trkpt>
      <trkpt lat="37.512411" lon="-4.032561">
        <ele>944.015</ele>
        <time>2020-05-21T10:14:15Z</time>
      </trkpt>
      <trkpt lat="37.512445" lon="-4.032547">
        <ele>945.045</ele>
        <time>2020-05-21T10:14:19Z</time>
      </trkpt>
      <trkpt lat="37.512484" lon="-4.032530">
        <ele>945.447</ele>
        <time>2020-05-21T10:14:24Z</time>
      </trkpt>
      <trkpt lat="37.512531" lon="-4.032506">
        <ele>945.511</ele>
        <time>2020-05-21T10:14:30Z</time>
      </trkpt>
      <trkpt lat="37.512585" lon="-4.032476">
        <ele>944.408</ele>
        <time>2020-05-21T10:14:37Z</time>
      </trkpt>
      <trkpt lat="37.512641" lon="-4.032451">
        <ele>945.272</ele>
        <time>2020-05-21T10:14:43Z</time>
      </trkpt>
      <trkpt lat="37.512694" lon="-4.032433">
        <ele>948.073</ele>
        <time>2020-05-21T10:14:50Z</time>
      </trkpt>
      <trkpt lat="37.512737" lon="-4.032418">
        <ele>949.160</ele>
        <time>2020-05-21T10:14:55Z</time>
      </trkpt>
      <trkpt lat="37.512775" lon="-4.032398">
        <ele>948.988</ele>
        <time>2020-05-21T10:15:00Z</time>
      </trkpt>
      <trkpt lat="37.512814" lon="-4.032377">
        <ele>949.091</ele>
        <time>2020-05-21T10:15:05Z</time>
      </trkpt>
      <trkpt lat="37.512855" lon="-4.032356">
        <ele>948.882</ele>
        <time>2020-05-21T10:15:10Z</time>
      </trkpt>
      <trkpt lat="37.512897" lon="-4.032329">
        <ele>950.143</ele>
        <time>2020-05-21T10:15:16Z</time>
      </trkpt>
      <trkpt lat="37.512939" lon="-4.032296">
        <ele>950.112</ele>
        <time>2020-05-21T10:15:21Z</time>
      </trkpt>
      <trkpt lat="37.512982" lon="-4.032265">
        <ele>950.165</ele>
        <time>2020-05-21T10:15:27Z</time>
      </trkpt>
      <trkpt lat="37.513024" lon="-4.032240">
        <ele>950.868</ele>
        <time>2020-05-21T10:15:32Z</time>
      </trkpt>
      <trkpt lat="37.513058" lon="-4.032226">
        <ele>951.514</ele>
        <time>2020-05-21T10:15:36Z</time>
      </trkpt>
      <trkpt lat="37.513086" lon="-4.032221">
        <ele>952.008</ele>
        <time>2020-05-21T10:15:40Z</time>
      </trkpt>
      <trkpt lat="37.513111" lon="-4.032218">
        <ele>952.814</ele>
        <time>2020-05-21T10:15:43Z</time>
      </trkpt>
      <trkpt lat="37.513134" lon="-4.032219">
        <ele>953.765</ele>
        <time>2020-05-21T10:15:45Z</time>
      </trkpt>
      <trkpt lat="37.513158" lon="-4.032217">
        <ele>954.582</ele>
        <time>2020-05-21T10:15:48Z</time>
      </trkpt>
      <trkpt lat="37.513182" lon="-4.032212">
        <ele>955.430</ele>
        <time>2020-05-21T10:15:51Z</time>
      </trkpt>
      <trkpt lat="37.513200" lon="-4.032202">
        <ele>956.043</ele>
        <time>2020-05-21T10:15:53Z</time>
      </trkpt>
      <trkpt lat="37.513223" lon="-4.032193">
        <ele>955.964</ele>
        <time>2020-05-21T10:15:56Z</time>
      </trkpt>
      <trkpt lat="37.513244" lon="-4.032181">
        <ele>955.945</ele>
        <time>2020-05-21T10:15:59Z</time>
      </trkpt>
      <trkpt lat="37.513266" lon="-4.032169">
        <ele>955.824</ele>
        <time>2020-05-21T10:16:02Z</time>
      </trkpt>
      <trkpt lat="37.513284" lon="-4.032155">
        <ele>955.544</ele>
        <time>2020-05-21T10:16:04Z</time>
      </trkpt>
      <trkpt lat="37.513302" lon="-4.032141">
        <ele>955.105</ele>
        <time>2020-05-21T10:16:06Z</time>
      </trkpt>
      <trkpt lat="37.513327" lon="-4.032115">
        <ele>955.015</ele>
        <time>2020-05-21T10:16:10Z</time>
      </trkpt>
      <trkpt lat="37.513327" lon="-4.032115">
        <ele>955.008</ele>
        <time>2020-05-21T10:16:10Z</time>
      </trkpt>
      <trkpt lat="37.513338" lon="-4.032115">
        <ele>954.962</ele>
        <time>2020-05-21T10:16:11Z</time>
      </trkpt>
      <trkpt lat="37.513347" lon="-4.032117">
        <ele>954.953</ele>
        <time>2020-05-21T10:16:12Z</time>
      </trkpt>
      <trkpt lat="37.513354" lon="-4.032118">
        <ele>954.930</ele>
        <time>2020-05-21T10:16:13Z</time>
      </trkpt>
      <trkpt lat="37.513358" lon="-4.032119">
        <ele>954.898</ele>
        <time>2020-05-21T10:16:14Z</time>
      </trkpt>
      <trkpt lat="37.513360" lon="-4.032114">
        <ele>954.921</ele>
        <time>2020-05-21T10:16:14Z</time>
      </trkpt>
      <trkpt lat="37.513370" lon="-4.032108">
        <ele>954.942</ele>
        <time>2020-05-21T10:16:15Z</time>
      </trkpt>
      <trkpt lat="37.513386" lon="-4.032094">
        <ele>954.273</ele>
        <time>2020-05-21T10:16:18Z</time>
      </trkpt>
      <trkpt lat="37.513399" lon="-4.032076">
        <ele>953.852</ele>
        <time>2020-05-21T10:16:20Z</time>
      </trkpt>
      <trkpt lat="37.513413" lon="-4.032042">
        <ele>953.827</ele>
        <time>2020-05-21T10:16:24Z</time>
      </trkpt>
      <trkpt lat="37.513438" lon="-4.031993">
        <ele>953.568</ele>
        <time>2020-05-21T10:16:29Z</time>
      </trkpt>
      <trkpt lat="37.513469" lon="-4.031939">
        <ele>953.114</ele>
        <time>2020-05-21T10:16:35Z</time>
      </trkpt>
      <trkpt lat="37.513501" lon="-4.031881">
        <ele>953.708</ele>
        <time>2020-05-21T10:16:41Z</time>
      </trkpt>
      <trkpt lat="37.513530" lon="-4.031824">
        <ele>955.020</ele>
        <time>2020-05-21T10:16:47Z</time>
      </trkpt>
      <trkpt lat="37.513555" lon="-4.031767">
        <ele>955.351</ele>
        <time>2020-05-21T10:16:53Z</time>
      </trkpt>
      <trkpt lat="37.513579" lon="-4.031712">
        <ele>956.158</ele>
        <time>2020-05-21T10:16:59Z</time>
      </trkpt>
      <trkpt lat="37.513600" lon="-4.031662">
        <ele>957.566</ele>
        <time>2020-05-21T10:17:04Z</time>
      </trkpt>
      <trkpt lat="37.513620" lon="-4.031619">
        <ele>957.989</ele>
        <time>2020-05-21T10:17:09Z</time>
      </trkpt>
      <trkpt lat="37.513632" lon="-4.031584">
        <ele>957.780</ele>
        <time>2020-05-21T10:17:12Z</time>
      </trkpt>
      <trkpt lat="37.513645" lon="-4.031555">
        <ele>957.571</ele>
        <time>2020-05-21T10:17:15Z</time>
      </trkpt>
      <trkpt lat="37.513657" lon="-4.031529">
        <ele>957.690</ele>
        <time>2020-05-21T10:17:18Z</time>
      </trkpt>
      <trkpt lat="37.513667" lon="-4.031509">
        <ele>957.421</ele>
        <time>2020-05-21T10:17:20Z</time>
      </trkpt>
      <trkpt lat="37.513676" lon="-4.031492">
        <ele>957.141</ele>
        <time>2020-05-21T10:17:22Z</time>
      </trkpt>
      <trkpt lat="37.513688" lon="-4.031483">
        <ele>956.705</ele>
        <time>2020-05-21T10:17:24Z</time>
      </trkpt>
      <trkpt lat="37.513704" lon="-4.031471">
        <ele>956.308</ele>
        <time>2020-05-21T10:17:26Z</time>
      </trkpt>
      <trkpt lat="37.513715" lon="-4.031461">
        <ele>956.210</ele>
        <time>2020-05-21T10:17:28Z</time>
      </trkpt>
      <trkpt lat="37.513728" lon="-4.031445">
        <ele>956.111</ele>
        <time>2020-05-21T10:17:30Z</time>
      </trkpt>
      <trkpt lat="37.513744" lon="-4.031428">
        <ele>955.838</ele>
        <time>2020-05-21T10:17:32Z</time>
      </trkpt>
      <trkpt lat="37.513769" lon="-4.031402">
        <ele>955.686</ele>
        <time>2020-05-21T10:17:36Z</time>
      </trkpt>
      <trkpt lat="37.513797" lon="-4.031366">
        <ele>955.489</ele>
        <time>2020-05-21T10:17:40Z</time>
      </trkpt>
      <trkpt lat="37.513840" lon="-4.031182">
        <ele>960.270</ele>
        <time>2020-05-21T10:17:58Z</time>
      </trkpt>
      <trkpt lat="37.513840" lon="-4.031182">
        <ele>960.221</ele>
        <time>2020-05-21T10:17:58Z</time>
      </trkpt>
      <trkpt lat="37.513844" lon="-4.031154">
        <ele>960.650</ele>
        <time>2020-05-21T10:18:01Z</time>
      </trkpt>
      <trkpt lat="37.513848" lon="-4.031122">
        <ele>960.562</ele>
        <time>2020-05-21T10:18:04Z</time>
      </trkpt>
      <trkpt lat="37.513852" lon="-4.031083">
        <ele>960.783</ele>
        <time>2020-05-21T10:18:07Z</time>
      </trkpt>
      <trkpt lat="37.513861" lon="-4.031033">
        <ele>961.211</ele>
        <time>2020-05-21T10:18:12Z</time>
      </trkpt>
      <trkpt lat="37.513865" lon="-4.030984">
        <ele>961.408</ele>
        <time>2020-05-21T10:18:16Z</time>
      </trkpt>
      <trkpt lat="37.513865" lon="-4.030937">
        <ele>962.234</ele>
        <time>2020-05-21T10:18:21Z</time>
      </trkpt>
      <trkpt lat="37.513865" lon="-4.030887">
        <ele>962.275</ele>
        <time>2020-05-21T10:18:25Z</time>
      </trkpt>
      <trkpt lat="37.513863" lon="-4.030841">
        <ele>962.252</ele>
        <time>2020-05-21T10:18:29Z</time>
      </trkpt>
      <trkpt lat="37.513884" lon="-4.030778">
        <ele>961.640</ele>
        <time>2020-05-21T10:18:36Z</time>
      </trkpt>
      <trkpt lat="37.513901" lon="-4.030723">
        <ele>960.783</ele>
        <time>2020-05-21T10:18:41Z</time>
      </trkpt>
      <trkpt lat="37.513923" lon="-4.030665">
        <ele>960.354</ele>
        <time>2020-05-21T10:18:47Z</time>
      </trkpt>
      <trkpt lat="37.513946" lon="-4.030604">
        <ele>960.025</ele>
        <time>2020-05-21T10:18:53Z</time>
      </trkpt>
      <trkpt lat="37.513960" lon="-4.030555">
        <ele>960.524</ele>
        <time>2020-05-21T10:18:58Z</time>
      </trkpt>
      <trkpt lat="37.513964" lon="-4.030513">
        <ele>960.959</ele>
        <time>2020-05-21T10:19:02Z</time>
      </trkpt>
      <trkpt lat="37.513967" lon="-4.030474">
        <ele>961.003</ele>
        <time>2020-05-21T10:19:05Z</time>
      </trkpt>
      <trkpt lat="37.513970" lon="-4.030433">
        <ele>961.823</ele>
        <time>2020-05-21T10:19:09Z</time>
      </trkpt>
      <trkpt lat="37.513969" lon="-4.030397">
        <ele>962.308</ele>
        <time>2020-05-21T10:19:12Z</time>
      </trkpt>
      <trkpt lat="37.513967" lon="-4.030358">
        <ele>963.243</ele>
        <time>2020-05-21T10:19:16Z</time>
      </trkpt>
      <trkpt lat="37.513963" lon="-4.030318">
        <ele>963.874</ele>
        <time>2020-05-21T10:19:20Z</time>
      </trkpt>
      <trkpt lat="37.513966" lon="-4.030286">
        <ele>963.881</ele>
        <time>2020-05-21T10:19:22Z</time>
      </trkpt>
      <trkpt lat="37.513967" lon="-4.030256">
        <ele>963.889</ele>
        <time>2020-05-21T10:19:25Z</time>
      </trkpt>
      <trkpt lat="37.513966" lon="-4.030236">
        <ele>964.132</ele>
        <time>2020-05-21T10:19:27Z</time>
      </trkpt>
      <trkpt lat="37.513964" lon="-4.030213">
        <ele>964.543</ele>
        <time>2020-05-21T10:19:29Z</time>
      </trkpt>
      <trkpt lat="37.513965" lon="-4.030188">
        <ele>965.044</ele>
        <time>2020-05-21T10:19:31Z</time>
      </trkpt>
      <trkpt lat="37.513966" lon="-4.030173">
        <ele>965.373</ele>
        <time>2020-05-21T10:19:33Z</time>
      </trkpt>
      <trkpt lat="37.513973" lon="-4.030150">
        <ele>965.726</ele>
        <time>2020-05-21T10:19:35Z</time>
      </trkpt>
      <trkpt lat="37.513980" lon="-4.030121">
        <ele>966.247</ele>
        <time>2020-05-21T10:19:38Z</time>
      </trkpt>
      <trkpt lat="37.513981" lon="-4.030096">
        <ele>966.811</ele>
        <time>2020-05-21T10:19:40Z</time>
      </trkpt>
      <trkpt lat="37.513980" lon="-4.030075">
        <ele>967.208</ele>
        <time>2020-05-21T10:19:42Z</time>
      </trkpt>
      <trkpt lat="37.513988" lon="-4.030059">
        <ele>967.030</ele>
        <time>2020-05-21T10:19:44Z</time>
      </trkpt>
      <trkpt lat="37.513996" lon="-4.030042">
        <ele>966.731</ele>
        <time>2020-05-21T10:19:46Z</time>
      </trkpt>
      <trkpt lat="37.513995" lon="-4.030023">
        <ele>967.018</ele>
        <time>2020-05-21T10:19:47Z</time>
      </trkpt>
      <trkpt lat="37.513999" lon="-4.030001">
        <ele>967.546</ele>
        <time>2020-05-21T10:19:50Z</time>
      </trkpt>
      <trkpt lat="37.514005" lon="-4.029976">
        <ele>968.079</ele>
        <time>2020-05-21T10:19:52Z</time>
      </trkpt>
      <trkpt lat="37.514007" lon="-4.029945">
        <ele>968.760</ele>
        <time>2020-05-21T10:19:55Z</time>
      </trkpt>
      <trkpt lat="37.513988" lon="-4.029770">
        <ele>972.981</ele>
        <time>2020-05-21T10:20:11Z</time>
      </trkpt>
      <trkpt lat="37.513976" lon="-4.029757">
        <ele>973.480</ele>
        <time>2020-05-21T10:20:13Z</time>
      </trkpt>
      <trkpt lat="37.513965" lon="-4.029741">
        <ele>973.948</ele>
        <time>2020-05-21T10:20:15Z</time>
      </trkpt>
      <trkpt lat="37.513946" lon="-4.029730">
        <ele>974.561</ele>
        <time>2020-05-21T10:20:18Z</time>
      </trkpt>
      <trkpt lat="37.513935" lon="-4.029725">
        <ele>974.817</ele>
        <time>2020-05-21T10:20:19Z</time>
      </trkpt>
      <trkpt lat="37.513912" lon="-4.029720">
        <ele>975.308</ele>
        <time>2020-05-21T10:20:22Z</time>
      </trkpt>
      <trkpt lat="37.513920" lon="-4.029683">
        <ele>976.042</ele>
        <time>2020-05-21T10:20:25Z</time>
      </trkpt>
      <trkpt lat="37.513913" lon="-4.029667">
        <ele>976.393</ele>
        <time>2020-05-21T10:20:27Z</time>
      </trkpt>
      <trkpt lat="37.513930" lon="-4.029626">
        <ele>976.180</ele>
        <time>2020-05-21T10:20:31Z</time>
      </trkpt>
      <trkpt lat="37.513943" lon="-4.029583">
        <ele>976.678</ele>
        <time>2020-05-21T10:20:35Z</time>
      </trkpt>
      <trkpt lat="37.513943" lon="-4.029552">
        <ele>977.331</ele>
        <time>2020-05-21T10:20:38Z</time>
      </trkpt>
      <trkpt lat="37.513941" lon="-4.029526">
        <ele>978.062</ele>
        <time>2020-05-21T10:20:41Z</time>
      </trkpt>
      <trkpt lat="37.513929" lon="-4.029510">
        <ele>978.683</ele>
        <time>2020-05-21T10:20:43Z</time>
      </trkpt>
      <trkpt lat="37.513919" lon="-4.029488">
        <ele>979.192</ele>
        <time>2020-05-21T10:20:45Z</time>
      </trkpt>
      <trkpt lat="37.513917" lon="-4.029456">
        <ele>979.873</ele>
        <time>2020-05-21T10:20:48Z</time>
      </trkpt>
      <trkpt lat="37.513923" lon="-4.029411">
        <ele>980.085</ele>
        <time>2020-05-21T10:20:52Z</time>
      </trkpt>
      <trkpt lat="37.513922" lon="-4.029373">
        <ele>980.813</ele>
        <time>2020-05-21T10:20:56Z</time>
      </trkpt>
      <trkpt lat="37.513916" lon="-4.029340">
        <ele>981.708</ele>
        <time>2020-05-21T10:20:59Z</time>
      </trkpt>
      <trkpt lat="37.513908" lon="-4.029318">
        <ele>982.395</ele>
        <time>2020-05-21T10:21:01Z</time>
      </trkpt>
      <trkpt lat="37.514042" lon="-4.028013">
        <ele>974.296</ele>
        <time>2020-05-21T10:23:00Z</time>
      </trkpt>
      <trkpt lat="37.514041" lon="-4.028011">
        <ele>974.223</ele>
        <time>2020-05-21T10:23:01Z</time>
      </trkpt>
      <trkpt lat="37.514036" lon="-4.027987">
        <ele>973.821</ele>
        <time>2020-05-21T10:23:03Z</time>
      </trkpt>
      <trkpt lat="37.514028" lon="-4.027960">
        <ele>973.644</ele>
        <time>2020-05-21T10:23:06Z</time>
      </trkpt>
      <trkpt lat="37.514015" lon="-4.027940">
        <ele>973.635</ele>
        <time>2020-05-21T10:23:08Z</time>
      </trkpt>
      <trkpt lat="37.514011" lon="-4.027915">
        <ele>973.276</ele>
        <time>2020-05-21T10:23:10Z</time>
      </trkpt>
      <trkpt lat="37.514010" lon="-4.027892">
        <ele>973.245</ele>
        <time>2020-05-21T10:23:12Z</time>
      </trkpt>
      <trkpt lat="37.514014" lon="-4.027860">
        <ele>972.975</ele>
        <time>2020-05-21T10:23:15Z</time>
      </trkpt>
      <trkpt lat="37.514014" lon="-4.027842">
        <ele>972.528</ele>
        <time>2020-05-21T10:23:17Z</time>
      </trkpt>
      <trkpt lat="37.514008" lon="-4.027828">
        <ele>972.420</ele>
        <time>2020-05-21T10:23:18Z</time>
      </trkpt>
      <trkpt lat="37.513998" lon="-4.027821">
        <ele>972.608</ele>
        <time>2020-05-21T10:23:20Z</time>
      </trkpt>
      <trkpt lat="37.513996" lon="-4.027803">
        <ele>972.395</ele>
        <time>2020-05-21T10:23:21Z</time>
      </trkpt>
      <trkpt lat="37.513997" lon="-4.027775">
        <ele>971.816</ele>
        <time>2020-05-21T10:23:24Z</time>
      </trkpt>
      <trkpt lat="37.514005" lon="-4.027746">
        <ele>971.583</ele>
        <time>2020-05-21T10:23:27Z</time>
      </trkpt>
      <trkpt lat="37.514008" lon="-4.027725">
        <ele>971.341</ele>
        <time>2020-05-21T10:23:29Z</time>
      </trkpt>
      <trkpt lat="37.514007" lon="-4.027709">
        <ele>971.374</ele>
        <time>2020-05-21T10:23:30Z</time>
      </trkpt>
      <trkpt lat="37.514007" lon="-4.027687">
        <ele>971.315</ele>
        <time>2020-05-21T10:23:32Z</time>
      </trkpt>
      <trkpt lat="37.513998" lon="-4.027667">
        <ele>971.236</ele>
        <time>2020-05-21T10:23:34Z</time>
      </trkpt>
      <trkpt lat="37.513989" lon="-4.027649">
        <ele>971.135</ele>
        <time>2020-05-21T10:23:36Z</time>
      </trkpt>
      <trkpt lat="37.513983" lon="-4.027619">
        <ele>970.647</ele>
        <time>2020-05-21T10:23:39Z</time>
      </trkpt>
      <trkpt lat="37.513973" lon="-4.027595">
        <ele>970.229</ele>
        <time>2020-05-21T10:23:41Z</time>
      </trkpt>
      <trkpt lat="37.513961" lon="-4.027569">
        <ele>969.821</ele>
        <time>2020-05-21T10:23:44Z</time>
      </trkpt>
      <trkpt lat="37.513941" lon="-4.027539">
        <ele>969.808</ele>
        <time>2020-05-21T10:23:48Z</time>
      </trkpt>
      <trkpt lat="37.513922" lon="-4.027509">
        <ele>970.272</ele>
        <time>2020-05-21T10:23:51Z</time>
      </trkpt>
      <trkpt lat="37.513905" lon="-4.027486">
        <ele>970.563</ele>
        <time>2020-05-21T10:23:54Z</time>
      </trkpt>
      <trkpt lat="37.513896" lon="-4.027453">
        <ele>970.630</ele>
        <time>2020-05-21T10:23:57Z</time>
      </trkpt>
      <trkpt lat="37.513895" lon="-4.027416">
        <ele>970.378</ele>
        <time>2020-05-21T10:24:01Z</time>
      </trkpt>
      <trkpt lat="37.513893" lon="-4.027385">
        <ele>969.951</ele>
        <time>2020-05-21T10:24:03Z</time>
      </trkpt>
      <trkpt lat="37.513891" lon="-4.027359">
        <ele>969.672</ele>
        <time>2020-05-21T10:24:06Z</time>
      </trkpt>
      <trkpt lat="37.513889" lon="-4.027333">
        <ele>969.693</ele>
        <time>2020-05-21T10:24:08Z</time>
      </trkpt>
      <trkpt lat="37.513892" lon="-4.027298">
        <ele>969.092</ele>
        <time>2020-05-21T10:24:11Z</time>
      </trkpt>
      <trkpt lat="37.513896" lon="-4.027263">
        <ele>968.634</ele>
        <time>2020-05-21T10:24:15Z</time>
      </trkpt>
      <trkpt lat="37.513904" lon="-4.027232">
        <ele>968.455</ele>
        <time>2020-05-21T10:24:17Z</time>
      </trkpt>
      <trkpt lat="37.513912" lon="-4.027197">
        <ele>967.810</ele>
        <time>2020-05-21T10:24:21Z</time>
      </trkpt>
      <trkpt lat="37.513922" lon="-4.027155">
        <ele>967.408</ele>
        <time>2020-05-21T10:24:25Z</time>
      </trkpt>
      <trkpt lat="37.513930" lon="-4.027102">
        <ele>967.171</ele>
        <time>2020-05-21T10:24:30Z</time>
      </trkpt>
      <trkpt lat="37.513935" lon="-4.027041">
        <ele>966.952</ele>
        <time>2020-05-21T10:24:35Z</time>
      </trkpt>
      <trkpt lat="37.513940" lon="-4.026982">
        <ele>966.849</ele>
        <time>2020-05-21T10:24:41Z</time>
      </trkpt>
      <trkpt lat="37.513945" lon="-4.026924">
        <ele>967.567</ele>
        <time>2020-05-21T10:24:46Z</time>
      </trkpt>
      <trkpt lat="37.513948" lon="-4.026868">
        <ele>968.770</ele>
        <time>2020-05-21T10:24:51Z</time>
      </trkpt>
      <trkpt lat="37.513947" lon="-4.026824">
        <ele>969.711</ele>
        <time>2020-05-21T10:24:55Z</time>
      </trkpt>
      <trkpt lat="37.513954" lon="-4.026756">
        <ele>970.392</ele>
        <time>2020-05-21T10:25:01Z</time>
      </trkpt>
      <trkpt lat="37.513954" lon="-4.026756">
        <ele>970.341</ele>
        <time>2020-05-21T10:25:01Z</time>
      </trkpt>
      <trkpt lat="37.513963" lon="-4.026747">
        <ele>970.361</ele>
        <time>2020-05-21T10:25:03Z</time>
      </trkpt>
      <trkpt lat="37.513967" lon="-4.026738">
        <ele>970.421</ele>
        <time>2020-05-21T10:25:04Z</time>
      </trkpt>
      <trkpt lat="37.513968" lon="-4.026718">
        <ele>970.713</ele>
        <time>2020-05-21T10:25:06Z</time>
      </trkpt>
      <trkpt lat="37.513975" lon="-4.026685">
        <ele>971.208</ele>
        <time>2020-05-21T10:25:09Z</time>
      </trkpt>
      <trkpt lat="37.513979" lon="-4.026651">
        <ele>972.074</ele>
        <time>2020-05-21T10:25:12Z</time>
      </trkpt>
      <trkpt lat="37.513988" lon="-4.026605">
        <ele>972.055</ele>
        <time>2020-05-21T10:25:16Z</time>
      </trkpt>
      <trkpt lat="37.514004" lon="-4.026552">
        <ele>973.132</ele>
        <time>2020-05-21T10:25:21Z</time>
      </trkpt>
      <trkpt lat="37.514020" lon="-4.026508">
        <ele>974.680</ele>
        <time>2020-05-21T10:25:26Z</time>
      </trkpt>
      <trkpt lat="37.514035" lon="-4.026470">
        <ele>975.273</ele>
        <time>2020-05-21T10:25:30Z</time>
      </trkpt>
      <trkpt lat="37.514051" lon="-4.026428">
        <ele>976.824</ele>
        <time>2020-05-21T10:25:34Z</time>
      </trkpt>
      <trkpt lat="37.514070" lon="-4.026390">
        <ele>976.685</ele>
        <time>2020-05-21T10:25:39Z</time>
      </trkpt>
      <trkpt lat="37.514096" lon="-4.026350">
        <ele>976.884</ele>
        <time>2020-05-21T10:25:43Z</time>
      </trkpt>
      <trkpt lat="37.514198" lon="-4.026180">
        <ele>981.386</ele>
        <time>2020-05-21T10:26:03Z</time>
      </trkpt>
      <trkpt lat="37.514194" lon="-4.026165">
        <ele>981.360</ele>
        <time>2020-05-21T10:26:04Z</time>
      </trkpt>
      <trkpt lat="37.514185" lon="-4.026153">
        <ele>981.626</ele>
        <time>2020-05-21T10:26:06Z</time>
      </trkpt>
      <trkpt lat="37.514180" lon="-4.026137">
        <ele>982.008</ele>
        <time>2020-05-21T10:26:08Z</time>
      </trkpt>
      <trkpt lat="37.514170" lon="-4.026118">
        <ele>982.626</ele>
        <time>2020-05-21T10:26:10Z</time>
      </trkpt>
      <trkpt lat="37.514163" lon="-4.026099">
        <ele>983.247</ele>
        <time>2020-05-21T10:26:12Z</time>
      </trkpt>
      <trkpt lat="37.514157" lon="-4.026068">
        <ele>983.984</ele>
        <time>2020-05-21T10:26:15Z</time>
      </trkpt>
      <trkpt lat="37.514174" lon="-4.025806">
        <ele>991.062</ele>
        <time>2020-05-21T10:26:39Z</time>
      </trkpt>
      <trkpt lat="37.514174" lon="-4.025806">
        <ele>991.015</ele>
        <time>2020-05-21T10:26:39Z</time>
      </trkpt>
      <trkpt lat="37.514181" lon="-4.025801">
        <ele>991.236</ele>
        <time>2020-05-21T10:26:40Z</time>
      </trkpt>
      <trkpt lat="37.514191" lon="-4.025794">
        <ele>991.647</ele>
        <time>2020-05-21T10:26:42Z</time>
      </trkpt>
      <trkpt lat="37.514207" lon="-4.025785">
        <ele>992.336</ele>
        <time>2020-05-21T10:26:44Z</time>
      </trkpt>
      <trkpt lat="37.514223" lon="-4.025772">
        <ele>993.138</ele>
        <time>2020-05-21T10:26:46Z</time>
      </trkpt>
      <trkpt lat="37.514239" lon="-4.025758">
        <ele>993.770</ele>
        <time>2020-05-21T10:26:49Z</time>
      </trkpt>
      <trkpt lat="37.514254" lon="-4.025747">
        <ele>994.017</ele>
        <time>2020-05-21T10:26:51Z</time>
      </trkpt>
      <trkpt lat="37.514263" lon="-4.025732">
        <ele>994.008</ele>
        <time>2020-05-21T10:26:52Z</time>
      </trkpt>
      <trkpt lat="37.514271" lon="-4.025720">
        <ele>994.031</ele>
        <time>2020-05-21T10:26:54Z</time>
      </trkpt>
      <trkpt lat="37.514276" lon="-4.025706">
        <ele>994.152</ele>
        <time>2020-05-21T10:26:55Z</time>
      </trkpt>
      <trkpt lat="37.514538" lon="-4.025272">
        <ele>1003.689</ele>
        <time>2020-05-21T10:27:45Z</time>
      </trkpt>
      <trkpt lat="37.514538" lon="-4.025272">
        <ele>1003.697</ele>
        <time>2020-05-21T10:27:45Z</time>
      </trkpt>
      <trkpt lat="37.514542" lon="-4.025268">
        <ele>1003.720</ele>
        <time>2020-05-21T10:27:46Z</time>
      </trkpt>
      <trkpt lat="37.514543" lon="-4.025256">
        <ele>1003.911</ele>
        <time>2020-05-21T10:27:47Z</time>
      </trkpt>
      <trkpt lat="37.514551" lon="-4.025229">
        <ele>1004.572</ele>
        <time>2020-05-21T10:27:50Z</time>
      </trkpt>
      <trkpt lat="37.514555" lon="-4.025197">
        <ele>1005.261</ele>
        <time>2020-05-21T10:27:53Z</time>
      </trkpt>
      <trkpt lat="37.514561" lon="-4.025159">
        <ele>1005.858</ele>
        <time>2020-05-21T10:27:56Z</time>
      </trkpt>
      <trkpt lat="37.514575" lon="-4.025119">
        <ele>1006.052</ele>
        <time>2020-05-21T10:28:00Z</time>
      </trkpt>
      <trkpt lat="37.514578" lon="-4.025091">
        <ele>1006.017</ele>
        <time>2020-05-21T10:28:03Z</time>
      </trkpt>
      <trkpt lat="37.514588" lon="-4.025062">
        <ele>1006.008</ele>
        <time>2020-05-21T10:28:06Z</time>
      </trkpt>
      <trkpt lat="37.514594" lon="-4.025028">
        <ele>1006.053</ele>
        <time>2020-05-21T10:28:09Z</time>
      </trkpt>
      <trkpt lat="37.514620" lon="-4.024973">
        <ele>1007.084</ele>
        <time>2020-05-21T10:28:15Z</time>
      </trkpt>
      <trkpt lat="37.514652" lon="-4.024920">
        <ele>1007.541</ele>
        <time>2020-05-21T10:28:21Z</time>
      </trkpt>
      <trkpt lat="37.514663" lon="-4.024884">
        <ele>1008.019</ele>
        <time>2020-05-21T10:28:24Z</time>
      </trkpt>
      <trkpt lat="37.514678" lon="-4.024839">
        <ele>1008.232</ele>
        <time>2020-05-21T10:28:29Z</time>
      </trkpt>
      <trkpt lat="37.514689" lon="-4.024800">
        <ele>1009.013</ele>
        <time>2020-05-21T10:28:32Z</time>
      </trkpt>
      <trkpt lat="37.514694" lon="-4.024776">
        <ele>1009.084</ele>
        <time>2020-05-21T10:28:35Z</time>
      </trkpt>
      <trkpt lat="37.514695" lon="-4.024754">
        <ele>1009.053</ele>
        <time>2020-05-21T10:28:37Z</time>
      </trkpt>
      <trkpt lat="37.514704" lon="-4.024730">
        <ele>1009.085</ele>
        <time>2020-05-21T10:28:39Z</time>
      </trkpt>
      <trkpt lat="37.514710" lon="-4.024702">
        <ele>1009.089</ele>
        <time>2020-05-21T10:28:42Z</time>
      </trkpt>
      <trkpt lat="37.514716" lon="-4.024672">
        <ele>1009.017</ele>
        <time>2020-05-21T10:28:44Z</time>
      </trkpt>
      <trkpt lat="37.514726" lon="-4.024641">
        <ele>1009.008</ele>
        <time>2020-05-21T10:28:47Z</time>
      </trkpt>
      <trkpt lat="37.514736" lon="-4.024612">
        <ele>1009.056</ele>
        <time>2020-05-21T10:28:50Z</time>
      </trkpt>
      <trkpt lat="37.514741" lon="-4.024590">
        <ele>1009.047</ele>
        <time>2020-05-21T10:28:52Z</time>
      </trkpt>
      <trkpt lat="37.514741" lon="-4.024571">
        <ele>1009.064</ele>
        <time>2020-05-21T10:28:54Z</time>
      </trkpt>
      <trkpt lat="37.514744" lon="-4.024555">
        <ele>1009.062</ele>
        <time>2020-05-21T10:28:56Z</time>
      </trkpt>
      <trkpt lat="37.514741" lon="-4.024540">
        <ele>1009.035</ele>
        <time>2020-05-21T10:28:57Z</time>
      </trkpt>
      <trkpt lat="37.514712" lon="-4.024506">
        <ele>1008.316</ele>
        <time>2020-05-21T10:29:02Z</time>
      </trkpt>
      <trkpt lat="37.514725" lon="-4.024501">
        <ele>1008.457</ele>
        <time>2020-05-21T10:29:03Z</time>
      </trkpt>
      <trkpt lat="37.514738" lon="-4.024497">
        <ele>1008.516</ele>
        <time>2020-05-21T10:29:05Z</time>
      </trkpt>
      <trkpt lat="37.514754" lon="-4.024497">
        <ele>1008.745</ele>
        <time>2020-05-21T10:29:06Z</time>
      </trkpt>
      <trkpt lat="37.514774" lon="-4.024491">
        <ele>1009.047</ele>
        <time>2020-05-21T10:29:09Z</time>
      </trkpt>
      <trkpt lat="37.514790" lon="-4.024472">
        <ele>1009.211</ele>
        <time>2020-05-21T10:29:11Z</time>
      </trkpt>
      <trkpt lat="37.514805" lon="-4.024460">
        <ele>1009.508</ele>
        <time>2020-05-21T10:29:13Z</time>
      </trkpt>
      <trkpt lat="37.514814" lon="-4.024449">
        <ele>1009.762</ele>
        <time>2020-05-21T10:29:15Z</time>
      </trkpt>
      <trkpt lat="37.514823" lon="-4.024434">
        <ele>1009.863</ele>
        <time>2020-05-21T10:29:17Z</time>
      </trkpt>
      <trkpt lat="37.514833" lon="-4.024412">
        <ele>1010.010</ele>
        <time>2020-05-21T10:29:19Z</time>
      </trkpt>
      <trkpt lat="37.514842" lon="-4.024391">
        <ele>1009.828</ele>
        <time>2020-05-21T10:29:21Z</time>
      </trkpt>
      <trkpt lat="37.514843" lon="-4.024373">
        <ele>1009.831</ele>
        <time>2020-05-21T10:29:23Z</time>
      </trkpt>
      <trkpt lat="37.514840" lon="-4.024356">
        <ele>1009.982</ele>
        <time>2020-05-21T10:29:24Z</time>
      </trkpt>
      <trkpt lat="37.514842" lon="-4.024340">
        <ele>1009.863</ele>
        <time>2020-05-21T10:29:26Z</time>
      </trkpt>
      <trkpt lat="37.514833" lon="-4.024330">
        <ele>1010.092</ele>
        <time>2020-05-21T10:29:27Z</time>
      </trkpt>
      <trkpt lat="37.514831" lon="-4.024309">
        <ele>1010.059</ele>
        <time>2020-05-21T10:29:29Z</time>
      </trkpt>
      <trkpt lat="37.514835" lon="-4.024286">
        <ele>1010.403</ele>
        <time>2020-05-21T10:29:31Z</time>
      </trkpt>
      <trkpt lat="37.514847" lon="-4.024256">
        <ele>1010.523</ele>
        <time>2020-05-21T10:29:34Z</time>
      </trkpt>
      <trkpt lat="37.514866" lon="-4.024221">
        <ele>1009.808</ele>
        <time>2020-05-21T10:29:38Z</time>
      </trkpt>
      <trkpt lat="37.514886" lon="-4.024179">
        <ele>1009.913</ele>
        <time>2020-05-21T10:29:42Z</time>
      </trkpt>
      <trkpt lat="37.514906" lon="-4.024135">
        <ele>1010.734</ele>
        <time>2020-05-21T10:29:47Z</time>
      </trkpt>
      <trkpt lat="37.514922" lon="-4.024091">
        <ele>1011.831</ele>
        <time>2020-05-21T10:29:52Z</time>
      </trkpt>
      <trkpt lat="37.514939" lon="-4.024044">
        <ele>1012.839</ele>
        <time>2020-05-21T10:29:56Z</time>
      </trkpt>
      <trkpt lat="37.514958" lon="-4.023993">
        <ele>1013.022</ele>
        <time>2020-05-21T10:30:02Z</time>
      </trkpt>
      <trkpt lat="37.514974" lon="-4.023941">
        <ele>1014.063</ele>
        <time>2020-05-21T10:30:07Z</time>
      </trkpt>
      <trkpt lat="37.514974" lon="-4.023901">
        <ele>1014.024</ele>
        <time>2020-05-21T10:30:10Z</time>
      </trkpt>
      <trkpt lat="37.514969" lon="-4.023867">
        <ele>1014.473</ele>
        <time>2020-05-21T10:30:13Z</time>
      </trkpt>
      <trkpt lat="37.514966" lon="-4.023828">
        <ele>1015.233</ele>
        <time>2020-05-21T10:30:17Z</time>
      </trkpt>
      <trkpt lat="37.514981" lon="-4.023765">
        <ele>1015.423</ele>
        <time>2020-05-21T10:30:23Z</time>
      </trkpt>
      <trkpt lat="37.515004" lon="-4.023691">
        <ele>1016.615</ele>
        <time>2020-05-21T10:30:30Z</time>
      </trkpt>
      <trkpt lat="37.515021" lon="-4.023625">
        <ele>1017.308</ele>
        <time>2020-05-21T10:30:37Z</time>
      </trkpt>
      <trkpt lat="37.515038" lon="-4.023558">
        <ele>1017.811</ele>
        <time>2020-05-21T10:30:43Z</time>
      </trkpt>
      <trkpt lat="37.515055" lon="-4.023497">
        <ele>1018.952</ele>
        <time>2020-05-21T10:30:49Z</time>
      </trkpt>
      <trkpt lat="37.515071" lon="-4.023443">
        <ele>1019.259</ele>
        <time>2020-05-21T10:30:54Z</time>
      </trkpt>
      <trkpt lat="37.515088" lon="-4.023388">
        <ele>1019.547</ele>
        <time>2020-05-21T10:30:59Z</time>
      </trkpt>
      <trkpt lat="37.515107" lon="-4.023336">
        <ele>1019.490</ele>
        <time>2020-05-21T10:31:05Z</time>
      </trkpt>
      <trkpt lat="37.515122" lon="-4.023282">
        <ele>1018.921</ele>
        <time>2020-05-21T10:31:10Z</time>
      </trkpt>
      <trkpt lat="37.515135" lon="-4.023222">
        <ele>1018.662</ele>
        <time>2020-05-21T10:31:15Z</time>
      </trkpt>
      <trkpt lat="37.515145" lon="-4.023154">
        <ele>1019.081</ele>
        <time>2020-05-21T10:31:22Z</time>
      </trkpt>
      <trkpt lat="37.515157" lon="-4.023087">
        <ele>1018.753</ele>
        <time>2020-05-21T10:31:28Z</time>
      </trkpt>
      <trkpt lat="37.515171" lon="-4.023016">
        <ele>1019.004</ele>
        <time>2020-05-21T10:31:35Z</time>
      </trkpt>
      <trkpt lat="37.515183" lon="-4.022941">
        <ele>1018.214</ele>
        <time>2020-05-21T10:31:42Z</time>
      </trkpt>
      <trkpt lat="37.515198" lon="-4.022864">
        <ele>1018.508</ele>
        <time>2020-05-21T10:31:49Z</time>
      </trkpt>
      <trkpt lat="37.515208" lon="-4.022787">
        <ele>1018.733</ele>
        <time>2020-05-21T10:31:56Z</time>
      </trkpt>
      <trkpt lat="37.515213" lon="-4.022711">
        <ele>1018.774</ele>
        <time>2020-05-21T10:32:03Z</time>
      </trkpt>
      <trkpt lat="37.515219" lon="-4.022629">
        <ele>1018.721</ele>
        <time>2020-05-21T10:32:10Z</time>
      </trkpt>
      <trkpt lat="37.515226" lon="-4.022543">
        <ele>1018.929</ele>
        <time>2020-05-21T10:32:18Z</time>
      </trkpt>
      <trkpt lat="37.515237" lon="-4.022460">
        <ele>1019.062</ele>
        <time>2020-05-21T10:32:25Z</time>
      </trkpt>
      <trkpt lat="37.515248" lon="-4.022380">
        <ele>1019.263</ele>
        <time>2020-05-21T10:32:33Z</time>
      </trkpt>
      <trkpt lat="37.515258" lon="-4.022300">
        <ele>1019.524</ele>
        <time>2020-05-21T10:32:40Z</time>
      </trkpt>
      <trkpt lat="37.515271" lon="-4.022221">
        <ele>1020.293</ele>
        <time>2020-05-21T10:32:47Z</time>
      </trkpt>
      <trkpt lat="37.515283" lon="-4.022149">
        <ele>1021.083</ele>
        <time>2020-05-21T10:32:54Z</time>
      </trkpt>
      <trkpt lat="37.515293" lon="-4.022084">
        <ele>1021.025</ele>
        <time>2020-05-21T10:33:00Z</time>
      </trkpt>
      <trkpt lat="37.515310" lon="-4.022021">
        <ele>1021.017</ele>
        <time>2020-05-21T10:33:06Z</time>
      </trkpt>
      <trkpt lat="37.515322" lon="-4.021965">
        <ele>1021.608</ele>
        <time>2020-05-21T10:33:11Z</time>
      </trkpt>
      <trkpt lat="37.515322" lon="-4.021912">
        <ele>1022.036</ele>
        <time>2020-05-21T10:33:16Z</time>
      </trkpt>
      <trkpt lat="37.515319" lon="-4.021861">
        <ele>1022.047</ele>
        <time>2020-05-21T10:33:21Z</time>
      </trkpt>
      <trkpt lat="37.515316" lon="-4.021812">
        <ele>1022.084</ele>
        <time>2020-05-21T10:33:25Z</time>
      </trkpt>
      <trkpt lat="37.515310" lon="-4.021771">
        <ele>1022.082</ele>
        <time>2020-05-21T10:33:29Z</time>
      </trkpt>
      <trkpt lat="37.515311" lon="-4.021727">
        <ele>1022.115</ele>
        <time>2020-05-21T10:33:33Z</time>
      </trkpt>
      <trkpt lat="37.515315" lon="-4.021682">
        <ele>1022.646</ele>
        <time>2020-05-21T10:33:37Z</time>
      </trkpt>
      <trkpt lat="37.515320" lon="-4.021636">
        <ele>1023.437</ele>
        <time>2020-05-21T10:33:41Z</time>
      </trkpt>
      <trkpt lat="37.515321" lon="-4.021588">
        <ele>1023.326</ele>
        <time>2020-05-21T10:33:46Z</time>
      </trkpt>
      <trkpt lat="37.515319" lon="-4.021543">
        <ele>1023.623</ele>
        <time>2020-05-21T10:33:50Z</time>
      </trkpt>
      <trkpt lat="37.515314" lon="-4.021504">
        <ele>1024.583</ele>
        <time>2020-05-21T10:33:54Z</time>
      </trkpt>
      <trkpt lat="37.515315" lon="-4.021472">
        <ele>1024.411</ele>
        <time>2020-05-21T10:33:56Z</time>
      </trkpt>
      <trkpt lat="37.515314" lon="-4.021439">
        <ele>1024.508</ele>
        <time>2020-05-21T10:33:59Z</time>
      </trkpt>
      <trkpt lat="37.515312" lon="-4.021405">
        <ele>1024.510</ele>
        <time>2020-05-21T10:34:02Z</time>
      </trkpt>
      <trkpt lat="37.515316" lon="-4.021369">
        <ele>1024.431</ele>
        <time>2020-05-21T10:34:06Z</time>
      </trkpt>
      <trkpt lat="37.515324" lon="-4.021332">
        <ele>1024.368</ele>
        <time>2020-05-21T10:34:09Z</time>
      </trkpt>
      <trkpt lat="37.515331" lon="-4.021298">
        <ele>1024.756</ele>
        <time>2020-05-21T10:34:12Z</time>
      </trkpt>
      <trkpt lat="37.515335" lon="-4.021266">
        <ele>1025.099</ele>
        <time>2020-05-21T10:34:15Z</time>
      </trkpt>
      <trkpt lat="37.515343" lon="-4.021232">
        <ele>1024.950</ele>
        <time>2020-05-21T10:34:19Z</time>
      </trkpt>
      <trkpt lat="37.515350" lon="-4.021200">
        <ele>1024.661</ele>
        <time>2020-05-21T10:34:22Z</time>
      </trkpt>
      <trkpt lat="37.515361" lon="-4.021169">
        <ele>1024.350</ele>
        <time>2020-05-21T10:34:25Z</time>
      </trkpt>
      <trkpt lat="37.515371" lon="-4.021141">
        <ele>1023.949</ele>
        <time>2020-05-21T10:34:27Z</time>
      </trkpt>
      <trkpt lat="37.515380" lon="-4.021114">
        <ele>1023.602</ele>
        <time>2020-05-21T10:34:30Z</time>
      </trkpt>
      <trkpt lat="37.515387" lon="-4.021088">
        <ele>1023.322</ele>
        <time>2020-05-21T10:34:33Z</time>
      </trkpt>
      <trkpt lat="37.515393" lon="-4.021062">
        <ele>1023.108</ele>
        <time>2020-05-21T10:34:35Z</time>
      </trkpt>
      <trkpt lat="37.515397" lon="-4.021034">
        <ele>1023.582</ele>
        <time>2020-05-21T10:34:38Z</time>
      </trkpt>
      <trkpt lat="37.515404" lon="-4.021007">
        <ele>1023.713</ele>
        <time>2020-05-21T10:34:40Z</time>
      </trkpt>
      <trkpt lat="37.515410" lon="-4.020980">
        <ele>1023.560</ele>
        <time>2020-05-21T10:34:43Z</time>
      </trkpt>
      <trkpt lat="37.515416" lon="-4.020953">
        <ele>1023.478</ele>
        <time>2020-05-21T10:34:45Z</time>
      </trkpt>
      <trkpt lat="37.515421" lon="-4.020927">
        <ele>1023.571</ele>
        <time>2020-05-21T10:34:48Z</time>
      </trkpt>
      <trkpt lat="37.515426" lon="-4.020901">
        <ele>1023.542</ele>
        <time>2020-05-21T10:34:50Z</time>
      </trkpt>
      <trkpt lat="37.515431" lon="-4.020875">
        <ele>1023.473</ele>
        <time>2020-05-21T10:34:53Z</time>
      </trkpt>
      <trkpt lat="37.515431" lon="-4.020848">
        <ele>1023.162</ele>
        <time>2020-05-21T10:34:55Z</time>
      </trkpt>
      <trkpt lat="37.515433" lon="-4.020824">
        <ele>1023.015</ele>
        <time>2020-05-21T10:34:57Z</time>
      </trkpt>
      <trkpt lat="37.515440" lon="-4.020798">
        <ele>1023.065</ele>
        <time>2020-05-21T10:35:00Z</time>
      </trkpt>
      <trkpt lat="37.515445" lon="-4.020770">
        <ele>1023.011</ele>
        <time>2020-05-21T10:35:02Z</time>
      </trkpt>
      <trkpt lat="37.515450" lon="-4.020743">
        <ele>1023.008</ele>
        <time>2020-05-21T10:35:05Z</time>
      </trkpt>
      <trkpt lat="37.515454" lon="-4.020716">
        <ele>1023.099</ele>
        <time>2020-05-21T10:35:07Z</time>
      </trkpt>
      <trkpt lat="37.515461" lon="-4.020687">
        <ele>1022.720</ele>
        <time>2020-05-21T10:35:10Z</time>
      </trkpt>
      <trkpt lat="37.515470" lon="-4.020658">
        <ele>1022.467</ele>
        <time>2020-05-21T10:35:13Z</time>
      </trkpt>
      <trkpt lat="37.515477" lon="-4.020634">
        <ele>1022.195</ele>
        <time>2020-05-21T10:35:15Z</time>
      </trkpt>
      <trkpt lat="37.515481" lon="-4.020609">
        <ele>1022.088</ele>
        <time>2020-05-21T10:35:17Z</time>
      </trkpt>
      <trkpt lat="37.515483" lon="-4.020583">
        <ele>1021.599</ele>
        <time>2020-05-21T10:35:20Z</time>
      </trkpt>
      <trkpt lat="37.515485" lon="-4.020556">
        <ele>1021.070</ele>
        <time>2020-05-21T10:35:22Z</time>
      </trkpt>
      <trkpt lat="37.515486" lon="-4.020532">
        <ele>1021.079</ele>
        <time>2020-05-21T10:35:25Z</time>
      </trkpt>
      <trkpt lat="37.515489" lon="-4.020504">
        <ele>1021.016</ele>
        <time>2020-05-21T10:35:27Z</time>
      </trkpt>
      <trkpt lat="37.515490" lon="-4.020477">
        <ele>1021.076</ele>
        <time>2020-05-21T10:35:30Z</time>
      </trkpt>
      <trkpt lat="37.515490" lon="-4.020448">
        <ele>1021.013</ele>
        <time>2020-05-21T10:35:32Z</time>
      </trkpt>
      <trkpt lat="37.515492" lon="-4.020420">
        <ele>1020.908</ele>
        <time>2020-05-21T10:35:35Z</time>
      </trkpt>
      <trkpt lat="37.515494" lon="-4.020393">
        <ele>1020.399</ele>
        <time>2020-05-21T10:35:37Z</time>
      </trkpt>
      <trkpt lat="37.515497" lon="-4.020363">
        <ele>1020.030</ele>
        <time>2020-05-21T10:35:40Z</time>
      </trkpt>
      <trkpt lat="37.515497" lon="-4.020334">
        <ele>1020.077</ele>
        <time>2020-05-21T10:35:43Z</time>
      </trkpt>
      <trkpt lat="37.515497" lon="-4.020302">
        <ele>1020.095</ele>
        <time>2020-05-21T10:35:45Z</time>
      </trkpt>
      <trkpt lat="37.515500" lon="-4.020266">
        <ele>1019.568</ele>
        <time>2020-05-21T10:35:49Z</time>
      </trkpt>
      <trkpt lat="37.515500" lon="-4.020222">
        <ele>1019.019</ele>
        <time>2020-05-21T10:35:53Z</time>
      </trkpt>
      <trkpt lat="37.515502" lon="-4.020166">
        <ele>1018.240</ele>
        <time>2020-05-21T10:35:58Z</time>
      </trkpt>
      <trkpt lat="37.515502" lon="-4.020102">
        <ele>1018.099</ele>
        <time>2020-05-21T10:36:04Z</time>
      </trkpt>
      <trkpt lat="37.515497" lon="-4.020031">
        <ele>1017.424</ele>
        <time>2020-05-21T10:36:10Z</time>
      </trkpt>
      <trkpt lat="37.515498" lon="-4.019954">
        <ele>1017.204</ele>
        <time>2020-05-21T10:36:17Z</time>
      </trkpt>
      <trkpt lat="37.515500" lon="-4.019872">
        <ele>1017.214</ele>
        <time>2020-05-21T10:36:25Z</time>
      </trkpt>
      <trkpt lat="37.515508" lon="-4.019787">
        <ele>1018.008</ele>
        <time>2020-05-21T10:36:32Z</time>
      </trkpt>
      <trkpt lat="37.515514" lon="-4.019702">
        <ele>1017.910</ele>
        <time>2020-05-21T10:36:40Z</time>
      </trkpt>
      <trkpt lat="37.515509" lon="-4.019616">
        <ele>1018.081</ele>
        <time>2020-05-21T10:36:48Z</time>
      </trkpt>
      <trkpt lat="37.515501" lon="-4.019533">
        <ele>1019.098</ele>
        <time>2020-05-21T10:36:55Z</time>
      </trkpt>
      <trkpt lat="37.515493" lon="-4.019447">
        <ele>1019.076</ele>
        <time>2020-05-21T10:37:03Z</time>
      </trkpt>
      <trkpt lat="37.515490" lon="-4.019361">
        <ele>1020.459</ele>
        <time>2020-05-21T10:37:11Z</time>
      </trkpt>
      <trkpt lat="37.515491" lon="-4.019276">
        <ele>1021.060</ele>
        <time>2020-05-21T10:37:19Z</time>
      </trkpt>
      <trkpt lat="37.515494" lon="-4.019197">
        <ele>1021.291</ele>
        <time>2020-05-21T10:37:26Z</time>
      </trkpt>
      <trkpt lat="37.515496" lon="-4.019119">
        <ele>1022.060</ele>
        <time>2020-05-21T10:37:33Z</time>
      </trkpt>
      <trkpt lat="37.515500" lon="-4.019047">
        <ele>1023.036</ele>
        <time>2020-05-21T10:37:40Z</time>
      </trkpt>
      <trkpt lat="37.515511" lon="-4.018980">
        <ele>1023.017</ele>
        <time>2020-05-21T10:37:46Z</time>
      </trkpt>
      <trkpt lat="37.515522" lon="-4.018916">
        <ele>1024.518</ele>
        <time>2020-05-21T10:37:52Z</time>
      </trkpt>
      <trkpt lat="37.515533" lon="-4.018859">
        <ele>1025.008</ele>
        <time>2020-05-21T10:37:57Z</time>
      </trkpt>
      <trkpt lat="37.515543" lon="-4.018805">
        <ele>1025.061</ele>
        <time>2020-05-21T10:38:02Z</time>
      </trkpt>
      <trkpt lat="37.515553" lon="-4.018746">
        <ele>1025.832</ele>
        <time>2020-05-21T10:38:08Z</time>
      </trkpt>
      <trkpt lat="37.515564" lon="-4.018683">
        <ele>1026.099</ele>
        <time>2020-05-21T10:38:14Z</time>
      </trkpt>
      <trkpt lat="37.515577" lon="-4.018617">
        <ele>1026.847</ele>
        <time>2020-05-21T10:38:20Z</time>
      </trkpt>
      <trkpt lat="37.515587" lon="-4.018551">
        <ele>1026.890</ele>
        <time>2020-05-21T10:38:26Z</time>
      </trkpt>
      <trkpt lat="37.515602" lon="-4.018487">
        <ele>1027.621</ele>
        <time>2020-05-21T10:38:32Z</time>
      </trkpt>
      <trkpt lat="37.515618" lon="-4.018424">
        <ele>1027.942</ele>
        <time>2020-05-21T10:38:38Z</time>
      </trkpt>
      <trkpt lat="37.515633" lon="-4.018362">
        <ele>1027.941</ele>
        <time>2020-05-21T10:38:44Z</time>
      </trkpt>
      <trkpt lat="37.515650" lon="-4.018308">
        <ele>1028.091</ele>
        <time>2020-05-21T10:38:49Z</time>
      </trkpt>
      <trkpt lat="37.515663" lon="-4.018261">
        <ele>1028.081</ele>
        <time>2020-05-21T10:38:54Z</time>
      </trkpt>
      <trkpt lat="37.515677" lon="-4.018215">
        <ele>1028.019</ele>
        <time>2020-05-21T10:38:58Z</time>
      </trkpt>
      <trkpt lat="37.515691" lon="-4.018172">
        <ele>1028.008</ele>
        <time>2020-05-21T10:39:02Z</time>
      </trkpt>
      <trkpt lat="37.515704" lon="-4.018127">
        <ele>1028.557</ele>
        <time>2020-05-21T10:39:07Z</time>
      </trkpt>
      <trkpt lat="37.515708" lon="-4.018076">
        <ele>1028.598</ele>
        <time>2020-05-21T10:39:11Z</time>
      </trkpt>
      <trkpt lat="37.515704" lon="-4.018021">
        <ele>1028.515</ele>
        <time>2020-05-21T10:39:16Z</time>
      </trkpt>
      <trkpt lat="37.515696" lon="-4.017961">
        <ele>1028.733</ele>
        <time>2020-05-21T10:39:22Z</time>
      </trkpt>
      <trkpt lat="37.515678" lon="-4.017897">
        <ele>1029.036</ele>
        <time>2020-05-21T10:39:28Z</time>
      </trkpt>
      <trkpt lat="37.515652" lon="-4.017823">
        <ele>1029.797</ele>
        <time>2020-05-21T10:39:35Z</time>
      </trkpt>
      <trkpt lat="37.515627" lon="-4.017742">
        <ele>1030.188</ele>
        <time>2020-05-21T10:39:43Z</time>
      </trkpt>
      <trkpt lat="37.515608" lon="-4.017656">
        <ele>1030.387</ele>
        <time>2020-05-21T10:39:51Z</time>
      </trkpt>
      <trkpt lat="37.515594" lon="-4.017566">
        <ele>1030.261</ele>
        <time>2020-05-21T10:39:59Z</time>
      </trkpt>
      <trkpt lat="37.515580" lon="-4.017474">
        <ele>1030.221</ele>
        <time>2020-05-21T10:40:08Z</time>
      </trkpt>
      <trkpt lat="37.515567" lon="-4.017381">
        <ele>1031.613</ele>
        <time>2020-05-21T10:40:17Z</time>
      </trkpt>
      <trkpt lat="37.515557" lon="-4.017290">
        <ele>1032.208</ele>
        <time>2020-05-21T10:40:25Z</time>
      </trkpt>
      <trkpt lat="37.515551" lon="-4.017199">
        <ele>1033.454</ele>
        <time>2020-05-21T10:40:33Z</time>
      </trkpt>
      <trkpt lat="37.515544" lon="-4.017111">
        <ele>1035.285</ele>
        <time>2020-05-21T10:40:41Z</time>
      </trkpt>
      <trkpt lat="37.515541" lon="-4.017026">
        <ele>1036.512</ele>
        <time>2020-05-21T10:40:49Z</time>
      </trkpt>
      <trkpt lat="37.515543" lon="-4.016946">
        <ele>1037.860</ele>
        <time>2020-05-21T10:40:57Z</time>
      </trkpt>
      <trkpt lat="37.515543" lon="-4.016874">
        <ele>1037.823</ele>
        <time>2020-05-21T10:41:03Z</time>
      </trkpt>
      <trkpt lat="37.515541" lon="-4.016807">
        <ele>1038.334</ele>
        <time>2020-05-21T10:41:09Z</time>
      </trkpt>
      <trkpt lat="37.515541" lon="-4.016745">
        <ele>1039.365</ele>
        <time>2020-05-21T10:41:15Z</time>
      </trkpt>
      <trkpt lat="37.515539" lon="-4.016695">
        <ele>1040.314</ele>
        <time>2020-05-21T10:41:19Z</time>
      </trkpt>
      <trkpt lat="37.515536" lon="-4.016648">
        <ele>1040.421</ele>
        <time>2020-05-21T10:41:24Z</time>
      </trkpt>
      <trkpt lat="37.515532" lon="-4.016610">
        <ele>1040.841</ele>
        <time>2020-05-21T10:41:27Z</time>
      </trkpt>
      <trkpt lat="37.515533" lon="-4.016573">
        <ele>1041.705</ele>
        <time>2020-05-21T10:41:31Z</time>
      </trkpt>
      <trkpt lat="37.515536" lon="-4.016539">
        <ele>1042.608</ele>
        <time>2020-05-21T10:41:34Z</time>
      </trkpt>
      <trkpt lat="37.515533" lon="-4.016509">
        <ele>1043.160</ele>
        <time>2020-05-21T10:41:37Z</time>
      </trkpt>
      <trkpt lat="37.515530" lon="-4.016486">
        <ele>1043.071</ele>
        <time>2020-05-21T10:41:39Z</time>
      </trkpt>
      <trkpt lat="37.515538" lon="-4.016442">
        <ele>1043.018</ele>
        <time>2020-05-21T10:41:43Z</time>
      </trkpt>
      <trkpt lat="37.515538" lon="-4.016442">
        <ele>1043.076</ele>
        <time>2020-05-21T10:41:43Z</time>
      </trkpt>
      <trkpt lat="37.515537" lon="-4.016440">
        <ele>1043.079</ele>
        <time>2020-05-21T10:41:43Z</time>
      </trkpt>
      <trkpt lat="37.515539" lon="-4.016428">
        <ele>1043.150</ele>
        <time>2020-05-21T10:41:44Z</time>
      </trkpt>
      <trkpt lat="37.515536" lon="-4.016404">
        <ele>1043.041</ele>
        <time>2020-05-21T10:41:46Z</time>
      </trkpt>
      <trkpt lat="37.515531" lon="-4.016384">
        <ele>1042.850</ele>
        <time>2020-05-21T10:41:48Z</time>
      </trkpt>
      <trkpt lat="37.515528" lon="-4.016363">
        <ele>1042.773</ele>
        <time>2020-05-21T10:41:50Z</time>
      </trkpt>
      <trkpt lat="37.515526" lon="-4.016339">
        <ele>1042.885</ele>
        <time>2020-05-21T10:41:52Z</time>
      </trkpt>
      <trkpt lat="37.515519" lon="-4.016314">
        <ele>1042.713</ele>
        <time>2020-05-21T10:41:55Z</time>
      </trkpt>
      <trkpt lat="37.515511" lon="-4.016289">
        <ele>1042.808</ele>
        <time>2020-05-21T10:41:57Z</time>
      </trkpt>
      <trkpt lat="37.515519" lon="-4.016279">
        <ele>1043.565</ele>
        <time>2020-05-21T10:41:59Z</time>
      </trkpt>
      <trkpt lat="37.515519" lon="-4.016279">
        <ele>1043.526</ele>
        <time>2020-05-21T10:41:59Z</time>
      </trkpt>
      <trkpt lat="37.515521" lon="-4.016274">
        <ele>1043.683</ele>
        <time>2020-05-21T10:41:59Z</time>
      </trkpt>
      <trkpt lat="37.515525" lon="-4.016262">
        <ele>1043.971</ele>
        <time>2020-05-21T10:42:00Z</time>
      </trkpt>
      <trkpt lat="37.515528" lon="-4.016248">
        <ele>1044.014</ele>
        <time>2020-05-21T10:42:02Z</time>
      </trkpt>
      <trkpt lat="37.515527" lon="-4.016232">
        <ele>1043.915</ele>
        <time>2020-05-21T10:42:03Z</time>
      </trkpt>
      <trkpt lat="37.515524" lon="-4.016216">
        <ele>1044.186</ele>
        <time>2020-05-21T10:42:05Z</time>
      </trkpt>
      <trkpt lat="37.515519" lon="-4.016200">
        <ele>1044.285</ele>
        <time>2020-05-21T10:42:06Z</time>
      </trkpt>
      <trkpt lat="37.515511" lon="-4.016183">
        <ele>1044.234</ele>
        <time>2020-05-21T10:42:08Z</time>
      </trkpt>
      <trkpt lat="37.515501" lon="-4.016167">
        <ele>1044.455</ele>
        <time>2020-05-21T10:42:10Z</time>
      </trkpt>
      <trkpt lat="37.515494" lon="-4.016153">
        <ele>1044.610</ele>
        <time>2020-05-21T10:42:11Z</time>
      </trkpt>
      <trkpt lat="37.515490" lon="-4.016135">
        <ele>1045.008</ele>
        <time>2020-05-21T10:42:13Z</time>
      </trkpt>
      <trkpt lat="37.515484" lon="-4.016117">
        <ele>1044.761</ele>
        <time>2020-05-21T10:42:15Z</time>
      </trkpt>
      <trkpt lat="37.515481" lon="-4.016100">
        <ele>1044.512</ele>
        <time>2020-05-21T10:42:17Z</time>
      </trkpt>
      <trkpt lat="37.515476" lon="-4.016083">
        <ele>1044.489</ele>
        <time>2020-05-21T10:42:18Z</time>
      </trkpt>
      <trkpt lat="37.515470" lon="-4.016067">
        <ele>1044.317</ele>
        <time>2020-05-21T10:42:20Z</time>
      </trkpt>
      <trkpt lat="37.515466" lon="-4.016049">
        <ele>1044.560</ele>
        <time>2020-05-21T10:42:21Z</time>
      </trkpt>
      <trkpt lat="37.515461" lon="-4.016030">
        <ele>1044.321</ele>
        <time>2020-05-21T10:42:23Z</time>
      </trkpt>
      <trkpt lat="37.515455" lon="-4.016013">
        <ele>1044.172</ele>
        <time>2020-05-21T10:42:25Z</time>
      </trkpt>
      <trkpt lat="37.515451" lon="-4.015999">
        <ele>1043.941</ele>
        <time>2020-05-21T10:42:26Z</time>
      </trkpt>
      <trkpt lat="37.515446" lon="-4.015980">
        <ele>1043.617</ele>
        <time>2020-05-21T10:42:28Z</time>
      </trkpt>
      <trkpt lat="37.515442" lon="-4.015961">
        <ele>1043.487</ele>
        <time>2020-05-21T10:42:30Z</time>
      </trkpt>
      <trkpt lat="37.515439" lon="-4.015943">
        <ele>1043.015</ele>
        <time>2020-05-21T10:42:32Z</time>
      </trkpt>
      <trkpt lat="37.515435" lon="-4.015927">
        <ele>1042.608</ele>
        <time>2020-05-21T10:42:33Z</time>
      </trkpt>
      <trkpt lat="37.515430" lon="-4.015909">
        <ele>1042.259</ele>
        <time>2020-05-21T10:42:35Z</time>
      </trkpt>
      <trkpt lat="37.515429" lon="-4.015893">
        <ele>1042.230</ele>
        <time>2020-05-21T10:42:36Z</time>
      </trkpt>
      <trkpt lat="37.515428" lon="-4.015876">
        <ele>1042.117</ele>
        <time>2020-05-21T10:42:38Z</time>
      </trkpt>
      <trkpt lat="37.515426" lon="-4.015860">
        <ele>1042.275</ele>
        <time>2020-05-21T10:42:39Z</time>
      </trkpt>
      <trkpt lat="37.515422" lon="-4.015841">
        <ele>1042.238</ele>
        <time>2020-05-21T10:42:41Z</time>
      </trkpt>
      <trkpt lat="37.515419" lon="-4.015822">
        <ele>1042.269</ele>
        <time>2020-05-21T10:42:43Z</time>
      </trkpt>
      <trkpt lat="37.515417" lon="-4.015805">
        <ele>1042.110</ele>
        <time>2020-05-21T10:42:45Z</time>
      </trkpt>
      <trkpt lat="37.515413" lon="-4.015788">
        <ele>1041.929</ele>
        <time>2020-05-21T10:42:46Z</time>
      </trkpt>
      <trkpt lat="37.515409" lon="-4.015770">
        <ele>1041.866</ele>
        <time>2020-05-21T10:42:48Z</time>
      </trkpt>
      <trkpt lat="37.515405" lon="-4.015752">
        <ele>1042.029</ele>
        <time>2020-05-21T10:42:50Z</time>
      </trkpt>
      <trkpt lat="37.515401" lon="-4.015735">
        <ele>1042.121</ele>
        <time>2020-05-21T10:42:51Z</time>
      </trkpt>
      <trkpt lat="37.515395" lon="-4.015719">
        <ele>1041.908</ele>
        <time>2020-05-21T10:42:53Z</time>
      </trkpt>
      <trkpt lat="37.515390" lon="-4.015701">
        <ele>1041.494</ele>
        <time>2020-05-21T10:42:55Z</time>
      </trkpt>
      <trkpt lat="37.515387" lon="-4.015682">
        <ele>1041.075</ele>
        <time>2020-05-21T10:42:56Z</time>
      </trkpt>
      <trkpt lat="37.515380" lon="-4.015665">
        <ele>1040.272</ele>
        <time>2020-05-21T10:42:58Z</time>
      </trkpt>
      <trkpt lat="37.515373" lon="-4.015648">
        <ele>1039.470</ele>
        <time>2020-05-21T10:43:00Z</time>
      </trkpt>
      <trkpt lat="37.515368" lon="-4.015631">
        <ele>1038.873</ele>
        <time>2020-05-21T10:43:02Z</time>
      </trkpt>
      <trkpt lat="37.515361" lon="-4.015616">
        <ele>1038.154</ele>
        <time>2020-05-21T10:43:04Z</time>
      </trkpt>
      <trkpt lat="37.515356" lon="-4.015598">
        <ele>1037.415</ele>
        <time>2020-05-21T10:43:06Z</time>
      </trkpt>
      <trkpt lat="37.515351" lon="-4.015581">
        <ele>1037.044</ele>
        <time>2020-05-21T10:43:07Z</time>
      </trkpt>
      <trkpt lat="37.515346" lon="-4.015564">
        <ele>1036.549</ele>
        <time>2020-05-21T10:43:09Z</time>
      </trkpt>
      <trkpt lat="37.515339" lon="-4.015547">
        <ele>1036.102</ele>
        <time>2020-05-21T10:43:11Z</time>
      </trkpt>
      <trkpt lat="37.515333" lon="-4.015530">
        <ele>1036.222</ele>
        <time>2020-05-21T10:43:12Z</time>
      </trkpt>
      <trkpt lat="37.515326" lon="-4.015514">
        <ele>1036.208</ele>
        <time>2020-05-21T10:43:14Z</time>
      </trkpt>
      <trkpt lat="37.515318" lon="-4.015497">
        <ele>1035.822</ele>
        <time>2020-05-21T10:43:16Z</time>
      </trkpt>
      <trkpt lat="37.515310" lon="-4.015480">
        <ele>1035.433</ele>
        <time>2020-05-21T10:43:18Z</time>
      </trkpt>
      <trkpt lat="37.515302" lon="-4.015465">
        <ele>1035.070</ele>
        <time>2020-05-21T10:43:19Z</time>
      </trkpt>
      <trkpt lat="37.515295" lon="-4.015450">
        <ele>1034.638</ele>
        <time>2020-05-21T10:43:21Z</time>
      </trkpt>
      <trkpt lat="37.515288" lon="-4.015434">
        <ele>1034.281</ele>
        <time>2020-05-21T10:43:23Z</time>
      </trkpt>
      <trkpt lat="37.515281" lon="-4.015420">
        <ele>1033.932</ele>
        <time>2020-05-21T10:43:24Z</time>
      </trkpt>
      <trkpt lat="37.515277" lon="-4.015404">
        <ele>1033.673</ele>
        <time>2020-05-21T10:43:26Z</time>
      </trkpt>
      <trkpt lat="37.515272" lon="-4.015387">
        <ele>1033.412</ele>
        <time>2020-05-21T10:43:27Z</time>
      </trkpt>
      <trkpt lat="37.515270" lon="-4.015370">
        <ele>1033.375</ele>
        <time>2020-05-21T10:43:29Z</time>
      </trkpt>
      <trkpt lat="37.515265" lon="-4.015352">
        <ele>1033.028</ele>
        <time>2020-05-21T10:43:31Z</time>
      </trkpt>
      <trkpt lat="37.515260" lon="-4.015334">
        <ele>1032.720</ele>
        <time>2020-05-21T10:43:33Z</time>
      </trkpt>
      <trkpt lat="37.515254" lon="-4.015317">
        <ele>1032.808</ele>
        <time>2020-05-21T10:43:34Z</time>
      </trkpt>
      <trkpt lat="37.515251" lon="-4.015298">
        <ele>1033.315</ele>
        <time>2020-05-21T10:43:36Z</time>
      </trkpt>
      <trkpt lat="37.515247" lon="-4.015279">
        <ele>1033.816</ele>
        <time>2020-05-21T10:43:38Z</time>
      </trkpt>
      <trkpt lat="37.515242" lon="-4.015261">
        <ele>1033.923</ele>
        <time>2020-05-21T10:43:40Z</time>
      </trkpt>
      <trkpt lat="37.515238" lon="-4.015243">
        <ele>1034.161</ele>
        <time>2020-05-21T10:43:41Z</time>
      </trkpt>
      <trkpt lat="37.515234" lon="-4.015226">
        <ele>1033.984</ele>
        <time>2020-05-21T10:43:43Z</time>
      </trkpt>
      <trkpt lat="37.515230" lon="-4.015210">
        <ele>1033.465</ele>
        <time>2020-05-21T10:43:44Z</time>
      </trkpt>
      <trkpt lat="37.515223" lon="-4.015193">
        <ele>1032.856</ele>
        <time>2020-05-21T10:43:46Z</time>
      </trkpt>
      <trkpt lat="37.515219" lon="-4.015174">
        <ele>1032.785</ele>
        <time>2020-05-21T10:43:48Z</time>
      </trkpt>
      <trkpt lat="37.515214" lon="-4.015155">
        <ele>1032.553</ele>
        <time>2020-05-21T10:43:50Z</time>
      </trkpt>
      <trkpt lat="37.515210" lon="-4.015134">
        <ele>1032.104</ele>
        <time>2020-05-21T10:43:52Z</time>
      </trkpt>
      <trkpt lat="37.515207" lon="-4.015111">
        <ele>1031.514</ele>
        <time>2020-05-21T10:43:54Z</time>
      </trkpt>
      <trkpt lat="37.515207" lon="-4.015087">
        <ele>1030.908</ele>
        <time>2020-05-21T10:43:56Z</time>
      </trkpt>
      <trkpt lat="37.515208" lon="-4.015063">
        <ele>1030.453</ele>
        <time>2020-05-21T10:43:59Z</time>
      </trkpt>
      <trkpt lat="37.515208" lon="-4.015038">
        <ele>1030.274</ele>
        <time>2020-05-21T10:44:01Z</time>
      </trkpt>
      <trkpt lat="37.515208" lon="-4.015015">
        <ele>1030.051</ele>
        <time>2020-05-21T10:44:03Z</time>
      </trkpt>
      <trkpt lat="37.515212" lon="-4.014991">
        <ele>1029.759</ele>
        <time>2020-05-21T10:44:05Z</time>
      </trkpt>
      <trkpt lat="37.515217" lon="-4.014964">
        <ele>1029.452</ele>
        <time>2020-05-21T10:44:08Z</time>
      </trkpt>
      <trkpt lat="37.515223" lon="-4.014938">
        <ele>1029.863</ele>
        <time>2020-05-21T10:44:10Z</time>
      </trkpt>
      <trkpt lat="37.515230" lon="-4.014913">
        <ele>1029.994</ele>
        <time>2020-05-21T10:44:13Z</time>
      </trkpt>
      <trkpt lat="37.515237" lon="-4.014888">
        <ele>1029.873</ele>
        <time>2020-05-21T10:44:15Z</time>
      </trkpt>
      <trkpt lat="37.515242" lon="-4.014862">
        <ele>1029.455</ele>
        <time>2020-05-21T10:44:17Z</time>
      </trkpt>
      <trkpt lat="37.515248" lon="-4.014840">
        <ele>1029.307</ele>
        <time>2020-05-21T10:44:19Z</time>
      </trkpt>
      <trkpt lat="37.515256" lon="-4.014818">
        <ele>1028.917</ele>
        <time>2020-05-21T10:44:22Z</time>
      </trkpt>
      <trkpt lat="37.515262" lon="-4.014795">
        <ele>1028.208</ele>
        <time>2020-05-21T10:44:24Z</time>
      </trkpt>
      <trkpt lat="37.515268" lon="-4.014771">
        <ele>1027.863</ele>
        <time>2020-05-21T10:44:26Z</time>
      </trkpt>
      <trkpt lat="37.515275" lon="-4.014749">
        <ele>1027.734</ele>
        <time>2020-05-21T10:44:28Z</time>
      </trkpt>
      <trkpt lat="37.515282" lon="-4.014727">
        <ele>1027.941</ele>
        <time>2020-05-21T10:44:31Z</time>
      </trkpt>
      <trkpt lat="37.515288" lon="-4.014706">
        <ele>1028.279</ele>
        <time>2020-05-21T10:44:33Z</time>
      </trkpt>
      <trkpt lat="37.515294" lon="-4.014684">
        <ele>1028.312</ele>
        <time>2020-05-21T10:44:35Z</time>
      </trkpt>
      <trkpt lat="37.515300" lon="-4.014661">
        <ele>1028.143</ele>
        <time>2020-05-21T10:44:37Z</time>
      </trkpt>
      <trkpt lat="37.515307" lon="-4.014640">
        <ele>1027.764</ele>
        <time>2020-05-21T10:44:39Z</time>
      </trkpt>
      <trkpt lat="37.515313" lon="-4.014617">
        <ele>1027.063</ele>
        <time>2020-05-21T10:44:41Z</time>
      </trkpt>
      <trkpt lat="37.515319" lon="-4.014596">
        <ele>1026.627</ele>
        <time>2020-05-21T10:44:43Z</time>
      </trkpt>
      <trkpt lat="37.515328" lon="-4.014578">
        <ele>1026.668</ele>
        <time>2020-05-21T10:44:45Z</time>
      </trkpt>
      <trkpt lat="37.515335" lon="-4.014558">
        <ele>1026.614</ele>
        <time>2020-05-21T10:44:47Z</time>
      </trkpt>
      <trkpt lat="37.515342" lon="-4.014538">
        <ele>1027.208</ele>
        <time>2020-05-21T10:44:49Z</time>
      </trkpt>
      <trkpt lat="37.515348" lon="-4.014516">
        <ele>1027.730</ele>
        <time>2020-05-21T10:44:52Z</time>
      </trkpt>
      <trkpt lat="37.515355" lon="-4.014496">
        <ele>1028.331</ele>
        <time>2020-05-21T10:44:54Z</time>
      </trkpt>
      <trkpt lat="37.515362" lon="-4.014475">
        <ele>1028.928</ele>
        <time>2020-05-21T10:44:56Z</time>
      </trkpt>
      <trkpt lat="37.515368" lon="-4.014456">
        <ele>1029.136</ele>
        <time>2020-05-21T10:44:58Z</time>
      </trkpt>
      <trkpt lat="37.515377" lon="-4.014437">
        <ele>1029.589</ele>
        <time>2020-05-21T10:45:00Z</time>
      </trkpt>
      <trkpt lat="37.515383" lon="-4.014419">
        <ele>1029.590</ele>
        <time>2020-05-21T10:45:01Z</time>
      </trkpt>
      <trkpt lat="37.515389" lon="-4.014400">
        <ele>1029.311</ele>
        <time>2020-05-21T10:45:03Z</time>
      </trkpt>
      <trkpt lat="37.515396" lon="-4.014383">
        <ele>1029.120</ele>
        <time>2020-05-21T10:45:05Z</time>
      </trkpt>
      <trkpt lat="37.515401" lon="-4.014367">
        <ele>1028.951</ele>
        <time>2020-05-21T10:45:07Z</time>
      </trkpt>
      <trkpt lat="37.515406" lon="-4.014348">
        <ele>1028.601</ele>
        <time>2020-05-21T10:45:08Z</time>
      </trkpt>
      <trkpt lat="37.515414" lon="-4.014332">
        <ele>1028.611</ele>
        <time>2020-05-21T10:45:10Z</time>
      </trkpt>
      <trkpt lat="37.515417" lon="-4.014315">
        <ele>1028.708</ele>
        <time>2020-05-21T10:45:12Z</time>
      </trkpt>
      <trkpt lat="37.515418" lon="-4.014298">
        <ele>1028.843</ele>
        <time>2020-05-21T10:45:13Z</time>
      </trkpt>
      <trkpt lat="37.515423" lon="-4.014280">
        <ele>1028.764</ele>
        <time>2020-05-21T10:45:15Z</time>
      </trkpt>
      <trkpt lat="37.515427" lon="-4.014263">
        <ele>1028.541</ele>
        <time>2020-05-21T10:45:17Z</time>
      </trkpt>
      <trkpt lat="37.515428" lon="-4.014244">
        <ele>1028.139</ele>
        <time>2020-05-21T10:45:18Z</time>
      </trkpt>
      <trkpt lat="37.515429" lon="-4.014225">
        <ele>1027.762</ele>
        <time>2020-05-21T10:45:20Z</time>
      </trkpt>
      <trkpt lat="37.515432" lon="-4.014206">
        <ele>1027.443</ele>
        <time>2020-05-21T10:45:22Z</time>
      </trkpt>
      <trkpt lat="37.515436" lon="-4.014187">
        <ele>1027.054</ele>
        <time>2020-05-21T10:45:24Z</time>
      </trkpt>
      <trkpt lat="37.515438" lon="-4.014169">
        <ele>1026.693</ele>
        <time>2020-05-21T10:45:25Z</time>
      </trkpt>
      <trkpt lat="37.515439" lon="-4.014151">
        <ele>1026.253</ele>
        <time>2020-05-21T10:45:27Z</time>
      </trkpt>
      <trkpt lat="37.515440" lon="-4.014134">
        <ele>1025.904</ele>
        <time>2020-05-21T10:45:29Z</time>
      </trkpt>
      <trkpt lat="37.515439" lon="-4.014116">
        <ele>1025.414</ele>
        <time>2020-05-21T10:45:30Z</time>
      </trkpt>
      <trkpt lat="37.515441" lon="-4.014098">
        <ele>1025.408</ele>
        <time>2020-05-21T10:45:32Z</time>
      </trkpt>
      <trkpt lat="37.515442" lon="-4.014081">
        <ele>1025.443</ele>
        <time>2020-05-21T10:45:34Z</time>
      </trkpt>
      <trkpt lat="37.515445" lon="-4.014063">
        <ele>1025.544</ele>
        <time>2020-05-21T10:45:35Z</time>
      </trkpt>
      <trkpt lat="37.515449" lon="-4.014043">
        <ele>1024.961</ele>
        <time>2020-05-21T10:45:37Z</time>
      </trkpt>
      <trkpt lat="37.515453" lon="-4.014023">
        <ele>1024.149</ele>
        <time>2020-05-21T10:45:39Z</time>
      </trkpt>
      <trkpt lat="37.515455" lon="-4.014004">
        <ele>1023.862</ele>
        <time>2020-05-21T10:45:41Z</time>
      </trkpt>
      <trkpt lat="37.515458" lon="-4.013985">
        <ele>1023.453</ele>
        <time>2020-05-21T10:45:43Z</time>
      </trkpt>
      <trkpt lat="37.515459" lon="-4.013966">
        <ele>1022.994</ele>
        <time>2020-05-21T10:45:45Z</time>
      </trkpt>
      <trkpt lat="37.515460" lon="-4.013947">
        <ele>1022.133</ele>
        <time>2020-05-21T10:45:46Z</time>
      </trkpt>
      <trkpt lat="37.515459" lon="-4.013929">
        <ele>1021.359</ele>
        <time>2020-05-21T10:45:48Z</time>
      </trkpt>
      <trkpt lat="37.515460" lon="-4.013912">
        <ele>1021.003</ele>
        <time>2020-05-21T10:45:50Z</time>
      </trkpt>
      <trkpt lat="37.515463" lon="-4.013893">
        <ele>1020.723</ele>
        <time>2020-05-21T10:45:52Z</time>
      </trkpt>
      <trkpt lat="37.515467" lon="-4.013875">
        <ele>1020.808</ele>
        <time>2020-05-21T10:45:53Z</time>
      </trkpt>
      <trkpt lat="37.515470" lon="-4.013857">
        <ele>1020.953</ele>
        <time>2020-05-21T10:45:55Z</time>
      </trkpt>
      <trkpt lat="37.515473" lon="-4.013839">
        <ele>1021.124</ele>
        <time>2020-05-21T10:45:57Z</time>
      </trkpt>
      <trkpt lat="37.515475" lon="-4.013823">
        <ele>1020.841</ele>
        <time>2020-05-21T10:45:58Z</time>
      </trkpt>
      <trkpt lat="37.515478" lon="-4.013806">
        <ele>1020.679</ele>
        <time>2020-05-21T10:46:00Z</time>
      </trkpt>
      <trkpt lat="37.515479" lon="-4.013787">
        <ele>1020.242</ele>
        <time>2020-05-21T10:46:01Z</time>
      </trkpt>
      <trkpt lat="37.515480" lon="-4.013766">
        <ele>1019.813</ele>
        <time>2020-05-21T10:46:03Z</time>
      </trkpt>
      <trkpt lat="37.515481" lon="-4.013748">
        <ele>1019.524</ele>
        <time>2020-05-21T10:46:05Z</time>
      </trkpt>
      <trkpt lat="37.515484" lon="-4.013728">
        <ele>1019.293</ele>
        <time>2020-05-21T10:46:07Z</time>
      </trkpt>
      <trkpt lat="37.515487" lon="-4.013707">
        <ele>1018.966</ele>
        <time>2020-05-21T10:46:09Z</time>
      </trkpt>
      <trkpt lat="37.515489" lon="-4.013688">
        <ele>1018.629</ele>
        <time>2020-05-21T10:46:11Z</time>
      </trkpt>
      <trkpt lat="37.515490" lon="-4.013669">
        <ele>1018.221</ele>
        <time>2020-05-21T10:46:12Z</time>
      </trkpt>
      <trkpt lat="37.515492" lon="-4.013651">
        <ele>1018.108</ele>
        <time>2020-05-21T10:46:14Z</time>
      </trkpt>
      <trkpt lat="37.515493" lon="-4.013632">
        <ele>1018.244</ele>
        <time>2020-05-21T10:46:16Z</time>
      </trkpt>
      <trkpt lat="37.515495" lon="-4.013613">
        <ele>1018.345</ele>
        <time>2020-05-21T10:46:18Z</time>
      </trkpt>
      <trkpt lat="37.515494" lon="-4.013592">
        <ele>1018.212</ele>
        <time>2020-05-21T10:46:19Z</time>
      </trkpt>
      <trkpt lat="37.515498" lon="-4.013570">
        <ele>1018.490</ele>
        <time>2020-05-21T10:46:21Z</time>
      </trkpt>
      <trkpt lat="37.515502" lon="-4.013549">
        <ele>1018.253</ele>
        <time>2020-05-21T10:46:23Z</time>
      </trkpt>
      <trkpt lat="37.515503" lon="-4.013529">
        <ele>1017.834</ele>
        <time>2020-05-21T10:46:25Z</time>
      </trkpt>
      <trkpt lat="37.515506" lon="-4.013509">
        <ele>1017.535</ele>
        <time>2020-05-21T10:46:27Z</time>
      </trkpt>
      <trkpt lat="37.515510" lon="-4.013488">
        <ele>1017.384</ele>
        <time>2020-05-21T10:46:29Z</time>
      </trkpt>
      <trkpt lat="37.515511" lon="-4.013469">
        <ele>1016.944</ele>
        <time>2020-05-21T10:46:31Z</time>
      </trkpt>
      <trkpt lat="37.515515" lon="-4.013450">
        <ele>1016.705</ele>
        <time>2020-05-21T10:46:33Z</time>
      </trkpt>
      <trkpt lat="37.515517" lon="-4.013429">
        <ele>1016.615</ele>
        <time>2020-05-21T10:46:35Z</time>
      </trkpt>
      <trkpt lat="37.515521" lon="-4.013408">
        <ele>1016.908</ele>
        <time>2020-05-21T10:46:37Z</time>
      </trkpt>
      <trkpt lat="37.515523" lon="-4.013389">
        <ele>1017.012</ele>
        <time>2020-05-21T10:46:38Z</time>
      </trkpt>
      <trkpt lat="37.515525" lon="-4.013369">
        <ele>1016.743</ele>
        <time>2020-05-21T10:46:40Z</time>
      </trkpt>
      <trkpt lat="37.515528" lon="-4.013347">
        <ele>1016.460</ele>
        <time>2020-05-21T10:46:42Z</time>
      </trkpt>
      <trkpt lat="37.515528" lon="-4.013326">
        <ele>1015.828</ele>
        <time>2020-05-21T10:46:44Z</time>
      </trkpt>
      <trkpt lat="37.515529" lon="-4.013307">
        <ele>1015.311</ele>
        <time>2020-05-21T10:46:46Z</time>
      </trkpt>
      <trkpt lat="37.515531" lon="-4.013288">
        <ele>1014.932</ele>
        <time>2020-05-21T10:46:48Z</time>
      </trkpt>
      <trkpt lat="37.515531" lon="-4.013270">
        <ele>1014.543</ele>
        <time>2020-05-21T10:46:49Z</time>
      </trkpt>
      <trkpt lat="37.515534" lon="-4.013249">
        <ele>1014.382</ele>
        <time>2020-05-21T10:46:51Z</time>
      </trkpt>
      <trkpt lat="37.515539" lon="-4.013229">
        <ele>1014.674</ele>
        <time>2020-05-21T10:46:53Z</time>
      </trkpt>
      <trkpt lat="37.515539" lon="-4.013213">
        <ele>1014.656</ele>
        <time>2020-05-21T10:46:55Z</time>
      </trkpt>
      <trkpt lat="37.515539" lon="-4.013196">
        <ele>1014.521</ele>
        <time>2020-05-21T10:46:56Z</time>
      </trkpt>
      <trkpt lat="37.515541" lon="-4.013179">
        <ele>1014.308</ele>
        <time>2020-05-21T10:46:58Z</time>
      </trkpt>
      <trkpt lat="37.515544" lon="-4.013162">
        <ele>1014.235</ele>
        <time>2020-05-21T10:46:59Z</time>
      </trkpt>
      <trkpt lat="37.515548" lon="-4.013145">
        <ele>1014.386</ele>
        <time>2020-05-21T10:47:01Z</time>
      </trkpt>
      <trkpt lat="37.515550" lon="-4.013128">
        <ele>1014.263</ele>
        <time>2020-05-21T10:47:03Z</time>
      </trkpt>
      <trkpt lat="37.515550" lon="-4.013110">
        <ele>1014.151</ele>
        <time>2020-05-21T10:47:04Z</time>
      </trkpt>
      <trkpt lat="37.515550" lon="-4.013093">
        <ele>1013.874</ele>
        <time>2020-05-21T10:47:06Z</time>
      </trkpt>
      <trkpt lat="37.515550" lon="-4.013076">
        <ele>1013.515</ele>
        <time>2020-05-21T10:47:07Z</time>
      </trkpt>
      <trkpt lat="37.515551" lon="-4.013057">
        <ele>1013.196</ele>
        <time>2020-05-21T10:47:09Z</time>
      </trkpt>
      <trkpt lat="37.515553" lon="-4.013038">
        <ele>1012.625</ele>
        <time>2020-05-21T10:47:11Z</time>
      </trkpt>
      <trkpt lat="37.515555" lon="-4.013018">
        <ele>1012.424</ele>
        <time>2020-05-21T10:47:13Z</time>
      </trkpt>
      <trkpt lat="37.515555" lon="-4.012998">
        <ele>1012.404</ele>
        <time>2020-05-21T10:47:14Z</time>
      </trkpt>
      <trkpt lat="37.515555" lon="-4.012979">
        <ele>1012.414</ele>
        <time>2020-05-21T10:47:16Z</time>
      </trkpt>
      <trkpt lat="37.515556" lon="-4.012961">
        <ele>1012.008</ele>
        <time>2020-05-21T10:47:18Z</time>
      </trkpt>
      <trkpt lat="37.515559" lon="-4.012942">
        <ele>1011.860</ele>
        <time>2020-05-21T10:47:20Z</time>
      </trkpt>
      <trkpt lat="37.515559" lon="-4.012924">
        <ele>1011.461</ele>
        <time>2020-05-21T10:47:21Z</time>
      </trkpt>
      <trkpt lat="37.515557" lon="-4.012906">
        <ele>1011.048</ele>
        <time>2020-05-21T10:47:23Z</time>
      </trkpt>
      <trkpt lat="37.515556" lon="-4.012887">
        <ele>1010.526</ele>
        <time>2020-05-21T10:47:25Z</time>
      </trkpt>
      <trkpt lat="37.515557" lon="-4.012868">
        <ele>1010.249</ele>
        <time>2020-05-21T10:47:27Z</time>
      </trkpt>
      <trkpt lat="37.515561" lon="-4.012850">
        <ele>1009.970</ele>
        <time>2020-05-21T10:47:28Z</time>
      </trkpt>
      <trkpt lat="37.515561" lon="-4.012833">
        <ele>1009.581</ele>
        <time>2020-05-21T10:47:30Z</time>
      </trkpt>
      <trkpt lat="37.515561" lon="-4.012814">
        <ele>1009.190</ele>
        <time>2020-05-21T10:47:32Z</time>
      </trkpt>
      <trkpt lat="37.515564" lon="-4.012798">
        <ele>1008.929</ele>
        <time>2020-05-21T10:47:33Z</time>
      </trkpt>
      <trkpt lat="37.515565" lon="-4.012779">
        <ele>1009.000</ele>
        <time>2020-05-21T10:47:35Z</time>
      </trkpt>
      <trkpt lat="37.515563" lon="-4.012762">
        <ele>1008.920</ele>
        <time>2020-05-21T10:47:36Z</time>
      </trkpt>
      <trkpt lat="37.515562" lon="-4.012745">
        <ele>1008.908</ele>
        <time>2020-05-21T10:47:38Z</time>
      </trkpt>
      <trkpt lat="37.515559" lon="-4.012731">
        <ele>1008.720</ele>
        <time>2020-05-21T10:47:39Z</time>
      </trkpt>
      <trkpt lat="37.515556" lon="-4.012713">
        <ele>1008.551</ele>
        <time>2020-05-21T10:47:41Z</time>
      </trkpt>
      <trkpt lat="37.515555" lon="-4.012697">
        <ele>1008.218</ele>
        <time>2020-05-21T10:47:42Z</time>
      </trkpt>
      <trkpt lat="37.515552" lon="-4.012680">
        <ele>1007.866</ele>
        <time>2020-05-21T10:47:44Z</time>
      </trkpt>
      <trkpt lat="37.515547" lon="-4.012663">
        <ele>1007.399</ele>
        <time>2020-05-21T10:47:46Z</time>
      </trkpt>
      <trkpt lat="37.515543" lon="-4.012645">
        <ele>1007.270</ele>
        <time>2020-05-21T10:47:47Z</time>
      </trkpt>
      <trkpt lat="37.515538" lon="-4.012628">
        <ele>1007.091</ele>
        <time>2020-05-21T10:47:49Z</time>
      </trkpt>
      <trkpt lat="37.515532" lon="-4.012610">
        <ele>1006.610</ele>
        <time>2020-05-21T10:47:51Z</time>
      </trkpt>
      <trkpt lat="37.515527" lon="-4.012594">
        <ele>1006.093</ele>
        <time>2020-05-21T10:47:53Z</time>
      </trkpt>
      <trkpt lat="37.515523" lon="-4.012577">
        <ele>1005.565</ele>
        <time>2020-05-21T10:47:54Z</time>
      </trkpt>
      <trkpt lat="37.515516" lon="-4.012560">
        <ele>1005.221</ele>
        <time>2020-05-21T10:47:56Z</time>
      </trkpt>
      <trkpt lat="37.515509" lon="-4.012542">
        <ele>1005.008</ele>
        <time>2020-05-21T10:47:58Z</time>
      </trkpt>
      <trkpt lat="37.515506" lon="-4.012522">
        <ele>1004.967</ele>
        <time>2020-05-21T10:48:00Z</time>
      </trkpt>
      <trkpt lat="37.515503" lon="-4.012504">
        <ele>1004.878</ele>
        <time>2020-05-21T10:48:01Z</time>
      </trkpt>
      <trkpt lat="37.515498" lon="-4.012487">
        <ele>1004.655</ele>
        <time>2020-05-21T10:48:03Z</time>
      </trkpt>
      <trkpt lat="37.515491" lon="-4.012468">
        <ele>1004.463</ele>
        <time>2020-05-21T10:48:05Z</time>
      </trkpt>
      <trkpt lat="37.515483" lon="-4.012450">
        <ele>1004.196</ele>
        <time>2020-05-21T10:48:07Z</time>
      </trkpt>
      <trkpt lat="37.515476" lon="-4.012435">
        <ele>1003.997</ele>
        <time>2020-05-21T10:48:08Z</time>
      </trkpt>
      <trkpt lat="37.515470" lon="-4.012418">
        <ele>1004.018</ele>
        <time>2020-05-21T10:48:10Z</time>
      </trkpt>
      <trkpt lat="37.515464" lon="-4.012402">
        <ele>1004.117</ele>
        <time>2020-05-21T10:48:12Z</time>
      </trkpt>
      <trkpt lat="37.515457" lon="-4.012386">
        <ele>1004.117</ele>
        <time>2020-05-21T10:48:13Z</time>
      </trkpt>
      <trkpt lat="37.515454" lon="-4.012367">
        <ele>1004.087</ele>
        <time>2020-05-21T10:48:15Z</time>
      </trkpt>
      <trkpt lat="37.515451" lon="-4.012348">
        <ele>1003.915</ele>
        <time>2020-05-21T10:48:17Z</time>
      </trkpt>
      <trkpt lat="37.515450" lon="-4.012329">
        <ele>1003.908</ele>
        <time>2020-05-21T10:48:18Z</time>
      </trkpt>
      <trkpt lat="37.515445" lon="-4.012313">
        <ele>1003.769</ele>
        <time>2020-05-21T10:48:20Z</time>
      </trkpt>
      <trkpt lat="37.515442" lon="-4.012296">
        <ele>1003.440</ele>
        <time>2020-05-21T10:48:22Z</time>
      </trkpt>
      <trkpt lat="37.515444" lon="-4.012278">
        <ele>1003.247</ele>
        <time>2020-05-21T10:48:23Z</time>
      </trkpt>
      <trkpt lat="37.515445" lon="-4.012261">
        <ele>1002.945</ele>
        <time>2020-05-21T10:48:25Z</time>
      </trkpt>
      <trkpt lat="37.515445" lon="-4.012243">
        <ele>1002.958</ele>
        <time>2020-05-21T10:48:27Z</time>
      </trkpt>
      <trkpt lat="37.515443" lon="-4.012225">
        <ele>1002.839</ele>
        <time>2020-05-21T10:48:28Z</time>
      </trkpt>
      <trkpt lat="37.515443" lon="-4.012208">
        <ele>1002.860</ele>
        <time>2020-05-21T10:48:30Z</time>
      </trkpt>
      <trkpt lat="37.515442" lon="-4.012189">
        <ele>1002.729</ele>
        <time>2020-05-21T10:48:31Z</time>
      </trkpt>
      <trkpt lat="37.515438" lon="-4.012168">
        <ele>1002.549</ele>
        <time>2020-05-21T10:48:33Z</time>
      </trkpt>
      <trkpt lat="37.515431" lon="-4.012150">
        <ele>1002.202</ele>
        <time>2020-05-21T10:48:35Z</time>
      </trkpt>
      <trkpt lat="37.515424" lon="-4.012133">
        <ele>1002.022</ele>
        <time>2020-05-21T10:48:37Z</time>
      </trkpt>
      <trkpt lat="37.515419" lon="-4.012117">
        <ele>1001.708</ele>
        <time>2020-05-21T10:48:39Z</time>
      </trkpt>
      <trkpt lat="37.515416" lon="-4.012099">
        <ele>1001.512</ele>
        <time>2020-05-21T10:48:40Z</time>
      </trkpt>
      <trkpt lat="37.515411" lon="-4.012080">
        <ele>1001.333</ele>
        <time>2020-05-21T10:48:42Z</time>
      </trkpt>
      <trkpt lat="37.515407" lon="-4.012063">
        <ele>1000.970</ele>
        <time>2020-05-21T10:48:44Z</time>
      </trkpt>
      <trkpt lat="37.515403" lon="-4.012049">
        <ele>1000.538</ele>
        <time>2020-05-21T10:48:45Z</time>
      </trkpt>
      <trkpt lat="37.515396" lon="-4.012037">
        <ele>1000.041</ele>
        <time>2020-05-21T10:48:47Z</time>
      </trkpt>
      <trkpt lat="37.515389" lon="-4.012021">
        <ele>999.752</ele>
        <time>2020-05-21T10:48:48Z</time>
      </trkpt>
      <trkpt lat="37.515382" lon="-4.012005">
        <ele>999.343</ele>
        <time>2020-05-21T10:48:50Z</time>
      </trkpt>
      <trkpt lat="37.515373" lon="-4.011989">
        <ele>998.832</ele>
        <time>2020-05-21T10:48:52Z</time>
      </trkpt>
      <trkpt lat="37.515365" lon="-4.011973">
        <ele>998.398</ele>
        <time>2020-05-21T10:48:54Z</time>
      </trkpt>
      <trkpt lat="37.515357" lon="-4.011956">
        <ele>997.915</ele>
        <time>2020-05-21T10:48:55Z</time>
      </trkpt>
      <trkpt lat="37.515349" lon="-4.011940">
        <ele>997.526</ele>
        <time>2020-05-21T10:48:57Z</time>
      </trkpt>
      <trkpt lat="37.515340" lon="-4.011927">
        <ele>997.008</ele>
        <time>2020-05-21T10:48:59Z</time>
      </trkpt>
      <trkpt lat="37.515329" lon="-4.011916">
        <ele>996.877</ele>
        <time>2020-05-21T10:49:00Z</time>
      </trkpt>
      <trkpt lat="37.515318" lon="-4.011906">
        <ele>996.648</ele>
        <time>2020-05-21T10:49:02Z</time>
      </trkpt>
      <trkpt lat="37.515305" lon="-4.011897">
        <ele>996.325</ele>
        <time>2020-05-21T10:49:04Z</time>
      </trkpt>
      <trkpt lat="37.515292" lon="-4.011888">
        <ele>995.963</ele>
        <time>2020-05-21T10:49:05Z</time>
      </trkpt>
      <trkpt lat="37.515279" lon="-4.011881">
        <ele>995.586</ele>
        <time>2020-05-21T10:49:07Z</time>
      </trkpt>
      <trkpt lat="37.515265" lon="-4.011874">
        <ele>995.127</ele>
        <time>2020-05-21T10:49:09Z</time>
      </trkpt>
      <trkpt lat="37.515250" lon="-4.011866">
        <ele>994.788</ele>
        <time>2020-05-21T10:49:11Z</time>
      </trkpt>
      <trkpt lat="37.515238" lon="-4.011858">
        <ele>994.387</ele>
        <time>2020-05-21T10:49:12Z</time>
      </trkpt>
      <trkpt lat="37.515224" lon="-4.011847">
        <ele>993.922</ele>
        <time>2020-05-21T10:49:14Z</time>
      </trkpt>
      <trkpt lat="37.515212" lon="-4.011837">
        <ele>993.762</ele>
        <time>2020-05-21T10:49:16Z</time>
      </trkpt>
      <trkpt lat="37.515198" lon="-4.011830">
        <ele>993.508</ele>
        <time>2020-05-21T10:49:18Z</time>
      </trkpt>
      <trkpt lat="37.515183" lon="-4.011824">
        <ele>993.208</ele>
        <time>2020-05-21T10:49:19Z</time>
      </trkpt>
      <trkpt lat="37.515167" lon="-4.011819">
        <ele>992.990</ele>
        <time>2020-05-21T10:49:21Z</time>
      </trkpt>
      <trkpt lat="37.515151" lon="-4.011816">
        <ele>992.681</ele>
        <time>2020-05-21T10:49:23Z</time>
      </trkpt>
      <trkpt lat="37.515100" lon="-4.011791">
        <ele>991.728</ele>
        <time>2020-05-21T10:49:30Z</time>
      </trkpt>
      <trkpt lat="37.515100" lon="-4.011791">
        <ele>991.726</ele>
        <time>2020-05-21T10:49:30Z</time>
      </trkpt>
      <trkpt lat="37.515100" lon="-4.011791">
        <ele>991.779</ele>
        <time>2020-05-21T10:49:30Z</time>
      </trkpt>
      <trkpt lat="37.515087" lon="-4.011790">
        <ele>991.510</ele>
        <time>2020-05-21T10:49:31Z</time>
      </trkpt>
      <trkpt lat="37.515074" lon="-4.011785">
        <ele>991.321</ele>
        <time>2020-05-21T10:49:33Z</time>
      </trkpt>
      <trkpt lat="37.515060" lon="-4.011780">
        <ele>991.020</ele>
        <time>2020-05-21T10:49:34Z</time>
      </trkpt>
      <trkpt lat="37.515047" lon="-4.011773">
        <ele>991.079</ele>
        <time>2020-05-21T10:49:36Z</time>
      </trkpt>
      <trkpt lat="37.515036" lon="-4.011767">
        <ele>991.005</ele>
        <time>2020-05-21T10:49:37Z</time>
      </trkpt>
      <trkpt lat="37.515023" lon="-4.011763">
        <ele>991.025</ele>
        <time>2020-05-21T10:49:39Z</time>
      </trkpt>
      <trkpt lat="37.515010" lon="-4.011760">
        <ele>991.008</ele>
        <time>2020-05-21T10:49:40Z</time>
      </trkpt>
      <trkpt lat="37.514995" lon="-4.011762">
        <ele>990.945</ele>
        <time>2020-05-21T10:49:42Z</time>
      </trkpt>
      <trkpt lat="37.514981" lon="-4.011757">
        <ele>990.676</ele>
        <time>2020-05-21T10:49:44Z</time>
      </trkpt>
      <trkpt lat="37.514966" lon="-4.011751">
        <ele>990.493</ele>
        <time>2020-05-21T10:49:45Z</time>
      </trkpt>
      <trkpt lat="37.514951" lon="-4.011749">
        <ele>990.171</ele>
        <time>2020-05-21T10:49:47Z</time>
      </trkpt>
      <trkpt lat="37.514935" lon="-4.011746">
        <ele>990.094</ele>
        <time>2020-05-21T10:49:49Z</time>
      </trkpt>
      <trkpt lat="37.514921" lon="-4.011743">
        <ele>990.025</ele>
        <time>2020-05-21T10:49:51Z</time>
      </trkpt>
      <trkpt lat="37.514909" lon="-4.011737">
        <ele>990.066</ele>
        <time>2020-05-21T10:49:52Z</time>
      </trkpt>
      <trkpt lat="37.514897" lon="-4.011731">
        <ele>990.035</ele>
        <time>2020-05-21T10:49:54Z</time>
      </trkpt>
      <trkpt lat="37.514885" lon="-4.011724">
        <ele>989.977</ele>
        <time>2020-05-21T10:49:55Z</time>
      </trkpt>
      <trkpt lat="37.514873" lon="-4.011720">
        <ele>989.761</ele>
        <time>2020-05-21T10:49:57Z</time>
      </trkpt>
      <trkpt lat="37.514857" lon="-4.011716">
        <ele>989.427</ele>
        <time>2020-05-21T10:49:58Z</time>
      </trkpt>
      <trkpt lat="37.514842" lon="-4.011715">
        <ele>989.208</ele>
        <time>2020-05-21T10:50:00Z</time>
      </trkpt>
      <trkpt lat="37.514827" lon="-4.011710">
        <ele>989.045</ele>
        <time>2020-05-21T10:50:02Z</time>
      </trkpt>
      <trkpt lat="37.514811" lon="-4.011705">
        <ele>989.036</ele>
        <time>2020-05-21T10:50:04Z</time>
      </trkpt>
      <trkpt lat="37.514797" lon="-4.011702">
        <ele>989.073</ele>
        <time>2020-05-21T10:50:05Z</time>
      </trkpt>
      <trkpt lat="37.514781" lon="-4.011702">
        <ele>989.061</ele>
        <time>2020-05-21T10:50:07Z</time>
      </trkpt>
      <trkpt lat="37.514786" lon="-4.011696">
        <ele>989.034</ele>
        <time>2020-05-21T10:50:08Z</time>
      </trkpt>
      <trkpt lat="37.514786" lon="-4.011696">
        <ele>989.045</ele>
        <time>2020-05-21T10:50:08Z</time>
      </trkpt>
      <trkpt lat="37.514778" lon="-4.011690">
        <ele>989.036</ele>
        <time>2020-05-21T10:50:09Z</time>
      </trkpt>
      <trkpt lat="37.514767" lon="-4.011681">
        <ele>988.815</ele>
        <time>2020-05-21T10:50:11Z</time>
      </trkpt>
      <trkpt lat="37.514744" lon="-4.011667">
        <ele>988.492</ele>
        <time>2020-05-21T10:50:14Z</time>
      </trkpt>
      <trkpt lat="37.514716" lon="-4.011656">
        <ele>988.073</ele>
        <time>2020-05-21T10:50:17Z</time>
      </trkpt>
      <trkpt lat="37.514692" lon="-4.011647">
        <ele>988.020</ele>
        <time>2020-05-21T10:50:20Z</time>
      </trkpt>
      <trkpt lat="37.514660" lon="-4.011636">
        <ele>988.108</ele>
        <time>2020-05-21T10:50:24Z</time>
      </trkpt>
      <trkpt lat="37.514625" lon="-4.011618">
        <ele>988.797</ele>
        <time>2020-05-21T10:50:28Z</time>
      </trkpt>
      <trkpt lat="37.514592" lon="-4.011599">
        <ele>989.158</ele>
        <time>2020-05-21T10:50:32Z</time>
      </trkpt>
      <trkpt lat="37.514563" lon="-4.011579">
        <ele>989.085</ele>
        <time>2020-05-21T10:50:36Z</time>
      </trkpt>
      <trkpt lat="37.514524" lon="-4.011553">
        <ele>989.553</ele>
        <time>2020-05-21T10:50:41Z</time>
      </trkpt>
      <trkpt lat="37.514494" lon="-4.011530">
        <ele>990.196</ele>
        <time>2020-05-21T10:50:45Z</time>
      </trkpt>
      <trkpt lat="37.514472" lon="-4.011508">
        <ele>990.857</ele>
        <time>2020-05-21T10:50:48Z</time>
      </trkpt>
      <trkpt lat="37.514447" lon="-4.011488">
        <ele>991.738</ele>
        <time>2020-05-21T10:50:52Z</time>
      </trkpt>
      <trkpt lat="37.514428" lon="-4.011470">
        <ele>992.477</ele>
        <time>2020-05-21T10:50:54Z</time>
      </trkpt>
      <trkpt lat="37.514417" lon="-4.011450">
        <ele>992.884</ele>
        <time>2020-05-21T10:50:57Z</time>
      </trkpt>
      <trkpt lat="37.514407" lon="-4.011425">
        <ele>993.107</ele>
        <time>2020-05-21T10:50:59Z</time>
      </trkpt>
      <trkpt lat="37.514402" lon="-4.011402">
        <ele>993.317</ele>
        <time>2020-05-21T10:51:01Z</time>
      </trkpt>
      <trkpt lat="37.514395" lon="-4.011384">
        <ele>993.608</ele>
        <time>2020-05-21T10:51:03Z</time>
      </trkpt>
      <trkpt lat="37.514387" lon="-4.011367">
        <ele>993.826</ele>
        <time>2020-05-21T10:51:05Z</time>
      </trkpt>
      <trkpt lat="37.514380" lon="-4.011348">
        <ele>994.367</ele>
        <time>2020-05-21T10:51:07Z</time>
      </trkpt>
      <trkpt lat="37.514371" lon="-4.011327">
        <ele>995.164</ele>
        <time>2020-05-21T10:51:09Z</time>
      </trkpt>
      <trkpt lat="37.514359" lon="-4.011308">
        <ele>996.082</ele>
        <time>2020-05-21T10:51:12Z</time>
      </trkpt>
      <trkpt lat="37.514354" lon="-4.011286">
        <ele>996.665</ele>
        <time>2020-05-21T10:51:14Z</time>
      </trkpt>
      <trkpt lat="37.514351" lon="-4.011263">
        <ele>997.166</ele>
        <time>2020-05-21T10:51:16Z</time>
      </trkpt>
      <trkpt lat="37.514344" lon="-4.011247">
        <ele>997.477</ele>
        <time>2020-05-21T10:51:18Z</time>
      </trkpt>
      <trkpt lat="37.514338" lon="-4.011233">
        <ele>997.616</ele>
        <time>2020-05-21T10:51:19Z</time>
      </trkpt>
      <trkpt lat="37.514334" lon="-4.011224">
        <ele>997.743</ele>
        <time>2020-05-21T10:51:20Z</time>
      </trkpt>
      <trkpt lat="37.514329" lon="-4.011207">
        <ele>998.364</ele>
        <time>2020-05-21T10:51:22Z</time>
      </trkpt>
      <trkpt lat="37.514327" lon="-4.011192">
        <ele>998.710</ele>
        <time>2020-05-21T10:51:23Z</time>
      </trkpt>
      <trkpt lat="37.514322" lon="-4.011175">
        <ele>999.208</ele>
        <time>2020-05-21T10:51:25Z</time>
      </trkpt>
      <trkpt lat="37.514317" lon="-4.011164">
        <ele>999.362</ele>
        <time>2020-05-21T10:51:26Z</time>
      </trkpt>
      <trkpt lat="37.514316" lon="-4.011157">
        <ele>999.483</ele>
        <time>2020-05-21T10:51:27Z</time>
      </trkpt>
      <trkpt lat="37.514313" lon="-4.011149">
        <ele>999.550</ele>
        <time>2020-05-21T10:51:28Z</time>
      </trkpt>
      <trkpt lat="37.514305" lon="-4.011136">
        <ele>999.898</ele>
        <time>2020-05-21T10:51:29Z</time>
      </trkpt>
      <trkpt lat="37.514299" lon="-4.011120">
        <ele>999.791</ele>
        <time>2020-05-21T10:51:31Z</time>
      </trkpt>
      <trkpt lat="37.514297" lon="-4.011105">
        <ele>999.432</ele>
        <time>2020-05-21T10:51:32Z</time>
      </trkpt>
      <trkpt lat="37.514295" lon="-4.011093">
        <ele>999.243</ele>
        <time>2020-05-21T10:51:33Z</time>
      </trkpt>
      <trkpt lat="37.514290" lon="-4.011074">
        <ele>999.332</ele>
        <time>2020-05-21T10:51:35Z</time>
      </trkpt>
      <trkpt lat="37.514286" lon="-4.011057">
        <ele>999.431</ele>
        <time>2020-05-21T10:51:37Z</time>
      </trkpt>
      <trkpt lat="37.514281" lon="-4.011044">
        <ele>999.661</ele>
        <time>2020-05-21T10:51:38Z</time>
      </trkpt>
      <trkpt lat="37.514275" lon="-4.011032">
        <ele>999.807</ele>
        <time>2020-05-21T10:51:39Z</time>
      </trkpt>
      <trkpt lat="37.514265" lon="-4.011016">
        <ele>1000.208</ele>
        <time>2020-05-21T10:51:41Z</time>
      </trkpt>
      <trkpt lat="37.514254" lon="-4.010995">
        <ele>1000.621</ele>
        <time>2020-05-21T10:51:43Z</time>
      </trkpt>
      <trkpt lat="37.514245" lon="-4.010975">
        <ele>1001.172</ele>
        <time>2020-05-21T10:51:46Z</time>
      </trkpt>
      <trkpt lat="37.514241" lon="-4.010963">
        <ele>1001.469</ele>
        <time>2020-05-21T10:51:47Z</time>
      </trkpt>
      <trkpt lat="37.514235" lon="-4.010948">
        <ele>1001.817</ele>
        <time>2020-05-21T10:51:48Z</time>
      </trkpt>
      <trkpt lat="37.514229" lon="-4.010938">
        <ele>1001.970</ele>
        <time>2020-05-21T10:51:50Z</time>
      </trkpt>
      <trkpt lat="37.514224" lon="-4.010924">
        <ele>1001.921</ele>
        <time>2020-05-21T10:51:51Z</time>
      </trkpt>
      <trkpt lat="37.514217" lon="-4.010905">
        <ele>1001.952</ele>
        <time>2020-05-21T10:51:53Z</time>
      </trkpt>
      <trkpt lat="37.514213" lon="-4.010886">
        <ele>1002.031</ele>
        <time>2020-05-21T10:51:55Z</time>
      </trkpt>
      <trkpt lat="37.514207" lon="-4.010863">
        <ele>1002.425</ele>
        <time>2020-05-21T10:51:57Z</time>
      </trkpt>
      <trkpt lat="37.514200" lon="-4.010833">
        <ele>1002.726</ele>
        <time>2020-05-21T10:52:00Z</time>
      </trkpt>
      <trkpt lat="37.514188" lon="-4.010800">
        <ele>1003.508</ele>
        <time>2020-05-21T10:52:03Z</time>
      </trkpt>
      <trkpt lat="37.514182" lon="-4.010767">
        <ele>1004.308</ele>
        <time>2020-05-21T10:52:06Z</time>
      </trkpt>
      <trkpt lat="37.514178" lon="-4.010731">
        <ele>1004.970</ele>
        <time>2020-05-21T10:52:10Z</time>
      </trkpt>
      <trkpt lat="37.514173" lon="-4.010695">
        <ele>1005.761</ele>
        <time>2020-05-21T10:52:13Z</time>
      </trkpt>
      <trkpt lat="37.514164" lon="-4.010662">
        <ele>1006.658</ele>
        <time>2020-05-21T10:52:16Z</time>
      </trkpt>
      <trkpt lat="37.514158" lon="-4.010629">
        <ele>1007.076</ele>
        <time>2020-05-21T10:52:19Z</time>
      </trkpt>
      <trkpt lat="37.514148" lon="-4.010600">
        <ele>1007.889</ele>
        <time>2020-05-21T10:52:22Z</time>
      </trkpt>
      <trkpt lat="37.514142" lon="-4.010576">
        <ele>1008.630</ele>
        <time>2020-05-21T10:52:25Z</time>
      </trkpt>
      <trkpt lat="37.514135" lon="-4.010551">
        <ele>1009.531</ele>
        <time>2020-05-21T10:52:27Z</time>
      </trkpt>
      <trkpt lat="37.514124" lon="-4.010526">
        <ele>1010.150</ele>
        <time>2020-05-21T10:52:30Z</time>
      </trkpt>
      <trkpt lat="37.514109" lon="-4.010497">
        <ele>1010.639</ele>
        <time>2020-05-21T10:52:33Z</time>
      </trkpt>
      <trkpt lat="37.514094" lon="-4.010473">
        <ele>1011.301</ele>
        <time>2020-05-21T10:52:36Z</time>
      </trkpt>
      <trkpt lat="37.514080" lon="-4.010446">
        <ele>1011.921</ele>
        <time>2020-05-21T10:52:39Z</time>
      </trkpt>
      <trkpt lat="37.514061" lon="-4.010416">
        <ele>1012.708</ele>
        <time>2020-05-21T10:52:42Z</time>
      </trkpt>
      <trkpt lat="37.514042" lon="-4.010386">
        <ele>1013.131</ele>
        <time>2020-05-21T10:52:46Z</time>
      </trkpt>
      <trkpt lat="37.514021" lon="-4.010353">
        <ele>1014.092</ele>
        <time>2020-05-21T10:52:50Z</time>
      </trkpt>
      <trkpt lat="37.514005" lon="-4.010319">
        <ele>1014.739</ele>
        <time>2020-05-21T10:52:54Z</time>
      </trkpt>
      <trkpt lat="37.513985" lon="-4.010280">
        <ele>1015.187</ele>
        <time>2020-05-21T10:52:58Z</time>
      </trkpt>
      <trkpt lat="37.513969" lon="-4.010241">
        <ele>1015.710</ele>
        <time>2020-05-21T10:53:02Z</time>
      </trkpt>
      <trkpt lat="37.513955" lon="-4.010203">
        <ele>1016.211</ele>
        <time>2020-05-21T10:53:06Z</time>
      </trkpt>
      <trkpt lat="37.513939" lon="-4.010167">
        <ele>1016.822</ele>
        <time>2020-05-21T10:53:09Z</time>
      </trkpt>
      <trkpt lat="37.513925" lon="-4.010139">
        <ele>1017.561</ele>
        <time>2020-05-21T10:53:12Z</time>
      </trkpt>
      <trkpt lat="37.513907" lon="-4.010106">
        <ele>1019.211</ele>
        <time>2020-05-21T10:53:16Z</time>
      </trkpt>
      <trkpt lat="37.513892" lon="-4.010072">
        <ele>1020.521</ele>
        <time>2020-05-21T10:53:20Z</time>
      </trkpt>
      <trkpt lat="37.513877" lon="-4.010033">
        <ele>1021.903</ele>
        <time>2020-05-21T10:53:24Z</time>
      </trkpt>
      <trkpt lat="37.513862" lon="-4.009992">
        <ele>1022.208</ele>
        <time>2020-05-21T10:53:28Z</time>
      </trkpt>
      <trkpt lat="37.513848" lon="-4.009948">
        <ele>1022.549</ele>
        <time>2020-05-21T10:53:33Z</time>
      </trkpt>
      <trkpt lat="37.513833" lon="-4.009903">
        <ele>1022.890</ele>
        <time>2020-05-21T10:53:37Z</time>
      </trkpt>
      <trkpt lat="37.513814" lon="-4.009860">
        <ele>1023.157</ele>
        <time>2020-05-21T10:53:42Z</time>
      </trkpt>
      <trkpt lat="37.513797" lon="-4.009815">
        <ele>1023.575</ele>
        <time>2020-05-21T10:53:46Z</time>
      </trkpt>
      <trkpt lat="37.513781" lon="-4.009767">
        <ele>1024.498</ele>
        <time>2020-05-21T10:53:51Z</time>
      </trkpt>
      <trkpt lat="37.513763" lon="-4.009714">
        <ele>1025.029</ele>
        <time>2020-05-21T10:53:56Z</time>
      </trkpt>
      <trkpt lat="37.513747" lon="-4.009656">
        <ele>1025.380</ele>
        <time>2020-05-21T10:54:02Z</time>
      </trkpt>
      <trkpt lat="37.513735" lon="-4.009592">
        <ele>1025.529</ele>
        <time>2020-05-21T10:54:08Z</time>
      </trkpt>
      <trkpt lat="37.513721" lon="-4.009524">
        <ele>1025.721</ele>
        <time>2020-05-21T10:54:14Z</time>
      </trkpt>
      <trkpt lat="37.513711" lon="-4.009456">
        <ele>1026.941</ele>
        <time>2020-05-21T10:54:20Z</time>
      </trkpt>
      <trkpt lat="37.513703" lon="-4.009391">
        <ele>1027.105</ele>
        <time>2020-05-21T10:54:26Z</time>
      </trkpt>
      <trkpt lat="37.513695" lon="-4.009330">
        <ele>1027.208</ele>
        <time>2020-05-21T10:54:32Z</time>
      </trkpt>
      <trkpt lat="37.513689" lon="-4.009272">
        <ele>1027.310</ele>
        <time>2020-05-21T10:54:37Z</time>
      </trkpt>
      <trkpt lat="37.513680" lon="-4.009212">
        <ele>1027.541</ele>
        <time>2020-05-21T10:54:43Z</time>
      </trkpt>
      <trkpt lat="37.513675" lon="-4.009153">
        <ele>1027.618</ele>
        <time>2020-05-21T10:54:48Z</time>
      </trkpt>
      <trkpt lat="37.513667" lon="-4.009096">
        <ele>1027.766</ele>
        <time>2020-05-21T10:54:53Z</time>
      </trkpt>
      <trkpt lat="37.513661" lon="-4.009041">
        <ele>1027.889</ele>
        <time>2020-05-21T10:54:58Z</time>
      </trkpt>
      <trkpt lat="37.513657" lon="-4.008993">
        <ele>1027.950</ele>
        <time>2020-05-21T10:55:03Z</time>
      </trkpt>
      <trkpt lat="37.513650" lon="-4.008944">
        <ele>1028.581</ele>
        <time>2020-05-21T10:55:07Z</time>
      </trkpt>
      <trkpt lat="37.513645" lon="-4.008899">
        <ele>1029.110</ele>
        <time>2020-05-21T10:55:11Z</time>
      </trkpt>
      <trkpt lat="37.513638" lon="-4.008856">
        <ele>1029.388</ele>
        <time>2020-05-21T10:55:15Z</time>
      </trkpt>
      <trkpt lat="37.513632" lon="-4.008821">
        <ele>1029.524</ele>
        <time>2020-05-21T10:55:19Z</time>
      </trkpt>
      <trkpt lat="37.513629" lon="-4.008786">
        <ele>1029.126</ele>
        <time>2020-05-21T10:55:22Z</time>
      </trkpt>
      <trkpt lat="37.513624" lon="-4.008750">
        <ele>1029.408</ele>
        <time>2020-05-21T10:55:25Z</time>
      </trkpt>
      <trkpt lat="37.513613" lon="-4.008716">
        <ele>1030.096</ele>
        <time>2020-05-21T10:55:29Z</time>
      </trkpt>
      <trkpt lat="37.513591" lon="-4.008691">
        <ele>1031.087</ele>
        <time>2020-05-21T10:55:32Z</time>
      </trkpt>
      <trkpt lat="37.513563" lon="-4.008669">
        <ele>1031.054</ele>
        <time>2020-05-21T10:55:36Z</time>
      </trkpt>
      <trkpt lat="37.513540" lon="-4.008651">
        <ele>1031.012</ele>
        <time>2020-05-21T10:55:39Z</time>
      </trkpt>
      <trkpt lat="37.513524" lon="-4.008633">
        <ele>1031.685</ele>
        <time>2020-05-21T10:55:41Z</time>
      </trkpt>
      <trkpt lat="37.513512" lon="-4.008610">
        <ele>1032.096</ele>
        <time>2020-05-21T10:55:44Z</time>
      </trkpt>
      <trkpt lat="37.513509" lon="-4.008570">
        <ele>1032.087</ele>
        <time>2020-05-21T10:55:48Z</time>
      </trkpt>
      <trkpt lat="37.513509" lon="-4.008570">
        <ele>1032.026</ele>
        <time>2020-05-21T10:55:48Z</time>
      </trkpt>
      <trkpt lat="37.513513" lon="-4.008567">
        <ele>1032.015</ele>
        <time>2020-05-21T10:55:48Z</time>
      </trkpt>
      <trkpt lat="37.513521" lon="-4.008560">
        <ele>1032.065</ele>
        <time>2020-05-21T10:55:49Z</time>
      </trkpt>
      <trkpt lat="37.513534" lon="-4.008544">
        <ele>1032.011</ele>
        <time>2020-05-21T10:55:51Z</time>
      </trkpt>
      <trkpt lat="37.513548" lon="-4.008516">
        <ele>1031.808</ele>
        <time>2020-05-21T10:55:54Z</time>
      </trkpt>
      <trkpt lat="37.513549" lon="-4.008480">
        <ele>1031.879</ele>
        <time>2020-05-21T10:55:57Z</time>
      </trkpt>
      <trkpt lat="37.513542" lon="-4.008431">
        <ele>1031.980</ele>
        <time>2020-05-21T10:56:02Z</time>
      </trkpt>
      <trkpt lat="37.513530" lon="-4.008363">
        <ele>1032.167</ele>
        <time>2020-05-21T10:56:08Z</time>
      </trkpt>
      <trkpt lat="37.513518" lon="-4.008291">
        <ele>1033.495</ele>
        <time>2020-05-21T10:56:15Z</time>
      </trkpt>
      <trkpt lat="37.513508" lon="-4.008221">
        <ele>1033.558</ele>
        <time>2020-05-21T10:56:21Z</time>
      </trkpt>
      <trkpt lat="37.513497" lon="-4.008156">
        <ele>1033.569</ele>
        <time>2020-05-21T10:56:27Z</time>
      </trkpt>
      <trkpt lat="37.513484" lon="-4.008094">
        <ele>1033.930</ele>
        <time>2020-05-21T10:56:33Z</time>
      </trkpt>
      <trkpt lat="37.513474" lon="-4.008037">
        <ele>1034.129</ele>
        <time>2020-05-21T10:56:39Z</time>
      </trkpt>
      <trkpt lat="37.513466" lon="-4.007984">
        <ele>1034.319</ele>
        <time>2020-05-21T10:56:43Z</time>
      </trkpt>
      <trkpt lat="37.513457" lon="-4.007937">
        <ele>1034.409</ele>
        <time>2020-05-21T10:56:48Z</time>
      </trkpt>
      <trkpt lat="37.513448" lon="-4.007888">
        <ele>1034.619</ele>
        <time>2020-05-21T10:56:52Z</time>
      </trkpt>
      <trkpt lat="37.513441" lon="-4.007840">
        <ele>1035.408</ele>
        <time>2020-05-21T10:56:57Z</time>
      </trkpt>
      <trkpt lat="37.513435" lon="-4.007798">
        <ele>1035.769</ele>
        <time>2020-05-21T10:57:01Z</time>
      </trkpt>
      <trkpt lat="37.513430" lon="-4.007759">
        <ele>1035.810</ele>
        <time>2020-05-21T10:57:04Z</time>
      </trkpt>
      <trkpt lat="37.513425" lon="-4.007724">
        <ele>1036.067</ele>
        <time>2020-05-21T10:57:07Z</time>
      </trkpt>
      <trkpt lat="37.513423" lon="-4.007691">
        <ele>1035.885</ele>
        <time>2020-05-21T10:57:10Z</time>
      </trkpt>
      <trkpt lat="37.513419" lon="-4.007658">
        <ele>1035.368</ele>
        <time>2020-05-21T10:57:14Z</time>
      </trkpt>
      <trkpt lat="37.513415" lon="-4.007629">
        <ele>1035.499</ele>
        <time>2020-05-21T10:57:16Z</time>
      </trkpt>
      <trkpt lat="37.513413" lon="-4.007599">
        <ele>1035.460</ele>
        <time>2020-05-21T10:57:19Z</time>
      </trkpt>
      <trkpt lat="37.513412" lon="-4.007571">
        <ele>1035.519</ele>
        <time>2020-05-21T10:57:21Z</time>
      </trkpt>
      <trkpt lat="37.513413" lon="-4.007538">
        <ele>1036.019</ele>
        <time>2020-05-21T10:57:24Z</time>
      </trkpt>
      <trkpt lat="37.513412" lon="-4.007506">
        <ele>1035.909</ele>
        <time>2020-05-21T10:57:27Z</time>
      </trkpt>
      <trkpt lat="37.513412" lon="-4.007471">
        <ele>1035.519</ele>
        <time>2020-05-21T10:57:31Z</time>
      </trkpt>
      <trkpt lat="37.513413" lon="-4.007437">
        <ele>1035.408</ele>
        <time>2020-05-21T10:57:34Z</time>
      </trkpt>
      <trkpt lat="37.513414" lon="-4.007406">
        <ele>1035.489</ele>
        <time>2020-05-21T10:57:36Z</time>
      </trkpt>
      <trkpt lat="37.513416" lon="-4.007373">
        <ele>1035.390</ele>
        <time>2020-05-21T10:57:39Z</time>
      </trkpt>
      <trkpt lat="37.513422" lon="-4.007343">
        <ele>1035.127</ele>
        <time>2020-05-21T10:57:42Z</time>
      </trkpt>
      <trkpt lat="37.513424" lon="-4.007311">
        <ele>1035.015</ele>
        <time>2020-05-21T10:57:45Z</time>
      </trkpt>
      <trkpt lat="37.513427" lon="-4.007279">
        <ele>1034.978</ele>
        <time>2020-05-21T10:57:48Z</time>
      </trkpt>
      <trkpt lat="37.513431" lon="-4.007247">
        <ele>1034.749</ele>
        <time>2020-05-21T10:57:51Z</time>
      </trkpt>
      <trkpt lat="37.513436" lon="-4.007216">
        <ele>1034.090</ele>
        <time>2020-05-21T10:57:54Z</time>
      </trkpt>
      <trkpt lat="37.513437" lon="-4.007183">
        <ele>1033.869</ele>
        <time>2020-05-21T10:57:57Z</time>
      </trkpt>
      <trkpt lat="37.513441" lon="-4.007151">
        <ele>1033.733</ele>
        <time>2020-05-21T10:58:00Z</time>
      </trkpt>
      <trkpt lat="37.513445" lon="-4.007115">
        <ele>1033.623</ele>
        <time>2020-05-21T10:58:03Z</time>
      </trkpt>
      <trkpt lat="37.513447" lon="-4.007082">
        <ele>1032.815</ele>
        <time>2020-05-21T10:58:06Z</time>
      </trkpt>
      <trkpt lat="37.513449" lon="-4.007048">
        <ele>1032.608</ele>
        <time>2020-05-21T10:58:09Z</time>
      </trkpt>
      <trkpt lat="37.513454" lon="-4.007016">
        <ele>1032.231</ele>
        <time>2020-05-21T10:58:12Z</time>
      </trkpt>
      <trkpt lat="37.513459" lon="-4.006987">
        <ele>1031.592</ele>
        <time>2020-05-21T10:58:15Z</time>
      </trkpt>
      <trkpt lat="37.513465" lon="-4.006953">
        <ele>1031.399</ele>
        <time>2020-05-21T10:58:18Z</time>
      </trkpt>
      <trkpt lat="37.513466" lon="-4.006921">
        <ele>1031.357</ele>
        <time>2020-05-21T10:58:21Z</time>
      </trkpt>
      <trkpt lat="37.513467" lon="-4.006890">
        <ele>1031.360</ele>
        <time>2020-05-21T10:58:24Z</time>
      </trkpt>
      <trkpt lat="37.513471" lon="-4.006856">
        <ele>1031.271</ele>
        <time>2020-05-21T10:58:27Z</time>
      </trkpt>
      <trkpt lat="37.513473" lon="-4.006824">
        <ele>1031.212</ele>
        <time>2020-05-21T10:58:30Z</time>
      </trkpt>
      <trkpt lat="37.513475" lon="-4.006790">
        <ele>1031.131</ele>
        <time>2020-05-21T10:58:33Z</time>
      </trkpt>
      <trkpt lat="37.513480" lon="-4.006755">
        <ele>1031.043</ele>
        <time>2020-05-21T10:58:36Z</time>
      </trkpt>
      <trkpt lat="37.513483" lon="-4.006722">
        <ele>1031.064</ele>
        <time>2020-05-21T10:58:39Z</time>
      </trkpt>
      <trkpt lat="37.513486" lon="-4.006691">
        <ele>1030.910</ele>
        <time>2020-05-21T10:58:42Z</time>
      </trkpt>
      <trkpt lat="37.513487" lon="-4.006657">
        <ele>1030.908</ele>
        <time>2020-05-21T10:58:45Z</time>
      </trkpt>
      <trkpt lat="37.513490" lon="-4.006624">
        <ele>1030.762</ele>
        <time>2020-05-21T10:58:48Z</time>
      </trkpt>
      <trkpt lat="37.513492" lon="-4.006593">
        <ele>1030.163</ele>
        <time>2020-05-21T10:58:51Z</time>
      </trkpt>
      <trkpt lat="37.513496" lon="-4.006561">
        <ele>1029.750</ele>
        <time>2020-05-21T10:58:54Z</time>
      </trkpt>
      <trkpt lat="37.513501" lon="-4.006524">
        <ele>1029.328</ele>
        <time>2020-05-21T10:58:57Z</time>
      </trkpt>
      <trkpt lat="37.513508" lon="-4.006489">
        <ele>1029.111</ele>
        <time>2020-05-21T10:59:01Z</time>
      </trkpt>
      <trkpt lat="37.513512" lon="-4.006451">
        <ele>1028.632</ele>
        <time>2020-05-21T10:59:04Z</time>
      </trkpt>
      <trkpt lat="37.513519" lon="-4.006416">
        <ele>1028.373</ele>
        <time>2020-05-21T10:59:07Z</time>
      </trkpt>
      <trkpt lat="37.513523" lon="-4.006381">
        <ele>1028.352</ele>
        <time>2020-05-21T10:59:11Z</time>
      </trkpt>
      <trkpt lat="37.513526" lon="-4.006345">
        <ele>1028.256</ele>
        <time>2020-05-21T10:59:14Z</time>
      </trkpt>
      <trkpt lat="37.513529" lon="-4.006309">
        <ele>1028.059</ele>
        <time>2020-05-21T10:59:17Z</time>
      </trkpt>
      <trkpt lat="37.513534" lon="-4.006273">
        <ele>1028.014</ele>
        <time>2020-05-21T10:59:20Z</time>
      </trkpt>
      <trkpt lat="37.513540" lon="-4.006239">
        <ele>1028.008</ele>
        <time>2020-05-21T10:59:24Z</time>
      </trkpt>
      <trkpt lat="37.513544" lon="-4.006202">
        <ele>1027.963</ele>
        <time>2020-05-21T10:59:27Z</time>
      </trkpt>
      <trkpt lat="37.513546" lon="-4.006162">
        <ele>1027.974</ele>
        <time>2020-05-21T10:59:31Z</time>
      </trkpt>
      <trkpt lat="37.513552" lon="-4.006120">
        <ele>1027.721</ele>
        <time>2020-05-21T10:59:34Z</time>
      </trkpt>
      <trkpt lat="37.513561" lon="-4.006078">
        <ele>1027.629</ele>
        <time>2020-05-21T10:59:38Z</time>
      </trkpt>
      <trkpt lat="37.513573" lon="-4.006039">
        <ele>1027.432</ele>
        <time>2020-05-21T10:59:42Z</time>
      </trkpt>
      <trkpt lat="37.513587" lon="-4.006000">
        <ele>1027.183</ele>
        <time>2020-05-21T10:59:46Z</time>
      </trkpt>
      <trkpt lat="37.513598" lon="-4.005954">
        <ele>1026.834</ele>
        <time>2020-05-21T10:59:50Z</time>
      </trkpt>
      <trkpt lat="37.513604" lon="-4.005904">
        <ele>1026.553</ele>
        <time>2020-05-21T10:59:55Z</time>
      </trkpt>
      <trkpt lat="37.513608" lon="-4.005852">
        <ele>1026.241</ele>
        <time>2020-05-21T11:00:00Z</time>
      </trkpt>
      <trkpt lat="37.513614" lon="-4.005799">
        <ele>1025.581</ele>
        <time>2020-05-21T11:00:05Z</time>
      </trkpt>
      <trkpt lat="37.513618" lon="-4.005747">
        <ele>1025.909</ele>
        <time>2020-05-21T11:00:09Z</time>
      </trkpt>
      <trkpt lat="37.513621" lon="-4.005690">
        <ele>1026.008</ele>
        <time>2020-05-21T11:00:14Z</time>
      </trkpt>
      <trkpt lat="37.513623" lon="-4.005629">
        <ele>1026.082</ele>
        <time>2020-05-21T11:00:20Z</time>
      </trkpt>
      <trkpt lat="37.513625" lon="-4.005568">
        <ele>1025.923</ele>
        <time>2020-05-21T11:00:26Z</time>
      </trkpt>
      <trkpt lat="37.513623" lon="-4.005505">
        <ele>1025.660</ele>
        <time>2020-05-21T11:00:31Z</time>
      </trkpt>
      <trkpt lat="37.513621" lon="-4.005440">
        <ele>1025.648</ele>
        <time>2020-05-21T11:00:37Z</time>
      </trkpt>
      <trkpt lat="37.513623" lon="-4.005371">
        <ele>1025.561</ele>
        <time>2020-05-21T11:00:43Z</time>
      </trkpt>
      <trkpt lat="37.513627" lon="-4.005300">
        <ele>1025.132</ele>
        <time>2020-05-21T11:00:50Z</time>
      </trkpt>
      <trkpt lat="37.513632" lon="-4.005229">
        <ele>1025.533</ele>
        <time>2020-05-21T11:00:56Z</time>
      </trkpt>
      <trkpt lat="37.513633" lon="-4.005156">
        <ele>1025.642</ele>
        <time>2020-05-21T11:01:03Z</time>
      </trkpt>
      <trkpt lat="37.513626" lon="-4.005085">
        <ele>1025.971</ele>
        <time>2020-05-21T11:01:09Z</time>
      </trkpt>
      <trkpt lat="37.513614" lon="-4.005021">
        <ele>1026.641</ele>
        <time>2020-05-21T11:01:15Z</time>
      </trkpt>
      <trkpt lat="37.513604" lon="-4.004960">
        <ele>1027.515</ele>
        <time>2020-05-21T11:01:21Z</time>
      </trkpt>
      <trkpt lat="37.513601" lon="-4.004901">
        <ele>1027.808</ele>
        <time>2020-05-21T11:01:26Z</time>
      </trkpt>
      <trkpt lat="37.513601" lon="-4.004846">
        <ele>1028.185</ele>
        <time>2020-05-21T11:01:31Z</time>
      </trkpt>
      <trkpt lat="37.513605" lon="-4.004790">
        <ele>1028.476</ele>
        <time>2020-05-21T11:01:36Z</time>
      </trkpt>
      <trkpt lat="37.513612" lon="-4.004739">
        <ele>1028.113</ele>
        <time>2020-05-21T11:01:41Z</time>
      </trkpt>
      <trkpt lat="37.513618" lon="-4.004687">
        <ele>1028.191</ele>
        <time>2020-05-21T11:01:46Z</time>
      </trkpt>
      <trkpt lat="37.513619" lon="-4.004634">
        <ele>1027.784</ele>
        <time>2020-05-21T11:01:51Z</time>
      </trkpt>
      <trkpt lat="37.513619" lon="-4.004584">
        <ele>1027.735</ele>
        <time>2020-05-21T11:01:55Z</time>
      </trkpt>
      <trkpt lat="37.513614" lon="-4.004534">
        <ele>1027.946</ele>
        <time>2020-05-21T11:02:00Z</time>
      </trkpt>
      <trkpt lat="37.513608" lon="-4.004486">
        <ele>1028.545</ele>
        <time>2020-05-21T11:02:04Z</time>
      </trkpt>
      <trkpt lat="37.513601" lon="-4.004441">
        <ele>1029.686</ele>
        <time>2020-05-21T11:02:08Z</time>
      </trkpt>
      <trkpt lat="37.513595" lon="-4.004406">
        <ele>1030.060</ele>
        <time>2020-05-21T11:02:12Z</time>
      </trkpt>
      <trkpt lat="37.513584" lon="-4.004377">
        <ele>1030.026</ele>
        <time>2020-05-21T11:02:15Z</time>
      </trkpt>
      <trkpt lat="37.513578" lon="-4.004348">
        <ele>1030.008</ele>
        <time>2020-05-21T11:02:17Z</time>
      </trkpt>
      <trkpt lat="37.513582" lon="-4.004319">
        <ele>1030.046</ele>
        <time>2020-05-21T11:02:20Z</time>
      </trkpt>
      <trkpt lat="37.513583" lon="-4.004289">
        <ele>1030.037</ele>
        <time>2020-05-21T11:02:23Z</time>
      </trkpt>
      <trkpt lat="37.513587" lon="-4.004258">
        <ele>1030.054</ele>
        <time>2020-05-21T11:02:26Z</time>
      </trkpt>
      <trkpt lat="37.513589" lon="-4.004229">
        <ele>1030.072</ele>
        <time>2020-05-21T11:02:28Z</time>
      </trkpt>
      <trkpt lat="37.513593" lon="-4.004200">
        <ele>1030.025</ele>
        <time>2020-05-21T11:02:31Z</time>
      </trkpt>
      <trkpt lat="37.513596" lon="-4.004174">
        <ele>1029.956</ele>
        <time>2020-05-21T11:02:33Z</time>
      </trkpt>
      <trkpt lat="37.513597" lon="-4.004148">
        <ele>1029.967</ele>
        <time>2020-05-21T11:02:36Z</time>
      </trkpt>
      <trkpt lat="37.513599" lon="-4.004123">
        <ele>1029.846</ele>
        <time>2020-05-21T11:02:38Z</time>
      </trkpt>
      <trkpt lat="37.513600" lon="-4.004100">
        <ele>1029.886</ele>
        <time>2020-05-21T11:02:40Z</time>
      </trkpt>
      <trkpt lat="37.513598" lon="-4.004080">
        <ele>1029.960</ele>
        <time>2020-05-21T11:02:42Z</time>
      </trkpt>
      <trkpt lat="37.513597" lon="-4.004064">
        <ele>1029.926</ele>
        <time>2020-05-21T11:02:43Z</time>
      </trkpt>
      <trkpt lat="37.513593" lon="-4.004047">
        <ele>1030.008</ele>
        <time>2020-05-21T11:02:45Z</time>
      </trkpt>
      <trkpt lat="37.513604" lon="-4.003945">
        <ele>1029.726</ele>
        <time>2020-05-21T11:02:54Z</time>
      </trkpt>
      <trkpt lat="37.513604" lon="-4.003945">
        <ele>1029.757</ele>
        <time>2020-05-21T11:02:54Z</time>
      </trkpt>
      <trkpt lat="37.513604" lon="-4.003936">
        <ele>1029.784</ele>
        <time>2020-05-21T11:02:55Z</time>
      </trkpt>
      <trkpt lat="37.513605" lon="-4.003926">
        <ele>1029.672</ele>
        <time>2020-05-21T11:02:56Z</time>
      </trkpt>
      <trkpt lat="37.513607" lon="-4.003907">
        <ele>1029.515</ele>
        <time>2020-05-21T11:02:58Z</time>
      </trkpt>
      <trkpt lat="37.513608" lon="-4.003884">
        <ele>1029.546</ele>
        <time>2020-05-21T11:03:00Z</time>
      </trkpt>
      <trkpt lat="37.513614" lon="-4.003862">
        <ele>1029.227</ele>
        <time>2020-05-21T11:03:02Z</time>
      </trkpt>
      <trkpt lat="37.513621" lon="-4.003839">
        <ele>1028.796</ele>
        <time>2020-05-21T11:03:04Z</time>
      </trkpt>
      <trkpt lat="37.513624" lon="-4.003820">
        <ele>1028.432</ele>
        <time>2020-05-21T11:03:06Z</time>
      </trkpt>
      <trkpt lat="37.513629" lon="-4.003795">
        <ele>1028.092</ele>
        <time>2020-05-21T11:03:08Z</time>
      </trkpt>
      <trkpt lat="37.513634" lon="-4.003769">
        <ele>1027.511</ele>
        <time>2020-05-21T11:03:11Z</time>
      </trkpt>
      <trkpt lat="37.513640" lon="-4.003742">
        <ele>1027.208</ele>
        <time>2020-05-21T11:03:13Z</time>
      </trkpt>
      <trkpt lat="37.513646" lon="-4.003715">
        <ele>1027.191</ele>
        <time>2020-05-21T11:03:16Z</time>
      </trkpt>
      <trkpt lat="37.513655" lon="-4.003688">
        <ele>1026.872</ele>
        <time>2020-05-21T11:03:18Z</time>
      </trkpt>
      <trkpt lat="37.513663" lon="-4.003662">
        <ele>1026.679</ele>
        <time>2020-05-21T11:03:21Z</time>
      </trkpt>
      <trkpt lat="37.513672" lon="-4.003638">
        <ele>1026.217</ele>
        <time>2020-05-21T11:03:23Z</time>
      </trkpt>
      <trkpt lat="37.513677" lon="-4.003615">
        <ele>1026.120</ele>
        <time>2020-05-21T11:03:25Z</time>
      </trkpt>
      <trkpt lat="37.513688" lon="-4.003589">
        <ele>1025.641</ele>
        <time>2020-05-21T11:03:28Z</time>
      </trkpt>
      <trkpt lat="37.513698" lon="-4.003562">
        <ele>1025.232</ele>
        <time>2020-05-21T11:03:31Z</time>
      </trkpt>
      <trkpt lat="37.513706" lon="-4.003538">
        <ele>1025.011</ele>
        <time>2020-05-21T11:03:33Z</time>
      </trkpt>
      <trkpt lat="37.513712" lon="-4.003512">
        <ele>1024.969</ele>
        <time>2020-05-21T11:03:36Z</time>
      </trkpt>
      <trkpt lat="37.513719" lon="-4.003491">
        <ele>1024.804</ele>
        <time>2020-05-21T11:03:38Z</time>
      </trkpt>
      <trkpt lat="37.513727" lon="-4.003470">
        <ele>1024.624</ele>
        <time>2020-05-21T11:03:40Z</time>
      </trkpt>
      <trkpt lat="37.513736" lon="-4.003443">
        <ele>1024.308</ele>
        <time>2020-05-21T11:03:43Z</time>
      </trkpt>
      <trkpt lat="37.513746" lon="-4.003419">
        <ele>1024.084</ele>
        <time>2020-05-21T11:03:45Z</time>
      </trkpt>
      <trkpt lat="37.513757" lon="-4.003395">
        <ele>1024.035</ele>
        <time>2020-05-21T11:03:48Z</time>
      </trkpt>
      <trkpt lat="37.513768" lon="-4.003373">
        <ele>1023.912</ele>
        <time>2020-05-21T11:03:50Z</time>
      </trkpt>
      <trkpt lat="37.513777" lon="-4.003350">
        <ele>1023.860</ele>
        <time>2020-05-21T11:03:52Z</time>
      </trkpt>
      <trkpt lat="37.513788" lon="-4.003325">
        <ele>1023.683</ele>
        <time>2020-05-21T11:03:55Z</time>
      </trkpt>
      <trkpt lat="37.513797" lon="-4.003298">
        <ele>1023.424</ele>
        <time>2020-05-21T11:03:57Z</time>
      </trkpt>
      <trkpt lat="37.513805" lon="-4.003269">
        <ele>1023.325</ele>
        <time>2020-05-21T11:04:00Z</time>
      </trkpt>
      <trkpt lat="37.513812" lon="-4.003238">
        <ele>1023.114</ele>
        <time>2020-05-21T11:04:03Z</time>
      </trkpt>
      <trkpt lat="37.513817" lon="-4.003204">
        <ele>1023.028</ele>
        <time>2020-05-21T11:04:06Z</time>
      </trkpt>
      <trkpt lat="37.513823" lon="-4.003171">
        <ele>1022.989</ele>
        <time>2020-05-21T11:04:09Z</time>
      </trkpt>
      <trkpt lat="37.513835" lon="-4.003142">
        <ele>1022.717</ele>
        <time>2020-05-21T11:04:12Z</time>
      </trkpt>
      <trkpt lat="37.513851" lon="-4.003116">
        <ele>1022.408</ele>
        <time>2020-05-21T11:04:15Z</time>
      </trkpt>
      <trkpt lat="37.513868" lon="-4.003093">
        <ele>1022.120</ele>
        <time>2020-05-21T11:04:18Z</time>
      </trkpt>
      <trkpt lat="37.513889" lon="-4.003071">
        <ele>1021.311</ele>
        <time>2020-05-21T11:04:21Z</time>
      </trkpt>
      <trkpt lat="37.513910" lon="-4.003048">
        <ele>1020.228</ele>
        <time>2020-05-21T11:04:25Z</time>
      </trkpt>
      <trkpt lat="37.513928" lon="-4.003023">
        <ele>1019.296</ele>
        <time>2020-05-21T11:04:28Z</time>
      </trkpt>
      <trkpt lat="37.513941" lon="-4.002994">
        <ele>1019.149</ele>
        <time>2020-05-21T11:04:31Z</time>
      </trkpt>
      <trkpt lat="37.513953" lon="-4.002966">
        <ele>1019.390</ele>
        <time>2020-05-21T11:04:34Z</time>
      </trkpt>
      <trkpt lat="37.513965" lon="-4.002934">
        <ele>1018.871</ele>
        <time>2020-05-21T11:04:37Z</time>
      </trkpt>
      <trkpt lat="37.513975" lon="-4.002905">
        <ele>1018.820</ele>
        <time>2020-05-21T11:04:40Z</time>
      </trkpt>
      <trkpt lat="37.513989" lon="-4.002878">
        <ele>1019.055</ele>
        <time>2020-05-21T11:04:43Z</time>
      </trkpt>
      <trkpt lat="37.514005" lon="-4.002854">
        <ele>1018.107</ele>
        <time>2020-05-21T11:04:46Z</time>
      </trkpt>
      <trkpt lat="37.514017" lon="-4.002830">
        <ele>1017.517</ele>
        <time>2020-05-21T11:04:48Z</time>
      </trkpt>
      <trkpt lat="37.514027" lon="-4.002799">
        <ele>1017.508</ele>
        <time>2020-05-21T11:04:51Z</time>
      </trkpt>
      <trkpt lat="37.514041" lon="-4.002772">
        <ele>1017.433</ele>
        <time>2020-05-21T11:04:54Z</time>
      </trkpt>
      <trkpt lat="37.514053" lon="-4.002754">
        <ele>1017.484</ele>
        <time>2020-05-21T11:04:56Z</time>
      </trkpt>
      <trkpt lat="37.514064" lon="-4.002736">
        <ele>1017.361</ele>
        <time>2020-05-21T11:04:59Z</time>
      </trkpt>
      <trkpt lat="37.514076" lon="-4.002721">
        <ele>1016.989</ele>
        <time>2020-05-21T11:05:01Z</time>
      </trkpt>
      <trkpt lat="37.514084" lon="-4.002702">
        <ele>1016.622</ele>
        <time>2020-05-21T11:05:02Z</time>
      </trkpt>
      <trkpt lat="37.514083" lon="-4.002679">
        <ele>1016.933</ele>
        <time>2020-05-21T11:05:05Z</time>
      </trkpt>
      <trkpt lat="37.514078" lon="-4.002666">
        <ele>1017.274</ele>
        <time>2020-05-21T11:05:06Z</time>
      </trkpt>
      <trkpt lat="37.514068" lon="-4.002660">
        <ele>1017.553</ele>
        <time>2020-05-21T11:05:07Z</time>
      </trkpt>
      <trkpt lat="37.514053" lon="-4.002666">
        <ele>1017.812</ele>
        <time>2020-05-21T11:05:09Z</time>
      </trkpt>
      <trkpt lat="37.514044" lon="-4.002683">
        <ele>1018.032</ele>
        <time>2020-05-21T11:05:11Z</time>
      </trkpt>
      <trkpt lat="37.514040" lon="-4.002705">
        <ele>1018.105</ele>
        <time>2020-05-21T11:05:13Z</time>
      </trkpt>
      <trkpt lat="37.514033" lon="-4.002732">
        <ele>1018.208</ele>
        <time>2020-05-21T11:05:15Z</time>
      </trkpt>
      <trkpt lat="37.514019" lon="-4.002763">
        <ele>1018.249</ele>
        <time>2020-05-21T11:05:19Z</time>
      </trkpt>
      <trkpt lat="37.513999" lon="-4.002801">
        <ele>1018.690</ele>
        <time>2020-05-21T11:05:23Z</time>
      </trkpt>
      <trkpt lat="37.513978" lon="-4.002846">
        <ele>1019.257</ele>
        <time>2020-05-21T11:05:28Z</time>
      </trkpt>
      <trkpt lat="37.513956" lon="-4.002892">
        <ele>1019.495</ele>
        <time>2020-05-21T11:05:32Z</time>
      </trkpt>
      <trkpt lat="37.513938" lon="-4.002935">
        <ele>1019.858</ele>
        <time>2020-05-21T11:05:37Z</time>
      </trkpt>
      <trkpt lat="37.513920" lon="-4.002973">
        <ele>1020.369</ele>
        <time>2020-05-21T11:05:41Z</time>
      </trkpt>
      <trkpt lat="37.513903" lon="-4.003004">
        <ele>1020.630</ele>
        <time>2020-05-21T11:05:44Z</time>
      </trkpt>
      <trkpt lat="37.513886" lon="-4.003026">
        <ele>1021.599</ele>
        <time>2020-05-21T11:05:47Z</time>
      </trkpt>
      <trkpt lat="37.513868" lon="-4.003044">
        <ele>1022.114</ele>
        <time>2020-05-21T11:05:50Z</time>
      </trkpt>
      <trkpt lat="37.513848" lon="-4.003057">
        <ele>1022.554</ele>
        <time>2020-05-21T11:05:53Z</time>
      </trkpt>
      <trkpt lat="37.513827" lon="-4.003062">
        <ele>1022.909</ele>
        <time>2020-05-21T11:05:55Z</time>
      </trkpt>
      <trkpt lat="37.513804" lon="-4.003054">
        <ele>1023.008</ele>
        <time>2020-05-21T11:05:58Z</time>
      </trkpt>
      <trkpt lat="37.513779" lon="-4.003039">
        <ele>1023.059</ele>
        <time>2020-05-21T11:06:01Z</time>
      </trkpt>
      <trkpt lat="37.513757" lon="-4.003015">
        <ele>1023.060</ele>
        <time>2020-05-21T11:06:04Z</time>
      </trkpt>
      <trkpt lat="37.513740" lon="-4.002986">
        <ele>1023.077</ele>
        <time>2020-05-21T11:06:07Z</time>
      </trkpt>
      <trkpt lat="37.513729" lon="-4.002955">
        <ele>1023.095</ele>
        <time>2020-05-21T11:06:10Z</time>
      </trkpt>
      <trkpt lat="37.513716" lon="-4.002922">
        <ele>1023.048</ele>
        <time>2020-05-21T11:06:14Z</time>
      </trkpt>
      <trkpt lat="37.513704" lon="-4.002884">
        <ele>1022.969</ele>
        <time>2020-05-21T11:06:18Z</time>
      </trkpt>
      <trkpt lat="37.513691" lon="-4.002845">
        <ele>1022.780</ele>
        <time>2020-05-21T11:06:21Z</time>
      </trkpt>
      <trkpt lat="37.513679" lon="-4.002805">
        <ele>1022.889</ele>
        <time>2020-05-21T11:06:25Z</time>
      </trkpt>
      <trkpt lat="37.513667" lon="-4.002766">
        <ele>1022.973</ele>
        <time>2020-05-21T11:06:29Z</time>
      </trkpt>
      <trkpt lat="37.513652" lon="-4.002722">
        <ele>1023.085</ele>
        <time>2020-05-21T11:06:33Z</time>
      </trkpt>
      <trkpt lat="37.513637" lon="-4.002680">
        <ele>1022.713</ele>
        <time>2020-05-21T11:06:38Z</time>
      </trkpt>
      <trkpt lat="37.513618" lon="-4.002638">
        <ele>1021.708</ele>
        <time>2020-05-21T11:06:42Z</time>
      </trkpt>
      <trkpt lat="37.513598" lon="-4.002594">
        <ele>1020.625</ele>
        <time>2020-05-21T11:06:47Z</time>
      </trkpt>
      <trkpt lat="37.513577" lon="-4.002550">
        <ele>1020.956</ele>
        <time>2020-05-21T11:06:51Z</time>
      </trkpt>
      <trkpt lat="37.513556" lon="-4.002503">
        <ele>1020.753</ele>
        <time>2020-05-21T11:06:56Z</time>
      </trkpt>
      <trkpt lat="37.513532" lon="-4.002455">
        <ele>1020.221</ele>
        <time>2020-05-21T11:07:01Z</time>
      </trkpt>
      <trkpt lat="37.513507" lon="-4.002408">
        <ele>1019.944</ele>
        <time>2020-05-21T11:07:07Z</time>
      </trkpt>
      <trkpt lat="37.513481" lon="-4.002355">
        <ele>1019.615</ele>
        <time>2020-05-21T11:07:12Z</time>
      </trkpt>
      <trkpt lat="37.513450" lon="-4.002300">
        <ele>1019.766</ele>
        <time>2020-05-21T11:07:18Z</time>
      </trkpt>
      <trkpt lat="37.513415" lon="-4.002245">
        <ele>1019.625</ele>
        <time>2020-05-21T11:07:25Z</time>
      </trkpt>
      <trkpt lat="37.513379" lon="-4.002185">
        <ele>1018.453</ele>
        <time>2020-05-21T11:07:32Z</time>
      </trkpt>
      <trkpt lat="37.513335" lon="-4.002124">
        <ele>1017.404</ele>
        <time>2020-05-21T11:07:39Z</time>
      </trkpt>
      <trkpt lat="37.513284" lon="-4.002068">
        <ele>1016.514</ele>
        <time>2020-05-21T11:07:47Z</time>
      </trkpt>
      <trkpt lat="37.513218" lon="-4.002027">
        <ele>1016.308</ele>
        <time>2020-05-21T11:07:55Z</time>
      </trkpt>
      <trkpt lat="37.513142" lon="-4.002004">
        <ele>1016.053</ele>
        <time>2020-05-21T11:08:04Z</time>
      </trkpt>
      <trkpt lat="37.513065" lon="-4.002002">
        <ele>1016.094</ele>
        <time>2020-05-21T11:08:13Z</time>
      </trkpt>
      <trkpt lat="37.512989" lon="-4.002027">
        <ele>1016.031</ele>
        <time>2020-05-21T11:08:22Z</time>
      </trkpt>
      <trkpt lat="37.512920" lon="-4.002075">
        <ele>1015.899</ele>
        <time>2020-05-21T11:08:31Z</time>
      </trkpt>
      <trkpt lat="37.512854" lon="-4.002129">
        <ele>1016.742</ele>
        <time>2020-05-21T11:08:40Z</time>
      </trkpt>
      <trkpt lat="37.512785" lon="-4.002176">
        <ele>1017.033</ele>
        <time>2020-05-21T11:08:49Z</time>
      </trkpt>
      <trkpt lat="37.512715" lon="-4.002209">
        <ele>1017.634</ele>
        <time>2020-05-21T11:08:57Z</time>
      </trkpt>
      <trkpt lat="37.512645" lon="-4.002229">
        <ele>1018.353</ele>
        <time>2020-05-21T11:09:05Z</time>
      </trkpt>
      <trkpt lat="37.512576" lon="-4.002234">
        <ele>1018.323</ele>
        <time>2020-05-21T11:09:13Z</time>
      </trkpt>
      <trkpt lat="37.512511" lon="-4.002229">
        <ele>1018.483</ele>
        <time>2020-05-21T11:09:21Z</time>
      </trkpt>
      <trkpt lat="37.512448" lon="-4.002216">
        <ele>1019.011</ele>
        <time>2020-05-21T11:09:28Z</time>
      </trkpt>
      <trkpt lat="37.512385" lon="-4.002207">
        <ele>1019.908</ele>
        <time>2020-05-21T11:09:35Z</time>
      </trkpt>
      <trkpt lat="37.512324" lon="-4.002199">
        <ele>1020.050</ele>
        <time>2020-05-21T11:09:42Z</time>
      </trkpt>
      <trkpt lat="37.512264" lon="-4.002192">
        <ele>1020.031</ele>
        <time>2020-05-21T11:09:49Z</time>
      </trkpt>
      <trkpt lat="37.512203" lon="-4.002185">
        <ele>1020.018</ele>
        <time>2020-05-21T11:09:56Z</time>
      </trkpt>
      <trkpt lat="37.512142" lon="-4.002175">
        <ele>1020.086</ele>
        <time>2020-05-21T11:10:03Z</time>
      </trkpt>
      <trkpt lat="37.512080" lon="-4.002166">
        <ele>1020.039</ele>
        <time>2020-05-21T11:10:10Z</time>
      </trkpt>
      <trkpt lat="37.512019" lon="-4.002159">
        <ele>1020.080</ele>
        <time>2020-05-21T11:10:17Z</time>
      </trkpt>
      <trkpt lat="37.511956" lon="-4.002153">
        <ele>1020.171</ele>
        <time>2020-05-21T11:10:24Z</time>
      </trkpt>
      <trkpt lat="37.511894" lon="-4.002150">
        <ele>1020.050</ele>
        <time>2020-05-21T11:10:31Z</time>
      </trkpt>
      <trkpt lat="37.511831" lon="-4.002144">
        <ele>1020.071</ele>
        <time>2020-05-21T11:10:39Z</time>
      </trkpt>
      <trkpt lat="37.511769" lon="-4.002135">
        <ele>1020.041</ele>
        <time>2020-05-21T11:10:46Z</time>
      </trkpt>
      <trkpt lat="37.511705" lon="-4.002126">
        <ele>1020.015</ele>
        <time>2020-05-21T11:10:53Z</time>
      </trkpt>
      <trkpt lat="37.511644" lon="-4.002126">
        <ele>1020.008</ele>
        <time>2020-05-21T11:11:00Z</time>
      </trkpt>
      <trkpt lat="37.511581" lon="-4.002133">
        <ele>1020.055</ele>
        <time>2020-05-21T11:11:07Z</time>
      </trkpt>
      <trkpt lat="37.511519" lon="-4.002145">
        <ele>1020.096</ele>
        <time>2020-05-21T11:11:14Z</time>
      </trkpt>
      <trkpt lat="37.511458" lon="-4.002159">
        <ele>1020.093</ele>
        <time>2020-05-21T11:11:21Z</time>
      </trkpt>
      <trkpt lat="37.511398" lon="-4.002171">
        <ele>1020.011</ele>
        <time>2020-05-21T11:11:28Z</time>
      </trkpt>
      <trkpt lat="37.511339" lon="-4.002180">
        <ele>1020.084</ele>
        <time>2020-05-21T11:11:35Z</time>
      </trkpt>
      <trkpt lat="37.511277" lon="-4.002181">
        <ele>1020.035</ele>
        <time>2020-05-21T11:11:42Z</time>
      </trkpt>
      <trkpt lat="37.511217" lon="-4.002177">
        <ele>1020.036</ele>
        <time>2020-05-21T11:11:49Z</time>
      </trkpt>
      <trkpt lat="37.511154" lon="-4.002168">
        <ele>1020.065</ele>
        <time>2020-05-21T11:11:56Z</time>
      </trkpt>
      <trkpt lat="37.511093" lon="-4.002154">
        <ele>1020.055</ele>
        <time>2020-05-21T11:12:03Z</time>
      </trkpt>
      <trkpt lat="37.511034" lon="-4.002134">
        <ele>1020.307</ele>
        <time>2020-05-21T11:12:10Z</time>
      </trkpt>
      <trkpt lat="37.510974" lon="-4.002118">
        <ele>1020.017</ele>
        <time>2020-05-21T11:12:17Z</time>
      </trkpt>
      <trkpt lat="37.510909" lon="-4.002110">
        <ele>1020.008</ele>
        <time>2020-05-21T11:12:25Z</time>
      </trkpt>
      <trkpt lat="37.510843" lon="-4.002111">
        <ele>1020.083</ele>
        <time>2020-05-21T11:12:32Z</time>
      </trkpt>
      <trkpt lat="37.510778" lon="-4.002126">
        <ele>1019.064</ele>
        <time>2020-05-21T11:12:40Z</time>
      </trkpt>
      <trkpt lat="37.510721" lon="-4.002159">
        <ele>1019.091</ele>
        <time>2020-05-21T11:12:47Z</time>
      </trkpt>
      <trkpt lat="37.510673" lon="-4.002211">
        <ele>1019.679</ele>
        <time>2020-05-21T11:12:54Z</time>
      </trkpt>
      <trkpt lat="37.510627" lon="-4.002272">
        <ele>1019.372</ele>
        <time>2020-05-21T11:13:02Z</time>
      </trkpt>
      <trkpt lat="37.510580" lon="-4.002329">
        <ele>1019.543</ele>
        <time>2020-05-21T11:13:09Z</time>
      </trkpt>
      <trkpt lat="37.510536" lon="-4.002383">
        <ele>1020.084</ele>
        <time>2020-05-21T11:13:16Z</time>
      </trkpt>
      <trkpt lat="37.510496" lon="-4.002438">
        <ele>1020.043</ele>
        <time>2020-05-21T11:13:23Z</time>
      </trkpt>
      <trkpt lat="37.510458" lon="-4.002487">
        <ele>1020.697</ele>
        <time>2020-05-21T11:13:29Z</time>
      </trkpt>
      <trkpt lat="37.510420" lon="-4.002533">
        <ele>1020.823</ele>
        <time>2020-05-21T11:13:35Z</time>
      </trkpt>
      <trkpt lat="37.510381" lon="-4.002566">
        <ele>1021.025</ele>
        <time>2020-05-21T11:13:41Z</time>
      </trkpt>
      <trkpt lat="37.510341" lon="-4.002587">
        <ele>1021.008</ele>
        <time>2020-05-21T11:13:46Z</time>
      </trkpt>
      <trkpt lat="37.510302" lon="-4.002604">
        <ele>1021.567</ele>
        <time>2020-05-21T11:13:50Z</time>
      </trkpt>
      <trkpt lat="37.510262" lon="-4.002615">
        <ele>1022.088</ele>
        <time>2020-05-21T11:13:55Z</time>
      </trkpt>
      <trkpt lat="37.510224" lon="-4.002622">
        <ele>1022.035</ele>
        <time>2020-05-21T11:13:59Z</time>
      </trkpt>
      <trkpt lat="37.510187" lon="-4.002628">
        <ele>1022.063</ele>
        <time>2020-05-21T11:14:04Z</time>
      </trkpt>
      <trkpt lat="37.510150" lon="-4.002625">
        <ele>1022.046</ele>
        <time>2020-05-21T11:14:08Z</time>
      </trkpt>
      <trkpt lat="37.510115" lon="-4.002619">
        <ele>1022.087</ele>
        <time>2020-05-21T11:14:12Z</time>
      </trkpt>
      <trkpt lat="37.510077" lon="-4.002609">
        <ele>1022.018</ele>
        <time>2020-05-21T11:14:16Z</time>
      </trkpt>
      <trkpt lat="37.510041" lon="-4.002606">
        <ele>1022.057</ele>
        <time>2020-05-21T11:14:20Z</time>
      </trkpt>
      <trkpt lat="37.510003" lon="-4.002600">
        <ele>1022.291</ele>
        <time>2020-05-21T11:14:25Z</time>
      </trkpt>
      <trkpt lat="37.509967" lon="-4.002598">
        <ele>1021.881</ele>
        <time>2020-05-21T11:14:29Z</time>
      </trkpt>
      <trkpt lat="37.509931" lon="-4.002596">
        <ele>1021.219</ele>
        <time>2020-05-21T11:14:33Z</time>
      </trkpt>
      <trkpt lat="37.509894" lon="-4.002591">
        <ele>1021.408</ele>
        <time>2020-05-21T11:14:37Z</time>
      </trkpt>
      <trkpt lat="37.509859" lon="-4.002587">
        <ele>1021.487</ele>
        <time>2020-05-21T11:14:41Z</time>
      </trkpt>
      <trkpt lat="37.509823" lon="-4.002578">
        <ele>1021.638</ele>
        <time>2020-05-21T11:14:45Z</time>
      </trkpt>
      <trkpt lat="37.509788" lon="-4.002571">
        <ele>1021.345</ele>
        <time>2020-05-21T11:14:49Z</time>
      </trkpt>
      <trkpt lat="37.509752" lon="-4.002563">
        <ele>1021.013</ele>
        <time>2020-05-21T11:14:54Z</time>
      </trkpt>
      <trkpt lat="37.509718" lon="-4.002553">
        <ele>1021.156</ele>
        <time>2020-05-21T11:14:58Z</time>
      </trkpt>
      <trkpt lat="37.509681" lon="-4.002537">
        <ele>1020.817</ele>
        <time>2020-05-21T11:15:02Z</time>
      </trkpt>
      <trkpt lat="37.509651" lon="-4.002516">
        <ele>1021.088</ele>
        <time>2020-05-21T11:15:06Z</time>
      </trkpt>
      <trkpt lat="37.509625" lon="-4.002491">
        <ele>1021.137</ele>
        <time>2020-05-21T11:15:10Z</time>
      </trkpt>
      <trkpt lat="37.509602" lon="-4.002458">
        <ele>1021.152</ele>
        <time>2020-05-21T11:15:14Z</time>
      </trkpt>
      <trkpt lat="37.509584" lon="-4.002418">
        <ele>1020.853</ele>
        <time>2020-05-21T11:15:18Z</time>
      </trkpt>
      <trkpt lat="37.509571" lon="-4.002378">
        <ele>1020.608</ele>
        <time>2020-05-21T11:15:22Z</time>
      </trkpt>
      <trkpt lat="37.509564" lon="-4.002336">
        <ele>1020.908</ele>
        <time>2020-05-21T11:15:26Z</time>
      </trkpt>
      <trkpt lat="37.509559" lon="-4.002293">
        <ele>1021.093</ele>
        <time>2020-05-21T11:15:30Z</time>
      </trkpt>
      <trkpt lat="37.509552" lon="-4.002250">
        <ele>1021.414</ele>
        <time>2020-05-21T11:15:34Z</time>
      </trkpt>
      <trkpt lat="37.509543" lon="-4.002206">
        <ele>1021.181</ele>
        <time>2020-05-21T11:15:38Z</time>
      </trkpt>
      <trkpt lat="37.509535" lon="-4.002162">
        <ele>1020.999</ele>
        <time>2020-05-21T11:15:42Z</time>
      </trkpt>
      <trkpt lat="37.509529" lon="-4.002117">
        <ele>1020.682</ele>
        <time>2020-05-21T11:15:46Z</time>
      </trkpt>
      <trkpt lat="37.509525" lon="-4.002073">
        <ele>1020.543</ele>
        <time>2020-05-21T11:15:50Z</time>
      </trkpt>
      <trkpt lat="37.509521" lon="-4.002030">
        <ele>1020.944</ele>
        <time>2020-05-21T11:15:54Z</time>
      </trkpt>
      <trkpt lat="37.509515" lon="-4.001987">
        <ele>1020.773</ele>
        <time>2020-05-21T11:15:58Z</time>
      </trkpt>
      <trkpt lat="37.509504" lon="-4.001945">
        <ele>1020.152</ele>
        <time>2020-05-21T11:16:02Z</time>
      </trkpt>
      <trkpt lat="37.509488" lon="-4.001904">
        <ele>1019.353</ele>
        <time>2020-05-21T11:16:06Z</time>
      </trkpt>
      <trkpt lat="37.509470" lon="-4.001862">
        <ele>1018.708</ele>
        <time>2020-05-21T11:16:10Z</time>
      </trkpt>
      <trkpt lat="37.509449" lon="-4.001819">
        <ele>1017.808</ele>
        <time>2020-05-21T11:16:15Z</time>
      </trkpt>
      <trkpt lat="37.509421" lon="-4.001775">
        <ele>1015.943</ele>
        <time>2020-05-21T11:16:20Z</time>
      </trkpt>
      <trkpt lat="37.509391" lon="-4.001730">
        <ele>1015.584</ele>
        <time>2020-05-21T11:16:26Z</time>
      </trkpt>
      <trkpt lat="37.509355" lon="-4.001686">
        <ele>1015.331</ele>
        <time>2020-05-21T11:16:32Z</time>
      </trkpt>
      <trkpt lat="37.509314" lon="-4.001639">
        <ele>1015.099</ele>
        <time>2020-05-21T11:16:38Z</time>
      </trkpt>
      <trkpt lat="37.509268" lon="-4.001589">
        <ele>1014.522</ele>
        <time>2020-05-21T11:16:45Z</time>
      </trkpt>
      <trkpt lat="37.509216" lon="-4.001544">
        <ele>1012.853</ele>
        <time>2020-05-21T11:16:52Z</time>
      </trkpt>
      <trkpt lat="37.509157" lon="-4.001503">
        <ele>1012.584</ele>
        <time>2020-05-21T11:17:00Z</time>
      </trkpt>
      <trkpt lat="37.509096" lon="-4.001461">
        <ele>1012.583</ele>
        <time>2020-05-21T11:17:08Z</time>
      </trkpt>
      <trkpt lat="37.509034" lon="-4.001420">
        <ele>1013.345</ele>
        <time>2020-05-21T11:17:16Z</time>
      </trkpt>
      <trkpt lat="37.508966" lon="-4.001377">
        <ele>1013.347</ele>
        <time>2020-05-21T11:17:24Z</time>
      </trkpt>
      <trkpt lat="37.508897" lon="-4.001336">
        <ele>1012.611</ele>
        <time>2020-05-21T11:17:33Z</time>
      </trkpt>
      <trkpt lat="37.508829" lon="-4.001294">
        <ele>1012.108</ele>
        <time>2020-05-21T11:17:42Z</time>
      </trkpt>
      <trkpt lat="37.508761" lon="-4.001248">
        <ele>1012.492</ele>
        <time>2020-05-21T11:17:51Z</time>
      </trkpt>
      <trkpt lat="37.508695" lon="-4.001202">
        <ele>1012.273</ele>
        <time>2020-05-21T11:17:59Z</time>
      </trkpt>
      <trkpt lat="37.508629" lon="-4.001161">
        <ele>1013.040</ele>
        <time>2020-05-21T11:18:08Z</time>
      </trkpt>
      <trkpt lat="37.508564" lon="-4.001116">
        <ele>1013.088</ele>
        <time>2020-05-21T11:18:16Z</time>
      </trkpt>
      <trkpt lat="37.508500" lon="-4.001067">
        <ele>1013.171</ele>
        <time>2020-05-21T11:18:25Z</time>
      </trkpt>
      <trkpt lat="37.508436" lon="-4.001015">
        <ele>1013.182</ele>
        <time>2020-05-21T11:18:33Z</time>
      </trkpt>
      <trkpt lat="37.508374" lon="-4.000965">
        <ele>1013.193</ele>
        <time>2020-05-21T11:18:42Z</time>
      </trkpt>
      <trkpt lat="37.508315" lon="-4.000914">
        <ele>1013.052</ele>
        <time>2020-05-21T11:18:50Z</time>
      </trkpt>
      <trkpt lat="37.508256" lon="-4.000862">
        <ele>1013.134</ele>
        <time>2020-05-21T11:18:58Z</time>
      </trkpt>
      <trkpt lat="37.508198" lon="-4.000813">
        <ele>1013.155</ele>
        <time>2020-05-21T11:19:06Z</time>
      </trkpt>
      <trkpt lat="37.508138" lon="-4.000762">
        <ele>1013.110</ele>
        <time>2020-05-21T11:19:14Z</time>
      </trkpt>
      <trkpt lat="37.508077" lon="-4.000712">
        <ele>1013.008</ele>
        <time>2020-05-21T11:19:22Z</time>
      </trkpt>
      <trkpt lat="37.508016" lon="-4.000662">
        <ele>1013.081</ele>
        <time>2020-05-21T11:19:31Z</time>
      </trkpt>
      <trkpt lat="37.507954" lon="-4.000615">
        <ele>1013.062</ele>
        <time>2020-05-21T11:19:39Z</time>
      </trkpt>
      <trkpt lat="37.507889" lon="-4.000569">
        <ele>1013.069</ele>
        <time>2020-05-21T11:19:47Z</time>
      </trkpt>
      <trkpt lat="37.507821" lon="-4.000523">
        <ele>1012.887</ele>
        <time>2020-05-21T11:19:56Z</time>
      </trkpt>
      <trkpt lat="37.507751" lon="-4.000481">
        <ele>1012.830</ele>
        <time>2020-05-21T11:20:05Z</time>
      </trkpt>
      <trkpt lat="37.507677" lon="-4.000434">
        <ele>1012.891</ele>
        <time>2020-05-21T11:20:15Z</time>
      </trkpt>
      <trkpt lat="37.507601" lon="-4.000381">
        <ele>1011.822</ele>
        <time>2020-05-21T11:20:24Z</time>
      </trkpt>
      <trkpt lat="37.507526" lon="-4.000323">
        <ele>1011.831</ele>
        <time>2020-05-21T11:20:34Z</time>
      </trkpt>
      <trkpt lat="37.507454" lon="-4.000252">
        <ele>1012.022</ele>
        <time>2020-05-21T11:20:45Z</time>
      </trkpt>
      <trkpt lat="37.507385" lon="-4.000169">
        <ele>1012.262</ele>
        <time>2020-05-21T11:20:56Z</time>
      </trkpt>
      <trkpt lat="37.507317" lon="-4.000085">
        <ele>1012.508</ele>
        <time>2020-05-21T11:21:07Z</time>
      </trkpt>
      <trkpt lat="37.507253" lon="-3.999998">
        <ele>1013.208</ele>
        <time>2020-05-21T11:21:17Z</time>
      </trkpt>
      <trkpt lat="37.507196" lon="-3.999899">
        <ele>1013.630</ele>
        <time>2020-05-21T11:21:28Z</time>
      </trkpt>
      <trkpt lat="37.507147" lon="-3.999798">
        <ele>1013.911</ele>
        <time>2020-05-21T11:21:39Z</time>
      </trkpt>
      <trkpt lat="37.507094" lon="-3.999698">
        <ele>1014.218</ele>
        <time>2020-05-21T11:21:50Z</time>
      </trkpt>
      <trkpt lat="37.507042" lon="-3.999599">
        <ele>1015.066</ele>
        <time>2020-05-21T11:22:01Z</time>
      </trkpt>
      <trkpt lat="37.506990" lon="-3.999501">
        <ele>1015.379</ele>
        <time>2020-05-21T11:22:11Z</time>
      </trkpt>
      <trkpt lat="37.506937" lon="-3.999406">
        <ele>1016.010</ele>
        <time>2020-05-21T11:22:22Z</time>
      </trkpt>
      <trkpt lat="37.506882" lon="-3.999310">
        <ele>1016.021</ele>
        <time>2020-05-21T11:22:33Z</time>
      </trkpt>
      <trkpt lat="37.506825" lon="-3.999214">
        <ele>1016.250</ele>
        <time>2020-05-21T11:22:43Z</time>
      </trkpt>
      <trkpt lat="37.506760" lon="-3.999126">
        <ele>1017.068</ele>
        <time>2020-05-21T11:22:54Z</time>
      </trkpt>
      <trkpt lat="37.506687" lon="-3.999045">
        <ele>1018.042</ele>
        <time>2020-05-21T11:23:05Z</time>
      </trkpt>
      <trkpt lat="37.506608" lon="-3.998966">
        <ele>1018.026</ele>
        <time>2020-05-21T11:23:17Z</time>
      </trkpt>
      <trkpt lat="37.506526" lon="-3.998891">
        <ele>1017.708</ele>
        <time>2020-05-21T11:23:28Z</time>
      </trkpt>
      <trkpt lat="37.506439" lon="-3.998818">
        <ele>1018.094</ele>
        <time>2020-05-21T11:23:40Z</time>
      </trkpt>
      <trkpt lat="37.506351" lon="-3.998754">
        <ele>1018.045</ele>
        <time>2020-05-21T11:23:52Z</time>
      </trkpt>
      <trkpt lat="37.506262" lon="-3.998694">
        <ele>1018.112</ele>
        <time>2020-05-21T11:24:03Z</time>
      </trkpt>
      <trkpt lat="37.506175" lon="-3.998636">
        <ele>1019.090</ele>
        <time>2020-05-21T11:24:15Z</time>
      </trkpt>
      <trkpt lat="37.506091" lon="-3.998583">
        <ele>1020.083</ele>
        <time>2020-05-21T11:24:25Z</time>
      </trkpt>
      <trkpt lat="37.506010" lon="-3.998529">
        <ele>1020.784</ele>
        <time>2020-05-21T11:24:36Z</time>
      </trkpt>
      <trkpt lat="37.505936" lon="-3.998477">
        <ele>1021.555</ele>
        <time>2020-05-21T11:24:46Z</time>
      </trkpt>
      <trkpt lat="37.505867" lon="-3.998425">
        <ele>1022.844</ele>
        <time>2020-05-21T11:24:55Z</time>
      </trkpt>
      <trkpt lat="37.505803" lon="-3.998375">
        <ele>1023.916</ele>
        <time>2020-05-21T11:25:03Z</time>
      </trkpt>
      <trkpt lat="37.505744" lon="-3.998329">
        <ele>1024.976</ele>
        <time>2020-05-21T11:25:11Z</time>
      </trkpt>
      <trkpt lat="37.505688" lon="-3.998287">
        <ele>1025.013</ele>
        <time>2020-05-21T11:25:19Z</time>
      </trkpt>
      <trkpt lat="37.505637" lon="-3.998247">
        <ele>1025.008</ele>
        <time>2020-05-21T11:25:26Z</time>
      </trkpt>
      <trkpt lat="37.505591" lon="-3.998204">
        <ele>1025.619</ele>
        <time>2020-05-21T11:25:32Z</time>
      </trkpt>
      <trkpt lat="37.505550" lon="-3.998161">
        <ele>1026.170</ele>
        <time>2020-05-21T11:25:38Z</time>
      </trkpt>
      <trkpt lat="37.505514" lon="-3.998124">
        <ele>1026.427</ele>
        <time>2020-05-21T11:25:44Z</time>
      </trkpt>
      <trkpt lat="37.505481" lon="-3.998091">
        <ele>1027.075</ele>
        <time>2020-05-21T11:25:49Z</time>
      </trkpt>
      <trkpt lat="37.505453" lon="-3.998064">
        <ele>1027.068</ele>
        <time>2020-05-21T11:25:53Z</time>
      </trkpt>
      <trkpt lat="37.505429" lon="-3.998043">
        <ele>1027.059</ele>
        <time>2020-05-21T11:25:56Z</time>
      </trkpt>
      <trkpt lat="37.505408" lon="-3.998028">
        <ele>1027.040</ele>
        <time>2020-05-21T11:25:59Z</time>
      </trkpt>
      <trkpt lat="37.505409" lon="-3.998023">
        <ele>1027.079</ele>
        <time>2020-05-21T11:25:59Z</time>
      </trkpt>
      <trkpt lat="37.505408" lon="-3.998019">
        <ele>1027.029</ele>
        <time>2020-05-21T11:25:59Z</time>
      </trkpt>
      <trkpt lat="37.505402" lon="-3.998009">
        <ele>1027.000</ele>
        <time>2020-05-21T11:26:01Z</time>
      </trkpt>
      <trkpt lat="37.505393" lon="-3.997996">
        <ele>1027.220</ele>
        <time>2020-05-21T11:26:02Z</time>
      </trkpt>
      <trkpt lat="37.505382" lon="-3.997989">
        <ele>1027.408</ele>
        <time>2020-05-21T11:26:04Z</time>
      </trkpt>
      <trkpt lat="37.505369" lon="-3.997978">
        <ele>1027.660</ele>
        <time>2020-05-21T11:26:05Z</time>
      </trkpt>
      <trkpt lat="37.505354" lon="-3.997965">
        <ele>1027.611</ele>
        <time>2020-05-21T11:26:07Z</time>
      </trkpt>
      <trkpt lat="37.505335" lon="-3.997944">
        <ele>1027.668</ele>
        <time>2020-05-21T11:26:10Z</time>
      </trkpt>
      <trkpt lat="37.505315" lon="-3.997922">
        <ele>1027.856</ele>
        <time>2020-05-21T11:26:13Z</time>
      </trkpt>
      <trkpt lat="37.505297" lon="-3.997902">
        <ele>1028.029</ele>
        <time>2020-05-21T11:26:16Z</time>
      </trkpt>
      <trkpt lat="37.505280" lon="-3.997878">
        <ele>1028.060</ele>
        <time>2020-05-21T11:26:19Z</time>
      </trkpt>
      <trkpt lat="37.505260" lon="-3.997854">
        <ele>1028.031</ele>
        <time>2020-05-21T11:26:22Z</time>
      </trkpt>
      <trkpt lat="37.505242" lon="-3.997831">
        <ele>1028.020</ele>
        <time>2020-05-21T11:26:25Z</time>
      </trkpt>
      <trkpt lat="37.505223" lon="-3.997807">
        <ele>1028.188</ele>
        <time>2020-05-21T11:26:28Z</time>
      </trkpt>
      <trkpt lat="37.505200" lon="-3.997776">
        <ele>1028.124</ele>
        <time>2020-05-21T11:26:32Z</time>
      </trkpt>
      <trkpt lat="37.505174" lon="-3.997742">
        <ele>1028.426</ele>
        <time>2020-05-21T11:26:36Z</time>
      </trkpt>
      <trkpt lat="37.505150" lon="-3.997708">
        <ele>1028.708</ele>
        <time>2020-05-21T11:26:40Z</time>
      </trkpt>
      <trkpt lat="37.505127" lon="-3.997673">
        <ele>1028.786</ele>
        <time>2020-05-21T11:26:44Z</time>
      </trkpt>
      <trkpt lat="37.505105" lon="-3.997638">
        <ele>1028.437</ele>
        <time>2020-05-21T11:26:49Z</time>
      </trkpt>
      <trkpt lat="37.505082" lon="-3.997600">
        <ele>1028.814</ele>
        <time>2020-05-21T11:26:53Z</time>
      </trkpt>
      <trkpt lat="37.505058" lon="-3.997561">
        <ele>1028.432</ele>
        <time>2020-05-21T11:26:57Z</time>
      </trkpt>
      <trkpt lat="37.505035" lon="-3.997524">
        <ele>1028.765</ele>
        <time>2020-05-21T11:27:02Z</time>
      </trkpt>
      <trkpt lat="37.505009" lon="-3.997488">
        <ele>1028.676</ele>
        <time>2020-05-21T11:27:06Z</time>
      </trkpt>
      <trkpt lat="37.504984" lon="-3.997452">
        <ele>1028.177</ele>
        <time>2020-05-21T11:27:10Z</time>
      </trkpt>
      <trkpt lat="37.504959" lon="-3.997413">
        <ele>1028.156</ele>
        <time>2020-05-21T11:27:15Z</time>
      </trkpt>
      <trkpt lat="37.504938" lon="-3.997375">
        <ele>1028.371</ele>
        <time>2020-05-21T11:27:19Z</time>
      </trkpt>
      <trkpt lat="37.504916" lon="-3.997336">
        <ele>1028.841</ele>
        <time>2020-05-21T11:27:23Z</time>
      </trkpt>
      <trkpt lat="37.504894" lon="-3.997301">
        <ele>1028.515</ele>
        <time>2020-05-21T11:27:27Z</time>
      </trkpt>
      <trkpt lat="37.504869" lon="-3.997267">
        <ele>1028.408</ele>
        <time>2020-05-21T11:27:32Z</time>
      </trkpt>
      <trkpt lat="37.504845" lon="-3.997234">
        <ele>1028.675</ele>
        <time>2020-05-21T11:27:36Z</time>
      </trkpt>
      <trkpt lat="37.504818" lon="-3.997204">
        <ele>1028.286</ele>
        <time>2020-05-21T11:27:40Z</time>
      </trkpt>
      <trkpt lat="37.504791" lon="-3.997174">
        <ele>1028.163</ele>
        <time>2020-05-21T11:27:44Z</time>
      </trkpt>
      <trkpt lat="37.504767" lon="-3.997142">
        <ele>1028.381</ele>
        <time>2020-05-21T11:27:48Z</time>
      </trkpt>
      <trkpt lat="37.504740" lon="-3.997108">
        <ele>1028.034</ele>
        <time>2020-05-21T11:27:52Z</time>
      </trkpt>
      <trkpt lat="37.504711" lon="-3.997077">
        <ele>1028.255</ele>
        <time>2020-05-21T11:27:57Z</time>
      </trkpt>
      <trkpt lat="37.504681" lon="-3.997050">
        <ele>1027.776</ele>
        <time>2020-05-21T11:28:01Z</time>
      </trkpt>
      <trkpt lat="37.504651" lon="-3.997021">
        <ele>1027.285</ele>
        <time>2020-05-21T11:28:05Z</time>
      </trkpt>
      <trkpt lat="37.504620" lon="-3.996991">
        <ele>1027.094</ele>
        <time>2020-05-21T11:28:10Z</time>
      </trkpt>
      <trkpt lat="37.504591" lon="-3.996960">
        <ele>1027.057</ele>
        <time>2020-05-21T11:28:14Z</time>
      </trkpt>
      <trkpt lat="37.504558" lon="-3.996925">
        <ele>1026.622</ele>
        <time>2020-05-21T11:28:19Z</time>
      </trkpt>
      <trkpt lat="37.504524" lon="-3.996891">
        <ele>1026.008</ele>
        <time>2020-05-21T11:28:24Z</time>
      </trkpt>
      <trkpt lat="37.504489" lon="-3.996859">
        <ele>1026.177</ele>
        <time>2020-05-21T11:28:29Z</time>
      </trkpt>
      <trkpt lat="37.504455" lon="-3.996825">
        <ele>1026.058</ele>
        <time>2020-05-21T11:28:34Z</time>
      </trkpt>
      <trkpt lat="37.504420" lon="-3.996788">
        <ele>1026.025</ele>
        <time>2020-05-21T11:28:39Z</time>
      </trkpt>
      <trkpt lat="37.504384" lon="-3.996753">
        <ele>1026.053</ele>
        <time>2020-05-21T11:28:44Z</time>
      </trkpt>
      <trkpt lat="37.504350" lon="-3.996717">
        <ele>1026.076</ele>
        <time>2020-05-21T11:28:49Z</time>
      </trkpt>
      <trkpt lat="37.504315" lon="-3.996684">
        <ele>1026.327</ele>
        <time>2020-05-21T11:28:54Z</time>
      </trkpt>
      <trkpt lat="37.504281" lon="-3.996649">
        <ele>1026.678</ele>
        <time>2020-05-21T11:28:59Z</time>
      </trkpt>
      <trkpt lat="37.504249" lon="-3.996612">
        <ele>1026.167</ele>
        <time>2020-05-21T11:29:04Z</time>
      </trkpt>
      <trkpt lat="37.504218" lon="-3.996576">
        <ele>1026.025</ele>
        <time>2020-05-21T11:29:09Z</time>
      </trkpt>
      <trkpt lat="37.504187" lon="-3.996541">
        <ele>1026.026</ele>
        <time>2020-05-21T11:29:14Z</time>
      </trkpt>
      <trkpt lat="37.504156" lon="-3.996507">
        <ele>1026.108</ele>
        <time>2020-05-21T11:29:18Z</time>
      </trkpt>
      <trkpt lat="37.504125" lon="-3.996472">
        <ele>1026.008</ele>
        <time>2020-05-21T11:29:23Z</time>
      </trkpt>
      <trkpt lat="37.504095" lon="-3.996439">
        <ele>1026.220</ele>
        <time>2020-05-21T11:29:28Z</time>
      </trkpt>
      <trkpt lat="37.504065" lon="-3.996405">
        <ele>1026.231</ele>
        <time>2020-05-21T11:29:32Z</time>
      </trkpt>
      <trkpt lat="37.504035" lon="-3.996370">
        <ele>1025.538</ele>
        <time>2020-05-21T11:29:37Z</time>
      </trkpt>
      <trkpt lat="37.504007" lon="-3.996338">
        <ele>1025.036</ele>
        <time>2020-05-21T11:29:41Z</time>
      </trkpt>
      <trkpt lat="37.503981" lon="-3.996306">
        <ele>1025.299</ele>
        <time>2020-05-21T11:29:45Z</time>
      </trkpt>
      <trkpt lat="37.503953" lon="-3.996273">
        <ele>1025.350</ele>
        <time>2020-05-21T11:29:50Z</time>
      </trkpt>
      <trkpt lat="37.503927" lon="-3.996240">
        <ele>1025.581</ele>
        <time>2020-05-21T11:29:54Z</time>
      </trkpt>
      <trkpt lat="37.503901" lon="-3.996209">
        <ele>1025.760</ele>
        <time>2020-05-21T11:29:58Z</time>
      </trkpt>
      <trkpt lat="37.503873" lon="-3.996176">
        <ele>1025.925</ele>
        <time>2020-05-21T11:30:02Z</time>
      </trkpt>
      <trkpt lat="37.503846" lon="-3.996144">
        <ele>1025.926</ele>
        <time>2020-05-21T11:30:07Z</time>
      </trkpt>
      <trkpt lat="37.503822" lon="-3.996112">
        <ele>1025.508</ele>
        <time>2020-05-21T11:30:11Z</time>
      </trkpt>
      <trkpt lat="37.503796" lon="-3.996076">
        <ele>1025.008</ele>
        <time>2020-05-21T11:30:15Z</time>
      </trkpt>
      <trkpt lat="37.503768" lon="-3.996039">
        <ele>1024.810</ele>
        <time>2020-05-21T11:30:20Z</time>
      </trkpt>
      <trkpt lat="37.503742" lon="-3.996006">
        <ele>1025.021</ele>
        <time>2020-05-21T11:30:24Z</time>
      </trkpt>
      <trkpt lat="37.503718" lon="-3.995977">
        <ele>1025.098</ele>
        <time>2020-05-21T11:30:28Z</time>
      </trkpt>
      <trkpt lat="37.503693" lon="-3.995948">
        <ele>1025.176</ele>
        <time>2020-05-21T11:30:32Z</time>
      </trkpt>
      <trkpt lat="37.503668" lon="-3.995916">
        <ele>1025.089</ele>
        <time>2020-05-21T11:30:36Z</time>
      </trkpt>
      <trkpt lat="37.503645" lon="-3.995882">
        <ele>1025.070</ele>
        <time>2020-05-21T11:30:40Z</time>
      </trkpt>
      <trkpt lat="37.503620" lon="-3.995850">
        <ele>1024.911</ele>
        <time>2020-05-21T11:30:44Z</time>
      </trkpt>
      <trkpt lat="37.503594" lon="-3.995820">
        <ele>1024.710</ele>
        <time>2020-05-21T11:30:48Z</time>
      </trkpt>
      <trkpt lat="37.503571" lon="-3.995791">
        <ele>1025.032</ele>
        <time>2020-05-21T11:30:51Z</time>
      </trkpt>
      <trkpt lat="37.503549" lon="-3.995760">
        <ele>1024.692</ele>
        <time>2020-05-21T11:30:55Z</time>
      </trkpt>
      <trkpt lat="37.503527" lon="-3.995731">
        <ele>1024.211</ele>
        <time>2020-05-21T11:30:59Z</time>
      </trkpt>
      <trkpt lat="37.503503" lon="-3.995705">
        <ele>1024.008</ele>
        <time>2020-05-21T11:31:02Z</time>
      </trkpt>
      <trkpt lat="37.503481" lon="-3.995677">
        <ele>1024.011</ele>
        <time>2020-05-21T11:31:06Z</time>
      </trkpt>
      <trkpt lat="37.503458" lon="-3.995650">
        <ele>1024.072</ele>
        <time>2020-05-21T11:31:10Z</time>
      </trkpt>
      <trkpt lat="37.503435" lon="-3.995622">
        <ele>1024.059</ele>
        <time>2020-05-21T11:31:13Z</time>
      </trkpt>
      <trkpt lat="37.503413" lon="-3.995595">
        <ele>1024.057</ele>
        <time>2020-05-21T11:31:17Z</time>
      </trkpt>
      <trkpt lat="37.503393" lon="-3.995566">
        <ele>1023.910</ele>
        <time>2020-05-21T11:31:20Z</time>
      </trkpt>
      <trkpt lat="37.503373" lon="-3.995537">
        <ele>1023.921</ele>
        <time>2020-05-21T11:31:24Z</time>
      </trkpt>
      <trkpt lat="37.503354" lon="-3.995507">
        <ele>1024.012</ele>
        <time>2020-05-21T11:31:27Z</time>
      </trkpt>
      <trkpt lat="37.503337" lon="-3.995479">
        <ele>1023.911</ele>
        <time>2020-05-21T11:31:30Z</time>
      </trkpt>
      <trkpt lat="37.503319" lon="-3.995452">
        <ele>1023.662</ele>
        <time>2020-05-21T11:31:34Z</time>
      </trkpt>
      <trkpt lat="37.503300" lon="-3.995427">
        <ele>1023.283</ele>
        <time>2020-05-21T11:31:37Z</time>
      </trkpt>
      <trkpt lat="37.503282" lon="-3.995401">
        <ele>1022.911</ele>
        <time>2020-05-21T11:31:40Z</time>
      </trkpt>
      <trkpt lat="37.503268" lon="-3.995373">
        <ele>1022.608</ele>
        <time>2020-05-21T11:31:43Z</time>
      </trkpt>
      <trkpt lat="37.503251" lon="-3.995344">
        <ele>1022.394</ele>
        <time>2020-05-21T11:31:46Z</time>
      </trkpt>
      <trkpt lat="37.503235" lon="-3.995313">
        <ele>1022.195</ele>
        <time>2020-05-21T11:31:49Z</time>
      </trkpt>
      <trkpt lat="37.503220" lon="-3.995285">
        <ele>1021.842</ele>
        <time>2020-05-21T11:31:53Z</time>
      </trkpt>
      <trkpt lat="37.503206" lon="-3.995257">
        <ele>1021.550</ele>
        <time>2020-05-21T11:31:56Z</time>
      </trkpt>
      <trkpt lat="37.503193" lon="-3.995227">
        <ele>1021.393</ele>
        <time>2020-05-21T11:31:59Z</time>
      </trkpt>
      <trkpt lat="37.503181" lon="-3.995197">
        <ele>1021.184</ele>
        <time>2020-05-21T11:32:02Z</time>
      </trkpt>
      <trkpt lat="37.503168" lon="-3.995169">
        <ele>1021.095</ele>
        <time>2020-05-21T11:32:05Z</time>
      </trkpt>
      <trkpt lat="37.503156" lon="-3.995139">
        <ele>1021.074</ele>
        <time>2020-05-21T11:32:08Z</time>
      </trkpt>
      <trkpt lat="37.503145" lon="-3.995110">
        <ele>1021.081</ele>
        <time>2020-05-21T11:32:11Z</time>
      </trkpt>
      <trkpt lat="37.503135" lon="-3.995078">
        <ele>1021.061</ele>
        <time>2020-05-21T11:32:14Z</time>
      </trkpt>
      <trkpt lat="37.503124" lon="-3.995050">
        <ele>1021.017</ele>
        <time>2020-05-21T11:32:16Z</time>
      </trkpt>
      <trkpt lat="37.503112" lon="-3.995020">
        <ele>1020.708</ele>
        <time>2020-05-21T11:32:20Z</time>
      </trkpt>
      <trkpt lat="37.503101" lon="-3.994990">
        <ele>1020.166</ele>
        <time>2020-05-21T11:32:23Z</time>
      </trkpt>
      <trkpt lat="37.503088" lon="-3.994958">
        <ele>1020.017</ele>
        <time>2020-05-21T11:32:26Z</time>
      </trkpt>
      <trkpt lat="37.503075" lon="-3.994929">
        <ele>1019.894</ele>
        <time>2020-05-21T11:32:29Z</time>
      </trkpt>
      <trkpt lat="37.503061" lon="-3.994899">
        <ele>1019.152</ele>
        <time>2020-05-21T11:32:32Z</time>
      </trkpt>
      <trkpt lat="37.503048" lon="-3.994870">
        <ele>1018.935</ele>
        <time>2020-05-21T11:32:35Z</time>
      </trkpt>
      <trkpt lat="37.503034" lon="-3.994839">
        <ele>1018.576</ele>
        <time>2020-05-21T11:32:38Z</time>
      </trkpt>
      <trkpt lat="37.503021" lon="-3.994808">
        <ele>1018.397</ele>
        <time>2020-05-21T11:32:42Z</time>
      </trkpt>
      <trkpt lat="37.503008" lon="-3.994779">
        <ele>1018.056</ele>
        <time>2020-05-21T11:32:45Z</time>
      </trkpt>
      <trkpt lat="37.502993" lon="-3.994750">
        <ele>1018.056</ele>
        <time>2020-05-21T11:32:48Z</time>
      </trkpt>
      <trkpt lat="37.502981" lon="-3.994720">
        <ele>1018.059</ele>
        <time>2020-05-21T11:32:51Z</time>
      </trkpt>
      <trkpt lat="37.502968" lon="-3.994688">
        <ele>1018.014</ele>
        <time>2020-05-21T11:32:54Z</time>
      </trkpt>
      <trkpt lat="37.502956" lon="-3.994654">
        <ele>1018.008</ele>
        <time>2020-05-21T11:32:57Z</time>
      </trkpt>
      <trkpt lat="37.502943" lon="-3.994622">
        <ele>1018.013</ele>
        <time>2020-05-21T11:33:01Z</time>
      </trkpt>
      <trkpt lat="37.502927" lon="-3.994594">
        <ele>1017.484</ele>
        <time>2020-05-21T11:33:04Z</time>
      </trkpt>
      <trkpt lat="37.502910" lon="-3.994562">
        <ele>1017.021</ele>
        <time>2020-05-21T11:33:07Z</time>
      </trkpt>
      <trkpt lat="37.502893" lon="-3.994533">
        <ele>1017.039</ele>
        <time>2020-05-21T11:33:11Z</time>
      </trkpt>
      <trkpt lat="37.502879" lon="-3.994504">
        <ele>1017.022</ele>
        <time>2020-05-21T11:33:14Z</time>
      </trkpt>
      <trkpt lat="37.502863" lon="-3.994472">
        <ele>1017.063</ele>
        <time>2020-05-21T11:33:17Z</time>
      </trkpt>
      <trkpt lat="37.502847" lon="-3.994443">
        <ele>1017.094</ele>
        <time>2020-05-21T11:33:20Z</time>
      </trkpt>
      <trkpt lat="37.502831" lon="-3.994411">
        <ele>1017.093</ele>
        <time>2020-05-21T11:33:24Z</time>
      </trkpt>
      <trkpt lat="37.502814" lon="-3.994380">
        <ele>1016.677</ele>
        <time>2020-05-21T11:33:27Z</time>
      </trkpt>
      <trkpt lat="37.502799" lon="-3.994349">
        <ele>1016.061</ele>
        <time>2020-05-21T11:33:30Z</time>
      </trkpt>
      <trkpt lat="37.502781" lon="-3.994321">
        <ele>1016.027</ele>
        <time>2020-05-21T11:33:34Z</time>
      </trkpt>
      <trkpt lat="37.502765" lon="-3.994292">
        <ele>1016.008</ele>
        <time>2020-05-21T11:33:37Z</time>
      </trkpt>
      <trkpt lat="37.502745" lon="-3.994259">
        <ele>1016.075</ele>
        <time>2020-05-21T11:33:41Z</time>
      </trkpt>
      <trkpt lat="37.502727" lon="-3.994231">
        <ele>1016.066</ele>
        <time>2020-05-21T11:33:44Z</time>
      </trkpt>
      <trkpt lat="37.502709" lon="-3.994203">
        <ele>1016.043</ele>
        <time>2020-05-21T11:33:47Z</time>
      </trkpt>
      <trkpt lat="37.502687" lon="-3.994177">
        <ele>1016.071</ele>
        <time>2020-05-21T11:33:51Z</time>
      </trkpt>
      <trkpt lat="37.502665" lon="-3.994149">
        <ele>1015.594</ele>
        <time>2020-05-21T11:33:54Z</time>
      </trkpt>
      <trkpt lat="37.502647" lon="-3.994122">
        <ele>1015.055</ele>
        <time>2020-05-21T11:33:57Z</time>
      </trkpt>
      <trkpt lat="37.502625" lon="-3.994097">
        <ele>1015.076</ele>
        <time>2020-05-21T11:34:01Z</time>
      </trkpt>
      <trkpt lat="37.502607" lon="-3.994073">
        <ele>1015.085</ele>
        <time>2020-05-21T11:34:04Z</time>
      </trkpt>
      <trkpt lat="37.502588" lon="-3.994048">
        <ele>1015.056</ele>
        <time>2020-05-21T11:34:07Z</time>
      </trkpt>
      <trkpt lat="37.502570" lon="-3.994019">
        <ele>1014.759</ele>
        <time>2020-05-21T11:34:10Z</time>
      </trkpt>
      <trkpt lat="37.502556" lon="-3.993991">
        <ele>1014.014</ele>
        <time>2020-05-21T11:34:13Z</time>
      </trkpt>
      <trkpt lat="37.502541" lon="-3.993962">
        <ele>1014.008</ele>
        <time>2020-05-21T11:34:16Z</time>
      </trkpt>
      <trkpt lat="37.502523" lon="-3.993934">
        <ele>1014.013</ele>
        <time>2020-05-21T11:34:20Z</time>
      </trkpt>
      <trkpt lat="37.502508" lon="-3.993910">
        <ele>1014.054</ele>
        <time>2020-05-21T11:34:22Z</time>
      </trkpt>
      <trkpt lat="37.502491" lon="-3.993886">
        <ele>1014.031</ele>
        <time>2020-05-21T11:34:25Z</time>
      </trkpt>
      <trkpt lat="37.502475" lon="-3.993862">
        <ele>1014.039</ele>
        <time>2020-05-21T11:34:28Z</time>
      </trkpt>
      <trkpt lat="37.502462" lon="-3.993836">
        <ele>1014.032</ele>
        <time>2020-05-21T11:34:31Z</time>
      </trkpt>
      <trkpt lat="37.502447" lon="-3.993812">
        <ele>1014.063</ele>
        <time>2020-05-21T11:34:34Z</time>
      </trkpt>
      <trkpt lat="37.502431" lon="-3.993786">
        <ele>1013.854</ele>
        <time>2020-05-21T11:34:37Z</time>
      </trkpt>
      <trkpt lat="37.502419" lon="-3.993762">
        <ele>1013.693</ele>
        <time>2020-05-21T11:34:39Z</time>
      </trkpt>
      <trkpt lat="37.502406" lon="-3.993742">
        <ele>1013.392</ele>
        <time>2020-05-21T11:34:42Z</time>
      </trkpt>
      <trkpt lat="37.502393" lon="-3.993721">
        <ele>1013.173</ele>
        <time>2020-05-21T11:34:44Z</time>
      </trkpt>
      <trkpt lat="37.502381" lon="-3.993703">
        <ele>1013.020</ele>
        <time>2020-05-21T11:34:46Z</time>
      </trkpt>
      <trkpt lat="37.502368" lon="-3.993684">
        <ele>1013.008</ele>
        <time>2020-05-21T11:34:48Z</time>
      </trkpt>
      <trkpt lat="37.502356" lon="-3.993664">
        <ele>1013.047</ele>
        <time>2020-05-21T11:34:51Z</time>
      </trkpt>
      <trkpt lat="37.502343" lon="-3.993643">
        <ele>1012.618</ele>
        <time>2020-05-21T11:34:53Z</time>
      </trkpt>
      <trkpt lat="37.502331" lon="-3.993623">
        <ele>1012.025</ele>
        <time>2020-05-21T11:34:55Z</time>
      </trkpt>
      <trkpt lat="37.502318" lon="-3.993604">
        <ele>1012.133</ele>
        <time>2020-05-21T11:34:58Z</time>
      </trkpt>
      <trkpt lat="37.502306" lon="-3.993584">
        <ele>1012.086</ele>
        <time>2020-05-21T11:35:00Z</time>
      </trkpt>
      <trkpt lat="37.502298" lon="-3.993561">
        <ele>1012.017</ele>
        <time>2020-05-21T11:35:02Z</time>
      </trkpt>
      <trkpt lat="37.502289" lon="-3.993542">
        <ele>1012.018</ele>
        <time>2020-05-21T11:35:04Z</time>
      </trkpt>
      <trkpt lat="37.502276" lon="-3.993521">
        <ele>1012.097</ele>
        <time>2020-05-21T11:35:07Z</time>
      </trkpt>
      <trkpt lat="37.502268" lon="-3.993498">
        <ele>1012.063</ele>
        <time>2020-05-21T11:35:09Z</time>
      </trkpt>
      <trkpt lat="37.502258" lon="-3.993478">
        <ele>1011.944</ele>
        <time>2020-05-21T11:35:11Z</time>
      </trkpt>
      <trkpt lat="37.502251" lon="-3.993457">
        <ele>1011.718</ele>
        <time>2020-05-21T11:35:13Z</time>
      </trkpt>
      <trkpt lat="37.502240" lon="-3.993436">
        <ele>1011.708</ele>
        <time>2020-05-21T11:35:15Z</time>
      </trkpt>
      <trkpt lat="37.502231" lon="-3.993414">
        <ele>1012.064</ele>
        <time>2020-05-21T11:35:18Z</time>
      </trkpt>
      <trkpt lat="37.502224" lon="-3.993392">
        <ele>1012.115</ele>
        <time>2020-05-21T11:35:20Z</time>
      </trkpt>
      <trkpt lat="37.502217" lon="-3.993371">
        <ele>1012.072</ele>
        <time>2020-05-21T11:35:22Z</time>
      </trkpt>
      <trkpt lat="37.502206" lon="-3.993351">
        <ele>1011.870</ele>
        <time>2020-05-21T11:35:24Z</time>
      </trkpt>
      <trkpt lat="37.502195" lon="-3.993330">
        <ele>1011.653</ele>
        <time>2020-05-21T11:35:26Z</time>
      </trkpt>
      <trkpt lat="37.502185" lon="-3.993310">
        <ele>1011.474</ele>
        <time>2020-05-21T11:35:28Z</time>
      </trkpt>
      <trkpt lat="37.502173" lon="-3.993289">
        <ele>1011.245</ele>
        <time>2020-05-21T11:35:31Z</time>
      </trkpt>
      <trkpt lat="37.502164" lon="-3.993269">
        <ele>1011.064</ele>
        <time>2020-05-21T11:35:33Z</time>
      </trkpt>
      <trkpt lat="37.502156" lon="-3.993246">
        <ele>1011.475</ele>
        <time>2020-05-21T11:35:35Z</time>
      </trkpt>
      <trkpt lat="37.502149" lon="-3.993222">
        <ele>1011.528</ele>
        <time>2020-05-21T11:35:38Z</time>
      </trkpt>
      <trkpt lat="37.502140" lon="-3.993200">
        <ele>1011.120</ele>
        <time>2020-05-21T11:35:40Z</time>
      </trkpt>
      <trkpt lat="37.502132" lon="-3.993179">
        <ele>1011.008</ele>
        <time>2020-05-21T11:35:42Z</time>
      </trkpt>
      <trkpt lat="37.502123" lon="-3.993157">
        <ele>1011.025</ele>
        <time>2020-05-21T11:35:44Z</time>
      </trkpt>
      <trkpt lat="37.502115" lon="-3.993137">
        <ele>1011.076</ele>
        <time>2020-05-21T11:35:46Z</time>
      </trkpt>
      <trkpt lat="37.502106" lon="-3.993116">
        <ele>1011.033</ele>
        <time>2020-05-21T11:35:48Z</time>
      </trkpt>
      <trkpt lat="37.502098" lon="-3.993094">
        <ele>1010.791</ele>
        <time>2020-05-21T11:35:51Z</time>
      </trkpt>
      <trkpt lat="37.502090" lon="-3.993071">
        <ele>1010.584</ele>
        <time>2020-05-21T11:35:53Z</time>
      </trkpt>
      <trkpt lat="37.502083" lon="-3.993049">
        <ele>1010.285</ele>
        <time>2020-05-21T11:35:55Z</time>
      </trkpt>
      <trkpt lat="37.502073" lon="-3.993029">
        <ele>1009.596</ele>
        <time>2020-05-21T11:35:57Z</time>
      </trkpt>
      <trkpt lat="37.502065" lon="-3.993007">
        <ele>1008.895</ele>
        <time>2020-05-21T11:36:00Z</time>
      </trkpt>
      <trkpt lat="37.502055" lon="-3.992986">
        <ele>1008.593</ele>
        <time>2020-05-21T11:36:02Z</time>
      </trkpt>
      <trkpt lat="37.502046" lon="-3.992965">
        <ele>1008.765</ele>
        <time>2020-05-21T11:36:04Z</time>
      </trkpt>
      <trkpt lat="37.502039" lon="-3.992945">
        <ele>1008.721</ele>
        <time>2020-05-21T11:36:06Z</time>
      </trkpt>
      <trkpt lat="37.502033" lon="-3.992924">
        <ele>1008.608</ele>
        <time>2020-05-21T11:36:08Z</time>
      </trkpt>
      <trkpt lat="37.502023" lon="-3.992904">
        <ele>1008.547</ele>
        <time>2020-05-21T11:36:10Z</time>
      </trkpt>
      <trkpt lat="37.502013" lon="-3.992881">
        <ele>1008.458</ele>
        <time>2020-05-21T11:36:12Z</time>
      </trkpt>
      <trkpt lat="37.502002" lon="-3.992860">
        <ele>1008.225</ele>
        <time>2020-05-21T11:36:15Z</time>
      </trkpt>
      <trkpt lat="37.501992" lon="-3.992840">
        <ele>1008.053</ele>
        <time>2020-05-21T11:36:17Z</time>
      </trkpt>
      <trkpt lat="37.501985" lon="-3.992819">
        <ele>1007.946</ele>
        <time>2020-05-21T11:36:19Z</time>
      </trkpt>
      <trkpt lat="37.501975" lon="-3.992796">
        <ele>1007.777</ele>
        <time>2020-05-21T11:36:21Z</time>
      </trkpt>
      <trkpt lat="37.501967" lon="-3.992777">
        <ele>1007.568</ele>
        <time>2020-05-21T11:36:23Z</time>
      </trkpt>
      <trkpt lat="37.501960" lon="-3.992757">
        <ele>1007.447</ele>
        <time>2020-05-21T11:36:25Z</time>
      </trkpt>
      <trkpt lat="37.501949" lon="-3.992742">
        <ele>1007.248</ele>
        <time>2020-05-21T11:36:27Z</time>
      </trkpt>
      <trkpt lat="37.501940" lon="-3.992724">
        <ele>1007.161</ele>
        <time>2020-05-21T11:36:29Z</time>
      </trkpt>
      <trkpt lat="37.501933" lon="-3.992704">
        <ele>1006.917</ele>
        <time>2020-05-21T11:36:31Z</time>
      </trkpt>
      <trkpt lat="37.501924" lon="-3.992684">
        <ele>1006.808</ele>
        <time>2020-05-21T11:36:33Z</time>
      </trkpt>
      <trkpt lat="37.501913" lon="-3.992664">
        <ele>1006.812</ele>
        <time>2020-05-21T11:36:35Z</time>
      </trkpt>
      <trkpt lat="37.501905" lon="-3.992645">
        <ele>1006.813</ele>
        <time>2020-05-21T11:36:37Z</time>
      </trkpt>
      <trkpt lat="37.501899" lon="-3.992623">
        <ele>1006.920</ele>
        <time>2020-05-21T11:36:39Z</time>
      </trkpt>
      <trkpt lat="37.501889" lon="-3.992602">
        <ele>1007.078</ele>
        <time>2020-05-21T11:36:42Z</time>
      </trkpt>
      <trkpt lat="37.501877" lon="-3.992583">
        <ele>1006.871</ele>
        <time>2020-05-21T11:36:44Z</time>
      </trkpt>
      <trkpt lat="37.501871" lon="-3.992562">
        <ele>1006.542</ele>
        <time>2020-05-21T11:36:46Z</time>
      </trkpt>
      <trkpt lat="37.501863" lon="-3.992539">
        <ele>1006.113</ele>
        <time>2020-05-21T11:36:48Z</time>
      </trkpt>
      <trkpt lat="37.501854" lon="-3.992521">
        <ele>1005.642</ele>
        <time>2020-05-21T11:36:50Z</time>
      </trkpt>
      <trkpt lat="37.501843" lon="-3.992500">
        <ele>1005.086</ele>
        <time>2020-05-21T11:36:52Z</time>
      </trkpt>
      <trkpt lat="37.501833" lon="-3.992480">
        <ele>1004.560</ele>
        <time>2020-05-21T11:36:55Z</time>
      </trkpt>
      <trkpt lat="37.501824" lon="-3.992459">
        <ele>1004.026</ele>
        <time>2020-05-21T11:36:57Z</time>
      </trkpt>
      <trkpt lat="37.501815" lon="-3.992443">
        <ele>1003.808</ele>
        <time>2020-05-21T11:36:59Z</time>
      </trkpt>
      <trkpt lat="37.501804" lon="-3.992423">
        <ele>1003.756</ele>
        <time>2020-05-21T11:37:01Z</time>
      </trkpt>
      <trkpt lat="37.501795" lon="-3.992404">
        <ele>1003.657</ele>
        <time>2020-05-21T11:37:03Z</time>
      </trkpt>
      <trkpt lat="37.501784" lon="-3.992388">
        <ele>1003.524</ele>
        <time>2020-05-21T11:37:05Z</time>
      </trkpt>
      <trkpt lat="37.501772" lon="-3.992369">
        <ele>1003.242</ele>
        <time>2020-05-21T11:37:07Z</time>
      </trkpt>
      <trkpt lat="37.501762" lon="-3.992350">
        <ele>1003.285</ele>
        <time>2020-05-21T11:37:09Z</time>
      </trkpt>
      <trkpt lat="37.501753" lon="-3.992331">
        <ele>1003.346</ele>
        <time>2020-05-21T11:37:11Z</time>
      </trkpt>
      <trkpt lat="37.501742" lon="-3.992312">
        <ele>1003.137</ele>
        <time>2020-05-21T11:37:13Z</time>
      </trkpt>
      <trkpt lat="37.501735" lon="-3.992292">
        <ele>1002.936</ele>
        <time>2020-05-21T11:37:15Z</time>
      </trkpt>
      <trkpt lat="37.501726" lon="-3.992274">
        <ele>1002.592</ele>
        <time>2020-05-21T11:37:17Z</time>
      </trkpt>
      <trkpt lat="37.501717" lon="-3.992257">
        <ele>1002.273</ele>
        <time>2020-05-21T11:37:19Z</time>
      </trkpt>
      <trkpt lat="37.501703" lon="-3.992241">
        <ele>1001.920</ele>
        <time>2020-05-21T11:37:21Z</time>
      </trkpt>
      <trkpt lat="37.501694" lon="-3.992227">
        <ele>1001.808</ele>
        <time>2020-05-21T11:37:23Z</time>
      </trkpt>
      <trkpt lat="37.501684" lon="-3.992207">
        <ele>1001.837</ele>
        <time>2020-05-21T11:37:25Z</time>
      </trkpt>
      <trkpt lat="37.501677" lon="-3.992187">
        <ele>1001.828</ele>
        <time>2020-05-21T11:37:27Z</time>
      </trkpt>
      <trkpt lat="37.501668" lon="-3.992167">
        <ele>1001.965</ele>
        <time>2020-05-21T11:37:29Z</time>
      </trkpt>
      <trkpt lat="37.501656" lon="-3.992151">
        <ele>1001.863</ele>
        <time>2020-05-21T11:37:31Z</time>
      </trkpt>
      <trkpt lat="37.501645" lon="-3.992132">
        <ele>1001.956</ele>
        <time>2020-05-21T11:37:33Z</time>
      </trkpt>
      <trkpt lat="37.501637" lon="-3.992115">
        <ele>1001.937</ele>
        <time>2020-05-21T11:37:35Z</time>
      </trkpt>
      <trkpt lat="37.501624" lon="-3.992099">
        <ele>1001.878</ele>
        <time>2020-05-21T11:37:37Z</time>
      </trkpt>
      <trkpt lat="37.501609" lon="-3.992083">
        <ele>1001.677</ele>
        <time>2020-05-21T11:37:39Z</time>
      </trkpt>
      <trkpt lat="37.501597" lon="-3.992068">
        <ele>1001.678</ele>
        <time>2020-05-21T11:37:41Z</time>
      </trkpt>
      <trkpt lat="37.501587" lon="-3.992052">
        <ele>1001.433</ele>
        <time>2020-05-21T11:37:43Z</time>
      </trkpt>
      <trkpt lat="37.501575" lon="-3.992034">
        <ele>1000.826</ele>
        <time>2020-05-21T11:37:45Z</time>
      </trkpt>
      <trkpt lat="37.501565" lon="-3.992017">
        <ele>1000.208</ele>
        <time>2020-05-21T11:37:47Z</time>
      </trkpt>
      <trkpt lat="37.501551" lon="-3.992001">
        <ele>999.575</ele>
        <time>2020-05-21T11:37:49Z</time>
      </trkpt>
      <trkpt lat="37.501537" lon="-3.991985">
        <ele>998.876</ele>
        <time>2020-05-21T11:37:52Z</time>
      </trkpt>
      <trkpt lat="37.501525" lon="-3.991969">
        <ele>998.483</ele>
        <time>2020-05-21T11:37:54Z</time>
      </trkpt>
      <trkpt lat="37.501512" lon="-3.991953">
        <ele>998.081</ele>
        <time>2020-05-21T11:37:56Z</time>
      </trkpt>
      <trkpt lat="37.501502" lon="-3.991938">
        <ele>997.974</ele>
        <time>2020-05-21T11:37:58Z</time>
      </trkpt>
      <trkpt lat="37.501490" lon="-3.991920">
        <ele>998.015</ele>
        <time>2020-05-21T11:38:00Z</time>
      </trkpt>
      <trkpt lat="37.501481" lon="-3.991904">
        <ele>997.896</ele>
        <time>2020-05-21T11:38:02Z</time>
      </trkpt>
      <trkpt lat="37.501469" lon="-3.991889">
        <ele>997.445</ele>
        <time>2020-05-21T11:38:04Z</time>
      </trkpt>
      <trkpt lat="37.501456" lon="-3.991869">
        <ele>997.092</ele>
        <time>2020-05-21T11:38:06Z</time>
      </trkpt>
      <trkpt lat="37.501443" lon="-3.991853">
        <ele>996.873</ele>
        <time>2020-05-21T11:38:08Z</time>
      </trkpt>
      <trkpt lat="37.501431" lon="-3.991834">
        <ele>996.820</ele>
        <time>2020-05-21T11:38:10Z</time>
      </trkpt>
      <trkpt lat="37.501420" lon="-3.991818">
        <ele>996.808</ele>
        <time>2020-05-21T11:38:12Z</time>
      </trkpt>
      <trkpt lat="37.501410" lon="-3.991800">
        <ele>996.787</ele>
        <time>2020-05-21T11:38:14Z</time>
      </trkpt>
      <trkpt lat="37.501397" lon="-3.991781">
        <ele>996.458</ele>
        <time>2020-05-21T11:38:16Z</time>
      </trkpt>
      <trkpt lat="37.501384" lon="-3.991764">
        <ele>996.235</ele>
        <time>2020-05-21T11:38:19Z</time>
      </trkpt>
      <trkpt lat="37.501372" lon="-3.991747">
        <ele>996.053</ele>
        <time>2020-05-21T11:38:21Z</time>
      </trkpt>
      <trkpt lat="37.501357" lon="-3.991732">
        <ele>995.436</ele>
        <time>2020-05-21T11:38:23Z</time>
      </trkpt>
      <trkpt lat="37.501341" lon="-3.991714">
        <ele>994.937</ele>
        <time>2020-05-21T11:38:25Z</time>
      </trkpt>
      <trkpt lat="37.501329" lon="-3.991698">
        <ele>994.428</ele>
        <time>2020-05-21T11:38:27Z</time>
      </trkpt>
      <trkpt lat="37.501319" lon="-3.991682">
        <ele>994.127</ele>
        <time>2020-05-21T11:38:29Z</time>
      </trkpt>
      <trkpt lat="37.501310" lon="-3.991663">
        <ele>993.926</ele>
        <time>2020-05-21T11:38:31Z</time>
      </trkpt>
      <trkpt lat="37.501298" lon="-3.991646">
        <ele>993.747</ele>
        <time>2020-05-21T11:38:33Z</time>
      </trkpt>
      <trkpt lat="37.501286" lon="-3.991632">
        <ele>993.511</ele>
        <time>2020-05-21T11:38:35Z</time>
      </trkpt>
      <trkpt lat="37.501275" lon="-3.991613">
        <ele>993.308</ele>
        <time>2020-05-21T11:38:37Z</time>
      </trkpt>
      <trkpt lat="37.501262" lon="-3.991592">
        <ele>993.050</ele>
        <time>2020-05-21T11:38:40Z</time>
      </trkpt>
      <trkpt lat="37.501247" lon="-3.991577">
        <ele>992.851</ele>
        <time>2020-05-21T11:38:42Z</time>
      </trkpt>
      <trkpt lat="37.501233" lon="-3.991561">
        <ele>992.598</ele>
        <time>2020-05-21T11:38:44Z</time>
      </trkpt>
      <trkpt lat="37.501217" lon="-3.991544">
        <ele>992.286</ele>
        <time>2020-05-21T11:38:47Z</time>
      </trkpt>
      <trkpt lat="37.501202" lon="-3.991524">
        <ele>992.029</ele>
        <time>2020-05-21T11:38:49Z</time>
      </trkpt>
      <trkpt lat="37.501189" lon="-3.991504">
        <ele>991.730</ele>
        <time>2020-05-21T11:38:51Z</time>
      </trkpt>
      <trkpt lat="37.501175" lon="-3.991486">
        <ele>991.581</ele>
        <time>2020-05-21T11:38:54Z</time>
      </trkpt>
      <trkpt lat="37.501158" lon="-3.991466">
        <ele>991.260</ele>
        <time>2020-05-21T11:38:56Z</time>
      </trkpt>
      <trkpt lat="37.501142" lon="-3.991447">
        <ele>990.864</ele>
        <time>2020-05-21T11:38:59Z</time>
      </trkpt>
      <trkpt lat="37.501126" lon="-3.991429">
        <ele>990.206</ele>
        <time>2020-05-21T11:39:01Z</time>
      </trkpt>
      <trkpt lat="37.501108" lon="-3.991413">
        <ele>989.616</ele>
        <time>2020-05-21T11:39:04Z</time>
      </trkpt>
      <trkpt lat="37.501091" lon="-3.991396">
        <ele>989.008</ele>
        <time>2020-05-21T11:39:07Z</time>
      </trkpt>
      <trkpt lat="37.501073" lon="-3.991380">
        <ele>988.714</ele>
        <time>2020-05-21T11:39:09Z</time>
      </trkpt>
      <trkpt lat="37.501056" lon="-3.991364">
        <ele>988.425</ele>
        <time>2020-05-21T11:39:11Z</time>
      </trkpt>
      <trkpt lat="37.501041" lon="-3.991347">
        <ele>988.182</ele>
        <time>2020-05-21T11:39:14Z</time>
      </trkpt>
      <trkpt lat="37.501025" lon="-3.991332">
        <ele>988.020</ele>
        <time>2020-05-21T11:39:16Z</time>
      </trkpt>
      <trkpt lat="37.501006" lon="-3.991316">
        <ele>988.193</ele>
        <time>2020-05-21T11:39:19Z</time>
      </trkpt>
      <trkpt lat="37.500985" lon="-3.991306">
        <ele>988.114</ele>
        <time>2020-05-21T11:39:21Z</time>
      </trkpt>
      <trkpt lat="37.500962" lon="-3.991295">
        <ele>988.015</ele>
        <time>2020-05-21T11:39:24Z</time>
      </trkpt>
      <trkpt lat="37.500943" lon="-3.991285">
        <ele>988.064</ele>
        <time>2020-05-21T11:39:26Z</time>
      </trkpt>
      <trkpt lat="37.500923" lon="-3.991271">
        <ele>988.011</ele>
        <time>2020-05-21T11:39:29Z</time>
      </trkpt>
      <trkpt lat="37.500904" lon="-3.991256">
        <ele>987.721</ele>
        <time>2020-05-21T11:39:32Z</time>
      </trkpt>
      <trkpt lat="37.500885" lon="-3.991243">
        <ele>987.303</ele>
        <time>2020-05-21T11:39:34Z</time>
      </trkpt>
      <trkpt lat="37.500864" lon="-3.991231">
        <ele>987.008</ele>
        <time>2020-05-21T11:39:37Z</time>
      </trkpt>
      <trkpt lat="37.500844" lon="-3.991220">
        <ele>986.659</ele>
        <time>2020-05-21T11:39:39Z</time>
      </trkpt>
      <trkpt lat="37.500826" lon="-3.991204">
        <ele>986.380</ele>
        <time>2020-05-21T11:39:42Z</time>
      </trkpt>
      <trkpt lat="37.500807" lon="-3.991191">
        <ele>986.077</ele>
        <time>2020-05-21T11:39:44Z</time>
      </trkpt>
      <trkpt lat="37.500789" lon="-3.991179">
        <ele>986.085</ele>
        <time>2020-05-21T11:39:47Z</time>
      </trkpt>
      <trkpt lat="37.500770" lon="-3.991166">
        <ele>986.038</ele>
        <time>2020-05-21T11:39:49Z</time>
      </trkpt>
      <trkpt lat="37.500749" lon="-3.991155">
        <ele>986.029</ele>
        <time>2020-05-21T11:39:52Z</time>
      </trkpt>
      <trkpt lat="37.500728" lon="-3.991144">
        <ele>986.010</ele>
        <time>2020-05-21T11:39:54Z</time>
      </trkpt>
      <trkpt lat="37.500708" lon="-3.991132">
        <ele>985.739</ele>
        <time>2020-05-21T11:39:57Z</time>
      </trkpt>
      <trkpt lat="37.500687" lon="-3.991117">
        <ele>985.278</ele>
        <time>2020-05-21T11:40:00Z</time>
      </trkpt>
      <trkpt lat="37.500667" lon="-3.991102">
        <ele>985.033</ele>
        <time>2020-05-21T11:40:02Z</time>
      </trkpt>
      <trkpt lat="37.500649" lon="-3.991088">
        <ele>985.026</ele>
        <time>2020-05-21T11:40:05Z</time>
      </trkpt>
      <trkpt lat="37.500627" lon="-3.991075">
        <ele>984.808</ele>
        <time>2020-05-21T11:40:07Z</time>
      </trkpt>
      <trkpt lat="37.500607" lon="-3.991061">
        <ele>984.465</ele>
        <time>2020-05-21T11:40:10Z</time>
      </trkpt>
      <trkpt lat="37.500588" lon="-3.991049">
        <ele>984.016</ele>
        <time>2020-05-21T11:40:12Z</time>
      </trkpt>
      <trkpt lat="37.500567" lon="-3.991041">
        <ele>983.913</ele>
        <time>2020-05-21T11:40:15Z</time>
      </trkpt>
      <trkpt lat="37.500548" lon="-3.991031">
        <ele>983.691</ele>
        <time>2020-05-21T11:40:17Z</time>
      </trkpt>
      <trkpt lat="37.500527" lon="-3.991018">
        <ele>983.174</ele>
        <time>2020-05-21T11:40:20Z</time>
      </trkpt>
      <trkpt lat="37.500506" lon="-3.991008">
        <ele>983.055</ele>
        <time>2020-05-21T11:40:23Z</time>
      </trkpt>
      <trkpt lat="37.500486" lon="-3.990999">
        <ele>983.026</ele>
        <time>2020-05-21T11:40:25Z</time>
      </trkpt>
      <trkpt lat="37.500466" lon="-3.990984">
        <ele>983.055</ele>
        <time>2020-05-21T11:40:28Z</time>
      </trkpt>
      <trkpt lat="37.500447" lon="-3.990967">
        <ele>983.015</ele>
        <time>2020-05-21T11:40:30Z</time>
      </trkpt>
      <trkpt lat="37.500429" lon="-3.990952">
        <ele>983.065</ele>
        <time>2020-05-21T11:40:33Z</time>
      </trkpt>
      <trkpt lat="37.500409" lon="-3.990938">
        <ele>982.911</ele>
        <time>2020-05-21T11:40:35Z</time>
      </trkpt>
      <trkpt lat="37.500390" lon="-3.990923">
        <ele>982.508</ele>
        <time>2020-05-21T11:40:38Z</time>
      </trkpt>
      <trkpt lat="37.500371" lon="-3.990905">
        <ele>982.169</ele>
        <time>2020-05-21T11:40:41Z</time>
      </trkpt>
      <trkpt lat="37.500352" lon="-3.990893">
        <ele>982.090</ele>
        <time>2020-05-21T11:40:43Z</time>
      </trkpt>
      <trkpt lat="37.500332" lon="-3.990881">
        <ele>982.077</ele>
        <time>2020-05-21T11:40:46Z</time>
      </trkpt>
      <trkpt lat="37.500312" lon="-3.990865">
        <ele>981.765</ele>
        <time>2020-05-21T11:40:48Z</time>
      </trkpt>
      <trkpt lat="37.500292" lon="-3.990852">
        <ele>981.388</ele>
        <time>2020-05-21T11:40:51Z</time>
      </trkpt>
      <trkpt lat="37.500271" lon="-3.990840">
        <ele>981.199</ele>
        <time>2020-05-21T11:40:54Z</time>
      </trkpt>
      <trkpt lat="37.500250" lon="-3.990827">
        <ele>981.050</ele>
        <time>2020-05-21T11:40:56Z</time>
      </trkpt>
      <trkpt lat="37.500228" lon="-3.990812">
        <ele>980.899</ele>
        <time>2020-05-21T11:40:59Z</time>
      </trkpt>
      <trkpt lat="37.500205" lon="-3.990798">
        <ele>980.421</ele>
        <time>2020-05-21T11:41:02Z</time>
      </trkpt>
      <trkpt lat="37.500185" lon="-3.990784">
        <ele>980.041</ele>
        <time>2020-05-21T11:41:05Z</time>
      </trkpt>
      <trkpt lat="37.500167" lon="-3.990769">
        <ele>980.005</ele>
        <time>2020-05-21T11:41:07Z</time>
      </trkpt>
      <trkpt lat="37.500151" lon="-3.990755">
        <ele>980.008</ele>
        <time>2020-05-21T11:41:09Z</time>
      </trkpt>
      <trkpt lat="37.500134" lon="-3.990739">
        <ele>980.010</ele>
        <time>2020-05-21T11:41:12Z</time>
      </trkpt>
      <trkpt lat="37.500115" lon="-3.990720">
        <ele>980.051</ele>
        <time>2020-05-21T11:41:15Z</time>
      </trkpt>
      <trkpt lat="37.500096" lon="-3.990703">
        <ele>980.048</ele>
        <time>2020-05-21T11:41:17Z</time>
      </trkpt>
      <trkpt lat="37.500078" lon="-3.990688">
        <ele>979.846</ele>
        <time>2020-05-21T11:41:20Z</time>
      </trkpt>
      <trkpt lat="37.500057" lon="-3.990676">
        <ele>979.539</ele>
        <time>2020-05-21T11:41:22Z</time>
      </trkpt>
      <trkpt lat="37.500037" lon="-3.990663">
        <ele>979.220</ele>
        <time>2020-05-21T11:41:25Z</time>
      </trkpt>
      <trkpt lat="37.500016" lon="-3.990647">
        <ele>979.011</ele>
        <time>2020-05-21T11:41:28Z</time>
      </trkpt>
      <trkpt lat="37.499998" lon="-3.990633">
        <ele>979.080</ele>
        <time>2020-05-21T11:41:30Z</time>
      </trkpt>
      <trkpt lat="37.499980" lon="-3.990618">
        <ele>979.047</ele>
        <time>2020-05-21T11:41:33Z</time>
      </trkpt>
      <trkpt lat="37.499962" lon="-3.990600">
        <ele>978.829</ele>
        <time>2020-05-21T11:41:35Z</time>
      </trkpt>
      <trkpt lat="37.499944" lon="-3.990583">
        <ele>978.721</ele>
        <time>2020-05-21T11:41:38Z</time>
      </trkpt>
      <trkpt lat="37.499928" lon="-3.990565">
        <ele>978.708</ele>
        <time>2020-05-21T11:41:40Z</time>
      </trkpt>
      <trkpt lat="37.499911" lon="-3.990544">
        <ele>978.692</ele>
        <time>2020-05-21T11:41:43Z</time>
      </trkpt>
      <trkpt lat="37.499895" lon="-3.990526">
        <ele>978.213</ele>
        <time>2020-05-21T11:41:45Z</time>
      </trkpt>
      <trkpt lat="37.499879" lon="-3.990505">
        <ele>977.980</ele>
        <time>2020-05-21T11:41:48Z</time>
      </trkpt>
      <trkpt lat="37.499861" lon="-3.990488">
        <ele>977.988</ele>
        <time>2020-05-21T11:41:51Z</time>
      </trkpt>
      <trkpt lat="37.499843" lon="-3.990474">
        <ele>978.041</ele>
        <time>2020-05-21T11:41:53Z</time>
      </trkpt>
      <trkpt lat="37.499824" lon="-3.990455">
        <ele>977.682</ele>
        <time>2020-05-21T11:41:56Z</time>
      </trkpt>
      <trkpt lat="37.499808" lon="-3.990435">
        <ele>977.233</ele>
        <time>2020-05-21T11:41:58Z</time>
      </trkpt>
      <trkpt lat="37.499792" lon="-3.990415">
        <ele>977.042</ele>
        <time>2020-05-21T11:42:01Z</time>
      </trkpt>
      <trkpt lat="37.499775" lon="-3.990397">
        <ele>977.074</ele>
        <time>2020-05-21T11:42:04Z</time>
      </trkpt>
      <trkpt lat="37.499761" lon="-3.990380">
        <ele>977.056</ele>
        <time>2020-05-21T11:42:06Z</time>
      </trkpt>
      <trkpt lat="37.499745" lon="-3.990359">
        <ele>977.021</ele>
        <time>2020-05-21T11:42:08Z</time>
      </trkpt>
      <trkpt lat="37.499731" lon="-3.990339">
        <ele>977.008</ele>
        <time>2020-05-21T11:42:11Z</time>
      </trkpt>
      <trkpt lat="37.499716" lon="-3.990316">
        <ele>976.565</ele>
        <time>2020-05-21T11:42:13Z</time>
      </trkpt>
      <trkpt lat="37.499701" lon="-3.990298">
        <ele>976.156</ele>
        <time>2020-05-21T11:42:16Z</time>
      </trkpt>
      <trkpt lat="37.499684" lon="-3.990279">
        <ele>975.773</ele>
        <time>2020-05-21T11:42:19Z</time>
      </trkpt>
      <trkpt lat="37.499666" lon="-3.990262">
        <ele>975.751</ele>
        <time>2020-05-21T11:42:21Z</time>
      </trkpt>
      <trkpt lat="37.499649" lon="-3.990241">
        <ele>975.564</ele>
        <time>2020-05-21T11:42:24Z</time>
      </trkpt>
      <trkpt lat="37.499632" lon="-3.990221">
        <ele>975.465</ele>
        <time>2020-05-21T11:42:26Z</time>
      </trkpt>
      <trkpt lat="37.499617" lon="-3.990201">
        <ele>975.066</ele>
        <time>2020-05-21T11:42:29Z</time>
      </trkpt>
      <trkpt lat="37.499601" lon="-3.990180">
        <ele>975.095</ele>
        <time>2020-05-21T11:42:32Z</time>
      </trkpt>
      <trkpt lat="37.499586" lon="-3.990159">
        <ele>975.075</ele>
        <time>2020-05-21T11:42:34Z</time>
      </trkpt>
      <trkpt lat="37.499572" lon="-3.990140">
        <ele>975.028</ele>
        <time>2020-05-21T11:42:36Z</time>
      </trkpt>
      <trkpt lat="37.499556" lon="-3.990120">
        <ele>975.120</ele>
        <time>2020-05-21T11:42:39Z</time>
      </trkpt>
      <trkpt lat="37.499543" lon="-3.990100">
        <ele>974.808</ele>
        <time>2020-05-21T11:42:41Z</time>
      </trkpt>
      <trkpt lat="37.499527" lon="-3.990080">
        <ele>974.325</ele>
        <time>2020-05-21T11:42:44Z</time>
      </trkpt>
      <trkpt lat="37.499511" lon="-3.990060">
        <ele>973.996</ele>
        <time>2020-05-21T11:42:47Z</time>
      </trkpt>
      <trkpt lat="37.499493" lon="-3.990042">
        <ele>973.943</ele>
        <time>2020-05-21T11:42:49Z</time>
      </trkpt>
      <trkpt lat="37.499478" lon="-3.990024">
        <ele>973.711</ele>
        <time>2020-05-21T11:42:52Z</time>
      </trkpt>
      <trkpt lat="37.499462" lon="-3.990006">
        <ele>973.654</ele>
        <time>2020-05-21T11:42:54Z</time>
      </trkpt>
      <trkpt lat="37.499450" lon="-3.989990">
        <ele>973.425</ele>
        <time>2020-05-21T11:42:56Z</time>
      </trkpt>
      <trkpt lat="37.499436" lon="-3.989973">
        <ele>973.486</ele>
        <time>2020-05-21T11:42:58Z</time>
      </trkpt>
      <trkpt lat="37.499422" lon="-3.989954">
        <ele>973.635</ele>
        <time>2020-05-21T11:43:01Z</time>
      </trkpt>
      <trkpt lat="37.499409" lon="-3.989936">
        <ele>973.987</ele>
        <time>2020-05-21T11:43:03Z</time>
      </trkpt>
      <trkpt lat="37.499394" lon="-3.989920">
        <ele>973.842</ele>
        <time>2020-05-21T11:43:05Z</time>
      </trkpt>
      <trkpt lat="37.499377" lon="-3.989906">
        <ele>973.526</ele>
        <time>2020-05-21T11:43:07Z</time>
      </trkpt>
      <trkpt lat="37.499361" lon="-3.989891">
        <ele>973.108</ele>
        <time>2020-05-21T11:43:10Z</time>
      </trkpt>
      <trkpt lat="37.499346" lon="-3.989873">
        <ele>972.756</ele>
        <time>2020-05-21T11:43:12Z</time>
      </trkpt>
      <trkpt lat="37.499332" lon="-3.989857">
        <ele>972.427</ele>
        <time>2020-05-21T11:43:14Z</time>
      </trkpt>
      <trkpt lat="37.499316" lon="-3.989842">
        <ele>972.054</ele>
        <time>2020-05-21T11:43:17Z</time>
      </trkpt>
      <trkpt lat="37.499299" lon="-3.989826">
        <ele>971.932</ele>
        <time>2020-05-21T11:43:19Z</time>
      </trkpt>
      <trkpt lat="37.499286" lon="-3.989813">
        <ele>972.055</ele>
        <time>2020-05-21T11:43:21Z</time>
      </trkpt>
      <trkpt lat="37.499272" lon="-3.989801">
        <ele>972.066</ele>
        <time>2020-05-21T11:43:23Z</time>
      </trkpt>
      <trkpt lat="37.499261" lon="-3.989786">
        <ele>971.897</ele>
        <time>2020-05-21T11:43:25Z</time>
      </trkpt>
      <trkpt lat="37.499252" lon="-3.989771">
        <ele>971.526</ele>
        <time>2020-05-21T11:43:26Z</time>
      </trkpt>
      <trkpt lat="37.499243" lon="-3.989759">
        <ele>971.213</ele>
        <time>2020-05-21T11:43:28Z</time>
      </trkpt>
      <trkpt lat="37.499229" lon="-3.989745">
        <ele>971.043</ele>
        <time>2020-05-21T11:43:30Z</time>
      </trkpt>
      <trkpt lat="37.499215" lon="-3.989732">
        <ele>971.007</ele>
        <time>2020-05-21T11:43:32Z</time>
      </trkpt>
      <trkpt lat="37.499202" lon="-3.989718">
        <ele>971.008</ele>
        <time>2020-05-21T11:43:34Z</time>
      </trkpt>
      <trkpt lat="37.499188" lon="-3.989703">
        <ele>971.069</ele>
        <time>2020-05-21T11:43:36Z</time>
      </trkpt>
      <trkpt lat="37.499177" lon="-3.989686">
        <ele>970.680</ele>
        <time>2020-05-21T11:43:38Z</time>
      </trkpt>
      <trkpt lat="37.499165" lon="-3.989669">
        <ele>970.297</ele>
        <time>2020-05-21T11:43:40Z</time>
      </trkpt>
      <trkpt lat="37.499154" lon="-3.989654">
        <ele>969.965</ele>
        <time>2020-05-21T11:43:42Z</time>
      </trkpt>
      <trkpt lat="37.499145" lon="-3.989635">
        <ele>969.818</ele>
        <time>2020-05-21T11:43:44Z</time>
      </trkpt>
      <trkpt lat="37.499137" lon="-3.989619">
        <ele>969.759</ele>
        <time>2020-05-21T11:43:46Z</time>
      </trkpt>
      <trkpt lat="37.499127" lon="-3.989603">
        <ele>969.620</ele>
        <time>2020-05-21T11:43:47Z</time>
      </trkpt>
      <trkpt lat="37.499116" lon="-3.989586">
        <ele>969.419</ele>
        <time>2020-05-21T11:43:50Z</time>
      </trkpt>
      <trkpt lat="37.499109" lon="-3.989570">
        <ele>969.017</ele>
        <time>2020-05-21T11:43:51Z</time>
      </trkpt>
      <trkpt lat="37.499102" lon="-3.989552">
        <ele>968.687</ele>
        <time>2020-05-21T11:43:53Z</time>
      </trkpt>
      <trkpt lat="37.499094" lon="-3.989536">
        <ele>968.315</ele>
        <time>2020-05-21T11:43:55Z</time>
      </trkpt>
      <trkpt lat="37.499085" lon="-3.989520">
        <ele>968.008</ele>
        <time>2020-05-21T11:43:57Z</time>
      </trkpt>
      <trkpt lat="37.499077" lon="-3.989502">
        <ele>968.039</ele>
        <time>2020-05-21T11:43:58Z</time>
      </trkpt>
      <trkpt lat="37.499069" lon="-3.989484">
        <ele>968.080</ele>
        <time>2020-05-21T11:44:00Z</time>
      </trkpt>
      <trkpt lat="37.499060" lon="-3.989467">
        <ele>968.167</ele>
        <time>2020-05-21T11:44:02Z</time>
      </trkpt>
      <trkpt lat="37.499052" lon="-3.989450">
        <ele>968.165</ele>
        <time>2020-05-21T11:44:04Z</time>
      </trkpt>
      <trkpt lat="37.499044" lon="-3.989433">
        <ele>968.088</ele>
        <time>2020-05-21T11:44:06Z</time>
      </trkpt>
      <trkpt lat="37.499036" lon="-3.989419">
        <ele>967.849</ele>
        <time>2020-05-21T11:44:07Z</time>
      </trkpt>
      <trkpt lat="37.499028" lon="-3.989403">
        <ele>967.760</ele>
        <time>2020-05-21T11:44:09Z</time>
      </trkpt>
      <trkpt lat="37.499022" lon="-3.989386">
        <ele>967.769</ele>
        <time>2020-05-21T11:44:11Z</time>
      </trkpt>
      <trkpt lat="37.499016" lon="-3.989373">
        <ele>967.598</ele>
        <time>2020-05-21T11:44:12Z</time>
      </trkpt>
      <trkpt lat="37.499008" lon="-3.989355">
        <ele>967.215</ele>
        <time>2020-05-21T11:44:14Z</time>
      </trkpt>
      <trkpt lat="37.498996" lon="-3.989339">
        <ele>967.126</ele>
        <time>2020-05-21T11:44:16Z</time>
      </trkpt>
      <trkpt lat="37.498989" lon="-3.989327">
        <ele>967.008</ele>
        <time>2020-05-21T11:44:17Z</time>
      </trkpt>
      <trkpt lat="37.498984" lon="-3.989310">
        <ele>966.737</ele>
        <time>2020-05-21T11:44:19Z</time>
      </trkpt>
      <trkpt lat="37.498976" lon="-3.989294">
        <ele>966.678</ele>
        <time>2020-05-21T11:44:21Z</time>
      </trkpt>
      <trkpt lat="37.498969" lon="-3.989279">
        <ele>966.715</ele>
        <time>2020-05-21T11:44:22Z</time>
      </trkpt>
      <trkpt lat="37.498964" lon="-3.989264">
        <ele>966.843</ele>
        <time>2020-05-21T11:44:24Z</time>
      </trkpt>
      <trkpt lat="37.498955" lon="-3.989249">
        <ele>966.886</ele>
        <time>2020-05-21T11:44:25Z</time>
      </trkpt>
      <trkpt lat="37.498946" lon="-3.989232">
        <ele>966.677</ele>
        <time>2020-05-21T11:44:27Z</time>
      </trkpt>
      <trkpt lat="37.498938" lon="-3.989216">
        <ele>966.438</ele>
        <time>2020-05-21T11:44:29Z</time>
      </trkpt>
      <trkpt lat="37.498930" lon="-3.989201">
        <ele>966.277</ele>
        <time>2020-05-21T11:44:31Z</time>
      </trkpt>
      <trkpt lat="37.498920" lon="-3.989185">
        <ele>966.025</ele>
        <time>2020-05-21T11:44:33Z</time>
      </trkpt>
      <trkpt lat="37.498912" lon="-3.989170">
        <ele>965.826</ele>
        <time>2020-05-21T11:44:34Z</time>
      </trkpt>
      <trkpt lat="37.498903" lon="-3.989155">
        <ele>965.608</ele>
        <time>2020-05-21T11:44:36Z</time>
      </trkpt>
      <trkpt lat="37.498895" lon="-3.989141">
        <ele>965.508</ele>
        <time>2020-05-21T11:44:37Z</time>
      </trkpt>
      <trkpt lat="37.498887" lon="-3.989126">
        <ele>965.240</ele>
        <time>2020-05-21T11:44:39Z</time>
      </trkpt>
      <trkpt lat="37.498876" lon="-3.989111">
        <ele>965.081</ele>
        <time>2020-05-21T11:44:41Z</time>
      </trkpt>
      <trkpt lat="37.498866" lon="-3.989097">
        <ele>965.098</ele>
        <time>2020-05-21T11:44:43Z</time>
      </trkpt>
      <trkpt lat="37.498857" lon="-3.989084">
        <ele>965.076</ele>
        <time>2020-05-21T11:44:44Z</time>
      </trkpt>
      <trkpt lat="37.498849" lon="-3.989073">
        <ele>965.049</ele>
        <time>2020-05-21T11:44:46Z</time>
      </trkpt>
      <trkpt lat="37.498838" lon="-3.989058">
        <ele>964.790</ele>
        <time>2020-05-21T11:44:47Z</time>
      </trkpt>
      <trkpt lat="37.498828" lon="-3.989045">
        <ele>964.431</ele>
        <time>2020-05-21T11:44:49Z</time>
      </trkpt>
      <trkpt lat="37.498820" lon="-3.989032">
        <ele>964.110</ele>
        <time>2020-05-21T11:44:51Z</time>
      </trkpt>
      <trkpt lat="37.498807" lon="-3.989018">
        <ele>963.987</ele>
        <time>2020-05-21T11:44:53Z</time>
      </trkpt>
      <trkpt lat="37.498795" lon="-3.989005">
        <ele>963.942</ele>
        <time>2020-05-21T11:44:54Z</time>
      </trkpt>
      <trkpt lat="37.498784" lon="-3.988994">
        <ele>964.026</ele>
        <time>2020-05-21T11:44:56Z</time>
      </trkpt>
      <trkpt lat="37.498774" lon="-3.988980">
        <ele>963.908</ele>
        <time>2020-05-21T11:44:58Z</time>
      </trkpt>
      <trkpt lat="37.498770" lon="-3.988966">
        <ele>963.626</ele>
        <time>2020-05-21T11:44:59Z</time>
      </trkpt>
      <trkpt lat="37.498765" lon="-3.988948">
        <ele>963.247</ele>
        <time>2020-05-21T11:45:01Z</time>
      </trkpt>
      <trkpt lat="37.498756" lon="-3.988933">
        <ele>962.814</ele>
        <time>2020-05-21T11:45:03Z</time>
      </trkpt>
      <trkpt lat="37.498745" lon="-3.988919">
        <ele>962.422</ele>
        <time>2020-05-21T11:45:04Z</time>
      </trkpt>
      <trkpt lat="37.498734" lon="-3.988907">
        <ele>962.235</ele>
        <time>2020-05-21T11:45:06Z</time>
      </trkpt>
      <trkpt lat="37.498723" lon="-3.988893">
        <ele>962.056</ele>
        <time>2020-05-21T11:45:08Z</time>
      </trkpt>
      <trkpt lat="37.498713" lon="-3.988879">
        <ele>962.077</ele>
        <time>2020-05-21T11:45:10Z</time>
      </trkpt>
      <trkpt lat="37.498702" lon="-3.988866">
        <ele>962.086</ele>
        <time>2020-05-21T11:45:11Z</time>
      </trkpt>
      <trkpt lat="37.498692" lon="-3.988853">
        <ele>962.026</ele>
        <time>2020-05-21T11:45:13Z</time>
      </trkpt>
      <trkpt lat="37.498681" lon="-3.988841">
        <ele>962.047</ele>
        <time>2020-05-21T11:45:15Z</time>
      </trkpt>
      <trkpt lat="37.498669" lon="-3.988830">
        <ele>962.011</ele>
        <time>2020-05-21T11:45:16Z</time>
      </trkpt>
      <trkpt lat="37.498657" lon="-3.988818">
        <ele>962.008</ele>
        <time>2020-05-21T11:45:18Z</time>
      </trkpt>
      <trkpt lat="37.498648" lon="-3.988804">
        <ele>962.030</ele>
        <time>2020-05-21T11:45:20Z</time>
      </trkpt>
      <trkpt lat="37.498639" lon="-3.988793">
        <ele>961.861</ele>
        <time>2020-05-21T11:45:21Z</time>
      </trkpt>
      <trkpt lat="37.498630" lon="-3.988778">
        <ele>961.578</ele>
        <time>2020-05-21T11:45:23Z</time>
      </trkpt>
      <trkpt lat="37.498621" lon="-3.988763">
        <ele>961.196</ele>
        <time>2020-05-21T11:45:25Z</time>
      </trkpt>
      <trkpt lat="37.498610" lon="-3.988749">
        <ele>960.899</ele>
        <time>2020-05-21T11:45:26Z</time>
      </trkpt>
      <trkpt lat="37.498602" lon="-3.988735">
        <ele>960.560</ele>
        <time>2020-05-21T11:45:28Z</time>
      </trkpt>
      <trkpt lat="37.498592" lon="-3.988723">
        <ele>960.291</ele>
        <time>2020-05-21T11:45:30Z</time>
      </trkpt>
      <trkpt lat="37.498583" lon="-3.988713">
        <ele>960.090</ele>
        <time>2020-05-21T11:45:31Z</time>
      </trkpt>
      <trkpt lat="37.498573" lon="-3.988699">
        <ele>959.799</ele>
        <time>2020-05-21T11:45:33Z</time>
      </trkpt>
      <trkpt lat="37.498562" lon="-3.988686">
        <ele>959.407</ele>
        <time>2020-05-21T11:45:34Z</time>
      </trkpt>
      <trkpt lat="37.498549" lon="-3.988675">
        <ele>959.227</ele>
        <time>2020-05-21T11:45:36Z</time>
      </trkpt>
      <trkpt lat="37.498538" lon="-3.988662">
        <ele>959.008</ele>
        <time>2020-05-21T11:45:38Z</time>
      </trkpt>
      <trkpt lat="37.498529" lon="-3.988647">
        <ele>959.017</ele>
        <time>2020-05-21T11:45:40Z</time>
      </trkpt>
      <trkpt lat="37.498519" lon="-3.988635">
        <ele>959.028</ele>
        <time>2020-05-21T11:45:41Z</time>
      </trkpt>
      <trkpt lat="37.498510" lon="-3.988621">
        <ele>959.075</ele>
        <time>2020-05-21T11:45:43Z</time>
      </trkpt>
      <trkpt lat="37.498502" lon="-3.988608">
        <ele>959.063</ele>
        <time>2020-05-21T11:45:44Z</time>
      </trkpt>
      <trkpt lat="37.498490" lon="-3.988594">
        <ele>958.956</ele>
        <time>2020-05-21T11:45:46Z</time>
      </trkpt>
      <trkpt lat="37.498480" lon="-3.988582">
        <ele>958.777</ele>
        <time>2020-05-21T11:45:48Z</time>
      </trkpt>
      <trkpt lat="37.498472" lon="-3.988568">
        <ele>958.418</ele>
        <time>2020-05-21T11:45:49Z</time>
      </trkpt>
      <trkpt lat="37.498462" lon="-3.988556">
        <ele>958.247</ele>
        <time>2020-05-21T11:45:51Z</time>
      </trkpt>
      <trkpt lat="37.498451" lon="-3.988542">
        <ele>958.047</ele>
        <time>2020-05-21T11:45:53Z</time>
      </trkpt>
      <trkpt lat="37.498437" lon="-3.988530">
        <ele>957.829</ele>
        <time>2020-05-21T11:45:55Z</time>
      </trkpt>
      <trkpt lat="37.498427" lon="-3.988515">
        <ele>957.421</ele>
        <time>2020-05-21T11:45:57Z</time>
      </trkpt>
      <trkpt lat="37.498421" lon="-3.988503">
        <ele>957.208</ele>
        <time>2020-05-21T11:45:58Z</time>
      </trkpt>
      <trkpt lat="37.498412" lon="-3.988490">
        <ele>957.042</ele>
        <time>2020-05-21T11:45:59Z</time>
      </trkpt>
      <trkpt lat="37.498404" lon="-3.988479">
        <ele>956.993</ele>
        <time>2020-05-21T11:46:01Z</time>
      </trkpt>
      <trkpt lat="37.498394" lon="-3.988465">
        <ele>956.630</ele>
        <time>2020-05-21T11:46:02Z</time>
      </trkpt>
      <trkpt lat="37.498383" lon="-3.988449">
        <ele>956.198</ele>
        <time>2020-05-21T11:46:04Z</time>
      </trkpt>
      <trkpt lat="37.498372" lon="-3.988435">
        <ele>956.041</ele>
        <time>2020-05-21T11:46:06Z</time>
      </trkpt>
      <trkpt lat="37.498362" lon="-3.988423">
        <ele>956.042</ele>
        <time>2020-05-21T11:46:08Z</time>
      </trkpt>
      <trkpt lat="37.498351" lon="-3.988410">
        <ele>956.063</ele>
        <time>2020-05-21T11:46:10Z</time>
      </trkpt>
      <trkpt lat="37.498344" lon="-3.988396">
        <ele>956.022</ele>
        <time>2020-05-21T11:46:11Z</time>
      </trkpt>
      <trkpt lat="37.498333" lon="-3.988383">
        <ele>955.771</ele>
        <time>2020-05-21T11:46:13Z</time>
      </trkpt>
      <trkpt lat="37.498324" lon="-3.988369">
        <ele>955.341</ele>
        <time>2020-05-21T11:46:14Z</time>
      </trkpt>
      <trkpt lat="37.498318" lon="-3.988355">
        <ele>955.115</ele>
        <time>2020-05-21T11:46:16Z</time>
      </trkpt>
      <trkpt lat="37.498311" lon="-3.988340">
        <ele>955.008</ele>
        <time>2020-05-21T11:46:17Z</time>
      </trkpt>
      <trkpt lat="37.498303" lon="-3.988328">
        <ele>955.035</ele>
        <time>2020-05-21T11:46:19Z</time>
      </trkpt>
      <trkpt lat="37.498294" lon="-3.988312">
        <ele>955.016</ele>
        <time>2020-05-21T11:46:21Z</time>
      </trkpt>
      <trkpt lat="37.498282" lon="-3.988299">
        <ele>954.923</ele>
        <time>2020-05-21T11:46:22Z</time>
      </trkpt>
      <trkpt lat="37.498272" lon="-3.988285">
        <ele>954.561</ele>
        <time>2020-05-21T11:46:24Z</time>
      </trkpt>
      <trkpt lat="37.498261" lon="-3.988271">
        <ele>954.254</ele>
        <time>2020-05-21T11:46:26Z</time>
      </trkpt>
      <trkpt lat="37.498250" lon="-3.988259">
        <ele>954.035</ele>
        <time>2020-05-21T11:46:28Z</time>
      </trkpt>
      <trkpt lat="37.498240" lon="-3.988247">
        <ele>954.086</ele>
        <time>2020-05-21T11:46:29Z</time>
      </trkpt>
      <trkpt lat="37.498230" lon="-3.988235">
        <ele>954.065</ele>
        <time>2020-05-21T11:46:31Z</time>
      </trkpt>
      <trkpt lat="37.498217" lon="-3.988224">
        <ele>953.925</ele>
        <time>2020-05-21T11:46:33Z</time>
      </trkpt>
      <trkpt lat="37.498208" lon="-3.988214">
        <ele>953.626</ele>
        <time>2020-05-21T11:46:34Z</time>
      </trkpt>
      <trkpt lat="37.498200" lon="-3.988199">
        <ele>953.308</ele>
        <time>2020-05-21T11:46:36Z</time>
      </trkpt>
      <trkpt lat="37.498193" lon="-3.988187">
        <ele>953.108</ele>
        <time>2020-05-21T11:46:37Z</time>
      </trkpt>
      <trkpt lat="37.498183" lon="-3.988174">
        <ele>952.730</ele>
        <time>2020-05-21T11:46:39Z</time>
      </trkpt>
      <trkpt lat="37.498176" lon="-3.988157">
        <ele>952.591</ele>
        <time>2020-05-21T11:46:40Z</time>
      </trkpt>
      <trkpt lat="37.498170" lon="-3.988141">
        <ele>952.378</ele>
        <time>2020-05-21T11:46:42Z</time>
      </trkpt>
      <trkpt lat="37.498163" lon="-3.988129">
        <ele>952.086</ele>
        <time>2020-05-21T11:46:43Z</time>
      </trkpt>
      <trkpt lat="37.498155" lon="-3.988117">
        <ele>952.029</ele>
        <time>2020-05-21T11:46:45Z</time>
      </trkpt>
      <trkpt lat="37.498144" lon="-3.988102">
        <ele>951.810</ele>
        <time>2020-05-21T11:46:47Z</time>
      </trkpt>
      <trkpt lat="37.498134" lon="-3.988091">
        <ele>951.621</ele>
        <time>2020-05-21T11:46:48Z</time>
      </trkpt>
      <trkpt lat="37.498122" lon="-3.988075">
        <ele>951.340</ele>
        <time>2020-05-21T11:46:50Z</time>
      </trkpt>
      <trkpt lat="37.498112" lon="-3.988061">
        <ele>951.183</ele>
        <time>2020-05-21T11:46:52Z</time>
      </trkpt>
      <trkpt lat="37.498104" lon="-3.988048">
        <ele>951.025</ele>
        <time>2020-05-21T11:46:53Z</time>
      </trkpt>
      <trkpt lat="37.498092" lon="-3.988034">
        <ele>951.017</ele>
        <time>2020-05-21T11:46:55Z</time>
      </trkpt>
      <trkpt lat="37.498083" lon="-3.988018">
        <ele>951.008</ele>
        <time>2020-05-21T11:46:57Z</time>
      </trkpt>
      <trkpt lat="37.498073" lon="-3.988001">
        <ele>951.046</ele>
        <time>2020-05-21T11:46:59Z</time>
      </trkpt>
      <trkpt lat="37.498062" lon="-3.987990">
        <ele>951.097</ele>
        <time>2020-05-21T11:47:01Z</time>
      </trkpt>
      <trkpt lat="37.498053" lon="-3.987978">
        <ele>951.014</ele>
        <time>2020-05-21T11:47:02Z</time>
      </trkpt>
      <trkpt lat="37.498041" lon="-3.987964">
        <ele>950.842</ele>
        <time>2020-05-21T11:47:04Z</time>
      </trkpt>
      <trkpt lat="37.498028" lon="-3.987953">
        <ele>950.635</ele>
        <time>2020-05-21T11:47:06Z</time>
      </trkpt>
      <trkpt lat="37.498018" lon="-3.987943">
        <ele>950.416</ele>
        <time>2020-05-21T11:47:07Z</time>
      </trkpt>
      <trkpt lat="37.498012" lon="-3.987931">
        <ele>950.317</ele>
        <time>2020-05-21T11:47:09Z</time>
      </trkpt>
      <trkpt lat="37.498002" lon="-3.987920">
        <ele>950.166</ele>
        <time>2020-05-21T11:47:10Z</time>
      </trkpt>
      <trkpt lat="37.497984" lon="-3.987905">
        <ele>949.818</ele>
        <time>2020-05-21T11:47:13Z</time>
      </trkpt>
      <trkpt lat="37.497976" lon="-3.987893">
        <ele>949.698</ele>
        <time>2020-05-21T11:47:14Z</time>
      </trkpt>
      <trkpt lat="37.497964" lon="-3.987882">
        <ele>949.317</ele>
        <time>2020-05-21T11:47:16Z</time>
      </trkpt>
      <trkpt lat="37.497954" lon="-3.987869">
        <ele>948.808</ele>
        <time>2020-05-21T11:47:17Z</time>
      </trkpt>
      <trkpt lat="37.497943" lon="-3.987854">
        <ele>948.219</ele>
        <time>2020-05-21T11:47:19Z</time>
      </trkpt>
      <trkpt lat="37.497934" lon="-3.987843">
        <ele>948.050</ele>
        <time>2020-05-21T11:47:21Z</time>
      </trkpt>
      <trkpt lat="37.497924" lon="-3.987830">
        <ele>947.987</ele>
        <time>2020-05-21T11:47:22Z</time>
      </trkpt>
      <trkpt lat="37.497914" lon="-3.987816">
        <ele>947.675</ele>
        <time>2020-05-21T11:47:24Z</time>
      </trkpt>
      <trkpt lat="37.497902" lon="-3.987809">
        <ele>947.448</ele>
        <time>2020-05-21T11:47:26Z</time>
      </trkpt>
      <trkpt lat="37.497889" lon="-3.987801">
        <ele>947.129</ele>
        <time>2020-05-21T11:47:27Z</time>
      </trkpt>
      <trkpt lat="37.497879" lon="-3.987791">
        <ele>947.070</ele>
        <time>2020-05-21T11:47:29Z</time>
      </trkpt>
      <trkpt lat="37.497870" lon="-3.987778">
        <ele>947.099</ele>
        <time>2020-05-21T11:47:30Z</time>
      </trkpt>
      <trkpt lat="37.497860" lon="-3.987769">
        <ele>947.086</ele>
        <time>2020-05-21T11:47:32Z</time>
      </trkpt>
      <trkpt lat="37.497849" lon="-3.987758">
        <ele>947.060</ele>
        <time>2020-05-21T11:47:33Z</time>
      </trkpt>
      <trkpt lat="37.497838" lon="-3.987749">
        <ele>947.026</ele>
        <time>2020-05-21T11:47:35Z</time>
      </trkpt>
      <trkpt lat="37.497827" lon="-3.987736">
        <ele>947.008</ele>
        <time>2020-05-21T11:47:37Z</time>
      </trkpt>
      <trkpt lat="37.497819" lon="-3.987724">
        <ele>946.956</ele>
        <time>2020-05-21T11:47:38Z</time>
      </trkpt>
      <trkpt lat="37.497809" lon="-3.987715">
        <ele>946.677</ele>
        <time>2020-05-21T11:47:39Z</time>
      </trkpt>
      <trkpt lat="37.497799" lon="-3.987707">
        <ele>946.474</ele>
        <time>2020-05-21T11:47:41Z</time>
      </trkpt>
      <trkpt lat="37.497786" lon="-3.987695">
        <ele>946.152</ele>
        <time>2020-05-21T11:47:43Z</time>
      </trkpt>
      <trkpt lat="37.497776" lon="-3.987685">
        <ele>946.075</ele>
        <time>2020-05-21T11:47:44Z</time>
      </trkpt>
      <trkpt lat="37.497764" lon="-3.987675">
        <ele>945.956</ele>
        <time>2020-05-21T11:47:46Z</time>
      </trkpt>
      <trkpt lat="37.497753" lon="-3.987664">
        <ele>945.517</ele>
        <time>2020-05-21T11:47:47Z</time>
      </trkpt>
      <trkpt lat="37.497743" lon="-3.987656">
        <ele>945.136</ele>
        <time>2020-05-21T11:47:49Z</time>
      </trkpt>
      <trkpt lat="37.497734" lon="-3.987648">
        <ele>944.822</ele>
        <time>2020-05-21T11:47:50Z</time>
      </trkpt>
      <trkpt lat="37.497721" lon="-3.987640">
        <ele>944.462</ele>
        <time>2020-05-21T11:47:52Z</time>
      </trkpt>
      <trkpt lat="37.497710" lon="-3.987632">
        <ele>944.008</ele>
        <time>2020-05-21T11:47:53Z</time>
      </trkpt>
      <trkpt lat="37.497698" lon="-3.987622">
        <ele>943.708</ele>
        <time>2020-05-21T11:47:55Z</time>
      </trkpt>
      <trkpt lat="37.497689" lon="-3.987613">
        <ele>943.650</ele>
        <time>2020-05-21T11:47:56Z</time>
      </trkpt>
      <trkpt lat="37.497679" lon="-3.987599">
        <ele>943.491</ele>
        <time>2020-05-21T11:47:58Z</time>
      </trkpt>
      <trkpt lat="37.497670" lon="-3.987588">
        <ele>943.218</ele>
        <time>2020-05-21T11:47:59Z</time>
      </trkpt>
      <trkpt lat="37.497660" lon="-3.987578">
        <ele>943.176</ele>
        <time>2020-05-21T11:48:01Z</time>
      </trkpt>
      <trkpt lat="37.497649" lon="-3.987567">
        <ele>942.929</ele>
        <time>2020-05-21T11:48:03Z</time>
      </trkpt>
      <trkpt lat="37.497638" lon="-3.987555">
        <ele>942.720</ele>
        <time>2020-05-21T11:48:04Z</time>
      </trkpt>
      <trkpt lat="37.497625" lon="-3.987547">
        <ele>942.511</ele>
        <time>2020-05-21T11:48:06Z</time>
      </trkpt>
      <trkpt lat="37.497613" lon="-3.987537">
        <ele>942.230</ele>
        <time>2020-05-21T11:48:08Z</time>
      </trkpt>
      <trkpt lat="37.497597" lon="-3.987528">
        <ele>942.042</ele>
        <time>2020-05-21T11:48:10Z</time>
      </trkpt>
      <trkpt lat="37.497587" lon="-3.987520">
        <ele>941.922</ele>
        <time>2020-05-21T11:48:11Z</time>
      </trkpt>
      <trkpt lat="37.497572" lon="-3.987509">
        <ele>941.714</ele>
        <time>2020-05-21T11:48:13Z</time>
      </trkpt>
      <trkpt lat="37.497560" lon="-3.987493">
        <ele>941.308</ele>
        <time>2020-05-21T11:48:15Z</time>
      </trkpt>
      <trkpt lat="37.497552" lon="-3.987483">
        <ele>941.122</ele>
        <time>2020-05-21T11:48:16Z</time>
      </trkpt>
      <trkpt lat="37.497540" lon="-3.987473">
        <ele>941.043</ele>
        <time>2020-05-21T11:48:18Z</time>
      </trkpt>
      <trkpt lat="37.497528" lon="-3.987463">
        <ele>940.820</ele>
        <time>2020-05-21T11:48:19Z</time>
      </trkpt>
      <trkpt lat="37.497518" lon="-3.987452">
        <ele>940.698</ele>
        <time>2020-05-21T11:48:21Z</time>
      </trkpt>
      <trkpt lat="37.497509" lon="-3.987446">
        <ele>940.491</ele>
        <time>2020-05-21T11:48:22Z</time>
      </trkpt>
      <trkpt lat="37.497497" lon="-3.987439">
        <ele>940.192</ele>
        <time>2020-05-21T11:48:24Z</time>
      </trkpt>
      <trkpt lat="37.497485" lon="-3.987427">
        <ele>940.083</ele>
        <time>2020-05-21T11:48:25Z</time>
      </trkpt>
      <trkpt lat="37.497473" lon="-3.987415">
        <ele>939.792</ele>
        <time>2020-05-21T11:48:27Z</time>
      </trkpt>
      <trkpt lat="37.497463" lon="-3.987402">
        <ele>939.575</ele>
        <time>2020-05-21T11:48:29Z</time>
      </trkpt>
      <trkpt lat="37.497451" lon="-3.987390">
        <ele>939.028</ele>
        <time>2020-05-21T11:48:31Z</time>
      </trkpt>
      <trkpt lat="37.497440" lon="-3.987381">
        <ele>938.620</ele>
        <time>2020-05-21T11:48:32Z</time>
      </trkpt>
      <trkpt lat="37.497430" lon="-3.987372">
        <ele>938.308</ele>
        <time>2020-05-21T11:48:34Z</time>
      </trkpt>
      <trkpt lat="37.497420" lon="-3.987363">
        <ele>938.165</ele>
        <time>2020-05-21T11:48:35Z</time>
      </trkpt>
      <trkpt lat="37.497408" lon="-3.987355">
        <ele>938.076</ele>
        <time>2020-05-21T11:48:37Z</time>
      </trkpt>
      <trkpt lat="37.497399" lon="-3.987343">
        <ele>938.023</ele>
        <time>2020-05-21T11:48:38Z</time>
      </trkpt>
      <trkpt lat="37.497388" lon="-3.987334">
        <ele>938.021</ele>
        <time>2020-05-21T11:48:40Z</time>
      </trkpt>
      <trkpt lat="37.497378" lon="-3.987325">
        <ele>938.034</ele>
        <time>2020-05-21T11:48:41Z</time>
      </trkpt>
      <trkpt lat="37.497367" lon="-3.987321">
        <ele>937.955</ele>
        <time>2020-05-21T11:48:42Z</time>
      </trkpt>
      <trkpt lat="37.497353" lon="-3.987313">
        <ele>937.626</ele>
        <time>2020-05-21T11:48:44Z</time>
      </trkpt>
      <trkpt lat="37.497342" lon="-3.987310">
        <ele>937.475</ele>
        <time>2020-05-21T11:48:45Z</time>
      </trkpt>
      <trkpt lat="37.497326" lon="-3.987303">
        <ele>937.136</ele>
        <time>2020-05-21T11:48:47Z</time>
      </trkpt>
      <trkpt lat="37.497316" lon="-3.987298">
        <ele>937.017</ele>
        <time>2020-05-21T11:48:49Z</time>
      </trkpt>
      <trkpt lat="37.497306" lon="-3.987291">
        <ele>936.918</ele>
        <time>2020-05-21T11:48:50Z</time>
      </trkpt>
      <trkpt lat="37.497292" lon="-3.987284">
        <ele>936.708</ele>
        <time>2020-05-21T11:48:52Z</time>
      </trkpt>
      <trkpt lat="37.497286" lon="-3.987284">
        <ele>936.671</ele>
        <time>2020-05-21T11:48:52Z</time>
      </trkpt>
      <trkpt lat="37.497275" lon="-3.987281">
        <ele>936.432</ele>
        <time>2020-05-21T11:48:54Z</time>
      </trkpt>
      <trkpt lat="37.497261" lon="-3.987280">
        <ele>936.259</ele>
        <time>2020-05-21T11:48:55Z</time>
      </trkpt>
      <trkpt lat="37.497250" lon="-3.987277">
        <ele>936.157</ele>
        <time>2020-05-21T11:48:56Z</time>
      </trkpt>
      <trkpt lat="37.497237" lon="-3.987278">
        <ele>936.190</ele>
        <time>2020-05-21T11:48:58Z</time>
      </trkpt>
      <trkpt lat="37.497222" lon="-3.987280">
        <ele>936.161</ele>
        <time>2020-05-21T11:49:00Z</time>
      </trkpt>
      <trkpt lat="37.497210" lon="-3.987279">
        <ele>936.082</ele>
        <time>2020-05-21T11:49:01Z</time>
      </trkpt>
      <trkpt lat="37.497198" lon="-3.987281">
        <ele>935.761</ele>
        <time>2020-05-21T11:49:02Z</time>
      </trkpt>
      <trkpt lat="37.497182" lon="-3.987285">
        <ele>935.212</ele>
        <time>2020-05-21T11:49:04Z</time>
      </trkpt>
      <trkpt lat="37.497169" lon="-3.987290">
        <ele>934.732</ele>
        <time>2020-05-21T11:49:06Z</time>
      </trkpt>
      <trkpt lat="37.497154" lon="-3.987291">
        <ele>934.205</ele>
        <time>2020-05-21T11:49:08Z</time>
      </trkpt>
      <trkpt lat="37.497141" lon="-3.987293">
        <ele>934.008</ele>
        <time>2020-05-21T11:49:09Z</time>
      </trkpt>
      <trkpt lat="37.497125" lon="-3.987291">
        <ele>934.089</ele>
        <time>2020-05-21T11:49:11Z</time>
      </trkpt>
      <trkpt lat="37.497112" lon="-3.987295">
        <ele>934.040</ele>
        <time>2020-05-21T11:49:13Z</time>
      </trkpt>
      <trkpt lat="37.497096" lon="-3.987300">
        <ele>934.037</ele>
        <time>2020-05-21T11:49:15Z</time>
      </trkpt>
      <trkpt lat="37.497083" lon="-3.987301">
        <ele>933.885</ele>
        <time>2020-05-21T11:49:16Z</time>
      </trkpt>
      <trkpt lat="37.497067" lon="-3.987301">
        <ele>933.528</ele>
        <time>2020-05-21T11:49:18Z</time>
      </trkpt>
      <trkpt lat="37.497053" lon="-3.987306">
        <ele>933.369</ele>
        <time>2020-05-21T11:49:20Z</time>
      </trkpt>
      <trkpt lat="37.497036" lon="-3.987312">
        <ele>933.030</ele>
        <time>2020-05-21T11:49:22Z</time>
      </trkpt>
      <trkpt lat="37.497022" lon="-3.987319">
        <ele>933.039</ele>
        <time>2020-05-21T11:49:23Z</time>
      </trkpt>
      <trkpt lat="37.497008" lon="-3.987324">
        <ele>933.095</ele>
        <time>2020-05-21T11:49:25Z</time>
      </trkpt>
      <trkpt lat="37.496992" lon="-3.987328">
        <ele>933.049</ele>
        <time>2020-05-21T11:49:27Z</time>
      </trkpt>
      <trkpt lat="37.496977" lon="-3.987333">
        <ele>932.923</ele>
        <time>2020-05-21T11:49:29Z</time>
      </trkpt>
      <trkpt lat="37.496961" lon="-3.987336">
        <ele>932.308</ele>
        <time>2020-05-21T11:49:31Z</time>
      </trkpt>
      <trkpt lat="37.496948" lon="-3.987340">
        <ele>931.957</ele>
        <time>2020-05-21T11:49:32Z</time>
      </trkpt>
      <trkpt lat="37.496931" lon="-3.987341">
        <ele>931.318</ele>
        <time>2020-05-21T11:49:34Z</time>
      </trkpt>
      <trkpt lat="37.496916" lon="-3.987345">
        <ele>930.915</ele>
        <time>2020-05-21T11:49:36Z</time>
      </trkpt>
      <trkpt lat="37.496901" lon="-3.987341">
        <ele>930.623</ele>
        <time>2020-05-21T11:49:38Z</time>
      </trkpt>
      <trkpt lat="37.496886" lon="-3.987337">
        <ele>930.396</ele>
        <time>2020-05-21T11:49:39Z</time>
      </trkpt>
      <trkpt lat="37.496874" lon="-3.987335">
        <ele>930.137</ele>
        <time>2020-05-21T11:49:41Z</time>
      </trkpt>
      <trkpt lat="37.496862" lon="-3.987334">
        <ele>929.998</ele>
        <time>2020-05-21T11:49:42Z</time>
      </trkpt>
      <trkpt lat="37.496846" lon="-3.987332">
        <ele>929.617</ele>
        <time>2020-05-21T11:49:44Z</time>
      </trkpt>
      <trkpt lat="37.496834" lon="-3.987329">
        <ele>929.441</ele>
        <time>2020-05-21T11:49:46Z</time>
      </trkpt>
      <trkpt lat="37.496820" lon="-3.987324">
        <ele>929.281</ele>
        <time>2020-05-21T11:49:47Z</time>
      </trkpt>
      <trkpt lat="37.496810" lon="-3.987312">
        <ele>929.009</ele>
        <time>2020-05-21T11:49:49Z</time>
      </trkpt>
      <trkpt lat="37.496800" lon="-3.987305">
        <ele>929.008</ele>
        <time>2020-05-21T11:49:50Z</time>
      </trkpt>
      <trkpt lat="37.496785" lon="-3.987296">
        <ele>928.892</ele>
        <time>2020-05-21T11:49:52Z</time>
      </trkpt>
      <trkpt lat="37.496774" lon="-3.987288">
        <ele>928.693</ele>
        <time>2020-05-21T11:49:53Z</time>
      </trkpt>
      <trkpt lat="37.496762" lon="-3.987276">
        <ele>928.320</ele>
        <time>2020-05-21T11:49:55Z</time>
      </trkpt>
      <trkpt lat="37.496747" lon="-3.987267">
        <ele>927.948</ele>
        <time>2020-05-21T11:49:57Z</time>
      </trkpt>
      <trkpt lat="37.496736" lon="-3.987256">
        <ele>927.751</ele>
        <time>2020-05-21T11:49:59Z</time>
      </trkpt>
      <trkpt lat="37.496727" lon="-3.987244">
        <ele>927.592</ele>
        <time>2020-05-21T11:50:00Z</time>
      </trkpt>
      <trkpt lat="37.496721" lon="-3.987230">
        <ele>927.463</ele>
        <time>2020-05-21T11:50:02Z</time>
      </trkpt>
      <trkpt lat="37.496718" lon="-3.987216">
        <ele>927.252</ele>
        <time>2020-05-21T11:50:03Z</time>
      </trkpt>
      <trkpt lat="37.496714" lon="-3.987202">
        <ele>926.858</ele>
        <time>2020-05-21T11:50:04Z</time>
      </trkpt>
      <trkpt lat="37.496705" lon="-3.987189">
        <ele>926.352</ele>
        <time>2020-05-21T11:50:06Z</time>
      </trkpt>
      <trkpt lat="37.496699" lon="-3.987175">
        <ele>926.017</ele>
        <time>2020-05-21T11:50:08Z</time>
      </trkpt>
      <trkpt lat="37.496693" lon="-3.987157">
        <ele>926.008</ele>
        <time>2020-05-21T11:50:09Z</time>
      </trkpt>
      <trkpt lat="37.496689" lon="-3.987139">
        <ele>926.083</ele>
        <time>2020-05-21T11:50:11Z</time>
      </trkpt>
      <trkpt lat="37.496683" lon="-3.987122">
        <ele>926.054</ele>
        <time>2020-05-21T11:50:13Z</time>
      </trkpt>
      <trkpt lat="37.496688" lon="-3.987103">
        <ele>926.041</ele>
        <time>2020-05-21T11:50:14Z</time>
      </trkpt>
      <trkpt lat="37.496685" lon="-3.987084">
        <ele>925.959</ele>
        <time>2020-05-21T11:50:16Z</time>
      </trkpt>
      <trkpt lat="37.496683" lon="-3.987064">
        <ele>925.572</ele>
        <time>2020-05-21T11:50:18Z</time>
      </trkpt>
      <trkpt lat="37.496682" lon="-3.987044">
        <ele>925.033</ele>
        <time>2020-05-21T11:50:20Z</time>
      </trkpt>
      <trkpt lat="37.496683" lon="-3.987026">
        <ele>925.024</ele>
        <time>2020-05-21T11:50:22Z</time>
      </trkpt>
      <trkpt lat="37.496687" lon="-3.987007">
        <ele>925.083</ele>
        <time>2020-05-21T11:50:23Z</time>
      </trkpt>
      <trkpt lat="37.496690" lon="-3.986989">
        <ele>924.826</ele>
        <time>2020-05-21T11:50:25Z</time>
      </trkpt>
      <trkpt lat="37.496691" lon="-3.986975">
        <ele>924.547</ele>
        <time>2020-05-21T11:50:26Z</time>
      </trkpt>
      <trkpt lat="37.496692" lon="-3.986960">
        <ele>924.211</ele>
        <time>2020-05-21T11:50:28Z</time>
      </trkpt>
      <trkpt lat="37.496698" lon="-3.986941">
        <ele>923.708</ele>
        <time>2020-05-21T11:50:30Z</time>
      </trkpt>
      <trkpt lat="37.496705" lon="-3.986922">
        <ele>923.410</ele>
        <time>2020-05-21T11:50:32Z</time>
      </trkpt>
      <trkpt lat="37.496715" lon="-3.986906">
        <ele>923.351</ele>
        <time>2020-05-21T11:50:33Z</time>
      </trkpt>
      <trkpt lat="37.496719" lon="-3.986890">
        <ele>923.428</ele>
        <time>2020-05-21T11:50:35Z</time>
      </trkpt>
      <trkpt lat="37.496727" lon="-3.986874">
        <ele>923.566</ele>
        <time>2020-05-21T11:50:37Z</time>
      </trkpt>
      <trkpt lat="37.496734" lon="-3.986859">
        <ele>923.589</ele>
        <time>2020-05-21T11:50:38Z</time>
      </trkpt>
      <trkpt lat="37.496744" lon="-3.986846">
        <ele>923.490</ele>
        <time>2020-05-21T11:50:40Z</time>
      </trkpt>
      <trkpt lat="37.496756" lon="-3.986829">
        <ele>923.341</ele>
        <time>2020-05-21T11:50:42Z</time>
      </trkpt>
      <trkpt lat="37.496765" lon="-3.986812">
        <ele>923.230</ele>
        <time>2020-05-21T11:50:44Z</time>
      </trkpt>
      <trkpt lat="37.496773" lon="-3.986791">
        <ele>923.399</ele>
        <time>2020-05-21T11:50:46Z</time>
      </trkpt>
      <trkpt lat="37.496777" lon="-3.986771">
        <ele>923.407</ele>
        <time>2020-05-21T11:50:48Z</time>
      </trkpt>
      <trkpt lat="37.496784" lon="-3.986753">
        <ele>923.127</ele>
        <time>2020-05-21T11:50:50Z</time>
      </trkpt>
      <trkpt lat="37.496788" lon="-3.986736">
        <ele>922.808</ele>
        <time>2020-05-21T11:50:51Z</time>
      </trkpt>
      <trkpt lat="37.496790" lon="-3.986719">
        <ele>922.677</ele>
        <time>2020-05-21T11:50:53Z</time>
      </trkpt>
      <trkpt lat="37.496789" lon="-3.986703">
        <ele>922.478</ele>
        <time>2020-05-21T11:50:54Z</time>
      </trkpt>
      <trkpt lat="37.496793" lon="-3.986682">
        <ele>922.415</ele>
        <time>2020-05-21T11:50:56Z</time>
      </trkpt>
      <trkpt lat="37.496791" lon="-3.986661">
        <ele>922.333</ele>
        <time>2020-05-21T11:50:58Z</time>
      </trkpt>
      <trkpt lat="37.496793" lon="-3.986639">
        <ele>922.476</ele>
        <time>2020-05-21T11:51:00Z</time>
      </trkpt>
      <trkpt lat="37.496794" lon="-3.986620">
        <ele>922.477</ele>
        <time>2020-05-21T11:51:02Z</time>
      </trkpt>
      <trkpt lat="37.496796" lon="-3.986598">
        <ele>922.538</ele>
        <time>2020-05-21T11:51:04Z</time>
      </trkpt>
      <trkpt lat="37.496800" lon="-3.986578">
        <ele>922.517</ele>
        <time>2020-05-21T11:51:06Z</time>
      </trkpt>
      <trkpt lat="37.496796" lon="-3.986560">
        <ele>922.389</ele>
        <time>2020-05-21T11:51:07Z</time>
      </trkpt>
      <trkpt lat="37.496793" lon="-3.986542">
        <ele>922.006</ele>
        <time>2020-05-21T11:51:09Z</time>
      </trkpt>
      <trkpt lat="37.496788" lon="-3.986525">
        <ele>921.826</ele>
        <time>2020-05-21T11:51:11Z</time>
      </trkpt>
      <trkpt lat="37.496785" lon="-3.986503">
        <ele>921.608</ele>
        <time>2020-05-21T11:51:13Z</time>
      </trkpt>
      <trkpt lat="37.496781" lon="-3.986484">
        <ele>921.476</ele>
        <time>2020-05-21T11:51:15Z</time>
      </trkpt>
      <trkpt lat="37.496776" lon="-3.986466">
        <ele>921.117</ele>
        <time>2020-05-21T11:51:16Z</time>
      </trkpt>
      <trkpt lat="37.496773" lon="-3.986446">
        <ele>921.074</ele>
        <time>2020-05-21T11:51:18Z</time>
      </trkpt>
      <trkpt lat="37.496772" lon="-3.986424">
        <ele>920.932</ele>
        <time>2020-05-21T11:51:20Z</time>
      </trkpt>
      <trkpt lat="37.496772" lon="-3.986403">
        <ele>920.965</ele>
        <time>2020-05-21T11:51:22Z</time>
      </trkpt>
      <trkpt lat="37.496771" lon="-3.986377">
        <ele>920.936</ele>
        <time>2020-05-21T11:51:24Z</time>
      </trkpt>
      <trkpt lat="37.496769" lon="-3.986355">
        <ele>920.827</ele>
        <time>2020-05-21T11:51:26Z</time>
      </trkpt>
      <trkpt lat="37.496769" lon="-3.986334">
        <ele>920.886</ele>
        <time>2020-05-21T11:51:28Z</time>
      </trkpt>
      <trkpt lat="37.496771" lon="-3.986314">
        <ele>920.967</ele>
        <time>2020-05-21T11:51:30Z</time>
      </trkpt>
      <trkpt lat="37.496776" lon="-3.986294">
        <ele>921.181</ele>
        <time>2020-05-21T11:51:32Z</time>
      </trkpt>
      <trkpt lat="37.496778" lon="-3.986275">
        <ele>921.219</ele>
        <time>2020-05-21T11:51:34Z</time>
      </trkpt>
      <trkpt lat="37.496777" lon="-3.986254">
        <ele>921.208</ele>
        <time>2020-05-21T11:51:36Z</time>
      </trkpt>
      <trkpt lat="37.496774" lon="-3.986236">
        <ele>921.014</ele>
        <time>2020-05-21T11:51:37Z</time>
      </trkpt>
      <trkpt lat="37.496773" lon="-3.986216">
        <ele>920.695</ele>
        <time>2020-05-21T11:51:39Z</time>
      </trkpt>
      <trkpt lat="37.496774" lon="-3.986196">
        <ele>920.282</ele>
        <time>2020-05-21T11:51:41Z</time>
      </trkpt>
      <trkpt lat="37.496776" lon="-3.986177">
        <ele>919.840</ele>
        <time>2020-05-21T11:51:43Z</time>
      </trkpt>
      <trkpt lat="37.496784" lon="-3.986158">
        <ele>919.653</ele>
        <time>2020-05-21T11:51:45Z</time>
      </trkpt>
      <trkpt lat="37.496790" lon="-3.986138">
        <ele>919.414</ele>
        <time>2020-05-21T11:51:47Z</time>
      </trkpt>
      <trkpt lat="37.496793" lon="-3.986118">
        <ele>919.295</ele>
        <time>2020-05-21T11:51:49Z</time>
      </trkpt>
      <trkpt lat="37.496796" lon="-3.986094">
        <ele>918.814</ele>
        <time>2020-05-21T11:51:51Z</time>
      </trkpt>
      <trkpt lat="37.496798" lon="-3.986076">
        <ele>918.335</ele>
        <time>2020-05-21T11:51:53Z</time>
      </trkpt>
      <trkpt lat="37.496807" lon="-3.986058">
        <ele>918.186</ele>
        <time>2020-05-21T11:51:55Z</time>
      </trkpt>
      <trkpt lat="37.496812" lon="-3.986044">
        <ele>918.014</ele>
        <time>2020-05-21T11:51:56Z</time>
      </trkpt>
      <trkpt lat="37.496818" lon="-3.986022">
        <ele>918.208</ele>
        <time>2020-05-21T11:51:58Z</time>
      </trkpt>
      <trkpt lat="37.496822" lon="-3.986003">
        <ele>918.241</ele>
        <time>2020-05-21T11:52:00Z</time>
      </trkpt>
      <trkpt lat="37.496828" lon="-3.985983">
        <ele>917.222</ele>
        <time>2020-05-21T11:52:02Z</time>
      </trkpt>
      <trkpt lat="37.496834" lon="-3.985964">
        <ele>916.489</ele>
        <time>2020-05-21T11:52:04Z</time>
      </trkpt>
      <trkpt lat="37.496840" lon="-3.985948">
        <ele>916.037</ele>
        <time>2020-05-21T11:52:06Z</time>
      </trkpt>
      <trkpt lat="37.496845" lon="-3.985928">
        <ele>915.450</ele>
        <time>2020-05-21T11:52:08Z</time>
      </trkpt>
      <trkpt lat="37.496852" lon="-3.985909">
        <ele>914.951</ele>
        <time>2020-05-21T11:52:10Z</time>
      </trkpt>
      <trkpt lat="37.496857" lon="-3.985891">
        <ele>914.562</ele>
        <time>2020-05-21T11:52:11Z</time>
      </trkpt>
      <trkpt lat="37.496865" lon="-3.985877">
        <ele>914.261</ele>
        <time>2020-05-21T11:52:13Z</time>
      </trkpt>
      <trkpt lat="37.496869" lon="-3.985863">
        <ele>913.765</ele>
        <time>2020-05-21T11:52:14Z</time>
      </trkpt>
      <trkpt lat="37.496877" lon="-3.985846">
        <ele>913.268</ele>
        <time>2020-05-21T11:52:16Z</time>
      </trkpt>
      <trkpt lat="37.496882" lon="-3.985828">
        <ele>912.614</ele>
        <time>2020-05-21T11:52:18Z</time>
      </trkpt>
      <trkpt lat="37.496894" lon="-3.985809">
        <ele>912.908</ele>
        <time>2020-05-21T11:52:20Z</time>
      </trkpt>
      <trkpt lat="37.496901" lon="-3.985792">
        <ele>913.214</ele>
        <time>2020-05-21T11:52:22Z</time>
      </trkpt>
      <trkpt lat="37.496905" lon="-3.985774">
        <ele>913.115</ele>
        <time>2020-05-21T11:52:24Z</time>
      </trkpt>
      <trkpt lat="37.496913" lon="-3.985755">
        <ele>912.632</ele>
        <time>2020-05-21T11:52:26Z</time>
      </trkpt>
      <trkpt lat="37.496921" lon="-3.985737">
        <ele>912.060</ele>
        <time>2020-05-21T11:52:28Z</time>
      </trkpt>
      <trkpt lat="37.496931" lon="-3.985719">
        <ele>911.583</ele>
        <time>2020-05-21T11:52:30Z</time>
      </trkpt>
      <trkpt lat="37.496934" lon="-3.985700">
        <ele>910.824</ele>
        <time>2020-05-21T11:52:32Z</time>
      </trkpt>
      <trkpt lat="37.496940" lon="-3.985680">
        <ele>910.315</ele>
        <time>2020-05-21T11:52:34Z</time>
      </trkpt>
      <trkpt lat="37.496943" lon="-3.985658">
        <ele>909.714</ele>
        <time>2020-05-21T11:52:36Z</time>
      </trkpt>
      <trkpt lat="37.496947" lon="-3.985635">
        <ele>909.262</ele>
        <time>2020-05-21T11:52:38Z</time>
      </trkpt>
      <trkpt lat="37.496949" lon="-3.985615">
        <ele>908.883</ele>
        <time>2020-05-21T11:52:40Z</time>
      </trkpt>
      <trkpt lat="37.496952" lon="-3.985590">
        <ele>908.511</ele>
        <time>2020-05-21T11:52:42Z</time>
      </trkpt>
      <trkpt lat="37.496952" lon="-3.985569">
        <ele>908.508</ele>
        <time>2020-05-21T11:52:44Z</time>
      </trkpt>
      <trkpt lat="37.496953" lon="-3.985547">
        <ele>908.454</ele>
        <time>2020-05-21T11:52:46Z</time>
      </trkpt>
      <trkpt lat="37.496949" lon="-3.985524">
        <ele>908.145</ele>
        <time>2020-05-21T11:52:48Z</time>
      </trkpt>
      <trkpt lat="37.496946" lon="-3.985501">
        <ele>907.862</ele>
        <time>2020-05-21T11:52:50Z</time>
      </trkpt>
      <trkpt lat="37.496941" lon="-3.985480">
        <ele>907.320</ele>
        <time>2020-05-21T11:52:52Z</time>
      </trkpt>
      <trkpt lat="37.496936" lon="-3.985462">
        <ele>907.073</ele>
        <time>2020-05-21T11:52:54Z</time>
      </trkpt>
      <trkpt lat="37.496928" lon="-3.985442">
        <ele>907.014</ele>
        <time>2020-05-21T11:52:56Z</time>
      </trkpt>
      <trkpt lat="37.496919" lon="-3.985424">
        <ele>906.915</ele>
        <time>2020-05-21T11:52:58Z</time>
      </trkpt>
      <trkpt lat="37.496908" lon="-3.985409">
        <ele>906.714</ele>
        <time>2020-05-21T11:53:00Z</time>
      </trkpt>
      <trkpt lat="37.496895" lon="-3.985393">
        <ele>906.527</ele>
        <time>2020-05-21T11:53:02Z</time>
      </trkpt>
      <trkpt lat="37.496879" lon="-3.985376">
        <ele>906.268</ele>
        <time>2020-05-21T11:53:04Z</time>
      </trkpt>
      <trkpt lat="37.496867" lon="-3.985359">
        <ele>906.014</ele>
        <time>2020-05-21T11:53:06Z</time>
      </trkpt>
      <trkpt lat="37.496855" lon="-3.985337">
        <ele>905.808</ele>
        <time>2020-05-21T11:53:09Z</time>
      </trkpt>
      <trkpt lat="37.496844" lon="-3.985315">
        <ele>905.430</ele>
        <time>2020-05-21T11:53:11Z</time>
      </trkpt>
      <trkpt lat="37.496832" lon="-3.985296">
        <ele>905.161</ele>
        <time>2020-05-21T11:53:14Z</time>
      </trkpt>
      <trkpt lat="37.496820" lon="-3.985281">
        <ele>904.918</ele>
        <time>2020-05-21T11:53:15Z</time>
      </trkpt>
      <trkpt lat="37.496806" lon="-3.985265">
        <ele>904.566</ele>
        <time>2020-05-21T11:53:18Z</time>
      </trkpt>
      <trkpt lat="37.496794" lon="-3.985247">
        <ele>904.189</ele>
        <time>2020-05-21T11:53:20Z</time>
      </trkpt>
      <trkpt lat="37.496781" lon="-3.985228">
        <ele>904.010</ele>
        <time>2020-05-21T11:53:22Z</time>
      </trkpt>
      <trkpt lat="37.496766" lon="-3.985208">
        <ele>904.061</ele>
        <time>2020-05-21T11:53:25Z</time>
      </trkpt>
      <trkpt lat="37.496754" lon="-3.985187">
        <ele>904.030</ele>
        <time>2020-05-21T11:53:27Z</time>
      </trkpt>
      <trkpt lat="37.496739" lon="-3.985167">
        <ele>903.792</ele>
        <time>2020-05-21T11:53:29Z</time>
      </trkpt>
      <trkpt lat="37.496724" lon="-3.985146">
        <ele>903.473</ele>
        <time>2020-05-21T11:53:32Z</time>
      </trkpt>
      <trkpt lat="37.496711" lon="-3.985129">
        <ele>903.120</ele>
        <time>2020-05-21T11:53:34Z</time>
      </trkpt>
      <trkpt lat="37.496693" lon="-3.985110">
        <ele>903.008</ele>
        <time>2020-05-21T11:53:37Z</time>
      </trkpt>
      <trkpt lat="37.496676" lon="-3.985091">
        <ele>902.977</ele>
        <time>2020-05-21T11:53:39Z</time>
      </trkpt>
      <trkpt lat="37.496660" lon="-3.985070">
        <ele>902.588</ele>
        <time>2020-05-21T11:53:42Z</time>
      </trkpt>
      <trkpt lat="37.496643" lon="-3.985049">
        <ele>902.095</ele>
        <time>2020-05-21T11:53:45Z</time>
      </trkpt>
      <trkpt lat="37.496627" lon="-3.985028">
        <ele>902.023</ele>
        <time>2020-05-21T11:53:47Z</time>
      </trkpt>
      <trkpt lat="37.496614" lon="-3.985005">
        <ele>902.076</ele>
        <time>2020-05-21T11:53:50Z</time>
      </trkpt>
      <trkpt lat="37.496598" lon="-3.984982">
        <ele>902.057</ele>
        <time>2020-05-21T11:53:53Z</time>
      </trkpt>
      <trkpt lat="37.496581" lon="-3.984961">
        <ele>901.988</ele>
        <time>2020-05-21T11:53:55Z</time>
      </trkpt>
      <trkpt lat="37.496563" lon="-3.984939">
        <ele>901.627</ele>
        <time>2020-05-21T11:53:58Z</time>
      </trkpt>
      <trkpt lat="37.496543" lon="-3.984919">
        <ele>901.276</ele>
        <time>2020-05-21T11:54:01Z</time>
      </trkpt>
      <trkpt lat="37.496523" lon="-3.984900">
        <ele>901.090</ele>
        <time>2020-05-21T11:54:04Z</time>
      </trkpt>
      <trkpt lat="37.496504" lon="-3.984880">
        <ele>901.019</ele>
        <time>2020-05-21T11:54:07Z</time>
      </trkpt>
      <trkpt lat="37.496486" lon="-3.984855">
        <ele>901.008</ele>
        <time>2020-05-21T11:54:10Z</time>
      </trkpt>
      <trkpt lat="37.496468" lon="-3.984833">
        <ele>900.945</ele>
        <time>2020-05-21T11:54:13Z</time>
      </trkpt>
      <trkpt lat="37.496455" lon="-3.984806">
        <ele>900.726</ele>
        <time>2020-05-21T11:54:16Z</time>
      </trkpt>
      <trkpt lat="37.496440" lon="-3.984777">
        <ele>900.453</ele>
        <time>2020-05-21T11:54:19Z</time>
      </trkpt>
      <trkpt lat="37.496426" lon="-3.984750">
        <ele>900.261</ele>
        <time>2020-05-21T11:54:22Z</time>
      </trkpt>
      <trkpt lat="37.496409" lon="-3.984724">
        <ele>900.044</ele>
        <time>2020-05-21T11:54:25Z</time>
      </trkpt>
      <trkpt lat="37.496393" lon="-3.984697">
        <ele>900.055</ele>
        <time>2020-05-21T11:54:28Z</time>
      </trkpt>
      <trkpt lat="37.496377" lon="-3.984669">
        <ele>900.056</ele>
        <time>2020-05-21T11:54:31Z</time>
      </trkpt>
      <trkpt lat="37.496357" lon="-3.984640">
        <ele>900.015</ele>
        <time>2020-05-21T11:54:34Z</time>
      </trkpt>
      <trkpt lat="37.496338" lon="-3.984615">
        <ele>899.938</ele>
        <time>2020-05-21T11:54:38Z</time>
      </trkpt>
      <trkpt lat="37.496314" lon="-3.984595">
        <ele>899.770</ele>
        <time>2020-05-21T11:54:41Z</time>
      </trkpt>
      <trkpt lat="37.496292" lon="-3.984578">
        <ele>899.317</ele>
        <time>2020-05-21T11:54:44Z</time>
      </trkpt>
      <trkpt lat="37.496266" lon="-3.984566">
        <ele>899.008</ele>
        <time>2020-05-21T11:54:47Z</time>
      </trkpt>
      <trkpt lat="37.496217" lon="-3.984551">
        <ele>899.011</ele>
        <time>2020-05-21T11:54:53Z</time>
      </trkpt>
      <trkpt lat="37.496163" lon="-3.984802">
        <ele>898.532</ele>
        <time>2020-05-21T11:55:16Z</time>
      </trkpt>
      <trkpt lat="37.495971" lon="-3.985260">
        <ele>897.159</ele>
        <time>2020-05-21T11:56:03Z</time>
      </trkpt>
      <trkpt lat="37.495657" lon="-3.985763">
        <ele>895.817</ele>
        <time>2020-05-21T11:57:01Z</time>
      </trkpt>
      <trkpt lat="37.495340" lon="-3.986236">
        <ele>893.990</ele>
        <time>2020-05-21T11:57:57Z</time>
      </trkpt>
      <trkpt lat="37.495145" lon="-3.986607">
        <ele>892.021</ele>
        <time>2020-05-21T11:58:37Z</time>
      </trkpt>
      <trkpt lat="37.495042" lon="-3.986644">
        <ele>892.052</ele>
        <time>2020-05-21T11:58:49Z</time>
      </trkpt>
      <trkpt lat="37.494661" lon="-3.986764">
        <ele>892.381</ele>
        <time>2020-05-21T11:59:34Z</time>
      </trkpt>
      <trkpt lat="37.494243" lon="-3.986889">
        <ele>894.632</ele>
        <time>2020-05-21T12:00:23Z</time>
      </trkpt>
      <trkpt lat="37.493951" lon="-3.986965">
        <ele>897.692</ele>
        <time>2020-05-21T12:00:57Z</time>
      </trkpt>
      <trkpt lat="37.493647" lon="-3.987007">
        <ele>899.811</ele>
        <time>2020-05-21T12:01:32Z</time>
      </trkpt>
      <trkpt lat="37.493448" lon="-3.987126">
        <ele>899.008</ele>
        <time>2020-05-21T12:01:57Z</time>
      </trkpt>
      <trkpt lat="37.493210" lon="-3.987172">
        <ele>901.131</ele>
        <time>2020-05-21T12:02:25Z</time>
      </trkpt>
      <trkpt lat="37.492968" lon="-3.987063">
        <ele>899.652</ele>
        <time>2020-05-21T12:02:54Z</time>
      </trkpt>
      <trkpt lat="37.492750" lon="-3.986995">
        <ele>900.179</ele>
        <time>2020-05-21T12:03:20Z</time>
      </trkpt>
      <trkpt lat="37.492525" lon="-3.986939">
        <ele>900.667</ele>
        <time>2020-05-21T12:03:46Z</time>
      </trkpt>
      <trkpt lat="37.492389" lon="-3.986842">
        <ele>900.440</ele>
        <time>2020-05-21T12:04:03Z</time>
      </trkpt>
      <trkpt lat="37.492041" lon="-3.986296">
        <ele>905.051</ele>
        <time>2020-05-21T12:05:07Z</time>
      </trkpt>
      <trkpt lat="37.491682" lon="-3.985659">
        <ele>907.692</ele>
        <time>2020-05-21T12:06:18Z</time>
      </trkpt>
      <trkpt lat="37.491422" lon="-3.985419">
        <ele>907.071</ele>
        <time>2020-05-21T12:06:54Z</time>
      </trkpt>
      <trkpt lat="37.491259" lon="-3.985280">
        <ele>907.648</ele>
        <time>2020-05-21T12:07:17Z</time>
      </trkpt>
      <trkpt lat="37.491058" lon="-3.985369">
        <ele>908.261</ele>
        <time>2020-05-21T12:07:41Z</time>
      </trkpt>
      <trkpt lat="37.490679" lon="-3.985577">
        <ele>911.917</ele>
        <time>2020-05-21T12:08:28Z</time>
      </trkpt>
      <trkpt lat="37.490325" lon="-3.985847">
        <ele>917.008</ele>
        <time>2020-05-21T12:09:16Z</time>
      </trkpt>
      <trkpt lat="37.489970" lon="-3.986094">
        <ele>921.522</ele>
        <time>2020-05-21T12:10:02Z</time>
      </trkpt>
      <trkpt lat="37.489809" lon="-3.986119">
        <ele>923.873</ele>
        <time>2020-05-21T12:10:21Z</time>
      </trkpt>
      <trkpt lat="37.489677" lon="-3.986231">
        <ele>923.010</ele>
        <time>2020-05-21T12:10:39Z</time>
      </trkpt>
      <trkpt lat="37.489525" lon="-3.986207">
        <ele>925.538</ele>
        <time>2020-05-21T12:10:56Z</time>
      </trkpt>
      <trkpt lat="37.489410" lon="-3.986122">
        <ele>927.451</ele>
        <time>2020-05-21T12:11:12Z</time>
      </trkpt>
      <trkpt lat="37.488929" lon="-3.985817">
        <ele>930.042</ele>
        <time>2020-05-21T12:12:13Z</time>
      </trkpt>
      <trkpt lat="37.488436" lon="-3.985502">
        <ele>935.243</ele>
        <time>2020-05-21T12:13:16Z</time>
      </trkpt>
      <trkpt lat="37.488020" lon="-3.985227">
        <ele>943.392</ele>
        <time>2020-05-21T12:14:10Z</time>
      </trkpt>
      <trkpt lat="37.487597" lon="-3.984923">
        <ele>948.615</ele>
        <time>2020-05-21T12:15:06Z</time>
      </trkpt>
      <trkpt lat="37.487077" lon="-3.984613">
        <ele>953.965</ele>
        <time>2020-05-21T12:16:12Z</time>
      </trkpt>
      <trkpt lat="37.486478" lon="-3.984240">
        <ele>962.111</ele>
        <time>2020-05-21T12:17:28Z</time>
      </trkpt>
      <trkpt lat="37.485894" lon="-3.983900">
        <ele>971.508</ele>
        <time>2020-05-21T12:18:42Z</time>
      </trkpt>
      <trkpt lat="37.485416" lon="-3.983608">
        <ele>976.249</ele>
        <time>2020-05-21T12:19:43Z</time>
      </trkpt>
      <trkpt lat="37.485322" lon="-3.983341">
        <ele>980.150</ele>
        <time>2020-05-21T12:20:10Z</time>
      </trkpt>
      <trkpt lat="37.485188" lon="-3.983194">
        <ele>983.017</ele>
        <time>2020-05-21T12:20:30Z</time>
      </trkpt>
      <trkpt lat="37.485099" lon="-3.982848">
        <ele>987.065</ele>
        <time>2020-05-21T12:21:03Z</time>
      </trkpt>
      <trkpt lat="37.485007" lon="-3.982315">
        <ele>994.448</ele>
        <time>2020-05-21T12:21:53Z</time>
      </trkpt>
      <trkpt lat="37.484813" lon="-3.981811">
        <ele>999.029</ele>
        <time>2020-05-21T12:22:44Z</time>
      </trkpt>
      <trkpt lat="37.484634" lon="-3.981367">
        <ele>1002.290</ele>
        <time>2020-05-21T12:23:29Z</time>
      </trkpt>
      <trkpt lat="37.484496" lon="-3.981099">
        <ele>1002.759</ele>
        <time>2020-05-21T12:23:58Z</time>
      </trkpt>
      <trkpt lat="37.484404" lon="-3.980888">
        <ele>1003.626</ele>
        <time>2020-05-21T12:24:20Z</time>
      </trkpt>
      <trkpt lat="37.484428" lon="-3.980270">
        <ele>1006.047</ele>
        <time>2020-05-21T12:25:16Z</time>
      </trkpt>
      <trkpt lat="37.484325" lon="-3.979664">
        <ele>1010.711</ele>
        <time>2020-05-21T12:26:12Z</time>
      </trkpt>
      <trkpt lat="37.484379" lon="-3.979010">
        <ele>1016.808</ele>
        <time>2020-05-21T12:27:12Z</time>
      </trkpt>
      <trkpt lat="37.484317" lon="-3.978157">
        <ele>1020.830</ele>
        <time>2020-05-21T12:28:29Z</time>
      </trkpt>
      <trkpt lat="37.484075" lon="-3.977906">
        <ele>1021.961</ele>
        <time>2020-05-21T12:29:05Z</time>
      </trkpt>
      <trkpt lat="37.484224" lon="-3.977491">
        <ele>1023.068</ele>
        <time>2020-05-21T12:29:46Z</time>
      </trkpt>
      <trkpt lat="37.484622" lon="-3.976952">
        <ele>1018.616</ele>
        <time>2020-05-21T12:30:53Z</time>
      </trkpt>
      <trkpt lat="37.484832" lon="-3.976512">
        <ele>1016.559</ele>
        <time>2020-05-21T12:31:39Z</time>
      </trkpt>
      <trkpt lat="37.485245" lon="-3.976023">
        <ele>1010.660</ele>
        <time>2020-05-21T12:32:44Z</time>
      </trkpt>
      <trkpt lat="37.485708" lon="-3.975500">
        <ele>1004.141</ele>
        <time>2020-05-21T12:33:55Z</time>
      </trkpt>
      <trkpt lat="37.486049" lon="-3.974894">
        <ele>996.650</ele>
        <time>2020-05-21T12:35:03Z</time>
      </trkpt>
      <trkpt lat="37.486457" lon="-3.974563">
        <ele>989.347</ele>
        <time>2020-05-21T12:35:59Z</time>
      </trkpt>
      <trkpt lat="37.486758" lon="-3.974435">
        <ele>984.029</ele>
        <time>2020-05-21T12:36:35Z</time>
      </trkpt>
      <trkpt lat="37.487053" lon="-3.974586">
        <ele>978.421</ele>
        <time>2020-05-21T12:37:12Z</time>
      </trkpt>
      <trkpt lat="37.487177" lon="-3.974756">
        <ele>973.708</ele>
        <time>2020-05-21T12:37:33Z</time>
      </trkpt>
      <trkpt lat="37.487362" lon="-3.974881">
        <ele>972.092</ele>
        <time>2020-05-21T12:37:57Z</time>
      </trkpt>
      <trkpt lat="37.487456" lon="-3.974714">
        <ele>967.163</ele>
        <time>2020-05-21T12:38:16Z</time>
      </trkpt>
      <trkpt lat="37.487609" lon="-3.974329">
        <ele>960.540</ele>
        <time>2020-05-21T12:38:56Z</time>
      </trkpt>
      <trkpt lat="37.487787" lon="-3.973889">
        <ele>953.468</ele>
        <time>2020-05-21T12:39:41Z</time>
      </trkpt>
      <trkpt lat="37.487944" lon="-3.973611">
        <ele>948.641</ele>
        <time>2020-05-21T12:40:12Z</time>
      </trkpt>
      <trkpt lat="37.488078" lon="-3.973491">
        <ele>946.642</ele>
        <time>2020-05-21T12:40:31Z</time>
      </trkpt>
      <trkpt lat="37.488194" lon="-3.973187">
        <ele>942.093</ele>
        <time>2020-05-21T12:41:02Z</time>
      </trkpt>
      <trkpt lat="37.488191" lon="-3.972984">
        <ele>940.092</ele>
        <time>2020-05-21T12:41:20Z</time>
      </trkpt>
      <trkpt lat="37.488449" lon="-3.972332">
        <ele>933.083</ele>
        <time>2020-05-21T12:42:27Z</time>
      </trkpt>
      <trkpt lat="37.488789" lon="-3.971597">
        <ele>923.825</ele>
        <time>2020-05-21T12:43:44Z</time>
      </trkpt>
      <trkpt lat="37.489058" lon="-3.970850">
        <ele>917.017</ele>
        <time>2020-05-21T12:44:59Z</time>
      </trkpt>
      <trkpt lat="37.489381" lon="-3.970364">
        <ele>911.908</ele>
        <time>2020-05-21T12:45:56Z</time>
      </trkpt>
      <trkpt lat="37.489703" lon="-3.969878">
        <ele>905.196</ele>
        <time>2020-05-21T12:46:54Z</time>
      </trkpt>
      <trkpt lat="37.490026" lon="-3.969423">
        <ele>899.577</ele>
        <time>2020-05-21T12:47:49Z</time>
      </trkpt>
      <trkpt lat="37.490205" lon="-3.968945">
        <ele>894.134</ele>
        <time>2020-05-21T12:48:37Z</time>
      </trkpt>
      <trkpt lat="37.490414" lon="-3.968658">
        <ele>888.072</ele>
        <time>2020-05-21T12:49:13Z</time>
      </trkpt>
      <trkpt lat="37.490726" lon="-3.968462">
        <ele>881.115</ele>
        <time>2020-05-21T12:49:53Z</time>
      </trkpt>
      <trkpt lat="37.490983" lon="-3.968185">
        <ele>874.096</ele>
        <time>2020-05-21T12:50:33Z</time>
      </trkpt>
      <trkpt lat="37.490835" lon="-3.967793">
        <ele>869.377</ele>
        <time>2020-05-21T12:51:12Z</time>
      </trkpt>
      <trkpt lat="37.490710" lon="-3.967421">
        <ele>865.096</ele>
        <time>2020-05-21T12:51:49Z</time>
      </trkpt>
      <trkpt lat="37.490633" lon="-3.967031">
        <ele>860.825</ele>
        <time>2020-05-21T12:52:25Z</time>
      </trkpt>
      <trkpt lat="37.490829" lon="-3.966960">
        <ele>860.626</ele>
        <time>2020-05-21T12:52:49Z</time>
      </trkpt>
      <trkpt lat="37.491222" lon="-3.966939">
        <ele>858.308</ele>
        <time>2020-05-21T12:53:33Z</time>
      </trkpt>
      <trkpt lat="37.491311" lon="-3.966985">
        <ele>859.008</ele>
        <time>2020-05-21T12:53:44Z</time>
      </trkpt>
      <trkpt lat="37.491088" lon="-3.966768">
        <ele>858.680</ele>
        <time>2020-05-21T12:54:17Z</time>
      </trkpt>
      <trkpt lat="37.490871" lon="-3.966575">
        <ele>859.141</ele>
        <time>2020-05-21T12:54:47Z</time>
      </trkpt>
      <trkpt lat="37.490756" lon="-3.966399">
        <ele>860.088</ele>
        <time>2020-05-21T12:55:07Z</time>
      </trkpt>
      <trkpt lat="37.490632" lon="-3.966126">
        <ele>860.086</ele>
        <time>2020-05-21T12:55:36Z</time>
      </trkpt>
      <trkpt lat="37.490561" lon="-3.965864">
        <ele>860.089</ele>
        <time>2020-05-21T12:56:01Z</time>
      </trkpt>
      <trkpt lat="37.490526" lon="-3.965594">
        <ele>858.530</ele>
        <time>2020-05-21T12:56:26Z</time>
      </trkpt>
      <trkpt lat="37.490534" lon="-3.965282">
        <ele>857.311</ele>
        <time>2020-05-21T12:56:54Z</time>
      </trkpt>
      <trkpt lat="37.490558" lon="-3.964934">
        <ele>857.040</ele>
        <time>2020-05-21T12:57:25Z</time>
      </trkpt>
      <trkpt lat="37.490562" lon="-3.964767">
        <ele>857.838</ele>
        <time>2020-05-21T12:57:41Z</time>
      </trkpt>
      <trkpt lat="37.490522" lon="-3.964601">
        <ele>857.270</ele>
        <time>2020-05-21T12:57:56Z</time>
      </trkpt>
      <trkpt lat="37.490483" lon="-3.964452">
        <ele>857.017</ele>
        <time>2020-05-21T12:58:10Z</time>
      </trkpt>
      <trkpt lat="37.490488" lon="-3.964373">
        <ele>857.008</ele>
        <time>2020-05-21T12:58:18Z</time>
      </trkpt>
      <trkpt lat="37.490591" lon="-3.964232">
        <ele>857.061</ele>
        <time>2020-05-21T12:58:35Z</time>
      </trkpt>
      <trkpt lat="37.490638" lon="-3.964072">
        <ele>856.352</ele>
        <time>2020-05-21T12:58:50Z</time>
      </trkpt>
      <trkpt lat="37.490663" lon="-3.963760">
        <ele>850.059</ele>
        <time>2020-05-21T12:59:19Z</time>
      </trkpt>
      <trkpt lat="37.490700" lon="-3.963362">
        <ele>853.077</ele>
        <time>2020-05-21T12:59:56Z</time>
      </trkpt>
      <trkpt lat="37.490737" lon="-3.963033">
        <ele>857.060</ele>
        <time>2020-05-21T13:00:26Z</time>
      </trkpt>
      <trkpt lat="37.490725" lon="-3.962857">
        <ele>857.071</ele>
        <time>2020-05-21T13:00:42Z</time>
      </trkpt>
      <trkpt lat="37.490656" lon="-3.962697">
        <ele>856.762</ele>
        <time>2020-05-21T13:00:58Z</time>
      </trkpt>
      <trkpt lat="37.490608" lon="-3.962607">
        <ele>856.091</ele>
        <time>2020-05-21T13:01:08Z</time>
      </trkpt>
      <trkpt lat="37.490614" lon="-3.962488">
        <ele>856.078</ele>
        <time>2020-05-21T13:01:19Z</time>
      </trkpt>
      <trkpt lat="37.490715" lon="-3.962407">
        <ele>856.033</ele>
        <time>2020-05-21T13:01:33Z</time>
      </trkpt>
      <trkpt lat="37.490808" lon="-3.962301">
        <ele>856.026</ele>
        <time>2020-05-21T13:01:47Z</time>
      </trkpt>
      <trkpt lat="37.490827" lon="-3.962078">
        <ele>855.308</ele>
        <time>2020-05-21T13:02:07Z</time>
      </trkpt>
      <trkpt lat="37.490795" lon="-3.961791">
        <ele>856.845</ele>
        <time>2020-05-21T13:02:33Z</time>
      </trkpt>
      <trkpt lat="37.490739" lon="-3.961524">
        <ele>856.076</ele>
        <time>2020-05-21T13:02:58Z</time>
      </trkpt>
      <trkpt lat="37.490657" lon="-3.961258">
        <ele>856.343</ele>
        <time>2020-05-21T13:03:24Z</time>
      </trkpt>
      <trkpt lat="37.490503" lon="-3.961022">
        <ele>857.051</ele>
        <time>2020-05-21T13:03:52Z</time>
      </trkpt>
      <trkpt lat="37.490315" lon="-3.960746">
        <ele>858.014</ele>
        <time>2020-05-21T13:04:25Z</time>
      </trkpt>
      <trkpt lat="37.490042" lon="-3.960398">
        <ele>859.035</ele>
        <time>2020-05-21T13:05:09Z</time>
      </trkpt>
      <trkpt lat="37.489930" lon="-3.960273">
        <ele>859.036</ele>
        <time>2020-05-21T13:05:26Z</time>
      </trkpt>
      <trkpt lat="37.489878" lon="-3.960195">
        <ele>859.015</ele>
        <time>2020-05-21T13:05:35Z</time>
      </trkpt>
      <trkpt lat="37.489822" lon="-3.960118">
        <ele>859.047</ele>
        <time>2020-05-21T13:05:45Z</time>
      </trkpt>
      <trkpt lat="37.489711" lon="-3.959997">
        <ele>859.629</ele>
        <time>2020-05-21T13:06:01Z</time>
      </trkpt>
      <trkpt lat="37.489615" lon="-3.959859">
        <ele>860.021</ele>
        <time>2020-05-21T13:06:18Z</time>
      </trkpt>
      <trkpt lat="37.489545" lon="-3.959778">
        <ele>860.008</ele>
        <time>2020-05-21T13:06:29Z</time>
      </trkpt>
      <trkpt lat="37.489411" lon="-3.959581">
        <ele>861.092</ele>
        <time>2020-05-21T13:06:52Z</time>
      </trkpt>
      <trkpt lat="37.489231" lon="-3.959387">
        <ele>861.033</ele>
        <time>2020-05-21T13:07:19Z</time>
      </trkpt>
      <trkpt lat="37.489078" lon="-3.959176">
        <ele>861.580</ele>
        <time>2020-05-21T13:07:45Z</time>
      </trkpt>
      <trkpt lat="37.488884" lon="-3.959014">
        <ele>861.088</ele>
        <time>2020-05-21T13:08:12Z</time>
      </trkpt>
      <trkpt lat="37.488684" lon="-3.958807">
        <ele>861.081</ele>
        <time>2020-05-21T13:08:41Z</time>
      </trkpt>
      <trkpt lat="37.488494" lon="-3.958613">
        <ele>861.072</ele>
        <time>2020-05-21T13:09:09Z</time>
      </trkpt>
      <trkpt lat="37.488320" lon="-3.958490">
        <ele>860.293</ele>
        <time>2020-05-21T13:09:32Z</time>
      </trkpt>
      <trkpt lat="37.488232" lon="-3.958402">
        <ele>860.032</ele>
        <time>2020-05-21T13:09:44Z</time>
      </trkpt>
      <trkpt lat="37.488142" lon="-3.958319">
        <ele>860.049</ele>
        <time>2020-05-21T13:09:57Z</time>
      </trkpt>
      <trkpt lat="37.488042" lon="-3.958212">
        <ele>860.002</ele>
        <time>2020-05-21T13:10:12Z</time>
      </trkpt>
      <trkpt lat="37.487907" lon="-3.958034">
        <ele>860.022</ele>
        <time>2020-05-21T13:10:34Z</time>
      </trkpt>
      <trkpt lat="37.487784" lon="-3.957891">
        <ele>859.008</ele>
        <time>2020-05-21T13:10:53Z</time>
      </trkpt>
      <trkpt lat="37.487654" lon="-3.957702">
        <ele>858.452</ele>
        <time>2020-05-21T13:11:16Z</time>
      </trkpt>
      <trkpt lat="37.487513" lon="-3.957495">
        <ele>857.013</ele>
        <time>2020-05-21T13:11:41Z</time>
      </trkpt>
      <trkpt lat="37.487324" lon="-3.957226">
        <ele>856.030</ele>
        <time>2020-05-21T13:12:13Z</time>
      </trkpt>
      <trkpt lat="37.487142" lon="-3.956966">
        <ele>855.058</ele>
        <time>2020-05-21T13:12:45Z</time>
      </trkpt>
      <trkpt lat="37.487021" lon="-3.956789">
        <ele>853.281</ele>
        <time>2020-05-21T13:13:06Z</time>
      </trkpt>
      <trkpt lat="37.486913" lon="-3.956694">
        <ele>852.252</ele>
        <time>2020-05-21T13:13:21Z</time>
      </trkpt>
      <trkpt lat="37.486840" lon="-3.956617">
        <ele>850.043</ele>
        <time>2020-05-21T13:13:32Z</time>
      </trkpt>
      <trkpt lat="37.486792" lon="-3.956519">
        <ele>849.762</ele>
        <time>2020-05-21T13:13:42Z</time>
      </trkpt>
      <trkpt lat="37.486728" lon="-3.956405">
        <ele>849.043</ele>
        <time>2020-05-21T13:13:55Z</time>
      </trkpt>
      <trkpt lat="37.486679" lon="-3.956308">
        <ele>849.164</ele>
        <time>2020-05-21T13:14:05Z</time>
      </trkpt>
      <trkpt lat="37.486598" lon="-3.956146">
        <ele>847.710</ele>
        <time>2020-05-21T13:14:23Z</time>
      </trkpt>
      <trkpt lat="37.486532" lon="-3.956049">
        <ele>847.508</ele>
        <time>2020-05-21T13:14:34Z</time>
      </trkpt>
      <trkpt lat="37.486456" lon="-3.955944">
        <ele>847.092</ele>
        <time>2020-05-21T13:14:47Z</time>
      </trkpt>
      <trkpt lat="37.486355" lon="-3.955791">
        <ele>845.313</ele>
        <time>2020-05-21T13:15:05Z</time>
      </trkpt>
      <trkpt lat="37.486201" lon="-3.955569">
        <ele>844.670</ele>
        <time>2020-05-21T13:15:32Z</time>
      </trkpt>
      <trkpt lat="37.486054" lon="-3.955327">
        <ele>843.018</ele>
        <time>2020-05-21T13:15:59Z</time>
      </trkpt>
      <trkpt lat="37.485898" lon="-3.955128">
        <ele>842.041</ele>
        <time>2020-05-21T13:16:25Z</time>
      </trkpt>
      <trkpt lat="37.485784" lon="-3.954968">
        <ele>841.022</ele>
        <time>2020-05-21T13:16:44Z</time>
      </trkpt>
      <trkpt lat="37.485686" lon="-3.954869">
        <ele>840.563</ele>
        <time>2020-05-21T13:16:58Z</time>
      </trkpt>
      <trkpt lat="37.485576" lon="-3.954788">
        <ele>840.032</ele>
        <time>2020-05-21T13:17:13Z</time>
      </trkpt>
      <trkpt lat="37.485460" lon="-3.954728">
        <ele>839.098</ele>
        <time>2020-05-21T13:17:27Z</time>
      </trkpt>
      <trkpt lat="37.485343" lon="-3.954668">
        <ele>839.015</ele>
        <time>2020-05-21T13:17:42Z</time>
      </trkpt>
      <trkpt lat="37.485170" lon="-3.954645">
        <ele>838.026</ele>
        <time>2020-05-21T13:18:01Z</time>
      </trkpt>
      <trkpt lat="37.484991" lon="-3.954595">
        <ele>838.008</ele>
        <time>2020-05-21T13:18:22Z</time>
      </trkpt>
      <trkpt lat="37.484816" lon="-3.954529">
        <ele>838.037</ele>
        <time>2020-05-21T13:18:43Z</time>
      </trkpt>
      <trkpt lat="37.484640" lon="-3.954463">
        <ele>837.058</ele>
        <time>2020-05-21T13:19:04Z</time>
      </trkpt>
      <trkpt lat="37.484468" lon="-3.954395">
        <ele>837.085</ele>
        <time>2020-05-21T13:19:25Z</time>
      </trkpt>
      <trkpt lat="37.484296" lon="-3.954327">
        <ele>836.863</ele>
        <time>2020-05-21T13:19:45Z</time>
      </trkpt>
      <trkpt lat="37.484136" lon="-3.954278">
        <ele>836.096</ele>
        <time>2020-05-21T13:20:04Z</time>
      </trkpt>
      <trkpt lat="37.483988" lon="-3.954237">
        <ele>836.077</ele>
        <time>2020-05-21T13:20:21Z</time>
      </trkpt>
      <trkpt lat="37.483837" lon="-3.954161">
        <ele>835.038</ele>
        <time>2020-05-21T13:20:40Z</time>
      </trkpt>
      <trkpt lat="37.483692" lon="-3.954081">
        <ele>834.057</ele>
        <time>2020-05-21T13:20:58Z</time>
      </trkpt>
      <trkpt lat="37.483553" lon="-3.953936">
        <ele>835.415</ele>
        <time>2020-05-21T13:21:18Z</time>
      </trkpt>
      <trkpt lat="37.483390" lon="-3.953744">
        <ele>837.065</ele>
        <time>2020-05-21T13:21:44Z</time>
      </trkpt>
      <trkpt lat="37.483217" lon="-3.953571">
        <ele>839.411</ele>
        <time>2020-05-21T13:22:09Z</time>
      </trkpt>
      <trkpt lat="37.483024" lon="-3.953382">
        <ele>842.708</ele>
        <time>2020-05-21T13:22:37Z</time>
      </trkpt>
      <trkpt lat="37.482756" lon="-3.953153">
        <ele>844.659</ele>
        <time>2020-05-21T13:23:14Z</time>
      </trkpt>
      <trkpt lat="37.482556" lon="-3.952968">
        <ele>846.130</ele>
        <time>2020-05-21T13:23:42Z</time>
      </trkpt>
      <trkpt lat="37.482438" lon="-3.952846">
        <ele>848.257</ele>
        <time>2020-05-21T13:24:00Z</time>
      </trkpt>
      <trkpt lat="37.482306" lon="-3.952636">
        <ele>849.035</ele>
        <time>2020-05-21T13:24:24Z</time>
      </trkpt>
      <trkpt lat="37.482143" lon="-3.952441">
        <ele>851.478</ele>
        <time>2020-05-21T13:24:50Z</time>
      </trkpt>
      <trkpt lat="37.481991" lon="-3.952223">
        <ele>852.089</ele>
        <time>2020-05-21T13:25:16Z</time>
      </trkpt>
      <trkpt lat="37.481830" lon="-3.951992">
        <ele>853.050</ele>
        <time>2020-05-21T13:25:44Z</time>
      </trkpt>
      <trkpt lat="37.481711" lon="-3.951833">
        <ele>854.059</ele>
        <time>2020-05-21T13:26:04Z</time>
      </trkpt>
      <trkpt lat="37.481542" lon="-3.951652">
        <ele>855.132</ele>
        <time>2020-05-21T13:26:29Z</time>
      </trkpt>
      <trkpt lat="37.481375" lon="-3.951492">
        <ele>857.192</ele>
        <time>2020-05-21T13:26:53Z</time>
      </trkpt>
      <trkpt lat="37.481228" lon="-3.951335">
        <ele>859.711</ele>
        <time>2020-05-21T13:27:15Z</time>
      </trkpt>
      <trkpt lat="37.481093" lon="-3.951182">
        <ele>861.108</ele>
        <time>2020-05-21T13:27:36Z</time>
      </trkpt>
      <trkpt lat="37.480934" lon="-3.950948">
        <ele>862.821</ele>
        <time>2020-05-21T13:28:04Z</time>
      </trkpt>
      <trkpt lat="37.480856" lon="-3.950858">
        <ele>863.312</ele>
        <time>2020-05-21T13:28:16Z</time>
      </trkpt>
      <trkpt lat="37.480701" lon="-3.950678">
        <ele>865.059</ele>
        <time>2020-05-21T13:28:40Z</time>
      </trkpt>
      <trkpt lat="37.480604" lon="-3.950545">
        <ele>865.097</ele>
        <time>2020-05-21T13:28:56Z</time>
      </trkpt>
      <trkpt lat="37.480435" lon="-3.950417">
        <ele>866.010</ele>
        <time>2020-05-21T13:29:19Z</time>
      </trkpt>
      <trkpt lat="37.480284" lon="-3.950311">
        <ele>867.011</ele>
        <time>2020-05-21T13:29:38Z</time>
      </trkpt>
      <trkpt lat="37.480125" lon="-3.950181">
        <ele>868.042</ele>
        <time>2020-05-21T13:30:00Z</time>
      </trkpt>
      <trkpt lat="37.479990" lon="-3.950051">
        <ele>869.021</ele>
        <time>2020-05-21T13:30:19Z</time>
      </trkpt>
      <trkpt lat="37.479787" lon="-3.949891">
        <ele>869.291</ele>
        <time>2020-05-21T13:30:47Z</time>
      </trkpt>
      <trkpt lat="37.479575" lon="-3.949738">
        <ele>870.081</ele>
        <time>2020-05-21T13:31:14Z</time>
      </trkpt>
      <trkpt lat="37.479374" lon="-3.949577">
        <ele>871.019</ele>
        <time>2020-05-21T13:31:42Z</time>
      </trkpt>
      <trkpt lat="37.479212" lon="-3.949436">
        <ele>872.808</ele>
        <time>2020-05-21T13:32:04Z</time>
      </trkpt>
      <trkpt lat="37.479004" lon="-3.949216">
        <ele>875.277</ele>
        <time>2020-05-21T13:32:35Z</time>
      </trkpt>
      <trkpt lat="37.478831" lon="-3.949013">
        <ele>877.028</ele>
        <time>2020-05-21T13:33:02Z</time>
      </trkpt>
      <trkpt lat="37.478675" lon="-3.948821">
        <ele>879.025</ele>
        <time>2020-05-21T13:33:27Z</time>
      </trkpt>
      <trkpt lat="37.478490" lon="-3.948607">
        <ele>879.073</ele>
        <time>2020-05-21T13:33:56Z</time>
      </trkpt>
      <trkpt lat="37.478427" lon="-3.948529">
        <ele>879.426</ele>
        <time>2020-05-21T13:34:06Z</time>
      </trkpt>
      <trkpt lat="37.478324" lon="-3.948410">
        <ele>880.097</ele>
        <time>2020-05-21T13:34:22Z</time>
      </trkpt>
      <trkpt lat="37.478127" lon="-3.948181">
        <ele>881.078</ele>
        <time>2020-05-21T13:34:52Z</time>
      </trkpt>
      <trkpt lat="37.477898" lon="-3.947943">
        <ele>881.987</ele>
        <time>2020-05-21T13:35:26Z</time>
      </trkpt>
      <trkpt lat="37.477667" lon="-3.947706">
        <ele>882.022</ele>
        <time>2020-05-21T13:36:00Z</time>
      </trkpt>
      <trkpt lat="37.477446" lon="-3.947443">
        <ele>882.062</ele>
        <time>2020-05-21T13:36:34Z</time>
      </trkpt>
      <trkpt lat="37.477305" lon="-3.947297">
        <ele>881.008</ele>
        <time>2020-05-21T13:36:55Z</time>
      </trkpt>
      <trkpt lat="37.477092" lon="-3.947108">
        <ele>879.908</ele>
        <time>2020-05-21T13:37:25Z</time>
      </trkpt>
      <trkpt lat="37.476852" lon="-3.946858">
        <ele>877.530</ele>
        <time>2020-05-21T13:38:00Z</time>
      </trkpt>
      <trkpt lat="37.476637" lon="-3.946667">
        <ele>874.881</ele>
        <time>2020-05-21T13:38:31Z</time>
      </trkpt>
      <trkpt lat="37.476542" lon="-3.946562">
        <ele>873.228</ele>
        <time>2020-05-21T13:38:45Z</time>
      </trkpt>
      <trkpt lat="37.476431" lon="-3.946445">
        <ele>872.186</ele>
        <time>2020-05-21T13:39:02Z</time>
      </trkpt>
      <trkpt lat="37.476246" lon="-3.946260">
        <ele>870.869</ele>
        <time>2020-05-21T13:39:29Z</time>
      </trkpt>
      <trkpt lat="37.476040" lon="-3.946020">
        <ele>869.290</ele>
        <time>2020-05-21T13:40:01Z</time>
      </trkpt>
      <trkpt lat="37.475829" lon="-3.945803">
        <ele>867.441</ele>
        <time>2020-05-21T13:40:32Z</time>
      </trkpt>
      <trkpt lat="37.475597" lon="-3.945559">
        <ele>866.030</ele>
        <time>2020-05-21T13:41:06Z</time>
      </trkpt>
      <trkpt lat="37.475365" lon="-3.945317">
        <ele>865.079</ele>
        <time>2020-05-21T13:41:40Z</time>
      </trkpt>
      <trkpt lat="37.475134" lon="-3.945075">
        <ele>863.005</ele>
        <time>2020-05-21T13:42:15Z</time>
      </trkpt>
      <trkpt lat="37.474958" lon="-3.944898">
        <ele>862.025</ele>
        <time>2020-05-21T13:42:40Z</time>
      </trkpt>
      <trkpt lat="37.474702" lon="-3.944634">
        <ele>860.008</ele>
        <time>2020-05-21T13:43:18Z</time>
      </trkpt>
      <trkpt lat="37.474432" lon="-3.944354">
        <ele>858.085</ele>
        <time>2020-05-21T13:43:58Z</time>
      </trkpt>
      <trkpt lat="37.474242" lon="-3.944158">
        <ele>856.366</ele>
        <time>2020-05-21T13:44:26Z</time>
      </trkpt>
      <trkpt lat="37.474020" lon="-3.943794">
        <ele>853.363</ele>
        <time>2020-05-21T13:45:07Z</time>
      </trkpt>
      <trkpt lat="37.473907" lon="-3.943608">
        <ele>852.381</ele>
        <time>2020-05-21T13:45:29Z</time>
      </trkpt>
      <trkpt lat="37.473709" lon="-3.943320">
        <ele>851.074</ele>
        <time>2020-05-21T13:46:03Z</time>
      </trkpt>
      <trkpt lat="37.473501" lon="-3.942995">
        <ele>848.135</ele>
        <time>2020-05-21T13:46:41Z</time>
      </trkpt>
      <trkpt lat="37.473392" lon="-3.942815">
        <ele>847.086</ele>
        <time>2020-05-21T13:47:01Z</time>
      </trkpt>
      <trkpt lat="37.473257" lon="-3.942516">
        <ele>845.095</ele>
        <time>2020-05-21T13:47:33Z</time>
      </trkpt>
      <trkpt lat="37.473128" lon="-3.942208">
        <ele>843.561</ele>
        <time>2020-05-21T13:48:04Z</time>
      </trkpt>
      <trkpt lat="37.472936" lon="-3.941799">
        <ele>841.021</ele>
        <time>2020-05-21T13:48:47Z</time>
      </trkpt>
      <trkpt lat="37.472741" lon="-3.941399">
        <ele>838.613</ele>
        <time>2020-05-21T13:49:30Z</time>
      </trkpt>
      <trkpt lat="37.472495" lon="-3.940906">
        <ele>835.208</ele>
        <time>2020-05-21T13:50:22Z</time>
      </trkpt>
      <trkpt lat="37.472288" lon="-3.940495">
        <ele>834.094</ele>
        <time>2020-05-21T13:51:06Z</time>
      </trkpt>
      <trkpt lat="37.472058" lon="-3.940029">
        <ele>832.035</ele>
        <time>2020-05-21T13:51:56Z</time>
      </trkpt>
      <trkpt lat="37.471821" lon="-3.939559">
        <ele>830.742</ele>
        <time>2020-05-21T13:52:46Z</time>
      </trkpt>
      <trkpt lat="37.471619" lon="-3.938943">
        <ele>826.530</ele>
        <time>2020-05-21T13:53:47Z</time>
      </trkpt>
      <trkpt lat="37.471417" lon="-3.938328">
        <ele>825.093</ele>
        <time>2020-05-21T13:54:47Z</time>
      </trkpt>
      <trkpt lat="37.471214" lon="-3.937712">
        <ele>824.024</ele>
        <time>2020-05-21T13:55:47Z</time>
      </trkpt>
      <trkpt lat="37.471050" lon="-3.937225">
        <ele>823.055</ele>
        <time>2020-05-21T13:56:35Z</time>
      </trkpt>
      <trkpt lat="37.470999" lon="-3.937028">
        <ele>823.514</ele>
        <time>2020-05-21T13:56:54Z</time>
      </trkpt>
      <trkpt lat="37.470910" lon="-3.936713">
        <ele>824.058</ele>
        <time>2020-05-21T13:57:24Z</time>
      </trkpt>
      <trkpt lat="37.470841" lon="-3.936587">
        <ele>824.052</ele>
        <time>2020-05-21T13:57:38Z</time>
      </trkpt>
      <trkpt lat="37.470630" lon="-3.936382">
        <ele>826.017</ele>
        <time>2020-05-21T13:58:08Z</time>
      </trkpt>
      <trkpt lat="37.470449" lon="-3.936165">
        <ele>826.808</ele>
        <time>2020-05-21T13:58:37Z</time>
      </trkpt>
      <trkpt lat="37.470237" lon="-3.935975">
        <ele>828.183</ele>
        <time>2020-05-21T13:59:06Z</time>
      </trkpt>
      <trkpt lat="37.470036" lon="-3.935831">
        <ele>829.224</ele>
        <time>2020-05-21T13:59:33Z</time>
      </trkpt>
      <trkpt lat="37.469827" lon="-3.935732">
        <ele>830.421</ele>
        <time>2020-05-21T13:59:58Z</time>
      </trkpt>
      <trkpt lat="37.469609" lon="-3.935657">
        <ele>831.079</ele>
        <time>2020-05-21T14:00:24Z</time>
      </trkpt>
      <trkpt lat="37.469379" lon="-3.935596">
        <ele>831.512</ele>
        <time>2020-05-21T14:00:51Z</time>
      </trkpt>
      <trkpt lat="37.469237" lon="-3.935577">
        <ele>832.073</ele>
        <time>2020-05-21T14:01:07Z</time>
      </trkpt>
      <trkpt lat="37.469028" lon="-3.935351">
        <ele>834.064</ele>
        <time>2020-05-21T14:01:39Z</time>
      </trkpt>
      <trkpt lat="37.468771" lon="-3.935049">
        <ele>836.023</ele>
        <time>2020-05-21T14:02:19Z</time>
      </trkpt>
      <trkpt lat="37.468751" lon="-3.935014">
        <ele>836.097</ele>
        <time>2020-05-21T14:02:22Z</time>
      </trkpt>
      <trkpt lat="37.468739" lon="-3.934860">
        <ele>836.023</ele>
        <time>2020-05-21T14:02:36Z</time>
      </trkpt>
      <trkpt lat="37.468730" lon="-3.934660">
        <ele>837.025</ele>
        <time>2020-05-21T14:02:55Z</time>
      </trkpt>
      <trkpt lat="37.468731" lon="-3.934447">
        <ele>838.508</ele>
        <time>2020-05-21T14:03:14Z</time>
      </trkpt>
      <trkpt lat="37.468742" lon="-3.934288">
        <ele>838.427</ele>
        <time>2020-05-21T14:03:28Z</time>
      </trkpt>
      <trkpt lat="37.468721" lon="-3.934038">
        <ele>839.518</ele>
        <time>2020-05-21T14:03:51Z</time>
      </trkpt>
      <trkpt lat="37.468685" lon="-3.933810">
        <ele>841.345</ele>
        <time>2020-05-21T14:04:12Z</time>
      </trkpt>
      <trkpt lat="37.468610" lon="-3.933543">
        <ele>845.543</ele>
        <time>2020-05-21T14:04:38Z</time>
      </trkpt>
      <trkpt lat="37.468569" lon="-3.933323">
        <ele>846.596</ele>
        <time>2020-05-21T14:04:59Z</time>
      </trkpt>
      <trkpt lat="37.468487" lon="-3.933068">
        <ele>848.947</ele>
        <time>2020-05-21T14:05:24Z</time>
      </trkpt>
      <trkpt lat="37.468417" lon="-3.932883">
        <ele>851.388</ele>
        <time>2020-05-21T14:05:42Z</time>
      </trkpt>
      <trkpt lat="37.468386" lon="-3.932573">
        <ele>852.677</ele>
        <time>2020-05-21T14:06:11Z</time>
      </trkpt>
      <trkpt lat="37.468372" lon="-3.932308">
        <ele>854.923</ele>
        <time>2020-05-21T14:06:35Z</time>
      </trkpt>
      <trkpt lat="37.468348" lon="-3.932165">
        <ele>855.483</ele>
        <time>2020-05-21T14:06:48Z</time>
      </trkpt>
      <trkpt lat="37.468344" lon="-3.931945">
        <ele>856.511</ele>
        <time>2020-05-21T14:07:08Z</time>
      </trkpt>
      <trkpt lat="37.468303" lon="-3.931660">
        <ele>859.108</ele>
        <time>2020-05-21T14:07:34Z</time>
      </trkpt>
      <trkpt lat="37.468282" lon="-3.931388">
        <ele>862.350</ele>
        <time>2020-05-21T14:07:59Z</time>
      </trkpt>
      <trkpt lat="37.468271" lon="-3.931152">
        <ele>863.851</ele>
        <time>2020-05-21T14:08:20Z</time>
      </trkpt>
      <trkpt lat="37.468300" lon="-3.930900">
        <ele>865.268</ele>
        <time>2020-05-21T14:08:44Z</time>
      </trkpt>
      <trkpt lat="37.468328" lon="-3.930699">
        <ele>865.756</ele>
        <time>2020-05-21T14:09:02Z</time>
      </trkpt>
      <trkpt lat="37.468209" lon="-3.930438">
        <ele>866.789</ele>
        <time>2020-05-21T14:09:29Z</time>
      </trkpt>
      <trkpt lat="37.468078" lon="-3.930227">
        <ele>870.410</ele>
        <time>2020-05-21T14:09:54Z</time>
      </trkpt>
      <trkpt lat="37.467946" lon="-3.929973">
        <ele>875.611</ele>
        <time>2020-05-21T14:10:22Z</time>
      </trkpt>
      <trkpt lat="37.467771" lon="-3.929777">
        <ele>879.050</ele>
        <time>2020-05-21T14:10:49Z</time>
      </trkpt>
      <trkpt lat="37.467644" lon="-3.929662">
        <ele>880.089</ele>
        <time>2020-05-21T14:11:06Z</time>
      </trkpt>
      <trkpt lat="37.467539" lon="-3.929578">
        <ele>880.806</ele>
        <time>2020-05-21T14:11:21Z</time>
      </trkpt>
      <trkpt lat="37.467392" lon="-3.929466">
        <ele>883.426</ele>
        <time>2020-05-21T14:11:40Z</time>
      </trkpt>
      <trkpt lat="37.467259" lon="-3.929407">
        <ele>884.808</ele>
        <time>2020-05-21T14:11:56Z</time>
      </trkpt>
      <trkpt lat="37.467093" lon="-3.929360">
        <ele>887.066</ele>
        <time>2020-05-21T14:12:16Z</time>
      </trkpt>
      <trkpt lat="37.466940" lon="-3.929256">
        <ele>887.437</ele>
        <time>2020-05-21T14:12:36Z</time>
      </trkpt>
      <trkpt lat="37.466834" lon="-3.929173">
        <ele>887.234</ele>
        <time>2020-05-21T14:12:50Z</time>
      </trkpt>
      <trkpt lat="37.466706" lon="-3.929094">
        <ele>888.352</ele>
        <time>2020-05-21T14:13:06Z</time>
      </trkpt>
      <trkpt lat="37.466554" lon="-3.928842">
        <ele>889.015</ele>
        <time>2020-05-21T14:13:35Z</time>
      </trkpt>
      <trkpt lat="37.466337" lon="-3.928489">
        <ele>889.116</ele>
        <time>2020-05-21T14:14:15Z</time>
      </trkpt>
      <trkpt lat="37.466275" lon="-3.928381">
        <ele>890.247</ele>
        <time>2020-05-21T14:14:27Z</time>
      </trkpt>
      <trkpt lat="37.466180" lon="-3.928005">
        <ele>892.846</ele>
        <time>2020-05-21T14:15:03Z</time>
      </trkpt>
      <trkpt lat="37.465986" lon="-3.927534">
        <ele>894.745</ele>
        <time>2020-05-21T14:15:51Z</time>
      </trkpt>
      <trkpt lat="37.465895" lon="-3.927199">
        <ele>896.047</ele>
        <time>2020-05-21T14:16:23Z</time>
      </trkpt>
      <trkpt lat="37.465831" lon="-3.926944">
        <ele>898.311</ele>
        <time>2020-05-21T14:16:47Z</time>
      </trkpt>
      <trkpt lat="37.465741" lon="-3.926661">
        <ele>900.808</ele>
        <time>2020-05-21T14:17:15Z</time>
      </trkpt>
      <trkpt lat="37.465673" lon="-3.926347">
        <ele>904.452</ele>
        <time>2020-05-21T14:17:45Z</time>
      </trkpt>
      <trkpt lat="37.465581" lon="-3.926008">
        <ele>906.553</ele>
        <time>2020-05-21T14:18:17Z</time>
      </trkpt>
      <trkpt lat="37.465480" lon="-3.925578">
        <ele>910.050</ele>
        <time>2020-05-21T14:18:58Z</time>
      </trkpt>
      <trkpt lat="37.465488" lon="-3.925475">
        <ele>911.078</ele>
        <time>2020-05-21T14:19:07Z</time>
      </trkpt>
      <trkpt lat="37.465390" lon="-3.925416">
        <ele>912.081</ele>
        <time>2020-05-21T14:19:20Z</time>
      </trkpt>
      <trkpt lat="37.465279" lon="-3.925362">
        <ele>912.032</ele>
        <time>2020-05-21T14:19:33Z</time>
      </trkpt>
      <trkpt lat="37.465109" lon="-3.925305">
        <ele>913.593</ele>
        <time>2020-05-21T14:19:53Z</time>
      </trkpt>
      <trkpt lat="37.464931" lon="-3.925228">
        <ele>915.012</ele>
        <time>2020-05-21T14:20:15Z</time>
      </trkpt>
      <trkpt lat="37.464792" lon="-3.925167">
        <ele>915.026</ele>
        <time>2020-05-21T14:20:32Z</time>
      </trkpt>
      <trkpt lat="37.464670" lon="-3.925084">
        <ele>916.747</ele>
        <time>2020-05-21T14:20:47Z</time>
      </trkpt>
    </trkseg>
  </trk>
</gpx>
